<?xml version="1.0" encoding="UTF-8" standalone="no" ?>
<gpx xmlns="http://www.topografix.com/GPX/1/1" xmlns:xsi="http://www.w3.org/2001/XMLSchema-instance" xsi:schemaLocation="http://www.topografix.com/GPX/1/1 http://www.topografix.com/GPX/1/1/gpx.xsd" version="1.1" creator="VisuGPX - https://www.visugpx.com">
  <metadata>
    <name>2015-07-06 Bike ride-Amberieux en Dombes O</name>
    <desc><![CDATA[2015-07-06 Bike ride-Amberieux en Dombes O]]></desc>
  </metadata>
  <wpt lat="45.92457" lon="4.7371">
    <ele>169.5</ele>
    <name><![CDATA[2015-07-06 10:21 (Start)]]></name>
  </wpt>
  <wpt lat="45.92472" lon="4.73686">
    <ele>165.7</ele>
    <name><![CDATA[2015-07-06 10:21 (End)]]></name>
    <desc><![CDATA[Created by Google My Tracks on Android  Name: 2015-07-06 10:21 Activity type: biking Description: - Total distance: 46.13 km (28.7 mi) Total time: 2:17:43 Moving time: 2:04:00 Average speed: 20.10 km/h (12.5 mi/h) Average moving speed: 22.32 km/h (13.9 mi/h) Max speed: 45.52 km/h (28.3 mi/h) Average pace: 2:59 min/km (4:48 min/mi) Average moving pace: 2:41 min/km (4:20 min/mi) Fastest pace: 1:19 min/km (2:07 min/mi) Max elevation: 317 m (1039 ft) Min elevation: 148 m (486 ft) Elevation gain: 705 m (2314 ft) Max grade: 14 % Min grade: -18 % Recorded: 06/07/2015 10:21]]></desc>
  </wpt>
  <trk>
    <name><![CDATA[2015-07-06 10:21]]></name>
    <trkseg>
      <trkpt lat="45.92457" lon="4.7371">
        <ele>169.5</ele>
        <time>2015-07-06T08:21:20.975Z</time>
      </trkpt>
      <trkpt lat="45.92464" lon="4.73701">
        <ele>165.800003052</ele>
        <time>2015-07-06T08:21:53.096Z</time>
      </trkpt>
      <trkpt lat="45.92465" lon="4.73697">
        <ele>165.699996948</ele>
        <time>2015-07-06T08:21:54.038Z</time>
      </trkpt>
      <trkpt lat="45.92465" lon="4.73687">
        <ele>165.399993896</ele>
        <time>2015-07-06T08:21:52.156Z</time>
      </trkpt>
      <trkpt lat="45.92465" lon="4.73682">
        <ele>167.5</ele>
        <time>2015-07-06T08:21:57.059Z</time>
      </trkpt>
      <trkpt lat="45.92466" lon="4.73673">
        <ele>167.699996948</ele>
        <time>2015-07-06T08:21:59.035Z</time>
      </trkpt>
      <trkpt lat="45.92467" lon="4.7367">
        <ele>166.699996948</ele>
        <time>2015-07-06T08:22:00.082Z</time>
      </trkpt>
      <trkpt lat="45.92469" lon="4.73659">
        <ele>165.5</ele>
        <time>2015-07-06T08:21:57.293Z</time>
      </trkpt>
      <trkpt lat="45.92476" lon="4.73657">
        <ele>164.399993896</ele>
        <time>2015-07-06T08:22:03.032Z</time>
      </trkpt>
      <trkpt lat="45.92479" lon="4.73652">
        <ele>163.899993896</ele>
        <time>2015-07-06T08:22:04.022Z</time>
      </trkpt>
      <trkpt lat="45.92483" lon="4.73647">
        <ele>163.300003052</ele>
        <time>2015-07-06T08:22:05.031Z</time>
      </trkpt>
      <trkpt lat="45.9249" lon="4.73645">
        <ele>162.100006104</ele>
        <time>2015-07-06T08:22:07.005Z</time>
      </trkpt>
      <trkpt lat="45.92494" lon="4.73644">
        <ele>161.600006104</ele>
        <time>2015-07-06T08:22:08.048Z</time>
      </trkpt>
      <trkpt lat="45.92502" lon="4.73643">
        <ele>160.899993896</ele>
        <time>2015-07-06T08:22:10.054Z</time>
      </trkpt>
      <trkpt lat="45.92506" lon="4.73642">
        <ele>160.800003052</ele>
        <time>2015-07-06T08:22:11.044Z</time>
      </trkpt>
      <trkpt lat="45.9251" lon="4.73641">
        <ele>160.699996948</ele>
        <time>2015-07-06T08:22:12.013Z</time>
      </trkpt>
      <trkpt lat="45.92515" lon="4.7364">
        <ele>160.699996948</ele>
        <time>2015-07-06T08:22:13.044Z</time>
      </trkpt>
      <trkpt lat="45.92523" lon="4.73635">
        <ele>161.300003052</ele>
        <time>2015-07-06T08:22:15.04Z</time>
      </trkpt>
      <trkpt lat="45.92528" lon="4.73636">
        <ele>161.300003052</ele>
        <time>2015-07-06T08:22:16.048Z</time>
      </trkpt>
      <trkpt lat="45.92536" lon="4.73637">
        <ele>162.399993896</ele>
        <time>2015-07-06T08:22:18.037Z</time>
      </trkpt>
      <trkpt lat="45.92541" lon="4.73637">
        <ele>162.800003052</ele>
        <time>2015-07-06T08:22:19.117Z</time>
      </trkpt>
      <trkpt lat="45.92546" lon="4.73636">
        <ele>163</ele>
        <time>2015-07-06T08:22:20.02Z</time>
      </trkpt>
      <trkpt lat="45.92551" lon="4.73634">
        <ele>163.399993896</ele>
        <time>2015-07-06T08:22:21.045Z</time>
      </trkpt>
      <trkpt lat="45.92555" lon="4.73633">
        <ele>163.800003052</ele>
        <time>2015-07-06T08:22:22.016Z</time>
      </trkpt>
      <trkpt lat="45.9256" lon="4.73632">
        <ele>164.199996948</ele>
        <time>2015-07-06T08:22:23.193Z</time>
      </trkpt>
      <trkpt lat="45.92566" lon="4.73631">
        <ele>164.399993896</ele>
        <time>2015-07-06T08:22:24.044Z</time>
      </trkpt>
      <trkpt lat="45.92571" lon="4.7363">
        <ele>164.600006104</ele>
        <time>2015-07-06T08:22:25.003Z</time>
      </trkpt>
      <trkpt lat="45.92576" lon="4.73626">
        <ele>164.5</ele>
        <time>2015-07-06T08:22:26.021Z</time>
      </trkpt>
      <trkpt lat="45.92581" lon="4.73625">
        <ele>165.600006104</ele>
        <time>2015-07-06T08:22:26.992Z</time>
      </trkpt>
      <trkpt lat="45.92585" lon="4.73625">
        <ele>166.5</ele>
        <time>2015-07-06T08:22:28.012Z</time>
      </trkpt>
      <trkpt lat="45.9259" lon="4.73626">
        <ele>167</ele>
        <time>2015-07-06T08:22:29.035Z</time>
      </trkpt>
      <trkpt lat="45.92595" lon="4.73626">
        <ele>167.199996948</ele>
        <time>2015-07-06T08:22:30.014Z</time>
      </trkpt>
      <trkpt lat="45.92599" lon="4.73627">
        <ele>167.199996948</ele>
        <time>2015-07-06T08:22:31.013Z</time>
      </trkpt>
      <trkpt lat="45.92606" lon="4.73633">
        <ele>166.699996948</ele>
        <time>2015-07-06T08:22:32.018Z</time>
      </trkpt>
      <trkpt lat="45.92611" lon="4.73637">
        <ele>166.800003052</ele>
        <time>2015-07-06T08:22:33.197Z</time>
      </trkpt>
      <trkpt lat="45.92617" lon="4.73641">
        <ele>167.100006104</ele>
        <time>2015-07-06T08:22:35.014Z</time>
      </trkpt>
      <trkpt lat="45.9262" lon="4.73646">
        <ele>166.899993896</ele>
        <time>2015-07-06T08:22:36.102Z</time>
      </trkpt>
      <trkpt lat="45.92622" lon="4.73651">
        <ele>166.800003052</ele>
        <time>2015-07-06T08:22:37.03Z</time>
      </trkpt>
      <trkpt lat="45.92626" lon="4.73657">
        <ele>166.300003052</ele>
        <time>2015-07-06T08:22:38.014Z</time>
      </trkpt>
      <trkpt lat="45.92629" lon="4.73663">
        <ele>166.199996948</ele>
        <time>2015-07-06T08:22:39.101Z</time>
      </trkpt>
      <trkpt lat="45.92632" lon="4.73668">
        <ele>166.199996948</ele>
        <time>2015-07-06T08:22:40.011Z</time>
      </trkpt>
      <trkpt lat="45.92635" lon="4.73673">
        <ele>166</ele>
        <time>2015-07-06T08:22:41.013Z</time>
      </trkpt>
      <trkpt lat="45.92638" lon="4.73678">
        <ele>166</ele>
        <time>2015-07-06T08:22:42.018Z</time>
      </trkpt>
      <trkpt lat="45.92642" lon="4.73684">
        <ele>166.199996948</ele>
        <time>2015-07-06T08:22:43.017Z</time>
      </trkpt>
      <trkpt lat="45.92646" lon="4.73689">
        <ele>166.100006104</ele>
        <time>2015-07-06T08:22:44.062Z</time>
      </trkpt>
      <trkpt lat="45.92651" lon="4.73694">
        <ele>166.5</ele>
        <time>2015-07-06T08:22:45.015Z</time>
      </trkpt>
      <trkpt lat="45.92656" lon="4.73698">
        <ele>166.5</ele>
        <time>2015-07-06T08:22:46.055Z</time>
      </trkpt>
      <trkpt lat="45.92661" lon="4.73703">
        <ele>166.399993896</ele>
        <time>2015-07-06T08:22:47.015Z</time>
      </trkpt>
      <trkpt lat="45.92667" lon="4.73706">
        <ele>166.5</ele>
        <time>2015-07-06T08:22:48.02Z</time>
      </trkpt>
      <trkpt lat="45.92673" lon="4.73707">
        <ele>166.600006104</ele>
        <time>2015-07-06T08:22:49.053Z</time>
      </trkpt>
      <trkpt lat="45.92678" lon="4.7371">
        <ele>166.699996948</ele>
        <time>2015-07-06T08:22:50.02Z</time>
      </trkpt>
      <trkpt lat="45.92685" lon="4.73711">
        <ele>166.699996948</ele>
        <time>2015-07-06T08:22:51.015Z</time>
      </trkpt>
      <trkpt lat="45.92691" lon="4.73712">
        <ele>166.600006104</ele>
        <time>2015-07-06T08:22:52.012Z</time>
      </trkpt>
      <trkpt lat="45.92696" lon="4.73713">
        <ele>166.5</ele>
        <time>2015-07-06T08:22:53.014Z</time>
      </trkpt>
      <trkpt lat="45.92702" lon="4.73715">
        <ele>166.800003052</ele>
        <time>2015-07-06T08:22:54.014Z</time>
      </trkpt>
      <trkpt lat="45.92707" lon="4.73715">
        <ele>166.800003052</ele>
        <time>2015-07-06T08:22:55.062Z</time>
      </trkpt>
      <trkpt lat="45.92713" lon="4.73716">
        <ele>166.800003052</ele>
        <time>2015-07-06T08:22:56.014Z</time>
      </trkpt>
      <trkpt lat="45.92718" lon="4.73718">
        <ele>166.699996948</ele>
        <time>2015-07-06T08:22:57.014Z</time>
      </trkpt>
      <trkpt lat="45.92724" lon="4.73719">
        <ele>166.600006104</ele>
        <time>2015-07-06T08:22:58.013Z</time>
      </trkpt>
      <trkpt lat="45.92729" lon="4.7372">
        <ele>166.699996948</ele>
        <time>2015-07-06T08:22:59.015Z</time>
      </trkpt>
      <trkpt lat="45.92734" lon="4.73721">
        <ele>166.699996948</ele>
        <time>2015-07-06T08:23:00.033Z</time>
      </trkpt>
      <trkpt lat="45.9274" lon="4.73721">
        <ele>166.800003052</ele>
        <time>2015-07-06T08:23:01.021Z</time>
      </trkpt>
      <trkpt lat="45.92745" lon="4.73723">
        <ele>167.199996948</ele>
        <time>2015-07-06T08:23:02.012Z</time>
      </trkpt>
      <trkpt lat="45.92751" lon="4.73724">
        <ele>167.5</ele>
        <time>2015-07-06T08:23:03.014Z</time>
      </trkpt>
      <trkpt lat="45.92755" lon="4.73726">
        <ele>167.899993896</ele>
        <time>2015-07-06T08:23:04.014Z</time>
      </trkpt>
      <trkpt lat="45.9276" lon="4.73727">
        <ele>168.399993896</ele>
        <time>2015-07-06T08:23:05.034Z</time>
      </trkpt>
      <trkpt lat="45.92765" lon="4.73729">
        <ele>168.800003052</ele>
        <time>2015-07-06T08:23:06.02Z</time>
      </trkpt>
      <trkpt lat="45.9277" lon="4.73733">
        <ele>169.300003052</ele>
        <time>2015-07-06T08:23:07.014Z</time>
      </trkpt>
      <trkpt lat="45.92775" lon="4.73735">
        <ele>170</ele>
        <time>2015-07-06T08:23:08.015Z</time>
      </trkpt>
      <trkpt lat="45.92781" lon="4.73732">
        <ele>172.199996948</ele>
        <time>2015-07-06T08:23:10.013Z</time>
      </trkpt>
      <trkpt lat="45.92784" lon="4.73727">
        <ele>172.600006104</ele>
        <time>2015-07-06T08:23:11.011Z</time>
      </trkpt>
      <trkpt lat="45.92786" lon="4.73715">
        <ele>174</ele>
        <time>2015-07-06T08:23:13.015Z</time>
      </trkpt>
      <trkpt lat="45.92787" lon="4.73709">
        <ele>174.699996948</ele>
        <time>2015-07-06T08:23:14.014Z</time>
      </trkpt>
      <trkpt lat="45.92787" lon="4.73702">
        <ele>175.300003052</ele>
        <time>2015-07-06T08:23:15.012Z</time>
      </trkpt>
      <trkpt lat="45.92789" lon="4.73696">
        <ele>175.699996948</ele>
        <time>2015-07-06T08:23:16.033Z</time>
      </trkpt>
      <trkpt lat="45.92789" lon="4.7369">
        <ele>176.199996948</ele>
        <time>2015-07-06T08:23:17.014Z</time>
      </trkpt>
      <trkpt lat="45.92791" lon="4.73683">
        <ele>176.600006104</ele>
        <time>2015-07-06T08:23:18.014Z</time>
      </trkpt>
      <trkpt lat="45.92793" lon="4.73671">
        <ele>177.300003052</ele>
        <time>2015-07-06T08:23:20.014Z</time>
      </trkpt>
      <trkpt lat="45.92794" lon="4.73665">
        <ele>177.5</ele>
        <time>2015-07-06T08:23:21.036Z</time>
      </trkpt>
      <trkpt lat="45.92795" lon="4.73659">
        <ele>177.800003052</ele>
        <time>2015-07-06T08:23:22.015Z</time>
      </trkpt>
      <trkpt lat="45.92802" lon="4.73652">
        <ele>178.199996948</ele>
        <time>2015-07-06T08:23:23.039Z</time>
      </trkpt>
      <trkpt lat="45.92807" lon="4.73644">
        <ele>182.199996948</ele>
        <time>2015-07-06T08:23:29.033Z</time>
      </trkpt>
      <trkpt lat="45.92807" lon="4.73643">
        <ele>182.699996948</ele>
        <time>2015-07-06T08:23:30.021Z</time>
      </trkpt>
      <trkpt lat="45.9281" lon="4.73641">
        <ele>183.100006104</ele>
        <time>2015-07-06T08:23:35.016Z</time>
      </trkpt>
      <trkpt lat="45.92811" lon="4.73637">
        <ele>182.699996948</ele>
        <time>2015-07-06T08:23:36.015Z</time>
      </trkpt>
      <trkpt lat="45.92812" lon="4.73627">
        <ele>182.399993896</ele>
        <time>2015-07-06T08:23:38.012Z</time>
      </trkpt>
      <trkpt lat="45.92812" lon="4.73621">
        <ele>182.300003052</ele>
        <time>2015-07-06T08:23:39.012Z</time>
      </trkpt>
      <trkpt lat="45.92811" lon="4.73609">
        <ele>181.899993896</ele>
        <time>2015-07-06T08:23:41.014Z</time>
      </trkpt>
      <trkpt lat="45.92812" lon="4.73602">
        <ele>181.800003052</ele>
        <time>2015-07-06T08:23:42.031Z</time>
      </trkpt>
      <trkpt lat="45.92812" lon="4.73595">
        <ele>181.600006104</ele>
        <time>2015-07-06T08:23:43.013Z</time>
      </trkpt>
      <trkpt lat="45.92812" lon="4.73588">
        <ele>181.399993896</ele>
        <time>2015-07-06T08:23:44.015Z</time>
      </trkpt>
      <trkpt lat="45.92813" lon="4.73581">
        <ele>181.399993896</ele>
        <time>2015-07-06T08:23:45.01Z</time>
      </trkpt>
      <trkpt lat="45.92813" lon="4.73573">
        <ele>181.100006104</ele>
        <time>2015-07-06T08:23:46.015Z</time>
      </trkpt>
      <trkpt lat="45.92814" lon="4.73565">
        <ele>181</ele>
        <time>2015-07-06T08:23:47.014Z</time>
      </trkpt>
      <trkpt lat="45.92814" lon="4.73558">
        <ele>180.899993896</ele>
        <time>2015-07-06T08:23:48.014Z</time>
      </trkpt>
      <trkpt lat="45.92815" lon="4.73551">
        <ele>180.600006104</ele>
        <time>2015-07-06T08:23:49.015Z</time>
      </trkpt>
      <trkpt lat="45.92815" lon="4.73542">
        <ele>180.399993896</ele>
        <time>2015-07-06T08:23:50.012Z</time>
      </trkpt>
      <trkpt lat="45.92816" lon="4.73535">
        <ele>180.100006104</ele>
        <time>2015-07-06T08:23:51.013Z</time>
      </trkpt>
      <trkpt lat="45.92817" lon="4.73527">
        <ele>179.899993896</ele>
        <time>2015-07-06T08:23:52.012Z</time>
      </trkpt>
      <trkpt lat="45.92818" lon="4.73518">
        <ele>179.699996948</ele>
        <time>2015-07-06T08:23:53.029Z</time>
      </trkpt>
      <trkpt lat="45.92819" lon="4.7351">
        <ele>179.399993896</ele>
        <time>2015-07-06T08:23:54.072Z</time>
      </trkpt>
      <trkpt lat="45.92821" lon="4.73501">
        <ele>179.100006104</ele>
        <time>2015-07-06T08:23:55.014Z</time>
      </trkpt>
      <trkpt lat="45.92823" lon="4.73493">
        <ele>178.800003052</ele>
        <time>2015-07-06T08:23:56.019Z</time>
      </trkpt>
      <trkpt lat="45.92824" lon="4.73485">
        <ele>178.600006104</ele>
        <time>2015-07-06T08:23:57.015Z</time>
      </trkpt>
      <trkpt lat="45.92825" lon="4.73476">
        <ele>178.399993896</ele>
        <time>2015-07-06T08:23:58.017Z</time>
      </trkpt>
      <trkpt lat="45.92826" lon="4.73468">
        <ele>178.199996948</ele>
        <time>2015-07-06T08:23:59.013Z</time>
      </trkpt>
      <trkpt lat="45.92826" lon="4.7346">
        <ele>177.899993896</ele>
        <time>2015-07-06T08:24:00.026Z</time>
      </trkpt>
      <trkpt lat="45.92827" lon="4.73451">
        <ele>177.600006104</ele>
        <time>2015-07-06T08:24:01.068Z</time>
      </trkpt>
      <trkpt lat="45.92829" lon="4.73442">
        <ele>177.399993896</ele>
        <time>2015-07-06T08:24:02.015Z</time>
      </trkpt>
      <trkpt lat="45.9283" lon="4.73433">
        <ele>176.899993896</ele>
        <time>2015-07-06T08:24:03.013Z</time>
      </trkpt>
      <trkpt lat="45.92831" lon="4.73424">
        <ele>176.5</ele>
        <time>2015-07-06T08:24:04.014Z</time>
      </trkpt>
      <trkpt lat="45.92833" lon="4.73415">
        <ele>176.100006104</ele>
        <time>2015-07-06T08:24:05.015Z</time>
      </trkpt>
      <trkpt lat="45.92834" lon="4.73406">
        <ele>175.899993896</ele>
        <time>2015-07-06T08:24:06.014Z</time>
      </trkpt>
      <trkpt lat="45.92836" lon="4.73397">
        <ele>175.600006104</ele>
        <time>2015-07-06T08:24:07.126Z</time>
      </trkpt>
      <trkpt lat="45.92838" lon="4.73388">
        <ele>175</ele>
        <time>2015-07-06T08:24:08.02Z</time>
      </trkpt>
      <trkpt lat="45.9284" lon="4.73379">
        <ele>174.699996948</ele>
        <time>2015-07-06T08:24:09.082Z</time>
      </trkpt>
      <trkpt lat="45.92842" lon="4.73369">
        <ele>174.300003052</ele>
        <time>2015-07-06T08:24:10.148Z</time>
      </trkpt>
      <trkpt lat="45.92844" lon="4.7336">
        <ele>173.899993896</ele>
        <time>2015-07-06T08:24:11.094Z</time>
      </trkpt>
      <trkpt lat="45.92845" lon="4.73352">
        <ele>173.800003052</ele>
        <time>2015-07-06T08:24:12.022Z</time>
      </trkpt>
      <trkpt lat="45.92846" lon="4.73343">
        <ele>173.600006104</ele>
        <time>2015-07-06T08:24:13.421Z</time>
      </trkpt>
      <trkpt lat="45.92847" lon="4.73334">
        <ele>173.399993896</ele>
        <time>2015-07-06T08:24:14.071Z</time>
      </trkpt>
      <trkpt lat="45.92847" lon="4.73326">
        <ele>173.5</ele>
        <time>2015-07-06T08:24:15.018Z</time>
      </trkpt>
      <trkpt lat="45.92848" lon="4.73317">
        <ele>173.600006104</ele>
        <time>2015-07-06T08:24:16.022Z</time>
      </trkpt>
      <trkpt lat="45.92849" lon="4.73308">
        <ele>173.600006104</ele>
        <time>2015-07-06T08:24:17.018Z</time>
      </trkpt>
      <trkpt lat="45.92849" lon="4.73299">
        <ele>173.600006104</ele>
        <time>2015-07-06T08:24:18.017Z</time>
      </trkpt>
      <trkpt lat="45.9285" lon="4.73291">
        <ele>173.600006104</ele>
        <time>2015-07-06T08:24:19.012Z</time>
      </trkpt>
      <trkpt lat="45.92851" lon="4.73282">
        <ele>173.600006104</ele>
        <time>2015-07-06T08:24:20.012Z</time>
      </trkpt>
      <trkpt lat="45.92852" lon="4.73273">
        <ele>173.600006104</ele>
        <time>2015-07-06T08:24:21.03Z</time>
      </trkpt>
      <trkpt lat="45.92853" lon="4.73264">
        <ele>173.600006104</ele>
        <time>2015-07-06T08:24:22.014Z</time>
      </trkpt>
      <trkpt lat="45.92855" lon="4.73256">
        <ele>173.300003052</ele>
        <time>2015-07-06T08:24:23.015Z</time>
      </trkpt>
      <trkpt lat="45.92856" lon="4.73248">
        <ele>173.399993896</ele>
        <time>2015-07-06T08:24:24.02Z</time>
      </trkpt>
      <trkpt lat="45.92858" lon="4.73239">
        <ele>173.399993896</ele>
        <time>2015-07-06T08:24:25.014Z</time>
      </trkpt>
      <trkpt lat="45.92859" lon="4.73231">
        <ele>173.399993896</ele>
        <time>2015-07-06T08:24:26.015Z</time>
      </trkpt>
      <trkpt lat="45.92861" lon="4.73223">
        <ele>173.5</ele>
        <time>2015-07-06T08:24:27.013Z</time>
      </trkpt>
      <trkpt lat="45.92862" lon="4.73214">
        <ele>173.5</ele>
        <time>2015-07-06T08:24:28.012Z</time>
      </trkpt>
      <trkpt lat="45.92863" lon="4.73205">
        <ele>173.5</ele>
        <time>2015-07-06T08:24:29.012Z</time>
      </trkpt>
      <trkpt lat="45.92864" lon="4.73196">
        <ele>173.5</ele>
        <time>2015-07-06T08:24:30.152Z</time>
      </trkpt>
      <trkpt lat="45.92865" lon="4.73188">
        <ele>173.600006104</ele>
        <time>2015-07-06T08:24:31.013Z</time>
      </trkpt>
      <trkpt lat="45.92865" lon="4.73179">
        <ele>173.600006104</ele>
        <time>2015-07-06T08:24:32.014Z</time>
      </trkpt>
      <trkpt lat="45.92866" lon="4.7317">
        <ele>173.600006104</ele>
        <time>2015-07-06T08:24:33.011Z</time>
      </trkpt>
      <trkpt lat="45.92867" lon="4.73161">
        <ele>173.699996948</ele>
        <time>2015-07-06T08:24:34.013Z</time>
      </trkpt>
      <trkpt lat="45.92868" lon="4.73153">
        <ele>173.899993896</ele>
        <time>2015-07-06T08:24:35.008Z</time>
      </trkpt>
      <trkpt lat="45.92869" lon="4.73144">
        <ele>173.899993896</ele>
        <time>2015-07-06T08:24:36.04Z</time>
      </trkpt>
      <trkpt lat="45.92871" lon="4.73136">
        <ele>174.100006104</ele>
        <time>2015-07-06T08:24:37.014Z</time>
      </trkpt>
      <trkpt lat="45.92871" lon="4.73128">
        <ele>174.800003052</ele>
        <time>2015-07-06T08:24:38.013Z</time>
      </trkpt>
      <trkpt lat="45.92873" lon="4.73121">
        <ele>175.5</ele>
        <time>2015-07-06T08:24:39.014Z</time>
      </trkpt>
      <trkpt lat="45.92875" lon="4.73113">
        <ele>176</ele>
        <time>2015-07-06T08:24:40.012Z</time>
      </trkpt>
      <trkpt lat="45.92877" lon="4.73104">
        <ele>176.5</ele>
        <time>2015-07-06T08:24:41.015Z</time>
      </trkpt>
      <trkpt lat="45.92879" lon="4.73097">
        <ele>176.899993896</ele>
        <time>2015-07-06T08:24:42.017Z</time>
      </trkpt>
      <trkpt lat="45.92882" lon="4.73089">
        <ele>177.199996948</ele>
        <time>2015-07-06T08:24:43.014Z</time>
      </trkpt>
      <trkpt lat="45.92885" lon="4.73082">
        <ele>177.5</ele>
        <time>2015-07-06T08:24:44.013Z</time>
      </trkpt>
      <trkpt lat="45.92888" lon="4.73075">
        <ele>177.899993896</ele>
        <time>2015-07-06T08:24:45.013Z</time>
      </trkpt>
      <trkpt lat="45.92891" lon="4.73068">
        <ele>178.300003052</ele>
        <time>2015-07-06T08:24:46.011Z</time>
      </trkpt>
      <trkpt lat="45.92895" lon="4.73062">
        <ele>178.699996948</ele>
        <time>2015-07-06T08:24:47.011Z</time>
      </trkpt>
      <trkpt lat="45.92899" lon="4.73057">
        <ele>179.100006104</ele>
        <time>2015-07-06T08:24:48.016Z</time>
      </trkpt>
      <trkpt lat="45.92903" lon="4.73051">
        <ele>179.5</ele>
        <time>2015-07-06T08:24:49.015Z</time>
      </trkpt>
      <trkpt lat="45.92906" lon="4.73045">
        <ele>180.100006104</ele>
        <time>2015-07-06T08:24:50.013Z</time>
      </trkpt>
      <trkpt lat="45.92911" lon="4.7304">
        <ele>180.699996948</ele>
        <time>2015-07-06T08:24:51.01Z</time>
      </trkpt>
      <trkpt lat="45.92915" lon="4.73035">
        <ele>181.199996948</ele>
        <time>2015-07-06T08:24:52.011Z</time>
      </trkpt>
      <trkpt lat="45.92918" lon="4.73031">
        <ele>181.800003052</ele>
        <time>2015-07-06T08:24:53.012Z</time>
      </trkpt>
      <trkpt lat="45.92922" lon="4.73026">
        <ele>182.5</ele>
        <time>2015-07-06T08:24:54.018Z</time>
      </trkpt>
      <trkpt lat="45.92927" lon="4.7302">
        <ele>183.300003052</ele>
        <time>2015-07-06T08:24:55.045Z</time>
      </trkpt>
      <trkpt lat="45.92932" lon="4.73015">
        <ele>184</ele>
        <time>2015-07-06T08:24:56.014Z</time>
      </trkpt>
      <trkpt lat="45.92938" lon="4.73009">
        <ele>184.600006104</ele>
        <time>2015-07-06T08:24:57.028Z</time>
      </trkpt>
      <trkpt lat="45.92942" lon="4.73004">
        <ele>185.399993896</ele>
        <time>2015-07-06T08:24:58.011Z</time>
      </trkpt>
      <trkpt lat="45.92947" lon="4.72998">
        <ele>186</ele>
        <time>2015-07-06T08:24:59.013Z</time>
      </trkpt>
      <trkpt lat="45.92952" lon="4.72993">
        <ele>186.5</ele>
        <time>2015-07-06T08:25:00.027Z</time>
      </trkpt>
      <trkpt lat="45.92957" lon="4.72988">
        <ele>187.300003052</ele>
        <time>2015-07-06T08:25:01.01Z</time>
      </trkpt>
      <trkpt lat="45.92961" lon="4.72983">
        <ele>188.100006104</ele>
        <time>2015-07-06T08:25:02.01Z</time>
      </trkpt>
      <trkpt lat="45.92965" lon="4.72978">
        <ele>188.800003052</ele>
        <time>2015-07-06T08:25:03.013Z</time>
      </trkpt>
      <trkpt lat="45.92969" lon="4.72973">
        <ele>189.300003052</ele>
        <time>2015-07-06T08:25:04.011Z</time>
      </trkpt>
      <trkpt lat="45.92974" lon="4.72967">
        <ele>189.800003052</ele>
        <time>2015-07-06T08:25:05.012Z</time>
      </trkpt>
      <trkpt lat="45.92978" lon="4.7296">
        <ele>190.199996948</ele>
        <time>2015-07-06T08:25:06.014Z</time>
      </trkpt>
      <trkpt lat="45.92983" lon="4.72955">
        <ele>190.5</ele>
        <time>2015-07-06T08:25:07.013Z</time>
      </trkpt>
      <trkpt lat="45.92987" lon="4.72949">
        <ele>191</ele>
        <time>2015-07-06T08:25:08.014Z</time>
      </trkpt>
      <trkpt lat="45.92993" lon="4.72944">
        <ele>191.399993896</ele>
        <time>2015-07-06T08:25:09.021Z</time>
      </trkpt>
      <trkpt lat="45.92997" lon="4.72938">
        <ele>191.899993896</ele>
        <time>2015-07-06T08:25:10.011Z</time>
      </trkpt>
      <trkpt lat="45.93002" lon="4.72931">
        <ele>192.399993896</ele>
        <time>2015-07-06T08:25:11.01Z</time>
      </trkpt>
      <trkpt lat="45.93007" lon="4.72925">
        <ele>192.800003052</ele>
        <time>2015-07-06T08:25:12.013Z</time>
      </trkpt>
      <trkpt lat="45.93012" lon="4.72919">
        <ele>193</ele>
        <time>2015-07-06T08:25:13.03Z</time>
      </trkpt>
      <trkpt lat="45.93016" lon="4.72914">
        <ele>193.5</ele>
        <time>2015-07-06T08:25:14.011Z</time>
      </trkpt>
      <trkpt lat="45.9302" lon="4.72908">
        <ele>194</ele>
        <time>2015-07-06T08:25:15.014Z</time>
      </trkpt>
      <trkpt lat="45.93025" lon="4.72902">
        <ele>194.5</ele>
        <time>2015-07-06T08:25:16.042Z</time>
      </trkpt>
      <trkpt lat="45.9303" lon="4.72896">
        <ele>194.899993896</ele>
        <time>2015-07-06T08:25:17.014Z</time>
      </trkpt>
      <trkpt lat="45.93035" lon="4.72891">
        <ele>195.300003052</ele>
        <time>2015-07-06T08:25:18.013Z</time>
      </trkpt>
      <trkpt lat="45.93039" lon="4.72886">
        <ele>195.600006104</ele>
        <time>2015-07-06T08:25:19.011Z</time>
      </trkpt>
      <trkpt lat="45.93044" lon="4.72881">
        <ele>196</ele>
        <time>2015-07-06T08:25:20.01Z</time>
      </trkpt>
      <trkpt lat="45.93049" lon="4.72876">
        <ele>196.5</ele>
        <time>2015-07-06T08:25:21.029Z</time>
      </trkpt>
      <trkpt lat="45.93054" lon="4.72871">
        <ele>197</ele>
        <time>2015-07-06T08:25:22.014Z</time>
      </trkpt>
      <trkpt lat="45.93058" lon="4.72867">
        <ele>197.5</ele>
        <time>2015-07-06T08:25:23.013Z</time>
      </trkpt>
      <trkpt lat="45.93063" lon="4.72862">
        <ele>198</ele>
        <time>2015-07-06T08:25:24.018Z</time>
      </trkpt>
      <trkpt lat="45.93067" lon="4.72858">
        <ele>198.5</ele>
        <time>2015-07-06T08:25:25.063Z</time>
      </trkpt>
      <trkpt lat="45.93072" lon="4.72853">
        <ele>198.899993896</ele>
        <time>2015-07-06T08:25:26.046Z</time>
      </trkpt>
      <trkpt lat="45.93077" lon="4.72847">
        <ele>199.399993896</ele>
        <time>2015-07-06T08:25:27.012Z</time>
      </trkpt>
      <trkpt lat="45.93083" lon="4.72843">
        <ele>199.800003052</ele>
        <time>2015-07-06T08:25:28.011Z</time>
      </trkpt>
      <trkpt lat="45.93088" lon="4.72829">
        <ele>199.600006104</ele>
        <time>2015-07-06T08:25:29.028Z</time>
      </trkpt>
      <trkpt lat="45.93092" lon="4.72825">
        <ele>199.899993896</ele>
        <time>2015-07-06T08:25:30.037Z</time>
      </trkpt>
      <trkpt lat="45.93097" lon="4.72819">
        <ele>200.199996948</ele>
        <time>2015-07-06T08:25:31.013Z</time>
      </trkpt>
      <trkpt lat="45.93102" lon="4.72814">
        <ele>200.600006104</ele>
        <time>2015-07-06T08:25:32.013Z</time>
      </trkpt>
      <trkpt lat="45.93107" lon="4.72809">
        <ele>200.899993896</ele>
        <time>2015-07-06T08:25:33.013Z</time>
      </trkpt>
      <trkpt lat="45.93112" lon="4.72803">
        <ele>201.300003052</ele>
        <time>2015-07-06T08:25:34.011Z</time>
      </trkpt>
      <trkpt lat="45.93116" lon="4.728">
        <ele>201.699996948</ele>
        <time>2015-07-06T08:25:35.011Z</time>
      </trkpt>
      <trkpt lat="45.9312" lon="4.72795">
        <ele>202.199996948</ele>
        <time>2015-07-06T08:25:36.017Z</time>
      </trkpt>
      <trkpt lat="45.93125" lon="4.7279">
        <ele>202.5</ele>
        <time>2015-07-06T08:25:37.013Z</time>
      </trkpt>
      <trkpt lat="45.93129" lon="4.72784">
        <ele>202.699996948</ele>
        <time>2015-07-06T08:25:38.013Z</time>
      </trkpt>
      <trkpt lat="45.93134" lon="4.72779">
        <ele>203</ele>
        <time>2015-07-06T08:25:39.012Z</time>
      </trkpt>
      <trkpt lat="45.9314" lon="4.72773">
        <ele>203.399993896</ele>
        <time>2015-07-06T08:25:40.027Z</time>
      </trkpt>
      <trkpt lat="45.93145" lon="4.72768">
        <ele>203.699996948</ele>
        <time>2015-07-06T08:25:41.015Z</time>
      </trkpt>
      <trkpt lat="45.9315" lon="4.72762">
        <ele>204</ele>
        <time>2015-07-06T08:25:42.015Z</time>
      </trkpt>
      <trkpt lat="45.93154" lon="4.72757">
        <ele>204.399993896</ele>
        <time>2015-07-06T08:25:43.011Z</time>
      </trkpt>
      <trkpt lat="45.93159" lon="4.72752">
        <ele>204.699996948</ele>
        <time>2015-07-06T08:25:44.01Z</time>
      </trkpt>
      <trkpt lat="45.93162" lon="4.72747">
        <ele>205.100006104</ele>
        <time>2015-07-06T08:25:45.013Z</time>
      </trkpt>
      <trkpt lat="45.93167" lon="4.72743">
        <ele>205.5</ele>
        <time>2015-07-06T08:25:46.013Z</time>
      </trkpt>
      <trkpt lat="45.93171" lon="4.72738">
        <ele>205.800003052</ele>
        <time>2015-07-06T08:25:47.011Z</time>
      </trkpt>
      <trkpt lat="45.93176" lon="4.72733">
        <ele>206.100006104</ele>
        <time>2015-07-06T08:25:48.012Z</time>
      </trkpt>
      <trkpt lat="45.9318" lon="4.72728">
        <ele>206.399993896</ele>
        <time>2015-07-06T08:25:49.01Z</time>
      </trkpt>
      <trkpt lat="45.93185" lon="4.72722">
        <ele>206.800003052</ele>
        <time>2015-07-06T08:25:50.011Z</time>
      </trkpt>
      <trkpt lat="45.9319" lon="4.72716">
        <ele>207.199996948</ele>
        <time>2015-07-06T08:25:51.012Z</time>
      </trkpt>
      <trkpt lat="45.93195" lon="4.7271">
        <ele>207.5</ele>
        <time>2015-07-06T08:25:52.013Z</time>
      </trkpt>
      <trkpt lat="45.93199" lon="4.72705">
        <ele>207.899993896</ele>
        <time>2015-07-06T08:25:53.011Z</time>
      </trkpt>
      <trkpt lat="45.93205" lon="4.72698">
        <ele>208.199996948</ele>
        <time>2015-07-06T08:25:54.014Z</time>
      </trkpt>
      <trkpt lat="45.93209" lon="4.72693">
        <ele>208.699996948</ele>
        <time>2015-07-06T08:25:55.011Z</time>
      </trkpt>
      <trkpt lat="45.93214" lon="4.72688">
        <ele>209.100006104</ele>
        <time>2015-07-06T08:25:56.027Z</time>
      </trkpt>
      <trkpt lat="45.93218" lon="4.72682">
        <ele>209.600006104</ele>
        <time>2015-07-06T08:25:57.011Z</time>
      </trkpt>
      <trkpt lat="45.93223" lon="4.72677">
        <ele>209.899993896</ele>
        <time>2015-07-06T08:25:58.011Z</time>
      </trkpt>
      <trkpt lat="45.93228" lon="4.72671">
        <ele>210.300003052</ele>
        <time>2015-07-06T08:25:59.011Z</time>
      </trkpt>
      <trkpt lat="45.93232" lon="4.72666">
        <ele>210.600006104</ele>
        <time>2015-07-06T08:26:00.026Z</time>
      </trkpt>
      <trkpt lat="45.93237" lon="4.72661">
        <ele>210.899993896</ele>
        <time>2015-07-06T08:26:01.011Z</time>
      </trkpt>
      <trkpt lat="45.93242" lon="4.72656">
        <ele>211.199996948</ele>
        <time>2015-07-06T08:26:02.011Z</time>
      </trkpt>
      <trkpt lat="45.93246" lon="4.72651">
        <ele>211.600006104</ele>
        <time>2015-07-06T08:26:03.013Z</time>
      </trkpt>
      <trkpt lat="45.93251" lon="4.72645">
        <ele>211.899993896</ele>
        <time>2015-07-06T08:26:04.013Z</time>
      </trkpt>
      <trkpt lat="45.93255" lon="4.7264">
        <ele>212.300003052</ele>
        <time>2015-07-06T08:26:05.012Z</time>
      </trkpt>
      <trkpt lat="45.9326" lon="4.72636">
        <ele>212.699996948</ele>
        <time>2015-07-06T08:26:06.014Z</time>
      </trkpt>
      <trkpt lat="45.93265" lon="4.72631">
        <ele>213</ele>
        <time>2015-07-06T08:26:07.015Z</time>
      </trkpt>
      <trkpt lat="45.9327" lon="4.72626">
        <ele>213.300003052</ele>
        <time>2015-07-06T08:26:08.013Z</time>
      </trkpt>
      <trkpt lat="45.93276" lon="4.7262">
        <ele>213.699996948</ele>
        <time>2015-07-06T08:26:09.01Z</time>
      </trkpt>
      <trkpt lat="45.93275" lon="4.72615">
        <ele>213.699996948</ele>
        <time>2015-07-06T08:26:10.01Z</time>
      </trkpt>
      <trkpt lat="45.93276" lon="4.72607">
        <ele>214.300003052</ele>
        <time>2015-07-06T08:26:11.013Z</time>
      </trkpt>
      <trkpt lat="45.9328" lon="4.72599">
        <ele>214.899993896</ele>
        <time>2015-07-06T08:26:12.03Z</time>
      </trkpt>
      <trkpt lat="45.93285" lon="4.7259">
        <ele>214.399993896</ele>
        <time>2015-07-06T08:26:13.004Z</time>
      </trkpt>
      <trkpt lat="45.93292" lon="4.72586">
        <ele>214.399993896</ele>
        <time>2015-07-06T08:26:14.244Z</time>
      </trkpt>
      <trkpt lat="45.93298" lon="4.72582">
        <ele>214.699996948</ele>
        <time>2015-07-06T08:26:15.009Z</time>
      </trkpt>
      <trkpt lat="45.93303" lon="4.72576">
        <ele>215</ele>
        <time>2015-07-06T08:26:16.013Z</time>
      </trkpt>
      <trkpt lat="45.93309" lon="4.72571">
        <ele>215.300003052</ele>
        <time>2015-07-06T08:26:17.192Z</time>
      </trkpt>
      <trkpt lat="45.93314" lon="4.72567">
        <ele>215.600006104</ele>
        <time>2015-07-06T08:26:18.04Z</time>
      </trkpt>
      <trkpt lat="45.9332" lon="4.72561">
        <ele>215.699996948</ele>
        <time>2015-07-06T08:26:19.129Z</time>
      </trkpt>
      <trkpt lat="45.93325" lon="4.72556">
        <ele>216</ele>
        <time>2015-07-06T08:26:20.029Z</time>
      </trkpt>
      <trkpt lat="45.9333" lon="4.72551">
        <ele>216.199996948</ele>
        <time>2015-07-06T08:26:21.036Z</time>
      </trkpt>
      <trkpt lat="45.93335" lon="4.72545">
        <ele>216.300003052</ele>
        <time>2015-07-06T08:26:22.013Z</time>
      </trkpt>
      <trkpt lat="45.9334" lon="4.72539">
        <ele>216.5</ele>
        <time>2015-07-06T08:26:23.032Z</time>
      </trkpt>
      <trkpt lat="45.93344" lon="4.72533">
        <ele>216.600006104</ele>
        <time>2015-07-06T08:26:24.038Z</time>
      </trkpt>
      <trkpt lat="45.93348" lon="4.72529">
        <ele>216.699996948</ele>
        <time>2015-07-06T08:26:25.009Z</time>
      </trkpt>
      <trkpt lat="45.93352" lon="4.72524">
        <ele>216.800003052</ele>
        <time>2015-07-06T08:26:26.011Z</time>
      </trkpt>
      <trkpt lat="45.93357" lon="4.72516">
        <ele>216.699996948</ele>
        <time>2015-07-06T08:26:27.255Z</time>
      </trkpt>
      <trkpt lat="45.93364" lon="4.72508">
        <ele>216.800003052</ele>
        <time>2015-07-06T08:26:28.042Z</time>
      </trkpt>
      <trkpt lat="45.93369" lon="4.72504">
        <ele>216.800003052</ele>
        <time>2015-07-06T08:26:29.06Z</time>
      </trkpt>
      <trkpt lat="45.93373" lon="4.72499">
        <ele>216.800003052</ele>
        <time>2015-07-06T08:26:30.052Z</time>
      </trkpt>
      <trkpt lat="45.93377" lon="4.72492">
        <ele>216.699996948</ele>
        <time>2015-07-06T08:26:31.013Z</time>
      </trkpt>
      <trkpt lat="45.93382" lon="4.72486">
        <ele>216.699996948</ele>
        <time>2015-07-06T08:26:32.011Z</time>
      </trkpt>
      <trkpt lat="45.93387" lon="4.72479">
        <ele>216.600006104</ele>
        <time>2015-07-06T08:26:33.012Z</time>
      </trkpt>
      <trkpt lat="45.93391" lon="4.72472">
        <ele>216.5</ele>
        <time>2015-07-06T08:26:34.016Z</time>
      </trkpt>
      <trkpt lat="45.93393" lon="4.72462">
        <ele>216.600006104</ele>
        <time>2015-07-06T08:26:36.017Z</time>
      </trkpt>
      <trkpt lat="45.93396" lon="4.72456">
        <ele>216.600006104</ele>
        <time>2015-07-06T08:26:37.01Z</time>
      </trkpt>
      <trkpt lat="45.93402" lon="4.72446">
        <ele>216.800003052</ele>
        <time>2015-07-06T08:26:39.026Z</time>
      </trkpt>
      <trkpt lat="45.93404" lon="4.72443">
        <ele>217</ele>
        <time>2015-07-06T08:26:40.011Z</time>
      </trkpt>
      <trkpt lat="45.93409" lon="4.72441">
        <ele>217.100006104</ele>
        <time>2015-07-06T08:26:41.009Z</time>
      </trkpt>
      <trkpt lat="45.93414" lon="4.72439">
        <ele>217.199996948</ele>
        <time>2015-07-06T08:26:42.014Z</time>
      </trkpt>
      <trkpt lat="45.9342" lon="4.72436">
        <ele>217.300003052</ele>
        <time>2015-07-06T08:26:43.015Z</time>
      </trkpt>
      <trkpt lat="45.93425" lon="4.72434">
        <ele>217.5</ele>
        <time>2015-07-06T08:26:44.013Z</time>
      </trkpt>
      <trkpt lat="45.9343" lon="4.72431">
        <ele>217.600006104</ele>
        <time>2015-07-06T08:26:45.012Z</time>
      </trkpt>
      <trkpt lat="45.93436" lon="4.72427">
        <ele>217.800003052</ele>
        <time>2015-07-06T08:26:46.012Z</time>
      </trkpt>
      <trkpt lat="45.93441" lon="4.72423">
        <ele>218</ele>
        <time>2015-07-06T08:26:47.012Z</time>
      </trkpt>
      <trkpt lat="45.93446" lon="4.72418">
        <ele>218.100006104</ele>
        <time>2015-07-06T08:26:48.013Z</time>
      </trkpt>
      <trkpt lat="45.93451" lon="4.72413">
        <ele>218.300003052</ele>
        <time>2015-07-06T08:26:49.011Z</time>
      </trkpt>
      <trkpt lat="45.93456" lon="4.72408">
        <ele>218.5</ele>
        <time>2015-07-06T08:26:50.012Z</time>
      </trkpt>
      <trkpt lat="45.9346" lon="4.72402">
        <ele>218.699996948</ele>
        <time>2015-07-06T08:26:51.01Z</time>
      </trkpt>
      <trkpt lat="45.93464" lon="4.72397">
        <ele>218.899993896</ele>
        <time>2015-07-06T08:26:52.012Z</time>
      </trkpt>
      <trkpt lat="45.93469" lon="4.72392">
        <ele>219.199996948</ele>
        <time>2015-07-06T08:26:53.011Z</time>
      </trkpt>
      <trkpt lat="45.93474" lon="4.72387">
        <ele>219.399993896</ele>
        <time>2015-07-06T08:26:54.062Z</time>
      </trkpt>
      <trkpt lat="45.93478" lon="4.72381">
        <ele>219.600006104</ele>
        <time>2015-07-06T08:26:55.027Z</time>
      </trkpt>
      <trkpt lat="45.93482" lon="4.72377">
        <ele>219.899993896</ele>
        <time>2015-07-06T08:26:56.012Z</time>
      </trkpt>
      <trkpt lat="45.93486" lon="4.72371">
        <ele>220.199996948</ele>
        <time>2015-07-06T08:26:57.009Z</time>
      </trkpt>
      <trkpt lat="45.9349" lon="4.72366">
        <ele>220.300003052</ele>
        <time>2015-07-06T08:26:58.013Z</time>
      </trkpt>
      <trkpt lat="45.93494" lon="4.72361">
        <ele>220.5</ele>
        <time>2015-07-06T08:26:59.015Z</time>
      </trkpt>
      <trkpt lat="45.93498" lon="4.72352">
        <ele>220.800003052</ele>
        <time>2015-07-06T08:27:00.072Z</time>
      </trkpt>
      <trkpt lat="45.93502" lon="4.72345">
        <ele>221</ele>
        <time>2015-07-06T08:27:01.012Z</time>
      </trkpt>
      <trkpt lat="45.93505" lon="4.72339">
        <ele>221.199996948</ele>
        <time>2015-07-06T08:27:02.012Z</time>
      </trkpt>
      <trkpt lat="45.93508" lon="4.72334">
        <ele>221.399993896</ele>
        <time>2015-07-06T08:27:03.082Z</time>
      </trkpt>
      <trkpt lat="45.93511" lon="4.72328">
        <ele>221.600006104</ele>
        <time>2015-07-06T08:27:04.048Z</time>
      </trkpt>
      <trkpt lat="45.93514" lon="4.72322">
        <ele>221.899993896</ele>
        <time>2015-07-06T08:27:05.016Z</time>
      </trkpt>
      <trkpt lat="45.93516" lon="4.72315">
        <ele>222.100006104</ele>
        <time>2015-07-06T08:27:06.016Z</time>
      </trkpt>
      <trkpt lat="45.93518" lon="4.72309">
        <ele>222.399993896</ele>
        <time>2015-07-06T08:27:07.016Z</time>
      </trkpt>
      <trkpt lat="45.93521" lon="4.72301">
        <ele>222</ele>
        <time>2015-07-06T08:27:08.017Z</time>
      </trkpt>
      <trkpt lat="45.93524" lon="4.72294">
        <ele>222.300003052</ele>
        <time>2015-07-06T08:27:09.012Z</time>
      </trkpt>
      <trkpt lat="45.93526" lon="4.72287">
        <ele>222.5</ele>
        <time>2015-07-06T08:27:10.011Z</time>
      </trkpt>
      <trkpt lat="45.93529" lon="4.7228">
        <ele>222.699996948</ele>
        <time>2015-07-06T08:27:11.013Z</time>
      </trkpt>
      <trkpt lat="45.93532" lon="4.72273">
        <ele>222.699996948</ele>
        <time>2015-07-06T08:27:12.015Z</time>
      </trkpt>
      <trkpt lat="45.93534" lon="4.72266">
        <ele>222.899993896</ele>
        <time>2015-07-06T08:27:13.011Z</time>
      </trkpt>
      <trkpt lat="45.93537" lon="4.7226">
        <ele>223.199996948</ele>
        <time>2015-07-06T08:27:14.013Z</time>
      </trkpt>
      <trkpt lat="45.93541" lon="4.72257">
        <ele>223.5</ele>
        <time>2015-07-06T08:27:15.014Z</time>
      </trkpt>
      <trkpt lat="45.93547" lon="4.72255">
        <ele>223.600006104</ele>
        <time>2015-07-06T08:27:16.025Z</time>
      </trkpt>
      <trkpt lat="45.93553" lon="4.72257">
        <ele>223.600006104</ele>
        <time>2015-07-06T08:27:17.035Z</time>
      </trkpt>
      <trkpt lat="45.93558" lon="4.7226">
        <ele>223.5</ele>
        <time>2015-07-06T08:27:18.012Z</time>
      </trkpt>
      <trkpt lat="45.93562" lon="4.72264">
        <ele>223.399993896</ele>
        <time>2015-07-06T08:27:19.014Z</time>
      </trkpt>
      <trkpt lat="45.93565" lon="4.72268">
        <ele>223.399993896</ele>
        <time>2015-07-06T08:27:20.012Z</time>
      </trkpt>
      <trkpt lat="45.93569" lon="4.72272">
        <ele>223.300003052</ele>
        <time>2015-07-06T08:27:21.031Z</time>
      </trkpt>
      <trkpt lat="45.93574" lon="4.72275">
        <ele>223.5</ele>
        <time>2015-07-06T08:27:22.012Z</time>
      </trkpt>
      <trkpt lat="45.93581" lon="4.72283">
        <ele>223.800003052</ele>
        <time>2015-07-06T08:27:24.018Z</time>
      </trkpt>
      <trkpt lat="45.93585" lon="4.72286">
        <ele>224</ele>
        <time>2015-07-06T08:27:25.014Z</time>
      </trkpt>
      <trkpt lat="45.93588" lon="4.7229">
        <ele>224.199996948</ele>
        <time>2015-07-06T08:27:26.013Z</time>
      </trkpt>
      <trkpt lat="45.93593" lon="4.72294">
        <ele>224.199996948</ele>
        <time>2015-07-06T08:27:27.013Z</time>
      </trkpt>
      <trkpt lat="45.93597" lon="4.72301">
        <ele>224.600006104</ele>
        <time>2015-07-06T08:27:29.059Z</time>
      </trkpt>
      <trkpt lat="45.93599" lon="4.72306">
        <ele>224.800003052</ele>
        <time>2015-07-06T08:27:30.015Z</time>
      </trkpt>
      <trkpt lat="45.93602" lon="4.72312">
        <ele>225</ele>
        <time>2015-07-06T08:27:31.012Z</time>
      </trkpt>
      <trkpt lat="45.93606" lon="4.72315">
        <ele>225.300003052</ele>
        <time>2015-07-06T08:27:32.01Z</time>
      </trkpt>
      <trkpt lat="45.93611" lon="4.72317">
        <ele>224.800003052</ele>
        <time>2015-07-06T08:27:33.011Z</time>
      </trkpt>
      <trkpt lat="45.93615" lon="4.72321">
        <ele>224.300003052</ele>
        <time>2015-07-06T08:27:34.011Z</time>
      </trkpt>
      <trkpt lat="45.93625" lon="4.72327">
        <ele>223.699996948</ele>
        <time>2015-07-06T08:27:35.01Z</time>
      </trkpt>
      <trkpt lat="45.93631" lon="4.72329">
        <ele>222.800003052</ele>
        <time>2015-07-06T08:27:36.052Z</time>
      </trkpt>
      <trkpt lat="45.93637" lon="4.7233">
        <ele>220.899993896</ele>
        <time>2015-07-06T08:27:37.025Z</time>
      </trkpt>
      <trkpt lat="45.93643" lon="4.72335">
        <ele>221.100006104</ele>
        <time>2015-07-06T08:27:38.011Z</time>
      </trkpt>
      <trkpt lat="45.93652" lon="4.72345">
        <ele>220.899993896</ele>
        <time>2015-07-06T08:27:39.013Z</time>
      </trkpt>
      <trkpt lat="45.93659" lon="4.72349">
        <ele>221</ele>
        <time>2015-07-06T08:27:40.011Z</time>
      </trkpt>
      <trkpt lat="45.93669" lon="4.72355">
        <ele>220.899993896</ele>
        <time>2015-07-06T08:27:41.01Z</time>
      </trkpt>
      <trkpt lat="45.93674" lon="4.7236">
        <ele>221</ele>
        <time>2015-07-06T08:27:42.015Z</time>
      </trkpt>
      <trkpt lat="45.93679" lon="4.72366">
        <ele>221.300003052</ele>
        <time>2015-07-06T08:27:43.051Z</time>
      </trkpt>
      <trkpt lat="45.93685" lon="4.72372">
        <ele>221.5</ele>
        <time>2015-07-06T08:27:44.014Z</time>
      </trkpt>
      <trkpt lat="45.93685" lon="4.72383">
        <ele>220.800003052</ele>
        <time>2015-07-06T08:27:45.011Z</time>
      </trkpt>
      <trkpt lat="45.9369" lon="4.72386">
        <ele>220.300003052</ele>
        <time>2015-07-06T08:27:46.012Z</time>
      </trkpt>
      <trkpt lat="45.93697" lon="4.72388">
        <ele>219</ele>
        <time>2015-07-06T08:27:47.014Z</time>
      </trkpt>
      <trkpt lat="45.93703" lon="4.7239">
        <ele>218.100006104</ele>
        <time>2015-07-06T08:27:48.033Z</time>
      </trkpt>
      <trkpt lat="45.93712" lon="4.72397">
        <ele>217.199996948</ele>
        <time>2015-07-06T08:27:49.027Z</time>
      </trkpt>
      <trkpt lat="45.93717" lon="4.72402">
        <ele>217.100006104</ele>
        <time>2015-07-06T08:27:50.022Z</time>
      </trkpt>
      <trkpt lat="45.93722" lon="4.72407">
        <ele>216.899993896</ele>
        <time>2015-07-06T08:27:51.022Z</time>
      </trkpt>
      <trkpt lat="45.93727" lon="4.72411">
        <ele>216.899993896</ele>
        <time>2015-07-06T08:27:52.018Z</time>
      </trkpt>
      <trkpt lat="45.93732" lon="4.72416">
        <ele>217</ele>
        <time>2015-07-06T08:27:53.017Z</time>
      </trkpt>
      <trkpt lat="45.93737" lon="4.72421">
        <ele>217.100006104</ele>
        <time>2015-07-06T08:27:54.023Z</time>
      </trkpt>
      <trkpt lat="45.93742" lon="4.72426">
        <ele>216.899993896</ele>
        <time>2015-07-06T08:27:55.017Z</time>
      </trkpt>
      <trkpt lat="45.93748" lon="4.72432">
        <ele>216.800003052</ele>
        <time>2015-07-06T08:27:56.016Z</time>
      </trkpt>
      <trkpt lat="45.93752" lon="4.72437">
        <ele>216.800003052</ele>
        <time>2015-07-06T08:27:57.016Z</time>
      </trkpt>
      <trkpt lat="45.93757" lon="4.72443">
        <ele>216.699996948</ele>
        <time>2015-07-06T08:27:58.014Z</time>
      </trkpt>
      <trkpt lat="45.93762" lon="4.72448">
        <ele>216.800003052</ele>
        <time>2015-07-06T08:27:59.014Z</time>
      </trkpt>
      <trkpt lat="45.93767" lon="4.72453">
        <ele>216.800003052</ele>
        <time>2015-07-06T08:28:00.102Z</time>
      </trkpt>
      <trkpt lat="45.93772" lon="4.72457">
        <ele>216.899993896</ele>
        <time>2015-07-06T08:28:01.016Z</time>
      </trkpt>
      <trkpt lat="45.93777" lon="4.72463">
        <ele>217</ele>
        <time>2015-07-06T08:28:02.013Z</time>
      </trkpt>
      <trkpt lat="45.93782" lon="4.72467">
        <ele>217.100006104</ele>
        <time>2015-07-06T08:28:03.015Z</time>
      </trkpt>
      <trkpt lat="45.93786" lon="4.72471">
        <ele>217.199996948</ele>
        <time>2015-07-06T08:28:04.032Z</time>
      </trkpt>
      <trkpt lat="45.9379" lon="4.72476">
        <ele>217.399993896</ele>
        <time>2015-07-06T08:28:05.018Z</time>
      </trkpt>
      <trkpt lat="45.93796" lon="4.72481">
        <ele>217.600006104</ele>
        <time>2015-07-06T08:28:06.019Z</time>
      </trkpt>
      <trkpt lat="45.93802" lon="4.72488">
        <ele>217.399993896</ele>
        <time>2015-07-06T08:28:07.016Z</time>
      </trkpt>
      <trkpt lat="45.93808" lon="4.72494">
        <ele>217.300003052</ele>
        <time>2015-07-06T08:28:08.012Z</time>
      </trkpt>
      <trkpt lat="45.93813" lon="4.72499">
        <ele>216.800003052</ele>
        <time>2015-07-06T08:28:09.019Z</time>
      </trkpt>
      <trkpt lat="45.93818" lon="4.72503">
        <ele>216.899993896</ele>
        <time>2015-07-06T08:28:10.015Z</time>
      </trkpt>
      <trkpt lat="45.93823" lon="4.72508">
        <ele>217.100006104</ele>
        <time>2015-07-06T08:28:11.038Z</time>
      </trkpt>
      <trkpt lat="45.93827" lon="4.72513">
        <ele>217.300003052</ele>
        <time>2015-07-06T08:28:12.043Z</time>
      </trkpt>
      <trkpt lat="45.93832" lon="4.72519">
        <ele>217.600006104</ele>
        <time>2015-07-06T08:28:13.014Z</time>
      </trkpt>
      <trkpt lat="45.93837" lon="4.72524">
        <ele>217.800003052</ele>
        <time>2015-07-06T08:28:14.015Z</time>
      </trkpt>
      <trkpt lat="45.93841" lon="4.72529">
        <ele>218.100006104</ele>
        <time>2015-07-06T08:28:15.015Z</time>
      </trkpt>
      <trkpt lat="45.93846" lon="4.72534">
        <ele>218.399993896</ele>
        <time>2015-07-06T08:28:16.013Z</time>
      </trkpt>
      <trkpt lat="45.9385" lon="4.72538">
        <ele>218.5</ele>
        <time>2015-07-06T08:28:17.017Z</time>
      </trkpt>
      <trkpt lat="45.93853" lon="4.72546">
        <ele>218.699996948</ele>
        <time>2015-07-06T08:28:18.018Z</time>
      </trkpt>
      <trkpt lat="45.93859" lon="4.72547">
        <ele>218.899993896</ele>
        <time>2015-07-06T08:28:19.014Z</time>
      </trkpt>
      <trkpt lat="45.93864" lon="4.72546">
        <ele>219.199996948</ele>
        <time>2015-07-06T08:28:20.028Z</time>
      </trkpt>
      <trkpt lat="45.93869" lon="4.72542">
        <ele>219.5</ele>
        <time>2015-07-06T08:28:21.034Z</time>
      </trkpt>
      <trkpt lat="45.93873" lon="4.72537">
        <ele>219.699996948</ele>
        <time>2015-07-06T08:28:22.055Z</time>
      </trkpt>
      <trkpt lat="45.93877" lon="4.72531">
        <ele>219.899993896</ele>
        <time>2015-07-06T08:28:23.016Z</time>
      </trkpt>
      <trkpt lat="45.93881" lon="4.72526">
        <ele>220</ele>
        <time>2015-07-06T08:28:24.018Z</time>
      </trkpt>
      <trkpt lat="45.93886" lon="4.72521">
        <ele>220.199996948</ele>
        <time>2015-07-06T08:28:25.015Z</time>
      </trkpt>
      <trkpt lat="45.9389" lon="4.72516">
        <ele>220.399993896</ele>
        <time>2015-07-06T08:28:26.015Z</time>
      </trkpt>
      <trkpt lat="45.93895" lon="4.7251">
        <ele>220.5</ele>
        <time>2015-07-06T08:28:27.014Z</time>
      </trkpt>
      <trkpt lat="45.93899" lon="4.72505">
        <ele>220.600006104</ele>
        <time>2015-07-06T08:28:28.013Z</time>
      </trkpt>
      <trkpt lat="45.93903" lon="4.72499">
        <ele>220.699996948</ele>
        <time>2015-07-06T08:28:29.01Z</time>
      </trkpt>
      <trkpt lat="45.93908" lon="4.72493">
        <ele>221</ele>
        <time>2015-07-06T08:28:30.017Z</time>
      </trkpt>
      <trkpt lat="45.93913" lon="4.72488">
        <ele>221.199996948</ele>
        <time>2015-07-06T08:28:31.064Z</time>
      </trkpt>
      <trkpt lat="45.93917" lon="4.72482">
        <ele>221.199996948</ele>
        <time>2015-07-06T08:28:32.014Z</time>
      </trkpt>
      <trkpt lat="45.93922" lon="4.72476">
        <ele>221.199996948</ele>
        <time>2015-07-06T08:28:33.012Z</time>
      </trkpt>
      <trkpt lat="45.93927" lon="4.7247">
        <ele>221.300003052</ele>
        <time>2015-07-06T08:28:34.012Z</time>
      </trkpt>
      <trkpt lat="45.93932" lon="4.72464">
        <ele>220.899993896</ele>
        <time>2015-07-06T08:28:35.123Z</time>
      </trkpt>
      <trkpt lat="45.93937" lon="4.72458">
        <ele>220.699996948</ele>
        <time>2015-07-06T08:28:36.033Z</time>
      </trkpt>
      <trkpt lat="45.93942" lon="4.72452">
        <ele>220.300003052</ele>
        <time>2015-07-06T08:28:37.012Z</time>
      </trkpt>
      <trkpt lat="45.93947" lon="4.72447">
        <ele>220.300003052</ele>
        <time>2015-07-06T08:28:38.013Z</time>
      </trkpt>
      <trkpt lat="45.93952" lon="4.72441">
        <ele>220.300003052</ele>
        <time>2015-07-06T08:28:39.012Z</time>
      </trkpt>
      <trkpt lat="45.93957" lon="4.72435">
        <ele>220</ele>
        <time>2015-07-06T08:28:40.011Z</time>
      </trkpt>
      <trkpt lat="45.93962" lon="4.72429">
        <ele>219.600006104</ele>
        <time>2015-07-06T08:28:41.013Z</time>
      </trkpt>
      <trkpt lat="45.93966" lon="4.72423">
        <ele>219.399993896</ele>
        <time>2015-07-06T08:28:42.014Z</time>
      </trkpt>
      <trkpt lat="45.93971" lon="4.7242">
        <ele>219.300003052</ele>
        <time>2015-07-06T08:28:43.014Z</time>
      </trkpt>
      <trkpt lat="45.93976" lon="4.72416">
        <ele>219.199996948</ele>
        <time>2015-07-06T08:28:44.013Z</time>
      </trkpt>
      <trkpt lat="45.9398" lon="4.72409">
        <ele>220.300003052</ele>
        <time>2015-07-06T08:28:45.019Z</time>
      </trkpt>
      <trkpt lat="45.93985" lon="4.72403">
        <ele>220.300003052</ele>
        <time>2015-07-06T08:28:46.01Z</time>
      </trkpt>
      <trkpt lat="45.9399" lon="4.72397">
        <ele>220.5</ele>
        <time>2015-07-06T08:28:47.063Z</time>
      </trkpt>
      <trkpt lat="45.93994" lon="4.72391">
        <ele>220.699996948</ele>
        <time>2015-07-06T08:28:48.016Z</time>
      </trkpt>
      <trkpt lat="45.93998" lon="4.72386">
        <ele>220.899993896</ele>
        <time>2015-07-06T08:28:49.014Z</time>
      </trkpt>
      <trkpt lat="45.94003" lon="4.7238">
        <ele>220.699996948</ele>
        <time>2015-07-06T08:28:50.014Z</time>
      </trkpt>
      <trkpt lat="45.94007" lon="4.72373">
        <ele>220.600006104</ele>
        <time>2015-07-06T08:28:51.011Z</time>
      </trkpt>
      <trkpt lat="45.94011" lon="4.72368">
        <ele>220.5</ele>
        <time>2015-07-06T08:28:52.027Z</time>
      </trkpt>
      <trkpt lat="45.94016" lon="4.72362">
        <ele>220.199996948</ele>
        <time>2015-07-06T08:28:53.011Z</time>
      </trkpt>
      <trkpt lat="45.9402" lon="4.72356">
        <ele>219.899993896</ele>
        <time>2015-07-06T08:28:54.014Z</time>
      </trkpt>
      <trkpt lat="45.94024" lon="4.7235">
        <ele>219.300003052</ele>
        <time>2015-07-06T08:28:55.011Z</time>
      </trkpt>
      <trkpt lat="45.94028" lon="4.72343">
        <ele>218.699996948</ele>
        <time>2015-07-06T08:28:56.014Z</time>
      </trkpt>
      <trkpt lat="45.94032" lon="4.72338">
        <ele>218.399993896</ele>
        <time>2015-07-06T08:28:57.011Z</time>
      </trkpt>
      <trkpt lat="45.94037" lon="4.72332">
        <ele>218.399993896</ele>
        <time>2015-07-06T08:28:58.013Z</time>
      </trkpt>
      <trkpt lat="45.94041" lon="4.72326">
        <ele>218.600006104</ele>
        <time>2015-07-06T08:28:59.012Z</time>
      </trkpt>
      <trkpt lat="45.94045" lon="4.7232">
        <ele>218.600006104</ele>
        <time>2015-07-06T08:29:00.064Z</time>
      </trkpt>
      <trkpt lat="45.94049" lon="4.72314">
        <ele>218.600006104</ele>
        <time>2015-07-06T08:29:01.051Z</time>
      </trkpt>
      <trkpt lat="45.94053" lon="4.72308">
        <ele>218.399993896</ele>
        <time>2015-07-06T08:29:02.015Z</time>
      </trkpt>
      <trkpt lat="45.94058" lon="4.72304">
        <ele>218.199996948</ele>
        <time>2015-07-06T08:29:03.012Z</time>
      </trkpt>
      <trkpt lat="45.94063" lon="4.72299">
        <ele>218</ele>
        <time>2015-07-06T08:29:04.011Z</time>
      </trkpt>
      <trkpt lat="45.94067" lon="4.72296">
        <ele>217.899993896</ele>
        <time>2015-07-06T08:29:05.038Z</time>
      </trkpt>
      <trkpt lat="45.94072" lon="4.72293">
        <ele>217.800003052</ele>
        <time>2015-07-06T08:29:06.012Z</time>
      </trkpt>
      <trkpt lat="45.94078" lon="4.7229">
        <ele>217.600006104</ele>
        <time>2015-07-06T08:29:07.014Z</time>
      </trkpt>
      <trkpt lat="45.94083" lon="4.72289">
        <ele>217.199996948</ele>
        <time>2015-07-06T08:29:08.031Z</time>
      </trkpt>
      <trkpt lat="45.9409" lon="4.72284">
        <ele>213</ele>
        <time>2015-07-06T08:29:09.014Z</time>
      </trkpt>
      <trkpt lat="45.94096" lon="4.72286">
        <ele>212.699996948</ele>
        <time>2015-07-06T08:29:10.062Z</time>
      </trkpt>
      <trkpt lat="45.94102" lon="4.72284">
        <ele>209.100006104</ele>
        <time>2015-07-06T08:29:11.012Z</time>
      </trkpt>
      <trkpt lat="45.9411" lon="4.72282">
        <ele>204.100006104</ele>
        <time>2015-07-06T08:29:12.014Z</time>
      </trkpt>
      <trkpt lat="45.94116" lon="4.72282">
        <ele>201.399993896</ele>
        <time>2015-07-06T08:29:13.013Z</time>
      </trkpt>
      <trkpt lat="45.94123" lon="4.72284">
        <ele>200.199996948</ele>
        <time>2015-07-06T08:29:14.011Z</time>
      </trkpt>
      <trkpt lat="45.94129" lon="4.72285">
        <ele>199.800003052</ele>
        <time>2015-07-06T08:29:15.013Z</time>
      </trkpt>
      <trkpt lat="45.94133" lon="4.7229">
        <ele>199</ele>
        <time>2015-07-06T08:29:16.012Z</time>
      </trkpt>
      <trkpt lat="45.94138" lon="4.72294">
        <ele>198.300003052</ele>
        <time>2015-07-06T08:29:17.013Z</time>
      </trkpt>
      <trkpt lat="45.94144" lon="4.72298">
        <ele>197.699996948</ele>
        <time>2015-07-06T08:29:18.014Z</time>
      </trkpt>
      <trkpt lat="45.94149" lon="4.723">
        <ele>197.199996948</ele>
        <time>2015-07-06T08:29:19.012Z</time>
      </trkpt>
      <trkpt lat="45.94154" lon="4.72302">
        <ele>196.699996948</ele>
        <time>2015-07-06T08:29:20.011Z</time>
      </trkpt>
      <trkpt lat="45.94159" lon="4.72303">
        <ele>196.300003052</ele>
        <time>2015-07-06T08:29:21.028Z</time>
      </trkpt>
      <trkpt lat="45.94164" lon="4.72304">
        <ele>195.800003052</ele>
        <time>2015-07-06T08:29:22.062Z</time>
      </trkpt>
      <trkpt lat="45.94169" lon="4.72304">
        <ele>195.5</ele>
        <time>2015-07-06T08:29:23.011Z</time>
      </trkpt>
      <trkpt lat="45.94175" lon="4.72305">
        <ele>195.199996948</ele>
        <time>2015-07-06T08:29:24.028Z</time>
      </trkpt>
      <trkpt lat="45.9418" lon="4.72306">
        <ele>194.800003052</ele>
        <time>2015-07-06T08:29:25.052Z</time>
      </trkpt>
      <trkpt lat="45.94185" lon="4.72306">
        <ele>194.399993896</ele>
        <time>2015-07-06T08:29:26.012Z</time>
      </trkpt>
      <trkpt lat="45.9419" lon="4.72306">
        <ele>193.699996948</ele>
        <time>2015-07-06T08:29:27.011Z</time>
      </trkpt>
      <trkpt lat="45.94195" lon="4.72305">
        <ele>192.899993896</ele>
        <time>2015-07-06T08:29:28.011Z</time>
      </trkpt>
      <trkpt lat="45.942" lon="4.72306">
        <ele>192.199996948</ele>
        <time>2015-07-06T08:29:29.013Z</time>
      </trkpt>
      <trkpt lat="45.94205" lon="4.72306">
        <ele>192.300003052</ele>
        <time>2015-07-06T08:29:30.014Z</time>
      </trkpt>
      <trkpt lat="45.94211" lon="4.72305">
        <ele>191.800003052</ele>
        <time>2015-07-06T08:29:31.016Z</time>
      </trkpt>
      <trkpt lat="45.94217" lon="4.72303">
        <ele>191.100006104</ele>
        <time>2015-07-06T08:29:32.011Z</time>
      </trkpt>
      <trkpt lat="45.94222" lon="4.72301">
        <ele>190.5</ele>
        <time>2015-07-06T08:29:33.01Z</time>
      </trkpt>
      <trkpt lat="45.94228" lon="4.72298">
        <ele>189.600006104</ele>
        <time>2015-07-06T08:29:34.01Z</time>
      </trkpt>
      <trkpt lat="45.94234" lon="4.72296">
        <ele>188.5</ele>
        <time>2015-07-06T08:29:35.019Z</time>
      </trkpt>
      <trkpt lat="45.94239" lon="4.72294">
        <ele>187.800003052</ele>
        <time>2015-07-06T08:29:36.019Z</time>
      </trkpt>
      <trkpt lat="45.94243" lon="4.72292">
        <ele>187.600006104</ele>
        <time>2015-07-06T08:29:37.012Z</time>
      </trkpt>
      <trkpt lat="45.94248" lon="4.72291">
        <ele>186.899993896</ele>
        <time>2015-07-06T08:29:38.015Z</time>
      </trkpt>
      <trkpt lat="45.94253" lon="4.72289">
        <ele>187.100006104</ele>
        <time>2015-07-06T08:29:39.011Z</time>
      </trkpt>
      <trkpt lat="45.94261" lon="4.72286">
        <ele>187</ele>
        <time>2015-07-06T08:29:41.056Z</time>
      </trkpt>
      <trkpt lat="45.94265" lon="4.72285">
        <ele>186.100006104</ele>
        <time>2015-07-06T08:29:42.012Z</time>
      </trkpt>
      <trkpt lat="45.94273" lon="4.72288">
        <ele>184.699996948</ele>
        <time>2015-07-06T08:29:44.011Z</time>
      </trkpt>
      <trkpt lat="45.94276" lon="4.72289">
        <ele>184.300003052</ele>
        <time>2015-07-06T08:29:45.068Z</time>
      </trkpt>
      <trkpt lat="45.94279" lon="4.72294">
        <ele>184.300003052</ele>
        <time>2015-07-06T08:29:46.015Z</time>
      </trkpt>
      <trkpt lat="45.94281" lon="4.723">
        <ele>182.600006104</ele>
        <time>2015-07-06T08:29:47.011Z</time>
      </trkpt>
      <trkpt lat="45.94285" lon="4.72304">
        <ele>180.800003052</ele>
        <time>2015-07-06T08:29:48.012Z</time>
      </trkpt>
      <trkpt lat="45.94289" lon="4.72311">
        <ele>180</ele>
        <time>2015-07-06T08:29:49.012Z</time>
      </trkpt>
      <trkpt lat="45.94292" lon="4.72317">
        <ele>179.699996948</ele>
        <time>2015-07-06T08:29:50.011Z</time>
      </trkpt>
      <trkpt lat="45.94295" lon="4.72324">
        <ele>179.199996948</ele>
        <time>2015-07-06T08:29:51.013Z</time>
      </trkpt>
      <trkpt lat="45.94298" lon="4.72329">
        <ele>178.600006104</ele>
        <time>2015-07-06T08:29:52.015Z</time>
      </trkpt>
      <trkpt lat="45.94301" lon="4.72335">
        <ele>177.899993896</ele>
        <time>2015-07-06T08:29:53.013Z</time>
      </trkpt>
      <trkpt lat="45.94305" lon="4.72342">
        <ele>177</ele>
        <time>2015-07-06T08:29:54.016Z</time>
      </trkpt>
      <trkpt lat="45.94308" lon="4.72348">
        <ele>176.5</ele>
        <time>2015-07-06T08:29:55.033Z</time>
      </trkpt>
      <trkpt lat="45.94311" lon="4.72355">
        <ele>176</ele>
        <time>2015-07-06T08:29:56.032Z</time>
      </trkpt>
      <trkpt lat="45.94314" lon="4.72361">
        <ele>175.399993896</ele>
        <time>2015-07-06T08:29:57.013Z</time>
      </trkpt>
      <trkpt lat="45.94317" lon="4.72368">
        <ele>174.800003052</ele>
        <time>2015-07-06T08:29:58.015Z</time>
      </trkpt>
      <trkpt lat="45.94321" lon="4.72373">
        <ele>174.300003052</ele>
        <time>2015-07-06T08:29:59.035Z</time>
      </trkpt>
      <trkpt lat="45.94324" lon="4.7238">
        <ele>173.699996948</ele>
        <time>2015-07-06T08:30:00.031Z</time>
      </trkpt>
      <trkpt lat="45.94327" lon="4.72385">
        <ele>172.800003052</ele>
        <time>2015-07-06T08:30:01.019Z</time>
      </trkpt>
      <trkpt lat="45.9433" lon="4.72392">
        <ele>172.399993896</ele>
        <time>2015-07-06T08:30:02.011Z</time>
      </trkpt>
      <trkpt lat="45.94333" lon="4.72399">
        <ele>171.800003052</ele>
        <time>2015-07-06T08:30:03.015Z</time>
      </trkpt>
      <trkpt lat="45.94336" lon="4.72405">
        <ele>171.300003052</ele>
        <time>2015-07-06T08:30:04.011Z</time>
      </trkpt>
      <trkpt lat="45.94339" lon="4.72412">
        <ele>170.600006104</ele>
        <time>2015-07-06T08:30:05.022Z</time>
      </trkpt>
      <trkpt lat="45.94342" lon="4.72418">
        <ele>170</ele>
        <time>2015-07-06T08:30:06.013Z</time>
      </trkpt>
      <trkpt lat="45.94345" lon="4.72424">
        <ele>169.300003052</ele>
        <time>2015-07-06T08:30:07.014Z</time>
      </trkpt>
      <trkpt lat="45.94348" lon="4.7243">
        <ele>168.899993896</ele>
        <time>2015-07-06T08:30:08.013Z</time>
      </trkpt>
      <trkpt lat="45.94351" lon="4.72435">
        <ele>168.5</ele>
        <time>2015-07-06T08:30:09.013Z</time>
      </trkpt>
      <trkpt lat="45.94353" lon="4.72442">
        <ele>168.100006104</ele>
        <time>2015-07-06T08:30:10.013Z</time>
      </trkpt>
      <trkpt lat="45.94355" lon="4.72448">
        <ele>167.600006104</ele>
        <time>2015-07-06T08:30:11.013Z</time>
      </trkpt>
      <trkpt lat="45.94358" lon="4.72454">
        <ele>167.199996948</ele>
        <time>2015-07-06T08:30:12.032Z</time>
      </trkpt>
      <trkpt lat="45.94361" lon="4.7246">
        <ele>166.600006104</ele>
        <time>2015-07-06T08:30:13.011Z</time>
      </trkpt>
      <trkpt lat="45.94363" lon="4.72467">
        <ele>166.300003052</ele>
        <time>2015-07-06T08:30:14.013Z</time>
      </trkpt>
      <trkpt lat="45.94366" lon="4.72473">
        <ele>165.800003052</ele>
        <time>2015-07-06T08:30:15.024Z</time>
      </trkpt>
      <trkpt lat="45.94369" lon="4.72479">
        <ele>165.399993896</ele>
        <time>2015-07-06T08:30:16.013Z</time>
      </trkpt>
      <trkpt lat="45.94372" lon="4.72486">
        <ele>164.899993896</ele>
        <time>2015-07-06T08:30:17.013Z</time>
      </trkpt>
      <trkpt lat="45.94374" lon="4.72491">
        <ele>164.300003052</ele>
        <time>2015-07-06T08:30:18.013Z</time>
      </trkpt>
      <trkpt lat="45.94378" lon="4.72497">
        <ele>163.800003052</ele>
        <time>2015-07-06T08:30:19.012Z</time>
      </trkpt>
      <trkpt lat="45.9438" lon="4.72503">
        <ele>163.199996948</ele>
        <time>2015-07-06T08:30:20.014Z</time>
      </trkpt>
      <trkpt lat="45.94383" lon="4.72509">
        <ele>162.699996948</ele>
        <time>2015-07-06T08:30:21.027Z</time>
      </trkpt>
      <trkpt lat="45.94386" lon="4.72516">
        <ele>162.199996948</ele>
        <time>2015-07-06T08:30:22.019Z</time>
      </trkpt>
      <trkpt lat="45.94388" lon="4.72523">
        <ele>161.800003052</ele>
        <time>2015-07-06T08:30:23.014Z</time>
      </trkpt>
      <trkpt lat="45.94389" lon="4.72531">
        <ele>161.399993896</ele>
        <time>2015-07-06T08:30:24.017Z</time>
      </trkpt>
      <trkpt lat="45.94391" lon="4.72538">
        <ele>161.100006104</ele>
        <time>2015-07-06T08:30:25.025Z</time>
      </trkpt>
      <trkpt lat="45.94392" lon="4.72547">
        <ele>160.899993896</ele>
        <time>2015-07-06T08:30:26.011Z</time>
      </trkpt>
      <trkpt lat="45.94393" lon="4.72557">
        <ele>160.800003052</ele>
        <time>2015-07-06T08:30:27.018Z</time>
      </trkpt>
      <trkpt lat="45.94394" lon="4.72566">
        <ele>160.699996948</ele>
        <time>2015-07-06T08:30:28.038Z</time>
      </trkpt>
      <trkpt lat="45.94395" lon="4.72575">
        <ele>161.100006104</ele>
        <time>2015-07-06T08:30:29.01Z</time>
      </trkpt>
      <trkpt lat="45.94396" lon="4.72584">
        <ele>161.100006104</ele>
        <time>2015-07-06T08:30:30.016Z</time>
      </trkpt>
      <trkpt lat="45.94397" lon="4.72592">
        <ele>160.899993896</ele>
        <time>2015-07-06T08:30:31.025Z</time>
      </trkpt>
      <trkpt lat="45.94399" lon="4.726">
        <ele>160.800003052</ele>
        <time>2015-07-06T08:30:32.013Z</time>
      </trkpt>
      <trkpt lat="45.944" lon="4.72608">
        <ele>160.399993896</ele>
        <time>2015-07-06T08:30:33.032Z</time>
      </trkpt>
      <trkpt lat="45.94401" lon="4.72615">
        <ele>160.100006104</ele>
        <time>2015-07-06T08:30:34.015Z</time>
      </trkpt>
      <trkpt lat="45.94403" lon="4.72624">
        <ele>159.899993896</ele>
        <time>2015-07-06T08:30:35.03Z</time>
      </trkpt>
      <trkpt lat="45.94404" lon="4.72633">
        <ele>159.800003052</ele>
        <time>2015-07-06T08:30:36.017Z</time>
      </trkpt>
      <trkpt lat="45.94405" lon="4.72641">
        <ele>159.5</ele>
        <time>2015-07-06T08:30:37.01Z</time>
      </trkpt>
      <trkpt lat="45.94406" lon="4.72649">
        <ele>159.5</ele>
        <time>2015-07-06T08:30:38.012Z</time>
      </trkpt>
      <trkpt lat="45.94407" lon="4.72657">
        <ele>159.600006104</ele>
        <time>2015-07-06T08:30:39.015Z</time>
      </trkpt>
      <trkpt lat="45.94408" lon="4.72666">
        <ele>159.899993896</ele>
        <time>2015-07-06T08:30:40.013Z</time>
      </trkpt>
      <trkpt lat="45.94409" lon="4.72674">
        <ele>160.399993896</ele>
        <time>2015-07-06T08:30:41.01Z</time>
      </trkpt>
      <trkpt lat="45.94409" lon="4.72682">
        <ele>161.199996948</ele>
        <time>2015-07-06T08:30:42.014Z</time>
      </trkpt>
      <trkpt lat="45.9441" lon="4.72689">
        <ele>161.399993896</ele>
        <time>2015-07-06T08:30:43.055Z</time>
      </trkpt>
      <trkpt lat="45.94411" lon="4.72697">
        <ele>161.699996948</ele>
        <time>2015-07-06T08:30:44.028Z</time>
      </trkpt>
      <trkpt lat="45.94412" lon="4.72705">
        <ele>161.800003052</ele>
        <time>2015-07-06T08:30:45.026Z</time>
      </trkpt>
      <trkpt lat="45.94413" lon="4.72712">
        <ele>161.800003052</ele>
        <time>2015-07-06T08:30:46.012Z</time>
      </trkpt>
      <trkpt lat="45.94414" lon="4.72719">
        <ele>161.600006104</ele>
        <time>2015-07-06T08:30:47.013Z</time>
      </trkpt>
      <trkpt lat="45.94414" lon="4.72726">
        <ele>161.699996948</ele>
        <time>2015-07-06T08:30:48.015Z</time>
      </trkpt>
      <trkpt lat="45.94415" lon="4.72733">
        <ele>161.699996948</ele>
        <time>2015-07-06T08:30:49.01Z</time>
      </trkpt>
      <trkpt lat="45.94417" lon="4.7274">
        <ele>161.899993896</ele>
        <time>2015-07-06T08:30:50.01Z</time>
      </trkpt>
      <trkpt lat="45.94418" lon="4.72748">
        <ele>162.699996948</ele>
        <time>2015-07-06T08:30:51.013Z</time>
      </trkpt>
      <trkpt lat="45.94419" lon="4.72757">
        <ele>163.300003052</ele>
        <time>2015-07-06T08:30:52.015Z</time>
      </trkpt>
      <trkpt lat="45.9442" lon="4.72765">
        <ele>163.399993896</ele>
        <time>2015-07-06T08:30:53.037Z</time>
      </trkpt>
      <trkpt lat="45.94421" lon="4.72774">
        <ele>164</ele>
        <time>2015-07-06T08:30:54.016Z</time>
      </trkpt>
      <trkpt lat="45.94422" lon="4.72782">
        <ele>164.899993896</ele>
        <time>2015-07-06T08:30:55.014Z</time>
      </trkpt>
      <trkpt lat="45.94423" lon="4.72789">
        <ele>166</ele>
        <time>2015-07-06T08:30:56.011Z</time>
      </trkpt>
      <trkpt lat="45.94425" lon="4.72797">
        <ele>166.5</ele>
        <time>2015-07-06T08:30:57.01Z</time>
      </trkpt>
      <trkpt lat="45.94426" lon="4.72804">
        <ele>167.399993896</ele>
        <time>2015-07-06T08:30:58.013Z</time>
      </trkpt>
      <trkpt lat="45.94426" lon="4.72811">
        <ele>167.899993896</ele>
        <time>2015-07-06T08:30:59.013Z</time>
      </trkpt>
      <trkpt lat="45.94427" lon="4.72818">
        <ele>168.800003052</ele>
        <time>2015-07-06T08:31:00.044Z</time>
      </trkpt>
      <trkpt lat="45.94428" lon="4.72825">
        <ele>169.800003052</ele>
        <time>2015-07-06T08:31:01.013Z</time>
      </trkpt>
      <trkpt lat="45.9443" lon="4.72832">
        <ele>170.199996948</ele>
        <time>2015-07-06T08:31:02.014Z</time>
      </trkpt>
      <trkpt lat="45.9443" lon="4.72839">
        <ele>170.899993896</ele>
        <time>2015-07-06T08:31:03.014Z</time>
      </trkpt>
      <trkpt lat="45.94431" lon="4.72851">
        <ele>172.399993896</ele>
        <time>2015-07-06T08:31:05.032Z</time>
      </trkpt>
      <trkpt lat="45.94432" lon="4.72858">
        <ele>172.699996948</ele>
        <time>2015-07-06T08:31:06.013Z</time>
      </trkpt>
      <trkpt lat="45.94434" lon="4.72871">
        <ele>174.300003052</ele>
        <time>2015-07-06T08:31:08.011Z</time>
      </trkpt>
      <trkpt lat="45.94435" lon="4.72877">
        <ele>175.199996948</ele>
        <time>2015-07-06T08:31:09.012Z</time>
      </trkpt>
      <trkpt lat="45.94436" lon="4.72889">
        <ele>176.399993896</ele>
        <time>2015-07-06T08:31:11.03Z</time>
      </trkpt>
      <trkpt lat="45.94437" lon="4.72894">
        <ele>176.800003052</ele>
        <time>2015-07-06T08:31:12.014Z</time>
      </trkpt>
      <trkpt lat="45.94438" lon="4.72906">
        <ele>177.5</ele>
        <time>2015-07-06T08:31:14.011Z</time>
      </trkpt>
      <trkpt lat="45.94438" lon="4.72912">
        <ele>178.199996948</ele>
        <time>2015-07-06T08:31:15.025Z</time>
      </trkpt>
      <trkpt lat="45.94439" lon="4.72918">
        <ele>178.699996948</ele>
        <time>2015-07-06T08:31:16.015Z</time>
      </trkpt>
      <trkpt lat="45.9444" lon="4.72925">
        <ele>178.800003052</ele>
        <time>2015-07-06T08:31:17.011Z</time>
      </trkpt>
      <trkpt lat="45.9444" lon="4.72933">
        <ele>179</ele>
        <time>2015-07-06T08:31:18.013Z</time>
      </trkpt>
      <trkpt lat="45.94441" lon="4.7294">
        <ele>179.600006104</ele>
        <time>2015-07-06T08:31:19.015Z</time>
      </trkpt>
      <trkpt lat="45.94442" lon="4.72947">
        <ele>179.800003052</ele>
        <time>2015-07-06T08:31:20.011Z</time>
      </trkpt>
      <trkpt lat="45.94443" lon="4.72955">
        <ele>179.5</ele>
        <time>2015-07-06T08:31:21.029Z</time>
      </trkpt>
      <trkpt lat="45.94444" lon="4.72962">
        <ele>179.100006104</ele>
        <time>2015-07-06T08:31:22.03Z</time>
      </trkpt>
      <trkpt lat="45.94444" lon="4.72971">
        <ele>178.600006104</ele>
        <time>2015-07-06T08:31:23.015Z</time>
      </trkpt>
      <trkpt lat="45.94446" lon="4.72979">
        <ele>179</ele>
        <time>2015-07-06T08:31:24.016Z</time>
      </trkpt>
      <trkpt lat="45.94447" lon="4.72988">
        <ele>178.300003052</ele>
        <time>2015-07-06T08:31:25.082Z</time>
      </trkpt>
      <trkpt lat="45.94448" lon="4.72997">
        <ele>178.600006104</ele>
        <time>2015-07-06T08:31:26.055Z</time>
      </trkpt>
      <trkpt lat="45.94449" lon="4.73006">
        <ele>178.699996948</ele>
        <time>2015-07-06T08:31:27.012Z</time>
      </trkpt>
      <trkpt lat="45.94451" lon="4.73015">
        <ele>178.800003052</ele>
        <time>2015-07-06T08:31:28.011Z</time>
      </trkpt>
      <trkpt lat="45.94452" lon="4.73025">
        <ele>178.399993896</ele>
        <time>2015-07-06T08:31:29.009Z</time>
      </trkpt>
      <trkpt lat="45.94453" lon="4.73034">
        <ele>178.5</ele>
        <time>2015-07-06T08:31:30.015Z</time>
      </trkpt>
      <trkpt lat="45.94455" lon="4.73043">
        <ele>178.800003052</ele>
        <time>2015-07-06T08:31:31.012Z</time>
      </trkpt>
      <trkpt lat="45.94456" lon="4.73053">
        <ele>178.600006104</ele>
        <time>2015-07-06T08:31:32.062Z</time>
      </trkpt>
      <trkpt lat="45.94456" lon="4.73062">
        <ele>178.5</ele>
        <time>2015-07-06T08:31:33.011Z</time>
      </trkpt>
      <trkpt lat="45.94459" lon="4.73072">
        <ele>178.5</ele>
        <time>2015-07-06T08:31:34.015Z</time>
      </trkpt>
      <trkpt lat="45.94461" lon="4.73083">
        <ele>178.399993896</ele>
        <time>2015-07-06T08:31:35.027Z</time>
      </trkpt>
      <trkpt lat="45.94463" lon="4.73093">
        <ele>178.699996948</ele>
        <time>2015-07-06T08:31:36.013Z</time>
      </trkpt>
      <trkpt lat="45.94463" lon="4.73103">
        <ele>178.800003052</ele>
        <time>2015-07-06T08:31:37.012Z</time>
      </trkpt>
      <trkpt lat="45.94464" lon="4.73111">
        <ele>178.899993896</ele>
        <time>2015-07-06T08:31:38.012Z</time>
      </trkpt>
      <trkpt lat="45.94465" lon="4.7312">
        <ele>179.100006104</ele>
        <time>2015-07-06T08:31:39.013Z</time>
      </trkpt>
      <trkpt lat="45.94466" lon="4.73128">
        <ele>179.199996948</ele>
        <time>2015-07-06T08:31:40.013Z</time>
      </trkpt>
      <trkpt lat="45.94468" lon="4.73136">
        <ele>179.300003052</ele>
        <time>2015-07-06T08:31:41.01Z</time>
      </trkpt>
      <trkpt lat="45.94469" lon="4.73144">
        <ele>179.199996948</ele>
        <time>2015-07-06T08:31:42.014Z</time>
      </trkpt>
      <trkpt lat="45.9447" lon="4.73153">
        <ele>179.300003052</ele>
        <time>2015-07-06T08:31:43.027Z</time>
      </trkpt>
      <trkpt lat="45.94471" lon="4.7316">
        <ele>179.699996948</ele>
        <time>2015-07-06T08:31:44.011Z</time>
      </trkpt>
      <trkpt lat="45.94472" lon="4.73169">
        <ele>180</ele>
        <time>2015-07-06T08:31:45.016Z</time>
      </trkpt>
      <trkpt lat="45.94473" lon="4.73176">
        <ele>179.800003052</ele>
        <time>2015-07-06T08:31:46.011Z</time>
      </trkpt>
      <trkpt lat="45.94474" lon="4.73185">
        <ele>179.899993896</ele>
        <time>2015-07-06T08:31:47.099Z</time>
      </trkpt>
      <trkpt lat="45.94474" lon="4.73194">
        <ele>179.800003052</ele>
        <time>2015-07-06T08:31:48.013Z</time>
      </trkpt>
      <trkpt lat="45.94475" lon="4.73201">
        <ele>179.899993896</ele>
        <time>2015-07-06T08:31:49.012Z</time>
      </trkpt>
      <trkpt lat="45.94476" lon="4.73209">
        <ele>180</ele>
        <time>2015-07-06T08:31:50.012Z</time>
      </trkpt>
      <trkpt lat="45.94477" lon="4.73217">
        <ele>180</ele>
        <time>2015-07-06T08:31:51.013Z</time>
      </trkpt>
      <trkpt lat="45.94478" lon="4.73225">
        <ele>179.699996948</ele>
        <time>2015-07-06T08:31:52.01Z</time>
      </trkpt>
      <trkpt lat="45.94478" lon="4.73232">
        <ele>179.699996948</ele>
        <time>2015-07-06T08:31:53.011Z</time>
      </trkpt>
      <trkpt lat="45.9448" lon="4.73243">
        <ele>179.899993896</ele>
        <time>2015-07-06T08:31:55.03Z</time>
      </trkpt>
      <trkpt lat="45.94482" lon="4.73249">
        <ele>179.899993896</ele>
        <time>2015-07-06T08:31:56.009Z</time>
      </trkpt>
      <trkpt lat="45.94483" lon="4.73256">
        <ele>179.899993896</ele>
        <time>2015-07-06T08:31:57.014Z</time>
      </trkpt>
      <trkpt lat="45.94484" lon="4.73262">
        <ele>179.800003052</ele>
        <time>2015-07-06T08:31:58.038Z</time>
      </trkpt>
      <trkpt lat="45.94486" lon="4.73274">
        <ele>180.100006104</ele>
        <time>2015-07-06T08:32:00.028Z</time>
      </trkpt>
      <trkpt lat="45.94487" lon="4.73281">
        <ele>180.199996948</ele>
        <time>2015-07-06T08:32:01.01Z</time>
      </trkpt>
      <trkpt lat="45.94488" lon="4.73287">
        <ele>180.300003052</ele>
        <time>2015-07-06T08:32:02.012Z</time>
      </trkpt>
      <trkpt lat="45.94488" lon="4.73294">
        <ele>180.199996948</ele>
        <time>2015-07-06T08:32:03.013Z</time>
      </trkpt>
      <trkpt lat="45.9449" lon="4.73306">
        <ele>180.600006104</ele>
        <time>2015-07-06T08:32:05.028Z</time>
      </trkpt>
      <trkpt lat="45.9449" lon="4.73313">
        <ele>180.699996948</ele>
        <time>2015-07-06T08:32:06.015Z</time>
      </trkpt>
      <trkpt lat="45.94492" lon="4.73325">
        <ele>180.699996948</ele>
        <time>2015-07-06T08:32:08.062Z</time>
      </trkpt>
      <trkpt lat="45.94493" lon="4.73331">
        <ele>180.600006104</ele>
        <time>2015-07-06T08:32:09.011Z</time>
      </trkpt>
      <trkpt lat="45.94494" lon="4.73343">
        <ele>180.5</ele>
        <time>2015-07-06T08:32:11.016Z</time>
      </trkpt>
      <trkpt lat="45.94495" lon="4.73349">
        <ele>180.600006104</ele>
        <time>2015-07-06T08:32:12.016Z</time>
      </trkpt>
      <trkpt lat="45.94495" lon="4.73356">
        <ele>180.600006104</ele>
        <time>2015-07-06T08:32:13.01Z</time>
      </trkpt>
      <trkpt lat="45.94495" lon="4.73362">
        <ele>180.800003052</ele>
        <time>2015-07-06T08:32:14.011Z</time>
      </trkpt>
      <trkpt lat="45.94496" lon="4.73369">
        <ele>181.100006104</ele>
        <time>2015-07-06T08:32:15.031Z</time>
      </trkpt>
      <trkpt lat="45.94497" lon="4.73376">
        <ele>181.399993896</ele>
        <time>2015-07-06T08:32:16.011Z</time>
      </trkpt>
      <trkpt lat="45.94497" lon="4.73382">
        <ele>181.699996948</ele>
        <time>2015-07-06T08:32:17.037Z</time>
      </trkpt>
      <trkpt lat="45.94498" lon="4.73389">
        <ele>181.5</ele>
        <time>2015-07-06T08:32:18.017Z</time>
      </trkpt>
      <trkpt lat="45.94498" lon="4.73395">
        <ele>181.699996948</ele>
        <time>2015-07-06T08:32:19.014Z</time>
      </trkpt>
      <trkpt lat="45.94499" lon="4.73402">
        <ele>182.100006104</ele>
        <time>2015-07-06T08:32:20.013Z</time>
      </trkpt>
      <trkpt lat="45.94499" lon="4.73408">
        <ele>182.399993896</ele>
        <time>2015-07-06T08:32:21.035Z</time>
      </trkpt>
      <trkpt lat="45.94499" lon="4.73415">
        <ele>182.800003052</ele>
        <time>2015-07-06T08:32:22.013Z</time>
      </trkpt>
      <trkpt lat="45.945" lon="4.73421">
        <ele>183.300003052</ele>
        <time>2015-07-06T08:32:23.011Z</time>
      </trkpt>
      <trkpt lat="45.945" lon="4.73428">
        <ele>183.899993896</ele>
        <time>2015-07-06T08:32:24.015Z</time>
      </trkpt>
      <trkpt lat="45.945" lon="4.7344">
        <ele>185</ele>
        <time>2015-07-06T08:32:26.011Z</time>
      </trkpt>
      <trkpt lat="45.945" lon="4.73446">
        <ele>185.399993896</ele>
        <time>2015-07-06T08:32:27.01Z</time>
      </trkpt>
      <trkpt lat="45.945" lon="4.73457">
        <ele>186.300003052</ele>
        <time>2015-07-06T08:32:29.012Z</time>
      </trkpt>
      <trkpt lat="45.94499" lon="4.73462">
        <ele>186.5</ele>
        <time>2015-07-06T08:32:30.014Z</time>
      </trkpt>
      <trkpt lat="45.945" lon="4.73473">
        <ele>186.5</ele>
        <time>2015-07-06T08:32:32.011Z</time>
      </trkpt>
      <trkpt lat="45.94501" lon="4.73479">
        <ele>186.600006104</ele>
        <time>2015-07-06T08:32:33.012Z</time>
      </trkpt>
      <trkpt lat="45.945" lon="4.73485">
        <ele>186.699996948</ele>
        <time>2015-07-06T08:32:34.012Z</time>
      </trkpt>
      <trkpt lat="45.94499" lon="4.73492">
        <ele>186.800003052</ele>
        <time>2015-07-06T08:32:35.029Z</time>
      </trkpt>
      <trkpt lat="45.94499" lon="4.73504">
        <ele>187.300003052</ele>
        <time>2015-07-06T08:32:37.018Z</time>
      </trkpt>
      <trkpt lat="45.94498" lon="4.73511">
        <ele>187.800003052</ele>
        <time>2015-07-06T08:32:38.009Z</time>
      </trkpt>
      <trkpt lat="45.94498" lon="4.73523">
        <ele>188.699996948</ele>
        <time>2015-07-06T08:32:40.009Z</time>
      </trkpt>
      <trkpt lat="45.94498" lon="4.73529">
        <ele>189.300003052</ele>
        <time>2015-07-06T08:32:41.034Z</time>
      </trkpt>
      <trkpt lat="45.94498" lon="4.7354">
        <ele>189.800003052</ele>
        <time>2015-07-06T08:32:43.01Z</time>
      </trkpt>
      <trkpt lat="45.94498" lon="4.73546">
        <ele>190</ele>
        <time>2015-07-06T08:32:44.01Z</time>
      </trkpt>
      <trkpt lat="45.94497" lon="4.73558">
        <ele>190.699996948</ele>
        <time>2015-07-06T08:32:46.022Z</time>
      </trkpt>
      <trkpt lat="45.94498" lon="4.73564">
        <ele>190.899993896</ele>
        <time>2015-07-06T08:32:47.01Z</time>
      </trkpt>
      <trkpt lat="45.94497" lon="4.73571">
        <ele>191.399993896</ele>
        <time>2015-07-06T08:32:48.011Z</time>
      </trkpt>
      <trkpt lat="45.94497" lon="4.73578">
        <ele>191.600006104</ele>
        <time>2015-07-06T08:32:49.012Z</time>
      </trkpt>
      <trkpt lat="45.94496" lon="4.73589">
        <ele>193.399993896</ele>
        <time>2015-07-06T08:32:51.014Z</time>
      </trkpt>
      <trkpt lat="45.94496" lon="4.73595">
        <ele>193.800003052</ele>
        <time>2015-07-06T08:32:52.012Z</time>
      </trkpt>
      <trkpt lat="45.94496" lon="4.73607">
        <ele>194.600006104</ele>
        <time>2015-07-06T08:32:54.015Z</time>
      </trkpt>
      <trkpt lat="45.94495" lon="4.73614">
        <ele>195.300003052</ele>
        <time>2015-07-06T08:32:55.018Z</time>
      </trkpt>
      <trkpt lat="45.94494" lon="4.73621">
        <ele>195.300003052</ele>
        <time>2015-07-06T08:32:56.01Z</time>
      </trkpt>
      <trkpt lat="45.94494" lon="4.73627">
        <ele>195.600006104</ele>
        <time>2015-07-06T08:32:57.012Z</time>
      </trkpt>
      <trkpt lat="45.94492" lon="4.73634">
        <ele>195.300003052</ele>
        <time>2015-07-06T08:32:58.023Z</time>
      </trkpt>
      <trkpt lat="45.94489" lon="4.73641">
        <ele>194.300003052</ele>
        <time>2015-07-06T08:32:59.014Z</time>
      </trkpt>
      <trkpt lat="45.94489" lon="4.73647">
        <ele>194.300003052</ele>
        <time>2015-07-06T08:33:00.035Z</time>
      </trkpt>
      <trkpt lat="45.94488" lon="4.73654">
        <ele>194.800003052</ele>
        <time>2015-07-06T08:33:01.01Z</time>
      </trkpt>
      <trkpt lat="45.94484" lon="4.73666">
        <ele>195</ele>
        <time>2015-07-06T08:33:03.014Z</time>
      </trkpt>
      <trkpt lat="45.94483" lon="4.73671">
        <ele>195.5</ele>
        <time>2015-07-06T08:33:04.013Z</time>
      </trkpt>
      <trkpt lat="45.94479" lon="4.73682">
        <ele>196</ele>
        <time>2015-07-06T08:33:06.012Z</time>
      </trkpt>
      <trkpt lat="45.94478" lon="4.73687">
        <ele>196.300003052</ele>
        <time>2015-07-06T08:33:07.009Z</time>
      </trkpt>
      <trkpt lat="45.94476" lon="4.73697">
        <ele>197.100006104</ele>
        <time>2015-07-06T08:33:09.009Z</time>
      </trkpt>
      <trkpt lat="45.94474" lon="4.73703">
        <ele>197.699996948</ele>
        <time>2015-07-06T08:33:10.011Z</time>
      </trkpt>
      <trkpt lat="45.94473" lon="4.73714">
        <ele>198.399993896</ele>
        <time>2015-07-06T08:33:12.012Z</time>
      </trkpt>
      <trkpt lat="45.94473" lon="4.73721">
        <ele>198.399993896</ele>
        <time>2015-07-06T08:33:13.01Z</time>
      </trkpt>
      <trkpt lat="45.94472" lon="4.73728">
        <ele>197.699996948</ele>
        <time>2015-07-06T08:33:14.011Z</time>
      </trkpt>
      <trkpt lat="45.94471" lon="4.73734">
        <ele>197.600006104</ele>
        <time>2015-07-06T08:33:15.011Z</time>
      </trkpt>
      <trkpt lat="45.94469" lon="4.7374">
        <ele>197.800003052</ele>
        <time>2015-07-06T08:33:16.045Z</time>
      </trkpt>
      <trkpt lat="45.94467" lon="4.73746">
        <ele>197.5</ele>
        <time>2015-07-06T08:33:17.012Z</time>
      </trkpt>
      <trkpt lat="45.94467" lon="4.73754">
        <ele>197.300003052</ele>
        <time>2015-07-06T08:33:18.014Z</time>
      </trkpt>
      <trkpt lat="45.9447" lon="4.73762">
        <ele>196.899993896</ele>
        <time>2015-07-06T08:33:19.009Z</time>
      </trkpt>
      <trkpt lat="45.94474" lon="4.73771">
        <ele>195.800003052</ele>
        <time>2015-07-06T08:33:20.015Z</time>
      </trkpt>
      <trkpt lat="45.94479" lon="4.73776">
        <ele>195.399993896</ele>
        <time>2015-07-06T08:33:21.029Z</time>
      </trkpt>
      <trkpt lat="45.94483" lon="4.73779">
        <ele>195.100006104</ele>
        <time>2015-07-06T08:33:22.016Z</time>
      </trkpt>
      <trkpt lat="45.94488" lon="4.73783">
        <ele>195</ele>
        <time>2015-07-06T08:33:23.011Z</time>
      </trkpt>
      <trkpt lat="45.94493" lon="4.73786">
        <ele>194.800003052</ele>
        <time>2015-07-06T08:33:24.031Z</time>
      </trkpt>
      <trkpt lat="45.94497" lon="4.7379">
        <ele>194.600006104</ele>
        <time>2015-07-06T08:33:25.011Z</time>
      </trkpt>
      <trkpt lat="45.94501" lon="4.73794">
        <ele>194.399993896</ele>
        <time>2015-07-06T08:33:26.009Z</time>
      </trkpt>
      <trkpt lat="45.94506" lon="4.73797">
        <ele>193.899993896</ele>
        <time>2015-07-06T08:33:27.008Z</time>
      </trkpt>
      <trkpt lat="45.94509" lon="4.73801">
        <ele>193.699996948</ele>
        <time>2015-07-06T08:33:28.067Z</time>
      </trkpt>
      <trkpt lat="45.94514" lon="4.73805">
        <ele>193.199996948</ele>
        <time>2015-07-06T08:33:29.011Z</time>
      </trkpt>
      <trkpt lat="45.94518" lon="4.73809">
        <ele>192.899993896</ele>
        <time>2015-07-06T08:33:30.014Z</time>
      </trkpt>
      <trkpt lat="45.94521" lon="4.73814">
        <ele>192</ele>
        <time>2015-07-06T08:33:31.011Z</time>
      </trkpt>
      <trkpt lat="45.94525" lon="4.73818">
        <ele>191.699996948</ele>
        <time>2015-07-06T08:33:32.011Z</time>
      </trkpt>
      <trkpt lat="45.9453" lon="4.73822">
        <ele>191.300003052</ele>
        <time>2015-07-06T08:33:33.009Z</time>
      </trkpt>
      <trkpt lat="45.94534" lon="4.73826">
        <ele>191.199996948</ele>
        <time>2015-07-06T08:33:34.009Z</time>
      </trkpt>
      <trkpt lat="45.94539" lon="4.73828">
        <ele>191.699996948</ele>
        <time>2015-07-06T08:33:35.051Z</time>
      </trkpt>
      <trkpt lat="45.94542" lon="4.73831">
        <ele>191.300003052</ele>
        <time>2015-07-06T08:33:36.012Z</time>
      </trkpt>
      <trkpt lat="45.94547" lon="4.73834">
        <ele>191.100006104</ele>
        <time>2015-07-06T08:33:37.012Z</time>
      </trkpt>
      <trkpt lat="45.94551" lon="4.73838">
        <ele>191</ele>
        <time>2015-07-06T08:33:38.01Z</time>
      </trkpt>
      <trkpt lat="45.94555" lon="4.73842">
        <ele>191.399993896</ele>
        <time>2015-07-06T08:33:39.009Z</time>
      </trkpt>
      <trkpt lat="45.94559" lon="4.73847">
        <ele>191.300003052</ele>
        <time>2015-07-06T08:33:40.01Z</time>
      </trkpt>
      <trkpt lat="45.94563" lon="4.73851">
        <ele>191.600006104</ele>
        <time>2015-07-06T08:33:41.008Z</time>
      </trkpt>
      <trkpt lat="45.94567" lon="4.73855">
        <ele>191.399993896</ele>
        <time>2015-07-06T08:33:42.012Z</time>
      </trkpt>
      <trkpt lat="45.94572" lon="4.73859">
        <ele>191.100006104</ele>
        <time>2015-07-06T08:33:43.032Z</time>
      </trkpt>
      <trkpt lat="45.94576" lon="4.73863">
        <ele>191</ele>
        <time>2015-07-06T08:33:44.013Z</time>
      </trkpt>
      <trkpt lat="45.9458" lon="4.73868">
        <ele>191.300003052</ele>
        <time>2015-07-06T08:33:45.011Z</time>
      </trkpt>
      <trkpt lat="45.94583" lon="4.73873">
        <ele>191.199996948</ele>
        <time>2015-07-06T08:33:46.009Z</time>
      </trkpt>
      <trkpt lat="45.94587" lon="4.73877">
        <ele>191.5</ele>
        <time>2015-07-06T08:33:47.011Z</time>
      </trkpt>
      <trkpt lat="45.9459" lon="4.73881">
        <ele>191.699996948</ele>
        <time>2015-07-06T08:33:48.013Z</time>
      </trkpt>
      <trkpt lat="45.94594" lon="4.73886">
        <ele>191.899993896</ele>
        <time>2015-07-06T08:33:49.007Z</time>
      </trkpt>
      <trkpt lat="45.946" lon="4.73894">
        <ele>192</ele>
        <time>2015-07-06T08:33:51.009Z</time>
      </trkpt>
      <trkpt lat="45.94604" lon="4.73898">
        <ele>192.100006104</ele>
        <time>2015-07-06T08:33:52.01Z</time>
      </trkpt>
      <trkpt lat="45.94608" lon="4.73903">
        <ele>191.899993896</ele>
        <time>2015-07-06T08:33:53.01Z</time>
      </trkpt>
      <trkpt lat="45.94612" lon="4.73908">
        <ele>191.600006104</ele>
        <time>2015-07-06T08:33:54.011Z</time>
      </trkpt>
      <trkpt lat="45.94616" lon="4.73912">
        <ele>191.699996948</ele>
        <time>2015-07-06T08:33:55.012Z</time>
      </trkpt>
      <trkpt lat="45.94619" lon="4.73917">
        <ele>191.399993896</ele>
        <time>2015-07-06T08:33:56.026Z</time>
      </trkpt>
      <trkpt lat="45.94623" lon="4.73921">
        <ele>191.199996948</ele>
        <time>2015-07-06T08:33:57.008Z</time>
      </trkpt>
      <trkpt lat="45.94627" lon="4.73926">
        <ele>191.199996948</ele>
        <time>2015-07-06T08:33:58.008Z</time>
      </trkpt>
      <trkpt lat="45.94631" lon="4.7393">
        <ele>191.199996948</ele>
        <time>2015-07-06T08:33:59.009Z</time>
      </trkpt>
      <trkpt lat="45.94634" lon="4.73934">
        <ele>190.899993896</ele>
        <time>2015-07-06T08:34:00.03Z</time>
      </trkpt>
      <trkpt lat="45.94641" lon="4.73943">
        <ele>190.600006104</ele>
        <time>2015-07-06T08:34:02.011Z</time>
      </trkpt>
      <trkpt lat="45.94644" lon="4.73947">
        <ele>190.399993896</ele>
        <time>2015-07-06T08:34:03.01Z</time>
      </trkpt>
      <trkpt lat="45.94647" lon="4.73951">
        <ele>190.600006104</ele>
        <time>2015-07-06T08:34:04.009Z</time>
      </trkpt>
      <trkpt lat="45.94651" lon="4.73956">
        <ele>190.300003052</ele>
        <time>2015-07-06T08:34:05.011Z</time>
      </trkpt>
      <trkpt lat="45.94656" lon="4.73964">
        <ele>190.300003052</ele>
        <time>2015-07-06T08:34:07.027Z</time>
      </trkpt>
      <trkpt lat="45.9466" lon="4.73968">
        <ele>190.199996948</ele>
        <time>2015-07-06T08:34:08.01Z</time>
      </trkpt>
      <trkpt lat="45.94664" lon="4.73973">
        <ele>189.699996948</ele>
        <time>2015-07-06T08:34:09.008Z</time>
      </trkpt>
      <trkpt lat="45.94667" lon="4.73978">
        <ele>189.699996948</ele>
        <time>2015-07-06T08:34:10.008Z</time>
      </trkpt>
      <trkpt lat="45.94671" lon="4.73983">
        <ele>189.800003052</ele>
        <time>2015-07-06T08:34:11.008Z</time>
      </trkpt>
      <trkpt lat="45.94674" lon="4.73988">
        <ele>190.5</ele>
        <time>2015-07-06T08:34:12.011Z</time>
      </trkpt>
      <trkpt lat="45.94678" lon="4.73993">
        <ele>190.899993896</ele>
        <time>2015-07-06T08:34:13.011Z</time>
      </trkpt>
      <trkpt lat="45.94681" lon="4.73998">
        <ele>191.100006104</ele>
        <time>2015-07-06T08:34:14.012Z</time>
      </trkpt>
      <trkpt lat="45.94685" lon="4.74003">
        <ele>191.600006104</ele>
        <time>2015-07-06T08:34:15.053Z</time>
      </trkpt>
      <trkpt lat="45.94688" lon="4.74008">
        <ele>191.600006104</ele>
        <time>2015-07-06T08:34:16.008Z</time>
      </trkpt>
      <trkpt lat="45.94692" lon="4.74013">
        <ele>191.399993896</ele>
        <time>2015-07-06T08:34:17.008Z</time>
      </trkpt>
      <trkpt lat="45.94696" lon="4.74018">
        <ele>191</ele>
        <time>2015-07-06T08:34:18.012Z</time>
      </trkpt>
      <trkpt lat="45.94699" lon="4.74023">
        <ele>191.199996948</ele>
        <time>2015-07-06T08:34:19.052Z</time>
      </trkpt>
      <trkpt lat="45.94703" lon="4.74028">
        <ele>191.199996948</ele>
        <time>2015-07-06T08:34:20.014Z</time>
      </trkpt>
      <trkpt lat="45.94706" lon="4.74033">
        <ele>191.699996948</ele>
        <time>2015-07-06T08:34:21.03Z</time>
      </trkpt>
      <trkpt lat="45.94709" lon="4.74038">
        <ele>191.5</ele>
        <time>2015-07-06T08:34:22.012Z</time>
      </trkpt>
      <trkpt lat="45.94713" lon="4.74042">
        <ele>191.5</ele>
        <time>2015-07-06T08:34:23.008Z</time>
      </trkpt>
      <trkpt lat="45.94716" lon="4.74046">
        <ele>191.600006104</ele>
        <time>2015-07-06T08:34:24.011Z</time>
      </trkpt>
      <trkpt lat="45.9472" lon="4.74051">
        <ele>191.399993896</ele>
        <time>2015-07-06T08:34:25.01Z</time>
      </trkpt>
      <trkpt lat="45.94724" lon="4.74056">
        <ele>191.300003052</ele>
        <time>2015-07-06T08:34:26.008Z</time>
      </trkpt>
      <trkpt lat="45.94728" lon="4.7406">
        <ele>191.100006104</ele>
        <time>2015-07-06T08:34:27.01Z</time>
      </trkpt>
      <trkpt lat="45.94731" lon="4.74065">
        <ele>190.800003052</ele>
        <time>2015-07-06T08:34:28.022Z</time>
      </trkpt>
      <trkpt lat="45.94734" lon="4.7407">
        <ele>190.899993896</ele>
        <time>2015-07-06T08:34:29.033Z</time>
      </trkpt>
      <trkpt lat="45.94739" lon="4.74076">
        <ele>190.899993896</ele>
        <time>2015-07-06T08:34:30.011Z</time>
      </trkpt>
      <trkpt lat="45.94742" lon="4.74081">
        <ele>190.600006104</ele>
        <time>2015-07-06T08:34:31.008Z</time>
      </trkpt>
      <trkpt lat="45.94746" lon="4.74086">
        <ele>190.699996948</ele>
        <time>2015-07-06T08:34:32.01Z</time>
      </trkpt>
      <trkpt lat="45.9475" lon="4.7409">
        <ele>190.699996948</ele>
        <time>2015-07-06T08:34:33.008Z</time>
      </trkpt>
      <trkpt lat="45.94754" lon="4.74095">
        <ele>191</ele>
        <time>2015-07-06T08:34:34.011Z</time>
      </trkpt>
      <trkpt lat="45.94757" lon="4.741">
        <ele>190.800003052</ele>
        <time>2015-07-06T08:34:34.997Z</time>
      </trkpt>
      <trkpt lat="45.94761" lon="4.74105">
        <ele>190.800003052</ele>
        <time>2015-07-06T08:34:36.011Z</time>
      </trkpt>
      <trkpt lat="45.94764" lon="4.7411">
        <ele>191.199996948</ele>
        <time>2015-07-06T08:34:37.01Z</time>
      </trkpt>
      <trkpt lat="45.94768" lon="4.74115">
        <ele>191.5</ele>
        <time>2015-07-06T08:34:38.011Z</time>
      </trkpt>
      <trkpt lat="45.94772" lon="4.7412">
        <ele>191.5</ele>
        <time>2015-07-06T08:34:39.027Z</time>
      </trkpt>
      <trkpt lat="45.94775" lon="4.74125">
        <ele>191.5</ele>
        <time>2015-07-06T08:34:40.008Z</time>
      </trkpt>
      <trkpt lat="45.94779" lon="4.74131">
        <ele>191.699996948</ele>
        <time>2015-07-06T08:34:41.008Z</time>
      </trkpt>
      <trkpt lat="45.94782" lon="4.74136">
        <ele>191.600006104</ele>
        <time>2015-07-06T08:34:42.011Z</time>
      </trkpt>
      <trkpt lat="45.94785" lon="4.74142">
        <ele>191.600006104</ele>
        <time>2015-07-06T08:34:43.013Z</time>
      </trkpt>
      <trkpt lat="45.94789" lon="4.74147">
        <ele>191.600006104</ele>
        <time>2015-07-06T08:34:44.014Z</time>
      </trkpt>
      <trkpt lat="45.94792" lon="4.74152">
        <ele>191.600006104</ele>
        <time>2015-07-06T08:34:45.017Z</time>
      </trkpt>
      <trkpt lat="45.94796" lon="4.74157">
        <ele>191.399993896</ele>
        <time>2015-07-06T08:34:46.011Z</time>
      </trkpt>
      <trkpt lat="45.94799" lon="4.74162">
        <ele>191.399993896</ele>
        <time>2015-07-06T08:34:47.014Z</time>
      </trkpt>
      <trkpt lat="45.94802" lon="4.74167">
        <ele>191.5</ele>
        <time>2015-07-06T08:34:48.011Z</time>
      </trkpt>
      <trkpt lat="45.94805" lon="4.74172">
        <ele>191.800003052</ele>
        <time>2015-07-06T08:34:49.011Z</time>
      </trkpt>
      <trkpt lat="45.94808" lon="4.74176">
        <ele>191.800003052</ele>
        <time>2015-07-06T08:34:50.012Z</time>
      </trkpt>
      <trkpt lat="45.94812" lon="4.74182">
        <ele>191.399993896</ele>
        <time>2015-07-06T08:34:51.012Z</time>
      </trkpt>
      <trkpt lat="45.94815" lon="4.74187">
        <ele>191.199996948</ele>
        <time>2015-07-06T08:34:52.007Z</time>
      </trkpt>
      <trkpt lat="45.94819" lon="4.74192">
        <ele>191</ele>
        <time>2015-07-06T08:34:53.008Z</time>
      </trkpt>
      <trkpt lat="45.94822" lon="4.74198">
        <ele>190.899993896</ele>
        <time>2015-07-06T08:34:54.014Z</time>
      </trkpt>
      <trkpt lat="45.94824" lon="4.74204">
        <ele>190.800003052</ele>
        <time>2015-07-06T08:34:55.067Z</time>
      </trkpt>
      <trkpt lat="45.94827" lon="4.7421">
        <ele>190.600006104</ele>
        <time>2015-07-06T08:34:56.01Z</time>
      </trkpt>
      <trkpt lat="45.9483" lon="4.74217">
        <ele>190.5</ele>
        <time>2015-07-06T08:34:57.012Z</time>
      </trkpt>
      <trkpt lat="45.94832" lon="4.74224">
        <ele>190.5</ele>
        <time>2015-07-06T08:34:58.007Z</time>
      </trkpt>
      <trkpt lat="45.94835" lon="4.7423">
        <ele>190.300003052</ele>
        <time>2015-07-06T08:34:59.012Z</time>
      </trkpt>
      <trkpt lat="45.94838" lon="4.74236">
        <ele>190.100006104</ele>
        <time>2015-07-06T08:35:00.026Z</time>
      </trkpt>
      <trkpt lat="45.9484" lon="4.74243">
        <ele>190.100006104</ele>
        <time>2015-07-06T08:35:01.008Z</time>
      </trkpt>
      <trkpt lat="45.94844" lon="4.74249">
        <ele>190.100006104</ele>
        <time>2015-07-06T08:35:02.008Z</time>
      </trkpt>
      <trkpt lat="45.94847" lon="4.74255">
        <ele>189.899993896</ele>
        <time>2015-07-06T08:35:03.008Z</time>
      </trkpt>
      <trkpt lat="45.9485" lon="4.74261">
        <ele>190.199996948</ele>
        <time>2015-07-06T08:35:04.008Z</time>
      </trkpt>
      <trkpt lat="45.94853" lon="4.74266">
        <ele>190.5</ele>
        <time>2015-07-06T08:35:05.057Z</time>
      </trkpt>
      <trkpt lat="45.94857" lon="4.74271">
        <ele>190.300003052</ele>
        <time>2015-07-06T08:35:06.014Z</time>
      </trkpt>
      <trkpt lat="45.9486" lon="4.74276">
        <ele>190.600006104</ele>
        <time>2015-07-06T08:35:07.008Z</time>
      </trkpt>
      <trkpt lat="45.94863" lon="4.74282">
        <ele>191.300003052</ele>
        <time>2015-07-06T08:35:08.009Z</time>
      </trkpt>
      <trkpt lat="45.94866" lon="4.74288">
        <ele>191</ele>
        <time>2015-07-06T08:35:09.008Z</time>
      </trkpt>
      <trkpt lat="45.94868" lon="4.74294">
        <ele>191.300003052</ele>
        <time>2015-07-06T08:35:10.008Z</time>
      </trkpt>
      <trkpt lat="45.94871" lon="4.74301">
        <ele>191.600006104</ele>
        <time>2015-07-06T08:35:11.025Z</time>
      </trkpt>
      <trkpt lat="45.94874" lon="4.74307">
        <ele>191.600006104</ele>
        <time>2015-07-06T08:35:12.012Z</time>
      </trkpt>
      <trkpt lat="45.94877" lon="4.74313">
        <ele>191.699996948</ele>
        <time>2015-07-06T08:35:13.013Z</time>
      </trkpt>
      <trkpt lat="45.94881" lon="4.74319">
        <ele>191.899993896</ele>
        <time>2015-07-06T08:35:14.01Z</time>
      </trkpt>
      <trkpt lat="45.94884" lon="4.74325">
        <ele>192</ele>
        <time>2015-07-06T08:35:15.01Z</time>
      </trkpt>
      <trkpt lat="45.94888" lon="4.74331">
        <ele>192.300003052</ele>
        <time>2015-07-06T08:35:16.01Z</time>
      </trkpt>
      <trkpt lat="45.94891" lon="4.74337">
        <ele>192.300003052</ele>
        <time>2015-07-06T08:35:17.042Z</time>
      </trkpt>
      <trkpt lat="45.94894" lon="4.74343">
        <ele>192.5</ele>
        <time>2015-07-06T08:35:18.012Z</time>
      </trkpt>
      <trkpt lat="45.94897" lon="4.74349">
        <ele>192.800003052</ele>
        <time>2015-07-06T08:35:19.01Z</time>
      </trkpt>
      <trkpt lat="45.949" lon="4.74356">
        <ele>192.899993896</ele>
        <time>2015-07-06T08:35:20.009Z</time>
      </trkpt>
      <trkpt lat="45.94904" lon="4.74366">
        <ele>193.399993896</ele>
        <time>2015-07-06T08:35:22.135Z</time>
      </trkpt>
      <trkpt lat="45.94906" lon="4.74371">
        <ele>193.5</ele>
        <time>2015-07-06T08:35:23.114Z</time>
      </trkpt>
      <trkpt lat="45.94909" lon="4.74377">
        <ele>193.5</ele>
        <time>2015-07-06T08:35:24.011Z</time>
      </trkpt>
      <trkpt lat="45.94912" lon="4.74383">
        <ele>193.800003052</ele>
        <time>2015-07-06T08:35:25.047Z</time>
      </trkpt>
      <trkpt lat="45.94916" lon="4.7439">
        <ele>194.300003052</ele>
        <time>2015-07-06T08:35:26.102Z</time>
      </trkpt>
      <trkpt lat="45.94919" lon="4.74396">
        <ele>194.5</ele>
        <time>2015-07-06T08:35:27.078Z</time>
      </trkpt>
      <trkpt lat="45.94922" lon="4.74402">
        <ele>195.100006104</ele>
        <time>2015-07-06T08:35:28.012Z</time>
      </trkpt>
      <trkpt lat="45.94925" lon="4.74409">
        <ele>195.5</ele>
        <time>2015-07-06T08:35:29.012Z</time>
      </trkpt>
      <trkpt lat="45.94928" lon="4.74415">
        <ele>195.600006104</ele>
        <time>2015-07-06T08:35:30.022Z</time>
      </trkpt>
      <trkpt lat="45.94931" lon="4.74421">
        <ele>195.800003052</ele>
        <time>2015-07-06T08:35:31.01Z</time>
      </trkpt>
      <trkpt lat="45.94935" lon="4.74426">
        <ele>195.800003052</ele>
        <time>2015-07-06T08:35:32.148Z</time>
      </trkpt>
      <trkpt lat="45.94938" lon="4.74432">
        <ele>195.699996948</ele>
        <time>2015-07-06T08:35:33.007Z</time>
      </trkpt>
      <trkpt lat="45.94942" lon="4.74437">
        <ele>195.699996948</ele>
        <time>2015-07-06T08:35:34.006Z</time>
      </trkpt>
      <trkpt lat="45.94945" lon="4.74443">
        <ele>195.699996948</ele>
        <time>2015-07-06T08:35:35.01Z</time>
      </trkpt>
      <trkpt lat="45.94948" lon="4.74449">
        <ele>195.600006104</ele>
        <time>2015-07-06T08:35:36.009Z</time>
      </trkpt>
      <trkpt lat="45.94951" lon="4.74455">
        <ele>195.5</ele>
        <time>2015-07-06T08:35:37.026Z</time>
      </trkpt>
      <trkpt lat="45.94954" lon="4.74461">
        <ele>195.5</ele>
        <time>2015-07-06T08:35:38.008Z</time>
      </trkpt>
      <trkpt lat="45.94957" lon="4.74467">
        <ele>195.300003052</ele>
        <time>2015-07-06T08:35:39.013Z</time>
      </trkpt>
      <trkpt lat="45.94959" lon="4.74472">
        <ele>195.399993896</ele>
        <time>2015-07-06T08:35:40.01Z</time>
      </trkpt>
      <trkpt lat="45.94962" lon="4.74478">
        <ele>195.600006104</ele>
        <time>2015-07-06T08:35:41.007Z</time>
      </trkpt>
      <trkpt lat="45.94966" lon="4.74483">
        <ele>195.899993896</ele>
        <time>2015-07-06T08:35:42.011Z</time>
      </trkpt>
      <trkpt lat="45.94969" lon="4.74489">
        <ele>196.100006104</ele>
        <time>2015-07-06T08:35:43.007Z</time>
      </trkpt>
      <trkpt lat="45.94972" lon="4.74495">
        <ele>196</ele>
        <time>2015-07-06T08:35:44.011Z</time>
      </trkpt>
      <trkpt lat="45.94976" lon="4.74501">
        <ele>196.100006104</ele>
        <time>2015-07-06T08:35:45.009Z</time>
      </trkpt>
      <trkpt lat="45.94979" lon="4.74508">
        <ele>195.899993896</ele>
        <time>2015-07-06T08:35:46.007Z</time>
      </trkpt>
      <trkpt lat="45.94982" lon="4.74514">
        <ele>195.5</ele>
        <time>2015-07-06T08:35:47.375Z</time>
      </trkpt>
      <trkpt lat="45.94985" lon="4.7452">
        <ele>195.899993896</ele>
        <time>2015-07-06T08:35:48.266Z</time>
      </trkpt>
      <trkpt lat="45.94987" lon="4.74526">
        <ele>196</ele>
        <time>2015-07-06T08:35:49.008Z</time>
      </trkpt>
      <trkpt lat="45.94991" lon="4.74531">
        <ele>196.600006104</ele>
        <time>2015-07-06T08:35:50.011Z</time>
      </trkpt>
      <trkpt lat="45.94994" lon="4.74537">
        <ele>196.699996948</ele>
        <time>2015-07-06T08:35:51.014Z</time>
      </trkpt>
      <trkpt lat="45.94997" lon="4.74543">
        <ele>196.600006104</ele>
        <time>2015-07-06T08:35:52.138Z</time>
      </trkpt>
      <trkpt lat="45.95" lon="4.74549">
        <ele>196.600006104</ele>
        <time>2015-07-06T08:35:53.022Z</time>
      </trkpt>
      <trkpt lat="45.95003" lon="4.74555">
        <ele>196.899993896</ele>
        <time>2015-07-06T08:35:54.017Z</time>
      </trkpt>
      <trkpt lat="45.95005" lon="4.74561">
        <ele>197.199996948</ele>
        <time>2015-07-06T08:35:55.023Z</time>
      </trkpt>
      <trkpt lat="45.95007" lon="4.74567">
        <ele>197.699996948</ele>
        <time>2015-07-06T08:35:56.017Z</time>
      </trkpt>
      <trkpt lat="45.9501" lon="4.74574">
        <ele>198.100006104</ele>
        <time>2015-07-06T08:35:57.056Z</time>
      </trkpt>
      <trkpt lat="45.95014" lon="4.7458">
        <ele>198.300003052</ele>
        <time>2015-07-06T08:35:58.01Z</time>
      </trkpt>
      <trkpt lat="45.95018" lon="4.74586">
        <ele>198.5</ele>
        <time>2015-07-06T08:35:59.008Z</time>
      </trkpt>
      <trkpt lat="45.95021" lon="4.74593">
        <ele>198.899993896</ele>
        <time>2015-07-06T08:36:00.038Z</time>
      </trkpt>
      <trkpt lat="45.95025" lon="4.74599">
        <ele>199</ele>
        <time>2015-07-06T08:36:01.012Z</time>
      </trkpt>
      <trkpt lat="45.95028" lon="4.74604">
        <ele>199.300003052</ele>
        <time>2015-07-06T08:36:02.014Z</time>
      </trkpt>
      <trkpt lat="45.95032" lon="4.7461">
        <ele>199.600006104</ele>
        <time>2015-07-06T08:36:03.013Z</time>
      </trkpt>
      <trkpt lat="45.95035" lon="4.74615">
        <ele>199.699996948</ele>
        <time>2015-07-06T08:36:04.028Z</time>
      </trkpt>
      <trkpt lat="45.95039" lon="4.74621">
        <ele>200</ele>
        <time>2015-07-06T08:36:05.012Z</time>
      </trkpt>
      <trkpt lat="45.95042" lon="4.74627">
        <ele>200.300003052</ele>
        <time>2015-07-06T08:36:06.012Z</time>
      </trkpt>
      <trkpt lat="45.95046" lon="4.74633">
        <ele>200.399993896</ele>
        <time>2015-07-06T08:36:07.01Z</time>
      </trkpt>
      <trkpt lat="45.95049" lon="4.74639">
        <ele>200.300003052</ele>
        <time>2015-07-06T08:36:08.009Z</time>
      </trkpt>
      <trkpt lat="45.95053" lon="4.74644">
        <ele>200.699996948</ele>
        <time>2015-07-06T08:36:09.01Z</time>
      </trkpt>
      <trkpt lat="45.95056" lon="4.7465">
        <ele>200.899993896</ele>
        <time>2015-07-06T08:36:10.01Z</time>
      </trkpt>
      <trkpt lat="45.95059" lon="4.74656">
        <ele>200.899993896</ele>
        <time>2015-07-06T08:36:11.008Z</time>
      </trkpt>
      <trkpt lat="45.95062" lon="4.74662">
        <ele>200.699996948</ele>
        <time>2015-07-06T08:36:12.05Z</time>
      </trkpt>
      <trkpt lat="45.95065" lon="4.74667">
        <ele>200.600006104</ele>
        <time>2015-07-06T08:36:13.008Z</time>
      </trkpt>
      <trkpt lat="45.95068" lon="4.74673">
        <ele>200.600006104</ele>
        <time>2015-07-06T08:36:14.014Z</time>
      </trkpt>
      <trkpt lat="45.95071" lon="4.74679">
        <ele>200.5</ele>
        <time>2015-07-06T08:36:15.014Z</time>
      </trkpt>
      <trkpt lat="45.95074" lon="4.74684">
        <ele>200.100006104</ele>
        <time>2015-07-06T08:36:16.035Z</time>
      </trkpt>
      <trkpt lat="45.95078" lon="4.7469">
        <ele>199.800003052</ele>
        <time>2015-07-06T08:36:17.01Z</time>
      </trkpt>
      <trkpt lat="45.95081" lon="4.74696">
        <ele>199.300003052</ele>
        <time>2015-07-06T08:36:18.011Z</time>
      </trkpt>
      <trkpt lat="45.95083" lon="4.74702">
        <ele>199.600006104</ele>
        <time>2015-07-06T08:36:19.012Z</time>
      </trkpt>
      <trkpt lat="45.95086" lon="4.74709">
        <ele>199.399993896</ele>
        <time>2015-07-06T08:36:20.032Z</time>
      </trkpt>
      <trkpt lat="45.95089" lon="4.74715">
        <ele>199.399993896</ele>
        <time>2015-07-06T08:36:21.028Z</time>
      </trkpt>
      <trkpt lat="45.95092" lon="4.74721">
        <ele>199.699996948</ele>
        <time>2015-07-06T08:36:22.012Z</time>
      </trkpt>
      <trkpt lat="45.95096" lon="4.74727">
        <ele>199.800003052</ele>
        <time>2015-07-06T08:36:23.009Z</time>
      </trkpt>
      <trkpt lat="45.95099" lon="4.74733">
        <ele>199.800003052</ele>
        <time>2015-07-06T08:36:24.017Z</time>
      </trkpt>
      <trkpt lat="45.95103" lon="4.7474">
        <ele>199.800003052</ele>
        <time>2015-07-06T08:36:25.013Z</time>
      </trkpt>
      <trkpt lat="45.95107" lon="4.74745">
        <ele>199.600006104</ele>
        <time>2015-07-06T08:36:26.012Z</time>
      </trkpt>
      <trkpt lat="45.95111" lon="4.74751">
        <ele>199.399993896</ele>
        <time>2015-07-06T08:36:27.01Z</time>
      </trkpt>
      <trkpt lat="45.95114" lon="4.74757">
        <ele>199.199996948</ele>
        <time>2015-07-06T08:36:28.008Z</time>
      </trkpt>
      <trkpt lat="45.95118" lon="4.74762">
        <ele>199.100006104</ele>
        <time>2015-07-06T08:36:29.01Z</time>
      </trkpt>
      <trkpt lat="45.95122" lon="4.74768">
        <ele>199.199996948</ele>
        <time>2015-07-06T08:36:30.011Z</time>
      </trkpt>
      <trkpt lat="45.95125" lon="4.74774">
        <ele>198.699996948</ele>
        <time>2015-07-06T08:36:31.008Z</time>
      </trkpt>
      <trkpt lat="45.95129" lon="4.7478">
        <ele>198.399993896</ele>
        <time>2015-07-06T08:36:32.008Z</time>
      </trkpt>
      <trkpt lat="45.95132" lon="4.74785">
        <ele>198.100006104</ele>
        <time>2015-07-06T08:36:33.012Z</time>
      </trkpt>
      <trkpt lat="45.95136" lon="4.74791">
        <ele>198.899993896</ele>
        <time>2015-07-06T08:36:34.01Z</time>
      </trkpt>
      <trkpt lat="45.95139" lon="4.74797">
        <ele>198.800003052</ele>
        <time>2015-07-06T08:36:35.015Z</time>
      </trkpt>
      <trkpt lat="45.95143" lon="4.74803">
        <ele>198.699996948</ele>
        <time>2015-07-06T08:36:36.03Z</time>
      </trkpt>
      <trkpt lat="45.95147" lon="4.74809">
        <ele>198.800003052</ele>
        <time>2015-07-06T08:36:37.01Z</time>
      </trkpt>
      <trkpt lat="45.95151" lon="4.74815">
        <ele>198.800003052</ele>
        <time>2015-07-06T08:36:38.009Z</time>
      </trkpt>
      <trkpt lat="45.95155" lon="4.74821">
        <ele>199</ele>
        <time>2015-07-06T08:36:39.008Z</time>
      </trkpt>
      <trkpt lat="45.95158" lon="4.74827">
        <ele>199.100006104</ele>
        <time>2015-07-06T08:36:40.012Z</time>
      </trkpt>
      <trkpt lat="45.95163" lon="4.74832">
        <ele>199</ele>
        <time>2015-07-06T08:36:41.008Z</time>
      </trkpt>
      <trkpt lat="45.95167" lon="4.74838">
        <ele>198.899993896</ele>
        <time>2015-07-06T08:36:42.015Z</time>
      </trkpt>
      <trkpt lat="45.95171" lon="4.74844">
        <ele>198.699996948</ele>
        <time>2015-07-06T08:36:43.012Z</time>
      </trkpt>
      <trkpt lat="45.95174" lon="4.7485">
        <ele>198.800003052</ele>
        <time>2015-07-06T08:36:44.058Z</time>
      </trkpt>
      <trkpt lat="45.95178" lon="4.74857">
        <ele>198.899993896</ele>
        <time>2015-07-06T08:36:45.009Z</time>
      </trkpt>
      <trkpt lat="45.95182" lon="4.74863">
        <ele>198.899993896</ele>
        <time>2015-07-06T08:36:46.008Z</time>
      </trkpt>
      <trkpt lat="45.95185" lon="4.74869">
        <ele>198.699996948</ele>
        <time>2015-07-06T08:36:47.024Z</time>
      </trkpt>
      <trkpt lat="45.95191" lon="4.74879">
        <ele>197.399993896</ele>
        <time>2015-07-06T08:36:49.011Z</time>
      </trkpt>
      <trkpt lat="45.95196" lon="4.74885">
        <ele>196.699996948</ele>
        <time>2015-07-06T08:36:50.006Z</time>
      </trkpt>
      <trkpt lat="45.952" lon="4.7489">
        <ele>196.600006104</ele>
        <time>2015-07-06T08:36:51.338Z</time>
      </trkpt>
      <trkpt lat="45.95203" lon="4.74896">
        <ele>196.600006104</ele>
        <time>2015-07-06T08:36:52.062Z</time>
      </trkpt>
      <trkpt lat="45.95208" lon="4.74901">
        <ele>196.600006104</ele>
        <time>2015-07-06T08:36:53.011Z</time>
      </trkpt>
      <trkpt lat="45.95213" lon="4.74906">
        <ele>196.399993896</ele>
        <time>2015-07-06T08:36:54.073Z</time>
      </trkpt>
      <trkpt lat="45.95216" lon="4.74912">
        <ele>196.199996948</ele>
        <time>2015-07-06T08:36:55.025Z</time>
      </trkpt>
      <trkpt lat="45.95221" lon="4.74917">
        <ele>196.100006104</ele>
        <time>2015-07-06T08:36:56.012Z</time>
      </trkpt>
      <trkpt lat="45.95224" lon="4.74923">
        <ele>195.899993896</ele>
        <time>2015-07-06T08:36:57.01Z</time>
      </trkpt>
      <trkpt lat="45.95228" lon="4.74929">
        <ele>195.699996948</ele>
        <time>2015-07-06T08:36:58.01Z</time>
      </trkpt>
      <trkpt lat="45.9523" lon="4.74936">
        <ele>195.5</ele>
        <time>2015-07-06T08:36:59.052Z</time>
      </trkpt>
      <trkpt lat="45.95234" lon="4.74943">
        <ele>195.100006104</ele>
        <time>2015-07-06T08:37:00.042Z</time>
      </trkpt>
      <trkpt lat="45.95238" lon="4.74949">
        <ele>195</ele>
        <time>2015-07-06T08:37:01.012Z</time>
      </trkpt>
      <trkpt lat="45.95242" lon="4.74956">
        <ele>194.600006104</ele>
        <time>2015-07-06T08:37:02.01Z</time>
      </trkpt>
      <trkpt lat="45.95245" lon="4.74962">
        <ele>194.600006104</ele>
        <time>2015-07-06T08:37:03.007Z</time>
      </trkpt>
      <trkpt lat="45.95249" lon="4.74968">
        <ele>194.300003052</ele>
        <time>2015-07-06T08:37:04.008Z</time>
      </trkpt>
      <trkpt lat="45.95253" lon="4.74974">
        <ele>194.100006104</ele>
        <time>2015-07-06T08:37:05.011Z</time>
      </trkpt>
      <trkpt lat="45.95257" lon="4.74979">
        <ele>193.800003052</ele>
        <time>2015-07-06T08:37:06.014Z</time>
      </trkpt>
      <trkpt lat="45.95264" lon="4.74986">
        <ele>193.399993896</ele>
        <time>2015-07-06T08:37:07.009Z</time>
      </trkpt>
      <trkpt lat="45.95268" lon="4.74992">
        <ele>193.100006104</ele>
        <time>2015-07-06T08:37:08.03Z</time>
      </trkpt>
      <trkpt lat="45.95272" lon="4.74998">
        <ele>193.300003052</ele>
        <time>2015-07-06T08:37:09.068Z</time>
      </trkpt>
      <trkpt lat="45.95275" lon="4.75004">
        <ele>193.399993896</ele>
        <time>2015-07-06T08:37:10.052Z</time>
      </trkpt>
      <trkpt lat="45.95279" lon="4.7501">
        <ele>193</ele>
        <time>2015-07-06T08:37:11.012Z</time>
      </trkpt>
      <trkpt lat="45.95282" lon="4.75015">
        <ele>193</ele>
        <time>2015-07-06T08:37:12.022Z</time>
      </trkpt>
      <trkpt lat="45.95285" lon="4.75022">
        <ele>193.899993896</ele>
        <time>2015-07-06T08:37:13.011Z</time>
      </trkpt>
      <trkpt lat="45.95289" lon="4.75028">
        <ele>194.5</ele>
        <time>2015-07-06T08:37:14.022Z</time>
      </trkpt>
      <trkpt lat="45.95292" lon="4.75034">
        <ele>194.800003052</ele>
        <time>2015-07-06T08:37:15.021Z</time>
      </trkpt>
      <trkpt lat="45.95296" lon="4.7504">
        <ele>194.699996948</ele>
        <time>2015-07-06T08:37:16.008Z</time>
      </trkpt>
      <trkpt lat="45.95299" lon="4.75046">
        <ele>194.399993896</ele>
        <time>2015-07-06T08:37:17.02Z</time>
      </trkpt>
      <trkpt lat="45.95303" lon="4.75052">
        <ele>194.199996948</ele>
        <time>2015-07-06T08:37:18.011Z</time>
      </trkpt>
      <trkpt lat="45.95307" lon="4.75059">
        <ele>194.100006104</ele>
        <time>2015-07-06T08:37:19.01Z</time>
      </trkpt>
      <trkpt lat="45.95311" lon="4.75065">
        <ele>193.699996948</ele>
        <time>2015-07-06T08:37:20.009Z</time>
      </trkpt>
      <trkpt lat="45.95315" lon="4.75071">
        <ele>193.899993896</ele>
        <time>2015-07-06T08:37:21.052Z</time>
      </trkpt>
      <trkpt lat="45.95316" lon="4.75076">
        <ele>192.300003052</ele>
        <time>2015-07-06T08:37:22.008Z</time>
      </trkpt>
      <trkpt lat="45.95319" lon="4.75082">
        <ele>191.300003052</ele>
        <time>2015-07-06T08:37:23.01Z</time>
      </trkpt>
      <trkpt lat="45.95323" lon="4.75088">
        <ele>192.300003052</ele>
        <time>2015-07-06T08:37:24.01Z</time>
      </trkpt>
      <trkpt lat="45.95326" lon="4.75095">
        <ele>193.199996948</ele>
        <time>2015-07-06T08:37:25.013Z</time>
      </trkpt>
      <trkpt lat="45.95331" lon="4.75101">
        <ele>194</ele>
        <time>2015-07-06T08:37:26.008Z</time>
      </trkpt>
      <trkpt lat="45.95335" lon="4.75107">
        <ele>194.699996948</ele>
        <time>2015-07-06T08:37:27.01Z</time>
      </trkpt>
      <trkpt lat="45.95339" lon="4.75113">
        <ele>195.199996948</ele>
        <time>2015-07-06T08:37:28.01Z</time>
      </trkpt>
      <trkpt lat="45.95343" lon="4.75118">
        <ele>195.600006104</ele>
        <time>2015-07-06T08:37:29.006Z</time>
      </trkpt>
      <trkpt lat="45.95347" lon="4.75125">
        <ele>195.800003052</ele>
        <time>2015-07-06T08:37:30.012Z</time>
      </trkpt>
      <trkpt lat="45.95351" lon="4.75131">
        <ele>195.600006104</ele>
        <time>2015-07-06T08:37:31.006Z</time>
      </trkpt>
      <trkpt lat="45.95355" lon="4.75137">
        <ele>195.5</ele>
        <time>2015-07-06T08:37:32.067Z</time>
      </trkpt>
      <trkpt lat="45.95359" lon="4.75145">
        <ele>196</ele>
        <time>2015-07-06T08:37:33.011Z</time>
      </trkpt>
      <trkpt lat="45.95366" lon="4.75153">
        <ele>196</ele>
        <time>2015-07-06T08:37:34.072Z</time>
      </trkpt>
      <trkpt lat="45.95371" lon="4.75161">
        <ele>196</ele>
        <time>2015-07-06T08:37:35.169Z</time>
      </trkpt>
      <trkpt lat="45.95375" lon="4.75167">
        <ele>195.600006104</ele>
        <time>2015-07-06T08:37:36.033Z</time>
      </trkpt>
      <trkpt lat="45.95379" lon="4.75173">
        <ele>195.300003052</ele>
        <time>2015-07-06T08:37:37.011Z</time>
      </trkpt>
      <trkpt lat="45.95383" lon="4.7518">
        <ele>195.699996948</ele>
        <time>2015-07-06T08:37:38.022Z</time>
      </trkpt>
      <trkpt lat="45.95386" lon="4.75186">
        <ele>195.199996948</ele>
        <time>2015-07-06T08:37:39.022Z</time>
      </trkpt>
      <trkpt lat="45.95389" lon="4.75192">
        <ele>195.199996948</ele>
        <time>2015-07-06T08:37:40.012Z</time>
      </trkpt>
      <trkpt lat="45.95393" lon="4.75199">
        <ele>195.100006104</ele>
        <time>2015-07-06T08:37:41.022Z</time>
      </trkpt>
      <trkpt lat="45.95397" lon="4.75205">
        <ele>195.399993896</ele>
        <time>2015-07-06T08:37:42.011Z</time>
      </trkpt>
      <trkpt lat="45.954" lon="4.75212">
        <ele>195.600006104</ele>
        <time>2015-07-06T08:37:43.01Z</time>
      </trkpt>
      <trkpt lat="45.95403" lon="4.75218">
        <ele>195.5</ele>
        <time>2015-07-06T08:37:44.013Z</time>
      </trkpt>
      <trkpt lat="45.95406" lon="4.75224">
        <ele>195.600006104</ele>
        <time>2015-07-06T08:37:45.037Z</time>
      </trkpt>
      <trkpt lat="45.95409" lon="4.75231">
        <ele>195.800003052</ele>
        <time>2015-07-06T08:37:46.01Z</time>
      </trkpt>
      <trkpt lat="45.95413" lon="4.75237">
        <ele>195.699996948</ele>
        <time>2015-07-06T08:37:47.008Z</time>
      </trkpt>
      <trkpt lat="45.95416" lon="4.75243">
        <ele>195.5</ele>
        <time>2015-07-06T08:37:48.054Z</time>
      </trkpt>
      <trkpt lat="45.95419" lon="4.75249">
        <ele>195.5</ele>
        <time>2015-07-06T08:37:49.008Z</time>
      </trkpt>
      <trkpt lat="45.95422" lon="4.75255">
        <ele>195.5</ele>
        <time>2015-07-06T08:37:50.01Z</time>
      </trkpt>
      <trkpt lat="45.95425" lon="4.75262">
        <ele>195.100006104</ele>
        <time>2015-07-06T08:37:51.011Z</time>
      </trkpt>
      <trkpt lat="45.95429" lon="4.75268">
        <ele>195.199996948</ele>
        <time>2015-07-06T08:37:52.008Z</time>
      </trkpt>
      <trkpt lat="45.95433" lon="4.75274">
        <ele>195.100006104</ele>
        <time>2015-07-06T08:37:53.012Z</time>
      </trkpt>
      <trkpt lat="45.95436" lon="4.7528">
        <ele>195.100006104</ele>
        <time>2015-07-06T08:37:54.011Z</time>
      </trkpt>
      <trkpt lat="45.9544" lon="4.75288">
        <ele>195.199996948</ele>
        <time>2015-07-06T08:37:55.017Z</time>
      </trkpt>
      <trkpt lat="45.95444" lon="4.75294">
        <ele>195.399993896</ele>
        <time>2015-07-06T08:37:56.013Z</time>
      </trkpt>
      <trkpt lat="45.95448" lon="4.75302">
        <ele>195.5</ele>
        <time>2015-07-06T08:37:57.01Z</time>
      </trkpt>
      <trkpt lat="45.95452" lon="4.75309">
        <ele>196</ele>
        <time>2015-07-06T08:37:58.012Z</time>
      </trkpt>
      <trkpt lat="45.95456" lon="4.75317">
        <ele>196.100006104</ele>
        <time>2015-07-06T08:37:59.008Z</time>
      </trkpt>
      <trkpt lat="45.9546" lon="4.75325">
        <ele>196</ele>
        <time>2015-07-06T08:38:00.045Z</time>
      </trkpt>
      <trkpt lat="45.95465" lon="4.75333">
        <ele>195.5</ele>
        <time>2015-07-06T08:38:01.025Z</time>
      </trkpt>
      <trkpt lat="45.95469" lon="4.75342">
        <ele>195.100006104</ele>
        <time>2015-07-06T08:38:02.008Z</time>
      </trkpt>
      <trkpt lat="45.95474" lon="4.7535">
        <ele>195.199996948</ele>
        <time>2015-07-06T08:38:03.031Z</time>
      </trkpt>
      <trkpt lat="45.95478" lon="4.7536">
        <ele>195.300003052</ele>
        <time>2015-07-06T08:38:04.014Z</time>
      </trkpt>
      <trkpt lat="45.95484" lon="4.75369">
        <ele>195.300003052</ele>
        <time>2015-07-06T08:38:05.021Z</time>
      </trkpt>
      <trkpt lat="45.95489" lon="4.75378">
        <ele>195</ele>
        <time>2015-07-06T08:38:06.013Z</time>
      </trkpt>
      <trkpt lat="45.95494" lon="4.75387">
        <ele>194.800003052</ele>
        <time>2015-07-06T08:38:07.011Z</time>
      </trkpt>
      <trkpt lat="45.95498" lon="4.75396">
        <ele>194.600006104</ele>
        <time>2015-07-06T08:38:08.012Z</time>
      </trkpt>
      <trkpt lat="45.95502" lon="4.75405">
        <ele>194.600006104</ele>
        <time>2015-07-06T08:38:09.008Z</time>
      </trkpt>
      <trkpt lat="45.95504" lon="4.75414">
        <ele>194.399993896</ele>
        <time>2015-07-06T08:38:10.01Z</time>
      </trkpt>
      <trkpt lat="45.95507" lon="4.75423">
        <ele>194.100006104</ele>
        <time>2015-07-06T08:38:11.062Z</time>
      </trkpt>
      <trkpt lat="45.95508" lon="4.75433">
        <ele>194.100006104</ele>
        <time>2015-07-06T08:38:12.028Z</time>
      </trkpt>
      <trkpt lat="45.9551" lon="4.75441">
        <ele>194</ele>
        <time>2015-07-06T08:38:13.011Z</time>
      </trkpt>
      <trkpt lat="45.95511" lon="4.75447">
        <ele>193.699996948</ele>
        <time>2015-07-06T08:38:14.012Z</time>
      </trkpt>
      <trkpt lat="45.9551" lon="4.75458">
        <ele>193.5</ele>
        <time>2015-07-06T08:38:16.012Z</time>
      </trkpt>
      <trkpt lat="45.95509" lon="4.75464">
        <ele>193.399993896</ele>
        <time>2015-07-06T08:38:17.009Z</time>
      </trkpt>
      <trkpt lat="45.95508" lon="4.75472">
        <ele>193.399993896</ele>
        <time>2015-07-06T08:38:18.012Z</time>
      </trkpt>
      <trkpt lat="45.95508" lon="4.75479">
        <ele>193.399993896</ele>
        <time>2015-07-06T08:38:19.012Z</time>
      </trkpt>
      <trkpt lat="45.9551" lon="4.75486">
        <ele>193.100006104</ele>
        <time>2015-07-06T08:38:20.013Z</time>
      </trkpt>
      <trkpt lat="45.95513" lon="4.75493">
        <ele>193.300003052</ele>
        <time>2015-07-06T08:38:21.025Z</time>
      </trkpt>
      <trkpt lat="45.95517" lon="4.75499">
        <ele>193.199996948</ele>
        <time>2015-07-06T08:38:22.013Z</time>
      </trkpt>
      <trkpt lat="45.95521" lon="4.75503">
        <ele>193</ele>
        <time>2015-07-06T08:38:23.008Z</time>
      </trkpt>
      <trkpt lat="45.95526" lon="4.75508">
        <ele>192.899993896</ele>
        <time>2015-07-06T08:38:24.014Z</time>
      </trkpt>
      <trkpt lat="45.9553" lon="4.75512">
        <ele>192.699996948</ele>
        <time>2015-07-06T08:38:25.023Z</time>
      </trkpt>
      <trkpt lat="45.95535" lon="4.75516">
        <ele>192.399993896</ele>
        <time>2015-07-06T08:38:26.011Z</time>
      </trkpt>
      <trkpt lat="45.95539" lon="4.75521">
        <ele>192.399993896</ele>
        <time>2015-07-06T08:38:27.008Z</time>
      </trkpt>
      <trkpt lat="45.95543" lon="4.75526">
        <ele>192.199996948</ele>
        <time>2015-07-06T08:38:28.024Z</time>
      </trkpt>
      <trkpt lat="45.95548" lon="4.7553">
        <ele>192.100006104</ele>
        <time>2015-07-06T08:38:29.012Z</time>
      </trkpt>
      <trkpt lat="45.95553" lon="4.75534">
        <ele>191.899993896</ele>
        <time>2015-07-06T08:38:30.05Z</time>
      </trkpt>
      <trkpt lat="45.95558" lon="4.75538">
        <ele>191.600006104</ele>
        <time>2015-07-06T08:38:31.008Z</time>
      </trkpt>
      <trkpt lat="45.95563" lon="4.75542">
        <ele>191.399993896</ele>
        <time>2015-07-06T08:38:32.008Z</time>
      </trkpt>
      <trkpt lat="45.95568" lon="4.75546">
        <ele>191</ele>
        <time>2015-07-06T08:38:33.006Z</time>
      </trkpt>
      <trkpt lat="45.95571" lon="4.75552">
        <ele>191.100006104</ele>
        <time>2015-07-06T08:38:34.01Z</time>
      </trkpt>
      <trkpt lat="45.95575" lon="4.75558">
        <ele>190.899993896</ele>
        <time>2015-07-06T08:38:35.024Z</time>
      </trkpt>
      <trkpt lat="45.95579" lon="4.75563">
        <ele>191.100006104</ele>
        <time>2015-07-06T08:38:36.013Z</time>
      </trkpt>
      <trkpt lat="45.95583" lon="4.75568">
        <ele>191.100006104</ele>
        <time>2015-07-06T08:38:37.011Z</time>
      </trkpt>
      <trkpt lat="45.95587" lon="4.75573">
        <ele>190.899993896</ele>
        <time>2015-07-06T08:38:38.011Z</time>
      </trkpt>
      <trkpt lat="45.9559" lon="4.75578">
        <ele>190.600006104</ele>
        <time>2015-07-06T08:38:39.025Z</time>
      </trkpt>
      <trkpt lat="45.95593" lon="4.75584">
        <ele>190.399993896</ele>
        <time>2015-07-06T08:38:40.011Z</time>
      </trkpt>
      <trkpt lat="45.95596" lon="4.7559">
        <ele>190.399993896</ele>
        <time>2015-07-06T08:38:41.008Z</time>
      </trkpt>
      <trkpt lat="45.95598" lon="4.75596">
        <ele>190.300003052</ele>
        <time>2015-07-06T08:38:42.062Z</time>
      </trkpt>
      <trkpt lat="45.95601" lon="4.75602">
        <ele>190.199996948</ele>
        <time>2015-07-06T08:38:43.053Z</time>
      </trkpt>
      <trkpt lat="45.95603" lon="4.75608">
        <ele>190</ele>
        <time>2015-07-06T08:38:44.009Z</time>
      </trkpt>
      <trkpt lat="45.95605" lon="4.75614">
        <ele>190.199996948</ele>
        <time>2015-07-06T08:38:45.024Z</time>
      </trkpt>
      <trkpt lat="45.95607" lon="4.75621">
        <ele>190</ele>
        <time>2015-07-06T08:38:46.013Z</time>
      </trkpt>
      <trkpt lat="45.95609" lon="4.75627">
        <ele>189.899993896</ele>
        <time>2015-07-06T08:38:47.01Z</time>
      </trkpt>
      <trkpt lat="45.95611" lon="4.75634">
        <ele>189.600006104</ele>
        <time>2015-07-06T08:38:48.012Z</time>
      </trkpt>
      <trkpt lat="45.95614" lon="4.75642">
        <ele>189.199996948</ele>
        <time>2015-07-06T08:38:49.009Z</time>
      </trkpt>
      <trkpt lat="45.95616" lon="4.75648">
        <ele>188.899993896</ele>
        <time>2015-07-06T08:38:50.025Z</time>
      </trkpt>
      <trkpt lat="45.95617" lon="4.75655">
        <ele>189.399993896</ele>
        <time>2015-07-06T08:38:51.051Z</time>
      </trkpt>
      <trkpt lat="45.95618" lon="4.75662">
        <ele>189.199996948</ele>
        <time>2015-07-06T08:38:52.011Z</time>
      </trkpt>
      <trkpt lat="45.9562" lon="4.7567">
        <ele>189.300003052</ele>
        <time>2015-07-06T08:38:53.01Z</time>
      </trkpt>
      <trkpt lat="45.95621" lon="4.75677">
        <ele>189.5</ele>
        <time>2015-07-06T08:38:54.011Z</time>
      </trkpt>
      <trkpt lat="45.95622" lon="4.75685">
        <ele>189.899993896</ele>
        <time>2015-07-06T08:38:55.028Z</time>
      </trkpt>
      <trkpt lat="45.95624" lon="4.75692">
        <ele>189.600006104</ele>
        <time>2015-07-06T08:38:56.012Z</time>
      </trkpt>
      <trkpt lat="45.95625" lon="4.757">
        <ele>189.699996948</ele>
        <time>2015-07-06T08:38:57.031Z</time>
      </trkpt>
      <trkpt lat="45.95625" lon="4.75707">
        <ele>190.100006104</ele>
        <time>2015-07-06T08:38:58.01Z</time>
      </trkpt>
      <trkpt lat="45.95626" lon="4.75715">
        <ele>190.5</ele>
        <time>2015-07-06T08:38:59.008Z</time>
      </trkpt>
      <trkpt lat="45.95627" lon="4.75723">
        <ele>190.699996948</ele>
        <time>2015-07-06T08:39:00.033Z</time>
      </trkpt>
      <trkpt lat="45.95628" lon="4.7573">
        <ele>191.100006104</ele>
        <time>2015-07-06T08:39:01.01Z</time>
      </trkpt>
      <trkpt lat="45.95629" lon="4.75738">
        <ele>191.300003052</ele>
        <time>2015-07-06T08:39:02.058Z</time>
      </trkpt>
      <trkpt lat="45.9563" lon="4.75746">
        <ele>191.5</ele>
        <time>2015-07-06T08:39:03.008Z</time>
      </trkpt>
      <trkpt lat="45.95631" lon="4.75753">
        <ele>191.600006104</ele>
        <time>2015-07-06T08:39:04.008Z</time>
      </trkpt>
      <trkpt lat="45.95632" lon="4.7576">
        <ele>191.600006104</ele>
        <time>2015-07-06T08:39:05.029Z</time>
      </trkpt>
      <trkpt lat="45.95633" lon="4.75768">
        <ele>192.199996948</ele>
        <time>2015-07-06T08:39:06.011Z</time>
      </trkpt>
      <trkpt lat="45.95634" lon="4.75776">
        <ele>192.300003052</ele>
        <time>2015-07-06T08:39:07.01Z</time>
      </trkpt>
      <trkpt lat="45.95636" lon="4.75784">
        <ele>192.199996948</ele>
        <time>2015-07-06T08:39:08.009Z</time>
      </trkpt>
      <trkpt lat="45.95637" lon="4.75792">
        <ele>192.300003052</ele>
        <time>2015-07-06T08:39:09.008Z</time>
      </trkpt>
      <trkpt lat="45.95638" lon="4.758">
        <ele>192.199996948</ele>
        <time>2015-07-06T08:39:10.012Z</time>
      </trkpt>
      <trkpt lat="45.95639" lon="4.75808">
        <ele>192.199996948</ele>
        <time>2015-07-06T08:39:11.024Z</time>
      </trkpt>
      <trkpt lat="45.95641" lon="4.75817">
        <ele>192.100006104</ele>
        <time>2015-07-06T08:39:12.011Z</time>
      </trkpt>
      <trkpt lat="45.95643" lon="4.75825">
        <ele>192.199996948</ele>
        <time>2015-07-06T08:39:13.062Z</time>
      </trkpt>
      <trkpt lat="45.95645" lon="4.75833">
        <ele>191.899993896</ele>
        <time>2015-07-06T08:39:14.014Z</time>
      </trkpt>
      <trkpt lat="45.95647" lon="4.75841">
        <ele>191.899993896</ele>
        <time>2015-07-06T08:39:15.03Z</time>
      </trkpt>
      <trkpt lat="45.95649" lon="4.75849">
        <ele>191.5</ele>
        <time>2015-07-06T08:39:16.008Z</time>
      </trkpt>
      <trkpt lat="45.95652" lon="4.75857">
        <ele>191.300003052</ele>
        <time>2015-07-06T08:39:17.007Z</time>
      </trkpt>
      <trkpt lat="45.95654" lon="4.75865">
        <ele>192.100006104</ele>
        <time>2015-07-06T08:39:18.013Z</time>
      </trkpt>
      <trkpt lat="45.95656" lon="4.75873">
        <ele>192.199996948</ele>
        <time>2015-07-06T08:39:19.008Z</time>
      </trkpt>
      <trkpt lat="45.95659" lon="4.75881">
        <ele>192.100006104</ele>
        <time>2015-07-06T08:39:20.009Z</time>
      </trkpt>
      <trkpt lat="45.95661" lon="4.75889">
        <ele>192</ele>
        <time>2015-07-06T08:39:21.025Z</time>
      </trkpt>
      <trkpt lat="45.95664" lon="4.75897">
        <ele>192</ele>
        <time>2015-07-06T08:39:22.029Z</time>
      </trkpt>
      <trkpt lat="45.95667" lon="4.75904">
        <ele>192.100006104</ele>
        <time>2015-07-06T08:39:23.007Z</time>
      </trkpt>
      <trkpt lat="45.9567" lon="4.75912">
        <ele>192.199996948</ele>
        <time>2015-07-06T08:39:24.011Z</time>
      </trkpt>
      <trkpt lat="45.95673" lon="4.75919">
        <ele>192.399993896</ele>
        <time>2015-07-06T08:39:25.031Z</time>
      </trkpt>
      <trkpt lat="45.95676" lon="4.75926">
        <ele>192.399993896</ele>
        <time>2015-07-06T08:39:26.01Z</time>
      </trkpt>
      <trkpt lat="45.95679" lon="4.75933">
        <ele>192.5</ele>
        <time>2015-07-06T08:39:27.016Z</time>
      </trkpt>
      <trkpt lat="45.95682" lon="4.75939">
        <ele>192.199996948</ele>
        <time>2015-07-06T08:39:28.013Z</time>
      </trkpt>
      <trkpt lat="45.95685" lon="4.75947">
        <ele>191.899993896</ele>
        <time>2015-07-06T08:39:29.008Z</time>
      </trkpt>
      <trkpt lat="45.95687" lon="4.75953">
        <ele>191.5</ele>
        <time>2015-07-06T08:39:30.014Z</time>
      </trkpt>
      <trkpt lat="45.95691" lon="4.7596">
        <ele>191</ele>
        <time>2015-07-06T08:39:31.057Z</time>
      </trkpt>
      <trkpt lat="45.95694" lon="4.75966">
        <ele>190.899993896</ele>
        <time>2015-07-06T08:39:32.013Z</time>
      </trkpt>
      <trkpt lat="45.95697" lon="4.75973">
        <ele>190.899993896</ele>
        <time>2015-07-06T08:39:33.008Z</time>
      </trkpt>
      <trkpt lat="45.95701" lon="4.7598">
        <ele>190.800003052</ele>
        <time>2015-07-06T08:39:34.012Z</time>
      </trkpt>
      <trkpt lat="45.95703" lon="4.75987">
        <ele>190.899993896</ele>
        <time>2015-07-06T08:39:35.032Z</time>
      </trkpt>
      <trkpt lat="45.95706" lon="4.75993">
        <ele>190.800003052</ele>
        <time>2015-07-06T08:39:36.013Z</time>
      </trkpt>
      <trkpt lat="45.95709" lon="4.76">
        <ele>190.600006104</ele>
        <time>2015-07-06T08:39:37.008Z</time>
      </trkpt>
      <trkpt lat="45.95712" lon="4.76007">
        <ele>190.399993896</ele>
        <time>2015-07-06T08:39:38.026Z</time>
      </trkpt>
      <trkpt lat="45.95715" lon="4.76013">
        <ele>190.399993896</ele>
        <time>2015-07-06T08:39:39.007Z</time>
      </trkpt>
      <trkpt lat="45.95718" lon="4.76019">
        <ele>190.5</ele>
        <time>2015-07-06T08:39:40.009Z</time>
      </trkpt>
      <trkpt lat="45.95721" lon="4.76025">
        <ele>190.699996948</ele>
        <time>2015-07-06T08:39:41.007Z</time>
      </trkpt>
      <trkpt lat="45.95724" lon="4.76031">
        <ele>190.800003052</ele>
        <time>2015-07-06T08:39:42.011Z</time>
      </trkpt>
      <trkpt lat="45.95727" lon="4.76037">
        <ele>191.100006104</ele>
        <time>2015-07-06T08:39:43.007Z</time>
      </trkpt>
      <trkpt lat="45.9573" lon="4.76043">
        <ele>191.300003052</ele>
        <time>2015-07-06T08:39:44.008Z</time>
      </trkpt>
      <trkpt lat="45.95733" lon="4.76049">
        <ele>191.5</ele>
        <time>2015-07-06T08:39:45.033Z</time>
      </trkpt>
      <trkpt lat="45.95735" lon="4.76056">
        <ele>191.5</ele>
        <time>2015-07-06T08:39:46.009Z</time>
      </trkpt>
      <trkpt lat="45.95738" lon="4.76063">
        <ele>191.600006104</ele>
        <time>2015-07-06T08:39:47.008Z</time>
      </trkpt>
      <trkpt lat="45.95741" lon="4.76069">
        <ele>191.800003052</ele>
        <time>2015-07-06T08:39:48.011Z</time>
      </trkpt>
      <trkpt lat="45.95743" lon="4.76076">
        <ele>191.699996948</ele>
        <time>2015-07-06T08:39:49.006Z</time>
      </trkpt>
      <trkpt lat="45.95745" lon="4.76088">
        <ele>191.899993896</ele>
        <time>2015-07-06T08:39:51.032Z</time>
      </trkpt>
      <trkpt lat="45.95747" lon="4.76094">
        <ele>191.800003052</ele>
        <time>2015-07-06T08:39:52.012Z</time>
      </trkpt>
      <trkpt lat="45.95749" lon="4.761">
        <ele>191.699996948</ele>
        <time>2015-07-06T08:39:53.01Z</time>
      </trkpt>
      <trkpt lat="45.9575" lon="4.76106">
        <ele>191.5</ele>
        <time>2015-07-06T08:39:54.033Z</time>
      </trkpt>
      <trkpt lat="45.95752" lon="4.76113">
        <ele>191.399993896</ele>
        <time>2015-07-06T08:39:55.038Z</time>
      </trkpt>
      <trkpt lat="45.95753" lon="4.7612">
        <ele>191.300003052</ele>
        <time>2015-07-06T08:39:56.011Z</time>
      </trkpt>
      <trkpt lat="45.95755" lon="4.76128">
        <ele>191.199996948</ele>
        <time>2015-07-06T08:39:57.008Z</time>
      </trkpt>
      <trkpt lat="45.95757" lon="4.76136">
        <ele>191.5</ele>
        <time>2015-07-06T08:39:58.012Z</time>
      </trkpt>
      <trkpt lat="45.95758" lon="4.76144">
        <ele>191.300003052</ele>
        <time>2015-07-06T08:39:59.012Z</time>
      </trkpt>
      <trkpt lat="45.95759" lon="4.76152">
        <ele>191.399993896</ele>
        <time>2015-07-06T08:40:00.024Z</time>
      </trkpt>
      <trkpt lat="45.95759" lon="4.7616">
        <ele>191.399993896</ele>
        <time>2015-07-06T08:40:01.008Z</time>
      </trkpt>
      <trkpt lat="45.95759" lon="4.76168">
        <ele>192</ele>
        <time>2015-07-06T08:40:02.008Z</time>
      </trkpt>
      <trkpt lat="45.9576" lon="4.76176">
        <ele>192.199996948</ele>
        <time>2015-07-06T08:40:03.008Z</time>
      </trkpt>
      <trkpt lat="45.9576" lon="4.76184">
        <ele>192.300003052</ele>
        <time>2015-07-06T08:40:04.012Z</time>
      </trkpt>
      <trkpt lat="45.9576" lon="4.76192">
        <ele>192.600006104</ele>
        <time>2015-07-06T08:40:05.036Z</time>
      </trkpt>
      <trkpt lat="45.9576" lon="4.76198">
        <ele>193.100006104</ele>
        <time>2015-07-06T08:40:06.013Z</time>
      </trkpt>
      <trkpt lat="45.9576" lon="4.76205">
        <ele>193.399993896</ele>
        <time>2015-07-06T08:40:07.01Z</time>
      </trkpt>
      <trkpt lat="45.95761" lon="4.76213">
        <ele>193.5</ele>
        <time>2015-07-06T08:40:08.009Z</time>
      </trkpt>
      <trkpt lat="45.95762" lon="4.76221">
        <ele>193.800003052</ele>
        <time>2015-07-06T08:40:09.012Z</time>
      </trkpt>
      <trkpt lat="45.95763" lon="4.76229">
        <ele>194</ele>
        <time>2015-07-06T08:40:10.008Z</time>
      </trkpt>
      <trkpt lat="45.95763" lon="4.76236">
        <ele>194.5</ele>
        <time>2015-07-06T08:40:11.008Z</time>
      </trkpt>
      <trkpt lat="45.95764" lon="4.76244">
        <ele>194.5</ele>
        <time>2015-07-06T08:40:12.011Z</time>
      </trkpt>
      <trkpt lat="45.95765" lon="4.76251">
        <ele>194.399993896</ele>
        <time>2015-07-06T08:40:13.008Z</time>
      </trkpt>
      <trkpt lat="45.95765" lon="4.76259">
        <ele>194.5</ele>
        <time>2015-07-06T08:40:14.009Z</time>
      </trkpt>
      <trkpt lat="45.95765" lon="4.76267">
        <ele>194.5</ele>
        <time>2015-07-06T08:40:15.053Z</time>
      </trkpt>
      <trkpt lat="45.95766" lon="4.76275">
        <ele>194.300003052</ele>
        <time>2015-07-06T08:40:16.007Z</time>
      </trkpt>
      <trkpt lat="45.95767" lon="4.76283">
        <ele>194.300003052</ele>
        <time>2015-07-06T08:40:17.007Z</time>
      </trkpt>
      <trkpt lat="45.95767" lon="4.76291">
        <ele>194.199996948</ele>
        <time>2015-07-06T08:40:18.062Z</time>
      </trkpt>
      <trkpt lat="45.95767" lon="4.76298">
        <ele>194</ele>
        <time>2015-07-06T08:40:19.007Z</time>
      </trkpt>
      <trkpt lat="45.95769" lon="4.76307">
        <ele>193.899993896</ele>
        <time>2015-07-06T08:40:20.015Z</time>
      </trkpt>
      <trkpt lat="45.95769" lon="4.76314">
        <ele>193.899993896</ele>
        <time>2015-07-06T08:40:21.026Z</time>
      </trkpt>
      <trkpt lat="45.95769" lon="4.76321">
        <ele>194.300003052</ele>
        <time>2015-07-06T08:40:22.012Z</time>
      </trkpt>
      <trkpt lat="45.9577" lon="4.76329">
        <ele>194.399993896</ele>
        <time>2015-07-06T08:40:23.01Z</time>
      </trkpt>
      <trkpt lat="45.95771" lon="4.76336">
        <ele>194.199996948</ele>
        <time>2015-07-06T08:40:24.011Z</time>
      </trkpt>
      <trkpt lat="45.95771" lon="4.76344">
        <ele>194</ele>
        <time>2015-07-06T08:40:25.039Z</time>
      </trkpt>
      <trkpt lat="45.95772" lon="4.76351">
        <ele>194</ele>
        <time>2015-07-06T08:40:26.009Z</time>
      </trkpt>
      <trkpt lat="45.95772" lon="4.76358">
        <ele>194</ele>
        <time>2015-07-06T08:40:27.007Z</time>
      </trkpt>
      <trkpt lat="45.95772" lon="4.76366">
        <ele>193.800003052</ele>
        <time>2015-07-06T08:40:28.009Z</time>
      </trkpt>
      <trkpt lat="45.95773" lon="4.76373">
        <ele>193.699996948</ele>
        <time>2015-07-06T08:40:29.008Z</time>
      </trkpt>
      <trkpt lat="45.95774" lon="4.76381">
        <ele>193.600006104</ele>
        <time>2015-07-06T08:40:30.011Z</time>
      </trkpt>
      <trkpt lat="45.95774" lon="4.76388">
        <ele>193.699996948</ele>
        <time>2015-07-06T08:40:31.024Z</time>
      </trkpt>
      <trkpt lat="45.95775" lon="4.76395">
        <ele>193.699996948</ele>
        <time>2015-07-06T08:40:32.011Z</time>
      </trkpt>
      <trkpt lat="45.95776" lon="4.76403">
        <ele>193.800003052</ele>
        <time>2015-07-06T08:40:33.008Z</time>
      </trkpt>
      <trkpt lat="45.95777" lon="4.7641">
        <ele>193.800003052</ele>
        <time>2015-07-06T08:40:34.007Z</time>
      </trkpt>
      <trkpt lat="45.95778" lon="4.76417">
        <ele>194.399993896</ele>
        <time>2015-07-06T08:40:35.041Z</time>
      </trkpt>
      <trkpt lat="45.95778" lon="4.76424">
        <ele>194.5</ele>
        <time>2015-07-06T08:40:36.012Z</time>
      </trkpt>
      <trkpt lat="45.95779" lon="4.76432">
        <ele>194.899993896</ele>
        <time>2015-07-06T08:40:37.008Z</time>
      </trkpt>
      <trkpt lat="45.9578" lon="4.7644">
        <ele>195</ele>
        <time>2015-07-06T08:40:38.008Z</time>
      </trkpt>
      <trkpt lat="45.95782" lon="4.76447">
        <ele>195.100006104</ele>
        <time>2015-07-06T08:40:39.012Z</time>
      </trkpt>
      <trkpt lat="45.95783" lon="4.76455">
        <ele>195</ele>
        <time>2015-07-06T08:40:40.008Z</time>
      </trkpt>
      <trkpt lat="45.95784" lon="4.76462">
        <ele>195.100006104</ele>
        <time>2015-07-06T08:40:41.009Z</time>
      </trkpt>
      <trkpt lat="45.95785" lon="4.7647">
        <ele>195.199996948</ele>
        <time>2015-07-06T08:40:42.011Z</time>
      </trkpt>
      <trkpt lat="45.95786" lon="4.76478">
        <ele>195</ele>
        <time>2015-07-06T08:40:43.01Z</time>
      </trkpt>
      <trkpt lat="45.95787" lon="4.76486">
        <ele>195</ele>
        <time>2015-07-06T08:40:44.009Z</time>
      </trkpt>
      <trkpt lat="45.95788" lon="4.76493">
        <ele>194.899993896</ele>
        <time>2015-07-06T08:40:45.064Z</time>
      </trkpt>
      <trkpt lat="45.95789" lon="4.76501">
        <ele>195.199996948</ele>
        <time>2015-07-06T08:40:46.013Z</time>
      </trkpt>
      <trkpt lat="45.95789" lon="4.76509">
        <ele>195</ele>
        <time>2015-07-06T08:40:47.027Z</time>
      </trkpt>
      <trkpt lat="45.9579" lon="4.76517">
        <ele>195.100006104</ele>
        <time>2015-07-06T08:40:48.011Z</time>
      </trkpt>
      <trkpt lat="45.95792" lon="4.76525">
        <ele>195.100006104</ele>
        <time>2015-07-06T08:40:49.008Z</time>
      </trkpt>
      <trkpt lat="45.95793" lon="4.76533">
        <ele>195.100006104</ele>
        <time>2015-07-06T08:40:50.008Z</time>
      </trkpt>
      <trkpt lat="45.95793" lon="4.76541">
        <ele>194.800003052</ele>
        <time>2015-07-06T08:40:51.008Z</time>
      </trkpt>
      <trkpt lat="45.95794" lon="4.76549">
        <ele>194.600006104</ele>
        <time>2015-07-06T08:40:52.01Z</time>
      </trkpt>
      <trkpt lat="45.95795" lon="4.76556">
        <ele>194.399993896</ele>
        <time>2015-07-06T08:40:53.008Z</time>
      </trkpt>
      <trkpt lat="45.95796" lon="4.76564">
        <ele>194.300003052</ele>
        <time>2015-07-06T08:40:54.011Z</time>
      </trkpt>
      <trkpt lat="45.95798" lon="4.76572">
        <ele>194.300003052</ele>
        <time>2015-07-06T08:40:55.044Z</time>
      </trkpt>
      <trkpt lat="45.95799" lon="4.7658">
        <ele>193.800003052</ele>
        <time>2015-07-06T08:40:56.009Z</time>
      </trkpt>
      <trkpt lat="45.958" lon="4.76587">
        <ele>193.600006104</ele>
        <time>2015-07-06T08:40:57.01Z</time>
      </trkpt>
      <trkpt lat="45.95801" lon="4.76595">
        <ele>193.399993896</ele>
        <time>2015-07-06T08:40:58.012Z</time>
      </trkpt>
      <trkpt lat="45.95803" lon="4.76603">
        <ele>193.300003052</ele>
        <time>2015-07-06T08:40:59.007Z</time>
      </trkpt>
      <trkpt lat="45.95804" lon="4.7661">
        <ele>193.300003052</ele>
        <time>2015-07-06T08:41:00.023Z</time>
      </trkpt>
      <trkpt lat="45.95805" lon="4.76617">
        <ele>193.100006104</ele>
        <time>2015-07-06T08:41:01.01Z</time>
      </trkpt>
      <trkpt lat="45.95806" lon="4.76624">
        <ele>193.100006104</ele>
        <time>2015-07-06T08:41:02.009Z</time>
      </trkpt>
      <trkpt lat="45.95806" lon="4.76632">
        <ele>193.300003052</ele>
        <time>2015-07-06T08:41:03.024Z</time>
      </trkpt>
      <trkpt lat="45.95807" lon="4.7664">
        <ele>193.300003052</ele>
        <time>2015-07-06T08:41:04.007Z</time>
      </trkpt>
      <trkpt lat="45.95809" lon="4.76648">
        <ele>193.600006104</ele>
        <time>2015-07-06T08:41:05.094Z</time>
      </trkpt>
      <trkpt lat="45.9581" lon="4.76656">
        <ele>193.199996948</ele>
        <time>2015-07-06T08:41:06.013Z</time>
      </trkpt>
      <trkpt lat="45.9581" lon="4.76663">
        <ele>193.199996948</ele>
        <time>2015-07-06T08:41:07.011Z</time>
      </trkpt>
      <trkpt lat="45.95811" lon="4.76671">
        <ele>193</ele>
        <time>2015-07-06T08:41:08.012Z</time>
      </trkpt>
      <trkpt lat="45.95812" lon="4.76678">
        <ele>193</ele>
        <time>2015-07-06T08:41:09.007Z</time>
      </trkpt>
      <trkpt lat="45.95813" lon="4.76686">
        <ele>193</ele>
        <time>2015-07-06T08:41:10.009Z</time>
      </trkpt>
      <trkpt lat="45.95814" lon="4.76693">
        <ele>192.800003052</ele>
        <time>2015-07-06T08:41:11.011Z</time>
      </trkpt>
      <trkpt lat="45.95815" lon="4.767">
        <ele>192.800003052</ele>
        <time>2015-07-06T08:41:12.012Z</time>
      </trkpt>
      <trkpt lat="45.95816" lon="4.76707">
        <ele>193.100006104</ele>
        <time>2015-07-06T08:41:13.01Z</time>
      </trkpt>
      <trkpt lat="45.95818" lon="4.76715">
        <ele>193.199996948</ele>
        <time>2015-07-06T08:41:14.008Z</time>
      </trkpt>
      <trkpt lat="45.95819" lon="4.76722">
        <ele>193.300003052</ele>
        <time>2015-07-06T08:41:15.036Z</time>
      </trkpt>
      <trkpt lat="45.9582" lon="4.7673">
        <ele>193.199996948</ele>
        <time>2015-07-06T08:41:16.007Z</time>
      </trkpt>
      <trkpt lat="45.95821" lon="4.76737">
        <ele>193</ele>
        <time>2015-07-06T08:41:17.007Z</time>
      </trkpt>
      <trkpt lat="45.95822" lon="4.76744">
        <ele>193.300003052</ele>
        <time>2015-07-06T08:41:18.011Z</time>
      </trkpt>
      <trkpt lat="45.95823" lon="4.76752">
        <ele>193.199996948</ele>
        <time>2015-07-06T08:41:19.026Z</time>
      </trkpt>
      <trkpt lat="45.95825" lon="4.76759">
        <ele>193.100006104</ele>
        <time>2015-07-06T08:41:20.009Z</time>
      </trkpt>
      <trkpt lat="45.95826" lon="4.76766">
        <ele>192.800003052</ele>
        <time>2015-07-06T08:41:21.025Z</time>
      </trkpt>
      <trkpt lat="45.95826" lon="4.76773">
        <ele>192.800003052</ele>
        <time>2015-07-06T08:41:22.062Z</time>
      </trkpt>
      <trkpt lat="45.95827" lon="4.7678">
        <ele>192.800003052</ele>
        <time>2015-07-06T08:41:23.012Z</time>
      </trkpt>
      <trkpt lat="45.95828" lon="4.76787">
        <ele>192.399993896</ele>
        <time>2015-07-06T08:41:24.011Z</time>
      </trkpt>
      <trkpt lat="45.95829" lon="4.76795">
        <ele>192.600006104</ele>
        <time>2015-07-06T08:41:25.038Z</time>
      </trkpt>
      <trkpt lat="45.95829" lon="4.76803">
        <ele>192.399993896</ele>
        <time>2015-07-06T08:41:26.014Z</time>
      </trkpt>
      <trkpt lat="45.95829" lon="4.7681">
        <ele>192.199996948</ele>
        <time>2015-07-06T08:41:27.012Z</time>
      </trkpt>
      <trkpt lat="45.95829" lon="4.76818">
        <ele>192.199996948</ele>
        <time>2015-07-06T08:41:28.008Z</time>
      </trkpt>
      <trkpt lat="45.95828" lon="4.76826">
        <ele>192.300003052</ele>
        <time>2015-07-06T08:41:29.01Z</time>
      </trkpt>
      <trkpt lat="45.95827" lon="4.76833">
        <ele>192.300003052</ele>
        <time>2015-07-06T08:41:30.027Z</time>
      </trkpt>
      <trkpt lat="45.95825" lon="4.76841">
        <ele>192.300003052</ele>
        <time>2015-07-06T08:41:31.01Z</time>
      </trkpt>
      <trkpt lat="45.95824" lon="4.76848">
        <ele>192.199996948</ele>
        <time>2015-07-06T08:41:32.008Z</time>
      </trkpt>
      <trkpt lat="45.95822" lon="4.76855">
        <ele>192.300003052</ele>
        <time>2015-07-06T08:41:33.032Z</time>
      </trkpt>
      <trkpt lat="45.95821" lon="4.76862">
        <ele>192.5</ele>
        <time>2015-07-06T08:41:34.01Z</time>
      </trkpt>
      <trkpt lat="45.95819" lon="4.76869">
        <ele>192.899993896</ele>
        <time>2015-07-06T08:41:35.033Z</time>
      </trkpt>
      <trkpt lat="45.95819" lon="4.76877">
        <ele>192.899993896</ele>
        <time>2015-07-06T08:41:36.012Z</time>
      </trkpt>
      <trkpt lat="45.95818" lon="4.76884">
        <ele>193.199996948</ele>
        <time>2015-07-06T08:41:37.008Z</time>
      </trkpt>
      <trkpt lat="45.95816" lon="4.76892">
        <ele>193.899993896</ele>
        <time>2015-07-06T08:41:38.012Z</time>
      </trkpt>
      <trkpt lat="45.95815" lon="4.769">
        <ele>193.899993896</ele>
        <time>2015-07-06T08:41:39.034Z</time>
      </trkpt>
      <trkpt lat="45.95814" lon="4.76908">
        <ele>194</ele>
        <time>2015-07-06T08:41:40.008Z</time>
      </trkpt>
      <trkpt lat="45.95813" lon="4.76915">
        <ele>194.100006104</ele>
        <time>2015-07-06T08:41:41.01Z</time>
      </trkpt>
      <trkpt lat="45.95812" lon="4.76923">
        <ele>194</ele>
        <time>2015-07-06T08:41:42.011Z</time>
      </trkpt>
      <trkpt lat="45.9581" lon="4.76931">
        <ele>193.800003052</ele>
        <time>2015-07-06T08:41:43.007Z</time>
      </trkpt>
      <trkpt lat="45.95808" lon="4.76939">
        <ele>194</ele>
        <time>2015-07-06T08:41:44.013Z</time>
      </trkpt>
      <trkpt lat="45.95807" lon="4.76947">
        <ele>194.100006104</ele>
        <time>2015-07-06T08:41:45.032Z</time>
      </trkpt>
      <trkpt lat="45.95806" lon="4.76955">
        <ele>194.300003052</ele>
        <time>2015-07-06T08:41:46.01Z</time>
      </trkpt>
      <trkpt lat="45.95804" lon="4.76962">
        <ele>194.5</ele>
        <time>2015-07-06T08:41:47.008Z</time>
      </trkpt>
      <trkpt lat="45.95804" lon="4.76971">
        <ele>194.600006104</ele>
        <time>2015-07-06T08:41:48.011Z</time>
      </trkpt>
      <trkpt lat="45.95803" lon="4.76979">
        <ele>194.300003052</ele>
        <time>2015-07-06T08:41:49.008Z</time>
      </trkpt>
      <trkpt lat="45.95803" lon="4.76987">
        <ele>194.699996948</ele>
        <time>2015-07-06T08:41:50.013Z</time>
      </trkpt>
      <trkpt lat="45.95802" lon="4.76995">
        <ele>194.699996948</ele>
        <time>2015-07-06T08:41:51.025Z</time>
      </trkpt>
      <trkpt lat="45.95802" lon="4.77003">
        <ele>195</ele>
        <time>2015-07-06T08:41:52.012Z</time>
      </trkpt>
      <trkpt lat="45.95803" lon="4.77011">
        <ele>195.199996948</ele>
        <time>2015-07-06T08:41:53.008Z</time>
      </trkpt>
      <trkpt lat="45.95805" lon="4.77019">
        <ele>195</ele>
        <time>2015-07-06T08:41:54.01Z</time>
      </trkpt>
      <trkpt lat="45.95807" lon="4.77027">
        <ele>195</ele>
        <time>2015-07-06T08:41:55.093Z</time>
      </trkpt>
      <trkpt lat="45.9581" lon="4.77035">
        <ele>194.699996948</ele>
        <time>2015-07-06T08:41:56.009Z</time>
      </trkpt>
      <trkpt lat="45.95814" lon="4.77042">
        <ele>194.600006104</ele>
        <time>2015-07-06T08:41:57.008Z</time>
      </trkpt>
      <trkpt lat="45.95817" lon="4.77048">
        <ele>194.5</ele>
        <time>2015-07-06T08:41:58.012Z</time>
      </trkpt>
      <trkpt lat="45.9582" lon="4.77055">
        <ele>194.100006104</ele>
        <time>2015-07-06T08:41:59.01Z</time>
      </trkpt>
      <trkpt lat="45.95822" lon="4.77061">
        <ele>194.100006104</ele>
        <time>2015-07-06T08:42:00.024Z</time>
      </trkpt>
      <trkpt lat="45.95825" lon="4.77068">
        <ele>193.800003052</ele>
        <time>2015-07-06T08:42:01.013Z</time>
      </trkpt>
      <trkpt lat="45.95828" lon="4.77075">
        <ele>194.100006104</ele>
        <time>2015-07-06T08:42:02.013Z</time>
      </trkpt>
      <trkpt lat="45.9583" lon="4.77083">
        <ele>194</ele>
        <time>2015-07-06T08:42:03.051Z</time>
      </trkpt>
      <trkpt lat="45.95832" lon="4.77089">
        <ele>194</ele>
        <time>2015-07-06T08:42:04.048Z</time>
      </trkpt>
      <trkpt lat="45.95835" lon="4.77097">
        <ele>193.899993896</ele>
        <time>2015-07-06T08:42:05.029Z</time>
      </trkpt>
      <trkpt lat="45.95837" lon="4.77104">
        <ele>193.899993896</ele>
        <time>2015-07-06T08:42:06.013Z</time>
      </trkpt>
      <trkpt lat="45.95839" lon="4.77111">
        <ele>193.800003052</ele>
        <time>2015-07-06T08:42:07.028Z</time>
      </trkpt>
      <trkpt lat="45.95842" lon="4.77116">
        <ele>194.199996948</ele>
        <time>2015-07-06T08:42:08.009Z</time>
      </trkpt>
      <trkpt lat="45.95845" lon="4.77123">
        <ele>194.800003052</ele>
        <time>2015-07-06T08:42:09.008Z</time>
      </trkpt>
      <trkpt lat="45.95847" lon="4.7713">
        <ele>194.899993896</ele>
        <time>2015-07-06T08:42:10.011Z</time>
      </trkpt>
      <trkpt lat="45.95849" lon="4.77136">
        <ele>194.899993896</ele>
        <time>2015-07-06T08:42:11.012Z</time>
      </trkpt>
      <trkpt lat="45.9585" lon="4.77143">
        <ele>195</ele>
        <time>2015-07-06T08:42:12.011Z</time>
      </trkpt>
      <trkpt lat="45.95852" lon="4.77149">
        <ele>194.5</ele>
        <time>2015-07-06T08:42:13.012Z</time>
      </trkpt>
      <trkpt lat="45.95854" lon="4.77156">
        <ele>194.600006104</ele>
        <time>2015-07-06T08:42:14.009Z</time>
      </trkpt>
      <trkpt lat="45.95855" lon="4.77162">
        <ele>194.600006104</ele>
        <time>2015-07-06T08:42:15.021Z</time>
      </trkpt>
      <trkpt lat="45.95856" lon="4.77169">
        <ele>194.399993896</ele>
        <time>2015-07-06T08:42:16.07Z</time>
      </trkpt>
      <trkpt lat="45.95858" lon="4.77176">
        <ele>194.300003052</ele>
        <time>2015-07-06T08:42:17.008Z</time>
      </trkpt>
      <trkpt lat="45.9586" lon="4.77183">
        <ele>194.5</ele>
        <time>2015-07-06T08:42:18.013Z</time>
      </trkpt>
      <trkpt lat="45.95862" lon="4.7719">
        <ele>194.600006104</ele>
        <time>2015-07-06T08:42:19.008Z</time>
      </trkpt>
      <trkpt lat="45.95864" lon="4.77197">
        <ele>194.699996948</ele>
        <time>2015-07-06T08:42:20.009Z</time>
      </trkpt>
      <trkpt lat="45.95866" lon="4.77204">
        <ele>194.699996948</ele>
        <time>2015-07-06T08:42:21.041Z</time>
      </trkpt>
      <trkpt lat="45.95867" lon="4.77211">
        <ele>194.600006104</ele>
        <time>2015-07-06T08:42:22.012Z</time>
      </trkpt>
      <trkpt lat="45.95868" lon="4.77217">
        <ele>194.5</ele>
        <time>2015-07-06T08:42:23.008Z</time>
      </trkpt>
      <trkpt lat="45.9587" lon="4.77224">
        <ele>194.399993896</ele>
        <time>2015-07-06T08:42:24.013Z</time>
      </trkpt>
      <trkpt lat="45.95872" lon="4.77231">
        <ele>194.600006104</ele>
        <time>2015-07-06T08:42:25.019Z</time>
      </trkpt>
      <trkpt lat="45.95873" lon="4.77238">
        <ele>194.600006104</ele>
        <time>2015-07-06T08:42:26.011Z</time>
      </trkpt>
      <trkpt lat="45.95874" lon="4.77245">
        <ele>194.800003052</ele>
        <time>2015-07-06T08:42:27.008Z</time>
      </trkpt>
      <trkpt lat="45.95876" lon="4.77253">
        <ele>194.800003052</ele>
        <time>2015-07-06T08:42:28.024Z</time>
      </trkpt>
      <trkpt lat="45.95878" lon="4.7726">
        <ele>194.600006104</ele>
        <time>2015-07-06T08:42:29.008Z</time>
      </trkpt>
      <trkpt lat="45.95879" lon="4.77266">
        <ele>194.600006104</ele>
        <time>2015-07-06T08:42:30.014Z</time>
      </trkpt>
      <trkpt lat="45.95881" lon="4.77272">
        <ele>194.699996948</ele>
        <time>2015-07-06T08:42:31.008Z</time>
      </trkpt>
      <trkpt lat="45.95882" lon="4.77279">
        <ele>194.600006104</ele>
        <time>2015-07-06T08:42:32.007Z</time>
      </trkpt>
      <trkpt lat="45.95883" lon="4.77285">
        <ele>194.699996948</ele>
        <time>2015-07-06T08:42:33.033Z</time>
      </trkpt>
      <trkpt lat="45.95883" lon="4.77292">
        <ele>194.899993896</ele>
        <time>2015-07-06T08:42:34.008Z</time>
      </trkpt>
      <trkpt lat="45.95885" lon="4.77304">
        <ele>195.5</ele>
        <time>2015-07-06T08:42:36.013Z</time>
      </trkpt>
      <trkpt lat="45.95886" lon="4.7731">
        <ele>195.600006104</ele>
        <time>2015-07-06T08:42:37.012Z</time>
      </trkpt>
      <trkpt lat="45.95889" lon="4.77322">
        <ele>195.199996948</ele>
        <time>2015-07-06T08:42:39.012Z</time>
      </trkpt>
      <trkpt lat="45.95891" lon="4.77328">
        <ele>195.100006104</ele>
        <time>2015-07-06T08:42:40.008Z</time>
      </trkpt>
      <trkpt lat="45.95892" lon="4.77335">
        <ele>195.300003052</ele>
        <time>2015-07-06T08:42:41.01Z</time>
      </trkpt>
      <trkpt lat="45.95894" lon="4.77341">
        <ele>195.300003052</ele>
        <time>2015-07-06T08:42:42.013Z</time>
      </trkpt>
      <trkpt lat="45.95897" lon="4.77348">
        <ele>195.300003052</ele>
        <time>2015-07-06T08:42:43.008Z</time>
      </trkpt>
      <trkpt lat="45.95899" lon="4.77354">
        <ele>195.399993896</ele>
        <time>2015-07-06T08:42:44.024Z</time>
      </trkpt>
      <trkpt lat="45.95901" lon="4.7736">
        <ele>195.399993896</ele>
        <time>2015-07-06T08:42:45.019Z</time>
      </trkpt>
      <trkpt lat="45.95903" lon="4.77367">
        <ele>195.300003052</ele>
        <time>2015-07-06T08:42:46.008Z</time>
      </trkpt>
      <trkpt lat="45.95906" lon="4.77373">
        <ele>195.300003052</ele>
        <time>2015-07-06T08:42:47.011Z</time>
      </trkpt>
      <trkpt lat="45.95908" lon="4.77379">
        <ele>195.600006104</ele>
        <time>2015-07-06T08:42:48.012Z</time>
      </trkpt>
      <trkpt lat="45.9591" lon="4.77385">
        <ele>195.899993896</ele>
        <time>2015-07-06T08:42:49.008Z</time>
      </trkpt>
      <trkpt lat="45.95912" lon="4.77392">
        <ele>195.800003052</ele>
        <time>2015-07-06T08:42:50.008Z</time>
      </trkpt>
      <trkpt lat="45.95914" lon="4.77398">
        <ele>196</ele>
        <time>2015-07-06T08:42:51.012Z</time>
      </trkpt>
      <trkpt lat="45.95915" lon="4.77406">
        <ele>195.899993896</ele>
        <time>2015-07-06T08:42:52.008Z</time>
      </trkpt>
      <trkpt lat="45.95917" lon="4.77412">
        <ele>196</ele>
        <time>2015-07-06T08:42:53.012Z</time>
      </trkpt>
      <trkpt lat="45.95918" lon="4.77419">
        <ele>196.100006104</ele>
        <time>2015-07-06T08:42:54.013Z</time>
      </trkpt>
      <trkpt lat="45.95921" lon="4.77425">
        <ele>196.5</ele>
        <time>2015-07-06T08:42:55.045Z</time>
      </trkpt>
      <trkpt lat="45.95924" lon="4.77432">
        <ele>196.600006104</ele>
        <time>2015-07-06T08:42:56.01Z</time>
      </trkpt>
      <trkpt lat="45.95927" lon="4.77438">
        <ele>196.899993896</ele>
        <time>2015-07-06T08:42:57.01Z</time>
      </trkpt>
      <trkpt lat="45.95929" lon="4.77445">
        <ele>197.300003052</ele>
        <time>2015-07-06T08:42:58.009Z</time>
      </trkpt>
      <trkpt lat="45.95931" lon="4.77451">
        <ele>197.800003052</ele>
        <time>2015-07-06T08:42:59.007Z</time>
      </trkpt>
      <trkpt lat="45.95934" lon="4.77458">
        <ele>198.100006104</ele>
        <time>2015-07-06T08:43:00.024Z</time>
      </trkpt>
      <trkpt lat="45.95936" lon="4.77464">
        <ele>198.399993896</ele>
        <time>2015-07-06T08:43:01.01Z</time>
      </trkpt>
      <trkpt lat="45.95938" lon="4.7747">
        <ele>198.5</ele>
        <time>2015-07-06T08:43:02.009Z</time>
      </trkpt>
      <trkpt lat="45.9594" lon="4.77476">
        <ele>198.600006104</ele>
        <time>2015-07-06T08:43:03.046Z</time>
      </trkpt>
      <trkpt lat="45.95943" lon="4.77483">
        <ele>198.899993896</ele>
        <time>2015-07-06T08:43:04.01Z</time>
      </trkpt>
      <trkpt lat="45.95946" lon="4.77488">
        <ele>199</ele>
        <time>2015-07-06T08:43:05.008Z</time>
      </trkpt>
      <trkpt lat="45.95948" lon="4.77494">
        <ele>199.199996948</ele>
        <time>2015-07-06T08:43:06.01Z</time>
      </trkpt>
      <trkpt lat="45.95951" lon="4.775">
        <ele>199.199996948</ele>
        <time>2015-07-06T08:43:07.008Z</time>
      </trkpt>
      <trkpt lat="45.95953" lon="4.77505">
        <ele>199.399993896</ele>
        <time>2015-07-06T08:43:08.012Z</time>
      </trkpt>
      <trkpt lat="45.95957" lon="4.77514">
        <ele>199.399993896</ele>
        <time>2015-07-06T08:43:10.01Z</time>
      </trkpt>
      <trkpt lat="45.9596" lon="4.7752">
        <ele>199.399993896</ele>
        <time>2015-07-06T08:43:11.024Z</time>
      </trkpt>
      <trkpt lat="45.95964" lon="4.7753">
        <ele>199.899993896</ele>
        <time>2015-07-06T08:43:13.008Z</time>
      </trkpt>
      <trkpt lat="45.95967" lon="4.77536">
        <ele>199.899993896</ele>
        <time>2015-07-06T08:43:14.009Z</time>
      </trkpt>
      <trkpt lat="45.95971" lon="4.77545">
        <ele>200</ele>
        <time>2015-07-06T08:43:16.028Z</time>
      </trkpt>
      <trkpt lat="45.95973" lon="4.7755">
        <ele>200.199996948</ele>
        <time>2015-07-06T08:43:17.007Z</time>
      </trkpt>
      <trkpt lat="45.95978" lon="4.77559">
        <ele>200.5</ele>
        <time>2015-07-06T08:43:19.011Z</time>
      </trkpt>
      <trkpt lat="45.95981" lon="4.77565">
        <ele>200.600006104</ele>
        <time>2015-07-06T08:43:20.012Z</time>
      </trkpt>
      <trkpt lat="45.95984" lon="4.7757">
        <ele>200.699996948</ele>
        <time>2015-07-06T08:43:21.025Z</time>
      </trkpt>
      <trkpt lat="45.95987" lon="4.77577">
        <ele>200.800003052</ele>
        <time>2015-07-06T08:43:22.016Z</time>
      </trkpt>
      <trkpt lat="45.95987" lon="4.7759">
        <ele>201.800003052</ele>
        <time>2015-07-06T08:43:25.301Z</time>
      </trkpt>
      <trkpt lat="45.95992" lon="4.77595">
        <ele>201.800003052</ele>
        <time>2015-07-06T08:43:26.099Z</time>
      </trkpt>
      <trkpt lat="45.95998" lon="4.77599">
        <ele>202</ele>
        <time>2015-07-06T08:43:27.152Z</time>
      </trkpt>
      <trkpt lat="45.96002" lon="4.776">
        <ele>202.399993896</ele>
        <time>2015-07-06T08:43:28.019Z</time>
      </trkpt>
      <trkpt lat="45.96005" lon="4.77606">
        <ele>203.199996948</ele>
        <time>2015-07-06T08:43:29.021Z</time>
      </trkpt>
      <trkpt lat="45.96008" lon="4.77611">
        <ele>203.800003052</ele>
        <time>2015-07-06T08:43:30.098Z</time>
      </trkpt>
      <trkpt lat="45.96013" lon="4.77616">
        <ele>204.300003052</ele>
        <time>2015-07-06T08:43:31.053Z</time>
      </trkpt>
      <trkpt lat="45.96018" lon="4.77621">
        <ele>204.699996948</ele>
        <time>2015-07-06T08:43:32.017Z</time>
      </trkpt>
      <trkpt lat="45.96022" lon="4.77625">
        <ele>205.199996948</ele>
        <time>2015-07-06T08:43:33.021Z</time>
      </trkpt>
      <trkpt lat="45.96027" lon="4.7763">
        <ele>205.300003052</ele>
        <time>2015-07-06T08:43:34.021Z</time>
      </trkpt>
      <trkpt lat="45.96032" lon="4.7764">
        <ele>205.600006104</ele>
        <time>2015-07-06T08:43:36.017Z</time>
      </trkpt>
      <trkpt lat="45.96035" lon="4.77644">
        <ele>205.699996948</ele>
        <time>2015-07-06T08:43:37.011Z</time>
      </trkpt>
      <trkpt lat="45.96038" lon="4.77649">
        <ele>205.399993896</ele>
        <time>2015-07-06T08:43:38.322Z</time>
      </trkpt>
      <trkpt lat="45.96045" lon="4.77656">
        <ele>205.300003052</ele>
        <time>2015-07-06T08:43:39.015Z</time>
      </trkpt>
      <trkpt lat="45.96053" lon="4.77664">
        <ele>205.199996948</ele>
        <time>2015-07-06T08:43:40.015Z</time>
      </trkpt>
      <trkpt lat="45.96058" lon="4.77669">
        <ele>205</ele>
        <time>2015-07-06T08:43:41.39Z</time>
      </trkpt>
      <trkpt lat="45.96061" lon="4.77673">
        <ele>204.600006104</ele>
        <time>2015-07-06T08:43:42.13Z</time>
      </trkpt>
      <trkpt lat="45.96066" lon="4.77682">
        <ele>203.899993896</ele>
        <time>2015-07-06T08:43:44.085Z</time>
      </trkpt>
      <trkpt lat="45.96069" lon="4.77686">
        <ele>203.800003052</ele>
        <time>2015-07-06T08:43:45.025Z</time>
      </trkpt>
      <trkpt lat="45.96074" lon="4.77694">
        <ele>203.5</ele>
        <time>2015-07-06T08:43:47.016Z</time>
      </trkpt>
      <trkpt lat="45.96076" lon="4.77699">
        <ele>203.600006104</ele>
        <time>2015-07-06T08:43:48.043Z</time>
      </trkpt>
      <trkpt lat="45.96081" lon="4.77708">
        <ele>203.800003052</ele>
        <time>2015-07-06T08:43:50.013Z</time>
      </trkpt>
      <trkpt lat="45.96084" lon="4.77714">
        <ele>203.699996948</ele>
        <time>2015-07-06T08:43:51.011Z</time>
      </trkpt>
      <trkpt lat="45.96087" lon="4.77719">
        <ele>203.600006104</ele>
        <time>2015-07-06T08:43:52.014Z</time>
      </trkpt>
      <trkpt lat="45.9609" lon="4.77724">
        <ele>203.699996948</ele>
        <time>2015-07-06T08:43:53.009Z</time>
      </trkpt>
      <trkpt lat="45.96093" lon="4.77729">
        <ele>204.300003052</ele>
        <time>2015-07-06T08:43:54.012Z</time>
      </trkpt>
      <trkpt lat="45.96096" lon="4.77734">
        <ele>204.600006104</ele>
        <time>2015-07-06T08:43:55.015Z</time>
      </trkpt>
      <trkpt lat="45.96099" lon="4.77739">
        <ele>204.899993896</ele>
        <time>2015-07-06T08:43:56.012Z</time>
      </trkpt>
      <trkpt lat="45.96102" lon="4.77743">
        <ele>205</ele>
        <time>2015-07-06T08:43:57.012Z</time>
      </trkpt>
      <trkpt lat="45.96106" lon="4.77748">
        <ele>205.5</ele>
        <time>2015-07-06T08:43:58.012Z</time>
      </trkpt>
      <trkpt lat="45.96109" lon="4.77753">
        <ele>205.600006104</ele>
        <time>2015-07-06T08:43:59.03Z</time>
      </trkpt>
      <trkpt lat="45.96114" lon="4.77763">
        <ele>205.5</ele>
        <time>2015-07-06T08:44:01.018Z</time>
      </trkpt>
      <trkpt lat="45.96116" lon="4.77768">
        <ele>206</ele>
        <time>2015-07-06T08:44:02.012Z</time>
      </trkpt>
      <trkpt lat="45.96121" lon="4.77776">
        <ele>206.399993896</ele>
        <time>2015-07-06T08:44:04.012Z</time>
      </trkpt>
      <trkpt lat="45.96124" lon="4.77781">
        <ele>206.399993896</ele>
        <time>2015-07-06T08:44:05.012Z</time>
      </trkpt>
      <trkpt lat="45.96127" lon="4.77786">
        <ele>206.5</ele>
        <time>2015-07-06T08:44:06.014Z</time>
      </trkpt>
      <trkpt lat="45.9613" lon="4.77791">
        <ele>206.600006104</ele>
        <time>2015-07-06T08:44:07.01Z</time>
      </trkpt>
      <trkpt lat="45.96134" lon="4.77796">
        <ele>206.5</ele>
        <time>2015-07-06T08:44:08.012Z</time>
      </trkpt>
      <trkpt lat="45.96137" lon="4.77801">
        <ele>206.800003052</ele>
        <time>2015-07-06T08:44:09.011Z</time>
      </trkpt>
      <trkpt lat="45.96143" lon="4.77811">
        <ele>207.199996948</ele>
        <time>2015-07-06T08:44:11.009Z</time>
      </trkpt>
      <trkpt lat="45.96146" lon="4.77814">
        <ele>207.300003052</ele>
        <time>2015-07-06T08:44:12.056Z</time>
      </trkpt>
      <trkpt lat="45.9615" lon="4.77819">
        <ele>207.5</ele>
        <time>2015-07-06T08:44:13.013Z</time>
      </trkpt>
      <trkpt lat="45.96154" lon="4.77824">
        <ele>207.800003052</ele>
        <time>2015-07-06T08:44:14.013Z</time>
      </trkpt>
      <trkpt lat="45.96157" lon="4.7783">
        <ele>207.899993896</ele>
        <time>2015-07-06T08:44:15.01Z</time>
      </trkpt>
      <trkpt lat="45.9616" lon="4.77837">
        <ele>207.699996948</ele>
        <time>2015-07-06T08:44:16.01Z</time>
      </trkpt>
      <trkpt lat="45.96163" lon="4.77843">
        <ele>207.399993896</ele>
        <time>2015-07-06T08:44:17.011Z</time>
      </trkpt>
      <trkpt lat="45.96167" lon="4.77849">
        <ele>207.300003052</ele>
        <time>2015-07-06T08:44:18.015Z</time>
      </trkpt>
      <trkpt lat="45.9617" lon="4.77855">
        <ele>206.800003052</ele>
        <time>2015-07-06T08:44:19.012Z</time>
      </trkpt>
      <trkpt lat="45.96173" lon="4.77861">
        <ele>207.199996948</ele>
        <time>2015-07-06T08:44:20.027Z</time>
      </trkpt>
      <trkpt lat="45.96177" lon="4.77867">
        <ele>206.899993896</ele>
        <time>2015-07-06T08:44:20.991Z</time>
      </trkpt>
      <trkpt lat="45.96181" lon="4.77873">
        <ele>206.300003052</ele>
        <time>2015-07-06T08:44:22.013Z</time>
      </trkpt>
      <trkpt lat="45.96184" lon="4.77879">
        <ele>206.399993896</ele>
        <time>2015-07-06T08:44:23.008Z</time>
      </trkpt>
      <trkpt lat="45.96187" lon="4.77885">
        <ele>206.5</ele>
        <time>2015-07-06T08:44:24.012Z</time>
      </trkpt>
      <trkpt lat="45.9619" lon="4.7789">
        <ele>206.5</ele>
        <time>2015-07-06T08:44:25.009Z</time>
      </trkpt>
      <trkpt lat="45.96193" lon="4.77895">
        <ele>206.5</ele>
        <time>2015-07-06T08:44:26.011Z</time>
      </trkpt>
      <trkpt lat="45.96196" lon="4.779">
        <ele>206.5</ele>
        <time>2015-07-06T08:44:27.011Z</time>
      </trkpt>
      <trkpt lat="45.96199" lon="4.77905">
        <ele>206.399993896</ele>
        <time>2015-07-06T08:44:28.062Z</time>
      </trkpt>
      <trkpt lat="45.96203" lon="4.77911">
        <ele>206.399993896</ele>
        <time>2015-07-06T08:44:29.01Z</time>
      </trkpt>
      <trkpt lat="45.96206" lon="4.77915">
        <ele>206.699996948</ele>
        <time>2015-07-06T08:44:30.011Z</time>
      </trkpt>
      <trkpt lat="45.9621" lon="4.77921">
        <ele>206.800003052</ele>
        <time>2015-07-06T08:44:31.011Z</time>
      </trkpt>
      <trkpt lat="45.96213" lon="4.77926">
        <ele>206.699996948</ele>
        <time>2015-07-06T08:44:32.012Z</time>
      </trkpt>
      <trkpt lat="45.96217" lon="4.77931">
        <ele>206.800003052</ele>
        <time>2015-07-06T08:44:33.011Z</time>
      </trkpt>
      <trkpt lat="45.9622" lon="4.77936">
        <ele>206.699996948</ele>
        <time>2015-07-06T08:44:34.013Z</time>
      </trkpt>
      <trkpt lat="45.96225" lon="4.77945">
        <ele>206.800003052</ele>
        <time>2015-07-06T08:44:36.015Z</time>
      </trkpt>
      <trkpt lat="45.96229" lon="4.77949">
        <ele>206.800003052</ele>
        <time>2015-07-06T08:44:37.008Z</time>
      </trkpt>
      <trkpt lat="45.96233" lon="4.77953">
        <ele>206.800003052</ele>
        <time>2015-07-06T08:44:38.014Z</time>
      </trkpt>
      <trkpt lat="45.96237" lon="4.77957">
        <ele>206.800003052</ele>
        <time>2015-07-06T08:44:39.009Z</time>
      </trkpt>
      <trkpt lat="45.96242" lon="4.77962">
        <ele>206.800003052</ele>
        <time>2015-07-06T08:44:40.042Z</time>
      </trkpt>
      <trkpt lat="45.96246" lon="4.77966">
        <ele>206.800003052</ele>
        <time>2015-07-06T08:44:41.011Z</time>
      </trkpt>
      <trkpt lat="45.9625" lon="4.7797">
        <ele>206.899993896</ele>
        <time>2015-07-06T08:44:42.009Z</time>
      </trkpt>
      <trkpt lat="45.96255" lon="4.77976">
        <ele>206.899993896</ele>
        <time>2015-07-06T08:44:43.008Z</time>
      </trkpt>
      <trkpt lat="45.96259" lon="4.77981">
        <ele>207</ele>
        <time>2015-07-06T08:44:44.014Z</time>
      </trkpt>
      <trkpt lat="45.96263" lon="4.77985">
        <ele>207.100006104</ele>
        <time>2015-07-06T08:44:45.01Z</time>
      </trkpt>
      <trkpt lat="45.96267" lon="4.77989">
        <ele>207.300003052</ele>
        <time>2015-07-06T08:44:46.027Z</time>
      </trkpt>
      <trkpt lat="45.96272" lon="4.77993">
        <ele>207.399993896</ele>
        <time>2015-07-06T08:44:47.01Z</time>
      </trkpt>
      <trkpt lat="45.96276" lon="4.77997">
        <ele>207.399993896</ele>
        <time>2015-07-06T08:44:48.029Z</time>
      </trkpt>
      <trkpt lat="45.9628" lon="4.78001">
        <ele>207.5</ele>
        <time>2015-07-06T08:44:49.008Z</time>
      </trkpt>
      <trkpt lat="45.96284" lon="4.78006">
        <ele>207.600006104</ele>
        <time>2015-07-06T08:44:50.011Z</time>
      </trkpt>
      <trkpt lat="45.96288" lon="4.78009">
        <ele>207.800003052</ele>
        <time>2015-07-06T08:44:51.011Z</time>
      </trkpt>
      <trkpt lat="45.96292" lon="4.78014">
        <ele>207.800003052</ele>
        <time>2015-07-06T08:44:52.042Z</time>
      </trkpt>
      <trkpt lat="45.96296" lon="4.78018">
        <ele>207.699996948</ele>
        <time>2015-07-06T08:44:53.012Z</time>
      </trkpt>
      <trkpt lat="45.96302" lon="4.78023">
        <ele>207.800003052</ele>
        <time>2015-07-06T08:44:54.012Z</time>
      </trkpt>
      <trkpt lat="45.96308" lon="4.78029">
        <ele>207.699996948</ele>
        <time>2015-07-06T08:44:55.01Z</time>
      </trkpt>
      <trkpt lat="45.96313" lon="4.78035">
        <ele>207.699996948</ele>
        <time>2015-07-06T08:44:56.014Z</time>
      </trkpt>
      <trkpt lat="45.96318" lon="4.78041">
        <ele>207.600006104</ele>
        <time>2015-07-06T08:44:57.01Z</time>
      </trkpt>
      <trkpt lat="45.96323" lon="4.78046">
        <ele>207.600006104</ele>
        <time>2015-07-06T08:44:58.011Z</time>
      </trkpt>
      <trkpt lat="45.96328" lon="4.78051">
        <ele>207.5</ele>
        <time>2015-07-06T08:44:59.01Z</time>
      </trkpt>
      <trkpt lat="45.96333" lon="4.78057">
        <ele>207.5</ele>
        <time>2015-07-06T08:45:00.035Z</time>
      </trkpt>
      <trkpt lat="45.96337" lon="4.78063">
        <ele>207.5</ele>
        <time>2015-07-06T08:45:01.01Z</time>
      </trkpt>
      <trkpt lat="45.96341" lon="4.78068">
        <ele>207.399993896</ele>
        <time>2015-07-06T08:45:02.062Z</time>
      </trkpt>
      <trkpt lat="45.96345" lon="4.78073">
        <ele>207.5</ele>
        <time>2015-07-06T08:45:03.007Z</time>
      </trkpt>
      <trkpt lat="45.96349" lon="4.78079">
        <ele>207.800003052</ele>
        <time>2015-07-06T08:45:04.011Z</time>
      </trkpt>
      <trkpt lat="45.96353" lon="4.78084">
        <ele>207.800003052</ele>
        <time>2015-07-06T08:45:05.01Z</time>
      </trkpt>
      <trkpt lat="45.96357" lon="4.78089">
        <ele>207.899993896</ele>
        <time>2015-07-06T08:45:06.016Z</time>
      </trkpt>
      <trkpt lat="45.96361" lon="4.78093">
        <ele>207.899993896</ele>
        <time>2015-07-06T08:45:07.008Z</time>
      </trkpt>
      <trkpt lat="45.96365" lon="4.78097">
        <ele>208.100006104</ele>
        <time>2015-07-06T08:45:08.01Z</time>
      </trkpt>
      <trkpt lat="45.96369" lon="4.78101">
        <ele>208.300003052</ele>
        <time>2015-07-06T08:45:09.011Z</time>
      </trkpt>
      <trkpt lat="45.96372" lon="4.78105">
        <ele>208.399993896</ele>
        <time>2015-07-06T08:45:10.009Z</time>
      </trkpt>
      <trkpt lat="45.96376" lon="4.78108">
        <ele>208.300003052</ele>
        <time>2015-07-06T08:45:11.051Z</time>
      </trkpt>
      <trkpt lat="45.9638" lon="4.78113">
        <ele>208.399993896</ele>
        <time>2015-07-06T08:45:12.066Z</time>
      </trkpt>
      <trkpt lat="45.96385" lon="4.78118">
        <ele>208.399993896</ele>
        <time>2015-07-06T08:45:13.013Z</time>
      </trkpt>
      <trkpt lat="45.96389" lon="4.78124">
        <ele>208.600006104</ele>
        <time>2015-07-06T08:45:14.013Z</time>
      </trkpt>
      <trkpt lat="45.96394" lon="4.78127">
        <ele>208.199996948</ele>
        <time>2015-07-06T08:45:15.032Z</time>
      </trkpt>
      <trkpt lat="45.96398" lon="4.78129">
        <ele>207.800003052</ele>
        <time>2015-07-06T08:45:16.011Z</time>
      </trkpt>
      <trkpt lat="45.96403" lon="4.78132">
        <ele>207.399993896</ele>
        <time>2015-07-06T08:45:17.013Z</time>
      </trkpt>
      <trkpt lat="45.96407" lon="4.78136">
        <ele>207.300003052</ele>
        <time>2015-07-06T08:45:18.014Z</time>
      </trkpt>
      <trkpt lat="45.96411" lon="4.78142">
        <ele>207.399993896</ele>
        <time>2015-07-06T08:45:19.012Z</time>
      </trkpt>
      <trkpt lat="45.96415" lon="4.78147">
        <ele>207.5</ele>
        <time>2015-07-06T08:45:20.011Z</time>
      </trkpt>
      <trkpt lat="45.9642" lon="4.7815">
        <ele>207.899993896</ele>
        <time>2015-07-06T08:45:21.01Z</time>
      </trkpt>
      <trkpt lat="45.96425" lon="4.78154">
        <ele>208.300003052</ele>
        <time>2015-07-06T08:45:22.012Z</time>
      </trkpt>
      <trkpt lat="45.9643" lon="4.78158">
        <ele>208.5</ele>
        <time>2015-07-06T08:45:23.008Z</time>
      </trkpt>
      <trkpt lat="45.96434" lon="4.78162">
        <ele>208.5</ele>
        <time>2015-07-06T08:45:24.013Z</time>
      </trkpt>
      <trkpt lat="45.96439" lon="4.78166">
        <ele>208.5</ele>
        <time>2015-07-06T08:45:25.009Z</time>
      </trkpt>
      <trkpt lat="45.96444" lon="4.7817">
        <ele>208.800003052</ele>
        <time>2015-07-06T08:45:26.01Z</time>
      </trkpt>
      <trkpt lat="45.96448" lon="4.78175">
        <ele>208.800003052</ele>
        <time>2015-07-06T08:45:27.007Z</time>
      </trkpt>
      <trkpt lat="45.96453" lon="4.78179">
        <ele>208.800003052</ele>
        <time>2015-07-06T08:45:28.026Z</time>
      </trkpt>
      <trkpt lat="45.96457" lon="4.78183">
        <ele>208.800003052</ele>
        <time>2015-07-06T08:45:29.009Z</time>
      </trkpt>
      <trkpt lat="45.96462" lon="4.78186">
        <ele>209</ele>
        <time>2015-07-06T08:45:30.013Z</time>
      </trkpt>
      <trkpt lat="45.96468" lon="4.78189">
        <ele>209</ele>
        <time>2015-07-06T08:45:31.008Z</time>
      </trkpt>
      <trkpt lat="45.96473" lon="4.78192">
        <ele>209.199996948</ele>
        <time>2015-07-06T08:45:32.012Z</time>
      </trkpt>
      <trkpt lat="45.96478" lon="4.78194">
        <ele>209.5</ele>
        <time>2015-07-06T08:45:33.01Z</time>
      </trkpt>
      <trkpt lat="45.96483" lon="4.78196">
        <ele>209.699996948</ele>
        <time>2015-07-06T08:45:34.011Z</time>
      </trkpt>
      <trkpt lat="45.96488" lon="4.782">
        <ele>210</ele>
        <time>2015-07-06T08:45:35.012Z</time>
      </trkpt>
      <trkpt lat="45.96492" lon="4.78204">
        <ele>210.199996948</ele>
        <time>2015-07-06T08:45:36.013Z</time>
      </trkpt>
      <trkpt lat="45.96497" lon="4.78208">
        <ele>210.300003052</ele>
        <time>2015-07-06T08:45:37.01Z</time>
      </trkpt>
      <trkpt lat="45.96501" lon="4.78213">
        <ele>210.600006104</ele>
        <time>2015-07-06T08:45:38.011Z</time>
      </trkpt>
      <trkpt lat="45.96505" lon="4.7822">
        <ele>210.399993896</ele>
        <time>2015-07-06T08:45:39.012Z</time>
      </trkpt>
      <trkpt lat="45.96509" lon="4.78226">
        <ele>210.100006104</ele>
        <time>2015-07-06T08:45:40.007Z</time>
      </trkpt>
      <trkpt lat="45.96512" lon="4.78231">
        <ele>210.199996948</ele>
        <time>2015-07-06T08:45:41.007Z</time>
      </trkpt>
      <trkpt lat="45.96516" lon="4.78235">
        <ele>210</ele>
        <time>2015-07-06T08:45:42.015Z</time>
      </trkpt>
      <trkpt lat="45.96519" lon="4.78241">
        <ele>209.800003052</ele>
        <time>2015-07-06T08:45:43.009Z</time>
      </trkpt>
      <trkpt lat="45.96522" lon="4.78247">
        <ele>209.800003052</ele>
        <time>2015-07-06T08:45:44.027Z</time>
      </trkpt>
      <trkpt lat="45.96525" lon="4.78253">
        <ele>209.699996948</ele>
        <time>2015-07-06T08:45:45.011Z</time>
      </trkpt>
      <trkpt lat="45.96528" lon="4.78258">
        <ele>209.5</ele>
        <time>2015-07-06T08:45:46.008Z</time>
      </trkpt>
      <trkpt lat="45.96532" lon="4.78263">
        <ele>209.300003052</ele>
        <time>2015-07-06T08:45:47.008Z</time>
      </trkpt>
      <trkpt lat="45.96535" lon="4.78269">
        <ele>209.100006104</ele>
        <time>2015-07-06T08:45:48.01Z</time>
      </trkpt>
      <trkpt lat="45.96539" lon="4.78274">
        <ele>209.300003052</ele>
        <time>2015-07-06T08:45:49.011Z</time>
      </trkpt>
      <trkpt lat="45.96543" lon="4.7828">
        <ele>209.399993896</ele>
        <time>2015-07-06T08:45:50.009Z</time>
      </trkpt>
      <trkpt lat="45.96546" lon="4.78286">
        <ele>209.300003052</ele>
        <time>2015-07-06T08:45:51.008Z</time>
      </trkpt>
      <trkpt lat="45.96551" lon="4.78292">
        <ele>209</ele>
        <time>2015-07-06T08:45:52.009Z</time>
      </trkpt>
      <trkpt lat="45.96556" lon="4.78297">
        <ele>208.899993896</ele>
        <time>2015-07-06T08:45:53.007Z</time>
      </trkpt>
      <trkpt lat="45.9656" lon="4.78302">
        <ele>209</ele>
        <time>2015-07-06T08:45:54.012Z</time>
      </trkpt>
      <trkpt lat="45.96564" lon="4.78306">
        <ele>209.199996948</ele>
        <time>2015-07-06T08:45:55.013Z</time>
      </trkpt>
      <trkpt lat="45.96569" lon="4.7831">
        <ele>209.199996948</ele>
        <time>2015-07-06T08:45:56.011Z</time>
      </trkpt>
      <trkpt lat="45.96574" lon="4.78315">
        <ele>209.300003052</ele>
        <time>2015-07-06T08:45:57.008Z</time>
      </trkpt>
      <trkpt lat="45.96578" lon="4.78319">
        <ele>209.300003052</ele>
        <time>2015-07-06T08:45:58.015Z</time>
      </trkpt>
      <trkpt lat="45.96583" lon="4.78324">
        <ele>209.100006104</ele>
        <time>2015-07-06T08:45:59.01Z</time>
      </trkpt>
      <trkpt lat="45.96587" lon="4.78329">
        <ele>209.100006104</ele>
        <time>2015-07-06T08:46:00.048Z</time>
      </trkpt>
      <trkpt lat="45.96591" lon="4.78335">
        <ele>209.100006104</ele>
        <time>2015-07-06T08:46:01.008Z</time>
      </trkpt>
      <trkpt lat="45.96596" lon="4.78339">
        <ele>209.199996948</ele>
        <time>2015-07-06T08:46:02.012Z</time>
      </trkpt>
      <trkpt lat="45.966" lon="4.78343">
        <ele>209.100006104</ele>
        <time>2015-07-06T08:46:03.007Z</time>
      </trkpt>
      <trkpt lat="45.96605" lon="4.78347">
        <ele>209</ele>
        <time>2015-07-06T08:46:04.028Z</time>
      </trkpt>
      <trkpt lat="45.9661" lon="4.7835">
        <ele>208.899993896</ele>
        <time>2015-07-06T08:46:05.008Z</time>
      </trkpt>
      <trkpt lat="45.96613" lon="4.78354">
        <ele>208.800003052</ele>
        <time>2015-07-06T08:46:06.012Z</time>
      </trkpt>
      <trkpt lat="45.96617" lon="4.78358">
        <ele>208.899993896</ele>
        <time>2015-07-06T08:46:07.008Z</time>
      </trkpt>
      <trkpt lat="45.96622" lon="4.78361">
        <ele>208.899993896</ele>
        <time>2015-07-06T08:46:08.009Z</time>
      </trkpt>
      <trkpt lat="45.96626" lon="4.78364">
        <ele>209</ele>
        <time>2015-07-06T08:46:09.034Z</time>
      </trkpt>
      <trkpt lat="45.9663" lon="4.78367">
        <ele>208.899993896</ele>
        <time>2015-07-06T08:46:10.029Z</time>
      </trkpt>
      <trkpt lat="45.96634" lon="4.78372">
        <ele>208.600006104</ele>
        <time>2015-07-06T08:46:11.049Z</time>
      </trkpt>
      <trkpt lat="45.96638" lon="4.78375">
        <ele>208.399993896</ele>
        <time>2015-07-06T08:46:12.013Z</time>
      </trkpt>
      <trkpt lat="45.96642" lon="4.7838">
        <ele>208.199996948</ele>
        <time>2015-07-06T08:46:13.008Z</time>
      </trkpt>
      <trkpt lat="45.96646" lon="4.78384">
        <ele>207.800003052</ele>
        <time>2015-07-06T08:46:14.011Z</time>
      </trkpt>
      <trkpt lat="45.96651" lon="4.78388">
        <ele>207.699996948</ele>
        <time>2015-07-06T08:46:15.05Z</time>
      </trkpt>
      <trkpt lat="45.96656" lon="4.78395">
        <ele>208.100006104</ele>
        <time>2015-07-06T08:46:16.021Z</time>
      </trkpt>
      <trkpt lat="45.9666" lon="4.784">
        <ele>207.899993896</ele>
        <time>2015-07-06T08:46:17.009Z</time>
      </trkpt>
      <trkpt lat="45.96665" lon="4.78405">
        <ele>207.899993896</ele>
        <time>2015-07-06T08:46:18.011Z</time>
      </trkpt>
      <trkpt lat="45.96669" lon="4.78409">
        <ele>208.100006104</ele>
        <time>2015-07-06T08:46:19.013Z</time>
      </trkpt>
      <trkpt lat="45.96673" lon="4.78413">
        <ele>208.600006104</ele>
        <time>2015-07-06T08:46:20.01Z</time>
      </trkpt>
      <trkpt lat="45.96676" lon="4.78418">
        <ele>208.899993896</ele>
        <time>2015-07-06T08:46:21.008Z</time>
      </trkpt>
      <trkpt lat="45.96681" lon="4.78421">
        <ele>208.899993896</ele>
        <time>2015-07-06T08:46:22.012Z</time>
      </trkpt>
      <trkpt lat="45.96685" lon="4.78424">
        <ele>209</ele>
        <time>2015-07-06T08:46:23.009Z</time>
      </trkpt>
      <trkpt lat="45.96689" lon="4.78428">
        <ele>208.600006104</ele>
        <time>2015-07-06T08:46:24.015Z</time>
      </trkpt>
      <trkpt lat="45.96693" lon="4.78431">
        <ele>208.5</ele>
        <time>2015-07-06T08:46:25.01Z</time>
      </trkpt>
      <trkpt lat="45.967" lon="4.78439">
        <ele>208.5</ele>
        <time>2015-07-06T08:46:27.012Z</time>
      </trkpt>
      <trkpt lat="45.96704" lon="4.78443">
        <ele>208.199996948</ele>
        <time>2015-07-06T08:46:28.007Z</time>
      </trkpt>
      <trkpt lat="45.96708" lon="4.78448">
        <ele>207.800003052</ele>
        <time>2015-07-06T08:46:29.008Z</time>
      </trkpt>
      <trkpt lat="45.96711" lon="4.78453">
        <ele>207.800003052</ele>
        <time>2015-07-06T08:46:30.011Z</time>
      </trkpt>
      <trkpt lat="45.96716" lon="4.78457">
        <ele>207.699996948</ele>
        <time>2015-07-06T08:46:31.001Z</time>
      </trkpt>
      <trkpt lat="45.96721" lon="4.78462">
        <ele>207.399993896</ele>
        <time>2015-07-06T08:46:32.024Z</time>
      </trkpt>
      <trkpt lat="45.96725" lon="4.78466">
        <ele>207.300003052</ele>
        <time>2015-07-06T08:46:33.007Z</time>
      </trkpt>
      <trkpt lat="45.96731" lon="4.78471">
        <ele>206.800003052</ele>
        <time>2015-07-06T08:46:34.011Z</time>
      </trkpt>
      <trkpt lat="45.96736" lon="4.78476">
        <ele>207.100006104</ele>
        <time>2015-07-06T08:46:35.01Z</time>
      </trkpt>
      <trkpt lat="45.9674" lon="4.78481">
        <ele>207.100006104</ele>
        <time>2015-07-06T08:46:36.012Z</time>
      </trkpt>
      <trkpt lat="45.96746" lon="4.78485">
        <ele>206.899993896</ele>
        <time>2015-07-06T08:46:37.06Z</time>
      </trkpt>
      <trkpt lat="45.96751" lon="4.78489">
        <ele>206.800003052</ele>
        <time>2015-07-06T08:46:38.01Z</time>
      </trkpt>
      <trkpt lat="45.96756" lon="4.78493">
        <ele>206.600006104</ele>
        <time>2015-07-06T08:46:39.011Z</time>
      </trkpt>
      <trkpt lat="45.96761" lon="4.78498">
        <ele>206.600006104</ele>
        <time>2015-07-06T08:46:40.007Z</time>
      </trkpt>
      <trkpt lat="45.96765" lon="4.78504">
        <ele>206.600006104</ele>
        <time>2015-07-06T08:46:41.012Z</time>
      </trkpt>
      <trkpt lat="45.9677" lon="4.7851">
        <ele>206.300003052</ele>
        <time>2015-07-06T08:46:42.012Z</time>
      </trkpt>
      <trkpt lat="45.96773" lon="4.78517">
        <ele>206.5</ele>
        <time>2015-07-06T08:46:43.01Z</time>
      </trkpt>
      <trkpt lat="45.96777" lon="4.78524">
        <ele>206.5</ele>
        <time>2015-07-06T08:46:44.01Z</time>
      </trkpt>
      <trkpt lat="45.96781" lon="4.7853">
        <ele>206.5</ele>
        <time>2015-07-06T08:46:45.009Z</time>
      </trkpt>
      <trkpt lat="45.96785" lon="4.78536">
        <ele>206.199996948</ele>
        <time>2015-07-06T08:46:46.009Z</time>
      </trkpt>
      <trkpt lat="45.9679" lon="4.78542">
        <ele>205.699996948</ele>
        <time>2015-07-06T08:46:47.01Z</time>
      </trkpt>
      <trkpt lat="45.96794" lon="4.78548">
        <ele>205.5</ele>
        <time>2015-07-06T08:46:48.011Z</time>
      </trkpt>
      <trkpt lat="45.96797" lon="4.78554">
        <ele>205.199996948</ele>
        <time>2015-07-06T08:46:49.009Z</time>
      </trkpt>
      <trkpt lat="45.96802" lon="4.78559">
        <ele>204.899993896</ele>
        <time>2015-07-06T08:46:50.013Z</time>
      </trkpt>
      <trkpt lat="45.96807" lon="4.78568">
        <ele>205.100006104</ele>
        <time>2015-07-06T08:46:52.011Z</time>
      </trkpt>
      <trkpt lat="45.96811" lon="4.78572">
        <ele>205.199996948</ele>
        <time>2015-07-06T08:46:53.024Z</time>
      </trkpt>
      <trkpt lat="45.96814" lon="4.78577">
        <ele>205</ele>
        <time>2015-07-06T08:46:54.013Z</time>
      </trkpt>
      <trkpt lat="45.96817" lon="4.78583">
        <ele>205.100006104</ele>
        <time>2015-07-06T08:46:55.009Z</time>
      </trkpt>
      <trkpt lat="45.96819" lon="4.78589">
        <ele>205.100006104</ele>
        <time>2015-07-06T08:46:56.01Z</time>
      </trkpt>
      <trkpt lat="45.96822" lon="4.78596">
        <ele>204.800003052</ele>
        <time>2015-07-06T08:46:57.008Z</time>
      </trkpt>
      <trkpt lat="45.96824" lon="4.78603">
        <ele>204.5</ele>
        <time>2015-07-06T08:46:58.01Z</time>
      </trkpt>
      <trkpt lat="45.96827" lon="4.7861">
        <ele>204.100006104</ele>
        <time>2015-07-06T08:46:59.01Z</time>
      </trkpt>
      <trkpt lat="45.9683" lon="4.78616">
        <ele>203.899993896</ele>
        <time>2015-07-06T08:47:00.03Z</time>
      </trkpt>
      <trkpt lat="45.96833" lon="4.78624">
        <ele>204</ele>
        <time>2015-07-06T08:47:01.009Z</time>
      </trkpt>
      <trkpt lat="45.96836" lon="4.78631">
        <ele>203.600006104</ele>
        <time>2015-07-06T08:47:02.011Z</time>
      </trkpt>
      <trkpt lat="45.96839" lon="4.78638">
        <ele>203.199996948</ele>
        <time>2015-07-06T08:47:03.011Z</time>
      </trkpt>
      <trkpt lat="45.96842" lon="4.78645">
        <ele>203</ele>
        <time>2015-07-06T08:47:04.012Z</time>
      </trkpt>
      <trkpt lat="45.96845" lon="4.78651">
        <ele>202.699996948</ele>
        <time>2015-07-06T08:47:05.008Z</time>
      </trkpt>
      <trkpt lat="45.96849" lon="4.78658">
        <ele>202.399993896</ele>
        <time>2015-07-06T08:47:06.013Z</time>
      </trkpt>
      <trkpt lat="45.96851" lon="4.78663">
        <ele>202.100006104</ele>
        <time>2015-07-06T08:47:07.008Z</time>
      </trkpt>
      <trkpt lat="45.96857" lon="4.78669">
        <ele>202.100006104</ele>
        <time>2015-07-06T08:47:08.01Z</time>
      </trkpt>
      <trkpt lat="45.9686" lon="4.78677">
        <ele>202.199996948</ele>
        <time>2015-07-06T08:47:09.011Z</time>
      </trkpt>
      <trkpt lat="45.96863" lon="4.78684">
        <ele>202.100006104</ele>
        <time>2015-07-06T08:47:10.041Z</time>
      </trkpt>
      <trkpt lat="45.96866" lon="4.7869">
        <ele>202.100006104</ele>
        <time>2015-07-06T08:47:11.007Z</time>
      </trkpt>
      <trkpt lat="45.96868" lon="4.78696">
        <ele>201.800003052</ele>
        <time>2015-07-06T08:47:12.012Z</time>
      </trkpt>
      <trkpt lat="45.96871" lon="4.78702">
        <ele>201.600006104</ele>
        <time>2015-07-06T08:47:13.007Z</time>
      </trkpt>
      <trkpt lat="45.96873" lon="4.78707">
        <ele>201.300003052</ele>
        <time>2015-07-06T08:47:14.009Z</time>
      </trkpt>
      <trkpt lat="45.96876" lon="4.78713">
        <ele>201.199996948</ele>
        <time>2015-07-06T08:47:15.072Z</time>
      </trkpt>
      <trkpt lat="45.96879" lon="4.7872">
        <ele>200.899993896</ele>
        <time>2015-07-06T08:47:16.01Z</time>
      </trkpt>
      <trkpt lat="45.96882" lon="4.78726">
        <ele>200.699996948</ele>
        <time>2015-07-06T08:47:17.009Z</time>
      </trkpt>
      <trkpt lat="45.96885" lon="4.78732">
        <ele>200.699996948</ele>
        <time>2015-07-06T08:47:18.015Z</time>
      </trkpt>
      <trkpt lat="45.96888" lon="4.78738">
        <ele>200.5</ele>
        <time>2015-07-06T08:47:19.024Z</time>
      </trkpt>
      <trkpt lat="45.96891" lon="4.78745">
        <ele>200.399993896</ele>
        <time>2015-07-06T08:47:20.013Z</time>
      </trkpt>
      <trkpt lat="45.96893" lon="4.7875">
        <ele>200.300003052</ele>
        <time>2015-07-06T08:47:21.008Z</time>
      </trkpt>
      <trkpt lat="45.96896" lon="4.78755">
        <ele>200.100006104</ele>
        <time>2015-07-06T08:47:22.012Z</time>
      </trkpt>
      <trkpt lat="45.96899" lon="4.78761">
        <ele>200.399993896</ele>
        <time>2015-07-06T08:47:23.007Z</time>
      </trkpt>
      <trkpt lat="45.96902" lon="4.78768">
        <ele>200.5</ele>
        <time>2015-07-06T08:47:24.014Z</time>
      </trkpt>
      <trkpt lat="45.96906" lon="4.78773">
        <ele>201.100006104</ele>
        <time>2015-07-06T08:47:25.007Z</time>
      </trkpt>
      <trkpt lat="45.96909" lon="4.7878">
        <ele>201.300003052</ele>
        <time>2015-07-06T08:47:26.009Z</time>
      </trkpt>
      <trkpt lat="45.96912" lon="4.78786">
        <ele>201.800003052</ele>
        <time>2015-07-06T08:47:27.011Z</time>
      </trkpt>
      <trkpt lat="45.96915" lon="4.78792">
        <ele>202.300003052</ele>
        <time>2015-07-06T08:47:28.008Z</time>
      </trkpt>
      <trkpt lat="45.96918" lon="4.78798">
        <ele>202.800003052</ele>
        <time>2015-07-06T08:47:29.011Z</time>
      </trkpt>
      <trkpt lat="45.96921" lon="4.78804">
        <ele>203.100006104</ele>
        <time>2015-07-06T08:47:30.05Z</time>
      </trkpt>
      <trkpt lat="45.96924" lon="4.7881">
        <ele>203.300003052</ele>
        <time>2015-07-06T08:47:31.008Z</time>
      </trkpt>
      <trkpt lat="45.96927" lon="4.78816">
        <ele>203.300003052</ele>
        <time>2015-07-06T08:47:32.008Z</time>
      </trkpt>
      <trkpt lat="45.9693" lon="4.78821">
        <ele>203.399993896</ele>
        <time>2015-07-06T08:47:33.008Z</time>
      </trkpt>
      <trkpt lat="45.96934" lon="4.78826">
        <ele>203.5</ele>
        <time>2015-07-06T08:47:34.007Z</time>
      </trkpt>
      <trkpt lat="45.96937" lon="4.78831">
        <ele>203.5</ele>
        <time>2015-07-06T08:47:35.011Z</time>
      </trkpt>
      <trkpt lat="45.96941" lon="4.78837">
        <ele>203.800003052</ele>
        <time>2015-07-06T08:47:36.011Z</time>
      </trkpt>
      <trkpt lat="45.96945" lon="4.78842">
        <ele>203.800003052</ele>
        <time>2015-07-06T08:47:37.008Z</time>
      </trkpt>
      <trkpt lat="45.96948" lon="4.78847">
        <ele>203.699996948</ele>
        <time>2015-07-06T08:47:38.008Z</time>
      </trkpt>
      <trkpt lat="45.96953" lon="4.78852">
        <ele>203.600006104</ele>
        <time>2015-07-06T08:47:39.008Z</time>
      </trkpt>
      <trkpt lat="45.96957" lon="4.78857">
        <ele>203.699996948</ele>
        <time>2015-07-06T08:47:40.024Z</time>
      </trkpt>
      <trkpt lat="45.96961" lon="4.78862">
        <ele>203.600006104</ele>
        <time>2015-07-06T08:47:41.007Z</time>
      </trkpt>
      <trkpt lat="45.96965" lon="4.78867">
        <ele>203.600006104</ele>
        <time>2015-07-06T08:47:42.011Z</time>
      </trkpt>
      <trkpt lat="45.96969" lon="4.78871">
        <ele>203.5</ele>
        <time>2015-07-06T08:47:43.011Z</time>
      </trkpt>
      <trkpt lat="45.96973" lon="4.78876">
        <ele>203.399993896</ele>
        <time>2015-07-06T08:47:44.012Z</time>
      </trkpt>
      <trkpt lat="45.96977" lon="4.7888">
        <ele>203.600006104</ele>
        <time>2015-07-06T08:47:45.011Z</time>
      </trkpt>
      <trkpt lat="45.9698" lon="4.78884">
        <ele>203.699996948</ele>
        <time>2015-07-06T08:47:46.009Z</time>
      </trkpt>
      <trkpt lat="45.96984" lon="4.78889">
        <ele>203.800003052</ele>
        <time>2015-07-06T08:47:47.009Z</time>
      </trkpt>
      <trkpt lat="45.96988" lon="4.78893">
        <ele>204.300003052</ele>
        <time>2015-07-06T08:47:48.013Z</time>
      </trkpt>
      <trkpt lat="45.96991" lon="4.78897">
        <ele>204.699996948</ele>
        <time>2015-07-06T08:47:49.007Z</time>
      </trkpt>
      <trkpt lat="45.96995" lon="4.78902">
        <ele>205.100006104</ele>
        <time>2015-07-06T08:47:50.008Z</time>
      </trkpt>
      <trkpt lat="45.96998" lon="4.78906">
        <ele>205.399993896</ele>
        <time>2015-07-06T08:47:51.012Z</time>
      </trkpt>
      <trkpt lat="45.97005" lon="4.78913">
        <ele>205.699996948</ele>
        <time>2015-07-06T08:47:53.01Z</time>
      </trkpt>
      <trkpt lat="45.97008" lon="4.78917">
        <ele>206.100006104</ele>
        <time>2015-07-06T08:47:54.011Z</time>
      </trkpt>
      <trkpt lat="45.97014" lon="4.78926">
        <ele>206.5</ele>
        <time>2015-07-06T08:47:56.05Z</time>
      </trkpt>
      <trkpt lat="45.97017" lon="4.7893">
        <ele>206.699996948</ele>
        <time>2015-07-06T08:47:57.007Z</time>
      </trkpt>
      <trkpt lat="45.97023" lon="4.78939">
        <ele>206.699996948</ele>
        <time>2015-07-06T08:47:59.007Z</time>
      </trkpt>
      <trkpt lat="45.97026" lon="4.78944">
        <ele>207.100006104</ele>
        <time>2015-07-06T08:48:00.046Z</time>
      </trkpt>
      <trkpt lat="45.97032" lon="4.78953">
        <ele>207</ele>
        <time>2015-07-06T08:48:02.008Z</time>
      </trkpt>
      <trkpt lat="45.97034" lon="4.78958">
        <ele>207.199996948</ele>
        <time>2015-07-06T08:48:03.009Z</time>
      </trkpt>
      <trkpt lat="45.97037" lon="4.78963">
        <ele>207.199996948</ele>
        <time>2015-07-06T08:48:04.007Z</time>
      </trkpt>
      <trkpt lat="45.9704" lon="4.78969">
        <ele>207.100006104</ele>
        <time>2015-07-06T08:48:05.008Z</time>
      </trkpt>
      <trkpt lat="45.97042" lon="4.78974">
        <ele>207.100006104</ele>
        <time>2015-07-06T08:48:06.009Z</time>
      </trkpt>
      <trkpt lat="45.97046" lon="4.78978">
        <ele>207.300003052</ele>
        <time>2015-07-06T08:48:07.011Z</time>
      </trkpt>
      <trkpt lat="45.97049" lon="4.78982">
        <ele>207.5</ele>
        <time>2015-07-06T08:48:08.104Z</time>
      </trkpt>
      <trkpt lat="45.97052" lon="4.78988">
        <ele>207.600006104</ele>
        <time>2015-07-06T08:48:09.012Z</time>
      </trkpt>
      <trkpt lat="45.97054" lon="4.78994">
        <ele>207.899993896</ele>
        <time>2015-07-06T08:48:10.009Z</time>
      </trkpt>
      <trkpt lat="45.97056" lon="4.79">
        <ele>207.899993896</ele>
        <time>2015-07-06T08:48:11.007Z</time>
      </trkpt>
      <trkpt lat="45.97058" lon="4.79006">
        <ele>207.600006104</ele>
        <time>2015-07-06T08:48:12.011Z</time>
      </trkpt>
      <trkpt lat="45.9706" lon="4.79012">
        <ele>207.699996948</ele>
        <time>2015-07-06T08:48:13.01Z</time>
      </trkpt>
      <trkpt lat="45.97062" lon="4.79018">
        <ele>207.899993896</ele>
        <time>2015-07-06T08:48:14.009Z</time>
      </trkpt>
      <trkpt lat="45.97064" lon="4.79025">
        <ele>207.600006104</ele>
        <time>2015-07-06T08:48:15.012Z</time>
      </trkpt>
      <trkpt lat="45.97065" lon="4.79033">
        <ele>207.5</ele>
        <time>2015-07-06T08:48:16.009Z</time>
      </trkpt>
      <trkpt lat="45.97066" lon="4.7904">
        <ele>207.600006104</ele>
        <time>2015-07-06T08:48:17.025Z</time>
      </trkpt>
      <trkpt lat="45.97067" lon="4.79046">
        <ele>207.800003052</ele>
        <time>2015-07-06T08:48:18.01Z</time>
      </trkpt>
      <trkpt lat="45.97069" lon="4.79053">
        <ele>207.399993896</ele>
        <time>2015-07-06T08:48:19.008Z</time>
      </trkpt>
      <trkpt lat="45.97069" lon="4.79061">
        <ele>207.600006104</ele>
        <time>2015-07-06T08:48:20.012Z</time>
      </trkpt>
      <trkpt lat="45.97071" lon="4.79069">
        <ele>207.699996948</ele>
        <time>2015-07-06T08:48:21.007Z</time>
      </trkpt>
      <trkpt lat="45.97073" lon="4.79076">
        <ele>207.899993896</ele>
        <time>2015-07-06T08:48:22.012Z</time>
      </trkpt>
      <trkpt lat="45.97074" lon="4.79082">
        <ele>207.800003052</ele>
        <time>2015-07-06T08:48:23.062Z</time>
      </trkpt>
      <trkpt lat="45.97075" lon="4.79089">
        <ele>207.199996948</ele>
        <time>2015-07-06T08:48:24.013Z</time>
      </trkpt>
      <trkpt lat="45.97077" lon="4.79095">
        <ele>207</ele>
        <time>2015-07-06T08:48:25.007Z</time>
      </trkpt>
      <trkpt lat="45.97079" lon="4.79103">
        <ele>206.800003052</ele>
        <time>2015-07-06T08:48:26.01Z</time>
      </trkpt>
      <trkpt lat="45.97081" lon="4.7911">
        <ele>206.800003052</ele>
        <time>2015-07-06T08:48:27.011Z</time>
      </trkpt>
      <trkpt lat="45.97084" lon="4.79116">
        <ele>206.800003052</ele>
        <time>2015-07-06T08:48:28.007Z</time>
      </trkpt>
      <trkpt lat="45.97086" lon="4.79122">
        <ele>206.800003052</ele>
        <time>2015-07-06T08:48:29.007Z</time>
      </trkpt>
      <trkpt lat="45.9709" lon="4.79128">
        <ele>206.699996948</ele>
        <time>2015-07-06T08:48:30.011Z</time>
      </trkpt>
      <trkpt lat="45.97093" lon="4.79134">
        <ele>206.399993896</ele>
        <time>2015-07-06T08:48:31.009Z</time>
      </trkpt>
      <trkpt lat="45.97096" lon="4.7914">
        <ele>206.399993896</ele>
        <time>2015-07-06T08:48:32.01Z</time>
      </trkpt>
      <trkpt lat="45.97099" lon="4.79146">
        <ele>206.399993896</ele>
        <time>2015-07-06T08:48:33.007Z</time>
      </trkpt>
      <trkpt lat="45.97103" lon="4.79151">
        <ele>206.300003052</ele>
        <time>2015-07-06T08:48:34.015Z</time>
      </trkpt>
      <trkpt lat="45.97106" lon="4.79157">
        <ele>206.199996948</ele>
        <time>2015-07-06T08:48:35.01Z</time>
      </trkpt>
      <trkpt lat="45.9711" lon="4.79163">
        <ele>206.300003052</ele>
        <time>2015-07-06T08:48:36.024Z</time>
      </trkpt>
      <trkpt lat="45.97112" lon="4.79169">
        <ele>206.5</ele>
        <time>2015-07-06T08:48:37.055Z</time>
      </trkpt>
      <trkpt lat="45.97115" lon="4.79175">
        <ele>206.800003052</ele>
        <time>2015-07-06T08:48:38.136Z</time>
      </trkpt>
      <trkpt lat="45.97118" lon="4.79181">
        <ele>206.899993896</ele>
        <time>2015-07-06T08:48:39.012Z</time>
      </trkpt>
      <trkpt lat="45.97121" lon="4.79188">
        <ele>206.899993896</ele>
        <time>2015-07-06T08:48:40.032Z</time>
      </trkpt>
      <trkpt lat="45.97124" lon="4.79195">
        <ele>207.199996948</ele>
        <time>2015-07-06T08:48:41.011Z</time>
      </trkpt>
      <trkpt lat="45.97126" lon="4.79201">
        <ele>207.300003052</ele>
        <time>2015-07-06T08:48:42.01Z</time>
      </trkpt>
      <trkpt lat="45.97129" lon="4.79208">
        <ele>207.300003052</ele>
        <time>2015-07-06T08:48:43.007Z</time>
      </trkpt>
      <trkpt lat="45.97132" lon="4.79214">
        <ele>207.399993896</ele>
        <time>2015-07-06T08:48:44.009Z</time>
      </trkpt>
      <trkpt lat="45.97135" lon="4.7922">
        <ele>207.399993896</ele>
        <time>2015-07-06T08:48:45.008Z</time>
      </trkpt>
      <trkpt lat="45.97138" lon="4.79232">
        <ele>207.100006104</ele>
        <time>2015-07-06T08:48:47.007Z</time>
      </trkpt>
      <trkpt lat="45.9714" lon="4.79237">
        <ele>207.199996948</ele>
        <time>2015-07-06T08:48:48.011Z</time>
      </trkpt>
      <trkpt lat="45.97144" lon="4.79246">
        <ele>207.199996948</ele>
        <time>2015-07-06T08:48:50.008Z</time>
      </trkpt>
      <trkpt lat="45.97146" lon="4.79251">
        <ele>207.800003052</ele>
        <time>2015-07-06T08:48:51.007Z</time>
      </trkpt>
      <trkpt lat="45.9715" lon="4.79262">
        <ele>208.800003052</ele>
        <time>2015-07-06T08:48:53.007Z</time>
      </trkpt>
      <trkpt lat="45.97151" lon="4.79268">
        <ele>209</ele>
        <time>2015-07-06T08:48:54.011Z</time>
      </trkpt>
      <trkpt lat="45.97153" lon="4.79273">
        <ele>209.199996948</ele>
        <time>2015-07-06T08:48:55.011Z</time>
      </trkpt>
      <trkpt lat="45.97156" lon="4.79279">
        <ele>209.199996948</ele>
        <time>2015-07-06T08:48:56.008Z</time>
      </trkpt>
      <trkpt lat="45.97159" lon="4.79286">
        <ele>209.600006104</ele>
        <time>2015-07-06T08:48:57.009Z</time>
      </trkpt>
      <trkpt lat="45.97161" lon="4.79292">
        <ele>209.800003052</ele>
        <time>2015-07-06T08:48:58.009Z</time>
      </trkpt>
      <trkpt lat="45.97164" lon="4.79299">
        <ele>210</ele>
        <time>2015-07-06T08:48:59.006Z</time>
      </trkpt>
      <trkpt lat="45.97166" lon="4.79305">
        <ele>210.199996948</ele>
        <time>2015-07-06T08:49:00.032Z</time>
      </trkpt>
      <trkpt lat="45.97169" lon="4.79311">
        <ele>210.100006104</ele>
        <time>2015-07-06T08:49:01.006Z</time>
      </trkpt>
      <trkpt lat="45.97171" lon="4.79317">
        <ele>210.5</ele>
        <time>2015-07-06T08:49:02.008Z</time>
      </trkpt>
      <trkpt lat="45.97174" lon="4.79323">
        <ele>210.699996948</ele>
        <time>2015-07-06T08:49:03.009Z</time>
      </trkpt>
      <trkpt lat="45.97177" lon="4.79329">
        <ele>210.899993896</ele>
        <time>2015-07-06T08:49:04.007Z</time>
      </trkpt>
      <trkpt lat="45.97179" lon="4.79334">
        <ele>211.100006104</ele>
        <time>2015-07-06T08:49:05.024Z</time>
      </trkpt>
      <trkpt lat="45.97182" lon="4.7934">
        <ele>211.199996948</ele>
        <time>2015-07-06T08:49:06.011Z</time>
      </trkpt>
      <trkpt lat="45.97184" lon="4.79345">
        <ele>211.5</ele>
        <time>2015-07-06T08:49:07.012Z</time>
      </trkpt>
      <trkpt lat="45.97187" lon="4.7935">
        <ele>211.300003052</ele>
        <time>2015-07-06T08:49:08.01Z</time>
      </trkpt>
      <trkpt lat="45.97189" lon="4.79355">
        <ele>211.300003052</ele>
        <time>2015-07-06T08:49:09.012Z</time>
      </trkpt>
      <trkpt lat="45.97192" lon="4.79361">
        <ele>211.399993896</ele>
        <time>2015-07-06T08:49:10.009Z</time>
      </trkpt>
      <trkpt lat="45.97195" lon="4.79367">
        <ele>211.800003052</ele>
        <time>2015-07-06T08:49:11.054Z</time>
      </trkpt>
      <trkpt lat="45.97197" lon="4.79373">
        <ele>211.5</ele>
        <time>2015-07-06T08:49:12.01Z</time>
      </trkpt>
      <trkpt lat="45.972" lon="4.7938">
        <ele>211.399993896</ele>
        <time>2015-07-06T08:49:13.009Z</time>
      </trkpt>
      <trkpt lat="45.97203" lon="4.79386">
        <ele>211.5</ele>
        <time>2015-07-06T08:49:14.01Z</time>
      </trkpt>
      <trkpt lat="45.97205" lon="4.79392">
        <ele>211.399993896</ele>
        <time>2015-07-06T08:49:15.007Z</time>
      </trkpt>
      <trkpt lat="45.97207" lon="4.79398">
        <ele>211.399993896</ele>
        <time>2015-07-06T08:49:16.009Z</time>
      </trkpt>
      <trkpt lat="45.9721" lon="4.79405">
        <ele>211.5</ele>
        <time>2015-07-06T08:49:17.006Z</time>
      </trkpt>
      <trkpt lat="45.97213" lon="4.79412">
        <ele>211.5</ele>
        <time>2015-07-06T08:49:18.012Z</time>
      </trkpt>
      <trkpt lat="45.97216" lon="4.79419">
        <ele>211.600006104</ele>
        <time>2015-07-06T08:49:19.006Z</time>
      </trkpt>
      <trkpt lat="45.97218" lon="4.79424">
        <ele>211.699996948</ele>
        <time>2015-07-06T08:49:20.012Z</time>
      </trkpt>
      <trkpt lat="45.9722" lon="4.7943">
        <ele>211.899993896</ele>
        <time>2015-07-06T08:49:21.009Z</time>
      </trkpt>
      <trkpt lat="45.97222" lon="4.79436">
        <ele>212.100006104</ele>
        <time>2015-07-06T08:49:22.012Z</time>
      </trkpt>
      <trkpt lat="45.97225" lon="4.79444">
        <ele>212</ele>
        <time>2015-07-06T08:49:23.011Z</time>
      </trkpt>
      <trkpt lat="45.97226" lon="4.79449">
        <ele>212.199996948</ele>
        <time>2015-07-06T08:49:24.043Z</time>
      </trkpt>
      <trkpt lat="45.9723" lon="4.79459">
        <ele>212</ele>
        <time>2015-07-06T08:49:26.025Z</time>
      </trkpt>
      <trkpt lat="45.97232" lon="4.79465">
        <ele>212</ele>
        <time>2015-07-06T08:49:27.009Z</time>
      </trkpt>
      <trkpt lat="45.97233" lon="4.79471">
        <ele>211.899993896</ele>
        <time>2015-07-06T08:49:28.011Z</time>
      </trkpt>
      <trkpt lat="45.97235" lon="4.79477">
        <ele>211.899993896</ele>
        <time>2015-07-06T08:49:29.01Z</time>
      </trkpt>
      <trkpt lat="45.97237" lon="4.79489">
        <ele>212.100006104</ele>
        <time>2015-07-06T08:49:31.006Z</time>
      </trkpt>
      <trkpt lat="45.97239" lon="4.79496">
        <ele>212.100006104</ele>
        <time>2015-07-06T08:49:32.008Z</time>
      </trkpt>
      <trkpt lat="45.97241" lon="4.79502">
        <ele>212.199996948</ele>
        <time>2015-07-06T08:49:33.007Z</time>
      </trkpt>
      <trkpt lat="45.97243" lon="4.79508">
        <ele>212.199996948</ele>
        <time>2015-07-06T08:49:34.011Z</time>
      </trkpt>
      <trkpt lat="45.97246" lon="4.7952">
        <ele>212.100006104</ele>
        <time>2015-07-06T08:49:36.011Z</time>
      </trkpt>
      <trkpt lat="45.97248" lon="4.79526">
        <ele>212.100006104</ele>
        <time>2015-07-06T08:49:37.052Z</time>
      </trkpt>
      <trkpt lat="45.97253" lon="4.79537">
        <ele>212.100006104</ele>
        <time>2015-07-06T08:49:39.007Z</time>
      </trkpt>
      <trkpt lat="45.97253" lon="4.79544">
        <ele>212.199996948</ele>
        <time>2015-07-06T08:49:40.007Z</time>
      </trkpt>
      <trkpt lat="45.97255" lon="4.79551">
        <ele>212.199996948</ele>
        <time>2015-07-06T08:49:41.01Z</time>
      </trkpt>
      <trkpt lat="45.97257" lon="4.79558">
        <ele>212.399993896</ele>
        <time>2015-07-06T08:49:42.012Z</time>
      </trkpt>
      <trkpt lat="45.97258" lon="4.79569">
        <ele>213.300003052</ele>
        <time>2015-07-06T08:49:44.012Z</time>
      </trkpt>
      <trkpt lat="45.97257" lon="4.79576">
        <ele>213.899993896</ele>
        <time>2015-07-06T08:49:45.009Z</time>
      </trkpt>
      <trkpt lat="45.97257" lon="4.79583">
        <ele>214.5</ele>
        <time>2015-07-06T08:49:46.01Z</time>
      </trkpt>
      <trkpt lat="45.97257" lon="4.7959">
        <ele>214.899993896</ele>
        <time>2015-07-06T08:49:47.008Z</time>
      </trkpt>
      <trkpt lat="45.97254" lon="4.79598">
        <ele>214.800003052</ele>
        <time>2015-07-06T08:49:48.012Z</time>
      </trkpt>
      <trkpt lat="45.97253" lon="4.79606">
        <ele>214.800003052</ele>
        <time>2015-07-06T08:49:49.01Z</time>
      </trkpt>
      <trkpt lat="45.97253" lon="4.79613">
        <ele>215</ele>
        <time>2015-07-06T08:49:50.007Z</time>
      </trkpt>
      <trkpt lat="45.97253" lon="4.79621">
        <ele>215.100006104</ele>
        <time>2015-07-06T08:49:51.008Z</time>
      </trkpt>
      <trkpt lat="45.97254" lon="4.79628">
        <ele>215.100006104</ele>
        <time>2015-07-06T08:49:52.011Z</time>
      </trkpt>
      <trkpt lat="45.97254" lon="4.79635">
        <ele>215.100006104</ele>
        <time>2015-07-06T08:49:53.046Z</time>
      </trkpt>
      <trkpt lat="45.97254" lon="4.79642">
        <ele>215.399993896</ele>
        <time>2015-07-06T08:49:54.013Z</time>
      </trkpt>
      <trkpt lat="45.97252" lon="4.79649">
        <ele>215.5</ele>
        <time>2015-07-06T08:49:55.032Z</time>
      </trkpt>
      <trkpt lat="45.97251" lon="4.79656">
        <ele>215.699996948</ele>
        <time>2015-07-06T08:49:56.008Z</time>
      </trkpt>
      <trkpt lat="45.9725" lon="4.79662">
        <ele>215.600006104</ele>
        <time>2015-07-06T08:49:57.008Z</time>
      </trkpt>
      <trkpt lat="45.97249" lon="4.7967">
        <ele>215.899993896</ele>
        <time>2015-07-06T08:49:58.009Z</time>
      </trkpt>
      <trkpt lat="45.97248" lon="4.79678">
        <ele>216</ele>
        <time>2015-07-06T08:49:59.018Z</time>
      </trkpt>
      <trkpt lat="45.97247" lon="4.79686">
        <ele>216.100006104</ele>
        <time>2015-07-06T08:50:00.025Z</time>
      </trkpt>
      <trkpt lat="45.97246" lon="4.79694">
        <ele>216.199996948</ele>
        <time>2015-07-06T08:50:01.007Z</time>
      </trkpt>
      <trkpt lat="45.97245" lon="4.797">
        <ele>216.399993896</ele>
        <time>2015-07-06T08:50:02.009Z</time>
      </trkpt>
      <trkpt lat="45.97244" lon="4.79707">
        <ele>216.5</ele>
        <time>2015-07-06T08:50:03.014Z</time>
      </trkpt>
      <trkpt lat="45.97243" lon="4.79715">
        <ele>216.600006104</ele>
        <time>2015-07-06T08:50:04.024Z</time>
      </trkpt>
      <trkpt lat="45.97241" lon="4.79722">
        <ele>216.800003052</ele>
        <time>2015-07-06T08:50:05.007Z</time>
      </trkpt>
      <trkpt lat="45.9724" lon="4.7973">
        <ele>217.199996948</ele>
        <time>2015-07-06T08:50:06.012Z</time>
      </trkpt>
      <trkpt lat="45.97239" lon="4.79738">
        <ele>217.199996948</ele>
        <time>2015-07-06T08:50:07.006Z</time>
      </trkpt>
      <trkpt lat="45.97238" lon="4.79747">
        <ele>217.300003052</ele>
        <time>2015-07-06T08:50:08.007Z</time>
      </trkpt>
      <trkpt lat="45.97238" lon="4.79754">
        <ele>218.199996948</ele>
        <time>2015-07-06T08:50:09.009Z</time>
      </trkpt>
      <trkpt lat="45.97237" lon="4.79766">
        <ele>219.600006104</ele>
        <time>2015-07-06T08:50:11.006Z</time>
      </trkpt>
      <trkpt lat="45.97235" lon="4.79773">
        <ele>220</ele>
        <time>2015-07-06T08:50:12.012Z</time>
      </trkpt>
      <trkpt lat="45.97235" lon="4.7978">
        <ele>220.600006104</ele>
        <time>2015-07-06T08:50:13.057Z</time>
      </trkpt>
      <trkpt lat="45.97236" lon="4.79789">
        <ele>220.800003052</ele>
        <time>2015-07-06T08:50:14.177Z</time>
      </trkpt>
      <trkpt lat="45.97237" lon="4.79797">
        <ele>220.899993896</ele>
        <time>2015-07-06T08:50:15.012Z</time>
      </trkpt>
      <trkpt lat="45.97237" lon="4.79805">
        <ele>221.100006104</ele>
        <time>2015-07-06T08:50:16.105Z</time>
      </trkpt>
      <trkpt lat="45.97238" lon="4.79813">
        <ele>221.300003052</ele>
        <time>2015-07-06T08:50:17.075Z</time>
      </trkpt>
      <trkpt lat="45.97238" lon="4.79822">
        <ele>220.5</ele>
        <time>2015-07-06T08:50:18.064Z</time>
      </trkpt>
      <trkpt lat="45.97238" lon="4.79831">
        <ele>220.199996948</ele>
        <time>2015-07-06T08:50:19.012Z</time>
      </trkpt>
      <trkpt lat="45.97238" lon="4.79838">
        <ele>220.199996948</ele>
        <time>2015-07-06T08:50:20.034Z</time>
      </trkpt>
      <trkpt lat="45.9724" lon="4.79846">
        <ele>220</ele>
        <time>2015-07-06T08:50:21.012Z</time>
      </trkpt>
      <trkpt lat="45.97243" lon="4.79857">
        <ele>220.100006104</ele>
        <time>2015-07-06T08:50:22.013Z</time>
      </trkpt>
      <trkpt lat="45.97245" lon="4.79866">
        <ele>220.300003052</ele>
        <time>2015-07-06T08:50:23.006Z</time>
      </trkpt>
      <trkpt lat="45.97248" lon="4.79876">
        <ele>220.300003052</ele>
        <time>2015-07-06T08:50:24.007Z</time>
      </trkpt>
      <trkpt lat="45.97249" lon="4.79882">
        <ele>220</ele>
        <time>2015-07-06T08:50:25.02Z</time>
      </trkpt>
      <trkpt lat="45.97253" lon="4.79888">
        <ele>220.399993896</ele>
        <time>2015-07-06T08:50:26.012Z</time>
      </trkpt>
      <trkpt lat="45.97255" lon="4.79896">
        <ele>220</ele>
        <time>2015-07-06T08:50:27.008Z</time>
      </trkpt>
      <trkpt lat="45.97258" lon="4.79903">
        <ele>220</ele>
        <time>2015-07-06T08:50:28.008Z</time>
      </trkpt>
      <trkpt lat="45.97265" lon="4.79907">
        <ele>219.699996948</ele>
        <time>2015-07-06T08:50:30.011Z</time>
      </trkpt>
      <trkpt lat="45.97267" lon="4.79909">
        <ele>219.699996948</ele>
        <time>2015-07-06T08:50:31.037Z</time>
      </trkpt>
      <trkpt lat="45.97261" lon="4.79918">
        <ele>217.899993896</ele>
        <time>2015-07-06T08:50:36.011Z</time>
      </trkpt>
      <trkpt lat="45.9726" lon="4.7992">
        <ele>218.199996948</ele>
        <time>2015-07-06T08:50:37.012Z</time>
      </trkpt>
      <trkpt lat="45.97266" lon="4.79922">
        <ele>218.100006104</ele>
        <time>2015-07-06T08:50:41.008Z</time>
      </trkpt>
      <trkpt lat="45.9727" lon="4.79922">
        <ele>218</ele>
        <time>2015-07-06T08:50:42.018Z</time>
      </trkpt>
      <trkpt lat="45.97278" lon="4.7992">
        <ele>217.600006104</ele>
        <time>2015-07-06T08:50:44.007Z</time>
      </trkpt>
      <trkpt lat="45.97282" lon="4.79919">
        <ele>217.699996948</ele>
        <time>2015-07-06T08:50:45.005Z</time>
      </trkpt>
      <trkpt lat="45.9729" lon="4.79917">
        <ele>217.5</ele>
        <time>2015-07-06T08:50:47.006Z</time>
      </trkpt>
      <trkpt lat="45.97295" lon="4.79918">
        <ele>217</ele>
        <time>2015-07-06T08:50:48.03Z</time>
      </trkpt>
      <trkpt lat="45.973" lon="4.79918">
        <ele>217.100006104</ele>
        <time>2015-07-06T08:50:49.007Z</time>
      </trkpt>
      <trkpt lat="45.97305" lon="4.79917">
        <ele>217</ele>
        <time>2015-07-06T08:50:50.005Z</time>
      </trkpt>
      <trkpt lat="45.9731" lon="4.79917">
        <ele>216.399993896</ele>
        <time>2015-07-06T08:50:51.092Z</time>
      </trkpt>
      <trkpt lat="45.97315" lon="4.79916">
        <ele>215.899993896</ele>
        <time>2015-07-06T08:50:52.007Z</time>
      </trkpt>
      <trkpt lat="45.97321" lon="4.79915">
        <ele>216.5</ele>
        <time>2015-07-06T08:50:53.006Z</time>
      </trkpt>
      <trkpt lat="45.97326" lon="4.79914">
        <ele>216.800003052</ele>
        <time>2015-07-06T08:50:54.008Z</time>
      </trkpt>
      <trkpt lat="45.97331" lon="4.79913">
        <ele>216.800003052</ele>
        <time>2015-07-06T08:50:55.005Z</time>
      </trkpt>
      <trkpt lat="45.97336" lon="4.79912">
        <ele>217.100006104</ele>
        <time>2015-07-06T08:50:56.039Z</time>
      </trkpt>
      <trkpt lat="45.97342" lon="4.79912">
        <ele>218.100006104</ele>
        <time>2015-07-06T08:50:57.005Z</time>
      </trkpt>
      <trkpt lat="45.97347" lon="4.79911">
        <ele>218.399993896</ele>
        <time>2015-07-06T08:50:58.007Z</time>
      </trkpt>
      <trkpt lat="45.97352" lon="4.79909">
        <ele>218.699996948</ele>
        <time>2015-07-06T08:50:59.005Z</time>
      </trkpt>
      <trkpt lat="45.97356" lon="4.79909">
        <ele>218.800003052</ele>
        <time>2015-07-06T08:51:00.032Z</time>
      </trkpt>
      <trkpt lat="45.97364" lon="4.79908">
        <ele>218.800003052</ele>
        <time>2015-07-06T08:51:02.042Z</time>
      </trkpt>
      <trkpt lat="45.97368" lon="4.79908">
        <ele>219.100006104</ele>
        <time>2015-07-06T08:51:03.005Z</time>
      </trkpt>
      <trkpt lat="45.97376" lon="4.79905">
        <ele>219.899993896</ele>
        <time>2015-07-06T08:51:05.011Z</time>
      </trkpt>
      <trkpt lat="45.9738" lon="4.79904">
        <ele>220.399993896</ele>
        <time>2015-07-06T08:51:06.007Z</time>
      </trkpt>
      <trkpt lat="45.97387" lon="4.79901">
        <ele>221.100006104</ele>
        <time>2015-07-06T08:51:08.006Z</time>
      </trkpt>
      <trkpt lat="45.97391" lon="4.79899">
        <ele>222.199996948</ele>
        <time>2015-07-06T08:51:08.995Z</time>
      </trkpt>
      <trkpt lat="45.97399" lon="4.79899">
        <ele>222.100006104</ele>
        <time>2015-07-06T08:51:11.008Z</time>
      </trkpt>
      <trkpt lat="45.97404" lon="4.79898">
        <ele>221.600006104</ele>
        <time>2015-07-06T08:51:12.008Z</time>
      </trkpt>
      <trkpt lat="45.97413" lon="4.799">
        <ele>220.800003052</ele>
        <time>2015-07-06T08:51:14.249Z</time>
      </trkpt>
      <trkpt lat="45.97417" lon="4.79899">
        <ele>218.399993896</ele>
        <time>2015-07-06T08:51:15.007Z</time>
      </trkpt>
      <trkpt lat="45.97422" lon="4.79897">
        <ele>216.800003052</ele>
        <time>2015-07-06T08:51:16.009Z</time>
      </trkpt>
      <trkpt lat="45.97427" lon="4.79897">
        <ele>218.199996948</ele>
        <time>2015-07-06T08:51:17.011Z</time>
      </trkpt>
      <trkpt lat="45.97435" lon="4.79895">
        <ele>218.199996948</ele>
        <time>2015-07-06T08:51:19.112Z</time>
      </trkpt>
      <trkpt lat="45.9744" lon="4.79894">
        <ele>217.100006104</ele>
        <time>2015-07-06T08:51:20.025Z</time>
      </trkpt>
      <trkpt lat="45.97448" lon="4.79894">
        <ele>216.699996948</ele>
        <time>2015-07-06T08:51:22.012Z</time>
      </trkpt>
      <trkpt lat="45.97452" lon="4.79895">
        <ele>215.899993896</ele>
        <time>2015-07-06T08:51:23.162Z</time>
      </trkpt>
      <trkpt lat="45.9746" lon="4.79895">
        <ele>215.800003052</ele>
        <time>2015-07-06T08:51:25.01Z</time>
      </trkpt>
      <trkpt lat="45.97464" lon="4.79895">
        <ele>216.100006104</ele>
        <time>2015-07-06T08:51:26.012Z</time>
      </trkpt>
      <trkpt lat="45.97473" lon="4.79893">
        <ele>216.899993896</ele>
        <time>2015-07-06T08:51:28.007Z</time>
      </trkpt>
      <trkpt lat="45.97477" lon="4.79894">
        <ele>217.399993896</ele>
        <time>2015-07-06T08:51:29.007Z</time>
      </trkpt>
      <trkpt lat="45.97485" lon="4.79894">
        <ele>217</ele>
        <time>2015-07-06T08:51:31.099Z</time>
      </trkpt>
      <trkpt lat="45.9749" lon="4.79894">
        <ele>215.800003052</ele>
        <time>2015-07-06T08:51:32.129Z</time>
      </trkpt>
      <trkpt lat="45.97498" lon="4.79892">
        <ele>214.899993896</ele>
        <time>2015-07-06T08:51:34.006Z</time>
      </trkpt>
      <trkpt lat="45.975" lon="4.79891">
        <ele>215.100006104</ele>
        <time>2015-07-06T08:51:35.009Z</time>
      </trkpt>
      <trkpt lat="45.97507" lon="4.7989">
        <ele>215.699996948</ele>
        <time>2015-07-06T08:51:37.021Z</time>
      </trkpt>
      <trkpt lat="45.9751" lon="4.7989">
        <ele>216.399993896</ele>
        <time>2015-07-06T08:51:38.052Z</time>
      </trkpt>
      <trkpt lat="45.97516" lon="4.7989">
        <ele>216.600006104</ele>
        <time>2015-07-06T08:51:40.022Z</time>
      </trkpt>
      <trkpt lat="45.9752" lon="4.7989">
        <ele>217.100006104</ele>
        <time>2015-07-06T08:51:41.042Z</time>
      </trkpt>
      <trkpt lat="45.97526" lon="4.79889">
        <ele>217.699996948</ele>
        <time>2015-07-06T08:51:43.022Z</time>
      </trkpt>
      <trkpt lat="45.97529" lon="4.79889">
        <ele>218.399993896</ele>
        <time>2015-07-06T08:51:44.016Z</time>
      </trkpt>
      <trkpt lat="45.97536" lon="4.79887">
        <ele>218.699996948</ele>
        <time>2015-07-06T08:51:46.012Z</time>
      </trkpt>
      <trkpt lat="45.97539" lon="4.79887">
        <ele>218.699996948</ele>
        <time>2015-07-06T08:51:47.01Z</time>
      </trkpt>
      <trkpt lat="45.97546" lon="4.79885">
        <ele>218.5</ele>
        <time>2015-07-06T08:51:49.028Z</time>
      </trkpt>
      <trkpt lat="45.97549" lon="4.79884">
        <ele>218.800003052</ele>
        <time>2015-07-06T08:51:50.008Z</time>
      </trkpt>
      <trkpt lat="45.97556" lon="4.79883">
        <ele>219.5</ele>
        <time>2015-07-06T08:51:52.012Z</time>
      </trkpt>
      <trkpt lat="45.97559" lon="4.79883">
        <ele>220.199996948</ele>
        <time>2015-07-06T08:51:53.01Z</time>
      </trkpt>
      <trkpt lat="45.97567" lon="4.79881">
        <ele>221.399993896</ele>
        <time>2015-07-06T08:51:55.018Z</time>
      </trkpt>
      <trkpt lat="45.9757" lon="4.79879">
        <ele>221.899993896</ele>
        <time>2015-07-06T08:51:56.013Z</time>
      </trkpt>
      <trkpt lat="45.97577" lon="4.79877">
        <ele>222.5</ele>
        <time>2015-07-06T08:51:58.012Z</time>
      </trkpt>
      <trkpt lat="45.9758" lon="4.79876">
        <ele>223.199996948</ele>
        <time>2015-07-06T08:51:59.01Z</time>
      </trkpt>
      <trkpt lat="45.97587" lon="4.79872">
        <ele>223.5</ele>
        <time>2015-07-06T08:52:01.097Z</time>
      </trkpt>
      <trkpt lat="45.9759" lon="4.79871">
        <ele>224.399993896</ele>
        <time>2015-07-06T08:52:02.024Z</time>
      </trkpt>
      <trkpt lat="45.97597" lon="4.79869">
        <ele>225.5</ele>
        <time>2015-07-06T08:52:04.018Z</time>
      </trkpt>
      <trkpt lat="45.97601" lon="4.79868">
        <ele>225.300003052</ele>
        <time>2015-07-06T08:52:05.009Z</time>
      </trkpt>
      <trkpt lat="45.97608" lon="4.79865">
        <ele>225.600006104</ele>
        <time>2015-07-06T08:52:07.01Z</time>
      </trkpt>
      <trkpt lat="45.97612" lon="4.79864">
        <ele>225.699996948</ele>
        <time>2015-07-06T08:52:08.01Z</time>
      </trkpt>
      <trkpt lat="45.97619" lon="4.79861">
        <ele>226.100006104</ele>
        <time>2015-07-06T08:52:10.007Z</time>
      </trkpt>
      <trkpt lat="45.97623" lon="4.7986">
        <ele>226.100006104</ele>
        <time>2015-07-06T08:52:11.008Z</time>
      </trkpt>
      <trkpt lat="45.97631" lon="4.79856">
        <ele>226.399993896</ele>
        <time>2015-07-06T08:52:13.011Z</time>
      </trkpt>
      <trkpt lat="45.97635" lon="4.79855">
        <ele>226.5</ele>
        <time>2015-07-06T08:52:14.011Z</time>
      </trkpt>
      <trkpt lat="45.97642" lon="4.79854">
        <ele>227.5</ele>
        <time>2015-07-06T08:52:16.007Z</time>
      </trkpt>
      <trkpt lat="45.97646" lon="4.79853">
        <ele>227.800003052</ele>
        <time>2015-07-06T08:52:17.007Z</time>
      </trkpt>
      <trkpt lat="45.97654" lon="4.7985">
        <ele>228.300003052</ele>
        <time>2015-07-06T08:52:19.009Z</time>
      </trkpt>
      <trkpt lat="45.97658" lon="4.79848">
        <ele>228.600006104</ele>
        <time>2015-07-06T08:52:20.026Z</time>
      </trkpt>
      <trkpt lat="45.97667" lon="4.79846">
        <ele>229.399993896</ele>
        <time>2015-07-06T08:52:22.05Z</time>
      </trkpt>
      <trkpt lat="45.97671" lon="4.79845">
        <ele>229.399993896</ele>
        <time>2015-07-06T08:52:23.033Z</time>
      </trkpt>
      <trkpt lat="45.97676" lon="4.79843">
        <ele>229.399993896</ele>
        <time>2015-07-06T08:52:24.012Z</time>
      </trkpt>
      <trkpt lat="45.9768" lon="4.79842">
        <ele>229.100006104</ele>
        <time>2015-07-06T08:52:25.007Z</time>
      </trkpt>
      <trkpt lat="45.97685" lon="4.79841">
        <ele>229</ele>
        <time>2015-07-06T08:52:26.008Z</time>
      </trkpt>
      <trkpt lat="45.97689" lon="4.7984">
        <ele>229.100006104</ele>
        <time>2015-07-06T08:52:27.01Z</time>
      </trkpt>
      <trkpt lat="45.97693" lon="4.7984">
        <ele>229.800003052</ele>
        <time>2015-07-06T08:52:28.032Z</time>
      </trkpt>
      <trkpt lat="45.97698" lon="4.79839">
        <ele>230</ele>
        <time>2015-07-06T08:52:29.007Z</time>
      </trkpt>
      <trkpt lat="45.97703" lon="4.79839">
        <ele>230.199996948</ele>
        <time>2015-07-06T08:52:30.011Z</time>
      </trkpt>
      <trkpt lat="45.97708" lon="4.79839">
        <ele>230.899993896</ele>
        <time>2015-07-06T08:52:31.024Z</time>
      </trkpt>
      <trkpt lat="45.97716" lon="4.79839">
        <ele>232.100006104</ele>
        <time>2015-07-06T08:52:33.011Z</time>
      </trkpt>
      <trkpt lat="45.9772" lon="4.79838">
        <ele>232.399993896</ele>
        <time>2015-07-06T08:52:34.011Z</time>
      </trkpt>
      <trkpt lat="45.97725" lon="4.79836">
        <ele>232.199996948</ele>
        <time>2015-07-06T08:52:35.007Z</time>
      </trkpt>
      <trkpt lat="45.9773" lon="4.79835">
        <ele>232.100006104</ele>
        <time>2015-07-06T08:52:36.01Z</time>
      </trkpt>
      <trkpt lat="45.97734" lon="4.79834">
        <ele>232.399993896</ele>
        <time>2015-07-06T08:52:37.01Z</time>
      </trkpt>
      <trkpt lat="45.97739" lon="4.79833">
        <ele>232.600006104</ele>
        <time>2015-07-06T08:52:38.01Z</time>
      </trkpt>
      <trkpt lat="45.97744" lon="4.79833">
        <ele>232.899993896</ele>
        <time>2015-07-06T08:52:39.006Z</time>
      </trkpt>
      <trkpt lat="45.97749" lon="4.79833">
        <ele>233.100006104</ele>
        <time>2015-07-06T08:52:40.006Z</time>
      </trkpt>
      <trkpt lat="45.97754" lon="4.79832">
        <ele>233</ele>
        <time>2015-07-06T08:52:41.007Z</time>
      </trkpt>
      <trkpt lat="45.9776" lon="4.79831">
        <ele>232.699996948</ele>
        <time>2015-07-06T08:52:42.003Z</time>
      </trkpt>
      <trkpt lat="45.97765" lon="4.7983">
        <ele>232.800003052</ele>
        <time>2015-07-06T08:52:43.006Z</time>
      </trkpt>
      <trkpt lat="45.9777" lon="4.7983">
        <ele>233</ele>
        <time>2015-07-06T08:52:44.011Z</time>
      </trkpt>
      <trkpt lat="45.97775" lon="4.79829">
        <ele>232.899993896</ele>
        <time>2015-07-06T08:52:45.009Z</time>
      </trkpt>
      <trkpt lat="45.9778" lon="4.79828">
        <ele>232.600006104</ele>
        <time>2015-07-06T08:52:46.086Z</time>
      </trkpt>
      <trkpt lat="45.97787" lon="4.79822">
        <ele>231.600006104</ele>
        <time>2015-07-06T08:52:48.208Z</time>
      </trkpt>
      <trkpt lat="45.97793" lon="4.7982">
        <ele>231.800003052</ele>
        <time>2015-07-06T08:52:49.013Z</time>
      </trkpt>
      <trkpt lat="45.97799" lon="4.7982">
        <ele>231.699996948</ele>
        <time>2015-07-06T08:52:50.282Z</time>
      </trkpt>
      <trkpt lat="45.97803" lon="4.79819">
        <ele>232.199996948</ele>
        <time>2015-07-06T08:52:51.103Z</time>
      </trkpt>
      <trkpt lat="45.97809" lon="4.79818">
        <ele>232.699996948</ele>
        <time>2015-07-06T08:52:52.214Z</time>
      </trkpt>
      <trkpt lat="45.97815" lon="4.79817">
        <ele>232.5</ele>
        <time>2015-07-06T08:52:53.009Z</time>
      </trkpt>
      <trkpt lat="45.97821" lon="4.79817">
        <ele>231.899993896</ele>
        <time>2015-07-06T08:52:54.018Z</time>
      </trkpt>
      <trkpt lat="45.97828" lon="4.79818">
        <ele>231.600006104</ele>
        <time>2015-07-06T08:52:55.014Z</time>
      </trkpt>
      <trkpt lat="45.97837" lon="4.7982">
        <ele>230.899993896</ele>
        <time>2015-07-06T08:52:56.011Z</time>
      </trkpt>
      <trkpt lat="45.97846" lon="4.79825">
        <ele>230.300003052</ele>
        <time>2015-07-06T08:52:57.012Z</time>
      </trkpt>
      <trkpt lat="45.97851" lon="4.79815">
        <ele>230.899993896</ele>
        <time>2015-07-06T08:53:00.041Z</time>
      </trkpt>
      <trkpt lat="45.97856" lon="4.79815">
        <ele>229.899993896</ele>
        <time>2015-07-06T08:53:01.01Z</time>
      </trkpt>
      <trkpt lat="45.9786" lon="4.79814">
        <ele>229.300003052</ele>
        <time>2015-07-06T08:53:02.032Z</time>
      </trkpt>
      <trkpt lat="45.97865" lon="4.79812">
        <ele>229</ele>
        <time>2015-07-06T08:53:03.027Z</time>
      </trkpt>
      <trkpt lat="45.9787" lon="4.79811">
        <ele>228.399993896</ele>
        <time>2015-07-06T08:53:04.01Z</time>
      </trkpt>
      <trkpt lat="45.97874" lon="4.7981">
        <ele>228.199996948</ele>
        <time>2015-07-06T08:53:05.01Z</time>
      </trkpt>
      <trkpt lat="45.9788" lon="4.7981">
        <ele>228.100006104</ele>
        <time>2015-07-06T08:53:06.014Z</time>
      </trkpt>
      <trkpt lat="45.97884" lon="4.79809">
        <ele>228</ele>
        <time>2015-07-06T08:53:07.009Z</time>
      </trkpt>
      <trkpt lat="45.97889" lon="4.79808">
        <ele>227.800003052</ele>
        <time>2015-07-06T08:53:08.01Z</time>
      </trkpt>
      <trkpt lat="45.97895" lon="4.79806">
        <ele>227.699996948</ele>
        <time>2015-07-06T08:53:09.009Z</time>
      </trkpt>
      <trkpt lat="45.979" lon="4.79805">
        <ele>227.5</ele>
        <time>2015-07-06T08:53:10.007Z</time>
      </trkpt>
      <trkpt lat="45.97906" lon="4.79804">
        <ele>227.199996948</ele>
        <time>2015-07-06T08:53:11.011Z</time>
      </trkpt>
      <trkpt lat="45.97911" lon="4.79803">
        <ele>227.100006104</ele>
        <time>2015-07-06T08:53:12.013Z</time>
      </trkpt>
      <trkpt lat="45.97916" lon="4.79803">
        <ele>226.699996948</ele>
        <time>2015-07-06T08:53:13.008Z</time>
      </trkpt>
      <trkpt lat="45.97921" lon="4.79802">
        <ele>227.100006104</ele>
        <time>2015-07-06T08:53:14.011Z</time>
      </trkpt>
      <trkpt lat="45.97926" lon="4.79801">
        <ele>227.199996948</ele>
        <time>2015-07-06T08:53:15.006Z</time>
      </trkpt>
      <trkpt lat="45.97931" lon="4.79801">
        <ele>227.199996948</ele>
        <time>2015-07-06T08:53:16.011Z</time>
      </trkpt>
      <trkpt lat="45.97937" lon="4.79799">
        <ele>227.600006104</ele>
        <time>2015-07-06T08:53:17.029Z</time>
      </trkpt>
      <trkpt lat="45.97942" lon="4.79798">
        <ele>228.300003052</ele>
        <time>2015-07-06T08:53:18.051Z</time>
      </trkpt>
      <trkpt lat="45.97948" lon="4.79797">
        <ele>228.300003052</ele>
        <time>2015-07-06T08:53:19.007Z</time>
      </trkpt>
      <trkpt lat="45.97954" lon="4.79795">
        <ele>227.899993896</ele>
        <time>2015-07-06T08:53:20.007Z</time>
      </trkpt>
      <trkpt lat="45.9796" lon="4.79794">
        <ele>228</ele>
        <time>2015-07-06T08:53:21.007Z</time>
      </trkpt>
      <trkpt lat="45.97965" lon="4.79793">
        <ele>228.399993896</ele>
        <time>2015-07-06T08:53:22.01Z</time>
      </trkpt>
      <trkpt lat="45.9797" lon="4.79794">
        <ele>229</ele>
        <time>2015-07-06T08:53:23.319Z</time>
      </trkpt>
      <trkpt lat="45.97978" lon="4.79794">
        <ele>228.300003052</ele>
        <time>2015-07-06T08:53:24.029Z</time>
      </trkpt>
      <trkpt lat="45.97983" lon="4.79795">
        <ele>228.5</ele>
        <time>2015-07-06T08:53:25.009Z</time>
      </trkpt>
      <trkpt lat="45.97988" lon="4.79794">
        <ele>227.800003052</ele>
        <time>2015-07-06T08:53:26.037Z</time>
      </trkpt>
      <trkpt lat="45.97994" lon="4.79789">
        <ele>226.199996948</ele>
        <time>2015-07-06T08:53:27.015Z</time>
      </trkpt>
      <trkpt lat="45.97998" lon="4.79789">
        <ele>225</ele>
        <time>2015-07-06T08:53:28.136Z</time>
      </trkpt>
      <trkpt lat="45.98005" lon="4.79787">
        <ele>225.100006104</ele>
        <time>2015-07-06T08:53:29.134Z</time>
      </trkpt>
      <trkpt lat="45.9801" lon="4.79785">
        <ele>224.5</ele>
        <time>2015-07-06T08:53:30.03Z</time>
      </trkpt>
      <trkpt lat="45.98016" lon="4.79784">
        <ele>224.399993896</ele>
        <time>2015-07-06T08:53:31.01Z</time>
      </trkpt>
      <trkpt lat="45.98021" lon="4.79783">
        <ele>224.399993896</ele>
        <time>2015-07-06T08:53:32.012Z</time>
      </trkpt>
      <trkpt lat="45.98026" lon="4.79783">
        <ele>224.399993896</ele>
        <time>2015-07-06T08:53:33.042Z</time>
      </trkpt>
      <trkpt lat="45.98031" lon="4.79782">
        <ele>224.699996948</ele>
        <time>2015-07-06T08:53:34.012Z</time>
      </trkpt>
      <trkpt lat="45.98036" lon="4.79782">
        <ele>224.699996948</ele>
        <time>2015-07-06T08:53:35.012Z</time>
      </trkpt>
      <trkpt lat="45.98041" lon="4.79781">
        <ele>224.899993896</ele>
        <time>2015-07-06T08:53:36.013Z</time>
      </trkpt>
      <trkpt lat="45.98047" lon="4.7978">
        <ele>225.100006104</ele>
        <time>2015-07-06T08:53:37.007Z</time>
      </trkpt>
      <trkpt lat="45.98052" lon="4.79779">
        <ele>224.100006104</ele>
        <time>2015-07-06T08:53:38.012Z</time>
      </trkpt>
      <trkpt lat="45.98057" lon="4.79778">
        <ele>223.899993896</ele>
        <time>2015-07-06T08:53:39.011Z</time>
      </trkpt>
      <trkpt lat="45.98062" lon="4.79778">
        <ele>223.5</ele>
        <time>2015-07-06T08:53:40.025Z</time>
      </trkpt>
      <trkpt lat="45.98067" lon="4.79776">
        <ele>224.100006104</ele>
        <time>2015-07-06T08:53:41.007Z</time>
      </trkpt>
      <trkpt lat="45.98072" lon="4.79775">
        <ele>223.399993896</ele>
        <time>2015-07-06T08:53:42.011Z</time>
      </trkpt>
      <trkpt lat="45.98077" lon="4.79775">
        <ele>223.399993896</ele>
        <time>2015-07-06T08:53:43.007Z</time>
      </trkpt>
      <trkpt lat="45.98081" lon="4.79776">
        <ele>224</ele>
        <time>2015-07-06T08:53:44.008Z</time>
      </trkpt>
      <trkpt lat="45.98086" lon="4.79776">
        <ele>224.199996948</ele>
        <time>2015-07-06T08:53:45.072Z</time>
      </trkpt>
      <trkpt lat="45.98091" lon="4.79776">
        <ele>224.100006104</ele>
        <time>2015-07-06T08:53:46.007Z</time>
      </trkpt>
      <trkpt lat="45.98096" lon="4.79774">
        <ele>224.300003052</ele>
        <time>2015-07-06T08:53:47.007Z</time>
      </trkpt>
      <trkpt lat="45.98104" lon="4.79772">
        <ele>224</ele>
        <time>2015-07-06T08:53:49.01Z</time>
      </trkpt>
      <trkpt lat="45.98109" lon="4.79771">
        <ele>224.399993896</ele>
        <time>2015-07-06T08:53:50.009Z</time>
      </trkpt>
      <trkpt lat="45.98117" lon="4.7977">
        <ele>225.600006104</ele>
        <time>2015-07-06T08:53:52.009Z</time>
      </trkpt>
      <trkpt lat="45.98121" lon="4.79769">
        <ele>226.199996948</ele>
        <time>2015-07-06T08:53:53.007Z</time>
      </trkpt>
      <trkpt lat="45.98129" lon="4.79769">
        <ele>228.300003052</ele>
        <time>2015-07-06T08:53:55.009Z</time>
      </trkpt>
      <trkpt lat="45.98132" lon="4.79769">
        <ele>229.399993896</ele>
        <time>2015-07-06T08:53:56.025Z</time>
      </trkpt>
      <trkpt lat="45.9814" lon="4.79766">
        <ele>229.600006104</ele>
        <time>2015-07-06T08:53:58.007Z</time>
      </trkpt>
      <trkpt lat="45.98144" lon="4.79766">
        <ele>229.600006104</ele>
        <time>2015-07-06T08:53:59.008Z</time>
      </trkpt>
      <trkpt lat="45.98152" lon="4.79766">
        <ele>230</ele>
        <time>2015-07-06T08:54:01.007Z</time>
      </trkpt>
      <trkpt lat="45.98156" lon="4.79766">
        <ele>229.5</ele>
        <time>2015-07-06T08:54:02.013Z</time>
      </trkpt>
      <trkpt lat="45.98164" lon="4.7977">
        <ele>229.899993896</ele>
        <time>2015-07-06T08:54:04.007Z</time>
      </trkpt>
      <trkpt lat="45.98167" lon="4.79772">
        <ele>229.600006104</ele>
        <time>2015-07-06T08:54:05.009Z</time>
      </trkpt>
      <trkpt lat="45.98173" lon="4.7978">
        <ele>230</ele>
        <time>2015-07-06T08:54:07.008Z</time>
      </trkpt>
      <trkpt lat="45.98175" lon="4.79784">
        <ele>230.199996948</ele>
        <time>2015-07-06T08:54:08.011Z</time>
      </trkpt>
      <trkpt lat="45.98178" lon="4.79794">
        <ele>231.600006104</ele>
        <time>2015-07-06T08:54:10.01Z</time>
      </trkpt>
      <trkpt lat="45.98179" lon="4.79798">
        <ele>231.699996948</ele>
        <time>2015-07-06T08:54:11.031Z</time>
      </trkpt>
      <trkpt lat="45.98182" lon="4.79804">
        <ele>231.5</ele>
        <time>2015-07-06T08:54:12.031Z</time>
      </trkpt>
      <trkpt lat="45.98185" lon="4.79811">
        <ele>231.600006104</ele>
        <time>2015-07-06T08:54:13.009Z</time>
      </trkpt>
      <trkpt lat="45.98187" lon="4.79818">
        <ele>231.399993896</ele>
        <time>2015-07-06T08:54:14.008Z</time>
      </trkpt>
      <trkpt lat="45.98189" lon="4.79825">
        <ele>231.699996948</ele>
        <time>2015-07-06T08:54:15.01Z</time>
      </trkpt>
      <trkpt lat="45.98191" lon="4.79832">
        <ele>231.899993896</ele>
        <time>2015-07-06T08:54:16.007Z</time>
      </trkpt>
      <trkpt lat="45.98194" lon="4.7984">
        <ele>232</ele>
        <time>2015-07-06T08:54:17.007Z</time>
      </trkpt>
      <trkpt lat="45.98197" lon="4.79847">
        <ele>232.100006104</ele>
        <time>2015-07-06T08:54:18.054Z</time>
      </trkpt>
      <trkpt lat="45.982" lon="4.79855">
        <ele>231.800003052</ele>
        <time>2015-07-06T08:54:19.052Z</time>
      </trkpt>
      <trkpt lat="45.98203" lon="4.79863">
        <ele>231.899993896</ele>
        <time>2015-07-06T08:54:20.008Z</time>
      </trkpt>
      <trkpt lat="45.98206" lon="4.79871">
        <ele>232</ele>
        <time>2015-07-06T08:54:21.007Z</time>
      </trkpt>
      <trkpt lat="45.98209" lon="4.79879">
        <ele>232</ele>
        <time>2015-07-06T08:54:22.01Z</time>
      </trkpt>
      <trkpt lat="45.98212" lon="4.79886">
        <ele>232.300003052</ele>
        <time>2015-07-06T08:54:23.012Z</time>
      </trkpt>
      <trkpt lat="45.98215" lon="4.79893">
        <ele>232.399993896</ele>
        <time>2015-07-06T08:54:24.013Z</time>
      </trkpt>
      <trkpt lat="45.98218" lon="4.79901">
        <ele>232.600006104</ele>
        <time>2015-07-06T08:54:25.009Z</time>
      </trkpt>
      <trkpt lat="45.98222" lon="4.79909">
        <ele>233</ele>
        <time>2015-07-06T08:54:26.011Z</time>
      </trkpt>
      <trkpt lat="45.98227" lon="4.79918">
        <ele>233.399993896</ele>
        <time>2015-07-06T08:54:27.01Z</time>
      </trkpt>
      <trkpt lat="45.98232" lon="4.79931">
        <ele>233.699996948</ele>
        <time>2015-07-06T08:54:28.053Z</time>
      </trkpt>
      <trkpt lat="45.98238" lon="4.79942">
        <ele>234.100006104</ele>
        <time>2015-07-06T08:54:29.274Z</time>
      </trkpt>
      <trkpt lat="45.98242" lon="4.79951">
        <ele>234.399993896</ele>
        <time>2015-07-06T08:54:30.112Z</time>
      </trkpt>
      <trkpt lat="45.98247" lon="4.7996">
        <ele>234.600006104</ele>
        <time>2015-07-06T08:54:31.007Z</time>
      </trkpt>
      <trkpt lat="45.98251" lon="4.79969">
        <ele>234.899993896</ele>
        <time>2015-07-06T08:54:32.01Z</time>
      </trkpt>
      <trkpt lat="45.98254" lon="4.79977">
        <ele>235.100006104</ele>
        <time>2015-07-06T08:54:33.175Z</time>
      </trkpt>
      <trkpt lat="45.9826" lon="4.79985">
        <ele>235.300003052</ele>
        <time>2015-07-06T08:54:34.107Z</time>
      </trkpt>
      <trkpt lat="45.98267" lon="4.79995">
        <ele>235.399993896</ele>
        <time>2015-07-06T08:54:35.012Z</time>
      </trkpt>
      <trkpt lat="45.98272" lon="4.80004">
        <ele>235.600006104</ele>
        <time>2015-07-06T08:54:36.011Z</time>
      </trkpt>
      <trkpt lat="45.9828" lon="4.80013">
        <ele>235.5</ele>
        <time>2015-07-06T08:54:37.01Z</time>
      </trkpt>
      <trkpt lat="45.98289" lon="4.80024">
        <ele>235.699996948</ele>
        <time>2015-07-06T08:54:38.01Z</time>
      </trkpt>
      <trkpt lat="45.98297" lon="4.80034">
        <ele>235.699996948</ele>
        <time>2015-07-06T08:54:39.011Z</time>
      </trkpt>
      <trkpt lat="45.98261" lon="4.80007">
        <ele>236.800003052</ele>
        <time>2015-07-06T08:54:40.009Z</time>
      </trkpt>
      <trkpt lat="45.98261" lon="4.80012">
        <ele>237</ele>
        <time>2015-07-06T08:54:41.011Z</time>
      </trkpt>
      <trkpt lat="45.98263" lon="4.80021">
        <ele>236.699996948</ele>
        <time>2015-07-06T08:54:42.016Z</time>
      </trkpt>
      <trkpt lat="45.98267" lon="4.80031">
        <ele>236.600006104</ele>
        <time>2015-07-06T08:54:43.014Z</time>
      </trkpt>
      <trkpt lat="45.98271" lon="4.8004">
        <ele>235.800003052</ele>
        <time>2015-07-06T08:54:44.026Z</time>
      </trkpt>
      <trkpt lat="45.98274" lon="4.80048">
        <ele>235.300003052</ele>
        <time>2015-07-06T08:54:45.046Z</time>
      </trkpt>
      <trkpt lat="45.98277" lon="4.80056">
        <ele>234.5</ele>
        <time>2015-07-06T08:54:46.023Z</time>
      </trkpt>
      <trkpt lat="45.98279" lon="4.80064">
        <ele>234.699996948</ele>
        <time>2015-07-06T08:54:47.012Z</time>
      </trkpt>
      <trkpt lat="45.98281" lon="4.80071">
        <ele>234.699996948</ele>
        <time>2015-07-06T08:54:48.108Z</time>
      </trkpt>
      <trkpt lat="45.98283" lon="4.80079">
        <ele>234.800003052</ele>
        <time>2015-07-06T08:54:49.032Z</time>
      </trkpt>
      <trkpt lat="45.98285" lon="4.80086">
        <ele>234.800003052</ele>
        <time>2015-07-06T08:54:50.014Z</time>
      </trkpt>
      <trkpt lat="45.98287" lon="4.80093">
        <ele>235.100006104</ele>
        <time>2015-07-06T08:54:51.008Z</time>
      </trkpt>
      <trkpt lat="45.98289" lon="4.801">
        <ele>235.199996948</ele>
        <time>2015-07-06T08:54:52.013Z</time>
      </trkpt>
      <trkpt lat="45.98292" lon="4.80106">
        <ele>235.199996948</ele>
        <time>2015-07-06T08:54:53.012Z</time>
      </trkpt>
      <trkpt lat="45.98294" lon="4.80112">
        <ele>235.300003052</ele>
        <time>2015-07-06T08:54:54.012Z</time>
      </trkpt>
      <trkpt lat="45.98296" lon="4.80118">
        <ele>235.199996948</ele>
        <time>2015-07-06T08:54:55.009Z</time>
      </trkpt>
      <trkpt lat="45.98298" lon="4.80125">
        <ele>235.199996948</ele>
        <time>2015-07-06T08:54:56.011Z</time>
      </trkpt>
      <trkpt lat="45.983" lon="4.80132">
        <ele>235.100006104</ele>
        <time>2015-07-06T08:54:57.007Z</time>
      </trkpt>
      <trkpt lat="45.98302" lon="4.80139">
        <ele>235.199996948</ele>
        <time>2015-07-06T08:54:58.01Z</time>
      </trkpt>
      <trkpt lat="45.98304" lon="4.80145">
        <ele>235.600006104</ele>
        <time>2015-07-06T08:54:59.011Z</time>
      </trkpt>
      <trkpt lat="45.98307" lon="4.80151">
        <ele>235.800003052</ele>
        <time>2015-07-06T08:55:00.04Z</time>
      </trkpt>
      <trkpt lat="45.98309" lon="4.80159">
        <ele>235.899993896</ele>
        <time>2015-07-06T08:55:01.007Z</time>
      </trkpt>
      <trkpt lat="45.98312" lon="4.80166">
        <ele>235.800003052</ele>
        <time>2015-07-06T08:55:02.042Z</time>
      </trkpt>
      <trkpt lat="45.98314" lon="4.80173">
        <ele>235.800003052</ele>
        <time>2015-07-06T08:55:03.012Z</time>
      </trkpt>
      <trkpt lat="45.98316" lon="4.80181">
        <ele>235.899993896</ele>
        <time>2015-07-06T08:55:04.008Z</time>
      </trkpt>
      <trkpt lat="45.98319" lon="4.80188">
        <ele>236.100006104</ele>
        <time>2015-07-06T08:55:05.051Z</time>
      </trkpt>
      <trkpt lat="45.9832" lon="4.80195">
        <ele>236.199996948</ele>
        <time>2015-07-06T08:55:06.012Z</time>
      </trkpt>
      <trkpt lat="45.98322" lon="4.80201">
        <ele>236.300003052</ele>
        <time>2015-07-06T08:55:07.007Z</time>
      </trkpt>
      <trkpt lat="45.98324" lon="4.80207">
        <ele>236.600006104</ele>
        <time>2015-07-06T08:55:08.013Z</time>
      </trkpt>
      <trkpt lat="45.98326" lon="4.80213">
        <ele>236.199996948</ele>
        <time>2015-07-06T08:55:09.012Z</time>
      </trkpt>
      <trkpt lat="45.98329" lon="4.80219">
        <ele>235.699996948</ele>
        <time>2015-07-06T08:55:10.01Z</time>
      </trkpt>
      <trkpt lat="45.9833" lon="4.80231">
        <ele>235.5</ele>
        <time>2015-07-06T08:55:12.009Z</time>
      </trkpt>
      <trkpt lat="45.98327" lon="4.80238">
        <ele>235.300003052</ele>
        <time>2015-07-06T08:55:13.009Z</time>
      </trkpt>
      <trkpt lat="45.98325" lon="4.80245">
        <ele>234.800003052</ele>
        <time>2015-07-06T08:55:14.01Z</time>
      </trkpt>
      <trkpt lat="45.98324" lon="4.8025">
        <ele>234.5</ele>
        <time>2015-07-06T08:55:15.008Z</time>
      </trkpt>
      <trkpt lat="45.98324" lon="4.80258">
        <ele>234.5</ele>
        <time>2015-07-06T08:55:16.01Z</time>
      </trkpt>
      <trkpt lat="45.98323" lon="4.80266">
        <ele>234.600006104</ele>
        <time>2015-07-06T08:55:17.009Z</time>
      </trkpt>
      <trkpt lat="45.98321" lon="4.80274">
        <ele>234.699996948</ele>
        <time>2015-07-06T08:55:18.017Z</time>
      </trkpt>
      <trkpt lat="45.98319" lon="4.80282">
        <ele>234.800003052</ele>
        <time>2015-07-06T08:55:19.007Z</time>
      </trkpt>
      <trkpt lat="45.98317" lon="4.80291">
        <ele>234.600006104</ele>
        <time>2015-07-06T08:55:20.01Z</time>
      </trkpt>
      <trkpt lat="45.98315" lon="4.803">
        <ele>234.600006104</ele>
        <time>2015-07-06T08:55:21.042Z</time>
      </trkpt>
      <trkpt lat="45.98313" lon="4.80308">
        <ele>234.5</ele>
        <time>2015-07-06T08:55:22.049Z</time>
      </trkpt>
      <trkpt lat="45.9831" lon="4.80317">
        <ele>234.199996948</ele>
        <time>2015-07-06T08:55:23.007Z</time>
      </trkpt>
      <trkpt lat="45.98308" lon="4.80326">
        <ele>233.899993896</ele>
        <time>2015-07-06T08:55:24.016Z</time>
      </trkpt>
      <trkpt lat="45.98306" lon="4.80336">
        <ele>233.399993896</ele>
        <time>2015-07-06T08:55:25.012Z</time>
      </trkpt>
      <trkpt lat="45.98304" lon="4.80345">
        <ele>233.399993896</ele>
        <time>2015-07-06T08:55:26.009Z</time>
      </trkpt>
      <trkpt lat="45.98303" lon="4.80354">
        <ele>233.300003052</ele>
        <time>2015-07-06T08:55:27.007Z</time>
      </trkpt>
      <trkpt lat="45.983" lon="4.80361">
        <ele>233.300003052</ele>
        <time>2015-07-06T08:55:28.007Z</time>
      </trkpt>
      <trkpt lat="45.98298" lon="4.8037">
        <ele>233.199996948</ele>
        <time>2015-07-06T08:55:29.009Z</time>
      </trkpt>
      <trkpt lat="45.98297" lon="4.8038">
        <ele>233.100006104</ele>
        <time>2015-07-06T08:55:30.023Z</time>
      </trkpt>
      <trkpt lat="45.98295" lon="4.8039">
        <ele>232.899993896</ele>
        <time>2015-07-06T08:55:31.01Z</time>
      </trkpt>
      <trkpt lat="45.98293" lon="4.80401">
        <ele>232.5</ele>
        <time>2015-07-06T08:55:32.012Z</time>
      </trkpt>
      <trkpt lat="45.9829" lon="4.8041">
        <ele>232.5</ele>
        <time>2015-07-06T08:55:33.009Z</time>
      </trkpt>
      <trkpt lat="45.98288" lon="4.8042">
        <ele>232.5</ele>
        <time>2015-07-06T08:55:34.011Z</time>
      </trkpt>
      <trkpt lat="45.98286" lon="4.80431">
        <ele>232.199996948</ele>
        <time>2015-07-06T08:55:35.009Z</time>
      </trkpt>
      <trkpt lat="45.98284" lon="4.80441">
        <ele>231.699996948</ele>
        <time>2015-07-06T08:55:36.014Z</time>
      </trkpt>
      <trkpt lat="45.98282" lon="4.80451">
        <ele>231.399993896</ele>
        <time>2015-07-06T08:55:37.05Z</time>
      </trkpt>
      <trkpt lat="45.9828" lon="4.80461">
        <ele>231.199996948</ele>
        <time>2015-07-06T08:55:38.009Z</time>
      </trkpt>
      <trkpt lat="45.98277" lon="4.80471">
        <ele>231.100006104</ele>
        <time>2015-07-06T08:55:39.007Z</time>
      </trkpt>
      <trkpt lat="45.98275" lon="4.80481">
        <ele>230.899993896</ele>
        <time>2015-07-06T08:55:40.009Z</time>
      </trkpt>
      <trkpt lat="45.98273" lon="4.80491">
        <ele>230.699996948</ele>
        <time>2015-07-06T08:55:41.008Z</time>
      </trkpt>
      <trkpt lat="45.98271" lon="4.80502">
        <ele>230.399993896</ele>
        <time>2015-07-06T08:55:42.073Z</time>
      </trkpt>
      <trkpt lat="45.98268" lon="4.80512">
        <ele>230.199996948</ele>
        <time>2015-07-06T08:55:43.062Z</time>
      </trkpt>
      <trkpt lat="45.98265" lon="4.80521">
        <ele>230</ele>
        <time>2015-07-06T08:55:44.01Z</time>
      </trkpt>
      <trkpt lat="45.98262" lon="4.8053">
        <ele>229.800003052</ele>
        <time>2015-07-06T08:55:45.009Z</time>
      </trkpt>
      <trkpt lat="45.98257" lon="4.80539">
        <ele>229.5</ele>
        <time>2015-07-06T08:55:46.008Z</time>
      </trkpt>
      <trkpt lat="45.98255" lon="4.80547">
        <ele>229.399993896</ele>
        <time>2015-07-06T08:55:47.009Z</time>
      </trkpt>
      <trkpt lat="45.98252" lon="4.80557">
        <ele>229.399993896</ele>
        <time>2015-07-06T08:55:48.013Z</time>
      </trkpt>
      <trkpt lat="45.9825" lon="4.80567">
        <ele>229.300003052</ele>
        <time>2015-07-06T08:55:49.007Z</time>
      </trkpt>
      <trkpt lat="45.98247" lon="4.80573">
        <ele>229.199996948</ele>
        <time>2015-07-06T08:55:50.01Z</time>
      </trkpt>
      <trkpt lat="45.98244" lon="4.80582">
        <ele>229.199996948</ele>
        <time>2015-07-06T08:55:51.007Z</time>
      </trkpt>
      <trkpt lat="45.98241" lon="4.80591">
        <ele>229.199996948</ele>
        <time>2015-07-06T08:55:52.007Z</time>
      </trkpt>
      <trkpt lat="45.98239" lon="4.80601">
        <ele>229.300003052</ele>
        <time>2015-07-06T08:55:53.006Z</time>
      </trkpt>
      <trkpt lat="45.98238" lon="4.80611">
        <ele>228.899993896</ele>
        <time>2015-07-06T08:55:54.014Z</time>
      </trkpt>
      <trkpt lat="45.98236" lon="4.80619">
        <ele>228.699996948</ele>
        <time>2015-07-06T08:55:55.006Z</time>
      </trkpt>
      <trkpt lat="45.98234" lon="4.80627">
        <ele>228.899993896</ele>
        <time>2015-07-06T08:55:56.014Z</time>
      </trkpt>
      <trkpt lat="45.98232" lon="4.80633">
        <ele>229.100006104</ele>
        <time>2015-07-06T08:55:57.008Z</time>
      </trkpt>
      <trkpt lat="45.9823" lon="4.8064">
        <ele>229.399993896</ele>
        <time>2015-07-06T08:55:58.024Z</time>
      </trkpt>
      <trkpt lat="45.98227" lon="4.80646">
        <ele>229.100006104</ele>
        <time>2015-07-06T08:55:59.03Z</time>
      </trkpt>
      <trkpt lat="45.98224" lon="4.80653">
        <ele>228.5</ele>
        <time>2015-07-06T08:56:00.026Z</time>
      </trkpt>
      <trkpt lat="45.98222" lon="4.80659">
        <ele>228.800003052</ele>
        <time>2015-07-06T08:56:01.009Z</time>
      </trkpt>
      <trkpt lat="45.98218" lon="4.8067">
        <ele>228.600006104</ele>
        <time>2015-07-06T08:56:03.009Z</time>
      </trkpt>
      <trkpt lat="45.98214" lon="4.80674">
        <ele>228.699996948</ele>
        <time>2015-07-06T08:56:04.011Z</time>
      </trkpt>
      <trkpt lat="45.98206" lon="4.80679">
        <ele>229.399993896</ele>
        <time>2015-07-06T08:56:06.016Z</time>
      </trkpt>
      <trkpt lat="45.98202" lon="4.80682">
        <ele>229.699996948</ele>
        <time>2015-07-06T08:56:07.072Z</time>
      </trkpt>
      <trkpt lat="45.98198" lon="4.80684">
        <ele>229.899993896</ele>
        <time>2015-07-06T08:56:08.011Z</time>
      </trkpt>
      <trkpt lat="45.98193" lon="4.80687">
        <ele>230.600006104</ele>
        <time>2015-07-06T08:56:09.008Z</time>
      </trkpt>
      <trkpt lat="45.98188" lon="4.80689">
        <ele>230.800003052</ele>
        <time>2015-07-06T08:56:10.009Z</time>
      </trkpt>
      <trkpt lat="45.98184" lon="4.80691">
        <ele>231.100006104</ele>
        <time>2015-07-06T08:56:11.009Z</time>
      </trkpt>
      <trkpt lat="45.98175" lon="4.80692">
        <ele>231.600006104</ele>
        <time>2015-07-06T08:56:13.05Z</time>
      </trkpt>
      <trkpt lat="45.98171" lon="4.80691">
        <ele>231.399993896</ele>
        <time>2015-07-06T08:56:14.01Z</time>
      </trkpt>
      <trkpt lat="45.98162" lon="4.80689">
        <ele>231.399993896</ele>
        <time>2015-07-06T08:56:16.013Z</time>
      </trkpt>
      <trkpt lat="45.98158" lon="4.80687">
        <ele>231.199996948</ele>
        <time>2015-07-06T08:56:17.01Z</time>
      </trkpt>
      <trkpt lat="45.98153" lon="4.80687">
        <ele>231.100006104</ele>
        <time>2015-07-06T08:56:18.014Z</time>
      </trkpt>
      <trkpt lat="45.98148" lon="4.80688">
        <ele>231.100006104</ele>
        <time>2015-07-06T08:56:19.052Z</time>
      </trkpt>
      <trkpt lat="45.98143" lon="4.80687">
        <ele>231.399993896</ele>
        <time>2015-07-06T08:56:20.056Z</time>
      </trkpt>
      <trkpt lat="45.98138" lon="4.80687">
        <ele>231.5</ele>
        <time>2015-07-06T08:56:21.011Z</time>
      </trkpt>
      <trkpt lat="45.9813" lon="4.80687">
        <ele>231.699996948</ele>
        <time>2015-07-06T08:56:23.007Z</time>
      </trkpt>
      <trkpt lat="45.98125" lon="4.80688">
        <ele>231.699996948</ele>
        <time>2015-07-06T08:56:24.027Z</time>
      </trkpt>
      <trkpt lat="45.98117" lon="4.80688">
        <ele>232.100006104</ele>
        <time>2015-07-06T08:56:26.01Z</time>
      </trkpt>
      <trkpt lat="45.98112" lon="4.80688">
        <ele>232.199996948</ele>
        <time>2015-07-06T08:56:27.007Z</time>
      </trkpt>
      <trkpt lat="45.98104" lon="4.80687">
        <ele>232.300003052</ele>
        <time>2015-07-06T08:56:29.01Z</time>
      </trkpt>
      <trkpt lat="45.98098" lon="4.80686">
        <ele>232.600006104</ele>
        <time>2015-07-06T08:56:30.011Z</time>
      </trkpt>
      <trkpt lat="45.98089" lon="4.80688">
        <ele>233</ele>
        <time>2015-07-06T08:56:32.007Z</time>
      </trkpt>
      <trkpt lat="45.98086" lon="4.80689">
        <ele>233.100006104</ele>
        <time>2015-07-06T08:56:33.01Z</time>
      </trkpt>
      <trkpt lat="45.98078" lon="4.8069">
        <ele>233.300003052</ele>
        <time>2015-07-06T08:56:35.008Z</time>
      </trkpt>
      <trkpt lat="45.98074" lon="4.8069">
        <ele>233.5</ele>
        <time>2015-07-06T08:56:36.059Z</time>
      </trkpt>
      <trkpt lat="45.98066" lon="4.80691">
        <ele>233.699996948</ele>
        <time>2015-07-06T08:56:38.01Z</time>
      </trkpt>
      <trkpt lat="45.98062" lon="4.80692">
        <ele>233.699996948</ele>
        <time>2015-07-06T08:56:39.007Z</time>
      </trkpt>
      <trkpt lat="45.98056" lon="4.80693">
        <ele>234.399993896</ele>
        <time>2015-07-06T08:56:41.007Z</time>
      </trkpt>
      <trkpt lat="45.98053" lon="4.80694">
        <ele>234.5</ele>
        <time>2015-07-06T08:56:42.014Z</time>
      </trkpt>
      <trkpt lat="45.98044" lon="4.80696">
        <ele>234.699996948</ele>
        <time>2015-07-06T08:56:44.062Z</time>
      </trkpt>
      <trkpt lat="45.98041" lon="4.80697">
        <ele>234.899993896</ele>
        <time>2015-07-06T08:56:45.01Z</time>
      </trkpt>
      <trkpt lat="45.98036" lon="4.80701">
        <ele>234.800003052</ele>
        <time>2015-07-06T08:56:46.012Z</time>
      </trkpt>
      <trkpt lat="45.98031" lon="4.80704">
        <ele>235</ele>
        <time>2015-07-06T08:56:47.009Z</time>
      </trkpt>
      <trkpt lat="45.98025" lon="4.80712">
        <ele>234.199996948</ele>
        <time>2015-07-06T08:56:51.01Z</time>
      </trkpt>
      <trkpt lat="45.98026" lon="4.80716">
        <ele>234.199996948</ele>
        <time>2015-07-06T08:56:52.008Z</time>
      </trkpt>
      <trkpt lat="45.9803" lon="4.80727">
        <ele>233.800003052</ele>
        <time>2015-07-06T08:56:55.007Z</time>
      </trkpt>
      <trkpt lat="45.98031" lon="4.80731">
        <ele>233.699996948</ele>
        <time>2015-07-06T08:56:56.013Z</time>
      </trkpt>
      <trkpt lat="45.98033" lon="4.80743">
        <ele>234.100006104</ele>
        <time>2015-07-06T08:56:59.01Z</time>
      </trkpt>
      <trkpt lat="45.98032" lon="4.80749">
        <ele>233.600006104</ele>
        <time>2015-07-06T08:57:00.041Z</time>
      </trkpt>
      <trkpt lat="45.98035" lon="4.8076">
        <ele>233.100006104</ele>
        <time>2015-07-06T08:57:03.009Z</time>
      </trkpt>
      <trkpt lat="45.98036" lon="4.80764">
        <ele>233.199996948</ele>
        <time>2015-07-06T08:57:04.006Z</time>
      </trkpt>
      <trkpt lat="45.98038" lon="4.80772">
        <ele>234</ele>
        <time>2015-07-06T08:57:06.011Z</time>
      </trkpt>
      <trkpt lat="45.9804" lon="4.80777">
        <ele>234.199996948</ele>
        <time>2015-07-06T08:57:07.006Z</time>
      </trkpt>
      <trkpt lat="45.98042" lon="4.80788">
        <ele>234.600006104</ele>
        <time>2015-07-06T08:57:10.007Z</time>
      </trkpt>
      <trkpt lat="45.98044" lon="4.80792">
        <ele>234.699996948</ele>
        <time>2015-07-06T08:57:11.026Z</time>
      </trkpt>
      <trkpt lat="45.98046" lon="4.80801">
        <ele>235.100006104</ele>
        <time>2015-07-06T08:57:13.006Z</time>
      </trkpt>
      <trkpt lat="45.98047" lon="4.80805">
        <ele>235.300003052</ele>
        <time>2015-07-06T08:57:14.007Z</time>
      </trkpt>
      <trkpt lat="45.98051" lon="4.80816">
        <ele>236.300003052</ele>
        <time>2015-07-06T08:57:17.006Z</time>
      </trkpt>
      <trkpt lat="45.98052" lon="4.8082">
        <ele>236.600006104</ele>
        <time>2015-07-06T08:57:18.014Z</time>
      </trkpt>
      <trkpt lat="45.98054" lon="4.80828">
        <ele>236.899993896</ele>
        <time>2015-07-06T08:57:20.007Z</time>
      </trkpt>
      <trkpt lat="45.98055" lon="4.80833">
        <ele>237</ele>
        <time>2015-07-06T08:57:21.006Z</time>
      </trkpt>
      <trkpt lat="45.98058" lon="4.80844">
        <ele>237.300003052</ele>
        <time>2015-07-06T08:57:24.012Z</time>
      </trkpt>
      <trkpt lat="45.98059" lon="4.80847">
        <ele>237.300003052</ele>
        <time>2015-07-06T08:57:25.011Z</time>
      </trkpt>
      <trkpt lat="45.98062" lon="4.80858">
        <ele>237.699996948</ele>
        <time>2015-07-06T08:57:28.006Z</time>
      </trkpt>
      <trkpt lat="45.98063" lon="4.80862">
        <ele>238.100006104</ele>
        <time>2015-07-06T08:57:29.006Z</time>
      </trkpt>
      <trkpt lat="45.98063" lon="4.80864">
        <ele>238.5</ele>
        <time>2015-07-06T08:57:30.013Z</time>
      </trkpt>
      <trkpt lat="45.98064" lon="4.80865">
        <ele>238.800003052</ele>
        <time>2015-07-06T08:57:31.033Z</time>
      </trkpt>
      <trkpt lat="45.98066" lon="4.80876">
        <ele>239.800003052</ele>
        <time>2015-07-06T08:57:34.006Z</time>
      </trkpt>
      <trkpt lat="45.98067" lon="4.8088">
        <ele>239.800003052</ele>
        <time>2015-07-06T08:57:35.006Z</time>
      </trkpt>
      <trkpt lat="45.9807" lon="4.8089">
        <ele>240.199996948</ele>
        <time>2015-07-06T08:57:38.007Z</time>
      </trkpt>
      <trkpt lat="45.98071" lon="4.80894">
        <ele>240.399993896</ele>
        <time>2015-07-06T08:57:39.007Z</time>
      </trkpt>
      <trkpt lat="45.98074" lon="4.80904">
        <ele>240.600006104</ele>
        <time>2015-07-06T08:57:42.02Z</time>
      </trkpt>
      <trkpt lat="45.98075" lon="4.80907">
        <ele>240.899993896</ele>
        <time>2015-07-06T08:57:43.006Z</time>
      </trkpt>
      <trkpt lat="45.98078" lon="4.80918">
        <ele>240.399993896</ele>
        <time>2015-07-06T08:57:46.008Z</time>
      </trkpt>
      <trkpt lat="45.98079" lon="4.80922">
        <ele>239.699996948</ele>
        <time>2015-07-06T08:57:47.031Z</time>
      </trkpt>
      <trkpt lat="45.98082" lon="4.80933">
        <ele>239.5</ele>
        <time>2015-07-06T08:57:50.006Z</time>
      </trkpt>
      <trkpt lat="45.98083" lon="4.80936">
        <ele>239.199996948</ele>
        <time>2015-07-06T08:57:51.009Z</time>
      </trkpt>
      <trkpt lat="45.98086" lon="4.80945">
        <ele>239.300003052</ele>
        <time>2015-07-06T08:57:54.008Z</time>
      </trkpt>
      <trkpt lat="45.98086" lon="4.80949">
        <ele>239.199996948</ele>
        <time>2015-07-06T08:57:55.006Z</time>
      </trkpt>
      <trkpt lat="45.98087" lon="4.80959">
        <ele>239.100006104</ele>
        <time>2015-07-06T08:57:58.011Z</time>
      </trkpt>
      <trkpt lat="45.98088" lon="4.80962">
        <ele>239.100006104</ele>
        <time>2015-07-06T08:57:59.007Z</time>
      </trkpt>
      <trkpt lat="45.98091" lon="4.80972">
        <ele>238.699996948</ele>
        <time>2015-07-06T08:58:02.006Z</time>
      </trkpt>
      <trkpt lat="45.98092" lon="4.80976">
        <ele>238.399993896</ele>
        <time>2015-07-06T08:58:03.025Z</time>
      </trkpt>
      <trkpt lat="45.98095" lon="4.80985">
        <ele>238.399993896</ele>
        <time>2015-07-06T08:58:05.006Z</time>
      </trkpt>
      <trkpt lat="45.98095" lon="4.80989">
        <ele>238.199996948</ele>
        <time>2015-07-06T08:58:06.052Z</time>
      </trkpt>
      <trkpt lat="45.98098" lon="4.80998">
        <ele>237.800003052</ele>
        <time>2015-07-06T08:58:08.007Z</time>
      </trkpt>
      <trkpt lat="45.981" lon="4.81003">
        <ele>237.800003052</ele>
        <time>2015-07-06T08:58:09.006Z</time>
      </trkpt>
      <trkpt lat="45.98104" lon="4.81013">
        <ele>238.100006104</ele>
        <time>2015-07-06T08:58:11.006Z</time>
      </trkpt>
      <trkpt lat="45.98106" lon="4.81019">
        <ele>238</ele>
        <time>2015-07-06T08:58:12.013Z</time>
      </trkpt>
      <trkpt lat="45.9811" lon="4.81029">
        <ele>237.399993896</ele>
        <time>2015-07-06T08:58:14.006Z</time>
      </trkpt>
      <trkpt lat="45.98112" lon="4.81034">
        <ele>237.100006104</ele>
        <time>2015-07-06T08:58:15.017Z</time>
      </trkpt>
      <trkpt lat="45.98116" lon="4.81045">
        <ele>237.600006104</ele>
        <time>2015-07-06T08:58:17.042Z</time>
      </trkpt>
      <trkpt lat="45.98117" lon="4.8105">
        <ele>238</ele>
        <time>2015-07-06T08:58:18.052Z</time>
      </trkpt>
      <trkpt lat="45.98119" lon="4.81056">
        <ele>238</ele>
        <time>2015-07-06T08:58:19.009Z</time>
      </trkpt>
      <trkpt lat="45.98122" lon="4.81061">
        <ele>238.100006104</ele>
        <time>2015-07-06T08:58:20.011Z</time>
      </trkpt>
      <trkpt lat="45.98125" lon="4.81071">
        <ele>237.899993896</ele>
        <time>2015-07-06T08:58:22.011Z</time>
      </trkpt>
      <trkpt lat="45.98127" lon="4.81076">
        <ele>237.699996948</ele>
        <time>2015-07-06T08:58:23.007Z</time>
      </trkpt>
      <trkpt lat="45.9813" lon="4.81087">
        <ele>237.899993896</ele>
        <time>2015-07-06T08:58:25.006Z</time>
      </trkpt>
      <trkpt lat="45.98131" lon="4.81092">
        <ele>237.800003052</ele>
        <time>2015-07-06T08:58:26.01Z</time>
      </trkpt>
      <trkpt lat="45.98136" lon="4.81102">
        <ele>237.699996948</ele>
        <time>2015-07-06T08:58:28.008Z</time>
      </trkpt>
      <trkpt lat="45.98138" lon="4.81107">
        <ele>237.699996948</ele>
        <time>2015-07-06T08:58:29.007Z</time>
      </trkpt>
      <trkpt lat="45.9814" lon="4.81113">
        <ele>237.800003052</ele>
        <time>2015-07-06T08:58:30.007Z</time>
      </trkpt>
      <trkpt lat="45.98142" lon="4.81119">
        <ele>237.800003052</ele>
        <time>2015-07-06T08:58:31.008Z</time>
      </trkpt>
      <trkpt lat="45.98144" lon="4.81126">
        <ele>237.800003052</ele>
        <time>2015-07-06T08:58:32.006Z</time>
      </trkpt>
      <trkpt lat="45.98146" lon="4.81132">
        <ele>237.699996948</ele>
        <time>2015-07-06T08:58:33.008Z</time>
      </trkpt>
      <trkpt lat="45.98149" lon="4.81138">
        <ele>237.699996948</ele>
        <time>2015-07-06T08:58:34.008Z</time>
      </trkpt>
      <trkpt lat="45.98152" lon="4.81144">
        <ele>237.800003052</ele>
        <time>2015-07-06T08:58:35.008Z</time>
      </trkpt>
      <trkpt lat="45.98156" lon="4.81155">
        <ele>238.100006104</ele>
        <time>2015-07-06T08:58:37.006Z</time>
      </trkpt>
      <trkpt lat="45.98158" lon="4.81161">
        <ele>238.199996948</ele>
        <time>2015-07-06T08:58:38.052Z</time>
      </trkpt>
      <trkpt lat="45.98162" lon="4.81172">
        <ele>238.5</ele>
        <time>2015-07-06T08:58:40.025Z</time>
      </trkpt>
      <trkpt lat="45.98163" lon="4.81177">
        <ele>238.600006104</ele>
        <time>2015-07-06T08:58:41.028Z</time>
      </trkpt>
      <trkpt lat="45.98165" lon="4.81189">
        <ele>239.300003052</ele>
        <time>2015-07-06T08:58:43.011Z</time>
      </trkpt>
      <trkpt lat="45.98166" lon="4.81195">
        <ele>239.399993896</ele>
        <time>2015-07-06T08:58:44.011Z</time>
      </trkpt>
      <trkpt lat="45.98168" lon="4.81207">
        <ele>239.800003052</ele>
        <time>2015-07-06T08:58:46.011Z</time>
      </trkpt>
      <trkpt lat="45.98169" lon="4.81212">
        <ele>239.699996948</ele>
        <time>2015-07-06T08:58:47.008Z</time>
      </trkpt>
      <trkpt lat="45.9817" lon="4.81219">
        <ele>239.5</ele>
        <time>2015-07-06T08:58:48.009Z</time>
      </trkpt>
      <trkpt lat="45.98171" lon="4.81226">
        <ele>239.5</ele>
        <time>2015-07-06T08:58:49.006Z</time>
      </trkpt>
      <trkpt lat="45.98173" lon="4.81238">
        <ele>239.5</ele>
        <time>2015-07-06T08:58:51.008Z</time>
      </trkpt>
      <trkpt lat="45.98174" lon="4.81244">
        <ele>239.600006104</ele>
        <time>2015-07-06T08:58:52.007Z</time>
      </trkpt>
      <trkpt lat="45.98175" lon="4.81256">
        <ele>239.600006104</ele>
        <time>2015-07-06T08:58:54.049Z</time>
      </trkpt>
      <trkpt lat="45.98177" lon="4.81262">
        <ele>239.600006104</ele>
        <time>2015-07-06T08:58:55.008Z</time>
      </trkpt>
      <trkpt lat="45.9818" lon="4.81274">
        <ele>239.699996948</ele>
        <time>2015-07-06T08:58:57.008Z</time>
      </trkpt>
      <trkpt lat="45.98182" lon="4.81279">
        <ele>239.800003052</ele>
        <time>2015-07-06T08:58:57.994Z</time>
      </trkpt>
      <trkpt lat="45.98184" lon="4.81292">
        <ele>239.800003052</ele>
        <time>2015-07-06T08:59:00.032Z</time>
      </trkpt>
      <trkpt lat="45.98185" lon="4.81297">
        <ele>240</ele>
        <time>2015-07-06T08:59:01.008Z</time>
      </trkpt>
      <trkpt lat="45.98186" lon="4.81308">
        <ele>239.800003052</ele>
        <time>2015-07-06T08:59:03.005Z</time>
      </trkpt>
      <trkpt lat="45.98187" lon="4.81315">
        <ele>239.600006104</ele>
        <time>2015-07-06T08:59:04.013Z</time>
      </trkpt>
      <trkpt lat="45.98188" lon="4.81321">
        <ele>239.399993896</ele>
        <time>2015-07-06T08:59:05.046Z</time>
      </trkpt>
      <trkpt lat="45.98189" lon="4.81328">
        <ele>239.399993896</ele>
        <time>2015-07-06T08:59:06.01Z</time>
      </trkpt>
      <trkpt lat="45.98191" lon="4.81334">
        <ele>239.5</ele>
        <time>2015-07-06T08:59:07.007Z</time>
      </trkpt>
      <trkpt lat="45.98192" lon="4.81341">
        <ele>239.600006104</ele>
        <time>2015-07-06T08:59:08.01Z</time>
      </trkpt>
      <trkpt lat="45.98194" lon="4.81353">
        <ele>239.600006104</ele>
        <time>2015-07-06T08:59:10.008Z</time>
      </trkpt>
      <trkpt lat="45.98195" lon="4.81358">
        <ele>239.600006104</ele>
        <time>2015-07-06T08:59:11.007Z</time>
      </trkpt>
      <trkpt lat="45.98197" lon="4.81368">
        <ele>240.5</ele>
        <time>2015-07-06T08:59:13.006Z</time>
      </trkpt>
      <trkpt lat="45.98198" lon="4.81373">
        <ele>241.600006104</ele>
        <time>2015-07-06T08:59:14.007Z</time>
      </trkpt>
      <trkpt lat="45.98201" lon="4.81383">
        <ele>243.300003052</ele>
        <time>2015-07-06T08:59:16.006Z</time>
      </trkpt>
      <trkpt lat="45.98203" lon="4.81388">
        <ele>243.600006104</ele>
        <time>2015-07-06T08:59:17.061Z</time>
      </trkpt>
      <trkpt lat="45.98205" lon="4.81399">
        <ele>244.800003052</ele>
        <time>2015-07-06T08:59:19.009Z</time>
      </trkpt>
      <trkpt lat="45.98207" lon="4.81405">
        <ele>245.399993896</ele>
        <time>2015-07-06T08:59:20.009Z</time>
      </trkpt>
      <trkpt lat="45.98211" lon="4.81416">
        <ele>246.199996948</ele>
        <time>2015-07-06T08:59:22.008Z</time>
      </trkpt>
      <trkpt lat="45.98213" lon="4.81421">
        <ele>246.600006104</ele>
        <time>2015-07-06T08:59:23.006Z</time>
      </trkpt>
      <trkpt lat="45.98215" lon="4.81427">
        <ele>247</ele>
        <time>2015-07-06T08:59:24.011Z</time>
      </trkpt>
      <trkpt lat="45.98218" lon="4.81433">
        <ele>247.300003052</ele>
        <time>2015-07-06T08:59:25.006Z</time>
      </trkpt>
      <trkpt lat="45.9822" lon="4.8144">
        <ele>247.399993896</ele>
        <time>2015-07-06T08:59:26.012Z</time>
      </trkpt>
      <trkpt lat="45.98222" lon="4.81446">
        <ele>247.5</ele>
        <time>2015-07-06T08:59:27.008Z</time>
      </trkpt>
      <trkpt lat="45.98224" lon="4.81453">
        <ele>247.699996948</ele>
        <time>2015-07-06T08:59:28.01Z</time>
      </trkpt>
      <trkpt lat="45.98226" lon="4.81459">
        <ele>248.199996948</ele>
        <time>2015-07-06T08:59:29.006Z</time>
      </trkpt>
      <trkpt lat="45.98228" lon="4.81466">
        <ele>248.699996948</ele>
        <time>2015-07-06T08:59:30.014Z</time>
      </trkpt>
      <trkpt lat="45.9823" lon="4.81472">
        <ele>248.899993896</ele>
        <time>2015-07-06T08:59:31.064Z</time>
      </trkpt>
      <trkpt lat="45.98233" lon="4.81478">
        <ele>249.800003052</ele>
        <time>2015-07-06T08:59:32.01Z</time>
      </trkpt>
      <trkpt lat="45.98234" lon="4.81485">
        <ele>250.199996948</ele>
        <time>2015-07-06T08:59:33.023Z</time>
      </trkpt>
      <trkpt lat="45.98235" lon="4.81491">
        <ele>250.5</ele>
        <time>2015-07-06T08:59:34.007Z</time>
      </trkpt>
      <trkpt lat="45.98237" lon="4.81498">
        <ele>250.699996948</ele>
        <time>2015-07-06T08:59:34.99Z</time>
      </trkpt>
      <trkpt lat="45.98239" lon="4.81505">
        <ele>250.800003052</ele>
        <time>2015-07-06T08:59:36.015Z</time>
      </trkpt>
      <trkpt lat="45.98242" lon="4.81512">
        <ele>250.899993896</ele>
        <time>2015-07-06T08:59:37.075Z</time>
      </trkpt>
      <trkpt lat="45.98244" lon="4.81519">
        <ele>250.899993896</ele>
        <time>2015-07-06T08:59:38.008Z</time>
      </trkpt>
      <trkpt lat="45.98247" lon="4.81526">
        <ele>250.800003052</ele>
        <time>2015-07-06T08:59:39.006Z</time>
      </trkpt>
      <trkpt lat="45.9825" lon="4.81534">
        <ele>251.199996948</ele>
        <time>2015-07-06T08:59:40.006Z</time>
      </trkpt>
      <trkpt lat="45.98252" lon="4.81541">
        <ele>251.399993896</ele>
        <time>2015-07-06T08:59:41.006Z</time>
      </trkpt>
      <trkpt lat="45.98255" lon="4.81549">
        <ele>251.300003052</ele>
        <time>2015-07-06T08:59:42.009Z</time>
      </trkpt>
      <trkpt lat="45.98258" lon="4.81556">
        <ele>251.199996948</ele>
        <time>2015-07-06T08:59:43.008Z</time>
      </trkpt>
      <trkpt lat="45.9826" lon="4.81564">
        <ele>251.399993896</ele>
        <time>2015-07-06T08:59:44.01Z</time>
      </trkpt>
      <trkpt lat="45.98263" lon="4.81571">
        <ele>251</ele>
        <time>2015-07-06T08:59:45.006Z</time>
      </trkpt>
      <trkpt lat="45.98265" lon="4.81578">
        <ele>250.600006104</ele>
        <time>2015-07-06T08:59:46.01Z</time>
      </trkpt>
      <trkpt lat="45.98267" lon="4.81586">
        <ele>250.699996948</ele>
        <time>2015-07-06T08:59:47.006Z</time>
      </trkpt>
      <trkpt lat="45.98269" lon="4.81592">
        <ele>250.899993896</ele>
        <time>2015-07-06T08:59:48.062Z</time>
      </trkpt>
      <trkpt lat="45.98271" lon="4.81599">
        <ele>250.699996948</ele>
        <time>2015-07-06T08:59:49.008Z</time>
      </trkpt>
      <trkpt lat="45.98274" lon="4.81605">
        <ele>250.600006104</ele>
        <time>2015-07-06T08:59:50.007Z</time>
      </trkpt>
      <trkpt lat="45.98277" lon="4.81612">
        <ele>250.399993896</ele>
        <time>2015-07-06T08:59:51.003Z</time>
      </trkpt>
      <trkpt lat="45.98281" lon="4.81618">
        <ele>250.600006104</ele>
        <time>2015-07-06T08:59:52.005Z</time>
      </trkpt>
      <trkpt lat="45.98284" lon="4.81624">
        <ele>250.399993896</ele>
        <time>2015-07-06T08:59:53.006Z</time>
      </trkpt>
      <trkpt lat="45.98288" lon="4.8163">
        <ele>250.5</ele>
        <time>2015-07-06T08:59:54.01Z</time>
      </trkpt>
      <trkpt lat="45.98292" lon="4.81634">
        <ele>250.100006104</ele>
        <time>2015-07-06T08:59:55.01Z</time>
      </trkpt>
      <trkpt lat="45.98297" lon="4.81638">
        <ele>249.699996948</ele>
        <time>2015-07-06T08:59:56.071Z</time>
      </trkpt>
      <trkpt lat="45.98301" lon="4.81643">
        <ele>249.300003052</ele>
        <time>2015-07-06T08:59:57.059Z</time>
      </trkpt>
      <trkpt lat="45.98305" lon="4.81647">
        <ele>249.300003052</ele>
        <time>2015-07-06T08:59:58.042Z</time>
      </trkpt>
      <trkpt lat="45.98309" lon="4.81652">
        <ele>249.100006104</ele>
        <time>2015-07-06T08:59:59.028Z</time>
      </trkpt>
      <trkpt lat="45.98314" lon="4.81655">
        <ele>248.899993896</ele>
        <time>2015-07-06T09:00:00.156Z</time>
      </trkpt>
      <trkpt lat="45.98319" lon="4.81659">
        <ele>248.800003052</ele>
        <time>2015-07-06T09:00:01.015Z</time>
      </trkpt>
      <trkpt lat="45.98324" lon="4.81663">
        <ele>248.699996948</ele>
        <time>2015-07-06T09:00:02.152Z</time>
      </trkpt>
      <trkpt lat="45.98329" lon="4.81666">
        <ele>248.600006104</ele>
        <time>2015-07-06T09:00:03.016Z</time>
      </trkpt>
      <trkpt lat="45.98333" lon="4.81669">
        <ele>248.199996948</ele>
        <time>2015-07-06T09:00:04.009Z</time>
      </trkpt>
      <trkpt lat="45.98339" lon="4.81672">
        <ele>247.800003052</ele>
        <time>2015-07-06T09:00:05.01Z</time>
      </trkpt>
      <trkpt lat="45.98344" lon="4.81674">
        <ele>247.600006104</ele>
        <time>2015-07-06T09:00:06.016Z</time>
      </trkpt>
      <trkpt lat="45.98351" lon="4.81675">
        <ele>247.199996948</ele>
        <time>2015-07-06T09:00:07.007Z</time>
      </trkpt>
      <trkpt lat="45.98357" lon="4.81676">
        <ele>246.899993896</ele>
        <time>2015-07-06T09:00:08.014Z</time>
      </trkpt>
      <trkpt lat="45.98364" lon="4.81675">
        <ele>246.800003052</ele>
        <time>2015-07-06T09:00:09.023Z</time>
      </trkpt>
      <trkpt lat="45.98369" lon="4.81675">
        <ele>246.699996948</ele>
        <time>2015-07-06T09:00:10.006Z</time>
      </trkpt>
      <trkpt lat="45.98375" lon="4.81674">
        <ele>246.399993896</ele>
        <time>2015-07-06T09:00:11.014Z</time>
      </trkpt>
      <trkpt lat="45.98381" lon="4.81673">
        <ele>246.100006104</ele>
        <time>2015-07-06T09:00:12.022Z</time>
      </trkpt>
      <trkpt lat="45.98386" lon="4.81672">
        <ele>245.699996948</ele>
        <time>2015-07-06T09:00:13.012Z</time>
      </trkpt>
      <trkpt lat="45.98392" lon="4.8167">
        <ele>245.5</ele>
        <time>2015-07-06T09:00:14.046Z</time>
      </trkpt>
      <trkpt lat="45.98398" lon="4.81669">
        <ele>245.399993896</ele>
        <time>2015-07-06T09:00:15.012Z</time>
      </trkpt>
      <trkpt lat="45.98403" lon="4.81667">
        <ele>245</ele>
        <time>2015-07-06T09:00:16.017Z</time>
      </trkpt>
      <trkpt lat="45.98409" lon="4.81666">
        <ele>244.600006104</ele>
        <time>2015-07-06T09:00:17.013Z</time>
      </trkpt>
      <trkpt lat="45.98415" lon="4.81666">
        <ele>244.699996948</ele>
        <time>2015-07-06T09:00:18.022Z</time>
      </trkpt>
      <trkpt lat="45.98421" lon="4.81666">
        <ele>243.899993896</ele>
        <time>2015-07-06T09:00:19.012Z</time>
      </trkpt>
      <trkpt lat="45.98427" lon="4.81667">
        <ele>242.600006104</ele>
        <time>2015-07-06T09:00:20.041Z</time>
      </trkpt>
      <trkpt lat="45.98432" lon="4.81669">
        <ele>242.399993896</ele>
        <time>2015-07-06T09:00:21.012Z</time>
      </trkpt>
      <trkpt lat="45.98438" lon="4.81672">
        <ele>242.100006104</ele>
        <time>2015-07-06T09:00:22.014Z</time>
      </trkpt>
      <trkpt lat="45.98442" lon="4.81676">
        <ele>241.800003052</ele>
        <time>2015-07-06T09:00:23.006Z</time>
      </trkpt>
      <trkpt lat="45.98447" lon="4.81682">
        <ele>241.399993896</ele>
        <time>2015-07-06T09:00:24.012Z</time>
      </trkpt>
      <trkpt lat="45.9845" lon="4.8169">
        <ele>241.800003052</ele>
        <time>2015-07-06T09:00:25.029Z</time>
      </trkpt>
      <trkpt lat="45.98454" lon="4.81697">
        <ele>241.199996948</ele>
        <time>2015-07-06T09:00:26.033Z</time>
      </trkpt>
      <trkpt lat="45.98457" lon="4.81704">
        <ele>241.100006104</ele>
        <time>2015-07-06T09:00:27.009Z</time>
      </trkpt>
      <trkpt lat="45.98462" lon="4.8171">
        <ele>241</ele>
        <time>2015-07-06T09:00:28.006Z</time>
      </trkpt>
      <trkpt lat="45.98466" lon="4.81716">
        <ele>240.600006104</ele>
        <time>2015-07-06T09:00:29.005Z</time>
      </trkpt>
      <trkpt lat="45.98471" lon="4.81721">
        <ele>240.100006104</ele>
        <time>2015-07-06T09:00:30.011Z</time>
      </trkpt>
      <trkpt lat="45.98476" lon="4.81727">
        <ele>239.699996948</ele>
        <time>2015-07-06T09:00:31.008Z</time>
      </trkpt>
      <trkpt lat="45.98482" lon="4.81734">
        <ele>239.399993896</ele>
        <time>2015-07-06T09:00:32.012Z</time>
      </trkpt>
      <trkpt lat="45.98488" lon="4.8174">
        <ele>239.199996948</ele>
        <time>2015-07-06T09:00:33.009Z</time>
      </trkpt>
      <trkpt lat="45.98494" lon="4.81747">
        <ele>238.899993896</ele>
        <time>2015-07-06T09:00:34.007Z</time>
      </trkpt>
      <trkpt lat="45.98501" lon="4.81752">
        <ele>238.899993896</ele>
        <time>2015-07-06T09:00:35.007Z</time>
      </trkpt>
      <trkpt lat="45.98507" lon="4.81759">
        <ele>238.600006104</ele>
        <time>2015-07-06T09:00:36.018Z</time>
      </trkpt>
      <trkpt lat="45.98512" lon="4.81766">
        <ele>238.100006104</ele>
        <time>2015-07-06T09:00:37.009Z</time>
      </trkpt>
      <trkpt lat="45.98518" lon="4.81773">
        <ele>237.699996948</ele>
        <time>2015-07-06T09:00:38.008Z</time>
      </trkpt>
      <trkpt lat="45.98523" lon="4.81781">
        <ele>237.199996948</ele>
        <time>2015-07-06T09:00:39.007Z</time>
      </trkpt>
      <trkpt lat="45.98529" lon="4.81789">
        <ele>236.699996948</ele>
        <time>2015-07-06T09:00:40.006Z</time>
      </trkpt>
      <trkpt lat="45.98534" lon="4.81796">
        <ele>236.300003052</ele>
        <time>2015-07-06T09:00:41.006Z</time>
      </trkpt>
      <trkpt lat="45.9854" lon="4.81803">
        <ele>235.800003052</ele>
        <time>2015-07-06T09:00:42.011Z</time>
      </trkpt>
      <trkpt lat="45.98546" lon="4.81808">
        <ele>235.300003052</ele>
        <time>2015-07-06T09:00:43.009Z</time>
      </trkpt>
      <trkpt lat="45.98553" lon="4.81805">
        <ele>235.600006104</ele>
        <time>2015-07-06T09:00:44.011Z</time>
      </trkpt>
      <trkpt lat="45.98559" lon="4.81802">
        <ele>236</ele>
        <time>2015-07-06T09:00:45.008Z</time>
      </trkpt>
      <trkpt lat="45.98564" lon="4.81797">
        <ele>236</ele>
        <time>2015-07-06T09:00:46.036Z</time>
      </trkpt>
      <trkpt lat="45.98569" lon="4.81791">
        <ele>236</ele>
        <time>2015-07-06T09:00:47.007Z</time>
      </trkpt>
      <trkpt lat="45.98574" lon="4.81785">
        <ele>236</ele>
        <time>2015-07-06T09:00:48.013Z</time>
      </trkpt>
      <trkpt lat="45.98579" lon="4.8178">
        <ele>235.800003052</ele>
        <time>2015-07-06T09:00:49.007Z</time>
      </trkpt>
      <trkpt lat="45.98583" lon="4.81772">
        <ele>235.699996948</ele>
        <time>2015-07-06T09:00:50.011Z</time>
      </trkpt>
      <trkpt lat="45.98588" lon="4.81766">
        <ele>235.399993896</ele>
        <time>2015-07-06T09:00:51.01Z</time>
      </trkpt>
      <trkpt lat="45.98594" lon="4.81761">
        <ele>235.100006104</ele>
        <time>2015-07-06T09:00:52.009Z</time>
      </trkpt>
      <trkpt lat="45.98599" lon="4.81758">
        <ele>234.899993896</ele>
        <time>2015-07-06T09:00:53.013Z</time>
      </trkpt>
      <trkpt lat="45.98605" lon="4.81756">
        <ele>234.699996948</ele>
        <time>2015-07-06T09:00:54.014Z</time>
      </trkpt>
      <trkpt lat="45.98611" lon="4.81755">
        <ele>234.800003052</ele>
        <time>2015-07-06T09:00:55.008Z</time>
      </trkpt>
      <trkpt lat="45.98618" lon="4.81753">
        <ele>235.199996948</ele>
        <time>2015-07-06T09:00:56.016Z</time>
      </trkpt>
      <trkpt lat="45.98624" lon="4.81751">
        <ele>235.600006104</ele>
        <time>2015-07-06T09:00:57.005Z</time>
      </trkpt>
      <trkpt lat="45.9863" lon="4.81749">
        <ele>236</ele>
        <time>2015-07-06T09:00:58.006Z</time>
      </trkpt>
      <trkpt lat="45.98635" lon="4.81747">
        <ele>236.300003052</ele>
        <time>2015-07-06T09:00:59.008Z</time>
      </trkpt>
      <trkpt lat="45.9864" lon="4.81746">
        <ele>236.5</ele>
        <time>2015-07-06T09:01:00.033Z</time>
      </trkpt>
      <trkpt lat="45.98646" lon="4.81744">
        <ele>236.800003052</ele>
        <time>2015-07-06T09:01:01.007Z</time>
      </trkpt>
      <trkpt lat="45.98652" lon="4.81744">
        <ele>237.199996948</ele>
        <time>2015-07-06T09:01:02.023Z</time>
      </trkpt>
      <trkpt lat="45.98658" lon="4.81743">
        <ele>237.399993896</ele>
        <time>2015-07-06T09:01:03.005Z</time>
      </trkpt>
      <trkpt lat="45.98664" lon="4.81742">
        <ele>237.899993896</ele>
        <time>2015-07-06T09:01:04.008Z</time>
      </trkpt>
      <trkpt lat="45.9867" lon="4.81741">
        <ele>238.699996948</ele>
        <time>2015-07-06T09:01:05.008Z</time>
      </trkpt>
      <trkpt lat="45.98676" lon="4.8174">
        <ele>238.899993896</ele>
        <time>2015-07-06T09:01:06.018Z</time>
      </trkpt>
      <trkpt lat="45.98681" lon="4.81739">
        <ele>238.899993896</ele>
        <time>2015-07-06T09:01:07.008Z</time>
      </trkpt>
      <trkpt lat="45.98688" lon="4.81737">
        <ele>239.399993896</ele>
        <time>2015-07-06T09:01:08.007Z</time>
      </trkpt>
      <trkpt lat="45.98693" lon="4.81736">
        <ele>240.100006104</ele>
        <time>2015-07-06T09:01:09.008Z</time>
      </trkpt>
      <trkpt lat="45.98699" lon="4.81734">
        <ele>240.600006104</ele>
        <time>2015-07-06T09:01:10.006Z</time>
      </trkpt>
      <trkpt lat="45.98705" lon="4.81733">
        <ele>240.699996948</ele>
        <time>2015-07-06T09:01:11.009Z</time>
      </trkpt>
      <trkpt lat="45.98711" lon="4.81732">
        <ele>240.5</ele>
        <time>2015-07-06T09:01:12.009Z</time>
      </trkpt>
      <trkpt lat="45.98716" lon="4.81731">
        <ele>240.899993896</ele>
        <time>2015-07-06T09:01:13.044Z</time>
      </trkpt>
      <trkpt lat="45.98722" lon="4.81731">
        <ele>241.100006104</ele>
        <time>2015-07-06T09:01:14.006Z</time>
      </trkpt>
      <trkpt lat="45.98727" lon="4.81732">
        <ele>241.300003052</ele>
        <time>2015-07-06T09:01:15.006Z</time>
      </trkpt>
      <trkpt lat="45.98731" lon="4.81734">
        <ele>241.800003052</ele>
        <time>2015-07-06T09:01:16.021Z</time>
      </trkpt>
      <trkpt lat="45.98734" lon="4.81739">
        <ele>242</ele>
        <time>2015-07-06T09:01:17.01Z</time>
      </trkpt>
      <trkpt lat="45.98737" lon="4.81746">
        <ele>242.699996948</ele>
        <time>2015-07-06T09:01:18.056Z</time>
      </trkpt>
      <trkpt lat="45.98739" lon="4.81751">
        <ele>243.199996948</ele>
        <time>2015-07-06T09:01:19.013Z</time>
      </trkpt>
      <trkpt lat="45.98743" lon="4.81757">
        <ele>243.399993896</ele>
        <time>2015-07-06T09:01:20.01Z</time>
      </trkpt>
      <trkpt lat="45.98746" lon="4.81764">
        <ele>243.699996948</ele>
        <time>2015-07-06T09:01:21.01Z</time>
      </trkpt>
      <trkpt lat="45.98749" lon="4.81771">
        <ele>244</ele>
        <time>2015-07-06T09:01:22.032Z</time>
      </trkpt>
      <trkpt lat="45.98752" lon="4.81778">
        <ele>244.300003052</ele>
        <time>2015-07-06T09:01:23.006Z</time>
      </trkpt>
      <trkpt lat="45.98755" lon="4.81785">
        <ele>244.600006104</ele>
        <time>2015-07-06T09:01:24.013Z</time>
      </trkpt>
      <trkpt lat="45.98758" lon="4.81791">
        <ele>245</ele>
        <time>2015-07-06T09:01:25.006Z</time>
      </trkpt>
      <trkpt lat="45.9876" lon="4.81799">
        <ele>245.100006104</ele>
        <time>2015-07-06T09:01:26.024Z</time>
      </trkpt>
      <trkpt lat="45.98762" lon="4.81806">
        <ele>245</ele>
        <time>2015-07-06T09:01:27.054Z</time>
      </trkpt>
      <trkpt lat="45.98765" lon="4.81814">
        <ele>245</ele>
        <time>2015-07-06T09:01:28.006Z</time>
      </trkpt>
      <trkpt lat="45.98768" lon="4.81822">
        <ele>244.899993896</ele>
        <time>2015-07-06T09:01:29.005Z</time>
      </trkpt>
      <trkpt lat="45.98771" lon="4.81828">
        <ele>244.800003052</ele>
        <time>2015-07-06T09:01:30.011Z</time>
      </trkpt>
      <trkpt lat="45.98774" lon="4.81835">
        <ele>245</ele>
        <time>2015-07-06T09:01:31.005Z</time>
      </trkpt>
      <trkpt lat="45.98777" lon="4.81843">
        <ele>245.100006104</ele>
        <time>2015-07-06T09:01:32.007Z</time>
      </trkpt>
      <trkpt lat="45.98781" lon="4.81849">
        <ele>245.100006104</ele>
        <time>2015-07-06T09:01:33.009Z</time>
      </trkpt>
      <trkpt lat="45.98784" lon="4.81857">
        <ele>245.300003052</ele>
        <time>2015-07-06T09:01:34.023Z</time>
      </trkpt>
      <trkpt lat="45.98786" lon="4.81864">
        <ele>245.300003052</ele>
        <time>2015-07-06T09:01:35.062Z</time>
      </trkpt>
      <trkpt lat="45.98789" lon="4.81871">
        <ele>245.399993896</ele>
        <time>2015-07-06T09:01:36.023Z</time>
      </trkpt>
      <trkpt lat="45.98792" lon="4.81878">
        <ele>245.199996948</ele>
        <time>2015-07-06T09:01:37.005Z</time>
      </trkpt>
      <trkpt lat="45.98795" lon="4.81886">
        <ele>245</ele>
        <time>2015-07-06T09:01:38.008Z</time>
      </trkpt>
      <trkpt lat="45.98797" lon="4.81893">
        <ele>244.800003052</ele>
        <time>2015-07-06T09:01:39.007Z</time>
      </trkpt>
      <trkpt lat="45.98799" lon="4.81901">
        <ele>245</ele>
        <time>2015-07-06T09:01:40.009Z</time>
      </trkpt>
      <trkpt lat="45.988" lon="4.8191">
        <ele>245.300003052</ele>
        <time>2015-07-06T09:01:41.006Z</time>
      </trkpt>
      <trkpt lat="45.98802" lon="4.81918">
        <ele>245.600006104</ele>
        <time>2015-07-06T09:01:42.013Z</time>
      </trkpt>
      <trkpt lat="45.98803" lon="4.81926">
        <ele>245.699996948</ele>
        <time>2015-07-06T09:01:43.007Z</time>
      </trkpt>
      <trkpt lat="45.98804" lon="4.81934">
        <ele>245.399993896</ele>
        <time>2015-07-06T09:01:44.01Z</time>
      </trkpt>
      <trkpt lat="45.98806" lon="4.81942">
        <ele>245.199996948</ele>
        <time>2015-07-06T09:01:45.011Z</time>
      </trkpt>
      <trkpt lat="45.98806" lon="4.8195">
        <ele>245</ele>
        <time>2015-07-06T09:01:46.072Z</time>
      </trkpt>
      <trkpt lat="45.98807" lon="4.81957">
        <ele>244.600006104</ele>
        <time>2015-07-06T09:01:47.005Z</time>
      </trkpt>
      <trkpt lat="45.98809" lon="4.81964">
        <ele>244.800003052</ele>
        <time>2015-07-06T09:01:48.013Z</time>
      </trkpt>
      <trkpt lat="45.98809" lon="4.81971">
        <ele>245.100006104</ele>
        <time>2015-07-06T09:01:49.006Z</time>
      </trkpt>
      <trkpt lat="45.9881" lon="4.81979">
        <ele>245.199996948</ele>
        <time>2015-07-06T09:01:50.006Z</time>
      </trkpt>
      <trkpt lat="45.98812" lon="4.81987">
        <ele>244.699996948</ele>
        <time>2015-07-06T09:01:51.009Z</time>
      </trkpt>
      <trkpt lat="45.98815" lon="4.81994">
        <ele>244.600006104</ele>
        <time>2015-07-06T09:01:52.005Z</time>
      </trkpt>
      <trkpt lat="45.98816" lon="4.82002">
        <ele>244.300003052</ele>
        <time>2015-07-06T09:01:53.007Z</time>
      </trkpt>
      <trkpt lat="45.98817" lon="4.82011">
        <ele>244.399993896</ele>
        <time>2015-07-06T09:01:54.011Z</time>
      </trkpt>
      <trkpt lat="45.98818" lon="4.82019">
        <ele>244.300003052</ele>
        <time>2015-07-06T09:01:55.022Z</time>
      </trkpt>
      <trkpt lat="45.98819" lon="4.82027">
        <ele>244</ele>
        <time>2015-07-06T09:01:56.029Z</time>
      </trkpt>
      <trkpt lat="45.9882" lon="4.82035">
        <ele>243.800003052</ele>
        <time>2015-07-06T09:01:57.032Z</time>
      </trkpt>
      <trkpt lat="45.98821" lon="4.82045">
        <ele>243.5</ele>
        <time>2015-07-06T09:01:58.008Z</time>
      </trkpt>
      <trkpt lat="45.98822" lon="4.82054">
        <ele>243.100006104</ele>
        <time>2015-07-06T09:01:59.008Z</time>
      </trkpt>
      <trkpt lat="45.98824" lon="4.82062">
        <ele>243</ele>
        <time>2015-07-06T09:02:00.032Z</time>
      </trkpt>
      <trkpt lat="45.98825" lon="4.82071">
        <ele>242.800003052</ele>
        <time>2015-07-06T09:02:01.009Z</time>
      </trkpt>
      <trkpt lat="45.98827" lon="4.82079">
        <ele>242.399993896</ele>
        <time>2015-07-06T09:02:02.006Z</time>
      </trkpt>
      <trkpt lat="45.98829" lon="4.82087">
        <ele>242.199996948</ele>
        <time>2015-07-06T09:02:03.006Z</time>
      </trkpt>
      <trkpt lat="45.98831" lon="4.82096">
        <ele>241.800003052</ele>
        <time>2015-07-06T09:02:04.008Z</time>
      </trkpt>
      <trkpt lat="45.98833" lon="4.82105">
        <ele>241.5</ele>
        <time>2015-07-06T09:02:05.01Z</time>
      </trkpt>
      <trkpt lat="45.98834" lon="4.82113">
        <ele>241.699996948</ele>
        <time>2015-07-06T09:02:06.027Z</time>
      </trkpt>
      <trkpt lat="45.98836" lon="4.82122">
        <ele>241.699996948</ele>
        <time>2015-07-06T09:02:07.009Z</time>
      </trkpt>
      <trkpt lat="45.98838" lon="4.82131">
        <ele>241.800003052</ele>
        <time>2015-07-06T09:02:08.008Z</time>
      </trkpt>
      <trkpt lat="45.9884" lon="4.82139">
        <ele>241.899993896</ele>
        <time>2015-07-06T09:02:09.009Z</time>
      </trkpt>
      <trkpt lat="45.98842" lon="4.82147">
        <ele>241.899993896</ele>
        <time>2015-07-06T09:02:10.005Z</time>
      </trkpt>
      <trkpt lat="45.98844" lon="4.82155">
        <ele>241.699996948</ele>
        <time>2015-07-06T09:02:11.012Z</time>
      </trkpt>
      <trkpt lat="45.98846" lon="4.82163">
        <ele>241.5</ele>
        <time>2015-07-06T09:02:12.009Z</time>
      </trkpt>
      <trkpt lat="45.98848" lon="4.82172">
        <ele>241.300003052</ele>
        <time>2015-07-06T09:02:13.005Z</time>
      </trkpt>
      <trkpt lat="45.98851" lon="4.8218">
        <ele>241.300003052</ele>
        <time>2015-07-06T09:02:14.006Z</time>
      </trkpt>
      <trkpt lat="45.98854" lon="4.82187">
        <ele>241.100006104</ele>
        <time>2015-07-06T09:02:15.005Z</time>
      </trkpt>
      <trkpt lat="45.98856" lon="4.82195">
        <ele>241.100006104</ele>
        <time>2015-07-06T09:02:16.065Z</time>
      </trkpt>
      <trkpt lat="45.98859" lon="4.82202">
        <ele>240.800003052</ele>
        <time>2015-07-06T09:02:17.006Z</time>
      </trkpt>
      <trkpt lat="45.98863" lon="4.8221">
        <ele>240.899993896</ele>
        <time>2015-07-06T09:02:18.008Z</time>
      </trkpt>
      <trkpt lat="45.98866" lon="4.82218">
        <ele>240.800003052</ele>
        <time>2015-07-06T09:02:19.005Z</time>
      </trkpt>
      <trkpt lat="45.98869" lon="4.82225">
        <ele>240.600006104</ele>
        <time>2015-07-06T09:02:20.007Z</time>
      </trkpt>
      <trkpt lat="45.98872" lon="4.82232">
        <ele>240.600006104</ele>
        <time>2015-07-06T09:02:21.009Z</time>
      </trkpt>
      <trkpt lat="45.98876" lon="4.82239">
        <ele>240.399993896</ele>
        <time>2015-07-06T09:02:22.008Z</time>
      </trkpt>
      <trkpt lat="45.98879" lon="4.82247">
        <ele>240.199996948</ele>
        <time>2015-07-06T09:02:23.006Z</time>
      </trkpt>
      <trkpt lat="45.98883" lon="4.82254">
        <ele>240.100006104</ele>
        <time>2015-07-06T09:02:24.008Z</time>
      </trkpt>
      <trkpt lat="45.98887" lon="4.82261">
        <ele>239.800003052</ele>
        <time>2015-07-06T09:02:25.005Z</time>
      </trkpt>
      <trkpt lat="45.98891" lon="4.82268">
        <ele>239.5</ele>
        <time>2015-07-06T09:02:26.028Z</time>
      </trkpt>
      <trkpt lat="45.98895" lon="4.82274">
        <ele>239.100006104</ele>
        <time>2015-07-06T09:02:27.005Z</time>
      </trkpt>
      <trkpt lat="45.98899" lon="4.8228">
        <ele>238.699996948</ele>
        <time>2015-07-06T09:02:28.005Z</time>
      </trkpt>
      <trkpt lat="45.98904" lon="4.82286">
        <ele>238.399993896</ele>
        <time>2015-07-06T09:02:29.047Z</time>
      </trkpt>
      <trkpt lat="45.98909" lon="4.82291">
        <ele>238.5</ele>
        <time>2015-07-06T09:02:30.009Z</time>
      </trkpt>
      <trkpt lat="45.98913" lon="4.82296">
        <ele>238.600006104</ele>
        <time>2015-07-06T09:02:31.049Z</time>
      </trkpt>
      <trkpt lat="45.98917" lon="4.82301">
        <ele>238.600006104</ele>
        <time>2015-07-06T09:02:32.023Z</time>
      </trkpt>
      <trkpt lat="45.98922" lon="4.82306">
        <ele>238.399993896</ele>
        <time>2015-07-06T09:02:33.005Z</time>
      </trkpt>
      <trkpt lat="45.98926" lon="4.8231">
        <ele>238.5</ele>
        <time>2015-07-06T09:02:34.008Z</time>
      </trkpt>
      <trkpt lat="45.98931" lon="4.82315">
        <ele>238.800003052</ele>
        <time>2015-07-06T09:02:35.006Z</time>
      </trkpt>
      <trkpt lat="45.98935" lon="4.82321">
        <ele>238.800003052</ele>
        <time>2015-07-06T09:02:36.034Z</time>
      </trkpt>
      <trkpt lat="45.98939" lon="4.82327">
        <ele>238.600006104</ele>
        <time>2015-07-06T09:02:37.011Z</time>
      </trkpt>
      <trkpt lat="45.98944" lon="4.82332">
        <ele>238.100006104</ele>
        <time>2015-07-06T09:02:38.01Z</time>
      </trkpt>
      <trkpt lat="45.98948" lon="4.82338">
        <ele>237.699996948</ele>
        <time>2015-07-06T09:02:39.005Z</time>
      </trkpt>
      <trkpt lat="45.98951" lon="4.82345">
        <ele>237.5</ele>
        <time>2015-07-06T09:02:40.009Z</time>
      </trkpt>
      <trkpt lat="45.98954" lon="4.82352">
        <ele>237.399993896</ele>
        <time>2015-07-06T09:02:41.005Z</time>
      </trkpt>
      <trkpt lat="45.98957" lon="4.8236">
        <ele>237</ele>
        <time>2015-07-06T09:02:42.011Z</time>
      </trkpt>
      <trkpt lat="45.9896" lon="4.82367">
        <ele>236.800003052</ele>
        <time>2015-07-06T09:02:43.007Z</time>
      </trkpt>
      <trkpt lat="45.98962" lon="4.82375">
        <ele>236.399993896</ele>
        <time>2015-07-06T09:02:44.007Z</time>
      </trkpt>
      <trkpt lat="45.98965" lon="4.82384">
        <ele>236.300003052</ele>
        <time>2015-07-06T09:02:45.005Z</time>
      </trkpt>
      <trkpt lat="45.98967" lon="4.82392">
        <ele>236.399993896</ele>
        <time>2015-07-06T09:02:46.03Z</time>
      </trkpt>
      <trkpt lat="45.98969" lon="4.82401">
        <ele>236.100006104</ele>
        <time>2015-07-06T09:02:47.006Z</time>
      </trkpt>
      <trkpt lat="45.98971" lon="4.82409">
        <ele>235.800003052</ele>
        <time>2015-07-06T09:02:48.027Z</time>
      </trkpt>
      <trkpt lat="45.98973" lon="4.82418">
        <ele>235.600006104</ele>
        <time>2015-07-06T09:02:49.005Z</time>
      </trkpt>
      <trkpt lat="45.98976" lon="4.82427">
        <ele>234.600006104</ele>
        <time>2015-07-06T09:02:50.009Z</time>
      </trkpt>
      <trkpt lat="45.98977" lon="4.82435">
        <ele>234.5</ele>
        <time>2015-07-06T09:02:51.006Z</time>
      </trkpt>
      <trkpt lat="45.9898" lon="4.82443">
        <ele>234.5</ele>
        <time>2015-07-06T09:02:52.006Z</time>
      </trkpt>
      <trkpt lat="45.98982" lon="4.82451">
        <ele>234.300003052</ele>
        <time>2015-07-06T09:02:53.008Z</time>
      </trkpt>
      <trkpt lat="45.98983" lon="4.82458">
        <ele>234.199996948</ele>
        <time>2015-07-06T09:02:54.009Z</time>
      </trkpt>
      <trkpt lat="45.98985" lon="4.82465">
        <ele>234.300003052</ele>
        <time>2015-07-06T09:02:55.009Z</time>
      </trkpt>
      <trkpt lat="45.98987" lon="4.82472">
        <ele>234.100006104</ele>
        <time>2015-07-06T09:02:56.042Z</time>
      </trkpt>
      <trkpt lat="45.98989" lon="4.82479">
        <ele>233.899993896</ele>
        <time>2015-07-06T09:02:57.006Z</time>
      </trkpt>
      <trkpt lat="45.98991" lon="4.82486">
        <ele>233.600006104</ele>
        <time>2015-07-06T09:02:58.008Z</time>
      </trkpt>
      <trkpt lat="45.98993" lon="4.82493">
        <ele>233.100006104</ele>
        <time>2015-07-06T09:02:59.008Z</time>
      </trkpt>
      <trkpt lat="45.98996" lon="4.825">
        <ele>232.899993896</ele>
        <time>2015-07-06T09:03:00.03Z</time>
      </trkpt>
      <trkpt lat="45.98999" lon="4.82506">
        <ele>232.800003052</ele>
        <time>2015-07-06T09:03:01.008Z</time>
      </trkpt>
      <trkpt lat="45.99002" lon="4.82513">
        <ele>232.899993896</ele>
        <time>2015-07-06T09:03:02.052Z</time>
      </trkpt>
      <trkpt lat="45.99005" lon="4.8252">
        <ele>232.899993896</ele>
        <time>2015-07-06T09:03:03.013Z</time>
      </trkpt>
      <trkpt lat="45.99009" lon="4.82527">
        <ele>233.199996948</ele>
        <time>2015-07-06T09:03:04.026Z</time>
      </trkpt>
      <trkpt lat="45.99014" lon="4.82533">
        <ele>233.100006104</ele>
        <time>2015-07-06T09:03:05.006Z</time>
      </trkpt>
      <trkpt lat="45.99018" lon="4.82539">
        <ele>233.300003052</ele>
        <time>2015-07-06T09:03:06.036Z</time>
      </trkpt>
      <trkpt lat="45.99024" lon="4.82544">
        <ele>233.399993896</ele>
        <time>2015-07-06T09:03:07.009Z</time>
      </trkpt>
      <trkpt lat="45.99029" lon="4.82549">
        <ele>233.699996948</ele>
        <time>2015-07-06T09:03:08.008Z</time>
      </trkpt>
      <trkpt lat="45.99035" lon="4.82554">
        <ele>234</ele>
        <time>2015-07-06T09:03:09.009Z</time>
      </trkpt>
      <trkpt lat="45.9904" lon="4.82558">
        <ele>234</ele>
        <time>2015-07-06T09:03:09.987Z</time>
      </trkpt>
      <trkpt lat="45.99045" lon="4.82561">
        <ele>234</ele>
        <time>2015-07-06T09:03:11.041Z</time>
      </trkpt>
      <trkpt lat="45.9905" lon="4.82565">
        <ele>234</ele>
        <time>2015-07-06T09:03:12.012Z</time>
      </trkpt>
      <trkpt lat="45.99055" lon="4.82568">
        <ele>234</ele>
        <time>2015-07-06T09:03:13.092Z</time>
      </trkpt>
      <trkpt lat="45.9906" lon="4.8257">
        <ele>234.100006104</ele>
        <time>2015-07-06T09:03:14.006Z</time>
      </trkpt>
      <trkpt lat="45.99065" lon="4.82572">
        <ele>234</ele>
        <time>2015-07-06T09:03:15.009Z</time>
      </trkpt>
      <trkpt lat="45.99069" lon="4.82575">
        <ele>234</ele>
        <time>2015-07-06T09:03:16.032Z</time>
      </trkpt>
      <trkpt lat="45.99073" lon="4.82579">
        <ele>234.100006104</ele>
        <time>2015-07-06T09:03:17.007Z</time>
      </trkpt>
      <trkpt lat="45.99077" lon="4.82588">
        <ele>234.199996948</ele>
        <time>2015-07-06T09:03:19.007Z</time>
      </trkpt>
      <trkpt lat="45.99075" lon="4.82594">
        <ele>234</ele>
        <time>2015-07-06T09:03:20.015Z</time>
      </trkpt>
      <trkpt lat="45.9907" lon="4.82599">
        <ele>233.699996948</ele>
        <time>2015-07-06T09:03:22.009Z</time>
      </trkpt>
      <trkpt lat="45.99068" lon="4.82603">
        <ele>233.600006104</ele>
        <time>2015-07-06T09:03:23.029Z</time>
      </trkpt>
      <trkpt lat="45.99064" lon="4.82612">
        <ele>233.5</ele>
        <time>2015-07-06T09:03:25.01Z</time>
      </trkpt>
      <trkpt lat="45.99063" lon="4.82617">
        <ele>233.600006104</ele>
        <time>2015-07-06T09:03:26.043Z</time>
      </trkpt>
      <trkpt lat="45.99059" lon="4.82626">
        <ele>233.5</ele>
        <time>2015-07-06T09:03:28.012Z</time>
      </trkpt>
      <trkpt lat="45.99057" lon="4.82631">
        <ele>233.5</ele>
        <time>2015-07-06T09:03:29.01Z</time>
      </trkpt>
      <trkpt lat="45.99054" lon="4.8264">
        <ele>233.600006104</ele>
        <time>2015-07-06T09:03:31.012Z</time>
      </trkpt>
      <trkpt lat="45.99053" lon="4.82645">
        <ele>233.5</ele>
        <time>2015-07-06T09:03:32.022Z</time>
      </trkpt>
      <trkpt lat="45.99049" lon="4.82654">
        <ele>233.300003052</ele>
        <time>2015-07-06T09:03:34.008Z</time>
      </trkpt>
      <trkpt lat="45.99046" lon="4.82659">
        <ele>233</ele>
        <time>2015-07-06T09:03:35.013Z</time>
      </trkpt>
      <trkpt lat="45.99043" lon="4.82668">
        <ele>233</ele>
        <time>2015-07-06T09:03:37.022Z</time>
      </trkpt>
      <trkpt lat="45.99041" lon="4.82672">
        <ele>232.800003052</ele>
        <time>2015-07-06T09:03:38.006Z</time>
      </trkpt>
      <trkpt lat="45.99037" lon="4.82681">
        <ele>232.100006104</ele>
        <time>2015-07-06T09:03:40.032Z</time>
      </trkpt>
      <trkpt lat="45.99036" lon="4.82686">
        <ele>231.600006104</ele>
        <time>2015-07-06T09:03:41.012Z</time>
      </trkpt>
      <trkpt lat="45.99033" lon="4.82696">
        <ele>231.699996948</ele>
        <time>2015-07-06T09:03:43.013Z</time>
      </trkpt>
      <trkpt lat="45.99032" lon="4.827">
        <ele>231.800003052</ele>
        <time>2015-07-06T09:03:44.022Z</time>
      </trkpt>
      <trkpt lat="45.99029" lon="4.82708">
        <ele>232.300003052</ele>
        <time>2015-07-06T09:03:46.013Z</time>
      </trkpt>
      <trkpt lat="45.99027" lon="4.82712">
        <ele>232.100006104</ele>
        <time>2015-07-06T09:03:47.008Z</time>
      </trkpt>
      <trkpt lat="45.99023" lon="4.82719">
        <ele>232.600006104</ele>
        <time>2015-07-06T09:03:48.999Z</time>
      </trkpt>
      <trkpt lat="45.99021" lon="4.82723">
        <ele>232.5</ele>
        <time>2015-07-06T09:03:50.052Z</time>
      </trkpt>
      <trkpt lat="45.99019" lon="4.82731">
        <ele>232.600006104</ele>
        <time>2015-07-06T09:03:52.02Z</time>
      </trkpt>
      <trkpt lat="45.99017" lon="4.82735">
        <ele>232.800003052</ele>
        <time>2015-07-06T09:03:53.007Z</time>
      </trkpt>
      <trkpt lat="45.99013" lon="4.82745">
        <ele>235.100006104</ele>
        <time>2015-07-06T09:03:56.054Z</time>
      </trkpt>
      <trkpt lat="45.99011" lon="4.82748">
        <ele>235.600006104</ele>
        <time>2015-07-06T09:03:57.007Z</time>
      </trkpt>
      <trkpt lat="45.99007" lon="4.82757">
        <ele>236.5</ele>
        <time>2015-07-06T09:04:00.035Z</time>
      </trkpt>
      <trkpt lat="45.99005" lon="4.8276">
        <ele>236.800003052</ele>
        <time>2015-07-06T09:04:01.02Z</time>
      </trkpt>
      <trkpt lat="45.99001" lon="4.82769">
        <ele>238.5</ele>
        <time>2015-07-06T09:04:04.038Z</time>
      </trkpt>
      <trkpt lat="45.99" lon="4.82772">
        <ele>239</ele>
        <time>2015-07-06T09:04:05.01Z</time>
      </trkpt>
      <trkpt lat="45.98996" lon="4.82782">
        <ele>241.199996948</ele>
        <time>2015-07-06T09:04:08.013Z</time>
      </trkpt>
      <trkpt lat="45.98995" lon="4.82785">
        <ele>242</ele>
        <time>2015-07-06T09:04:09.012Z</time>
      </trkpt>
      <trkpt lat="45.9899" lon="4.82794">
        <ele>243.300003052</ele>
        <time>2015-07-06T09:04:12.032Z</time>
      </trkpt>
      <trkpt lat="45.98988" lon="4.82797">
        <ele>243.899993896</ele>
        <time>2015-07-06T09:04:13.012Z</time>
      </trkpt>
      <trkpt lat="45.98983" lon="4.82805">
        <ele>245.399993896</ele>
        <time>2015-07-06T09:04:16.03Z</time>
      </trkpt>
      <trkpt lat="45.98982" lon="4.82808">
        <ele>245.699996948</ele>
        <time>2015-07-06T09:04:17.008Z</time>
      </trkpt>
      <trkpt lat="45.98977" lon="4.82817">
        <ele>246.5</ele>
        <time>2015-07-06T09:04:20.008Z</time>
      </trkpt>
      <trkpt lat="45.98977" lon="4.82821">
        <ele>247.300003052</ele>
        <time>2015-07-06T09:04:21.075Z</time>
      </trkpt>
      <trkpt lat="45.98974" lon="4.8283">
        <ele>247.699996948</ele>
        <time>2015-07-06T09:04:24.011Z</time>
      </trkpt>
      <trkpt lat="45.98973" lon="4.82833">
        <ele>247.800003052</ele>
        <time>2015-07-06T09:04:25.01Z</time>
      </trkpt>
      <trkpt lat="45.98967" lon="4.82841">
        <ele>248.5</ele>
        <time>2015-07-06T09:04:28.009Z</time>
      </trkpt>
      <trkpt lat="45.98965" lon="4.82844">
        <ele>249.100006104</ele>
        <time>2015-07-06T09:04:29.007Z</time>
      </trkpt>
      <trkpt lat="45.98961" lon="4.82854">
        <ele>250.399993896</ele>
        <time>2015-07-06T09:04:32.025Z</time>
      </trkpt>
      <trkpt lat="45.9896" lon="4.82858">
        <ele>250.699996948</ele>
        <time>2015-07-06T09:04:33.024Z</time>
      </trkpt>
      <trkpt lat="45.98957" lon="4.82866">
        <ele>251.100006104</ele>
        <time>2015-07-06T09:04:36.022Z</time>
      </trkpt>
      <trkpt lat="45.98956" lon="4.82869">
        <ele>251.199996948</ele>
        <time>2015-07-06T09:04:37.01Z</time>
      </trkpt>
      <trkpt lat="45.98952" lon="4.82877">
        <ele>251.899993896</ele>
        <time>2015-07-06T09:04:40.006Z</time>
      </trkpt>
      <trkpt lat="45.9895" lon="4.8288">
        <ele>252.100006104</ele>
        <time>2015-07-06T09:04:41.006Z</time>
      </trkpt>
      <trkpt lat="45.98945" lon="4.82888">
        <ele>252.899993896</ele>
        <time>2015-07-06T09:04:44.007Z</time>
      </trkpt>
      <trkpt lat="45.98944" lon="4.82891">
        <ele>253</ele>
        <time>2015-07-06T09:04:45.007Z</time>
      </trkpt>
      <trkpt lat="45.98941" lon="4.82902">
        <ele>251.800003052</ele>
        <time>2015-07-06T09:04:48.009Z</time>
      </trkpt>
      <trkpt lat="45.98939" lon="4.82905">
        <ele>251.899993896</ele>
        <time>2015-07-06T09:04:49.005Z</time>
      </trkpt>
      <trkpt lat="45.98934" lon="4.82912">
        <ele>252.699996948</ele>
        <time>2015-07-06T09:04:52.006Z</time>
      </trkpt>
      <trkpt lat="45.98932" lon="4.82914">
        <ele>252.800003052</ele>
        <time>2015-07-06T09:04:53.006Z</time>
      </trkpt>
      <trkpt lat="45.98929" lon="4.82923">
        <ele>253.300003052</ele>
        <time>2015-07-06T09:04:56.019Z</time>
      </trkpt>
      <trkpt lat="45.98928" lon="4.82926">
        <ele>253.600006104</ele>
        <time>2015-07-06T09:04:57.032Z</time>
      </trkpt>
      <trkpt lat="45.98925" lon="4.82937">
        <ele>254.199996948</ele>
        <time>2015-07-06T09:05:00.032Z</time>
      </trkpt>
      <trkpt lat="45.98923" lon="4.8294">
        <ele>254.300003052</ele>
        <time>2015-07-06T09:05:01.052Z</time>
      </trkpt>
      <trkpt lat="45.98919" lon="4.82947">
        <ele>254.300003052</ele>
        <time>2015-07-06T09:05:04.008Z</time>
      </trkpt>
      <trkpt lat="45.98917" lon="4.8295">
        <ele>254.600006104</ele>
        <time>2015-07-06T09:05:05.029Z</time>
      </trkpt>
      <trkpt lat="45.98914" lon="4.82959">
        <ele>254.899993896</ele>
        <time>2015-07-06T09:05:08.007Z</time>
      </trkpt>
      <trkpt lat="45.98912" lon="4.82962">
        <ele>255.199996948</ele>
        <time>2015-07-06T09:05:09.006Z</time>
      </trkpt>
      <trkpt lat="45.98908" lon="4.8297">
        <ele>256.200012207</ele>
        <time>2015-07-06T09:05:12.008Z</time>
      </trkpt>
      <trkpt lat="45.98905" lon="4.82971">
        <ele>256.399993896</ele>
        <time>2015-07-06T09:05:13.005Z</time>
      </trkpt>
      <trkpt lat="45.98898" lon="4.82976">
        <ele>257.100006104</ele>
        <time>2015-07-06T09:05:16.01Z</time>
      </trkpt>
      <trkpt lat="45.98896" lon="4.82978">
        <ele>257.200012207</ele>
        <time>2015-07-06T09:05:17.007Z</time>
      </trkpt>
      <trkpt lat="45.9889" lon="4.82984">
        <ele>258.200012207</ele>
        <time>2015-07-06T09:05:20.006Z</time>
      </trkpt>
      <trkpt lat="45.98888" lon="4.82986">
        <ele>258.700012207</ele>
        <time>2015-07-06T09:05:21.01Z</time>
      </trkpt>
      <trkpt lat="45.9888" lon="4.82991">
        <ele>259.899993896</ele>
        <time>2015-07-06T09:05:25.01Z</time>
      </trkpt>
      <trkpt lat="45.98878" lon="4.82992">
        <ele>260.100006104</ele>
        <time>2015-07-06T09:05:26.066Z</time>
      </trkpt>
      <trkpt lat="45.9887" lon="4.82996">
        <ele>260.799987793</ele>
        <time>2015-07-06T09:05:29.009Z</time>
      </trkpt>
      <trkpt lat="45.98868" lon="4.82998">
        <ele>260.899993896</ele>
        <time>2015-07-06T09:05:30.034Z</time>
      </trkpt>
      <trkpt lat="45.98861" lon="4.83002">
        <ele>262.100006104</ele>
        <time>2015-07-06T09:05:33.01Z</time>
      </trkpt>
      <trkpt lat="45.98859" lon="4.83002">
        <ele>262.399993896</ele>
        <time>2015-07-06T09:05:34.014Z</time>
      </trkpt>
      <trkpt lat="45.98853" lon="4.83011">
        <ele>265.399993896</ele>
        <time>2015-07-06T09:05:39.008Z</time>
      </trkpt>
      <trkpt lat="45.98851" lon="4.83013">
        <ele>266.100006104</ele>
        <time>2015-07-06T09:05:40.008Z</time>
      </trkpt>
      <trkpt lat="45.98843" lon="4.83017">
        <ele>267.700012207</ele>
        <time>2015-07-06T09:05:43.01Z</time>
      </trkpt>
      <trkpt lat="45.98841" lon="4.83019">
        <ele>268.100006104</ele>
        <time>2015-07-06T09:05:44.014Z</time>
      </trkpt>
      <trkpt lat="45.98837" lon="4.83022">
        <ele>269.200012207</ele>
        <time>2015-07-06T09:05:46.066Z</time>
      </trkpt>
      <trkpt lat="45.98833" lon="4.83024">
        <ele>269.200012207</ele>
        <time>2015-07-06T09:05:47.025Z</time>
      </trkpt>
      <trkpt lat="45.98826" lon="4.83028">
        <ele>270</ele>
        <time>2015-07-06T09:05:49.006Z</time>
      </trkpt>
      <trkpt lat="45.98823" lon="4.8303">
        <ele>270.299987793</ele>
        <time>2015-07-06T09:05:50.008Z</time>
      </trkpt>
      <trkpt lat="45.98817" lon="4.83034">
        <ele>270.899993896</ele>
        <time>2015-07-06T09:05:52.029Z</time>
      </trkpt>
      <trkpt lat="45.98814" lon="4.83035">
        <ele>271.600006104</ele>
        <time>2015-07-06T09:05:53.03Z</time>
      </trkpt>
      <trkpt lat="45.98807" lon="4.83041">
        <ele>272.299987793</ele>
        <time>2015-07-06T09:05:56.014Z</time>
      </trkpt>
      <trkpt lat="45.98804" lon="4.83044">
        <ele>272.399993896</ele>
        <time>2015-07-06T09:05:57.022Z</time>
      </trkpt>
      <trkpt lat="45.98799" lon="4.83048">
        <ele>272.399993896</ele>
        <time>2015-07-06T09:05:59.031Z</time>
      </trkpt>
      <trkpt lat="45.98796" lon="4.83051">
        <ele>272.399993896</ele>
        <time>2015-07-06T09:06:00.046Z</time>
      </trkpt>
      <trkpt lat="45.98791" lon="4.83056">
        <ele>272.399993896</ele>
        <time>2015-07-06T09:06:02.006Z</time>
      </trkpt>
      <trkpt lat="45.98788" lon="4.83059">
        <ele>272.200012207</ele>
        <time>2015-07-06T09:06:03.032Z</time>
      </trkpt>
      <trkpt lat="45.98783" lon="4.83066">
        <ele>272.299987793</ele>
        <time>2015-07-06T09:06:05.01Z</time>
      </trkpt>
      <trkpt lat="45.9878" lon="4.8307">
        <ele>272.899993896</ele>
        <time>2015-07-06T09:06:06.013Z</time>
      </trkpt>
      <trkpt lat="45.98775" lon="4.83074">
        <ele>273</ele>
        <time>2015-07-06T09:06:08.023Z</time>
      </trkpt>
      <trkpt lat="45.98772" lon="4.83075">
        <ele>273.399993896</ele>
        <time>2015-07-06T09:06:09.009Z</time>
      </trkpt>
      <trkpt lat="45.98765" lon="4.8308">
        <ele>273.200012207</ele>
        <time>2015-07-06T09:06:11.013Z</time>
      </trkpt>
      <trkpt lat="45.98763" lon="4.83083">
        <ele>272.799987793</ele>
        <time>2015-07-06T09:06:12.013Z</time>
      </trkpt>
      <trkpt lat="45.98757" lon="4.83088">
        <ele>272.299987793</ele>
        <time>2015-07-06T09:06:14.007Z</time>
      </trkpt>
      <trkpt lat="45.98754" lon="4.8309">
        <ele>272.299987793</ele>
        <time>2015-07-06T09:06:15.005Z</time>
      </trkpt>
      <trkpt lat="45.98747" lon="4.83095">
        <ele>272</ele>
        <time>2015-07-06T09:06:17.006Z</time>
      </trkpt>
      <trkpt lat="45.98744" lon="4.83098">
        <ele>272.200012207</ele>
        <time>2015-07-06T09:06:18.013Z</time>
      </trkpt>
      <trkpt lat="45.98739" lon="4.83103">
        <ele>272.799987793</ele>
        <time>2015-07-06T09:06:20.007Z</time>
      </trkpt>
      <trkpt lat="45.98735" lon="4.83105">
        <ele>273.200012207</ele>
        <time>2015-07-06T09:06:21.005Z</time>
      </trkpt>
      <trkpt lat="45.98729" lon="4.8311">
        <ele>273.299987793</ele>
        <time>2015-07-06T09:06:23.008Z</time>
      </trkpt>
      <trkpt lat="45.98725" lon="4.83111">
        <ele>273.200012207</ele>
        <time>2015-07-06T09:06:24.047Z</time>
      </trkpt>
      <trkpt lat="45.98718" lon="4.83116">
        <ele>273</ele>
        <time>2015-07-06T09:06:26.013Z</time>
      </trkpt>
      <trkpt lat="45.98715" lon="4.83119">
        <ele>273.100006104</ele>
        <time>2015-07-06T09:06:27.008Z</time>
      </trkpt>
      <trkpt lat="45.98708" lon="4.83125">
        <ele>272.899993896</ele>
        <time>2015-07-06T09:06:29.005Z</time>
      </trkpt>
      <trkpt lat="45.98705" lon="4.83128">
        <ele>272.700012207</ele>
        <time>2015-07-06T09:06:30.012Z</time>
      </trkpt>
      <trkpt lat="45.98698" lon="4.83134">
        <ele>272.100006104</ele>
        <time>2015-07-06T09:06:32.008Z</time>
      </trkpt>
      <trkpt lat="45.98695" lon="4.83137">
        <ele>272.399993896</ele>
        <time>2015-07-06T09:06:33.01Z</time>
      </trkpt>
      <trkpt lat="45.98688" lon="4.83142">
        <ele>272</ele>
        <time>2015-07-06T09:06:35.006Z</time>
      </trkpt>
      <trkpt lat="45.98684" lon="4.83145">
        <ele>271.799987793</ele>
        <time>2015-07-06T09:06:36.061Z</time>
      </trkpt>
      <trkpt lat="45.98676" lon="4.8315">
        <ele>272.299987793</ele>
        <time>2015-07-06T09:06:38.006Z</time>
      </trkpt>
      <trkpt lat="45.98672" lon="4.83151">
        <ele>272.799987793</ele>
        <time>2015-07-06T09:06:39.006Z</time>
      </trkpt>
      <trkpt lat="45.98664" lon="4.83157">
        <ele>273.100006104</ele>
        <time>2015-07-06T09:06:41.005Z</time>
      </trkpt>
      <trkpt lat="45.9866" lon="4.8316">
        <ele>273.5</ele>
        <time>2015-07-06T09:06:42.011Z</time>
      </trkpt>
      <trkpt lat="45.98656" lon="4.83164">
        <ele>273.200012207</ele>
        <time>2015-07-06T09:06:43.008Z</time>
      </trkpt>
      <trkpt lat="45.98653" lon="4.83168">
        <ele>273.200012207</ele>
        <time>2015-07-06T09:06:44.045Z</time>
      </trkpt>
      <trkpt lat="45.98648" lon="4.83171">
        <ele>273.200012207</ele>
        <time>2015-07-06T09:06:45.008Z</time>
      </trkpt>
      <trkpt lat="45.98645" lon="4.83175">
        <ele>273</ele>
        <time>2015-07-06T09:06:46.028Z</time>
      </trkpt>
      <trkpt lat="45.98641" lon="4.83179">
        <ele>272.799987793</ele>
        <time>2015-07-06T09:06:47.006Z</time>
      </trkpt>
      <trkpt lat="45.98637" lon="4.83183">
        <ele>272.899993896</ele>
        <time>2015-07-06T09:06:48.013Z</time>
      </trkpt>
      <trkpt lat="45.98633" lon="4.83187">
        <ele>273.100006104</ele>
        <time>2015-07-06T09:06:49.009Z</time>
      </trkpt>
      <trkpt lat="45.98629" lon="4.83191">
        <ele>273.200012207</ele>
        <time>2015-07-06T09:06:50.006Z</time>
      </trkpt>
      <trkpt lat="45.98625" lon="4.83196">
        <ele>273.299987793</ele>
        <time>2015-07-06T09:06:51.005Z</time>
      </trkpt>
      <trkpt lat="45.98621" lon="4.83201">
        <ele>273.299987793</ele>
        <time>2015-07-06T09:06:52.009Z</time>
      </trkpt>
      <trkpt lat="45.98618" lon="4.83207">
        <ele>273.100006104</ele>
        <time>2015-07-06T09:06:53.005Z</time>
      </trkpt>
      <trkpt lat="45.98614" lon="4.83211">
        <ele>273</ele>
        <time>2015-07-06T09:06:54.008Z</time>
      </trkpt>
      <trkpt lat="45.98609" lon="4.83215">
        <ele>273.200012207</ele>
        <time>2015-07-06T09:06:55.038Z</time>
      </trkpt>
      <trkpt lat="45.98606" lon="4.83221">
        <ele>273</ele>
        <time>2015-07-06T09:06:56.094Z</time>
      </trkpt>
      <trkpt lat="45.98603" lon="4.83226">
        <ele>272.899993896</ele>
        <time>2015-07-06T09:06:57.006Z</time>
      </trkpt>
      <trkpt lat="45.98599" lon="4.83231">
        <ele>272.799987793</ele>
        <time>2015-07-06T09:06:58.01Z</time>
      </trkpt>
      <trkpt lat="45.98596" lon="4.83236">
        <ele>272.5</ele>
        <time>2015-07-06T09:06:59.01Z</time>
      </trkpt>
      <trkpt lat="45.98592" lon="4.83241">
        <ele>272.399993896</ele>
        <time>2015-07-06T09:07:00.031Z</time>
      </trkpt>
      <trkpt lat="45.98589" lon="4.83247">
        <ele>272.100006104</ele>
        <time>2015-07-06T09:07:01.006Z</time>
      </trkpt>
      <trkpt lat="45.98585" lon="4.8325">
        <ele>271.899993896</ele>
        <time>2015-07-06T09:07:02.009Z</time>
      </trkpt>
      <trkpt lat="45.98582" lon="4.83255">
        <ele>272</ele>
        <time>2015-07-06T09:07:03.002Z</time>
      </trkpt>
      <trkpt lat="45.98579" lon="4.8326">
        <ele>272.100006104</ele>
        <time>2015-07-06T09:07:04.01Z</time>
      </trkpt>
      <trkpt lat="45.98575" lon="4.83266">
        <ele>272</ele>
        <time>2015-07-06T09:07:05.006Z</time>
      </trkpt>
      <trkpt lat="45.98572" lon="4.83271">
        <ele>271.899993896</ele>
        <time>2015-07-06T09:07:06.103Z</time>
      </trkpt>
      <trkpt lat="45.98568" lon="4.83276">
        <ele>271.799987793</ele>
        <time>2015-07-06T09:07:07.052Z</time>
      </trkpt>
      <trkpt lat="45.98564" lon="4.83282">
        <ele>271.600006104</ele>
        <time>2015-07-06T09:07:08.007Z</time>
      </trkpt>
      <trkpt lat="45.9856" lon="4.83287">
        <ele>271.5</ele>
        <time>2015-07-06T09:07:09.008Z</time>
      </trkpt>
      <trkpt lat="45.98556" lon="4.83292">
        <ele>271.399993896</ele>
        <time>2015-07-06T09:07:10.006Z</time>
      </trkpt>
      <trkpt lat="45.98552" lon="4.83298">
        <ele>271.100006104</ele>
        <time>2015-07-06T09:07:11.022Z</time>
      </trkpt>
      <trkpt lat="45.98548" lon="4.83303">
        <ele>270.799987793</ele>
        <time>2015-07-06T09:07:12.012Z</time>
      </trkpt>
      <trkpt lat="45.98543" lon="4.83309">
        <ele>270.799987793</ele>
        <time>2015-07-06T09:07:13.009Z</time>
      </trkpt>
      <trkpt lat="45.98539" lon="4.83314">
        <ele>270.799987793</ele>
        <time>2015-07-06T09:07:14.01Z</time>
      </trkpt>
      <trkpt lat="45.98536" lon="4.8332">
        <ele>270.700012207</ele>
        <time>2015-07-06T09:07:15.005Z</time>
      </trkpt>
      <trkpt lat="45.98532" lon="4.83325">
        <ele>270.600006104</ele>
        <time>2015-07-06T09:07:16.006Z</time>
      </trkpt>
      <trkpt lat="45.98528" lon="4.8333">
        <ele>270.399993896</ele>
        <time>2015-07-06T09:07:17.009Z</time>
      </trkpt>
      <trkpt lat="45.98523" lon="4.83333">
        <ele>270.799987793</ele>
        <time>2015-07-06T09:07:18.013Z</time>
      </trkpt>
      <trkpt lat="45.98519" lon="4.83339">
        <ele>270.799987793</ele>
        <time>2015-07-06T09:07:19.006Z</time>
      </trkpt>
      <trkpt lat="45.98516" lon="4.83345">
        <ele>270.5</ele>
        <time>2015-07-06T09:07:20.009Z</time>
      </trkpt>
      <trkpt lat="45.98512" lon="4.8335">
        <ele>270.299987793</ele>
        <time>2015-07-06T09:07:21.008Z</time>
      </trkpt>
      <trkpt lat="45.98508" lon="4.83355">
        <ele>270.100006104</ele>
        <time>2015-07-06T09:07:22.01Z</time>
      </trkpt>
      <trkpt lat="45.98503" lon="4.83361">
        <ele>269.799987793</ele>
        <time>2015-07-06T09:07:23.044Z</time>
      </trkpt>
      <trkpt lat="45.98499" lon="4.83367">
        <ele>269.5</ele>
        <time>2015-07-06T09:07:24.011Z</time>
      </trkpt>
      <trkpt lat="45.98495" lon="4.83373">
        <ele>269.5</ele>
        <time>2015-07-06T09:07:25.006Z</time>
      </trkpt>
      <trkpt lat="45.98491" lon="4.83379">
        <ele>269.399993896</ele>
        <time>2015-07-06T09:07:26.008Z</time>
      </trkpt>
      <trkpt lat="45.98486" lon="4.83386">
        <ele>269.399993896</ele>
        <time>2015-07-06T09:07:27.022Z</time>
      </trkpt>
      <trkpt lat="45.98482" lon="4.83392">
        <ele>269.399993896</ele>
        <time>2015-07-06T09:07:28.006Z</time>
      </trkpt>
      <trkpt lat="45.98477" lon="4.83398">
        <ele>269.200012207</ele>
        <time>2015-07-06T09:07:29.008Z</time>
      </trkpt>
      <trkpt lat="45.98473" lon="4.83404">
        <ele>268.700012207</ele>
        <time>2015-07-06T09:07:30.008Z</time>
      </trkpt>
      <trkpt lat="45.98469" lon="4.8341">
        <ele>268.799987793</ele>
        <time>2015-07-06T09:07:31.005Z</time>
      </trkpt>
      <trkpt lat="45.98464" lon="4.83415">
        <ele>269.100006104</ele>
        <time>2015-07-06T09:07:32.006Z</time>
      </trkpt>
      <trkpt lat="45.9846" lon="4.8342">
        <ele>268.399993896</ele>
        <time>2015-07-06T09:07:33.005Z</time>
      </trkpt>
      <trkpt lat="45.98456" lon="4.83426">
        <ele>268.200012207</ele>
        <time>2015-07-06T09:07:34.009Z</time>
      </trkpt>
      <trkpt lat="45.98451" lon="4.83432">
        <ele>268.100006104</ele>
        <time>2015-07-06T09:07:35.005Z</time>
      </trkpt>
      <trkpt lat="45.98448" lon="4.83438">
        <ele>267.899993896</ele>
        <time>2015-07-06T09:07:36.01Z</time>
      </trkpt>
      <trkpt lat="45.98444" lon="4.83444">
        <ele>267.700012207</ele>
        <time>2015-07-06T09:07:37.005Z</time>
      </trkpt>
      <trkpt lat="45.98439" lon="4.8345">
        <ele>267.399993896</ele>
        <time>2015-07-06T09:07:38.006Z</time>
      </trkpt>
      <trkpt lat="45.98436" lon="4.83456">
        <ele>267.299987793</ele>
        <time>2015-07-06T09:07:39.005Z</time>
      </trkpt>
      <trkpt lat="45.98432" lon="4.83462">
        <ele>267.399993896</ele>
        <time>2015-07-06T09:07:40.005Z</time>
      </trkpt>
      <trkpt lat="45.98427" lon="4.83469">
        <ele>267.399993896</ele>
        <time>2015-07-06T09:07:41.005Z</time>
      </trkpt>
      <trkpt lat="45.98423" lon="4.83475">
        <ele>267.100006104</ele>
        <time>2015-07-06T09:07:42.008Z</time>
      </trkpt>
      <trkpt lat="45.98418" lon="4.83481">
        <ele>267</ele>
        <time>2015-07-06T09:07:42.997Z</time>
      </trkpt>
      <trkpt lat="45.98413" lon="4.83487">
        <ele>266.899993896</ele>
        <time>2015-07-06T09:07:44.01Z</time>
      </trkpt>
      <trkpt lat="45.98409" lon="4.83494">
        <ele>266.799987793</ele>
        <time>2015-07-06T09:07:45.005Z</time>
      </trkpt>
      <trkpt lat="45.98404" lon="4.835">
        <ele>266.899993896</ele>
        <time>2015-07-06T09:07:46.006Z</time>
      </trkpt>
      <trkpt lat="45.98399" lon="4.83508">
        <ele>266.399993896</ele>
        <time>2015-07-06T09:07:47.01Z</time>
      </trkpt>
      <trkpt lat="45.98394" lon="4.83514">
        <ele>266.100006104</ele>
        <time>2015-07-06T09:07:48.027Z</time>
      </trkpt>
      <trkpt lat="45.9839" lon="4.83521">
        <ele>266.200012207</ele>
        <time>2015-07-06T09:07:49.009Z</time>
      </trkpt>
      <trkpt lat="45.98386" lon="4.83527">
        <ele>266</ele>
        <time>2015-07-06T09:07:50.006Z</time>
      </trkpt>
      <trkpt lat="45.98381" lon="4.83533">
        <ele>266</ele>
        <time>2015-07-06T09:07:51.005Z</time>
      </trkpt>
      <trkpt lat="45.98376" lon="4.8354">
        <ele>265.799987793</ele>
        <time>2015-07-06T09:07:52.009Z</time>
      </trkpt>
      <trkpt lat="45.98371" lon="4.83545">
        <ele>266.100006104</ele>
        <time>2015-07-06T09:07:53.005Z</time>
      </trkpt>
      <trkpt lat="45.98367" lon="4.83552">
        <ele>266.299987793</ele>
        <time>2015-07-06T09:07:54.008Z</time>
      </trkpt>
      <trkpt lat="45.98363" lon="4.83558">
        <ele>266.5</ele>
        <time>2015-07-06T09:07:55.005Z</time>
      </trkpt>
      <trkpt lat="45.98358" lon="4.83563">
        <ele>266.600006104</ele>
        <time>2015-07-06T09:07:56.006Z</time>
      </trkpt>
      <trkpt lat="45.98353" lon="4.83569">
        <ele>266.700012207</ele>
        <time>2015-07-06T09:07:57.006Z</time>
      </trkpt>
      <trkpt lat="45.98349" lon="4.83574">
        <ele>266.799987793</ele>
        <time>2015-07-06T09:07:58.007Z</time>
      </trkpt>
      <trkpt lat="45.98344" lon="4.8358">
        <ele>266.899993896</ele>
        <time>2015-07-06T09:07:59.005Z</time>
      </trkpt>
      <trkpt lat="45.9834" lon="4.83585">
        <ele>266.899993896</ele>
        <time>2015-07-06T09:08:00.03Z</time>
      </trkpt>
      <trkpt lat="45.98336" lon="4.83592">
        <ele>266.700012207</ele>
        <time>2015-07-06T09:08:01.006Z</time>
      </trkpt>
      <trkpt lat="45.98332" lon="4.83598">
        <ele>266.5</ele>
        <time>2015-07-06T09:08:02.006Z</time>
      </trkpt>
      <trkpt lat="45.98328" lon="4.83604">
        <ele>266.399993896</ele>
        <time>2015-07-06T09:08:03.006Z</time>
      </trkpt>
      <trkpt lat="45.98324" lon="4.83611">
        <ele>266.200012207</ele>
        <time>2015-07-06T09:08:04.022Z</time>
      </trkpt>
      <trkpt lat="45.9832" lon="4.83618">
        <ele>265.899993896</ele>
        <time>2015-07-06T09:08:05.007Z</time>
      </trkpt>
      <trkpt lat="45.98316" lon="4.83624">
        <ele>266.100006104</ele>
        <time>2015-07-06T09:08:06.013Z</time>
      </trkpt>
      <trkpt lat="45.98313" lon="4.83631">
        <ele>266.200012207</ele>
        <time>2015-07-06T09:08:07.009Z</time>
      </trkpt>
      <trkpt lat="45.98309" lon="4.83638">
        <ele>266.200012207</ele>
        <time>2015-07-06T09:08:08.007Z</time>
      </trkpt>
      <trkpt lat="45.98305" lon="4.83644">
        <ele>266</ele>
        <time>2015-07-06T09:08:09.005Z</time>
      </trkpt>
      <trkpt lat="45.98301" lon="4.83651">
        <ele>266.200012207</ele>
        <time>2015-07-06T09:08:10.012Z</time>
      </trkpt>
      <trkpt lat="45.98298" lon="4.83658">
        <ele>266.200012207</ele>
        <time>2015-07-06T09:08:11.007Z</time>
      </trkpt>
      <trkpt lat="45.98296" lon="4.83665">
        <ele>266.200012207</ele>
        <time>2015-07-06T09:08:12.012Z</time>
      </trkpt>
      <trkpt lat="45.98294" lon="4.83672">
        <ele>266.100006104</ele>
        <time>2015-07-06T09:08:13.048Z</time>
      </trkpt>
      <trkpt lat="45.98291" lon="4.83679">
        <ele>266.200012207</ele>
        <time>2015-07-06T09:08:14.006Z</time>
      </trkpt>
      <trkpt lat="45.98288" lon="4.83686">
        <ele>265.899993896</ele>
        <time>2015-07-06T09:08:15.005Z</time>
      </trkpt>
      <trkpt lat="45.98285" lon="4.83693">
        <ele>266</ele>
        <time>2015-07-06T09:08:16.006Z</time>
      </trkpt>
      <trkpt lat="45.98282" lon="4.837">
        <ele>265.799987793</ele>
        <time>2015-07-06T09:08:17.052Z</time>
      </trkpt>
      <trkpt lat="45.98279" lon="4.83708">
        <ele>265.799987793</ele>
        <time>2015-07-06T09:08:18.012Z</time>
      </trkpt>
      <trkpt lat="45.98276" lon="4.83715">
        <ele>265.899993896</ele>
        <time>2015-07-06T09:08:19.009Z</time>
      </trkpt>
      <trkpt lat="45.98274" lon="4.83724">
        <ele>265.799987793</ele>
        <time>2015-07-06T09:08:20.01Z</time>
      </trkpt>
      <trkpt lat="45.98271" lon="4.83732">
        <ele>265.899993896</ele>
        <time>2015-07-06T09:08:21.009Z</time>
      </trkpt>
      <trkpt lat="45.98268" lon="4.8374">
        <ele>266</ele>
        <time>2015-07-06T09:08:22.049Z</time>
      </trkpt>
      <trkpt lat="45.98266" lon="4.83747">
        <ele>265.799987793</ele>
        <time>2015-07-06T09:08:23.005Z</time>
      </trkpt>
      <trkpt lat="45.98263" lon="4.83755">
        <ele>265.799987793</ele>
        <time>2015-07-06T09:08:24.01Z</time>
      </trkpt>
      <trkpt lat="45.9826" lon="4.83763">
        <ele>265.899993896</ele>
        <time>2015-07-06T09:08:25.021Z</time>
      </trkpt>
      <trkpt lat="45.98258" lon="4.8377">
        <ele>266</ele>
        <time>2015-07-06T09:08:26.008Z</time>
      </trkpt>
      <trkpt lat="45.98255" lon="4.83777">
        <ele>266</ele>
        <time>2015-07-06T09:08:27.008Z</time>
      </trkpt>
      <trkpt lat="45.98253" lon="4.83784">
        <ele>266</ele>
        <time>2015-07-06T09:08:28.008Z</time>
      </trkpt>
      <trkpt lat="45.98251" lon="4.83791">
        <ele>265.899993896</ele>
        <time>2015-07-06T09:08:29.009Z</time>
      </trkpt>
      <trkpt lat="45.98248" lon="4.83798">
        <ele>265.799987793</ele>
        <time>2015-07-06T09:08:30.007Z</time>
      </trkpt>
      <trkpt lat="45.98246" lon="4.83804">
        <ele>265.700012207</ele>
        <time>2015-07-06T09:08:31.009Z</time>
      </trkpt>
      <trkpt lat="45.98244" lon="4.83812">
        <ele>265.399993896</ele>
        <time>2015-07-06T09:08:32.006Z</time>
      </trkpt>
      <trkpt lat="45.98241" lon="4.83818">
        <ele>265.100006104</ele>
        <time>2015-07-06T09:08:33.04Z</time>
      </trkpt>
      <trkpt lat="45.98239" lon="4.83825">
        <ele>264.899993896</ele>
        <time>2015-07-06T09:08:34.005Z</time>
      </trkpt>
      <trkpt lat="45.98236" lon="4.83833">
        <ele>265.100006104</ele>
        <time>2015-07-06T09:08:35.005Z</time>
      </trkpt>
      <trkpt lat="45.98235" lon="4.8384">
        <ele>265.100006104</ele>
        <time>2015-07-06T09:08:36.013Z</time>
      </trkpt>
      <trkpt lat="45.98232" lon="4.83848">
        <ele>265.100006104</ele>
        <time>2015-07-06T09:08:37.004Z</time>
      </trkpt>
      <trkpt lat="45.9823" lon="4.83856">
        <ele>264.700012207</ele>
        <time>2015-07-06T09:08:38.005Z</time>
      </trkpt>
      <trkpt lat="45.98227" lon="4.83863">
        <ele>264.5</ele>
        <time>2015-07-06T09:08:39.005Z</time>
      </trkpt>
      <trkpt lat="45.98225" lon="4.83871">
        <ele>264.5</ele>
        <time>2015-07-06T09:08:40.005Z</time>
      </trkpt>
      <trkpt lat="45.98221" lon="4.83878">
        <ele>264.299987793</ele>
        <time>2015-07-06T09:08:41.052Z</time>
      </trkpt>
      <trkpt lat="45.98218" lon="4.83885">
        <ele>264.399993896</ele>
        <time>2015-07-06T09:08:42.004Z</time>
      </trkpt>
      <trkpt lat="45.98216" lon="4.83892">
        <ele>264.299987793</ele>
        <time>2015-07-06T09:08:43.005Z</time>
      </trkpt>
      <trkpt lat="45.98213" lon="4.83899">
        <ele>264.399993896</ele>
        <time>2015-07-06T09:08:44.007Z</time>
      </trkpt>
      <trkpt lat="45.98211" lon="4.83906">
        <ele>264.600006104</ele>
        <time>2015-07-06T09:08:45.008Z</time>
      </trkpt>
      <trkpt lat="45.98208" lon="4.83913">
        <ele>265</ele>
        <time>2015-07-06T09:08:46.005Z</time>
      </trkpt>
      <trkpt lat="45.98206" lon="4.8392">
        <ele>265.200012207</ele>
        <time>2015-07-06T09:08:47.02Z</time>
      </trkpt>
      <trkpt lat="45.98203" lon="4.83927">
        <ele>265.700012207</ele>
        <time>2015-07-06T09:08:48.008Z</time>
      </trkpt>
      <trkpt lat="45.982" lon="4.83932">
        <ele>266.299987793</ele>
        <time>2015-07-06T09:08:49.006Z</time>
      </trkpt>
      <trkpt lat="45.98198" lon="4.8394">
        <ele>266.700012207</ele>
        <time>2015-07-06T09:08:50.005Z</time>
      </trkpt>
      <trkpt lat="45.98195" lon="4.83947">
        <ele>267.100006104</ele>
        <time>2015-07-06T09:08:51.008Z</time>
      </trkpt>
      <trkpt lat="45.98192" lon="4.83954">
        <ele>267.399993896</ele>
        <time>2015-07-06T09:08:52.004Z</time>
      </trkpt>
      <trkpt lat="45.9819" lon="4.83961">
        <ele>267.5</ele>
        <time>2015-07-06T09:08:53.004Z</time>
      </trkpt>
      <trkpt lat="45.98187" lon="4.83969">
        <ele>267.799987793</ele>
        <time>2015-07-06T09:08:54.011Z</time>
      </trkpt>
      <trkpt lat="45.98184" lon="4.83977">
        <ele>268</ele>
        <time>2015-07-06T09:08:55.009Z</time>
      </trkpt>
      <trkpt lat="45.98181" lon="4.83984">
        <ele>268.399993896</ele>
        <time>2015-07-06T09:08:56.007Z</time>
      </trkpt>
      <trkpt lat="45.98178" lon="4.83992">
        <ele>268.600006104</ele>
        <time>2015-07-06T09:08:57.021Z</time>
      </trkpt>
      <trkpt lat="45.98175" lon="4.83999">
        <ele>268.799987793</ele>
        <time>2015-07-06T09:08:58.004Z</time>
      </trkpt>
      <trkpt lat="45.98171" lon="4.84006">
        <ele>268.899993896</ele>
        <time>2015-07-06T09:08:59.004Z</time>
      </trkpt>
      <trkpt lat="45.98168" lon="4.84013">
        <ele>269.100006104</ele>
        <time>2015-07-06T09:09:00.027Z</time>
      </trkpt>
      <trkpt lat="45.98165" lon="4.84019">
        <ele>269.399993896</ele>
        <time>2015-07-06T09:09:01.005Z</time>
      </trkpt>
      <trkpt lat="45.98162" lon="4.84026">
        <ele>269.5</ele>
        <time>2015-07-06T09:09:02.006Z</time>
      </trkpt>
      <trkpt lat="45.98158" lon="4.84032">
        <ele>269.5</ele>
        <time>2015-07-06T09:09:03.004Z</time>
      </trkpt>
      <trkpt lat="45.98154" lon="4.84036">
        <ele>269.600006104</ele>
        <time>2015-07-06T09:09:04.004Z</time>
      </trkpt>
      <trkpt lat="45.98151" lon="4.84041">
        <ele>269.600006104</ele>
        <time>2015-07-06T09:09:05.005Z</time>
      </trkpt>
      <trkpt lat="45.98147" lon="4.84047">
        <ele>269.899993896</ele>
        <time>2015-07-06T09:09:06.007Z</time>
      </trkpt>
      <trkpt lat="45.98144" lon="4.84053">
        <ele>269.600006104</ele>
        <time>2015-07-06T09:09:07.005Z</time>
      </trkpt>
      <trkpt lat="45.9814" lon="4.84059">
        <ele>269.799987793</ele>
        <time>2015-07-06T09:09:08.01Z</time>
      </trkpt>
      <trkpt lat="45.98136" lon="4.84064">
        <ele>269.799987793</ele>
        <time>2015-07-06T09:09:09.005Z</time>
      </trkpt>
      <trkpt lat="45.98132" lon="4.8407">
        <ele>269.899993896</ele>
        <time>2015-07-06T09:09:10.005Z</time>
      </trkpt>
      <trkpt lat="45.98128" lon="4.84076">
        <ele>269.700012207</ele>
        <time>2015-07-06T09:09:11.005Z</time>
      </trkpt>
      <trkpt lat="45.98123" lon="4.84081">
        <ele>269.899993896</ele>
        <time>2015-07-06T09:09:12.013Z</time>
      </trkpt>
      <trkpt lat="45.98119" lon="4.84087">
        <ele>269.899993896</ele>
        <time>2015-07-06T09:09:13.026Z</time>
      </trkpt>
      <trkpt lat="45.98114" lon="4.84093">
        <ele>270.100006104</ele>
        <time>2015-07-06T09:09:14.006Z</time>
      </trkpt>
      <trkpt lat="45.98109" lon="4.84098">
        <ele>269.700012207</ele>
        <time>2015-07-06T09:09:15.005Z</time>
      </trkpt>
      <trkpt lat="45.98104" lon="4.84102">
        <ele>269.700012207</ele>
        <time>2015-07-06T09:09:16.004Z</time>
      </trkpt>
      <trkpt lat="45.98099" lon="4.84107">
        <ele>269.799987793</ele>
        <time>2015-07-06T09:09:17.043Z</time>
      </trkpt>
      <trkpt lat="45.98094" lon="4.84112">
        <ele>269.700012207</ele>
        <time>2015-07-06T09:09:18.009Z</time>
      </trkpt>
      <trkpt lat="45.98089" lon="4.84117">
        <ele>269.5</ele>
        <time>2015-07-06T09:09:19.005Z</time>
      </trkpt>
      <trkpt lat="45.98084" lon="4.84122">
        <ele>269.600006104</ele>
        <time>2015-07-06T09:09:20.008Z</time>
      </trkpt>
      <trkpt lat="45.98079" lon="4.84127">
        <ele>269.700012207</ele>
        <time>2015-07-06T09:09:21.032Z</time>
      </trkpt>
      <trkpt lat="45.98074" lon="4.84132">
        <ele>269.600006104</ele>
        <time>2015-07-06T09:09:22.007Z</time>
      </trkpt>
      <trkpt lat="45.98069" lon="4.84137">
        <ele>269.899993896</ele>
        <time>2015-07-06T09:09:23.005Z</time>
      </trkpt>
      <trkpt lat="45.98064" lon="4.84141">
        <ele>269.799987793</ele>
        <time>2015-07-06T09:09:24.012Z</time>
      </trkpt>
      <trkpt lat="45.98059" lon="4.84146">
        <ele>269.700012207</ele>
        <time>2015-07-06T09:09:25.004Z</time>
      </trkpt>
      <trkpt lat="45.98054" lon="4.8415">
        <ele>269.700012207</ele>
        <time>2015-07-06T09:09:26.006Z</time>
      </trkpt>
      <trkpt lat="45.98049" lon="4.84154">
        <ele>269.600006104</ele>
        <time>2015-07-06T09:09:27.005Z</time>
      </trkpt>
      <trkpt lat="45.98045" lon="4.84159">
        <ele>269.600006104</ele>
        <time>2015-07-06T09:09:28.004Z</time>
      </trkpt>
      <trkpt lat="45.9804" lon="4.84163">
        <ele>269.399993896</ele>
        <time>2015-07-06T09:09:29.021Z</time>
      </trkpt>
      <trkpt lat="45.98035" lon="4.84168">
        <ele>269.100006104</ele>
        <time>2015-07-06T09:09:30.013Z</time>
      </trkpt>
      <trkpt lat="45.98031" lon="4.84172">
        <ele>269.399993896</ele>
        <time>2015-07-06T09:09:31.005Z</time>
      </trkpt>
      <trkpt lat="45.98026" lon="4.84177">
        <ele>269.299987793</ele>
        <time>2015-07-06T09:09:32.008Z</time>
      </trkpt>
      <trkpt lat="45.98021" lon="4.84182">
        <ele>268.899993896</ele>
        <time>2015-07-06T09:09:33.005Z</time>
      </trkpt>
      <trkpt lat="45.98016" lon="4.84186">
        <ele>268.600006104</ele>
        <time>2015-07-06T09:09:34.004Z</time>
      </trkpt>
      <trkpt lat="45.98011" lon="4.84191">
        <ele>268.399993896</ele>
        <time>2015-07-06T09:09:35.004Z</time>
      </trkpt>
      <trkpt lat="45.98005" lon="4.84196">
        <ele>268</ele>
        <time>2015-07-06T09:09:36.008Z</time>
      </trkpt>
      <trkpt lat="45.98" lon="4.842">
        <ele>267.799987793</ele>
        <time>2015-07-06T09:09:37.004Z</time>
      </trkpt>
      <trkpt lat="45.97995" lon="4.84205">
        <ele>267.899993896</ele>
        <time>2015-07-06T09:09:38.007Z</time>
      </trkpt>
      <trkpt lat="45.9799" lon="4.8421">
        <ele>267.700012207</ele>
        <time>2015-07-06T09:09:39.005Z</time>
      </trkpt>
      <trkpt lat="45.97985" lon="4.84216">
        <ele>267.399993896</ele>
        <time>2015-07-06T09:09:40.004Z</time>
      </trkpt>
      <trkpt lat="45.97979" lon="4.84221">
        <ele>267.399993896</ele>
        <time>2015-07-06T09:09:41.037Z</time>
      </trkpt>
      <trkpt lat="45.97974" lon="4.84226">
        <ele>267.600006104</ele>
        <time>2015-07-06T09:09:42.007Z</time>
      </trkpt>
      <trkpt lat="45.97969" lon="4.84231">
        <ele>267.600006104</ele>
        <time>2015-07-06T09:09:43.008Z</time>
      </trkpt>
      <trkpt lat="45.97964" lon="4.84236">
        <ele>267.600006104</ele>
        <time>2015-07-06T09:09:44.005Z</time>
      </trkpt>
      <trkpt lat="45.97958" lon="4.84241">
        <ele>267.5</ele>
        <time>2015-07-06T09:09:45.019Z</time>
      </trkpt>
      <trkpt lat="45.97954" lon="4.84246">
        <ele>267.200012207</ele>
        <time>2015-07-06T09:09:46.004Z</time>
      </trkpt>
      <trkpt lat="45.97949" lon="4.8425">
        <ele>267.299987793</ele>
        <time>2015-07-06T09:09:47.004Z</time>
      </trkpt>
      <trkpt lat="45.97944" lon="4.84255">
        <ele>267.399993896</ele>
        <time>2015-07-06T09:09:48.008Z</time>
      </trkpt>
      <trkpt lat="45.9794" lon="4.8426">
        <ele>267.299987793</ele>
        <time>2015-07-06T09:09:49.006Z</time>
      </trkpt>
      <trkpt lat="45.97935" lon="4.84264">
        <ele>267.600006104</ele>
        <time>2015-07-06T09:09:50.004Z</time>
      </trkpt>
      <trkpt lat="45.97932" lon="4.8427">
        <ele>267.700012207</ele>
        <time>2015-07-06T09:09:51.004Z</time>
      </trkpt>
      <trkpt lat="45.97929" lon="4.84277">
        <ele>268.100006104</ele>
        <time>2015-07-06T09:09:52.004Z</time>
      </trkpt>
      <trkpt lat="45.97927" lon="4.84284">
        <ele>268.299987793</ele>
        <time>2015-07-06T09:09:53.009Z</time>
      </trkpt>
      <trkpt lat="45.97926" lon="4.84292">
        <ele>268.5</ele>
        <time>2015-07-06T09:09:54.008Z</time>
      </trkpt>
      <trkpt lat="45.97926" lon="4.84301">
        <ele>268.5</ele>
        <time>2015-07-06T09:09:55.004Z</time>
      </trkpt>
      <trkpt lat="45.97927" lon="4.84309">
        <ele>268.5</ele>
        <time>2015-07-06T09:09:56.005Z</time>
      </trkpt>
      <trkpt lat="45.97928" lon="4.84316">
        <ele>268.5</ele>
        <time>2015-07-06T09:09:57.008Z</time>
      </trkpt>
      <trkpt lat="45.9793" lon="4.84324">
        <ele>268.399993896</ele>
        <time>2015-07-06T09:09:58.006Z</time>
      </trkpt>
      <trkpt lat="45.97931" lon="4.84332">
        <ele>268.399993896</ele>
        <time>2015-07-06T09:09:59.004Z</time>
      </trkpt>
      <trkpt lat="45.97932" lon="4.8434">
        <ele>268.700012207</ele>
        <time>2015-07-06T09:10:00.03Z</time>
      </trkpt>
      <trkpt lat="45.97933" lon="4.84347">
        <ele>268.700012207</ele>
        <time>2015-07-06T09:10:01.019Z</time>
      </trkpt>
      <trkpt lat="45.97935" lon="4.84355">
        <ele>268.799987793</ele>
        <time>2015-07-06T09:10:02.005Z</time>
      </trkpt>
      <trkpt lat="45.97936" lon="4.84363">
        <ele>269.100006104</ele>
        <time>2015-07-06T09:10:03.01Z</time>
      </trkpt>
      <trkpt lat="45.97938" lon="4.84371">
        <ele>269.299987793</ele>
        <time>2015-07-06T09:10:04.007Z</time>
      </trkpt>
      <trkpt lat="45.97939" lon="4.84379">
        <ele>269.700012207</ele>
        <time>2015-07-06T09:10:05.009Z</time>
      </trkpt>
      <trkpt lat="45.9794" lon="4.84387">
        <ele>269.899993896</ele>
        <time>2015-07-06T09:10:06.008Z</time>
      </trkpt>
      <trkpt lat="45.97942" lon="4.84395">
        <ele>269.899993896</ele>
        <time>2015-07-06T09:10:07.004Z</time>
      </trkpt>
      <trkpt lat="45.97943" lon="4.84404">
        <ele>269.700012207</ele>
        <time>2015-07-06T09:10:08.009Z</time>
      </trkpt>
      <trkpt lat="45.97945" lon="4.84412">
        <ele>269.799987793</ele>
        <time>2015-07-06T09:10:09.004Z</time>
      </trkpt>
      <trkpt lat="45.97946" lon="4.84421">
        <ele>270</ele>
        <time>2015-07-06T09:10:10.004Z</time>
      </trkpt>
      <trkpt lat="45.97948" lon="4.84429">
        <ele>270</ele>
        <time>2015-07-06T09:10:11.004Z</time>
      </trkpt>
      <trkpt lat="45.97949" lon="4.84438">
        <ele>269.799987793</ele>
        <time>2015-07-06T09:10:12.008Z</time>
      </trkpt>
      <trkpt lat="45.9795" lon="4.84446">
        <ele>270.100006104</ele>
        <time>2015-07-06T09:10:13.008Z</time>
      </trkpt>
      <trkpt lat="45.97952" lon="4.84455">
        <ele>270.5</ele>
        <time>2015-07-06T09:10:14.005Z</time>
      </trkpt>
      <trkpt lat="45.97953" lon="4.84463">
        <ele>270.5</ele>
        <time>2015-07-06T09:10:15.009Z</time>
      </trkpt>
      <trkpt lat="45.97954" lon="4.84471">
        <ele>270.799987793</ele>
        <time>2015-07-06T09:10:16.006Z</time>
      </trkpt>
      <trkpt lat="45.97955" lon="4.84479">
        <ele>271</ele>
        <time>2015-07-06T09:10:17.02Z</time>
      </trkpt>
      <trkpt lat="45.97957" lon="4.84486">
        <ele>271.200012207</ele>
        <time>2015-07-06T09:10:18.005Z</time>
      </trkpt>
      <trkpt lat="45.97958" lon="4.84494">
        <ele>271.399993896</ele>
        <time>2015-07-06T09:10:19.004Z</time>
      </trkpt>
      <trkpt lat="45.97958" lon="4.84502">
        <ele>271.799987793</ele>
        <time>2015-07-06T09:10:20.03Z</time>
      </trkpt>
      <trkpt lat="45.97959" lon="4.8451">
        <ele>272</ele>
        <time>2015-07-06T09:10:21.004Z</time>
      </trkpt>
      <trkpt lat="45.97961" lon="4.84519">
        <ele>272.200012207</ele>
        <time>2015-07-06T09:10:22.007Z</time>
      </trkpt>
      <trkpt lat="45.97962" lon="4.84527">
        <ele>272.100006104</ele>
        <time>2015-07-06T09:10:23.004Z</time>
      </trkpt>
      <trkpt lat="45.97964" lon="4.84536">
        <ele>272.200012207</ele>
        <time>2015-07-06T09:10:24.007Z</time>
      </trkpt>
      <trkpt lat="45.97965" lon="4.84545">
        <ele>272.299987793</ele>
        <time>2015-07-06T09:10:25.004Z</time>
      </trkpt>
      <trkpt lat="45.97966" lon="4.84554">
        <ele>272.399993896</ele>
        <time>2015-07-06T09:10:26.004Z</time>
      </trkpt>
      <trkpt lat="45.97967" lon="4.84563">
        <ele>272.399993896</ele>
        <time>2015-07-06T09:10:27.008Z</time>
      </trkpt>
      <trkpt lat="45.97969" lon="4.84571">
        <ele>272.299987793</ele>
        <time>2015-07-06T09:10:28.004Z</time>
      </trkpt>
      <trkpt lat="45.9797" lon="4.8458">
        <ele>272.299987793</ele>
        <time>2015-07-06T09:10:29.005Z</time>
      </trkpt>
      <trkpt lat="45.97972" lon="4.84589">
        <ele>272.100006104</ele>
        <time>2015-07-06T09:10:30.007Z</time>
      </trkpt>
      <trkpt lat="45.97974" lon="4.84599">
        <ele>272.200012207</ele>
        <time>2015-07-06T09:10:31.005Z</time>
      </trkpt>
      <trkpt lat="45.97975" lon="4.84608">
        <ele>272.399993896</ele>
        <time>2015-07-06T09:10:32.005Z</time>
      </trkpt>
      <trkpt lat="45.97977" lon="4.84618">
        <ele>272.5</ele>
        <time>2015-07-06T09:10:33.02Z</time>
      </trkpt>
      <trkpt lat="45.97979" lon="4.84627">
        <ele>272.399993896</ele>
        <time>2015-07-06T09:10:34.008Z</time>
      </trkpt>
      <trkpt lat="45.9798" lon="4.84635">
        <ele>272.5</ele>
        <time>2015-07-06T09:10:35.008Z</time>
      </trkpt>
      <trkpt lat="45.97981" lon="4.84643">
        <ele>272.700012207</ele>
        <time>2015-07-06T09:10:36.009Z</time>
      </trkpt>
      <trkpt lat="45.97982" lon="4.84652">
        <ele>272.700012207</ele>
        <time>2015-07-06T09:10:37.004Z</time>
      </trkpt>
      <trkpt lat="45.97983" lon="4.8466">
        <ele>272.700012207</ele>
        <time>2015-07-06T09:10:38.005Z</time>
      </trkpt>
      <trkpt lat="45.97984" lon="4.84668">
        <ele>272.700012207</ele>
        <time>2015-07-06T09:10:39.008Z</time>
      </trkpt>
      <trkpt lat="45.97985" lon="4.84677">
        <ele>272.799987793</ele>
        <time>2015-07-06T09:10:40.032Z</time>
      </trkpt>
      <trkpt lat="45.97986" lon="4.84684">
        <ele>272.899993896</ele>
        <time>2015-07-06T09:10:41.008Z</time>
      </trkpt>
      <trkpt lat="45.97987" lon="4.84693">
        <ele>273.100006104</ele>
        <time>2015-07-06T09:10:42.007Z</time>
      </trkpt>
      <trkpt lat="45.97988" lon="4.847">
        <ele>273.399993896</ele>
        <time>2015-07-06T09:10:43.006Z</time>
      </trkpt>
      <trkpt lat="45.97988" lon="4.84708">
        <ele>273.600006104</ele>
        <time>2015-07-06T09:10:44.005Z</time>
      </trkpt>
      <trkpt lat="45.97989" lon="4.84716">
        <ele>274.200012207</ele>
        <time>2015-07-06T09:10:45.007Z</time>
      </trkpt>
      <trkpt lat="45.9799" lon="4.84724">
        <ele>274.200012207</ele>
        <time>2015-07-06T09:10:46.006Z</time>
      </trkpt>
      <trkpt lat="45.9799" lon="4.84732">
        <ele>274.399993896</ele>
        <time>2015-07-06T09:10:47.008Z</time>
      </trkpt>
      <trkpt lat="45.9799" lon="4.84739">
        <ele>274.600006104</ele>
        <time>2015-07-06T09:10:48.011Z</time>
      </trkpt>
      <trkpt lat="45.97991" lon="4.84746">
        <ele>274.700012207</ele>
        <time>2015-07-06T09:10:49.023Z</time>
      </trkpt>
      <trkpt lat="45.97992" lon="4.84753">
        <ele>274.899993896</ele>
        <time>2015-07-06T09:10:50.006Z</time>
      </trkpt>
      <trkpt lat="45.97992" lon="4.84761">
        <ele>275.100006104</ele>
        <time>2015-07-06T09:10:51.006Z</time>
      </trkpt>
      <trkpt lat="45.97993" lon="4.84769">
        <ele>275.200012207</ele>
        <time>2015-07-06T09:10:52.008Z</time>
      </trkpt>
      <trkpt lat="45.97993" lon="4.84777">
        <ele>275.299987793</ele>
        <time>2015-07-06T09:10:53.004Z</time>
      </trkpt>
      <trkpt lat="45.97994" lon="4.84784">
        <ele>275.399993896</ele>
        <time>2015-07-06T09:10:54.007Z</time>
      </trkpt>
      <trkpt lat="45.97994" lon="4.84792">
        <ele>275.600006104</ele>
        <time>2015-07-06T09:10:55.008Z</time>
      </trkpt>
      <trkpt lat="45.97995" lon="4.848">
        <ele>275.700012207</ele>
        <time>2015-07-06T09:10:56.004Z</time>
      </trkpt>
      <trkpt lat="45.97995" lon="4.84807">
        <ele>276</ele>
        <time>2015-07-06T09:10:57.004Z</time>
      </trkpt>
      <trkpt lat="45.97996" lon="4.84815">
        <ele>276.200012207</ele>
        <time>2015-07-06T09:10:58.006Z</time>
      </trkpt>
      <trkpt lat="45.97996" lon="4.84823">
        <ele>276.600006104</ele>
        <time>2015-07-06T09:10:59.003Z</time>
      </trkpt>
      <trkpt lat="45.97996" lon="4.84831">
        <ele>276.899993896</ele>
        <time>2015-07-06T09:11:00.059Z</time>
      </trkpt>
      <trkpt lat="45.97997" lon="4.84839">
        <ele>277</ele>
        <time>2015-07-06T09:11:01.006Z</time>
      </trkpt>
      <trkpt lat="45.97999" lon="4.84846">
        <ele>277.200012207</ele>
        <time>2015-07-06T09:11:02.007Z</time>
      </trkpt>
      <trkpt lat="45.97999" lon="4.84854">
        <ele>277.5</ele>
        <time>2015-07-06T09:11:03.006Z</time>
      </trkpt>
      <trkpt lat="45.98" lon="4.8486">
        <ele>277.799987793</ele>
        <time>2015-07-06T09:11:04.008Z</time>
      </trkpt>
      <trkpt lat="45.98" lon="4.84868">
        <ele>278.100006104</ele>
        <time>2015-07-06T09:11:05.022Z</time>
      </trkpt>
      <trkpt lat="45.98001" lon="4.84877">
        <ele>278.399993896</ele>
        <time>2015-07-06T09:11:06.008Z</time>
      </trkpt>
      <trkpt lat="45.98002" lon="4.84885">
        <ele>278.600006104</ele>
        <time>2015-07-06T09:11:07.011Z</time>
      </trkpt>
      <trkpt lat="45.98003" lon="4.84894">
        <ele>278.899993896</ele>
        <time>2015-07-06T09:11:08.009Z</time>
      </trkpt>
      <trkpt lat="45.98003" lon="4.84903">
        <ele>279.399993896</ele>
        <time>2015-07-06T09:11:09.006Z</time>
      </trkpt>
      <trkpt lat="45.98004" lon="4.84911">
        <ele>279.700012207</ele>
        <time>2015-07-06T09:11:10.004Z</time>
      </trkpt>
      <trkpt lat="45.98005" lon="4.8492">
        <ele>279.899993896</ele>
        <time>2015-07-06T09:11:11.007Z</time>
      </trkpt>
      <trkpt lat="45.98005" lon="4.84928">
        <ele>280.200012207</ele>
        <time>2015-07-06T09:11:12.007Z</time>
      </trkpt>
      <trkpt lat="45.98006" lon="4.84937">
        <ele>280.399993896</ele>
        <time>2015-07-06T09:11:13.004Z</time>
      </trkpt>
      <trkpt lat="45.98007" lon="4.84947">
        <ele>280.399993896</ele>
        <time>2015-07-06T09:11:14.008Z</time>
      </trkpt>
      <trkpt lat="45.98008" lon="4.84956">
        <ele>280.200012207</ele>
        <time>2015-07-06T09:11:15.008Z</time>
      </trkpt>
      <trkpt lat="45.98009" lon="4.84968">
        <ele>280</ele>
        <time>2015-07-06T09:11:16.004Z</time>
      </trkpt>
      <trkpt lat="45.9801" lon="4.84977">
        <ele>279.700012207</ele>
        <time>2015-07-06T09:11:17.004Z</time>
      </trkpt>
      <trkpt lat="45.98011" lon="4.84985">
        <ele>279.700012207</ele>
        <time>2015-07-06T09:11:18.007Z</time>
      </trkpt>
      <trkpt lat="45.98012" lon="4.84993">
        <ele>279.700012207</ele>
        <time>2015-07-06T09:11:18.995Z</time>
      </trkpt>
      <trkpt lat="45.98013" lon="4.85003">
        <ele>279.100006104</ele>
        <time>2015-07-06T09:11:20.006Z</time>
      </trkpt>
      <trkpt lat="45.98013" lon="4.85011">
        <ele>278.600006104</ele>
        <time>2015-07-06T09:11:21.02Z</time>
      </trkpt>
      <trkpt lat="45.98014" lon="4.85019">
        <ele>278.799987793</ele>
        <time>2015-07-06T09:11:22.008Z</time>
      </trkpt>
      <trkpt lat="45.98015" lon="4.85028">
        <ele>278.5</ele>
        <time>2015-07-06T09:11:23.003Z</time>
      </trkpt>
      <trkpt lat="45.98016" lon="4.85036">
        <ele>278.200012207</ele>
        <time>2015-07-06T09:11:24.007Z</time>
      </trkpt>
      <trkpt lat="45.98017" lon="4.85044">
        <ele>277.700012207</ele>
        <time>2015-07-06T09:11:25.008Z</time>
      </trkpt>
      <trkpt lat="45.98017" lon="4.85052">
        <ele>277.799987793</ele>
        <time>2015-07-06T09:11:26.073Z</time>
      </trkpt>
      <trkpt lat="45.98017" lon="4.8506">
        <ele>277.600006104</ele>
        <time>2015-07-06T09:11:27.004Z</time>
      </trkpt>
      <trkpt lat="45.98017" lon="4.85068">
        <ele>276.899993896</ele>
        <time>2015-07-06T09:11:28.007Z</time>
      </trkpt>
      <trkpt lat="45.98017" lon="4.85075">
        <ele>277</ele>
        <time>2015-07-06T09:11:29.008Z</time>
      </trkpt>
      <trkpt lat="45.98017" lon="4.85082">
        <ele>277</ele>
        <time>2015-07-06T09:11:30.006Z</time>
      </trkpt>
      <trkpt lat="45.98018" lon="4.85089">
        <ele>276.799987793</ele>
        <time>2015-07-06T09:11:31.003Z</time>
      </trkpt>
      <trkpt lat="45.98019" lon="4.85095">
        <ele>276.700012207</ele>
        <time>2015-07-06T09:11:32.008Z</time>
      </trkpt>
      <trkpt lat="45.9802" lon="4.85102">
        <ele>276.700012207</ele>
        <time>2015-07-06T09:11:33.009Z</time>
      </trkpt>
      <trkpt lat="45.98023" lon="4.8511">
        <ele>275.700012207</ele>
        <time>2015-07-06T09:11:34.002Z</time>
      </trkpt>
      <trkpt lat="45.98025" lon="4.85117">
        <ele>275.5</ele>
        <time>2015-07-06T09:11:35.008Z</time>
      </trkpt>
      <trkpt lat="45.98027" lon="4.85124">
        <ele>274.799987793</ele>
        <time>2015-07-06T09:11:36.009Z</time>
      </trkpt>
      <trkpt lat="45.98028" lon="4.85131">
        <ele>274.600006104</ele>
        <time>2015-07-06T09:11:37.022Z</time>
      </trkpt>
      <trkpt lat="45.9803" lon="4.85137">
        <ele>275</ele>
        <time>2015-07-06T09:11:38.032Z</time>
      </trkpt>
      <trkpt lat="45.98032" lon="4.85143">
        <ele>274.299987793</ele>
        <time>2015-07-06T09:11:39.004Z</time>
      </trkpt>
      <trkpt lat="45.98034" lon="4.8515">
        <ele>273.899993896</ele>
        <time>2015-07-06T09:11:40.003Z</time>
      </trkpt>
      <trkpt lat="45.98035" lon="4.85156">
        <ele>273.700012207</ele>
        <time>2015-07-06T09:11:41.003Z</time>
      </trkpt>
      <trkpt lat="45.98037" lon="4.85162">
        <ele>273.799987793</ele>
        <time>2015-07-06T09:11:42.01Z</time>
      </trkpt>
      <trkpt lat="45.98039" lon="4.85169">
        <ele>274.100006104</ele>
        <time>2015-07-06T09:11:43.003Z</time>
      </trkpt>
      <trkpt lat="45.98041" lon="4.85175">
        <ele>273.799987793</ele>
        <time>2015-07-06T09:11:44.004Z</time>
      </trkpt>
      <trkpt lat="45.98042" lon="4.85181">
        <ele>273.600006104</ele>
        <time>2015-07-06T09:11:45.007Z</time>
      </trkpt>
      <trkpt lat="45.98044" lon="4.85187">
        <ele>273.600006104</ele>
        <time>2015-07-06T09:11:46.005Z</time>
      </trkpt>
      <trkpt lat="45.98046" lon="4.85193">
        <ele>273.700012207</ele>
        <time>2015-07-06T09:11:47.003Z</time>
      </trkpt>
      <trkpt lat="45.98047" lon="4.85199">
        <ele>274</ele>
        <time>2015-07-06T09:11:48.011Z</time>
      </trkpt>
      <trkpt lat="45.9805" lon="4.8521">
        <ele>274.200012207</ele>
        <time>2015-07-06T09:11:50.009Z</time>
      </trkpt>
      <trkpt lat="45.9805" lon="4.85214">
        <ele>275.200012207</ele>
        <time>2015-07-06T09:11:51.006Z</time>
      </trkpt>
      <trkpt lat="45.98053" lon="4.85223">
        <ele>275.5</ele>
        <time>2015-07-06T09:11:53.021Z</time>
      </trkpt>
      <trkpt lat="45.98056" lon="4.85228">
        <ele>275.600006104</ele>
        <time>2015-07-06T09:11:54.006Z</time>
      </trkpt>
      <trkpt lat="45.98061" lon="4.85237">
        <ele>276.299987793</ele>
        <time>2015-07-06T09:11:56.004Z</time>
      </trkpt>
      <trkpt lat="45.98064" lon="4.85243">
        <ele>276.200012207</ele>
        <time>2015-07-06T09:11:57.003Z</time>
      </trkpt>
      <trkpt lat="45.98067" lon="4.85249">
        <ele>276.299987793</ele>
        <time>2015-07-06T09:11:58.003Z</time>
      </trkpt>
      <trkpt lat="45.9807" lon="4.85255">
        <ele>276.5</ele>
        <time>2015-07-06T09:11:59.011Z</time>
      </trkpt>
      <trkpt lat="45.98073" lon="4.85261">
        <ele>276.600006104</ele>
        <time>2015-07-06T09:12:00.028Z</time>
      </trkpt>
      <trkpt lat="45.98076" lon="4.85267">
        <ele>276.700012207</ele>
        <time>2015-07-06T09:12:01.005Z</time>
      </trkpt>
      <trkpt lat="45.98079" lon="4.85273">
        <ele>276.600006104</ele>
        <time>2015-07-06T09:12:02.004Z</time>
      </trkpt>
      <trkpt lat="45.98083" lon="4.85279">
        <ele>276.700012207</ele>
        <time>2015-07-06T09:12:03.003Z</time>
      </trkpt>
      <trkpt lat="45.98086" lon="4.85285">
        <ele>276.899993896</ele>
        <time>2015-07-06T09:12:04.003Z</time>
      </trkpt>
      <trkpt lat="45.98089" lon="4.85292">
        <ele>277.100006104</ele>
        <time>2015-07-06T09:12:05.008Z</time>
      </trkpt>
      <trkpt lat="45.98092" lon="4.85298">
        <ele>277.100006104</ele>
        <time>2015-07-06T09:12:06.008Z</time>
      </trkpt>
      <trkpt lat="45.98095" lon="4.85305">
        <ele>276.799987793</ele>
        <time>2015-07-06T09:12:07.028Z</time>
      </trkpt>
      <trkpt lat="45.98098" lon="4.85313">
        <ele>276.5</ele>
        <time>2015-07-06T09:12:08.009Z</time>
      </trkpt>
      <trkpt lat="45.98101" lon="4.8532">
        <ele>276.5</ele>
        <time>2015-07-06T09:12:09.003Z</time>
      </trkpt>
      <trkpt lat="45.98104" lon="4.85327">
        <ele>276.799987793</ele>
        <time>2015-07-06T09:12:10.007Z</time>
      </trkpt>
      <trkpt lat="45.98106" lon="4.85333">
        <ele>277</ele>
        <time>2015-07-06T09:12:11.005Z</time>
      </trkpt>
      <trkpt lat="45.98109" lon="4.85339">
        <ele>277.299987793</ele>
        <time>2015-07-06T09:12:12.01Z</time>
      </trkpt>
      <trkpt lat="45.98112" lon="4.85345">
        <ele>277.600006104</ele>
        <time>2015-07-06T09:12:13.003Z</time>
      </trkpt>
      <trkpt lat="45.98115" lon="4.85352">
        <ele>278</ele>
        <time>2015-07-06T09:12:14.022Z</time>
      </trkpt>
      <trkpt lat="45.98118" lon="4.85357">
        <ele>278.100006104</ele>
        <time>2015-07-06T09:12:15.008Z</time>
      </trkpt>
      <trkpt lat="45.98121" lon="4.85363">
        <ele>278.299987793</ele>
        <time>2015-07-06T09:12:16.005Z</time>
      </trkpt>
      <trkpt lat="45.98123" lon="4.85369">
        <ele>278.200012207</ele>
        <time>2015-07-06T09:12:17.005Z</time>
      </trkpt>
      <trkpt lat="45.98125" lon="4.85375">
        <ele>278.700012207</ele>
        <time>2015-07-06T09:12:18.007Z</time>
      </trkpt>
      <trkpt lat="45.98128" lon="4.85382">
        <ele>278.700012207</ele>
        <time>2015-07-06T09:12:19.005Z</time>
      </trkpt>
      <trkpt lat="45.98131" lon="4.85389">
        <ele>278.100006104</ele>
        <time>2015-07-06T09:12:20.009Z</time>
      </trkpt>
      <trkpt lat="45.98134" lon="4.85396">
        <ele>278.299987793</ele>
        <time>2015-07-06T09:12:21.003Z</time>
      </trkpt>
      <trkpt lat="45.98136" lon="4.85403">
        <ele>278.899993896</ele>
        <time>2015-07-06T09:12:22.025Z</time>
      </trkpt>
      <trkpt lat="45.9814" lon="4.85411">
        <ele>278.799987793</ele>
        <time>2015-07-06T09:12:23.007Z</time>
      </trkpt>
      <trkpt lat="45.98143" lon="4.85418">
        <ele>278.5</ele>
        <time>2015-07-06T09:12:24.01Z</time>
      </trkpt>
      <trkpt lat="45.98146" lon="4.85426">
        <ele>278.600006104</ele>
        <time>2015-07-06T09:12:25.01Z</time>
      </trkpt>
      <trkpt lat="45.98149" lon="4.85433">
        <ele>278.700012207</ele>
        <time>2015-07-06T09:12:26.005Z</time>
      </trkpt>
      <trkpt lat="45.98151" lon="4.8544">
        <ele>278.700012207</ele>
        <time>2015-07-06T09:12:27.003Z</time>
      </trkpt>
      <trkpt lat="45.98154" lon="4.85447">
        <ele>278.799987793</ele>
        <time>2015-07-06T09:12:28.003Z</time>
      </trkpt>
      <trkpt lat="45.98157" lon="4.85453">
        <ele>278.700012207</ele>
        <time>2015-07-06T09:12:29.003Z</time>
      </trkpt>
      <trkpt lat="45.98159" lon="4.85459">
        <ele>278.700012207</ele>
        <time>2015-07-06T09:12:30.025Z</time>
      </trkpt>
      <trkpt lat="45.98162" lon="4.85465">
        <ele>278.600006104</ele>
        <time>2015-07-06T09:12:31.005Z</time>
      </trkpt>
      <trkpt lat="45.98164" lon="4.85471">
        <ele>278.799987793</ele>
        <time>2015-07-06T09:12:32.004Z</time>
      </trkpt>
      <trkpt lat="45.98167" lon="4.85477">
        <ele>279.100006104</ele>
        <time>2015-07-06T09:12:33.003Z</time>
      </trkpt>
      <trkpt lat="45.98169" lon="4.85483">
        <ele>278.899993896</ele>
        <time>2015-07-06T09:12:34.003Z</time>
      </trkpt>
      <trkpt lat="45.98171" lon="4.85489">
        <ele>278.899993896</ele>
        <time>2015-07-06T09:12:35.003Z</time>
      </trkpt>
      <trkpt lat="45.98175" lon="4.85496">
        <ele>278.399993896</ele>
        <time>2015-07-06T09:12:36.008Z</time>
      </trkpt>
      <trkpt lat="45.98176" lon="4.85502">
        <ele>278.200012207</ele>
        <time>2015-07-06T09:12:37.003Z</time>
      </trkpt>
      <trkpt lat="45.98178" lon="4.85508">
        <ele>278.100006104</ele>
        <time>2015-07-06T09:12:38.009Z</time>
      </trkpt>
      <trkpt lat="45.98181" lon="4.85514">
        <ele>277.899993896</ele>
        <time>2015-07-06T09:12:39.003Z</time>
      </trkpt>
      <trkpt lat="45.98183" lon="4.8552">
        <ele>277.899993896</ele>
        <time>2015-07-06T09:12:40.003Z</time>
      </trkpt>
      <trkpt lat="45.98185" lon="4.85526">
        <ele>277.899993896</ele>
        <time>2015-07-06T09:12:41.005Z</time>
      </trkpt>
      <trkpt lat="45.98188" lon="4.85532">
        <ele>277.799987793</ele>
        <time>2015-07-06T09:12:42.006Z</time>
      </trkpt>
      <trkpt lat="45.9819" lon="4.85538">
        <ele>277.899993896</ele>
        <time>2015-07-06T09:12:43.003Z</time>
      </trkpt>
      <trkpt lat="45.98193" lon="4.85545">
        <ele>277.700012207</ele>
        <time>2015-07-06T09:12:44.004Z</time>
      </trkpt>
      <trkpt lat="45.98195" lon="4.85551">
        <ele>277.5</ele>
        <time>2015-07-06T09:12:45.003Z</time>
      </trkpt>
      <trkpt lat="45.98198" lon="4.85557">
        <ele>277.5</ele>
        <time>2015-07-06T09:12:46.02Z</time>
      </trkpt>
      <trkpt lat="45.98201" lon="4.85563">
        <ele>277.200012207</ele>
        <time>2015-07-06T09:12:47.003Z</time>
      </trkpt>
      <trkpt lat="45.98203" lon="4.8557">
        <ele>276.899993896</ele>
        <time>2015-07-06T09:12:48.006Z</time>
      </trkpt>
      <trkpt lat="45.98206" lon="4.85577">
        <ele>276.899993896</ele>
        <time>2015-07-06T09:12:49.003Z</time>
      </trkpt>
      <trkpt lat="45.98208" lon="4.85583">
        <ele>276.799987793</ele>
        <time>2015-07-06T09:12:50.003Z</time>
      </trkpt>
      <trkpt lat="45.98211" lon="4.8559">
        <ele>276.5</ele>
        <time>2015-07-06T09:12:51.011Z</time>
      </trkpt>
      <trkpt lat="45.98213" lon="4.85596">
        <ele>276.399993896</ele>
        <time>2015-07-06T09:12:52.007Z</time>
      </trkpt>
      <trkpt lat="45.98215" lon="4.85602">
        <ele>276.5</ele>
        <time>2015-07-06T09:12:53.003Z</time>
      </trkpt>
      <trkpt lat="45.98218" lon="4.85609">
        <ele>276.399993896</ele>
        <time>2015-07-06T09:12:54.007Z</time>
      </trkpt>
      <trkpt lat="45.98221" lon="4.85615">
        <ele>276.299987793</ele>
        <time>2015-07-06T09:12:55.003Z</time>
      </trkpt>
      <trkpt lat="45.98224" lon="4.85621">
        <ele>276.200012207</ele>
        <time>2015-07-06T09:12:56.004Z</time>
      </trkpt>
      <trkpt lat="45.98227" lon="4.85627">
        <ele>276</ele>
        <time>2015-07-06T09:12:57.042Z</time>
      </trkpt>
      <trkpt lat="45.9823" lon="4.85634">
        <ele>276.200012207</ele>
        <time>2015-07-06T09:12:58.003Z</time>
      </trkpt>
      <trkpt lat="45.98233" lon="4.8564">
        <ele>276.100006104</ele>
        <time>2015-07-06T09:12:59.005Z</time>
      </trkpt>
      <trkpt lat="45.98236" lon="4.85647">
        <ele>276.299987793</ele>
        <time>2015-07-06T09:13:00.029Z</time>
      </trkpt>
      <trkpt lat="45.98238" lon="4.85654">
        <ele>276.299987793</ele>
        <time>2015-07-06T09:13:01.032Z</time>
      </trkpt>
      <trkpt lat="45.98241" lon="4.8566">
        <ele>276.5</ele>
        <time>2015-07-06T09:13:02.021Z</time>
      </trkpt>
      <trkpt lat="45.98243" lon="4.85667">
        <ele>276.5</ele>
        <time>2015-07-06T09:13:03.003Z</time>
      </trkpt>
      <trkpt lat="45.98246" lon="4.85674">
        <ele>276.5</ele>
        <time>2015-07-06T09:13:04.003Z</time>
      </trkpt>
      <trkpt lat="45.98249" lon="4.85681">
        <ele>276.399993896</ele>
        <time>2015-07-06T09:13:05.003Z</time>
      </trkpt>
      <trkpt lat="45.98251" lon="4.85688">
        <ele>276.700012207</ele>
        <time>2015-07-06T09:13:06.006Z</time>
      </trkpt>
      <trkpt lat="45.98253" lon="4.85694">
        <ele>276.600006104</ele>
        <time>2015-07-06T09:13:07.005Z</time>
      </trkpt>
      <trkpt lat="45.98256" lon="4.85701">
        <ele>276.700012207</ele>
        <time>2015-07-06T09:13:08.008Z</time>
      </trkpt>
      <trkpt lat="45.98259" lon="4.85709">
        <ele>276.799987793</ele>
        <time>2015-07-06T09:13:09.005Z</time>
      </trkpt>
      <trkpt lat="45.98261" lon="4.85715">
        <ele>276.600006104</ele>
        <time>2015-07-06T09:13:10.003Z</time>
      </trkpt>
      <trkpt lat="45.98264" lon="4.85722">
        <ele>276.700012207</ele>
        <time>2015-07-06T09:13:11.004Z</time>
      </trkpt>
      <trkpt lat="45.98266" lon="4.85728">
        <ele>277</ele>
        <time>2015-07-06T09:13:12.005Z</time>
      </trkpt>
      <trkpt lat="45.98268" lon="4.85734">
        <ele>277</ele>
        <time>2015-07-06T09:13:13.003Z</time>
      </trkpt>
      <trkpt lat="45.98271" lon="4.8574">
        <ele>277.200012207</ele>
        <time>2015-07-06T09:13:14.004Z</time>
      </trkpt>
      <trkpt lat="45.98273" lon="4.85746">
        <ele>277.100006104</ele>
        <time>2015-07-06T09:13:15.005Z</time>
      </trkpt>
      <trkpt lat="45.98276" lon="4.85752">
        <ele>276.899993896</ele>
        <time>2015-07-06T09:13:16.003Z</time>
      </trkpt>
      <trkpt lat="45.98279" lon="4.85758">
        <ele>276.899993896</ele>
        <time>2015-07-06T09:13:17.007Z</time>
      </trkpt>
      <trkpt lat="45.98281" lon="4.85765">
        <ele>276.799987793</ele>
        <time>2015-07-06T09:13:18.024Z</time>
      </trkpt>
      <trkpt lat="45.98284" lon="4.85771">
        <ele>276.899993896</ele>
        <time>2015-07-06T09:13:19.003Z</time>
      </trkpt>
      <trkpt lat="45.98287" lon="4.85778">
        <ele>277.200012207</ele>
        <time>2015-07-06T09:13:20.004Z</time>
      </trkpt>
      <trkpt lat="45.9829" lon="4.85786">
        <ele>276.799987793</ele>
        <time>2015-07-06T09:13:21.003Z</time>
      </trkpt>
      <trkpt lat="45.98292" lon="4.85793">
        <ele>276.100006104</ele>
        <time>2015-07-06T09:13:22.005Z</time>
      </trkpt>
      <trkpt lat="45.98295" lon="4.858">
        <ele>276.100006104</ele>
        <time>2015-07-06T09:13:23.003Z</time>
      </trkpt>
      <trkpt lat="45.98298" lon="4.85808">
        <ele>276</ele>
        <time>2015-07-06T09:13:24.042Z</time>
      </trkpt>
      <trkpt lat="45.98301" lon="4.85815">
        <ele>275.700012207</ele>
        <time>2015-07-06T09:13:25.003Z</time>
      </trkpt>
      <trkpt lat="45.98304" lon="4.85822">
        <ele>275.399993896</ele>
        <time>2015-07-06T09:13:26.01Z</time>
      </trkpt>
      <trkpt lat="45.98307" lon="4.85828">
        <ele>275.299987793</ele>
        <time>2015-07-06T09:13:27.003Z</time>
      </trkpt>
      <trkpt lat="45.9831" lon="4.85835">
        <ele>275.299987793</ele>
        <time>2015-07-06T09:13:28.003Z</time>
      </trkpt>
      <trkpt lat="45.98312" lon="4.85842">
        <ele>275.200012207</ele>
        <time>2015-07-06T09:13:29.003Z</time>
      </trkpt>
      <trkpt lat="45.98316" lon="4.85853">
        <ele>275.899993896</ele>
        <time>2015-07-06T09:13:31.007Z</time>
      </trkpt>
      <trkpt lat="45.98318" lon="4.85859">
        <ele>276.100006104</ele>
        <time>2015-07-06T09:13:32.008Z</time>
      </trkpt>
      <trkpt lat="45.98321" lon="4.85864">
        <ele>276.299987793</ele>
        <time>2015-07-06T09:13:33.003Z</time>
      </trkpt>
      <trkpt lat="45.98323" lon="4.8587">
        <ele>276.5</ele>
        <time>2015-07-06T09:13:34.02Z</time>
      </trkpt>
      <trkpt lat="45.98325" lon="4.85876">
        <ele>276.799987793</ele>
        <time>2015-07-06T09:13:35.003Z</time>
      </trkpt>
      <trkpt lat="45.98328" lon="4.85882">
        <ele>277</ele>
        <time>2015-07-06T09:13:36.01Z</time>
      </trkpt>
      <trkpt lat="45.9833" lon="4.85888">
        <ele>277.299987793</ele>
        <time>2015-07-06T09:13:37.007Z</time>
      </trkpt>
      <trkpt lat="45.98332" lon="4.85894">
        <ele>277.700012207</ele>
        <time>2015-07-06T09:13:38.006Z</time>
      </trkpt>
      <trkpt lat="45.98335" lon="4.85901">
        <ele>277.899993896</ele>
        <time>2015-07-06T09:13:39.007Z</time>
      </trkpt>
      <trkpt lat="45.98337" lon="4.85907">
        <ele>278.100006104</ele>
        <time>2015-07-06T09:13:40.007Z</time>
      </trkpt>
      <trkpt lat="45.9834" lon="4.85914">
        <ele>278.299987793</ele>
        <time>2015-07-06T09:13:41.007Z</time>
      </trkpt>
      <trkpt lat="45.98342" lon="4.85922">
        <ele>278.299987793</ele>
        <time>2015-07-06T09:13:42.052Z</time>
      </trkpt>
      <trkpt lat="45.98345" lon="4.85928">
        <ele>278.399993896</ele>
        <time>2015-07-06T09:13:43.011Z</time>
      </trkpt>
      <trkpt lat="45.98348" lon="4.85935">
        <ele>278.299987793</ele>
        <time>2015-07-06T09:13:44.004Z</time>
      </trkpt>
      <trkpt lat="45.9835" lon="4.85942">
        <ele>278.100006104</ele>
        <time>2015-07-06T09:13:45.005Z</time>
      </trkpt>
      <trkpt lat="45.98353" lon="4.85949">
        <ele>277.899993896</ele>
        <time>2015-07-06T09:13:46.003Z</time>
      </trkpt>
      <trkpt lat="45.98356" lon="4.85956">
        <ele>277.799987793</ele>
        <time>2015-07-06T09:13:47.007Z</time>
      </trkpt>
      <trkpt lat="45.98358" lon="4.85962">
        <ele>277.700012207</ele>
        <time>2015-07-06T09:13:48.008Z</time>
      </trkpt>
      <trkpt lat="45.98361" lon="4.85969">
        <ele>278</ele>
        <time>2015-07-06T09:13:49.003Z</time>
      </trkpt>
      <trkpt lat="45.98364" lon="4.85976">
        <ele>278.100006104</ele>
        <time>2015-07-06T09:13:50.004Z</time>
      </trkpt>
      <trkpt lat="45.98367" lon="4.85983">
        <ele>278</ele>
        <time>2015-07-06T09:13:51.004Z</time>
      </trkpt>
      <trkpt lat="45.98369" lon="4.85991">
        <ele>277.799987793</ele>
        <time>2015-07-06T09:13:52.003Z</time>
      </trkpt>
      <trkpt lat="45.98371" lon="4.85998">
        <ele>277.899993896</ele>
        <time>2015-07-06T09:13:53.004Z</time>
      </trkpt>
      <trkpt lat="45.98372" lon="4.86006">
        <ele>278</ele>
        <time>2015-07-06T09:13:54.006Z</time>
      </trkpt>
      <trkpt lat="45.98375" lon="4.86015">
        <ele>277.700012207</ele>
        <time>2015-07-06T09:13:55.04Z</time>
      </trkpt>
      <trkpt lat="45.98379" lon="4.86024">
        <ele>277.299987793</ele>
        <time>2015-07-06T09:13:55.998Z</time>
      </trkpt>
      <trkpt lat="45.98382" lon="4.8603">
        <ele>277</ele>
        <time>2015-07-06T09:13:57.007Z</time>
      </trkpt>
      <trkpt lat="45.98385" lon="4.86037">
        <ele>276.799987793</ele>
        <time>2015-07-06T09:13:58.005Z</time>
      </trkpt>
      <trkpt lat="45.98388" lon="4.86042">
        <ele>277</ele>
        <time>2015-07-06T09:13:59.003Z</time>
      </trkpt>
      <trkpt lat="45.98389" lon="4.86049">
        <ele>277.100006104</ele>
        <time>2015-07-06T09:14:00.05Z</time>
      </trkpt>
      <trkpt lat="45.98391" lon="4.86056">
        <ele>276.600006104</ele>
        <time>2015-07-06T09:14:01.003Z</time>
      </trkpt>
      <trkpt lat="45.98394" lon="4.86063">
        <ele>276.399993896</ele>
        <time>2015-07-06T09:14:02.004Z</time>
      </trkpt>
      <trkpt lat="45.98396" lon="4.86069">
        <ele>276.5</ele>
        <time>2015-07-06T09:14:03.007Z</time>
      </trkpt>
      <trkpt lat="45.98399" lon="4.86074">
        <ele>276</ele>
        <time>2015-07-06T09:14:04.003Z</time>
      </trkpt>
      <trkpt lat="45.98401" lon="4.8608">
        <ele>275.899993896</ele>
        <time>2015-07-06T09:14:05.052Z</time>
      </trkpt>
      <trkpt lat="45.98404" lon="4.86086">
        <ele>275.899993896</ele>
        <time>2015-07-06T09:14:06.016Z</time>
      </trkpt>
      <trkpt lat="45.98406" lon="4.86092">
        <ele>275.899993896</ele>
        <time>2015-07-06T09:14:07.007Z</time>
      </trkpt>
      <trkpt lat="45.98408" lon="4.86097">
        <ele>275.700012207</ele>
        <time>2015-07-06T09:14:08.008Z</time>
      </trkpt>
      <trkpt lat="45.98409" lon="4.86109">
        <ele>276</ele>
        <time>2015-07-06T09:14:10.005Z</time>
      </trkpt>
      <trkpt lat="45.98409" lon="4.86114">
        <ele>276.100006104</ele>
        <time>2015-07-06T09:14:11.003Z</time>
      </trkpt>
      <trkpt lat="45.98409" lon="4.86124">
        <ele>276.600006104</ele>
        <time>2015-07-06T09:14:13.005Z</time>
      </trkpt>
      <trkpt lat="45.98409" lon="4.86129">
        <ele>276.899993896</ele>
        <time>2015-07-06T09:14:14.008Z</time>
      </trkpt>
      <trkpt lat="45.98411" lon="4.86139">
        <ele>277.200012207</ele>
        <time>2015-07-06T09:14:16.003Z</time>
      </trkpt>
      <trkpt lat="45.98412" lon="4.86144">
        <ele>277.299987793</ele>
        <time>2015-07-06T09:14:17.005Z</time>
      </trkpt>
      <trkpt lat="45.98414" lon="4.86156">
        <ele>276.899993896</ele>
        <time>2015-07-06T09:14:19.003Z</time>
      </trkpt>
      <trkpt lat="45.98415" lon="4.86161">
        <ele>276.600006104</ele>
        <time>2015-07-06T09:14:20.005Z</time>
      </trkpt>
      <trkpt lat="45.98417" lon="4.86173">
        <ele>276.799987793</ele>
        <time>2015-07-06T09:14:22.027Z</time>
      </trkpt>
      <trkpt lat="45.98418" lon="4.86179">
        <ele>276.700012207</ele>
        <time>2015-07-06T09:14:23.003Z</time>
      </trkpt>
      <trkpt lat="45.98419" lon="4.86189">
        <ele>277</ele>
        <time>2015-07-06T09:14:25.005Z</time>
      </trkpt>
      <trkpt lat="45.9842" lon="4.86195">
        <ele>277.100006104</ele>
        <time>2015-07-06T09:14:26.029Z</time>
      </trkpt>
      <trkpt lat="45.98421" lon="4.86204">
        <ele>277.600006104</ele>
        <time>2015-07-06T09:14:28.003Z</time>
      </trkpt>
      <trkpt lat="45.98422" lon="4.8621">
        <ele>277.899993896</ele>
        <time>2015-07-06T09:14:29.003Z</time>
      </trkpt>
      <trkpt lat="45.98424" lon="4.86221">
        <ele>278.5</ele>
        <time>2015-07-06T09:14:31.004Z</time>
      </trkpt>
      <trkpt lat="45.98425" lon="4.86227">
        <ele>278.600006104</ele>
        <time>2015-07-06T09:14:32.008Z</time>
      </trkpt>
      <trkpt lat="45.98426" lon="4.86233">
        <ele>278.5</ele>
        <time>2015-07-06T09:14:33.003Z</time>
      </trkpt>
      <trkpt lat="45.98427" lon="4.86241">
        <ele>278.600006104</ele>
        <time>2015-07-06T09:14:34.007Z</time>
      </trkpt>
      <trkpt lat="45.98429" lon="4.86248">
        <ele>278.5</ele>
        <time>2015-07-06T09:14:35.01Z</time>
      </trkpt>
      <trkpt lat="45.9843" lon="4.86256">
        <ele>278.399993896</ele>
        <time>2015-07-06T09:14:36.006Z</time>
      </trkpt>
      <trkpt lat="45.98432" lon="4.86265">
        <ele>278.299987793</ele>
        <time>2015-07-06T09:14:37.003Z</time>
      </trkpt>
      <trkpt lat="45.98433" lon="4.86274">
        <ele>278.299987793</ele>
        <time>2015-07-06T09:14:38.003Z</time>
      </trkpt>
      <trkpt lat="45.98435" lon="4.86284">
        <ele>278.399993896</ele>
        <time>2015-07-06T09:14:39.042Z</time>
      </trkpt>
      <trkpt lat="45.98437" lon="4.86293">
        <ele>278.399993896</ele>
        <time>2015-07-06T09:14:40.007Z</time>
      </trkpt>
      <trkpt lat="45.98439" lon="4.86303">
        <ele>278.200012207</ele>
        <time>2015-07-06T09:14:41.002Z</time>
      </trkpt>
      <trkpt lat="45.9844" lon="4.86313">
        <ele>277.700012207</ele>
        <time>2015-07-06T09:14:42.007Z</time>
      </trkpt>
      <trkpt lat="45.98441" lon="4.86322">
        <ele>277.600006104</ele>
        <time>2015-07-06T09:14:43.007Z</time>
      </trkpt>
      <trkpt lat="45.98442" lon="4.86332">
        <ele>277.299987793</ele>
        <time>2015-07-06T09:14:44.008Z</time>
      </trkpt>
      <trkpt lat="45.98445" lon="4.86341">
        <ele>277</ele>
        <time>2015-07-06T09:14:45.003Z</time>
      </trkpt>
      <trkpt lat="45.98448" lon="4.86351">
        <ele>276.600006104</ele>
        <time>2015-07-06T09:14:46.007Z</time>
      </trkpt>
      <trkpt lat="45.98451" lon="4.8636">
        <ele>276.600006104</ele>
        <time>2015-07-06T09:14:47.019Z</time>
      </trkpt>
      <trkpt lat="45.98453" lon="4.86369">
        <ele>276.700012207</ele>
        <time>2015-07-06T09:14:48.029Z</time>
      </trkpt>
      <trkpt lat="45.98456" lon="4.86377">
        <ele>276.700012207</ele>
        <time>2015-07-06T09:14:49.007Z</time>
      </trkpt>
      <trkpt lat="45.98459" lon="4.86384">
        <ele>276.799987793</ele>
        <time>2015-07-06T09:14:50.004Z</time>
      </trkpt>
      <trkpt lat="45.98463" lon="4.86392">
        <ele>276.899993896</ele>
        <time>2015-07-06T09:14:51.003Z</time>
      </trkpt>
      <trkpt lat="45.98466" lon="4.864">
        <ele>276.799987793</ele>
        <time>2015-07-06T09:14:52.007Z</time>
      </trkpt>
      <trkpt lat="45.9847" lon="4.86408">
        <ele>276.700012207</ele>
        <time>2015-07-06T09:14:53.005Z</time>
      </trkpt>
      <trkpt lat="45.98473" lon="4.86415">
        <ele>276.799987793</ele>
        <time>2015-07-06T09:14:54.006Z</time>
      </trkpt>
      <trkpt lat="45.98476" lon="4.86422">
        <ele>276.899993896</ele>
        <time>2015-07-06T09:14:55.042Z</time>
      </trkpt>
      <trkpt lat="45.98479" lon="4.86429">
        <ele>277</ele>
        <time>2015-07-06T09:14:56.006Z</time>
      </trkpt>
      <trkpt lat="45.98482" lon="4.86435">
        <ele>277</ele>
        <time>2015-07-06T09:14:57.005Z</time>
      </trkpt>
      <trkpt lat="45.98486" lon="4.86442">
        <ele>276.799987793</ele>
        <time>2015-07-06T09:14:58.005Z</time>
      </trkpt>
      <trkpt lat="45.98489" lon="4.8645">
        <ele>276.799987793</ele>
        <time>2015-07-06T09:14:59.007Z</time>
      </trkpt>
      <trkpt lat="45.98493" lon="4.86458">
        <ele>276.799987793</ele>
        <time>2015-07-06T09:15:00.027Z</time>
      </trkpt>
      <trkpt lat="45.98496" lon="4.86466">
        <ele>276.5</ele>
        <time>2015-07-06T09:15:01.009Z</time>
      </trkpt>
      <trkpt lat="45.985" lon="4.86473">
        <ele>276.299987793</ele>
        <time>2015-07-06T09:15:02.004Z</time>
      </trkpt>
      <trkpt lat="45.98504" lon="4.8648">
        <ele>276.200012207</ele>
        <time>2015-07-06T09:15:03.022Z</time>
      </trkpt>
      <trkpt lat="45.98507" lon="4.86487">
        <ele>276</ele>
        <time>2015-07-06T09:15:04.003Z</time>
      </trkpt>
      <trkpt lat="45.98511" lon="4.86495">
        <ele>275.899993896</ele>
        <time>2015-07-06T09:15:05.003Z</time>
      </trkpt>
      <trkpt lat="45.98515" lon="4.86502">
        <ele>275.899993896</ele>
        <time>2015-07-06T09:15:06.006Z</time>
      </trkpt>
      <trkpt lat="45.98519" lon="4.86509">
        <ele>276</ele>
        <time>2015-07-06T09:15:07.003Z</time>
      </trkpt>
      <trkpt lat="45.98523" lon="4.86516">
        <ele>276.100006104</ele>
        <time>2015-07-06T09:15:08.007Z</time>
      </trkpt>
      <trkpt lat="45.98527" lon="4.86523">
        <ele>275.899993896</ele>
        <time>2015-07-06T09:15:09.003Z</time>
      </trkpt>
      <trkpt lat="45.9853" lon="4.8653">
        <ele>275.799987793</ele>
        <time>2015-07-06T09:15:10.002Z</time>
      </trkpt>
      <trkpt lat="45.98533" lon="4.86536">
        <ele>275.700012207</ele>
        <time>2015-07-06T09:15:11.003Z</time>
      </trkpt>
      <trkpt lat="45.98536" lon="4.86544">
        <ele>275.600006104</ele>
        <time>2015-07-06T09:15:12.006Z</time>
      </trkpt>
      <trkpt lat="45.98539" lon="4.86551">
        <ele>275.5</ele>
        <time>2015-07-06T09:15:13.008Z</time>
      </trkpt>
      <trkpt lat="45.98543" lon="4.86558">
        <ele>275.399993896</ele>
        <time>2015-07-06T09:15:14.004Z</time>
      </trkpt>
      <trkpt lat="45.98547" lon="4.86566">
        <ele>275.200012207</ele>
        <time>2015-07-06T09:15:15.005Z</time>
      </trkpt>
      <trkpt lat="45.98549" lon="4.86572">
        <ele>274.799987793</ele>
        <time>2015-07-06T09:15:16.004Z</time>
      </trkpt>
      <trkpt lat="45.98552" lon="4.86579">
        <ele>274.399993896</ele>
        <time>2015-07-06T09:15:17.044Z</time>
      </trkpt>
      <trkpt lat="45.98554" lon="4.86587">
        <ele>274.100006104</ele>
        <time>2015-07-06T09:15:18.006Z</time>
      </trkpt>
      <trkpt lat="45.98556" lon="4.86595">
        <ele>273.799987793</ele>
        <time>2015-07-06T09:15:19.022Z</time>
      </trkpt>
      <trkpt lat="45.98559" lon="4.86602">
        <ele>273.399993896</ele>
        <time>2015-07-06T09:15:20.006Z</time>
      </trkpt>
      <trkpt lat="45.9856" lon="4.8661">
        <ele>273.700012207</ele>
        <time>2015-07-06T09:15:21.003Z</time>
      </trkpt>
      <trkpt lat="45.98561" lon="4.86618">
        <ele>273.600006104</ele>
        <time>2015-07-06T09:15:22.013Z</time>
      </trkpt>
      <trkpt lat="45.98562" lon="4.86626">
        <ele>273.5</ele>
        <time>2015-07-06T09:15:23.003Z</time>
      </trkpt>
      <trkpt lat="45.98563" lon="4.86635">
        <ele>273.200012207</ele>
        <time>2015-07-06T09:15:24.006Z</time>
      </trkpt>
      <trkpt lat="45.98564" lon="4.86643">
        <ele>273.100006104</ele>
        <time>2015-07-06T09:15:25.007Z</time>
      </trkpt>
      <trkpt lat="45.98566" lon="4.86651">
        <ele>272.899993896</ele>
        <time>2015-07-06T09:15:26.005Z</time>
      </trkpt>
      <trkpt lat="45.98567" lon="4.86659">
        <ele>272.5</ele>
        <time>2015-07-06T09:15:27.009Z</time>
      </trkpt>
      <trkpt lat="45.98568" lon="4.86668">
        <ele>272.5</ele>
        <time>2015-07-06T09:15:28.005Z</time>
      </trkpt>
      <trkpt lat="45.9857" lon="4.86677">
        <ele>272.200012207</ele>
        <time>2015-07-06T09:15:29.007Z</time>
      </trkpt>
      <trkpt lat="45.9857" lon="4.86686">
        <ele>272.200012207</ele>
        <time>2015-07-06T09:15:30.006Z</time>
      </trkpt>
      <trkpt lat="45.9857" lon="4.86696">
        <ele>272.100006104</ele>
        <time>2015-07-06T09:15:31.003Z</time>
      </trkpt>
      <trkpt lat="45.9857" lon="4.86705">
        <ele>272.100006104</ele>
        <time>2015-07-06T09:15:32.008Z</time>
      </trkpt>
      <trkpt lat="45.9857" lon="4.86714">
        <ele>272.100006104</ele>
        <time>2015-07-06T09:15:33.003Z</time>
      </trkpt>
      <trkpt lat="45.9857" lon="4.86722">
        <ele>272.299987793</ele>
        <time>2015-07-06T09:15:34.003Z</time>
      </trkpt>
      <trkpt lat="45.9857" lon="4.86731">
        <ele>272.600006104</ele>
        <time>2015-07-06T09:15:35.004Z</time>
      </trkpt>
      <trkpt lat="45.98571" lon="4.8674">
        <ele>272.700012207</ele>
        <time>2015-07-06T09:15:36.006Z</time>
      </trkpt>
      <trkpt lat="45.98572" lon="4.86749">
        <ele>272.799987793</ele>
        <time>2015-07-06T09:15:37.004Z</time>
      </trkpt>
      <trkpt lat="45.98574" lon="4.86759">
        <ele>272.799987793</ele>
        <time>2015-07-06T09:15:38.006Z</time>
      </trkpt>
      <trkpt lat="45.98576" lon="4.86768">
        <ele>273</ele>
        <time>2015-07-06T09:15:39.005Z</time>
      </trkpt>
      <trkpt lat="45.98577" lon="4.86777">
        <ele>273.100006104</ele>
        <time>2015-07-06T09:15:40.02Z</time>
      </trkpt>
      <trkpt lat="45.98579" lon="4.86786">
        <ele>273.5</ele>
        <time>2015-07-06T09:15:41.003Z</time>
      </trkpt>
      <trkpt lat="45.9858" lon="4.86795">
        <ele>273.5</ele>
        <time>2015-07-06T09:15:42.027Z</time>
      </trkpt>
      <trkpt lat="45.98582" lon="4.86803">
        <ele>273.399993896</ele>
        <time>2015-07-06T09:15:43.007Z</time>
      </trkpt>
      <trkpt lat="45.98583" lon="4.86809">
        <ele>273.600006104</ele>
        <time>2015-07-06T09:15:44.008Z</time>
      </trkpt>
      <trkpt lat="45.98583" lon="4.86816">
        <ele>273.700012207</ele>
        <time>2015-07-06T09:15:45.007Z</time>
      </trkpt>
      <trkpt lat="45.98584" lon="4.86825">
        <ele>273.700012207</ele>
        <time>2015-07-06T09:15:46.003Z</time>
      </trkpt>
      <trkpt lat="45.98584" lon="4.86833">
        <ele>273.700012207</ele>
        <time>2015-07-06T09:15:47.004Z</time>
      </trkpt>
      <trkpt lat="45.98584" lon="4.86842">
        <ele>273.799987793</ele>
        <time>2015-07-06T09:15:48.005Z</time>
      </trkpt>
      <trkpt lat="45.98584" lon="4.8685">
        <ele>274.100006104</ele>
        <time>2015-07-06T09:15:49.003Z</time>
      </trkpt>
      <trkpt lat="45.98584" lon="4.86859">
        <ele>274.399993896</ele>
        <time>2015-07-06T09:15:50.004Z</time>
      </trkpt>
      <trkpt lat="45.98583" lon="4.86868">
        <ele>274.5</ele>
        <time>2015-07-06T09:15:51.007Z</time>
      </trkpt>
      <trkpt lat="45.98583" lon="4.86876">
        <ele>274.600006104</ele>
        <time>2015-07-06T09:15:52.007Z</time>
      </trkpt>
      <trkpt lat="45.98583" lon="4.86885">
        <ele>274.700012207</ele>
        <time>2015-07-06T09:15:53.009Z</time>
      </trkpt>
      <trkpt lat="45.98582" lon="4.86894">
        <ele>275.100006104</ele>
        <time>2015-07-06T09:15:54.005Z</time>
      </trkpt>
      <trkpt lat="45.98583" lon="4.86904">
        <ele>275.399993896</ele>
        <time>2015-07-06T09:15:55.045Z</time>
      </trkpt>
      <trkpt lat="45.98583" lon="4.86912">
        <ele>275.700012207</ele>
        <time>2015-07-06T09:15:56.004Z</time>
      </trkpt>
      <trkpt lat="45.98583" lon="4.86923">
        <ele>276.200012207</ele>
        <time>2015-07-06T09:15:57.003Z</time>
      </trkpt>
      <trkpt lat="45.98582" lon="4.86933">
        <ele>276.700012207</ele>
        <time>2015-07-06T09:15:58.003Z</time>
      </trkpt>
      <trkpt lat="45.98581" lon="4.8694">
        <ele>277.200012207</ele>
        <time>2015-07-06T09:15:59.006Z</time>
      </trkpt>
      <trkpt lat="45.98581" lon="4.86949">
        <ele>277.600006104</ele>
        <time>2015-07-06T09:16:00.028Z</time>
      </trkpt>
      <trkpt lat="45.98582" lon="4.86957">
        <ele>278</ele>
        <time>2015-07-06T09:16:01.019Z</time>
      </trkpt>
      <trkpt lat="45.98583" lon="4.86966">
        <ele>278.5</ele>
        <time>2015-07-06T09:16:02.008Z</time>
      </trkpt>
      <trkpt lat="45.98584" lon="4.86974">
        <ele>278.799987793</ele>
        <time>2015-07-06T09:16:03.007Z</time>
      </trkpt>
      <trkpt lat="45.98584" lon="4.86983">
        <ele>278.799987793</ele>
        <time>2015-07-06T09:16:04.006Z</time>
      </trkpt>
      <trkpt lat="45.98586" lon="4.86993">
        <ele>278.600006104</ele>
        <time>2015-07-06T09:16:05.004Z</time>
      </trkpt>
      <trkpt lat="45.98587" lon="4.87002">
        <ele>278.700012207</ele>
        <time>2015-07-06T09:16:06.006Z</time>
      </trkpt>
      <trkpt lat="45.98588" lon="4.87011">
        <ele>278.799987793</ele>
        <time>2015-07-06T09:16:07.003Z</time>
      </trkpt>
      <trkpt lat="45.9859" lon="4.87019">
        <ele>279</ele>
        <time>2015-07-06T09:16:08.007Z</time>
      </trkpt>
      <trkpt lat="45.98591" lon="4.87027">
        <ele>279.200012207</ele>
        <time>2015-07-06T09:16:09.004Z</time>
      </trkpt>
      <trkpt lat="45.98592" lon="4.87034">
        <ele>279.299987793</ele>
        <time>2015-07-06T09:16:10.004Z</time>
      </trkpt>
      <trkpt lat="45.98593" lon="4.87043">
        <ele>279.5</ele>
        <time>2015-07-06T09:16:11.006Z</time>
      </trkpt>
      <trkpt lat="45.98594" lon="4.8705">
        <ele>279.799987793</ele>
        <time>2015-07-06T09:16:12.007Z</time>
      </trkpt>
      <trkpt lat="45.98594" lon="4.87058">
        <ele>280</ele>
        <time>2015-07-06T09:16:13.007Z</time>
      </trkpt>
      <trkpt lat="45.98595" lon="4.87064">
        <ele>280.299987793</ele>
        <time>2015-07-06T09:16:14.046Z</time>
      </trkpt>
      <trkpt lat="45.98597" lon="4.8707">
        <ele>280.700012207</ele>
        <time>2015-07-06T09:16:15.007Z</time>
      </trkpt>
      <trkpt lat="45.986" lon="4.87077">
        <ele>281</ele>
        <time>2015-07-06T09:16:16.002Z</time>
      </trkpt>
      <trkpt lat="45.98602" lon="4.87083">
        <ele>281.299987793</ele>
        <time>2015-07-06T09:16:17.02Z</time>
      </trkpt>
      <trkpt lat="45.98605" lon="4.87091">
        <ele>281.600006104</ele>
        <time>2015-07-06T09:16:18.005Z</time>
      </trkpt>
      <trkpt lat="45.98607" lon="4.871">
        <ele>281.899993896</ele>
        <time>2015-07-06T09:16:19.01Z</time>
      </trkpt>
      <trkpt lat="45.98608" lon="4.87107">
        <ele>282.399993896</ele>
        <time>2015-07-06T09:16:20.004Z</time>
      </trkpt>
      <trkpt lat="45.98608" lon="4.87116">
        <ele>282.700012207</ele>
        <time>2015-07-06T09:16:21.002Z</time>
      </trkpt>
      <trkpt lat="45.98607" lon="4.87123">
        <ele>283.100006104</ele>
        <time>2015-07-06T09:16:22.007Z</time>
      </trkpt>
      <trkpt lat="45.98607" lon="4.87131">
        <ele>283.399993896</ele>
        <time>2015-07-06T09:16:23.002Z</time>
      </trkpt>
      <trkpt lat="45.98606" lon="4.87143">
        <ele>283.600006104</ele>
        <time>2015-07-06T09:16:24.01Z</time>
      </trkpt>
      <trkpt lat="45.98605" lon="4.87153">
        <ele>283.799987793</ele>
        <time>2015-07-06T09:16:25.007Z</time>
      </trkpt>
      <trkpt lat="45.98604" lon="4.87163">
        <ele>284.100006104</ele>
        <time>2015-07-06T09:16:26.005Z</time>
      </trkpt>
      <trkpt lat="45.98603" lon="4.87172">
        <ele>284.299987793</ele>
        <time>2015-07-06T09:16:27.003Z</time>
      </trkpt>
      <trkpt lat="45.98602" lon="4.87183">
        <ele>284.600006104</ele>
        <time>2015-07-06T09:16:28.007Z</time>
      </trkpt>
      <trkpt lat="45.98601" lon="4.87197">
        <ele>284.899993896</ele>
        <time>2015-07-06T09:16:29.006Z</time>
      </trkpt>
      <trkpt lat="45.986" lon="4.87208">
        <ele>285.299987793</ele>
        <time>2015-07-06T09:16:30.006Z</time>
      </trkpt>
      <trkpt lat="45.98597" lon="4.8722">
        <ele>285.5</ele>
        <time>2015-07-06T09:16:31.002Z</time>
      </trkpt>
      <trkpt lat="45.98596" lon="4.87229">
        <ele>285.899993896</ele>
        <time>2015-07-06T09:16:32.003Z</time>
      </trkpt>
      <trkpt lat="45.98594" lon="4.8724">
        <ele>286</ele>
        <time>2015-07-06T09:16:33.019Z</time>
      </trkpt>
      <trkpt lat="45.98593" lon="4.8725">
        <ele>286.200012207</ele>
        <time>2015-07-06T09:16:33.996Z</time>
      </trkpt>
      <trkpt lat="45.98592" lon="4.8726">
        <ele>286.5</ele>
        <time>2015-07-06T09:16:35.004Z</time>
      </trkpt>
      <trkpt lat="45.98591" lon="4.8727">
        <ele>286.700012207</ele>
        <time>2015-07-06T09:16:36.042Z</time>
      </trkpt>
      <trkpt lat="45.98591" lon="4.8728">
        <ele>286.899993896</ele>
        <time>2015-07-06T09:16:37.005Z</time>
      </trkpt>
      <trkpt lat="45.98592" lon="4.87291">
        <ele>287</ele>
        <time>2015-07-06T09:16:38.004Z</time>
      </trkpt>
      <trkpt lat="45.98592" lon="4.87301">
        <ele>287</ele>
        <time>2015-07-06T09:16:39.006Z</time>
      </trkpt>
      <trkpt lat="45.98594" lon="4.87313">
        <ele>286.299987793</ele>
        <time>2015-07-06T09:16:40.002Z</time>
      </trkpt>
      <trkpt lat="45.98596" lon="4.87324">
        <ele>286</ele>
        <time>2015-07-06T09:16:41.004Z</time>
      </trkpt>
      <trkpt lat="45.98598" lon="4.87335">
        <ele>285.700012207</ele>
        <time>2015-07-06T09:16:42.007Z</time>
      </trkpt>
      <trkpt lat="45.986" lon="4.87346">
        <ele>285.5</ele>
        <time>2015-07-06T09:16:43.007Z</time>
      </trkpt>
      <trkpt lat="45.98602" lon="4.87358">
        <ele>285</ele>
        <time>2015-07-06T09:16:44.004Z</time>
      </trkpt>
      <trkpt lat="45.98603" lon="4.87371">
        <ele>284.600006104</ele>
        <time>2015-07-06T09:16:45.006Z</time>
      </trkpt>
      <trkpt lat="45.98606" lon="4.87383">
        <ele>284.200012207</ele>
        <time>2015-07-06T09:16:46.002Z</time>
      </trkpt>
      <trkpt lat="45.98608" lon="4.87394">
        <ele>283.5</ele>
        <time>2015-07-06T09:16:47.004Z</time>
      </trkpt>
      <trkpt lat="45.9861" lon="4.87405">
        <ele>283</ele>
        <time>2015-07-06T09:16:48.063Z</time>
      </trkpt>
      <trkpt lat="45.98612" lon="4.87416">
        <ele>282.200012207</ele>
        <time>2015-07-06T09:16:49.007Z</time>
      </trkpt>
      <trkpt lat="45.98615" lon="4.87428">
        <ele>281.399993896</ele>
        <time>2015-07-06T09:16:50.005Z</time>
      </trkpt>
      <trkpt lat="45.98617" lon="4.87439">
        <ele>280.700012207</ele>
        <time>2015-07-06T09:16:51.004Z</time>
      </trkpt>
      <trkpt lat="45.98619" lon="4.8745">
        <ele>279.899993896</ele>
        <time>2015-07-06T09:16:52.007Z</time>
      </trkpt>
      <trkpt lat="45.98621" lon="4.87462">
        <ele>279.399993896</ele>
        <time>2015-07-06T09:16:53.004Z</time>
      </trkpt>
      <trkpt lat="45.98624" lon="4.87473">
        <ele>278.700012207</ele>
        <time>2015-07-06T09:16:54.043Z</time>
      </trkpt>
      <trkpt lat="45.98626" lon="4.87484">
        <ele>277.700012207</ele>
        <time>2015-07-06T09:16:55.002Z</time>
      </trkpt>
      <trkpt lat="45.98628" lon="4.87495">
        <ele>276.5</ele>
        <time>2015-07-06T09:16:56.003Z</time>
      </trkpt>
      <trkpt lat="45.9863" lon="4.87506">
        <ele>275.5</ele>
        <time>2015-07-06T09:16:57.002Z</time>
      </trkpt>
      <trkpt lat="45.98632" lon="4.87517">
        <ele>274.600006104</ele>
        <time>2015-07-06T09:16:58.001Z</time>
      </trkpt>
      <trkpt lat="45.98635" lon="4.87527">
        <ele>273.600006104</ele>
        <time>2015-07-06T09:16:59.067Z</time>
      </trkpt>
      <trkpt lat="45.98636" lon="4.87537">
        <ele>273.200012207</ele>
        <time>2015-07-06T09:17:00.073Z</time>
      </trkpt>
      <trkpt lat="45.9864" lon="4.87545">
        <ele>272.600006104</ele>
        <time>2015-07-06T09:17:01.005Z</time>
      </trkpt>
      <trkpt lat="45.98644" lon="4.87553">
        <ele>272</ele>
        <time>2015-07-06T09:17:02.004Z</time>
      </trkpt>
      <trkpt lat="45.9865" lon="4.8756">
        <ele>271.5</ele>
        <time>2015-07-06T09:17:03.002Z</time>
      </trkpt>
      <trkpt lat="45.98656" lon="4.87566">
        <ele>270.899993896</ele>
        <time>2015-07-06T09:17:04.002Z</time>
      </trkpt>
      <trkpt lat="45.98663" lon="4.87569">
        <ele>270.299987793</ele>
        <time>2015-07-06T09:17:05.002Z</time>
      </trkpt>
      <trkpt lat="45.98671" lon="4.87571">
        <ele>269.899993896</ele>
        <time>2015-07-06T09:17:06.008Z</time>
      </trkpt>
      <trkpt lat="45.98678" lon="4.8757">
        <ele>269.5</ele>
        <time>2015-07-06T09:17:07.002Z</time>
      </trkpt>
      <trkpt lat="45.98684" lon="4.87569">
        <ele>269.100006104</ele>
        <time>2015-07-06T09:17:08.007Z</time>
      </trkpt>
      <trkpt lat="45.9869" lon="4.87566">
        <ele>268.700012207</ele>
        <time>2015-07-06T09:17:09.004Z</time>
      </trkpt>
      <trkpt lat="45.98697" lon="4.87566">
        <ele>268.5</ele>
        <time>2015-07-06T09:17:10.019Z</time>
      </trkpt>
      <trkpt lat="45.98704" lon="4.87564">
        <ele>268.200012207</ele>
        <time>2015-07-06T09:17:11.007Z</time>
      </trkpt>
      <trkpt lat="45.9871" lon="4.87563">
        <ele>268</ele>
        <time>2015-07-06T09:17:12.005Z</time>
      </trkpt>
      <trkpt lat="45.98716" lon="4.87562">
        <ele>267.700012207</ele>
        <time>2015-07-06T09:17:13.003Z</time>
      </trkpt>
      <trkpt lat="45.98722" lon="4.87561">
        <ele>267.5</ele>
        <time>2015-07-06T09:17:14.004Z</time>
      </trkpt>
      <trkpt lat="45.98728" lon="4.8756">
        <ele>267.299987793</ele>
        <time>2015-07-06T09:17:15.002Z</time>
      </trkpt>
      <trkpt lat="45.98734" lon="4.8756">
        <ele>266.899993896</ele>
        <time>2015-07-06T09:17:16.002Z</time>
      </trkpt>
      <trkpt lat="45.9874" lon="4.87561">
        <ele>266.799987793</ele>
        <time>2015-07-06T09:17:17.002Z</time>
      </trkpt>
      <trkpt lat="45.98746" lon="4.87562">
        <ele>266.5</ele>
        <time>2015-07-06T09:17:18.005Z</time>
      </trkpt>
      <trkpt lat="45.98751" lon="4.87566">
        <ele>266.5</ele>
        <time>2015-07-06T09:17:19.002Z</time>
      </trkpt>
      <trkpt lat="45.98756" lon="4.8757">
        <ele>266.299987793</ele>
        <time>2015-07-06T09:17:20.007Z</time>
      </trkpt>
      <trkpt lat="45.98761" lon="4.87574">
        <ele>266.100006104</ele>
        <time>2015-07-06T09:17:21.006Z</time>
      </trkpt>
      <trkpt lat="45.98766" lon="4.8758">
        <ele>265.899993896</ele>
        <time>2015-07-06T09:17:22.008Z</time>
      </trkpt>
      <trkpt lat="45.98771" lon="4.87583">
        <ele>265.700012207</ele>
        <time>2015-07-06T09:17:23.002Z</time>
      </trkpt>
      <trkpt lat="45.98776" lon="4.87588">
        <ele>265.5</ele>
        <time>2015-07-06T09:17:24.052Z</time>
      </trkpt>
      <trkpt lat="45.9878" lon="4.87592">
        <ele>265.399993896</ele>
        <time>2015-07-06T09:17:25.002Z</time>
      </trkpt>
      <trkpt lat="45.98784" lon="4.87597">
        <ele>265.200012207</ele>
        <time>2015-07-06T09:17:26.018Z</time>
      </trkpt>
      <trkpt lat="45.98788" lon="4.87601">
        <ele>265.100006104</ele>
        <time>2015-07-06T09:17:27.002Z</time>
      </trkpt>
      <trkpt lat="45.98791" lon="4.87609">
        <ele>265.299987793</ele>
        <time>2015-07-06T09:17:28.006Z</time>
      </trkpt>
      <trkpt lat="45.98795" lon="4.87614">
        <ele>265.200012207</ele>
        <time>2015-07-06T09:17:29.025Z</time>
      </trkpt>
      <trkpt lat="45.98797" lon="4.8762">
        <ele>265.399993896</ele>
        <time>2015-07-06T09:17:30.005Z</time>
      </trkpt>
      <trkpt lat="45.988" lon="4.87626">
        <ele>265.299987793</ele>
        <time>2015-07-06T09:17:31.002Z</time>
      </trkpt>
      <trkpt lat="45.98804" lon="4.87631">
        <ele>265.299987793</ele>
        <time>2015-07-06T09:17:32.003Z</time>
      </trkpt>
      <trkpt lat="45.98806" lon="4.87639">
        <ele>265.200012207</ele>
        <time>2015-07-06T09:17:33.04Z</time>
      </trkpt>
      <trkpt lat="45.98808" lon="4.87646">
        <ele>264.899993896</ele>
        <time>2015-07-06T09:17:34.002Z</time>
      </trkpt>
      <trkpt lat="45.98811" lon="4.87655">
        <ele>264.5</ele>
        <time>2015-07-06T09:17:35.002Z</time>
      </trkpt>
      <trkpt lat="45.98814" lon="4.87663">
        <ele>264.299987793</ele>
        <time>2015-07-06T09:17:36.006Z</time>
      </trkpt>
      <trkpt lat="45.98817" lon="4.8767">
        <ele>264.100006104</ele>
        <time>2015-07-06T09:17:37.002Z</time>
      </trkpt>
      <trkpt lat="45.98819" lon="4.87678">
        <ele>264.100006104</ele>
        <time>2015-07-06T09:17:38.003Z</time>
      </trkpt>
      <trkpt lat="45.98822" lon="4.87686">
        <ele>264</ele>
        <time>2015-07-06T09:17:39.006Z</time>
      </trkpt>
      <trkpt lat="45.98824" lon="4.87694">
        <ele>264</ele>
        <time>2015-07-06T09:17:40.003Z</time>
      </trkpt>
      <trkpt lat="45.98825" lon="4.87701">
        <ele>263.899993896</ele>
        <time>2015-07-06T09:17:41.002Z</time>
      </trkpt>
      <trkpt lat="45.98827" lon="4.87709">
        <ele>263.899993896</ele>
        <time>2015-07-06T09:17:42.021Z</time>
      </trkpt>
      <trkpt lat="45.98829" lon="4.87717">
        <ele>263.799987793</ele>
        <time>2015-07-06T09:17:43.004Z</time>
      </trkpt>
      <trkpt lat="45.98831" lon="4.87724">
        <ele>263.600006104</ele>
        <time>2015-07-06T09:17:44.007Z</time>
      </trkpt>
      <trkpt lat="45.98833" lon="4.8773">
        <ele>263.399993896</ele>
        <time>2015-07-06T09:17:45.004Z</time>
      </trkpt>
      <trkpt lat="45.98835" lon="4.87742">
        <ele>262.799987793</ele>
        <time>2015-07-06T09:17:47.006Z</time>
      </trkpt>
      <trkpt lat="45.98837" lon="4.87749">
        <ele>262.5</ele>
        <time>2015-07-06T09:17:48.008Z</time>
      </trkpt>
      <trkpt lat="45.98839" lon="4.87756">
        <ele>262.299987793</ele>
        <time>2015-07-06T09:17:49.002Z</time>
      </trkpt>
      <trkpt lat="45.9884" lon="4.87763">
        <ele>262</ele>
        <time>2015-07-06T09:17:50.005Z</time>
      </trkpt>
      <trkpt lat="45.98841" lon="4.8777">
        <ele>261.899993896</ele>
        <time>2015-07-06T09:17:51.004Z</time>
      </trkpt>
      <trkpt lat="45.98843" lon="4.87776">
        <ele>261.600006104</ele>
        <time>2015-07-06T09:17:52.002Z</time>
      </trkpt>
      <trkpt lat="45.98845" lon="4.87782">
        <ele>261.399993896</ele>
        <time>2015-07-06T09:17:53.032Z</time>
      </trkpt>
      <trkpt lat="45.98847" lon="4.87789">
        <ele>261.399993896</ele>
        <time>2015-07-06T09:17:54.005Z</time>
      </trkpt>
      <trkpt lat="45.98849" lon="4.87795">
        <ele>261.399993896</ele>
        <time>2015-07-06T09:17:55.002Z</time>
      </trkpt>
      <trkpt lat="45.98851" lon="4.87801">
        <ele>261.299987793</ele>
        <time>2015-07-06T09:17:56.004Z</time>
      </trkpt>
      <trkpt lat="45.98853" lon="4.87807">
        <ele>261.399993896</ele>
        <time>2015-07-06T09:17:57.002Z</time>
      </trkpt>
      <trkpt lat="45.98856" lon="4.87813">
        <ele>261.399993896</ele>
        <time>2015-07-06T09:17:58.021Z</time>
      </trkpt>
      <trkpt lat="45.98859" lon="4.87819">
        <ele>261.600006104</ele>
        <time>2015-07-06T09:17:59.032Z</time>
      </trkpt>
      <trkpt lat="45.98863" lon="4.87825">
        <ele>262.299987793</ele>
        <time>2015-07-06T09:18:00.027Z</time>
      </trkpt>
      <trkpt lat="45.98866" lon="4.87831">
        <ele>262.600006104</ele>
        <time>2015-07-06T09:18:01.002Z</time>
      </trkpt>
      <trkpt lat="45.98868" lon="4.87838">
        <ele>262.799987793</ele>
        <time>2015-07-06T09:18:02.003Z</time>
      </trkpt>
      <trkpt lat="45.98872" lon="4.87844">
        <ele>263</ele>
        <time>2015-07-06T09:18:03.002Z</time>
      </trkpt>
      <trkpt lat="45.98874" lon="4.8785">
        <ele>263.299987793</ele>
        <time>2015-07-06T09:18:04.006Z</time>
      </trkpt>
      <trkpt lat="45.98876" lon="4.87855">
        <ele>263.399993896</ele>
        <time>2015-07-06T09:18:05.006Z</time>
      </trkpt>
      <trkpt lat="45.98879" lon="4.87862">
        <ele>263.600006104</ele>
        <time>2015-07-06T09:18:06.007Z</time>
      </trkpt>
      <trkpt lat="45.98882" lon="4.87867">
        <ele>263.5</ele>
        <time>2015-07-06T09:18:07.002Z</time>
      </trkpt>
      <trkpt lat="45.98886" lon="4.87873">
        <ele>263.700012207</ele>
        <time>2015-07-06T09:18:08.003Z</time>
      </trkpt>
      <trkpt lat="45.9889" lon="4.87878">
        <ele>263.899993896</ele>
        <time>2015-07-06T09:18:09.006Z</time>
      </trkpt>
      <trkpt lat="45.98893" lon="4.87882">
        <ele>264</ele>
        <time>2015-07-06T09:18:10.004Z</time>
      </trkpt>
      <trkpt lat="45.989" lon="4.87891">
        <ele>264.200012207</ele>
        <time>2015-07-06T09:18:12.007Z</time>
      </trkpt>
      <trkpt lat="45.98903" lon="4.87893">
        <ele>265.299987793</ele>
        <time>2015-07-06T09:18:13.007Z</time>
      </trkpt>
      <trkpt lat="45.98909" lon="4.87902">
        <ele>266.100006104</ele>
        <time>2015-07-06T09:18:15.002Z</time>
      </trkpt>
      <trkpt lat="45.98911" lon="4.87908">
        <ele>266.299987793</ele>
        <time>2015-07-06T09:18:16.004Z</time>
      </trkpt>
      <trkpt lat="45.98918" lon="4.87915">
        <ele>266.5</ele>
        <time>2015-07-06T09:18:18.007Z</time>
      </trkpt>
      <trkpt lat="45.98921" lon="4.87917">
        <ele>266.600006104</ele>
        <time>2015-07-06T09:18:19.019Z</time>
      </trkpt>
      <trkpt lat="45.98928" lon="4.87921">
        <ele>266.899993896</ele>
        <time>2015-07-06T09:18:21.006Z</time>
      </trkpt>
      <trkpt lat="45.98932" lon="4.87922">
        <ele>267.200012207</ele>
        <time>2015-07-06T09:18:22.007Z</time>
      </trkpt>
      <trkpt lat="45.98938" lon="4.87926">
        <ele>267.600006104</ele>
        <time>2015-07-06T09:18:24.006Z</time>
      </trkpt>
      <trkpt lat="45.98941" lon="4.87929">
        <ele>267.799987793</ele>
        <time>2015-07-06T09:18:25.006Z</time>
      </trkpt>
      <trkpt lat="45.98948" lon="4.87932">
        <ele>268</ele>
        <time>2015-07-06T09:18:27.007Z</time>
      </trkpt>
      <trkpt lat="45.98952" lon="4.87933">
        <ele>268.100006104</ele>
        <time>2015-07-06T09:18:28.011Z</time>
      </trkpt>
      <trkpt lat="45.98959" lon="4.87938">
        <ele>268.899993896</ele>
        <time>2015-07-06T09:18:30.006Z</time>
      </trkpt>
      <trkpt lat="45.98962" lon="4.87942">
        <ele>269.200012207</ele>
        <time>2015-07-06T09:18:31.002Z</time>
      </trkpt>
      <trkpt lat="45.98968" lon="4.87949">
        <ele>269.799987793</ele>
        <time>2015-07-06T09:18:33.007Z</time>
      </trkpt>
      <trkpt lat="45.98972" lon="4.8795">
        <ele>270.200012207</ele>
        <time>2015-07-06T09:18:34.002Z</time>
      </trkpt>
      <trkpt lat="45.98977" lon="4.87954">
        <ele>271.5</ele>
        <time>2015-07-06T09:18:36.016Z</time>
      </trkpt>
      <trkpt lat="45.9898" lon="4.87956">
        <ele>271.899993896</ele>
        <time>2015-07-06T09:18:37.002Z</time>
      </trkpt>
      <trkpt lat="45.98988" lon="4.87959">
        <ele>272.700012207</ele>
        <time>2015-07-06T09:18:39.005Z</time>
      </trkpt>
      <trkpt lat="45.98991" lon="4.87961">
        <ele>273.200012207</ele>
        <time>2015-07-06T09:18:40.02Z</time>
      </trkpt>
      <trkpt lat="45.98997" lon="4.87964">
        <ele>273.799987793</ele>
        <time>2015-07-06T09:18:42.006Z</time>
      </trkpt>
      <trkpt lat="45.99" lon="4.87966">
        <ele>274.399993896</ele>
        <time>2015-07-06T09:18:43.002Z</time>
      </trkpt>
      <trkpt lat="45.99008" lon="4.87971">
        <ele>275.299987793</ele>
        <time>2015-07-06T09:18:46.005Z</time>
      </trkpt>
      <trkpt lat="45.99011" lon="4.87972">
        <ele>275.399993896</ele>
        <time>2015-07-06T09:18:47.002Z</time>
      </trkpt>
      <trkpt lat="45.99019" lon="4.87974">
        <ele>276</ele>
        <time>2015-07-06T09:18:49.007Z</time>
      </trkpt>
      <trkpt lat="45.99022" lon="4.87976">
        <ele>276.399993896</ele>
        <time>2015-07-06T09:18:50.026Z</time>
      </trkpt>
      <trkpt lat="45.99027" lon="4.87981">
        <ele>276.799987793</ele>
        <time>2015-07-06T09:18:52.035Z</time>
      </trkpt>
      <trkpt lat="45.99032" lon="4.87984">
        <ele>276.899993896</ele>
        <time>2015-07-06T09:18:53.004Z</time>
      </trkpt>
      <trkpt lat="45.99039" lon="4.87988">
        <ele>277.399993896</ele>
        <time>2015-07-06T09:18:55.006Z</time>
      </trkpt>
      <trkpt lat="45.99043" lon="4.87991">
        <ele>277.700012207</ele>
        <time>2015-07-06T09:18:56.005Z</time>
      </trkpt>
      <trkpt lat="45.99047" lon="4.87992">
        <ele>278</ele>
        <time>2015-07-06T09:18:57.002Z</time>
      </trkpt>
      <trkpt lat="45.99052" lon="4.87995">
        <ele>278.200012207</ele>
        <time>2015-07-06T09:18:58.028Z</time>
      </trkpt>
      <trkpt lat="45.99059" lon="4.87999">
        <ele>279.200012207</ele>
        <time>2015-07-06T09:19:00.026Z</time>
      </trkpt>
      <trkpt lat="45.99063" lon="4.88001">
        <ele>279.299987793</ele>
        <time>2015-07-06T09:19:01.019Z</time>
      </trkpt>
      <trkpt lat="45.99067" lon="4.88004">
        <ele>279.399993896</ele>
        <time>2015-07-06T09:19:02.003Z</time>
      </trkpt>
      <trkpt lat="45.99072" lon="4.88006">
        <ele>279.299987793</ele>
        <time>2015-07-06T09:19:03.006Z</time>
      </trkpt>
      <trkpt lat="45.9908" lon="4.88008">
        <ele>279.200012207</ele>
        <time>2015-07-06T09:19:05.006Z</time>
      </trkpt>
      <trkpt lat="45.99084" lon="4.8801">
        <ele>279.100006104</ele>
        <time>2015-07-06T09:19:06.009Z</time>
      </trkpt>
      <trkpt lat="45.99092" lon="4.88013">
        <ele>279.5</ele>
        <time>2015-07-06T09:19:08.003Z</time>
      </trkpt>
      <trkpt lat="45.99096" lon="4.88015">
        <ele>279.899993896</ele>
        <time>2015-07-06T09:19:09.002Z</time>
      </trkpt>
      <trkpt lat="45.99103" lon="4.88019">
        <ele>280.399993896</ele>
        <time>2015-07-06T09:19:11.002Z</time>
      </trkpt>
      <trkpt lat="45.99107" lon="4.88022">
        <ele>280.600006104</ele>
        <time>2015-07-06T09:19:12.006Z</time>
      </trkpt>
      <trkpt lat="45.99114" lon="4.88026">
        <ele>280.700012207</ele>
        <time>2015-07-06T09:19:14.003Z</time>
      </trkpt>
      <trkpt lat="45.99118" lon="4.88028">
        <ele>280.600006104</ele>
        <time>2015-07-06T09:19:15.002Z</time>
      </trkpt>
      <trkpt lat="45.99125" lon="4.88032">
        <ele>279.100006104</ele>
        <time>2015-07-06T09:19:17.02Z</time>
      </trkpt>
      <trkpt lat="45.99129" lon="4.88034">
        <ele>278.899993896</ele>
        <time>2015-07-06T09:19:18.062Z</time>
      </trkpt>
      <trkpt lat="45.99137" lon="4.88038">
        <ele>278.799987793</ele>
        <time>2015-07-06T09:19:20.007Z</time>
      </trkpt>
      <trkpt lat="45.99141" lon="4.8804">
        <ele>278.700012207</ele>
        <time>2015-07-06T09:19:21.003Z</time>
      </trkpt>
      <trkpt lat="45.99148" lon="4.88045">
        <ele>278.200012207</ele>
        <time>2015-07-06T09:19:23.002Z</time>
      </trkpt>
      <trkpt lat="45.99152" lon="4.88047">
        <ele>277.600006104</ele>
        <time>2015-07-06T09:19:24.006Z</time>
      </trkpt>
      <trkpt lat="45.9916" lon="4.88052">
        <ele>277.600006104</ele>
        <time>2015-07-06T09:19:26.004Z</time>
      </trkpt>
      <trkpt lat="45.99163" lon="4.88055">
        <ele>277.799987793</ele>
        <time>2015-07-06T09:19:27.004Z</time>
      </trkpt>
      <trkpt lat="45.9917" lon="4.8806">
        <ele>278.299987793</ele>
        <time>2015-07-06T09:19:29.006Z</time>
      </trkpt>
      <trkpt lat="45.99174" lon="4.88063">
        <ele>278.200012207</ele>
        <time>2015-07-06T09:19:30.005Z</time>
      </trkpt>
      <trkpt lat="45.9918" lon="4.8807">
        <ele>278</ele>
        <time>2015-07-06T09:19:32.007Z</time>
      </trkpt>
      <trkpt lat="45.99184" lon="4.88074">
        <ele>278.200012207</ele>
        <time>2015-07-06T09:19:33.002Z</time>
      </trkpt>
      <trkpt lat="45.99191" lon="4.8808">
        <ele>278.299987793</ele>
        <time>2015-07-06T09:19:35.002Z</time>
      </trkpt>
      <trkpt lat="45.99195" lon="4.88083">
        <ele>278.399993896</ele>
        <time>2015-07-06T09:19:36.006Z</time>
      </trkpt>
      <trkpt lat="45.99202" lon="4.88089">
        <ele>278.5</ele>
        <time>2015-07-06T09:19:38.02Z</time>
      </trkpt>
      <trkpt lat="45.99206" lon="4.88092">
        <ele>278.600006104</ele>
        <time>2015-07-06T09:19:39.004Z</time>
      </trkpt>
      <trkpt lat="45.99213" lon="4.88097">
        <ele>278.399993896</ele>
        <time>2015-07-06T09:19:41.002Z</time>
      </trkpt>
      <trkpt lat="45.99217" lon="4.88101">
        <ele>278.100006104</ele>
        <time>2015-07-06T09:19:42.093Z</time>
      </trkpt>
      <trkpt lat="45.99225" lon="4.88107">
        <ele>278</ele>
        <time>2015-07-06T09:19:44.007Z</time>
      </trkpt>
      <trkpt lat="45.99228" lon="4.88111">
        <ele>278.200012207</ele>
        <time>2015-07-06T09:19:45.002Z</time>
      </trkpt>
      <trkpt lat="45.99235" lon="4.88117">
        <ele>278.200012207</ele>
        <time>2015-07-06T09:19:47.006Z</time>
      </trkpt>
      <trkpt lat="45.99239" lon="4.8812">
        <ele>278.100006104</ele>
        <time>2015-07-06T09:19:48.005Z</time>
      </trkpt>
      <trkpt lat="45.99243" lon="4.88123">
        <ele>278.600006104</ele>
        <time>2015-07-06T09:19:49.004Z</time>
      </trkpt>
      <trkpt lat="45.99247" lon="4.88127">
        <ele>278.700012207</ele>
        <time>2015-07-06T09:19:50.003Z</time>
      </trkpt>
      <trkpt lat="45.99254" lon="4.88133">
        <ele>279</ele>
        <time>2015-07-06T09:19:52.002Z</time>
      </trkpt>
      <trkpt lat="45.99257" lon="4.88136">
        <ele>279.200012207</ele>
        <time>2015-07-06T09:19:53.002Z</time>
      </trkpt>
      <trkpt lat="45.99264" lon="4.88143">
        <ele>279.700012207</ele>
        <time>2015-07-06T09:19:55.002Z</time>
      </trkpt>
      <trkpt lat="45.99268" lon="4.88146">
        <ele>279.700012207</ele>
        <time>2015-07-06T09:19:56.005Z</time>
      </trkpt>
      <trkpt lat="45.99275" lon="4.88153">
        <ele>280.100006104</ele>
        <time>2015-07-06T09:19:58.002Z</time>
      </trkpt>
      <trkpt lat="45.99279" lon="4.88156">
        <ele>280</ele>
        <time>2015-07-06T09:19:59.019Z</time>
      </trkpt>
      <trkpt lat="45.99283" lon="4.88159">
        <ele>280.100006104</ele>
        <time>2015-07-06T09:20:00.026Z</time>
      </trkpt>
      <trkpt lat="45.99287" lon="4.88163">
        <ele>280.399993896</ele>
        <time>2015-07-06T09:20:01.006Z</time>
      </trkpt>
      <trkpt lat="45.99294" lon="4.8817">
        <ele>280.700012207</ele>
        <time>2015-07-06T09:20:03.003Z</time>
      </trkpt>
      <trkpt lat="45.99298" lon="4.88173">
        <ele>280.299987793</ele>
        <time>2015-07-06T09:20:04.006Z</time>
      </trkpt>
      <trkpt lat="45.99302" lon="4.88176">
        <ele>280.700012207</ele>
        <time>2015-07-06T09:20:05.006Z</time>
      </trkpt>
      <trkpt lat="45.99306" lon="4.88179">
        <ele>280.600006104</ele>
        <time>2015-07-06T09:20:06.005Z</time>
      </trkpt>
      <trkpt lat="45.99314" lon="4.88185">
        <ele>280.700012207</ele>
        <time>2015-07-06T09:20:08.009Z</time>
      </trkpt>
      <trkpt lat="45.99318" lon="4.88188">
        <ele>280.299987793</ele>
        <time>2015-07-06T09:20:09.004Z</time>
      </trkpt>
      <trkpt lat="45.99322" lon="4.88191">
        <ele>280.299987793</ele>
        <time>2015-07-06T09:20:10.021Z</time>
      </trkpt>
      <trkpt lat="45.99326" lon="4.88194">
        <ele>280.299987793</ele>
        <time>2015-07-06T09:20:11.002Z</time>
      </trkpt>
      <trkpt lat="45.99333" lon="4.88202">
        <ele>280.799987793</ele>
        <time>2015-07-06T09:20:13.002Z</time>
      </trkpt>
      <trkpt lat="45.99337" lon="4.88205">
        <ele>281</ele>
        <time>2015-07-06T09:20:14.007Z</time>
      </trkpt>
      <trkpt lat="45.99341" lon="4.88208">
        <ele>281</ele>
        <time>2015-07-06T09:20:15.062Z</time>
      </trkpt>
      <trkpt lat="45.99345" lon="4.88212">
        <ele>281.100006104</ele>
        <time>2015-07-06T09:20:16.003Z</time>
      </trkpt>
      <trkpt lat="45.99352" lon="4.8822">
        <ele>280.899993896</ele>
        <time>2015-07-06T09:20:18.007Z</time>
      </trkpt>
      <trkpt lat="45.99356" lon="4.88223">
        <ele>280.799987793</ele>
        <time>2015-07-06T09:20:19.004Z</time>
      </trkpt>
      <trkpt lat="45.9936" lon="4.88226">
        <ele>281</ele>
        <time>2015-07-06T09:20:20.021Z</time>
      </trkpt>
      <trkpt lat="45.99364" lon="4.88229">
        <ele>280.799987793</ele>
        <time>2015-07-06T09:20:21.002Z</time>
      </trkpt>
      <trkpt lat="45.99368" lon="4.88233">
        <ele>280.600006104</ele>
        <time>2015-07-06T09:20:22.009Z</time>
      </trkpt>
      <trkpt lat="45.99372" lon="4.88237">
        <ele>280.5</ele>
        <time>2015-07-06T09:20:23.004Z</time>
      </trkpt>
      <trkpt lat="45.99376" lon="4.88242">
        <ele>280.399993896</ele>
        <time>2015-07-06T09:20:24.009Z</time>
      </trkpt>
      <trkpt lat="45.99379" lon="4.88247">
        <ele>280.5</ele>
        <time>2015-07-06T09:20:25.004Z</time>
      </trkpt>
      <trkpt lat="45.99385" lon="4.88256">
        <ele>280.5</ele>
        <time>2015-07-06T09:20:27.062Z</time>
      </trkpt>
      <trkpt lat="45.99387" lon="4.88261">
        <ele>280.5</ele>
        <time>2015-07-06T09:20:28.007Z</time>
      </trkpt>
      <trkpt lat="45.9939" lon="4.88268">
        <ele>280.5</ele>
        <time>2015-07-06T09:20:29.006Z</time>
      </trkpt>
      <trkpt lat="45.99392" lon="4.88274">
        <ele>280.700012207</ele>
        <time>2015-07-06T09:20:30.006Z</time>
      </trkpt>
      <trkpt lat="45.99394" lon="4.8828">
        <ele>280.799987793</ele>
        <time>2015-07-06T09:20:31.005Z</time>
      </trkpt>
      <trkpt lat="45.99396" lon="4.88287">
        <ele>280.899993896</ele>
        <time>2015-07-06T09:20:32.007Z</time>
      </trkpt>
      <trkpt lat="45.99398" lon="4.88293">
        <ele>280.899993896</ele>
        <time>2015-07-06T09:20:33.004Z</time>
      </trkpt>
      <trkpt lat="45.994" lon="4.88299">
        <ele>280.799987793</ele>
        <time>2015-07-06T09:20:34.008Z</time>
      </trkpt>
      <trkpt lat="45.99402" lon="4.88305">
        <ele>280.700012207</ele>
        <time>2015-07-06T09:20:35.006Z</time>
      </trkpt>
      <trkpt lat="45.99404" lon="4.88311">
        <ele>280.799987793</ele>
        <time>2015-07-06T09:20:36.021Z</time>
      </trkpt>
      <trkpt lat="45.99406" lon="4.88317">
        <ele>280.899993896</ele>
        <time>2015-07-06T09:20:37.002Z</time>
      </trkpt>
      <trkpt lat="45.99408" lon="4.88323">
        <ele>280.899993896</ele>
        <time>2015-07-06T09:20:38.005Z</time>
      </trkpt>
      <trkpt lat="45.9941" lon="4.88329">
        <ele>281.100006104</ele>
        <time>2015-07-06T09:20:39.042Z</time>
      </trkpt>
      <trkpt lat="45.99412" lon="4.88335">
        <ele>281.299987793</ele>
        <time>2015-07-06T09:20:40.002Z</time>
      </trkpt>
      <trkpt lat="45.99415" lon="4.8834">
        <ele>281.399993896</ele>
        <time>2015-07-06T09:20:41.006Z</time>
      </trkpt>
      <trkpt lat="45.99417" lon="4.88346">
        <ele>282</ele>
        <time>2015-07-06T09:20:42.009Z</time>
      </trkpt>
      <trkpt lat="45.9942" lon="4.88353">
        <ele>282.200012207</ele>
        <time>2015-07-06T09:20:43.006Z</time>
      </trkpt>
      <trkpt lat="45.99422" lon="4.88359">
        <ele>282.299987793</ele>
        <time>2015-07-06T09:20:44.003Z</time>
      </trkpt>
      <trkpt lat="45.99427" lon="4.8837">
        <ele>282.399993896</ele>
        <time>2015-07-06T09:20:46.001Z</time>
      </trkpt>
      <trkpt lat="45.99429" lon="4.88375">
        <ele>282</ele>
        <time>2015-07-06T09:20:47.002Z</time>
      </trkpt>
      <trkpt lat="45.99434" lon="4.88386">
        <ele>282.299987793</ele>
        <time>2015-07-06T09:20:49.015Z</time>
      </trkpt>
      <trkpt lat="45.99437" lon="4.88392">
        <ele>282.299987793</ele>
        <time>2015-07-06T09:20:50.005Z</time>
      </trkpt>
      <trkpt lat="45.99442" lon="4.88401">
        <ele>282.5</ele>
        <time>2015-07-06T09:20:52.006Z</time>
      </trkpt>
      <trkpt lat="45.99446" lon="4.88405">
        <ele>282.399993896</ele>
        <time>2015-07-06T09:20:53.002Z</time>
      </trkpt>
      <trkpt lat="45.99449" lon="4.88409">
        <ele>282.399993896</ele>
        <time>2015-07-06T09:20:54.005Z</time>
      </trkpt>
      <trkpt lat="45.99453" lon="4.88413">
        <ele>282.600006104</ele>
        <time>2015-07-06T09:20:55.004Z</time>
      </trkpt>
      <trkpt lat="45.99457" lon="4.88416">
        <ele>282.399993896</ele>
        <time>2015-07-06T09:20:56.005Z</time>
      </trkpt>
      <trkpt lat="45.99462" lon="4.88421">
        <ele>282.399993896</ele>
        <time>2015-07-06T09:20:57.002Z</time>
      </trkpt>
      <trkpt lat="45.99465" lon="4.88424">
        <ele>282.299987793</ele>
        <time>2015-07-06T09:20:58.006Z</time>
      </trkpt>
      <trkpt lat="45.99469" lon="4.88429">
        <ele>282.299987793</ele>
        <time>2015-07-06T09:20:59.004Z</time>
      </trkpt>
      <trkpt lat="45.99473" lon="4.88433">
        <ele>282.399993896</ele>
        <time>2015-07-06T09:21:00.03Z</time>
      </trkpt>
      <trkpt lat="45.99477" lon="4.88438">
        <ele>282.399993896</ele>
        <time>2015-07-06T09:21:01.002Z</time>
      </trkpt>
      <trkpt lat="45.9948" lon="4.88442">
        <ele>281.899993896</ele>
        <time>2015-07-06T09:21:02.024Z</time>
      </trkpt>
      <trkpt lat="45.99483" lon="4.88447">
        <ele>281.700012207</ele>
        <time>2015-07-06T09:21:03.027Z</time>
      </trkpt>
      <trkpt lat="45.99486" lon="4.88451">
        <ele>281.600006104</ele>
        <time>2015-07-06T09:21:04.002Z</time>
      </trkpt>
      <trkpt lat="45.9949" lon="4.88456">
        <ele>281.600006104</ele>
        <time>2015-07-06T09:21:05.002Z</time>
      </trkpt>
      <trkpt lat="45.99492" lon="4.88461">
        <ele>281.700012207</ele>
        <time>2015-07-06T09:21:06.005Z</time>
      </trkpt>
      <trkpt lat="45.99495" lon="4.88467">
        <ele>281.700012207</ele>
        <time>2015-07-06T09:21:07.002Z</time>
      </trkpt>
      <trkpt lat="45.99498" lon="4.88473">
        <ele>282</ele>
        <time>2015-07-06T09:21:08.003Z</time>
      </trkpt>
      <trkpt lat="45.99501" lon="4.88479">
        <ele>282.600006104</ele>
        <time>2015-07-06T09:21:09.002Z</time>
      </trkpt>
      <trkpt lat="45.99504" lon="4.88484">
        <ele>283</ele>
        <time>2015-07-06T09:21:10.002Z</time>
      </trkpt>
      <trkpt lat="45.99506" lon="4.88489">
        <ele>283.399993896</ele>
        <time>2015-07-06T09:21:11.002Z</time>
      </trkpt>
      <trkpt lat="45.99509" lon="4.88495">
        <ele>283.600006104</ele>
        <time>2015-07-06T09:21:12.005Z</time>
      </trkpt>
      <trkpt lat="45.99512" lon="4.885">
        <ele>283.899993896</ele>
        <time>2015-07-06T09:21:13.004Z</time>
      </trkpt>
      <trkpt lat="45.99515" lon="4.88507">
        <ele>283.899993896</ele>
        <time>2015-07-06T09:21:14.003Z</time>
      </trkpt>
      <trkpt lat="45.99518" lon="4.88512">
        <ele>284</ele>
        <time>2015-07-06T09:21:15.003Z</time>
      </trkpt>
      <trkpt lat="45.9952" lon="4.88517">
        <ele>284.299987793</ele>
        <time>2015-07-06T09:21:16.003Z</time>
      </trkpt>
      <trkpt lat="45.99523" lon="4.88523">
        <ele>284.700012207</ele>
        <time>2015-07-06T09:21:17.002Z</time>
      </trkpt>
      <trkpt lat="45.99525" lon="4.88529">
        <ele>284.5</ele>
        <time>2015-07-06T09:21:18.022Z</time>
      </trkpt>
      <trkpt lat="45.99528" lon="4.88534">
        <ele>284.799987793</ele>
        <time>2015-07-06T09:21:19.002Z</time>
      </trkpt>
      <trkpt lat="45.99531" lon="4.8854">
        <ele>285</ele>
        <time>2015-07-06T09:21:20.003Z</time>
      </trkpt>
      <trkpt lat="45.99533" lon="4.88545">
        <ele>284.899993896</ele>
        <time>2015-07-06T09:21:21.006Z</time>
      </trkpt>
      <trkpt lat="45.99536" lon="4.88551">
        <ele>284.700012207</ele>
        <time>2015-07-06T09:21:22.005Z</time>
      </trkpt>
      <trkpt lat="45.99538" lon="4.88557">
        <ele>284.399993896</ele>
        <time>2015-07-06T09:21:23.001Z</time>
      </trkpt>
      <trkpt lat="45.9954" lon="4.88564">
        <ele>284</ele>
        <time>2015-07-06T09:21:24.005Z</time>
      </trkpt>
      <trkpt lat="45.99542" lon="4.8857">
        <ele>283.700012207</ele>
        <time>2015-07-06T09:21:25.001Z</time>
      </trkpt>
      <trkpt lat="45.99544" lon="4.88576">
        <ele>283.600006104</ele>
        <time>2015-07-06T09:21:26.009Z</time>
      </trkpt>
      <trkpt lat="45.99546" lon="4.88582">
        <ele>283.5</ele>
        <time>2015-07-06T09:21:27.002Z</time>
      </trkpt>
      <trkpt lat="45.99547" lon="4.88589">
        <ele>283.299987793</ele>
        <time>2015-07-06T09:21:28.05Z</time>
      </trkpt>
      <trkpt lat="45.99548" lon="4.88596">
        <ele>283.399993896</ele>
        <time>2015-07-06T09:21:29.003Z</time>
      </trkpt>
      <trkpt lat="45.99549" lon="4.88602">
        <ele>283.600006104</ele>
        <time>2015-07-06T09:21:30.005Z</time>
      </trkpt>
      <trkpt lat="45.9955" lon="4.88609">
        <ele>283.5</ele>
        <time>2015-07-06T09:21:31.003Z</time>
      </trkpt>
      <trkpt lat="45.99551" lon="4.88616">
        <ele>283.5</ele>
        <time>2015-07-06T09:21:32.005Z</time>
      </trkpt>
      <trkpt lat="45.99551" lon="4.88623">
        <ele>283.600006104</ele>
        <time>2015-07-06T09:21:33.002Z</time>
      </trkpt>
      <trkpt lat="45.99551" lon="4.8863">
        <ele>284</ele>
        <time>2015-07-06T09:21:34.005Z</time>
      </trkpt>
      <trkpt lat="45.99552" lon="4.88637">
        <ele>284.200012207</ele>
        <time>2015-07-06T09:21:35.002Z</time>
      </trkpt>
      <trkpt lat="45.99553" lon="4.88644">
        <ele>284.200012207</ele>
        <time>2015-07-06T09:21:36.009Z</time>
      </trkpt>
      <trkpt lat="45.99554" lon="4.88651">
        <ele>284.100006104</ele>
        <time>2015-07-06T09:21:37.002Z</time>
      </trkpt>
      <trkpt lat="45.99554" lon="4.88657">
        <ele>284.200012207</ele>
        <time>2015-07-06T09:21:38.006Z</time>
      </trkpt>
      <trkpt lat="45.99555" lon="4.88664">
        <ele>284.200012207</ele>
        <time>2015-07-06T09:21:39.02Z</time>
      </trkpt>
      <trkpt lat="45.99555" lon="4.88671">
        <ele>284.399993896</ele>
        <time>2015-07-06T09:21:40.003Z</time>
      </trkpt>
      <trkpt lat="45.99556" lon="4.88677">
        <ele>284.100006104</ele>
        <time>2015-07-06T09:21:41.002Z</time>
      </trkpt>
      <trkpt lat="45.99557" lon="4.88684">
        <ele>284.200012207</ele>
        <time>2015-07-06T09:21:42.005Z</time>
      </trkpt>
      <trkpt lat="45.99558" lon="4.88691">
        <ele>284</ele>
        <time>2015-07-06T09:21:43.002Z</time>
      </trkpt>
      <trkpt lat="45.99558" lon="4.88699">
        <ele>283.799987793</ele>
        <time>2015-07-06T09:21:44.003Z</time>
      </trkpt>
      <trkpt lat="45.99559" lon="4.88707">
        <ele>283.899993896</ele>
        <time>2015-07-06T09:21:45.002Z</time>
      </trkpt>
      <trkpt lat="45.9956" lon="4.88715">
        <ele>284.399993896</ele>
        <time>2015-07-06T09:21:46.002Z</time>
      </trkpt>
      <trkpt lat="45.9956" lon="4.88722">
        <ele>284.5</ele>
        <time>2015-07-06T09:21:47.045Z</time>
      </trkpt>
      <trkpt lat="45.99561" lon="4.8873">
        <ele>284.200012207</ele>
        <time>2015-07-06T09:21:48.001Z</time>
      </trkpt>
      <trkpt lat="45.99561" lon="4.88736">
        <ele>285.299987793</ele>
        <time>2015-07-06T09:21:49.002Z</time>
      </trkpt>
      <trkpt lat="45.99562" lon="4.88744">
        <ele>285.5</ele>
        <time>2015-07-06T09:21:50.004Z</time>
      </trkpt>
      <trkpt lat="45.99563" lon="4.88752">
        <ele>286.200012207</ele>
        <time>2015-07-06T09:21:51.002Z</time>
      </trkpt>
      <trkpt lat="45.99563" lon="4.88761">
        <ele>286.399993896</ele>
        <time>2015-07-06T09:21:52.008Z</time>
      </trkpt>
      <trkpt lat="45.99564" lon="4.88769">
        <ele>286.799987793</ele>
        <time>2015-07-06T09:21:53.002Z</time>
      </trkpt>
      <trkpt lat="45.99564" lon="4.88777">
        <ele>287.100006104</ele>
        <time>2015-07-06T09:21:54.005Z</time>
      </trkpt>
      <trkpt lat="45.99565" lon="4.88784">
        <ele>287.700012207</ele>
        <time>2015-07-06T09:21:55.002Z</time>
      </trkpt>
      <trkpt lat="45.99566" lon="4.88791">
        <ele>288.100006104</ele>
        <time>2015-07-06T09:21:56.003Z</time>
      </trkpt>
      <trkpt lat="45.99566" lon="4.88799">
        <ele>288.100006104</ele>
        <time>2015-07-06T09:21:57.025Z</time>
      </trkpt>
      <trkpt lat="45.99567" lon="4.88807">
        <ele>288.299987793</ele>
        <time>2015-07-06T09:21:58.028Z</time>
      </trkpt>
      <trkpt lat="45.99568" lon="4.88814">
        <ele>288.700012207</ele>
        <time>2015-07-06T09:21:59.002Z</time>
      </trkpt>
      <trkpt lat="45.99569" lon="4.88822">
        <ele>288.899993896</ele>
        <time>2015-07-06T09:22:00.041Z</time>
      </trkpt>
      <trkpt lat="45.99569" lon="4.8883">
        <ele>288.899993896</ele>
        <time>2015-07-06T09:22:01.052Z</time>
      </trkpt>
      <trkpt lat="45.9957" lon="4.88838">
        <ele>288.700012207</ele>
        <time>2015-07-06T09:22:02.002Z</time>
      </trkpt>
      <trkpt lat="45.99571" lon="4.88846">
        <ele>288.600006104</ele>
        <time>2015-07-06T09:22:03.002Z</time>
      </trkpt>
      <trkpt lat="45.99571" lon="4.88854">
        <ele>288.899993896</ele>
        <time>2015-07-06T09:22:04.002Z</time>
      </trkpt>
      <trkpt lat="45.99572" lon="4.88862">
        <ele>288.700012207</ele>
        <time>2015-07-06T09:22:05.002Z</time>
      </trkpt>
      <trkpt lat="45.99573" lon="4.8887">
        <ele>288.799987793</ele>
        <time>2015-07-06T09:22:06.005Z</time>
      </trkpt>
      <trkpt lat="45.99574" lon="4.88878">
        <ele>288.200012207</ele>
        <time>2015-07-06T09:22:07.002Z</time>
      </trkpt>
      <trkpt lat="45.99575" lon="4.88887">
        <ele>287.700012207</ele>
        <time>2015-07-06T09:22:08.007Z</time>
      </trkpt>
      <trkpt lat="45.99575" lon="4.88894">
        <ele>288</ele>
        <time>2015-07-06T09:22:09.001Z</time>
      </trkpt>
      <trkpt lat="45.99576" lon="4.88901">
        <ele>288.299987793</ele>
        <time>2015-07-06T09:22:10.002Z</time>
      </trkpt>
      <trkpt lat="45.99577" lon="4.88908">
        <ele>288.299987793</ele>
        <time>2015-07-06T09:22:11.019Z</time>
      </trkpt>
      <trkpt lat="45.99577" lon="4.88915">
        <ele>288.200012207</ele>
        <time>2015-07-06T09:22:12.009Z</time>
      </trkpt>
      <trkpt lat="45.99578" lon="4.88922">
        <ele>288.399993896</ele>
        <time>2015-07-06T09:22:13.004Z</time>
      </trkpt>
      <trkpt lat="45.99578" lon="4.88929">
        <ele>288.600006104</ele>
        <time>2015-07-06T09:22:14.003Z</time>
      </trkpt>
      <trkpt lat="45.99579" lon="4.88936">
        <ele>288.600006104</ele>
        <time>2015-07-06T09:22:15.002Z</time>
      </trkpt>
      <trkpt lat="45.9958" lon="4.88943">
        <ele>288.399993896</ele>
        <time>2015-07-06T09:22:16.002Z</time>
      </trkpt>
      <trkpt lat="45.9958" lon="4.88951">
        <ele>288.399993896</ele>
        <time>2015-07-06T09:22:17.002Z</time>
      </trkpt>
      <trkpt lat="45.9958" lon="4.88958">
        <ele>288.5</ele>
        <time>2015-07-06T09:22:18.011Z</time>
      </trkpt>
      <trkpt lat="45.99579" lon="4.88964">
        <ele>288.899993896</ele>
        <time>2015-07-06T09:22:19.002Z</time>
      </trkpt>
      <trkpt lat="45.9958" lon="4.88971">
        <ele>289.200012207</ele>
        <time>2015-07-06T09:22:20.003Z</time>
      </trkpt>
      <trkpt lat="45.99581" lon="4.88979">
        <ele>289.399993896</ele>
        <time>2015-07-06T09:22:21.006Z</time>
      </trkpt>
      <trkpt lat="45.99581" lon="4.88987">
        <ele>289.5</ele>
        <time>2015-07-06T09:22:22.049Z</time>
      </trkpt>
      <trkpt lat="45.99581" lon="4.88996">
        <ele>289.600006104</ele>
        <time>2015-07-06T09:22:23.004Z</time>
      </trkpt>
      <trkpt lat="45.99581" lon="4.89004">
        <ele>289.799987793</ele>
        <time>2015-07-06T09:22:24.008Z</time>
      </trkpt>
      <trkpt lat="45.99581" lon="4.89013">
        <ele>289.899993896</ele>
        <time>2015-07-06T09:22:25.002Z</time>
      </trkpt>
      <trkpt lat="45.9958" lon="4.89021">
        <ele>289.899993896</ele>
        <time>2015-07-06T09:22:26.003Z</time>
      </trkpt>
      <trkpt lat="45.9958" lon="4.89029">
        <ele>290</ele>
        <time>2015-07-06T09:22:27.04Z</time>
      </trkpt>
      <trkpt lat="45.99579" lon="4.89037">
        <ele>290.100006104</ele>
        <time>2015-07-06T09:22:28.002Z</time>
      </trkpt>
      <trkpt lat="45.99578" lon="4.89045">
        <ele>290.200012207</ele>
        <time>2015-07-06T09:22:29.002Z</time>
      </trkpt>
      <trkpt lat="45.99577" lon="4.89053">
        <ele>290.299987793</ele>
        <time>2015-07-06T09:22:30.005Z</time>
      </trkpt>
      <trkpt lat="45.99576" lon="4.89061">
        <ele>290.299987793</ele>
        <time>2015-07-06T09:22:31.002Z</time>
      </trkpt>
      <trkpt lat="45.99575" lon="4.89068">
        <ele>290.399993896</ele>
        <time>2015-07-06T09:22:32.019Z</time>
      </trkpt>
      <trkpt lat="45.99574" lon="4.89075">
        <ele>290.5</ele>
        <time>2015-07-06T09:22:33.002Z</time>
      </trkpt>
      <trkpt lat="45.99572" lon="4.89082">
        <ele>290.799987793</ele>
        <time>2015-07-06T09:22:34.002Z</time>
      </trkpt>
      <trkpt lat="45.99571" lon="4.89089">
        <ele>291</ele>
        <time>2015-07-06T09:22:35.004Z</time>
      </trkpt>
      <trkpt lat="45.99571" lon="4.89097">
        <ele>290.899993896</ele>
        <time>2015-07-06T09:22:36.005Z</time>
      </trkpt>
      <trkpt lat="45.99572" lon="4.89105">
        <ele>290.799987793</ele>
        <time>2015-07-06T09:22:37.002Z</time>
      </trkpt>
      <trkpt lat="45.99572" lon="4.89114">
        <ele>290.899993896</ele>
        <time>2015-07-06T09:22:38.003Z</time>
      </trkpt>
      <trkpt lat="45.99572" lon="4.89121">
        <ele>290.799987793</ele>
        <time>2015-07-06T09:22:39.002Z</time>
      </trkpt>
      <trkpt lat="45.99572" lon="4.89129">
        <ele>291</ele>
        <time>2015-07-06T09:22:40.002Z</time>
      </trkpt>
      <trkpt lat="45.99572" lon="4.89137">
        <ele>291</ele>
        <time>2015-07-06T09:22:41.004Z</time>
      </trkpt>
      <trkpt lat="45.99572" lon="4.89145">
        <ele>291.200012207</ele>
        <time>2015-07-06T09:22:42.006Z</time>
      </trkpt>
      <trkpt lat="45.99572" lon="4.89152">
        <ele>291.200012207</ele>
        <time>2015-07-06T09:22:43.001Z</time>
      </trkpt>
      <trkpt lat="45.99573" lon="4.8916">
        <ele>291</ele>
        <time>2015-07-06T09:22:44.01Z</time>
      </trkpt>
      <trkpt lat="45.99575" lon="4.89169">
        <ele>290.700012207</ele>
        <time>2015-07-06T09:22:45.062Z</time>
      </trkpt>
      <trkpt lat="45.99575" lon="4.89177">
        <ele>290.5</ele>
        <time>2015-07-06T09:22:46.002Z</time>
      </trkpt>
      <trkpt lat="45.99576" lon="4.89185">
        <ele>290.200012207</ele>
        <time>2015-07-06T09:22:47.002Z</time>
      </trkpt>
      <trkpt lat="45.99576" lon="4.89194">
        <ele>290.200012207</ele>
        <time>2015-07-06T09:22:48.024Z</time>
      </trkpt>
      <trkpt lat="45.99576" lon="4.89203">
        <ele>290.399993896</ele>
        <time>2015-07-06T09:22:49.053Z</time>
      </trkpt>
      <trkpt lat="45.99577" lon="4.89211">
        <ele>290.5</ele>
        <time>2015-07-06T09:22:50.007Z</time>
      </trkpt>
      <trkpt lat="45.99578" lon="4.89218">
        <ele>290.399993896</ele>
        <time>2015-07-06T09:22:51.027Z</time>
      </trkpt>
      <trkpt lat="45.99578" lon="4.89227">
        <ele>290.600006104</ele>
        <time>2015-07-06T09:22:52.02Z</time>
      </trkpt>
      <trkpt lat="45.99579" lon="4.89235">
        <ele>290.799987793</ele>
        <time>2015-07-06T09:22:53.002Z</time>
      </trkpt>
      <trkpt lat="45.99579" lon="4.89242">
        <ele>291.100006104</ele>
        <time>2015-07-06T09:22:54.004Z</time>
      </trkpt>
      <trkpt lat="45.99579" lon="4.8925">
        <ele>291.100006104</ele>
        <time>2015-07-06T09:22:55.01Z</time>
      </trkpt>
      <trkpt lat="45.9958" lon="4.89257">
        <ele>291</ele>
        <time>2015-07-06T09:22:56.003Z</time>
      </trkpt>
      <trkpt lat="45.9958" lon="4.89265">
        <ele>290.899993896</ele>
        <time>2015-07-06T09:22:57.001Z</time>
      </trkpt>
      <trkpt lat="45.9958" lon="4.89273">
        <ele>291.100006104</ele>
        <time>2015-07-06T09:22:58.002Z</time>
      </trkpt>
      <trkpt lat="45.99581" lon="4.89281">
        <ele>291</ele>
        <time>2015-07-06T09:22:59.002Z</time>
      </trkpt>
      <trkpt lat="45.99581" lon="4.89289">
        <ele>290.899993896</ele>
        <time>2015-07-06T09:23:00.026Z</time>
      </trkpt>
      <trkpt lat="45.99582" lon="4.89296">
        <ele>290.899993896</ele>
        <time>2015-07-06T09:23:01.002Z</time>
      </trkpt>
      <trkpt lat="45.99582" lon="4.89303">
        <ele>290.600006104</ele>
        <time>2015-07-06T09:23:02.003Z</time>
      </trkpt>
      <trkpt lat="45.99583" lon="4.8931">
        <ele>290.600006104</ele>
        <time>2015-07-06T09:23:03.01Z</time>
      </trkpt>
      <trkpt lat="45.99583" lon="4.89317">
        <ele>290.5</ele>
        <time>2015-07-06T09:23:04.019Z</time>
      </trkpt>
      <trkpt lat="45.99583" lon="4.89324">
        <ele>290.899993896</ele>
        <time>2015-07-06T09:23:05.001Z</time>
      </trkpt>
      <trkpt lat="45.99583" lon="4.89336">
        <ele>291</ele>
        <time>2015-07-06T09:23:07.002Z</time>
      </trkpt>
      <trkpt lat="45.99584" lon="4.89342">
        <ele>291.100006104</ele>
        <time>2015-07-06T09:23:08.003Z</time>
      </trkpt>
      <trkpt lat="45.99585" lon="4.89352">
        <ele>291.600006104</ele>
        <time>2015-07-06T09:23:10.005Z</time>
      </trkpt>
      <trkpt lat="45.99585" lon="4.89358">
        <ele>291.700012207</ele>
        <time>2015-07-06T09:23:11.002Z</time>
      </trkpt>
      <trkpt lat="45.99586" lon="4.8937">
        <ele>291.100006104</ele>
        <time>2015-07-06T09:23:13.004Z</time>
      </trkpt>
      <trkpt lat="45.99587" lon="4.89376">
        <ele>291</ele>
        <time>2015-07-06T09:23:14.003Z</time>
      </trkpt>
      <trkpt lat="45.99587" lon="4.89383">
        <ele>290.899993896</ele>
        <time>2015-07-06T09:23:15.002Z</time>
      </trkpt>
      <trkpt lat="45.99588" lon="4.8939">
        <ele>291</ele>
        <time>2015-07-06T09:23:16.004Z</time>
      </trkpt>
      <trkpt lat="45.99588" lon="4.89397">
        <ele>291</ele>
        <time>2015-07-06T09:23:17.002Z</time>
      </trkpt>
      <trkpt lat="45.99588" lon="4.89404">
        <ele>290.899993896</ele>
        <time>2015-07-06T09:23:18.003Z</time>
      </trkpt>
      <trkpt lat="45.9959" lon="4.89411">
        <ele>290</ele>
        <time>2015-07-06T09:23:19.007Z</time>
      </trkpt>
      <trkpt lat="45.99589" lon="4.89418">
        <ele>290.399993896</ele>
        <time>2015-07-06T09:23:20.003Z</time>
      </trkpt>
      <trkpt lat="45.9959" lon="4.89426">
        <ele>290.399993896</ele>
        <time>2015-07-06T09:23:21.004Z</time>
      </trkpt>
      <trkpt lat="45.99591" lon="4.89434">
        <ele>290</ele>
        <time>2015-07-06T09:23:22.004Z</time>
      </trkpt>
      <trkpt lat="45.99591" lon="4.89441">
        <ele>289.700012207</ele>
        <time>2015-07-06T09:23:23.001Z</time>
      </trkpt>
      <trkpt lat="45.99592" lon="4.89448">
        <ele>289.200012207</ele>
        <time>2015-07-06T09:23:24.004Z</time>
      </trkpt>
      <trkpt lat="45.99592" lon="4.89456">
        <ele>289.200012207</ele>
        <time>2015-07-06T09:23:25.018Z</time>
      </trkpt>
      <trkpt lat="45.99593" lon="4.89463">
        <ele>289.100006104</ele>
        <time>2015-07-06T09:23:26.002Z</time>
      </trkpt>
      <trkpt lat="45.99594" lon="4.89471">
        <ele>288.899993896</ele>
        <time>2015-07-06T09:23:27.042Z</time>
      </trkpt>
      <trkpt lat="45.99594" lon="4.89478">
        <ele>288.799987793</ele>
        <time>2015-07-06T09:23:28.001Z</time>
      </trkpt>
      <trkpt lat="45.99595" lon="4.89485">
        <ele>288.299987793</ele>
        <time>2015-07-06T09:23:29.001Z</time>
      </trkpt>
      <trkpt lat="45.99596" lon="4.89492">
        <ele>288</ele>
        <time>2015-07-06T09:23:30.004Z</time>
      </trkpt>
      <trkpt lat="45.99596" lon="4.89499">
        <ele>287.799987793</ele>
        <time>2015-07-06T09:23:31.002Z</time>
      </trkpt>
      <trkpt lat="45.99596" lon="4.89507">
        <ele>287.600006104</ele>
        <time>2015-07-06T09:23:32.003Z</time>
      </trkpt>
      <trkpt lat="45.99597" lon="4.89514">
        <ele>287.5</ele>
        <time>2015-07-06T09:23:33.003Z</time>
      </trkpt>
      <trkpt lat="45.99597" lon="4.89522">
        <ele>287.100006104</ele>
        <time>2015-07-06T09:23:34.004Z</time>
      </trkpt>
      <trkpt lat="45.99596" lon="4.8953">
        <ele>286.799987793</ele>
        <time>2015-07-06T09:23:35.001Z</time>
      </trkpt>
      <trkpt lat="45.99596" lon="4.89538">
        <ele>286.899993896</ele>
        <time>2015-07-06T09:23:36.012Z</time>
      </trkpt>
      <trkpt lat="45.99597" lon="4.89545">
        <ele>286.700012207</ele>
        <time>2015-07-06T09:23:37.001Z</time>
      </trkpt>
      <trkpt lat="45.99597" lon="4.89553">
        <ele>286.700012207</ele>
        <time>2015-07-06T09:23:38.002Z</time>
      </trkpt>
      <trkpt lat="45.99598" lon="4.89561">
        <ele>286.5</ele>
        <time>2015-07-06T09:23:39.004Z</time>
      </trkpt>
      <trkpt lat="45.99598" lon="4.89569">
        <ele>286.700012207</ele>
        <time>2015-07-06T09:23:40.001Z</time>
      </trkpt>
      <trkpt lat="45.99599" lon="4.89577">
        <ele>286.700012207</ele>
        <time>2015-07-06T09:23:41.019Z</time>
      </trkpt>
      <trkpt lat="45.99599" lon="4.89585">
        <ele>286.700012207</ele>
        <time>2015-07-06T09:23:42.004Z</time>
      </trkpt>
      <trkpt lat="45.996" lon="4.89592">
        <ele>286.600006104</ele>
        <time>2015-07-06T09:23:43.002Z</time>
      </trkpt>
      <trkpt lat="45.996" lon="4.896">
        <ele>286.5</ele>
        <time>2015-07-06T09:23:44.006Z</time>
      </trkpt>
      <trkpt lat="45.996" lon="4.89607">
        <ele>286.399993896</ele>
        <time>2015-07-06T09:23:45.027Z</time>
      </trkpt>
      <trkpt lat="45.99601" lon="4.89614">
        <ele>286.299987793</ele>
        <time>2015-07-06T09:23:46.002Z</time>
      </trkpt>
      <trkpt lat="45.99601" lon="4.89626">
        <ele>286.299987793</ele>
        <time>2015-07-06T09:23:48.004Z</time>
      </trkpt>
      <trkpt lat="45.99602" lon="4.89632">
        <ele>286.5</ele>
        <time>2015-07-06T09:23:49.004Z</time>
      </trkpt>
      <trkpt lat="45.99601" lon="4.89643">
        <ele>287.299987793</ele>
        <time>2015-07-06T09:23:51.004Z</time>
      </trkpt>
      <trkpt lat="45.99602" lon="4.89649">
        <ele>287.600006104</ele>
        <time>2015-07-06T09:23:52.002Z</time>
      </trkpt>
      <trkpt lat="45.99602" lon="4.89656">
        <ele>287.600006104</ele>
        <time>2015-07-06T09:23:53.043Z</time>
      </trkpt>
      <trkpt lat="45.99602" lon="4.89663">
        <ele>287.700012207</ele>
        <time>2015-07-06T09:23:54.004Z</time>
      </trkpt>
      <trkpt lat="45.99602" lon="4.89669">
        <ele>287.700012207</ele>
        <time>2015-07-06T09:23:55.002Z</time>
      </trkpt>
      <trkpt lat="45.99602" lon="4.89676">
        <ele>287.899993896</ele>
        <time>2015-07-06T09:23:56.002Z</time>
      </trkpt>
      <trkpt lat="45.99602" lon="4.89684">
        <ele>287.899993896</ele>
        <time>2015-07-06T09:23:57.004Z</time>
      </trkpt>
      <trkpt lat="45.99602" lon="4.89692">
        <ele>288.200012207</ele>
        <time>2015-07-06T09:23:58.004Z</time>
      </trkpt>
      <trkpt lat="45.99602" lon="4.89699">
        <ele>288.399993896</ele>
        <time>2015-07-06T09:23:59.004Z</time>
      </trkpt>
      <trkpt lat="45.99602" lon="4.89707">
        <ele>288.299987793</ele>
        <time>2015-07-06T09:24:00.02Z</time>
      </trkpt>
      <trkpt lat="45.99602" lon="4.89715">
        <ele>288.5</ele>
        <time>2015-07-06T09:24:01.002Z</time>
      </trkpt>
      <trkpt lat="45.99602" lon="4.89722">
        <ele>288.700012207</ele>
        <time>2015-07-06T09:24:02.024Z</time>
      </trkpt>
      <trkpt lat="45.99602" lon="4.8973">
        <ele>288.899993896</ele>
        <time>2015-07-06T09:24:03.002Z</time>
      </trkpt>
      <trkpt lat="45.99603" lon="4.89738">
        <ele>289.399993896</ele>
        <time>2015-07-06T09:24:04.004Z</time>
      </trkpt>
      <trkpt lat="45.99603" lon="4.89745">
        <ele>289.399993896</ele>
        <time>2015-07-06T09:24:05.037Z</time>
      </trkpt>
      <trkpt lat="45.99602" lon="4.89753">
        <ele>289.5</ele>
        <time>2015-07-06T09:24:06.005Z</time>
      </trkpt>
      <trkpt lat="45.99602" lon="4.8976">
        <ele>289.5</ele>
        <time>2015-07-06T09:24:07.004Z</time>
      </trkpt>
      <trkpt lat="45.99602" lon="4.89768">
        <ele>289.5</ele>
        <time>2015-07-06T09:24:08.002Z</time>
      </trkpt>
      <trkpt lat="45.99602" lon="4.89776">
        <ele>289.399993896</ele>
        <time>2015-07-06T09:24:09.002Z</time>
      </trkpt>
      <trkpt lat="45.99603" lon="4.89784">
        <ele>289.399993896</ele>
        <time>2015-07-06T09:24:10.004Z</time>
      </trkpt>
      <trkpt lat="45.99602" lon="4.89791">
        <ele>289.600006104</ele>
        <time>2015-07-06T09:24:11.004Z</time>
      </trkpt>
      <trkpt lat="45.99602" lon="4.89799">
        <ele>289.600006104</ele>
        <time>2015-07-06T09:24:12.005Z</time>
      </trkpt>
      <trkpt lat="45.99602" lon="4.89808">
        <ele>289.5</ele>
        <time>2015-07-06T09:24:13.004Z</time>
      </trkpt>
      <trkpt lat="45.99602" lon="4.89815">
        <ele>289.399993896</ele>
        <time>2015-07-06T09:24:14.003Z</time>
      </trkpt>
      <trkpt lat="45.99602" lon="4.89822">
        <ele>289.600006104</ele>
        <time>2015-07-06T09:24:15.005Z</time>
      </trkpt>
      <trkpt lat="45.99602" lon="4.89829">
        <ele>289.799987793</ele>
        <time>2015-07-06T09:24:16.003Z</time>
      </trkpt>
      <trkpt lat="45.99602" lon="4.89841">
        <ele>290.200012207</ele>
        <time>2015-07-06T09:24:18.007Z</time>
      </trkpt>
      <trkpt lat="45.99602" lon="4.89847">
        <ele>290.299987793</ele>
        <time>2015-07-06T09:24:19.021Z</time>
      </trkpt>
      <trkpt lat="45.996" lon="4.89852">
        <ele>290.600006104</ele>
        <time>2015-07-06T09:24:20.006Z</time>
      </trkpt>
      <trkpt lat="45.99598" lon="4.8986">
        <ele>290.799987793</ele>
        <time>2015-07-06T09:24:21.001Z</time>
      </trkpt>
      <trkpt lat="45.99597" lon="4.89868">
        <ele>291</ele>
        <time>2015-07-06T09:24:22.004Z</time>
      </trkpt>
      <trkpt lat="45.99597" lon="4.89877">
        <ele>291.299987793</ele>
        <time>2015-07-06T09:24:23.019Z</time>
      </trkpt>
      <trkpt lat="45.99598" lon="4.89885">
        <ele>291.399993896</ele>
        <time>2015-07-06T09:24:24.007Z</time>
      </trkpt>
      <trkpt lat="45.99598" lon="4.89892">
        <ele>291.600006104</ele>
        <time>2015-07-06T09:24:25.002Z</time>
      </trkpt>
      <trkpt lat="45.99598" lon="4.899">
        <ele>292</ele>
        <time>2015-07-06T09:24:26.003Z</time>
      </trkpt>
      <trkpt lat="45.99598" lon="4.89907">
        <ele>292.5</ele>
        <time>2015-07-06T09:24:27.001Z</time>
      </trkpt>
      <trkpt lat="45.99599" lon="4.89915">
        <ele>292.799987793</ele>
        <time>2015-07-06T09:24:28.005Z</time>
      </trkpt>
      <trkpt lat="45.99599" lon="4.89923">
        <ele>293.100006104</ele>
        <time>2015-07-06T09:24:29.002Z</time>
      </trkpt>
      <trkpt lat="45.99599" lon="4.89931">
        <ele>293.100006104</ele>
        <time>2015-07-06T09:24:30.005Z</time>
      </trkpt>
      <trkpt lat="45.99599" lon="4.89938">
        <ele>293.299987793</ele>
        <time>2015-07-06T09:24:31.001Z</time>
      </trkpt>
      <trkpt lat="45.996" lon="4.89946">
        <ele>293.5</ele>
        <time>2015-07-06T09:24:32.006Z</time>
      </trkpt>
      <trkpt lat="45.996" lon="4.89955">
        <ele>293.600006104</ele>
        <time>2015-07-06T09:24:33.004Z</time>
      </trkpt>
      <trkpt lat="45.99601" lon="4.89963">
        <ele>293.600006104</ele>
        <time>2015-07-06T09:24:34.004Z</time>
      </trkpt>
      <trkpt lat="45.99601" lon="4.8997">
        <ele>293.700012207</ele>
        <time>2015-07-06T09:24:35.004Z</time>
      </trkpt>
      <trkpt lat="45.996" lon="4.89978">
        <ele>294</ele>
        <time>2015-07-06T09:24:36.009Z</time>
      </trkpt>
      <trkpt lat="45.99601" lon="4.89985">
        <ele>294.399993896</ele>
        <time>2015-07-06T09:24:37.004Z</time>
      </trkpt>
      <trkpt lat="45.99603" lon="4.89992">
        <ele>294.399993896</ele>
        <time>2015-07-06T09:24:38.003Z</time>
      </trkpt>
      <trkpt lat="45.99605" lon="4.9">
        <ele>294.5</ele>
        <time>2015-07-06T09:24:39.004Z</time>
      </trkpt>
      <trkpt lat="45.99606" lon="4.90007">
        <ele>294.600006104</ele>
        <time>2015-07-06T09:24:40.001Z</time>
      </trkpt>
      <trkpt lat="45.99608" lon="4.90014">
        <ele>294.799987793</ele>
        <time>2015-07-06T09:24:41.002Z</time>
      </trkpt>
      <trkpt lat="45.9961" lon="4.9002">
        <ele>295.100006104</ele>
        <time>2015-07-06T09:24:42.005Z</time>
      </trkpt>
      <trkpt lat="45.99612" lon="4.90027">
        <ele>295.299987793</ele>
        <time>2015-07-06T09:24:43.003Z</time>
      </trkpt>
      <trkpt lat="45.99614" lon="4.90034">
        <ele>295.5</ele>
        <time>2015-07-06T09:24:44.019Z</time>
      </trkpt>
      <trkpt lat="45.99617" lon="4.9004">
        <ele>295.600006104</ele>
        <time>2015-07-06T09:24:45.003Z</time>
      </trkpt>
      <trkpt lat="45.99619" lon="4.90046">
        <ele>295.899993896</ele>
        <time>2015-07-06T09:24:46.002Z</time>
      </trkpt>
      <trkpt lat="45.99621" lon="4.90052">
        <ele>296.100006104</ele>
        <time>2015-07-06T09:24:47.005Z</time>
      </trkpt>
      <trkpt lat="45.99626" lon="4.90062">
        <ele>296.899993896</ele>
        <time>2015-07-06T09:24:49.004Z</time>
      </trkpt>
      <trkpt lat="45.99629" lon="4.90065">
        <ele>297.100006104</ele>
        <time>2015-07-06T09:24:50.007Z</time>
      </trkpt>
      <trkpt lat="45.99631" lon="4.9007">
        <ele>297.600006104</ele>
        <time>2015-07-06T09:24:51.003Z</time>
      </trkpt>
      <trkpt lat="45.99633" lon="4.90077">
        <ele>298</ele>
        <time>2015-07-06T09:24:52.003Z</time>
      </trkpt>
      <trkpt lat="45.99635" lon="4.90083">
        <ele>298.399993896</ele>
        <time>2015-07-06T09:24:53.001Z</time>
      </trkpt>
      <trkpt lat="45.99637" lon="4.90089">
        <ele>298.899993896</ele>
        <time>2015-07-06T09:24:54.048Z</time>
      </trkpt>
      <trkpt lat="45.99639" lon="4.901">
        <ele>299.600006104</ele>
        <time>2015-07-06T09:24:56.005Z</time>
      </trkpt>
      <trkpt lat="45.99641" lon="4.90106">
        <ele>299.899993896</ele>
        <time>2015-07-06T09:24:57.006Z</time>
      </trkpt>
      <trkpt lat="45.99645" lon="4.90117">
        <ele>300.600006104</ele>
        <time>2015-07-06T09:24:59.004Z</time>
      </trkpt>
      <trkpt lat="45.99647" lon="4.90123">
        <ele>301.100006104</ele>
        <time>2015-07-06T09:25:00.027Z</time>
      </trkpt>
      <trkpt lat="45.9965" lon="4.90133">
        <ele>301.600006104</ele>
        <time>2015-07-06T09:25:02.006Z</time>
      </trkpt>
      <trkpt lat="45.99651" lon="4.90138">
        <ele>302</ele>
        <time>2015-07-06T09:25:03.001Z</time>
      </trkpt>
      <trkpt lat="45.99652" lon="4.90147">
        <ele>302.600006104</ele>
        <time>2015-07-06T09:25:05.021Z</time>
      </trkpt>
      <trkpt lat="45.99652" lon="4.90152">
        <ele>303.299987793</ele>
        <time>2015-07-06T09:25:06.005Z</time>
      </trkpt>
      <trkpt lat="45.99654" lon="4.9016">
        <ele>304.200012207</ele>
        <time>2015-07-06T09:25:08.006Z</time>
      </trkpt>
      <trkpt lat="45.99656" lon="4.90164">
        <ele>304.600006104</ele>
        <time>2015-07-06T09:25:09.004Z</time>
      </trkpt>
      <trkpt lat="45.99659" lon="4.90173">
        <ele>305.200012207</ele>
        <time>2015-07-06T09:25:11.004Z</time>
      </trkpt>
      <trkpt lat="45.99661" lon="4.90177">
        <ele>305.100006104</ele>
        <time>2015-07-06T09:25:12.005Z</time>
      </trkpt>
      <trkpt lat="45.99663" lon="4.90187">
        <ele>304.799987793</ele>
        <time>2015-07-06T09:25:14.003Z</time>
      </trkpt>
      <trkpt lat="45.99663" lon="4.90191">
        <ele>304.899993896</ele>
        <time>2015-07-06T09:25:15.001Z</time>
      </trkpt>
      <trkpt lat="45.99664" lon="4.902">
        <ele>305.399993896</ele>
        <time>2015-07-06T09:25:17.004Z</time>
      </trkpt>
      <trkpt lat="45.99665" lon="4.90204">
        <ele>305.600006104</ele>
        <time>2015-07-06T09:25:18.004Z</time>
      </trkpt>
      <trkpt lat="45.99668" lon="4.90213">
        <ele>305.600006104</ele>
        <time>2015-07-06T09:25:20.049Z</time>
      </trkpt>
      <trkpt lat="45.9967" lon="4.90217">
        <ele>305.700012207</ele>
        <time>2015-07-06T09:25:21.002Z</time>
      </trkpt>
      <trkpt lat="45.99671" lon="4.90227">
        <ele>306.399993896</ele>
        <time>2015-07-06T09:25:23.002Z</time>
      </trkpt>
      <trkpt lat="45.99672" lon="4.90231">
        <ele>306.600006104</ele>
        <time>2015-07-06T09:25:24.005Z</time>
      </trkpt>
      <trkpt lat="45.99674" lon="4.9024">
        <ele>307.100006104</ele>
        <time>2015-07-06T09:25:26.019Z</time>
      </trkpt>
      <trkpt lat="45.99674" lon="4.90245">
        <ele>307.200012207</ele>
        <time>2015-07-06T09:25:27.004Z</time>
      </trkpt>
      <trkpt lat="45.99675" lon="4.90255">
        <ele>307.5</ele>
        <time>2015-07-06T09:25:29.002Z</time>
      </trkpt>
      <trkpt lat="45.99675" lon="4.90259">
        <ele>307.799987793</ele>
        <time>2015-07-06T09:25:30.009Z</time>
      </trkpt>
      <trkpt lat="45.99674" lon="4.90269">
        <ele>308.100006104</ele>
        <time>2015-07-06T09:25:32.022Z</time>
      </trkpt>
      <trkpt lat="45.99673" lon="4.90274">
        <ele>308.200012207</ele>
        <time>2015-07-06T09:25:33.006Z</time>
      </trkpt>
      <trkpt lat="45.99673" lon="4.90285">
        <ele>308.100006104</ele>
        <time>2015-07-06T09:25:35.002Z</time>
      </trkpt>
      <trkpt lat="45.99672" lon="4.9029">
        <ele>307.700012207</ele>
        <time>2015-07-06T09:25:36.009Z</time>
      </trkpt>
      <trkpt lat="45.99668" lon="4.90298">
        <ele>307.5</ele>
        <time>2015-07-06T09:25:38.005Z</time>
      </trkpt>
      <trkpt lat="45.99668" lon="4.90304">
        <ele>307.299987793</ele>
        <time>2015-07-06T09:25:39.004Z</time>
      </trkpt>
      <trkpt lat="45.9967" lon="4.90316">
        <ele>307.100006104</ele>
        <time>2015-07-06T09:25:41.997Z</time>
      </trkpt>
      <trkpt lat="45.99671" lon="4.90319">
        <ele>307.299987793</ele>
        <time>2015-07-06T09:25:43.002Z</time>
      </trkpt>
      <trkpt lat="45.99675" lon="4.90329">
        <ele>307.899993896</ele>
        <time>2015-07-06T09:25:47.019Z</time>
      </trkpt>
      <trkpt lat="45.99676" lon="4.9033">
        <ele>308.200012207</ele>
        <time>2015-07-06T09:25:48.004Z</time>
      </trkpt>
      <trkpt lat="45.99683" lon="4.90335">
        <ele>308.799987793</ele>
        <time>2015-07-06T09:25:51.004Z</time>
      </trkpt>
      <trkpt lat="45.99686" lon="4.90336">
        <ele>309</ele>
        <time>2015-07-06T09:25:52.007Z</time>
      </trkpt>
      <trkpt lat="45.99689" lon="4.90348">
        <ele>310.100006104</ele>
        <time>2015-07-06T09:25:55.004Z</time>
      </trkpt>
      <trkpt lat="45.99686" lon="4.90355">
        <ele>310.5</ele>
        <time>2015-07-06T09:25:56.005Z</time>
      </trkpt>
      <trkpt lat="45.99684" lon="4.9036">
        <ele>310.799987793</ele>
        <time>2015-07-06T09:25:57.003Z</time>
      </trkpt>
      <trkpt lat="45.99678" lon="4.90366">
        <ele>310.899993896</ele>
        <time>2015-07-06T09:25:58.004Z</time>
      </trkpt>
      <trkpt lat="45.99677" lon="4.90375">
        <ele>311.100006104</ele>
        <time>2015-07-06T09:25:59.002Z</time>
      </trkpt>
      <trkpt lat="45.99676" lon="4.90384">
        <ele>311.399993896</ele>
        <time>2015-07-06T09:26:00.028Z</time>
      </trkpt>
      <trkpt lat="45.99675" lon="4.90391">
        <ele>311.700012207</ele>
        <time>2015-07-06T09:26:01.003Z</time>
      </trkpt>
      <trkpt lat="45.9967" lon="4.90399">
        <ele>311.799987793</ele>
        <time>2015-07-06T09:26:02.007Z</time>
      </trkpt>
      <trkpt lat="45.99668" lon="4.90408">
        <ele>311.899993896</ele>
        <time>2015-07-06T09:26:03.004Z</time>
      </trkpt>
      <trkpt lat="45.99666" lon="4.90417">
        <ele>311.899993896</ele>
        <time>2015-07-06T09:26:04.001Z</time>
      </trkpt>
      <trkpt lat="45.99664" lon="4.90425">
        <ele>311.799987793</ele>
        <time>2015-07-06T09:26:05.004Z</time>
      </trkpt>
      <trkpt lat="45.99662" lon="4.90431">
        <ele>311.600006104</ele>
        <time>2015-07-06T09:26:06.002Z</time>
      </trkpt>
      <trkpt lat="45.99658" lon="4.90439">
        <ele>311.700012207</ele>
        <time>2015-07-06T09:26:08.018Z</time>
      </trkpt>
      <trkpt lat="45.99655" lon="4.90442">
        <ele>311.600006104</ele>
        <time>2015-07-06T09:26:09.002Z</time>
      </trkpt>
      <trkpt lat="45.99651" lon="4.90445">
        <ele>311.299987793</ele>
        <time>2015-07-06T09:26:10.002Z</time>
      </trkpt>
      <trkpt lat="45.99646" lon="4.90448">
        <ele>311.100006104</ele>
        <time>2015-07-06T09:26:11.002Z</time>
      </trkpt>
      <trkpt lat="45.99641" lon="4.9045">
        <ele>310.799987793</ele>
        <time>2015-07-06T09:26:12.004Z</time>
      </trkpt>
      <trkpt lat="45.99637" lon="4.90451">
        <ele>310.600006104</ele>
        <time>2015-07-06T09:26:13.001Z</time>
      </trkpt>
      <trkpt lat="45.99628" lon="4.90453">
        <ele>310.200012207</ele>
        <time>2015-07-06T09:26:15.003Z</time>
      </trkpt>
      <trkpt lat="45.99623" lon="4.90452">
        <ele>309.799987793</ele>
        <time>2015-07-06T09:26:16.003Z</time>
      </trkpt>
      <trkpt lat="45.99615" lon="4.90453">
        <ele>308.899993896</ele>
        <time>2015-07-06T09:26:18.008Z</time>
      </trkpt>
      <trkpt lat="45.99611" lon="4.90454">
        <ele>308.299987793</ele>
        <time>2015-07-06T09:26:19.005Z</time>
      </trkpt>
      <trkpt lat="45.99605" lon="4.90454">
        <ele>308</ele>
        <time>2015-07-06T09:26:20.002Z</time>
      </trkpt>
      <trkpt lat="45.99599" lon="4.90454">
        <ele>307</ele>
        <time>2015-07-06T09:26:21.004Z</time>
      </trkpt>
      <trkpt lat="45.99594" lon="4.90455">
        <ele>306.799987793</ele>
        <time>2015-07-06T09:26:22.007Z</time>
      </trkpt>
      <trkpt lat="45.9959" lon="4.90456">
        <ele>306.700012207</ele>
        <time>2015-07-06T09:26:23.005Z</time>
      </trkpt>
      <trkpt lat="45.99583" lon="4.90458">
        <ele>306.5</ele>
        <time>2015-07-06T09:26:24.005Z</time>
      </trkpt>
      <trkpt lat="45.99578" lon="4.90462">
        <ele>306.5</ele>
        <time>2015-07-06T09:26:25.026Z</time>
      </trkpt>
      <trkpt lat="45.99572" lon="4.90468">
        <ele>306.399993896</ele>
        <time>2015-07-06T09:26:26.007Z</time>
      </trkpt>
      <trkpt lat="45.99566" lon="4.90472">
        <ele>306.100006104</ele>
        <time>2015-07-06T09:26:27.001Z</time>
      </trkpt>
      <trkpt lat="45.99562" lon="4.90476">
        <ele>306.200012207</ele>
        <time>2015-07-06T09:26:28.045Z</time>
      </trkpt>
      <trkpt lat="45.99558" lon="4.90481">
        <ele>306.299987793</ele>
        <time>2015-07-06T09:26:29.002Z</time>
      </trkpt>
      <trkpt lat="45.99554" lon="4.90487">
        <ele>306.200012207</ele>
        <time>2015-07-06T09:26:30.005Z</time>
      </trkpt>
      <trkpt lat="45.9955" lon="4.90492">
        <ele>306</ele>
        <time>2015-07-06T09:26:31.004Z</time>
      </trkpt>
      <trkpt lat="45.99546" lon="4.90496">
        <ele>305.700012207</ele>
        <time>2015-07-06T09:26:32.007Z</time>
      </trkpt>
      <trkpt lat="45.99542" lon="4.90501">
        <ele>305.600006104</ele>
        <time>2015-07-06T09:26:33.001Z</time>
      </trkpt>
      <trkpt lat="45.99539" lon="4.90507">
        <ele>305.299987793</ele>
        <time>2015-07-06T09:26:34.02Z</time>
      </trkpt>
      <trkpt lat="45.99535" lon="4.90512">
        <ele>305.299987793</ele>
        <time>2015-07-06T09:26:35.001Z</time>
      </trkpt>
      <trkpt lat="45.99532" lon="4.90518">
        <ele>304.899993896</ele>
        <time>2015-07-06T09:26:36.006Z</time>
      </trkpt>
      <trkpt lat="45.99528" lon="4.90523">
        <ele>304.799987793</ele>
        <time>2015-07-06T09:26:37Z</time>
      </trkpt>
      <trkpt lat="45.99521" lon="4.90529">
        <ele>305</ele>
        <time>2015-07-06T09:26:39.004Z</time>
      </trkpt>
      <trkpt lat="45.99517" lon="4.90534">
        <ele>304.899993896</ele>
        <time>2015-07-06T09:26:40.004Z</time>
      </trkpt>
      <trkpt lat="45.99512" lon="4.90539">
        <ele>304.700012207</ele>
        <time>2015-07-06T09:26:41.034Z</time>
      </trkpt>
      <trkpt lat="45.99507" lon="4.90544">
        <ele>304.5</ele>
        <time>2015-07-06T09:26:42.006Z</time>
      </trkpt>
      <trkpt lat="45.99503" lon="4.90549">
        <ele>304.399993896</ele>
        <time>2015-07-06T09:26:43.001Z</time>
      </trkpt>
      <trkpt lat="45.99499" lon="4.90554">
        <ele>304.600006104</ele>
        <time>2015-07-06T09:26:44.002Z</time>
      </trkpt>
      <trkpt lat="45.99495" lon="4.90559">
        <ele>304.5</ele>
        <time>2015-07-06T09:26:45.002Z</time>
      </trkpt>
      <trkpt lat="45.99491" lon="4.90564">
        <ele>304.5</ele>
        <time>2015-07-06T09:26:46.002Z</time>
      </trkpt>
      <trkpt lat="45.99487" lon="4.9057">
        <ele>304.5</ele>
        <time>2015-07-06T09:26:47.001Z</time>
      </trkpt>
      <trkpt lat="45.99482" lon="4.90574">
        <ele>304.5</ele>
        <time>2015-07-06T09:26:48.011Z</time>
      </trkpt>
      <trkpt lat="45.99478" lon="4.90578">
        <ele>304.600006104</ele>
        <time>2015-07-06T09:26:49.004Z</time>
      </trkpt>
      <trkpt lat="45.99474" lon="4.90582">
        <ele>304.600006104</ele>
        <time>2015-07-06T09:26:50.006Z</time>
      </trkpt>
      <trkpt lat="45.9947" lon="4.90588">
        <ele>304.399993896</ele>
        <time>2015-07-06T09:26:51.003Z</time>
      </trkpt>
      <trkpt lat="45.99466" lon="4.90593">
        <ele>304.100006104</ele>
        <time>2015-07-06T09:26:52.004Z</time>
      </trkpt>
      <trkpt lat="45.99463" lon="4.90598">
        <ele>304.200012207</ele>
        <time>2015-07-06T09:26:53.004Z</time>
      </trkpt>
      <trkpt lat="45.99459" lon="4.90602">
        <ele>304.299987793</ele>
        <time>2015-07-06T09:26:54.006Z</time>
      </trkpt>
      <trkpt lat="45.99455" lon="4.90606">
        <ele>303.700012207</ele>
        <time>2015-07-06T09:26:55.018Z</time>
      </trkpt>
      <trkpt lat="45.99449" lon="4.90612">
        <ele>303.399993896</ele>
        <time>2015-07-06T09:26:56.004Z</time>
      </trkpt>
      <trkpt lat="45.99445" lon="4.90617">
        <ele>303.299987793</ele>
        <time>2015-07-06T09:26:57.002Z</time>
      </trkpt>
      <trkpt lat="45.99441" lon="4.90622">
        <ele>303.200012207</ele>
        <time>2015-07-06T09:26:58.001Z</time>
      </trkpt>
      <trkpt lat="45.99437" lon="4.90628">
        <ele>303</ele>
        <time>2015-07-06T09:26:59.001Z</time>
      </trkpt>
      <trkpt lat="45.99432" lon="4.90633">
        <ele>302.600006104</ele>
        <time>2015-07-06T09:27:00.028Z</time>
      </trkpt>
      <trkpt lat="45.99428" lon="4.90639">
        <ele>302.5</ele>
        <time>2015-07-06T09:27:01.062Z</time>
      </trkpt>
      <trkpt lat="45.99424" lon="4.90645">
        <ele>302.399993896</ele>
        <time>2015-07-06T09:27:02.003Z</time>
      </trkpt>
      <trkpt lat="45.9942" lon="4.9065">
        <ele>302.200012207</ele>
        <time>2015-07-06T09:27:03.002Z</time>
      </trkpt>
      <trkpt lat="45.99415" lon="4.90656">
        <ele>302</ele>
        <time>2015-07-06T09:27:04.001Z</time>
      </trkpt>
      <trkpt lat="45.99411" lon="4.90662">
        <ele>301.899993896</ele>
        <time>2015-07-06T09:27:05.002Z</time>
      </trkpt>
      <trkpt lat="45.99406" lon="4.90668">
        <ele>301.5</ele>
        <time>2015-07-06T09:27:06.005Z</time>
      </trkpt>
      <trkpt lat="45.99401" lon="4.90675">
        <ele>301.100006104</ele>
        <time>2015-07-06T09:27:07.002Z</time>
      </trkpt>
      <trkpt lat="45.99396" lon="4.90681">
        <ele>301.100006104</ele>
        <time>2015-07-06T09:27:08.002Z</time>
      </trkpt>
      <trkpt lat="45.99391" lon="4.90688">
        <ele>300.899993896</ele>
        <time>2015-07-06T09:27:09.003Z</time>
      </trkpt>
      <trkpt lat="45.99386" lon="4.90694">
        <ele>300.799987793</ele>
        <time>2015-07-06T09:27:10.005Z</time>
      </trkpt>
      <trkpt lat="45.99381" lon="4.907">
        <ele>300.799987793</ele>
        <time>2015-07-06T09:27:11.019Z</time>
      </trkpt>
      <trkpt lat="45.99376" lon="4.90707">
        <ele>300.5</ele>
        <time>2015-07-06T09:27:12.009Z</time>
      </trkpt>
      <trkpt lat="45.99371" lon="4.90713">
        <ele>299.700012207</ele>
        <time>2015-07-06T09:27:13.004Z</time>
      </trkpt>
      <trkpt lat="45.99366" lon="4.90719">
        <ele>299.399993896</ele>
        <time>2015-07-06T09:27:14.005Z</time>
      </trkpt>
      <trkpt lat="45.99361" lon="4.90725">
        <ele>299.399993896</ele>
        <time>2015-07-06T09:27:15.001Z</time>
      </trkpt>
      <trkpt lat="45.99356" lon="4.90731">
        <ele>299.600006104</ele>
        <time>2015-07-06T09:27:16.002Z</time>
      </trkpt>
      <trkpt lat="45.99351" lon="4.90736">
        <ele>299.200012207</ele>
        <time>2015-07-06T09:27:17.003Z</time>
      </trkpt>
      <trkpt lat="45.99347" lon="4.90742">
        <ele>299.299987793</ele>
        <time>2015-07-06T09:27:18.008Z</time>
      </trkpt>
      <trkpt lat="45.99342" lon="4.90748">
        <ele>299.5</ele>
        <time>2015-07-06T09:27:19.003Z</time>
      </trkpt>
      <trkpt lat="45.99337" lon="4.90754">
        <ele>299.299987793</ele>
        <time>2015-07-06T09:27:20.006Z</time>
      </trkpt>
      <trkpt lat="45.99332" lon="4.9076">
        <ele>299.399993896</ele>
        <time>2015-07-06T09:27:21.003Z</time>
      </trkpt>
      <trkpt lat="45.99327" lon="4.90765">
        <ele>299.299987793</ele>
        <time>2015-07-06T09:27:22.004Z</time>
      </trkpt>
      <trkpt lat="45.99322" lon="4.90771">
        <ele>299.399993896</ele>
        <time>2015-07-06T09:27:22.999Z</time>
      </trkpt>
      <trkpt lat="45.99317" lon="4.90778">
        <ele>299.299987793</ele>
        <time>2015-07-06T09:27:24.008Z</time>
      </trkpt>
      <trkpt lat="45.99313" lon="4.90783">
        <ele>299.100006104</ele>
        <time>2015-07-06T09:27:25.003Z</time>
      </trkpt>
      <trkpt lat="45.99309" lon="4.90788">
        <ele>298.899993896</ele>
        <time>2015-07-06T09:27:26.004Z</time>
      </trkpt>
      <trkpt lat="45.99304" lon="4.90793">
        <ele>298.899993896</ele>
        <time>2015-07-06T09:27:27.018Z</time>
      </trkpt>
      <trkpt lat="45.99299" lon="4.90798">
        <ele>298.799987793</ele>
        <time>2015-07-06T09:27:28.04Z</time>
      </trkpt>
      <trkpt lat="45.99294" lon="4.90803">
        <ele>298.600006104</ele>
        <time>2015-07-06T09:27:29.004Z</time>
      </trkpt>
      <trkpt lat="45.99288" lon="4.90809">
        <ele>298.5</ele>
        <time>2015-07-06T09:27:30.006Z</time>
      </trkpt>
      <trkpt lat="45.99283" lon="4.90814">
        <ele>298.399993896</ele>
        <time>2015-07-06T09:27:31.001Z</time>
      </trkpt>
      <trkpt lat="45.99278" lon="4.9082">
        <ele>298.100006104</ele>
        <time>2015-07-06T09:27:32.005Z</time>
      </trkpt>
      <trkpt lat="45.99273" lon="4.90826">
        <ele>298.100006104</ele>
        <time>2015-07-06T09:27:33.004Z</time>
      </trkpt>
      <trkpt lat="45.99269" lon="4.90832">
        <ele>298</ele>
        <time>2015-07-06T09:27:34.002Z</time>
      </trkpt>
      <trkpt lat="45.99264" lon="4.90838">
        <ele>297.5</ele>
        <time>2015-07-06T09:27:35.002Z</time>
      </trkpt>
      <trkpt lat="45.9926" lon="4.90844">
        <ele>297</ele>
        <time>2015-07-06T09:27:36.008Z</time>
      </trkpt>
      <trkpt lat="45.99256" lon="4.9085">
        <ele>297</ele>
        <time>2015-07-06T09:27:37.004Z</time>
      </trkpt>
      <trkpt lat="45.99251" lon="4.90856">
        <ele>296.899993896</ele>
        <time>2015-07-06T09:27:38.002Z</time>
      </trkpt>
      <trkpt lat="45.99246" lon="4.90862">
        <ele>297</ele>
        <time>2015-07-06T09:27:39.004Z</time>
      </trkpt>
      <trkpt lat="45.99242" lon="4.90867">
        <ele>297.100006104</ele>
        <time>2015-07-06T09:27:40.007Z</time>
      </trkpt>
      <trkpt lat="45.99237" lon="4.90874">
        <ele>297.100006104</ele>
        <time>2015-07-06T09:27:41.005Z</time>
      </trkpt>
      <trkpt lat="45.99232" lon="4.9088">
        <ele>297.399993896</ele>
        <time>2015-07-06T09:27:42.008Z</time>
      </trkpt>
      <trkpt lat="45.99227" lon="4.90887">
        <ele>297.200012207</ele>
        <time>2015-07-06T09:27:43.023Z</time>
      </trkpt>
      <trkpt lat="45.99222" lon="4.90893">
        <ele>297.299987793</ele>
        <time>2015-07-06T09:27:44.007Z</time>
      </trkpt>
      <trkpt lat="45.99217" lon="4.909">
        <ele>297.700012207</ele>
        <time>2015-07-06T09:27:45.002Z</time>
      </trkpt>
      <trkpt lat="45.99212" lon="4.90905">
        <ele>297.899993896</ele>
        <time>2015-07-06T09:27:46.002Z</time>
      </trkpt>
      <trkpt lat="45.99207" lon="4.90911">
        <ele>297.700012207</ele>
        <time>2015-07-06T09:27:47.004Z</time>
      </trkpt>
      <trkpt lat="45.99202" lon="4.90917">
        <ele>297.799987793</ele>
        <time>2015-07-06T09:27:48.008Z</time>
      </trkpt>
      <trkpt lat="45.99197" lon="4.90923">
        <ele>297.700012207</ele>
        <time>2015-07-06T09:27:49.003Z</time>
      </trkpt>
      <trkpt lat="45.99191" lon="4.90928">
        <ele>297.600006104</ele>
        <time>2015-07-06T09:27:50.006Z</time>
      </trkpt>
      <trkpt lat="45.99186" lon="4.90934">
        <ele>297.5</ele>
        <time>2015-07-06T09:27:51.002Z</time>
      </trkpt>
      <trkpt lat="45.99181" lon="4.90939">
        <ele>297.5</ele>
        <time>2015-07-06T09:27:52.002Z</time>
      </trkpt>
      <trkpt lat="45.99176" lon="4.90945">
        <ele>297.5</ele>
        <time>2015-07-06T09:27:53.004Z</time>
      </trkpt>
      <trkpt lat="45.99172" lon="4.90951">
        <ele>297.5</ele>
        <time>2015-07-06T09:27:54.042Z</time>
      </trkpt>
      <trkpt lat="45.99169" lon="4.90957">
        <ele>297.5</ele>
        <time>2015-07-06T09:27:55.002Z</time>
      </trkpt>
      <trkpt lat="45.99166" lon="4.90962">
        <ele>297.799987793</ele>
        <time>2015-07-06T09:27:56.004Z</time>
      </trkpt>
      <trkpt lat="45.99161" lon="4.90968">
        <ele>297.899993896</ele>
        <time>2015-07-06T09:27:57.004Z</time>
      </trkpt>
      <trkpt lat="45.99155" lon="4.90975">
        <ele>297.899993896</ele>
        <time>2015-07-06T09:27:58.002Z</time>
      </trkpt>
      <trkpt lat="45.99149" lon="4.90982">
        <ele>297.899993896</ele>
        <time>2015-07-06T09:27:59.004Z</time>
      </trkpt>
      <trkpt lat="45.99143" lon="4.90988">
        <ele>298</ele>
        <time>2015-07-06T09:28:00.021Z</time>
      </trkpt>
      <trkpt lat="45.99138" lon="4.90994">
        <ele>298</ele>
        <time>2015-07-06T09:28:01.002Z</time>
      </trkpt>
      <trkpt lat="45.99133" lon="4.91001">
        <ele>298</ele>
        <time>2015-07-06T09:28:02.002Z</time>
      </trkpt>
      <trkpt lat="45.99129" lon="4.91007">
        <ele>297.899993896</ele>
        <time>2015-07-06T09:28:03.001Z</time>
      </trkpt>
      <trkpt lat="45.99124" lon="4.91013">
        <ele>297.899993896</ele>
        <time>2015-07-06T09:28:04.02Z</time>
      </trkpt>
      <trkpt lat="45.99119" lon="4.91019">
        <ele>297.700012207</ele>
        <time>2015-07-06T09:28:05.002Z</time>
      </trkpt>
      <trkpt lat="45.99114" lon="4.91024">
        <ele>297.100006104</ele>
        <time>2015-07-06T09:28:06.006Z</time>
      </trkpt>
      <trkpt lat="45.99109" lon="4.91029">
        <ele>297.100006104</ele>
        <time>2015-07-06T09:28:07.007Z</time>
      </trkpt>
      <trkpt lat="45.99104" lon="4.91035">
        <ele>296.799987793</ele>
        <time>2015-07-06T09:28:08.004Z</time>
      </trkpt>
      <trkpt lat="45.991" lon="4.91041">
        <ele>296.100006104</ele>
        <time>2015-07-06T09:28:09.002Z</time>
      </trkpt>
      <trkpt lat="45.99095" lon="4.91046">
        <ele>296</ele>
        <time>2015-07-06T09:28:10.001Z</time>
      </trkpt>
      <trkpt lat="45.9909" lon="4.9105">
        <ele>295.799987793</ele>
        <time>2015-07-06T09:28:11.003Z</time>
      </trkpt>
      <trkpt lat="45.99086" lon="4.91055">
        <ele>295.700012207</ele>
        <time>2015-07-06T09:28:12.027Z</time>
      </trkpt>
      <trkpt lat="45.99081" lon="4.91061">
        <ele>295.899993896</ele>
        <time>2015-07-06T09:28:13.003Z</time>
      </trkpt>
      <trkpt lat="45.99077" lon="4.91066">
        <ele>295.700012207</ele>
        <time>2015-07-06T09:28:14.004Z</time>
      </trkpt>
      <trkpt lat="45.99072" lon="4.91072">
        <ele>295.299987793</ele>
        <time>2015-07-06T09:28:15.001Z</time>
      </trkpt>
      <trkpt lat="45.99068" lon="4.91078">
        <ele>295.399993896</ele>
        <time>2015-07-06T09:28:16.005Z</time>
      </trkpt>
      <trkpt lat="45.99063" lon="4.91084">
        <ele>295.600006104</ele>
        <time>2015-07-06T09:28:17.002Z</time>
      </trkpt>
      <trkpt lat="45.99059" lon="4.9109">
        <ele>295.700012207</ele>
        <time>2015-07-06T09:28:18.008Z</time>
      </trkpt>
      <trkpt lat="45.99054" lon="4.91095">
        <ele>296</ele>
        <time>2015-07-06T09:28:18.996Z</time>
      </trkpt>
      <trkpt lat="45.99049" lon="4.91101">
        <ele>296.200012207</ele>
        <time>2015-07-06T09:28:20.002Z</time>
      </trkpt>
      <trkpt lat="45.99044" lon="4.91107">
        <ele>296.100006104</ele>
        <time>2015-07-06T09:28:21.003Z</time>
      </trkpt>
      <trkpt lat="45.99039" lon="4.91113">
        <ele>296</ele>
        <time>2015-07-06T09:28:22.006Z</time>
      </trkpt>
      <trkpt lat="45.99034" lon="4.91119">
        <ele>296</ele>
        <time>2015-07-06T09:28:23.001Z</time>
      </trkpt>
      <trkpt lat="45.99029" lon="4.91126">
        <ele>295.700012207</ele>
        <time>2015-07-06T09:28:24.004Z</time>
      </trkpt>
      <trkpt lat="45.99023" lon="4.91132">
        <ele>296.200012207</ele>
        <time>2015-07-06T09:28:25.02Z</time>
      </trkpt>
      <trkpt lat="45.99018" lon="4.91137">
        <ele>296.299987793</ele>
        <time>2015-07-06T09:28:26.004Z</time>
      </trkpt>
      <trkpt lat="45.99013" lon="4.91144">
        <ele>296.200012207</ele>
        <time>2015-07-06T09:28:27.002Z</time>
      </trkpt>
      <trkpt lat="45.99007" lon="4.91151">
        <ele>295.799987793</ele>
        <time>2015-07-06T09:28:28.002Z</time>
      </trkpt>
      <trkpt lat="45.99002" lon="4.91157">
        <ele>295.200012207</ele>
        <time>2015-07-06T09:28:29.001Z</time>
      </trkpt>
      <trkpt lat="45.98998" lon="4.91164">
        <ele>294.799987793</ele>
        <time>2015-07-06T09:28:30.004Z</time>
      </trkpt>
      <trkpt lat="45.98993" lon="4.91171">
        <ele>294.399993896</ele>
        <time>2015-07-06T09:28:31.001Z</time>
      </trkpt>
      <trkpt lat="45.98988" lon="4.91178">
        <ele>294.799987793</ele>
        <time>2015-07-06T09:28:32.004Z</time>
      </trkpt>
      <trkpt lat="45.98983" lon="4.91184">
        <ele>295</ele>
        <time>2015-07-06T09:28:33.001Z</time>
      </trkpt>
      <trkpt lat="45.98978" lon="4.91191">
        <ele>295.299987793</ele>
        <time>2015-07-06T09:28:34.041Z</time>
      </trkpt>
      <trkpt lat="45.98974" lon="4.91197">
        <ele>295.200012207</ele>
        <time>2015-07-06T09:28:35.001Z</time>
      </trkpt>
      <trkpt lat="45.98969" lon="4.91203">
        <ele>295.5</ele>
        <time>2015-07-06T09:28:36.004Z</time>
      </trkpt>
      <trkpt lat="45.98965" lon="4.91209">
        <ele>295.399993896</ele>
        <time>2015-07-06T09:28:37.002Z</time>
      </trkpt>
      <trkpt lat="45.9896" lon="4.91215">
        <ele>295.5</ele>
        <time>2015-07-06T09:28:38.002Z</time>
      </trkpt>
      <trkpt lat="45.98956" lon="4.91221">
        <ele>295.600006104</ele>
        <time>2015-07-06T09:28:39.066Z</time>
      </trkpt>
      <trkpt lat="45.98951" lon="4.91226">
        <ele>296.200012207</ele>
        <time>2015-07-06T09:28:40.002Z</time>
      </trkpt>
      <trkpt lat="45.98946" lon="4.91231">
        <ele>296.600006104</ele>
        <time>2015-07-06T09:28:41.018Z</time>
      </trkpt>
      <trkpt lat="45.98941" lon="4.91236">
        <ele>296.299987793</ele>
        <time>2015-07-06T09:28:42.006Z</time>
      </trkpt>
      <trkpt lat="45.98937" lon="4.91243">
        <ele>296.299987793</ele>
        <time>2015-07-06T09:28:43.001Z</time>
      </trkpt>
      <trkpt lat="45.98932" lon="4.91248">
        <ele>296.700012207</ele>
        <time>2015-07-06T09:28:44.006Z</time>
      </trkpt>
      <trkpt lat="45.98928" lon="4.91254">
        <ele>296.799987793</ele>
        <time>2015-07-06T09:28:45.001Z</time>
      </trkpt>
      <trkpt lat="45.98923" lon="4.9126">
        <ele>296.5</ele>
        <time>2015-07-06T09:28:46.003Z</time>
      </trkpt>
      <trkpt lat="45.98918" lon="4.91266">
        <ele>296.399993896</ele>
        <time>2015-07-06T09:28:47.003Z</time>
      </trkpt>
      <trkpt lat="45.98913" lon="4.91272">
        <ele>296.600006104</ele>
        <time>2015-07-06T09:28:48.004Z</time>
      </trkpt>
      <trkpt lat="45.98908" lon="4.91278">
        <ele>296.399993896</ele>
        <time>2015-07-06T09:28:49.001Z</time>
      </trkpt>
      <trkpt lat="45.98903" lon="4.91284">
        <ele>296.200012207</ele>
        <time>2015-07-06T09:28:50.003Z</time>
      </trkpt>
      <trkpt lat="45.98899" lon="4.9129">
        <ele>295.899993896</ele>
        <time>2015-07-06T09:28:51.004Z</time>
      </trkpt>
      <trkpt lat="45.98893" lon="4.91296">
        <ele>295.799987793</ele>
        <time>2015-07-06T09:28:52.001Z</time>
      </trkpt>
      <trkpt lat="45.98888" lon="4.91302">
        <ele>295.5</ele>
        <time>2015-07-06T09:28:53.001Z</time>
      </trkpt>
      <trkpt lat="45.98883" lon="4.91308">
        <ele>295.200012207</ele>
        <time>2015-07-06T09:28:54.004Z</time>
      </trkpt>
      <trkpt lat="45.98878" lon="4.91314">
        <ele>295.399993896</ele>
        <time>2015-07-06T09:28:55.001Z</time>
      </trkpt>
      <trkpt lat="45.98873" lon="4.9132">
        <ele>295.200012207</ele>
        <time>2015-07-06T09:28:56.006Z</time>
      </trkpt>
      <trkpt lat="45.98868" lon="4.91326">
        <ele>294.899993896</ele>
        <time>2015-07-06T09:28:57.018Z</time>
      </trkpt>
      <trkpt lat="45.98863" lon="4.91332">
        <ele>294.799987793</ele>
        <time>2015-07-06T09:28:58.042Z</time>
      </trkpt>
      <trkpt lat="45.98858" lon="4.91339">
        <ele>294.799987793</ele>
        <time>2015-07-06T09:28:58.997Z</time>
      </trkpt>
      <trkpt lat="45.98853" lon="4.91344">
        <ele>294.600006104</ele>
        <time>2015-07-06T09:29:00.026Z</time>
      </trkpt>
      <trkpt lat="45.98849" lon="4.91351">
        <ele>294.600006104</ele>
        <time>2015-07-06T09:29:01.002Z</time>
      </trkpt>
      <trkpt lat="45.98844" lon="4.91356">
        <ele>294.399993896</ele>
        <time>2015-07-06T09:29:02.002Z</time>
      </trkpt>
      <trkpt lat="45.9884" lon="4.91362">
        <ele>294.299987793</ele>
        <time>2015-07-06T09:29:03.003Z</time>
      </trkpt>
      <trkpt lat="45.98836" lon="4.91368">
        <ele>294.200012207</ele>
        <time>2015-07-06T09:29:04.004Z</time>
      </trkpt>
      <trkpt lat="45.98831" lon="4.91374">
        <ele>294.100006104</ele>
        <time>2015-07-06T09:29:05.003Z</time>
      </trkpt>
      <trkpt lat="45.98827" lon="4.91379">
        <ele>294.5</ele>
        <time>2015-07-06T09:29:06.004Z</time>
      </trkpt>
      <trkpt lat="45.98822" lon="4.91385">
        <ele>294.700012207</ele>
        <time>2015-07-06T09:29:07.003Z</time>
      </trkpt>
      <trkpt lat="45.98818" lon="4.91391">
        <ele>294.799987793</ele>
        <time>2015-07-06T09:29:08.002Z</time>
      </trkpt>
      <trkpt lat="45.98813" lon="4.91397">
        <ele>294.799987793</ele>
        <time>2015-07-06T09:29:09.002Z</time>
      </trkpt>
      <trkpt lat="45.98808" lon="4.91402">
        <ele>294.799987793</ele>
        <time>2015-07-06T09:29:10.004Z</time>
      </trkpt>
      <trkpt lat="45.98804" lon="4.9141">
        <ele>294.700012207</ele>
        <time>2015-07-06T09:29:11.003Z</time>
      </trkpt>
      <trkpt lat="45.98798" lon="4.91415">
        <ele>294.299987793</ele>
        <time>2015-07-06T09:29:12.008Z</time>
      </trkpt>
      <trkpt lat="45.98793" lon="4.91422">
        <ele>293.899993896</ele>
        <time>2015-07-06T09:29:13.018Z</time>
      </trkpt>
      <trkpt lat="45.98788" lon="4.91428">
        <ele>294</ele>
        <time>2015-07-06T09:29:14.006Z</time>
      </trkpt>
      <trkpt lat="45.98783" lon="4.91435">
        <ele>294</ele>
        <time>2015-07-06T09:29:15.001Z</time>
      </trkpt>
      <trkpt lat="45.98778" lon="4.91441">
        <ele>294</ele>
        <time>2015-07-06T09:29:16.003Z</time>
      </trkpt>
      <trkpt lat="45.98773" lon="4.91448">
        <ele>294</ele>
        <time>2015-07-06T09:29:17.001Z</time>
      </trkpt>
      <trkpt lat="45.98767" lon="4.91454">
        <ele>294</ele>
        <time>2015-07-06T09:29:18.005Z</time>
      </trkpt>
      <trkpt lat="45.98762" lon="4.9146">
        <ele>294.200012207</ele>
        <time>2015-07-06T09:29:19.001Z</time>
      </trkpt>
      <trkpt lat="45.98757" lon="4.91466">
        <ele>294.399993896</ele>
        <time>2015-07-06T09:29:20.002Z</time>
      </trkpt>
      <trkpt lat="45.98752" lon="4.91472">
        <ele>294.600006104</ele>
        <time>2015-07-06T09:29:21.004Z</time>
      </trkpt>
      <trkpt lat="45.98747" lon="4.91478">
        <ele>294.5</ele>
        <time>2015-07-06T09:29:22.004Z</time>
      </trkpt>
      <trkpt lat="45.98742" lon="4.91484">
        <ele>294.399993896</ele>
        <time>2015-07-06T09:29:23.003Z</time>
      </trkpt>
      <trkpt lat="45.98738" lon="4.91489">
        <ele>294.399993896</ele>
        <time>2015-07-06T09:29:24.01Z</time>
      </trkpt>
      <trkpt lat="45.98733" lon="4.91494">
        <ele>294.600006104</ele>
        <time>2015-07-06T09:29:25Z</time>
      </trkpt>
      <trkpt lat="45.98728" lon="4.91499">
        <ele>294.700012207</ele>
        <time>2015-07-06T09:29:26.005Z</time>
      </trkpt>
      <trkpt lat="45.98723" lon="4.91504">
        <ele>294.799987793</ele>
        <time>2015-07-06T09:29:27.001Z</time>
      </trkpt>
      <trkpt lat="45.98718" lon="4.9151">
        <ele>295.200012207</ele>
        <time>2015-07-06T09:29:28.001Z</time>
      </trkpt>
      <trkpt lat="45.98713" lon="4.91515">
        <ele>295.299987793</ele>
        <time>2015-07-06T09:29:29.018Z</time>
      </trkpt>
      <trkpt lat="45.98708" lon="4.91522">
        <ele>295.399993896</ele>
        <time>2015-07-06T09:29:30.042Z</time>
      </trkpt>
      <trkpt lat="45.98704" lon="4.91527">
        <ele>295.5</ele>
        <time>2015-07-06T09:29:31.001Z</time>
      </trkpt>
      <trkpt lat="45.98699" lon="4.91534">
        <ele>295.600006104</ele>
        <time>2015-07-06T09:29:32.002Z</time>
      </trkpt>
      <trkpt lat="45.98695" lon="4.9154">
        <ele>295.700012207</ele>
        <time>2015-07-06T09:29:32.999Z</time>
      </trkpt>
      <trkpt lat="45.9869" lon="4.91547">
        <ele>295.899993896</ele>
        <time>2015-07-06T09:29:34.001Z</time>
      </trkpt>
      <trkpt lat="45.98685" lon="4.91553">
        <ele>296.200012207</ele>
        <time>2015-07-06T09:29:35.001Z</time>
      </trkpt>
      <trkpt lat="45.9868" lon="4.9156">
        <ele>296.5</ele>
        <time>2015-07-06T09:29:36.004Z</time>
      </trkpt>
      <trkpt lat="45.98676" lon="4.91566">
        <ele>296.5</ele>
        <time>2015-07-06T09:29:37.001Z</time>
      </trkpt>
      <trkpt lat="45.98671" lon="4.91572">
        <ele>296.899993896</ele>
        <time>2015-07-06T09:29:38.034Z</time>
      </trkpt>
      <trkpt lat="45.98666" lon="4.91578">
        <ele>297.299987793</ele>
        <time>2015-07-06T09:29:39.001Z</time>
      </trkpt>
      <trkpt lat="45.98661" lon="4.91583">
        <ele>297.899993896</ele>
        <time>2015-07-06T09:29:40.042Z</time>
      </trkpt>
      <trkpt lat="45.98656" lon="4.91589">
        <ele>298.200012207</ele>
        <time>2015-07-06T09:29:41.003Z</time>
      </trkpt>
      <trkpt lat="45.98651" lon="4.91594">
        <ele>298.600006104</ele>
        <time>2015-07-06T09:29:42.005Z</time>
      </trkpt>
      <trkpt lat="45.98646" lon="4.91601">
        <ele>298.799987793</ele>
        <time>2015-07-06T09:29:43.003Z</time>
      </trkpt>
      <trkpt lat="45.9864" lon="4.91607">
        <ele>298.899993896</ele>
        <time>2015-07-06T09:29:44.004Z</time>
      </trkpt>
      <trkpt lat="45.98635" lon="4.91613">
        <ele>299.100006104</ele>
        <time>2015-07-06T09:29:45.019Z</time>
      </trkpt>
      <trkpt lat="45.98628" lon="4.9162">
        <ele>298.899993896</ele>
        <time>2015-07-06T09:29:46.003Z</time>
      </trkpt>
      <trkpt lat="45.98623" lon="4.91626">
        <ele>298.399993896</ele>
        <time>2015-07-06T09:29:47.003Z</time>
      </trkpt>
      <trkpt lat="45.98617" lon="4.91633">
        <ele>298.200012207</ele>
        <time>2015-07-06T09:29:48.008Z</time>
      </trkpt>
      <trkpt lat="45.98611" lon="4.9164">
        <ele>297.799987793</ele>
        <time>2015-07-06T09:29:49.001Z</time>
      </trkpt>
      <trkpt lat="45.98605" lon="4.91647">
        <ele>297.399993896</ele>
        <time>2015-07-06T09:29:50.002Z</time>
      </trkpt>
      <trkpt lat="45.98599" lon="4.91654">
        <ele>297.200012207</ele>
        <time>2015-07-06T09:29:51.004Z</time>
      </trkpt>
      <trkpt lat="45.98594" lon="4.91661">
        <ele>297.100006104</ele>
        <time>2015-07-06T09:29:52.002Z</time>
      </trkpt>
      <trkpt lat="45.98588" lon="4.91668">
        <ele>297</ele>
        <time>2015-07-06T09:29:53.001Z</time>
      </trkpt>
      <trkpt lat="45.98582" lon="4.91675">
        <ele>296.799987793</ele>
        <time>2015-07-06T09:29:54.008Z</time>
      </trkpt>
      <trkpt lat="45.98576" lon="4.91682">
        <ele>296.5</ele>
        <time>2015-07-06T09:29:55.001Z</time>
      </trkpt>
      <trkpt lat="45.9857" lon="4.91689">
        <ele>296.5</ele>
        <time>2015-07-06T09:29:56.004Z</time>
      </trkpt>
      <trkpt lat="45.98564" lon="4.91696">
        <ele>296.799987793</ele>
        <time>2015-07-06T09:29:57.003Z</time>
      </trkpt>
      <trkpt lat="45.98558" lon="4.91702">
        <ele>297.200012207</ele>
        <time>2015-07-06T09:29:58.001Z</time>
      </trkpt>
      <trkpt lat="45.98553" lon="4.9171">
        <ele>297.200012207</ele>
        <time>2015-07-06T09:29:59.007Z</time>
      </trkpt>
      <trkpt lat="45.98547" lon="4.91716">
        <ele>297</ele>
        <time>2015-07-06T09:30:00.025Z</time>
      </trkpt>
      <trkpt lat="45.98542" lon="4.91723">
        <ele>296.799987793</ele>
        <time>2015-07-06T09:30:01.022Z</time>
      </trkpt>
      <trkpt lat="45.98537" lon="4.9173">
        <ele>296.299987793</ele>
        <time>2015-07-06T09:30:02.001Z</time>
      </trkpt>
      <trkpt lat="45.98532" lon="4.91736">
        <ele>296.100006104</ele>
        <time>2015-07-06T09:30:03.003Z</time>
      </trkpt>
      <trkpt lat="45.98527" lon="4.91742">
        <ele>295.799987793</ele>
        <time>2015-07-06T09:30:04.001Z</time>
      </trkpt>
      <trkpt lat="45.98523" lon="4.91749">
        <ele>295.399993896</ele>
        <time>2015-07-06T09:30:05.001Z</time>
      </trkpt>
      <trkpt lat="45.98519" lon="4.91755">
        <ele>295.200012207</ele>
        <time>2015-07-06T09:30:06.004Z</time>
      </trkpt>
      <trkpt lat="45.98514" lon="4.91761">
        <ele>295</ele>
        <time>2015-07-06T09:30:07.001Z</time>
      </trkpt>
      <trkpt lat="45.98509" lon="4.91767">
        <ele>295</ele>
        <time>2015-07-06T09:30:08.002Z</time>
      </trkpt>
      <trkpt lat="45.98505" lon="4.91773">
        <ele>294.899993896</ele>
        <time>2015-07-06T09:30:09.001Z</time>
      </trkpt>
      <trkpt lat="45.985" lon="4.91779">
        <ele>294.799987793</ele>
        <time>2015-07-06T09:30:10.001Z</time>
      </trkpt>
      <trkpt lat="45.98495" lon="4.91785">
        <ele>294.600006104</ele>
        <time>2015-07-06T09:30:11.003Z</time>
      </trkpt>
      <trkpt lat="45.9849" lon="4.91791">
        <ele>294.600006104</ele>
        <time>2015-07-06T09:30:12.003Z</time>
      </trkpt>
      <trkpt lat="45.98486" lon="4.91798">
        <ele>294.600006104</ele>
        <time>2015-07-06T09:30:13.001Z</time>
      </trkpt>
      <trkpt lat="45.98481" lon="4.91804">
        <ele>294.5</ele>
        <time>2015-07-06T09:30:14.002Z</time>
      </trkpt>
      <trkpt lat="45.98475" lon="4.9181">
        <ele>294.5</ele>
        <time>2015-07-06T09:30:15.001Z</time>
      </trkpt>
      <trkpt lat="45.9847" lon="4.91817">
        <ele>294.5</ele>
        <time>2015-07-06T09:30:16.001Z</time>
      </trkpt>
      <trkpt lat="45.98465" lon="4.91823">
        <ele>294.399993896</ele>
        <time>2015-07-06T09:30:17.019Z</time>
      </trkpt>
      <trkpt lat="45.9846" lon="4.91829">
        <ele>294</ele>
        <time>2015-07-06T09:30:18.004Z</time>
      </trkpt>
      <trkpt lat="45.98455" lon="4.91835">
        <ele>294.100006104</ele>
        <time>2015-07-06T09:30:19.001Z</time>
      </trkpt>
      <trkpt lat="45.9845" lon="4.9184">
        <ele>294.399993896</ele>
        <time>2015-07-06T09:30:20.002Z</time>
      </trkpt>
      <trkpt lat="45.98445" lon="4.91846">
        <ele>294.399993896</ele>
        <time>2015-07-06T09:30:21.001Z</time>
      </trkpt>
      <trkpt lat="45.9844" lon="4.91853">
        <ele>294.5</ele>
        <time>2015-07-06T09:30:22.003Z</time>
      </trkpt>
      <trkpt lat="45.98435" lon="4.91859">
        <ele>294.700012207</ele>
        <time>2015-07-06T09:30:23.001Z</time>
      </trkpt>
      <trkpt lat="45.98429" lon="4.91865">
        <ele>294.5</ele>
        <time>2015-07-06T09:30:24.004Z</time>
      </trkpt>
      <trkpt lat="45.98424" lon="4.91872">
        <ele>294.799987793</ele>
        <time>2015-07-06T09:30:25.001Z</time>
      </trkpt>
      <trkpt lat="45.98418" lon="4.91879">
        <ele>295</ele>
        <time>2015-07-06T09:30:26.002Z</time>
      </trkpt>
      <trkpt lat="45.98413" lon="4.91886">
        <ele>294.899993896</ele>
        <time>2015-07-06T09:30:27.007Z</time>
      </trkpt>
      <trkpt lat="45.98407" lon="4.91893">
        <ele>295.100006104</ele>
        <time>2015-07-06T09:30:28.001Z</time>
      </trkpt>
      <trkpt lat="45.98402" lon="4.919">
        <ele>295.200012207</ele>
        <time>2015-07-06T09:30:29.003Z</time>
      </trkpt>
      <trkpt lat="45.98397" lon="4.91906">
        <ele>295.399993896</ele>
        <time>2015-07-06T09:30:30.004Z</time>
      </trkpt>
      <trkpt lat="45.98391" lon="4.91913">
        <ele>295.200012207</ele>
        <time>2015-07-06T09:30:31.001Z</time>
      </trkpt>
      <trkpt lat="45.98385" lon="4.91921">
        <ele>295.200012207</ele>
        <time>2015-07-06T09:30:32.004Z</time>
      </trkpt>
      <trkpt lat="45.98379" lon="4.91928">
        <ele>295.299987793</ele>
        <time>2015-07-06T09:30:33.005Z</time>
      </trkpt>
      <trkpt lat="45.98373" lon="4.91935">
        <ele>295.200012207</ele>
        <time>2015-07-06T09:30:34.001Z</time>
      </trkpt>
      <trkpt lat="45.98367" lon="4.91941">
        <ele>295</ele>
        <time>2015-07-06T09:30:35.001Z</time>
      </trkpt>
      <trkpt lat="45.98362" lon="4.91948">
        <ele>295.299987793</ele>
        <time>2015-07-06T09:30:36.005Z</time>
      </trkpt>
      <trkpt lat="45.98357" lon="4.91954">
        <ele>295.100006104</ele>
        <time>2015-07-06T09:30:37.003Z</time>
      </trkpt>
      <trkpt lat="45.98352" lon="4.9196">
        <ele>295</ele>
        <time>2015-07-06T09:30:38.021Z</time>
      </trkpt>
      <trkpt lat="45.98347" lon="4.91966">
        <ele>294.700012207</ele>
        <time>2015-07-06T09:30:39.002Z</time>
      </trkpt>
      <trkpt lat="45.98342" lon="4.91971">
        <ele>294.600006104</ele>
        <time>2015-07-06T09:30:40.001Z</time>
      </trkpt>
      <trkpt lat="45.98337" lon="4.91977">
        <ele>294.5</ele>
        <time>2015-07-06T09:30:41.003Z</time>
      </trkpt>
      <trkpt lat="45.98333" lon="4.91982">
        <ele>294.5</ele>
        <time>2015-07-06T09:30:42.003Z</time>
      </trkpt>
      <trkpt lat="45.98328" lon="4.91987">
        <ele>294.5</ele>
        <time>2015-07-06T09:30:43.001Z</time>
      </trkpt>
      <trkpt lat="45.98324" lon="4.91992">
        <ele>294.899993896</ele>
        <time>2015-07-06T09:30:44.002Z</time>
      </trkpt>
      <trkpt lat="45.98319" lon="4.91997">
        <ele>295</ele>
        <time>2015-07-06T09:30:45.001Z</time>
      </trkpt>
      <trkpt lat="45.98315" lon="4.92002">
        <ele>295</ele>
        <time>2015-07-06T09:30:46.003Z</time>
      </trkpt>
      <trkpt lat="45.98311" lon="4.92007">
        <ele>295.100006104</ele>
        <time>2015-07-06T09:30:47.001Z</time>
      </trkpt>
      <trkpt lat="45.98307" lon="4.92013">
        <ele>295.399993896</ele>
        <time>2015-07-06T09:30:48.002Z</time>
      </trkpt>
      <trkpt lat="45.98303" lon="4.92019">
        <ele>295.799987793</ele>
        <time>2015-07-06T09:30:49.004Z</time>
      </trkpt>
      <trkpt lat="45.98298" lon="4.92023">
        <ele>296.100006104</ele>
        <time>2015-07-06T09:30:50.002Z</time>
      </trkpt>
      <trkpt lat="45.98295" lon="4.92028">
        <ele>296.200012207</ele>
        <time>2015-07-06T09:30:51.003Z</time>
      </trkpt>
      <trkpt lat="45.98291" lon="4.92034">
        <ele>296.200012207</ele>
        <time>2015-07-06T09:30:52.025Z</time>
      </trkpt>
      <trkpt lat="45.98288" lon="4.92039">
        <ele>296.200012207</ele>
        <time>2015-07-06T09:30:53.008Z</time>
      </trkpt>
      <trkpt lat="45.98283" lon="4.92044">
        <ele>296.299987793</ele>
        <time>2015-07-06T09:30:54.007Z</time>
      </trkpt>
      <trkpt lat="45.9828" lon="4.92049">
        <ele>296.299987793</ele>
        <time>2015-07-06T09:30:55.003Z</time>
      </trkpt>
      <trkpt lat="45.98276" lon="4.92055">
        <ele>296.299987793</ele>
        <time>2015-07-06T09:30:56.004Z</time>
      </trkpt>
      <trkpt lat="45.98272" lon="4.9206">
        <ele>296.299987793</ele>
        <time>2015-07-06T09:30:57.003Z</time>
      </trkpt>
      <trkpt lat="45.98268" lon="4.92065">
        <ele>296.899993896</ele>
        <time>2015-07-06T09:30:58.002Z</time>
      </trkpt>
      <trkpt lat="45.98263" lon="4.92071">
        <ele>297.200012207</ele>
        <time>2015-07-06T09:30:59.017Z</time>
      </trkpt>
      <trkpt lat="45.98259" lon="4.92077">
        <ele>297.200012207</ele>
        <time>2015-07-06T09:31:00.019Z</time>
      </trkpt>
      <trkpt lat="45.98255" lon="4.92083">
        <ele>297.200012207</ele>
        <time>2015-07-06T09:31:01.003Z</time>
      </trkpt>
      <trkpt lat="45.98251" lon="4.92088">
        <ele>297.399993896</ele>
        <time>2015-07-06T09:31:02.006Z</time>
      </trkpt>
      <trkpt lat="45.98245" lon="4.92094">
        <ele>297.5</ele>
        <time>2015-07-06T09:31:03.003Z</time>
      </trkpt>
      <trkpt lat="45.98241" lon="4.92101">
        <ele>297.5</ele>
        <time>2015-07-06T09:31:04.001Z</time>
      </trkpt>
      <trkpt lat="45.98236" lon="4.92106">
        <ele>297.799987793</ele>
        <time>2015-07-06T09:31:05.001Z</time>
      </trkpt>
      <trkpt lat="45.9823" lon="4.92112">
        <ele>298.100006104</ele>
        <time>2015-07-06T09:31:06.003Z</time>
      </trkpt>
      <trkpt lat="45.98226" lon="4.92118">
        <ele>298.399993896</ele>
        <time>2015-07-06T09:31:07.003Z</time>
      </trkpt>
      <trkpt lat="45.98221" lon="4.92124">
        <ele>298.600006104</ele>
        <time>2015-07-06T09:31:08.004Z</time>
      </trkpt>
      <trkpt lat="45.98216" lon="4.9213">
        <ele>298.700012207</ele>
        <time>2015-07-06T09:31:09.001Z</time>
      </trkpt>
      <trkpt lat="45.98211" lon="4.92136">
        <ele>298.899993896</ele>
        <time>2015-07-06T09:31:10Z</time>
      </trkpt>
      <trkpt lat="45.98206" lon="4.92141">
        <ele>299.100006104</ele>
        <time>2015-07-06T09:31:11Z</time>
      </trkpt>
      <trkpt lat="45.982" lon="4.92146">
        <ele>298.700012207</ele>
        <time>2015-07-06T09:31:12.007Z</time>
      </trkpt>
      <trkpt lat="45.98195" lon="4.92152">
        <ele>298.700012207</ele>
        <time>2015-07-06T09:31:13.004Z</time>
      </trkpt>
      <trkpt lat="45.9819" lon="4.92159">
        <ele>298.799987793</ele>
        <time>2015-07-06T09:31:14.004Z</time>
      </trkpt>
      <trkpt lat="45.98185" lon="4.92165">
        <ele>298.899993896</ele>
        <time>2015-07-06T09:31:15.013Z</time>
      </trkpt>
      <trkpt lat="45.98179" lon="4.92171">
        <ele>298.899993896</ele>
        <time>2015-07-06T09:31:16.001Z</time>
      </trkpt>
      <trkpt lat="45.98174" lon="4.92177">
        <ele>298.899993896</ele>
        <time>2015-07-06T09:31:17.001Z</time>
      </trkpt>
      <trkpt lat="45.98169" lon="4.92183">
        <ele>298.799987793</ele>
        <time>2015-07-06T09:31:18.004Z</time>
      </trkpt>
      <trkpt lat="45.98164" lon="4.9219">
        <ele>299</ele>
        <time>2015-07-06T09:31:19.009Z</time>
      </trkpt>
      <trkpt lat="45.98159" lon="4.92196">
        <ele>299.200012207</ele>
        <time>2015-07-06T09:31:20.004Z</time>
      </trkpt>
      <trkpt lat="45.98154" lon="4.92202">
        <ele>299.200012207</ele>
        <time>2015-07-06T09:31:21.004Z</time>
      </trkpt>
      <trkpt lat="45.98149" lon="4.92209">
        <ele>299.100006104</ele>
        <time>2015-07-06T09:31:22.005Z</time>
      </trkpt>
      <trkpt lat="45.98144" lon="4.92216">
        <ele>298.600006104</ele>
        <time>2015-07-06T09:31:23.001Z</time>
      </trkpt>
      <trkpt lat="45.9814" lon="4.92222">
        <ele>298.200012207</ele>
        <time>2015-07-06T09:31:24.008Z</time>
      </trkpt>
      <trkpt lat="45.98135" lon="4.92228">
        <ele>298.100006104</ele>
        <time>2015-07-06T09:31:25.003Z</time>
      </trkpt>
      <trkpt lat="45.9813" lon="4.92233">
        <ele>297.700012207</ele>
        <time>2015-07-06T09:31:26.003Z</time>
      </trkpt>
      <trkpt lat="45.98125" lon="4.92239">
        <ele>297.200012207</ele>
        <time>2015-07-06T09:31:27.001Z</time>
      </trkpt>
      <trkpt lat="45.9812" lon="4.92245">
        <ele>297</ele>
        <time>2015-07-06T09:31:28.003Z</time>
      </trkpt>
      <trkpt lat="45.98116" lon="4.92251">
        <ele>296.899993896</ele>
        <time>2015-07-06T09:31:29.003Z</time>
      </trkpt>
      <trkpt lat="45.98111" lon="4.92257">
        <ele>296.700012207</ele>
        <time>2015-07-06T09:31:30.003Z</time>
      </trkpt>
      <trkpt lat="45.98107" lon="4.92263">
        <ele>296.299987793</ele>
        <time>2015-07-06T09:31:31.019Z</time>
      </trkpt>
      <trkpt lat="45.98102" lon="4.92268">
        <ele>296</ele>
        <time>2015-07-06T09:31:32.002Z</time>
      </trkpt>
      <trkpt lat="45.98098" lon="4.92274">
        <ele>295.299987793</ele>
        <time>2015-07-06T09:31:33.001Z</time>
      </trkpt>
      <trkpt lat="45.98094" lon="4.9228">
        <ele>295.100006104</ele>
        <time>2015-07-06T09:31:34.001Z</time>
      </trkpt>
      <trkpt lat="45.98089" lon="4.92285">
        <ele>295.200012207</ele>
        <time>2015-07-06T09:31:35Z</time>
      </trkpt>
      <trkpt lat="45.98084" lon="4.92288">
        <ele>295.200012207</ele>
        <time>2015-07-06T09:31:36.007Z</time>
      </trkpt>
      <trkpt lat="45.98079" lon="4.92294">
        <ele>294.899993896</ele>
        <time>2015-07-06T09:31:37.003Z</time>
      </trkpt>
      <trkpt lat="45.98075" lon="4.92301">
        <ele>294.700012207</ele>
        <time>2015-07-06T09:31:38.003Z</time>
      </trkpt>
      <trkpt lat="45.9807" lon="4.92306">
        <ele>294.600006104</ele>
        <time>2015-07-06T09:31:39.053Z</time>
      </trkpt>
      <trkpt lat="45.98065" lon="4.92312">
        <ele>294.399993896</ele>
        <time>2015-07-06T09:31:40.001Z</time>
      </trkpt>
      <trkpt lat="45.98059" lon="4.92318">
        <ele>294.399993896</ele>
        <time>2015-07-06T09:31:41.001Z</time>
      </trkpt>
      <trkpt lat="45.98054" lon="4.92324">
        <ele>293.899993896</ele>
        <time>2015-07-06T09:31:42.003Z</time>
      </trkpt>
      <trkpt lat="45.9805" lon="4.9233">
        <ele>293.399993896</ele>
        <time>2015-07-06T09:31:43.003Z</time>
      </trkpt>
      <trkpt lat="45.98044" lon="4.92336">
        <ele>293.299987793</ele>
        <time>2015-07-06T09:31:44.005Z</time>
      </trkpt>
      <trkpt lat="45.9804" lon="4.92342">
        <ele>293.100006104</ele>
        <time>2015-07-06T09:31:45.001Z</time>
      </trkpt>
      <trkpt lat="45.98035" lon="4.92348">
        <ele>292.799987793</ele>
        <time>2015-07-06T09:31:46.001Z</time>
      </trkpt>
      <trkpt lat="45.9803" lon="4.92354">
        <ele>292.899993896</ele>
        <time>2015-07-06T09:31:47.017Z</time>
      </trkpt>
      <trkpt lat="45.98026" lon="4.92359">
        <ele>292.799987793</ele>
        <time>2015-07-06T09:31:48.007Z</time>
      </trkpt>
      <trkpt lat="45.98021" lon="4.92365">
        <ele>292.600006104</ele>
        <time>2015-07-06T09:31:49.083Z</time>
      </trkpt>
      <trkpt lat="45.98016" lon="4.92371">
        <ele>292.600006104</ele>
        <time>2015-07-06T09:31:50.002Z</time>
      </trkpt>
      <trkpt lat="45.98011" lon="4.92376">
        <ele>292.299987793</ele>
        <time>2015-07-06T09:31:51.001Z</time>
      </trkpt>
      <trkpt lat="45.98006" lon="4.92381">
        <ele>292.399993896</ele>
        <time>2015-07-06T09:31:52.003Z</time>
      </trkpt>
      <trkpt lat="45.98002" lon="4.92387">
        <ele>292.399993896</ele>
        <time>2015-07-06T09:31:53.002Z</time>
      </trkpt>
      <trkpt lat="45.97997" lon="4.92392">
        <ele>292.5</ele>
        <time>2015-07-06T09:31:54.007Z</time>
      </trkpt>
      <trkpt lat="45.97993" lon="4.92398">
        <ele>292.799987793</ele>
        <time>2015-07-06T09:31:55.001Z</time>
      </trkpt>
      <trkpt lat="45.97988" lon="4.92404">
        <ele>292.899993896</ele>
        <time>2015-07-06T09:31:56.002Z</time>
      </trkpt>
      <trkpt lat="45.97983" lon="4.92409">
        <ele>293.200012207</ele>
        <time>2015-07-06T09:31:57Z</time>
      </trkpt>
      <trkpt lat="45.97978" lon="4.92415">
        <ele>293.399993896</ele>
        <time>2015-07-06T09:31:58.002Z</time>
      </trkpt>
      <trkpt lat="45.97973" lon="4.92421">
        <ele>293.399993896</ele>
        <time>2015-07-06T09:31:59.032Z</time>
      </trkpt>
      <trkpt lat="45.97968" lon="4.92426">
        <ele>293.799987793</ele>
        <time>2015-07-06T09:32:00.024Z</time>
      </trkpt>
      <trkpt lat="45.97964" lon="4.92432">
        <ele>294.200012207</ele>
        <time>2015-07-06T09:32:01.001Z</time>
      </trkpt>
      <trkpt lat="45.97959" lon="4.92438">
        <ele>294.200012207</ele>
        <time>2015-07-06T09:32:02.002Z</time>
      </trkpt>
      <trkpt lat="45.97954" lon="4.92444">
        <ele>294.799987793</ele>
        <time>2015-07-06T09:32:03.019Z</time>
      </trkpt>
      <trkpt lat="45.9795" lon="4.92449">
        <ele>294.899993896</ele>
        <time>2015-07-06T09:32:04.002Z</time>
      </trkpt>
      <trkpt lat="45.97946" lon="4.92455">
        <ele>295</ele>
        <time>2015-07-06T09:32:05.001Z</time>
      </trkpt>
      <trkpt lat="45.97941" lon="4.9246">
        <ele>294.899993896</ele>
        <time>2015-07-06T09:32:06.007Z</time>
      </trkpt>
      <trkpt lat="45.97936" lon="4.92465">
        <ele>294.799987793</ele>
        <time>2015-07-06T09:32:07.001Z</time>
      </trkpt>
      <trkpt lat="45.97932" lon="4.9247">
        <ele>295.200012207</ele>
        <time>2015-07-06T09:32:08.003Z</time>
      </trkpt>
      <trkpt lat="45.97927" lon="4.92475">
        <ele>295.299987793</ele>
        <time>2015-07-06T09:32:09.003Z</time>
      </trkpt>
      <trkpt lat="45.97922" lon="4.9248">
        <ele>295.899993896</ele>
        <time>2015-07-06T09:32:10.001Z</time>
      </trkpt>
      <trkpt lat="45.97918" lon="4.92485">
        <ele>296.100006104</ele>
        <time>2015-07-06T09:32:11.004Z</time>
      </trkpt>
      <trkpt lat="45.97914" lon="4.92491">
        <ele>296.299987793</ele>
        <time>2015-07-06T09:32:12.007Z</time>
      </trkpt>
      <trkpt lat="45.97909" lon="4.92497">
        <ele>296.399993896</ele>
        <time>2015-07-06T09:32:13.003Z</time>
      </trkpt>
      <trkpt lat="45.97905" lon="4.92503">
        <ele>296.700012207</ele>
        <time>2015-07-06T09:32:14.004Z</time>
      </trkpt>
      <trkpt lat="45.97901" lon="4.92509">
        <ele>296.899993896</ele>
        <time>2015-07-06T09:32:15.028Z</time>
      </trkpt>
      <trkpt lat="45.97896" lon="4.92515">
        <ele>297.200012207</ele>
        <time>2015-07-06T09:32:16.001Z</time>
      </trkpt>
      <trkpt lat="45.97892" lon="4.92521">
        <ele>297.399993896</ele>
        <time>2015-07-06T09:32:17.001Z</time>
      </trkpt>
      <trkpt lat="45.97888" lon="4.92526">
        <ele>297.399993896</ele>
        <time>2015-07-06T09:32:18.003Z</time>
      </trkpt>
      <trkpt lat="45.97883" lon="4.92532">
        <ele>297.100006104</ele>
        <time>2015-07-06T09:32:19.014Z</time>
      </trkpt>
      <trkpt lat="45.97879" lon="4.92539">
        <ele>296.899993896</ele>
        <time>2015-07-06T09:32:20.004Z</time>
      </trkpt>
      <trkpt lat="45.97874" lon="4.92543">
        <ele>296.799987793</ele>
        <time>2015-07-06T09:32:21.001Z</time>
      </trkpt>
      <trkpt lat="45.9787" lon="4.92549">
        <ele>296.299987793</ele>
        <time>2015-07-06T09:32:22.003Z</time>
      </trkpt>
      <trkpt lat="45.97865" lon="4.92554">
        <ele>296.5</ele>
        <time>2015-07-06T09:32:23.001Z</time>
      </trkpt>
      <trkpt lat="45.97861" lon="4.9256">
        <ele>296.200012207</ele>
        <time>2015-07-06T09:32:24.007Z</time>
      </trkpt>
      <trkpt lat="45.97857" lon="4.92566">
        <ele>296.100006104</ele>
        <time>2015-07-06T09:32:25Z</time>
      </trkpt>
      <trkpt lat="45.97853" lon="4.92571">
        <ele>295.899993896</ele>
        <time>2015-07-06T09:32:26.001Z</time>
      </trkpt>
      <trkpt lat="45.97849" lon="4.92577">
        <ele>295.700012207</ele>
        <time>2015-07-06T09:32:27.003Z</time>
      </trkpt>
      <trkpt lat="45.97844" lon="4.92582">
        <ele>295.399993896</ele>
        <time>2015-07-06T09:32:28.001Z</time>
      </trkpt>
      <trkpt lat="45.9784" lon="4.92587">
        <ele>295.299987793</ele>
        <time>2015-07-06T09:32:29.001Z</time>
      </trkpt>
      <trkpt lat="45.97835" lon="4.92593">
        <ele>295</ele>
        <time>2015-07-06T09:32:30.003Z</time>
      </trkpt>
      <trkpt lat="45.97831" lon="4.92598">
        <ele>294.799987793</ele>
        <time>2015-07-06T09:32:30.999Z</time>
      </trkpt>
      <trkpt lat="45.97827" lon="4.92604">
        <ele>294.700012207</ele>
        <time>2015-07-06T09:32:32.002Z</time>
      </trkpt>
      <trkpt lat="45.97822" lon="4.92609">
        <ele>295</ele>
        <time>2015-07-06T09:32:33.001Z</time>
      </trkpt>
      <trkpt lat="45.97817" lon="4.92614">
        <ele>294.799987793</ele>
        <time>2015-07-06T09:32:34.003Z</time>
      </trkpt>
      <trkpt lat="45.97813" lon="4.9262">
        <ele>294.799987793</ele>
        <time>2015-07-06T09:32:35.003Z</time>
      </trkpt>
      <trkpt lat="45.97808" lon="4.92625">
        <ele>295</ele>
        <time>2015-07-06T09:32:36.017Z</time>
      </trkpt>
      <trkpt lat="45.97804" lon="4.9263">
        <ele>294.700012207</ele>
        <time>2015-07-06T09:32:37.005Z</time>
      </trkpt>
      <trkpt lat="45.97799" lon="4.92637">
        <ele>294.600006104</ele>
        <time>2015-07-06T09:32:38.002Z</time>
      </trkpt>
      <trkpt lat="45.97794" lon="4.92643">
        <ele>294.600006104</ele>
        <time>2015-07-06T09:32:39.022Z</time>
      </trkpt>
      <trkpt lat="45.97789" lon="4.92649">
        <ele>294.200012207</ele>
        <time>2015-07-06T09:32:40Z</time>
      </trkpt>
      <trkpt lat="45.97785" lon="4.92654">
        <ele>293.899993896</ele>
        <time>2015-07-06T09:32:41.001Z</time>
      </trkpt>
      <trkpt lat="45.9778" lon="4.9266">
        <ele>293.899993896</ele>
        <time>2015-07-06T09:32:42.003Z</time>
      </trkpt>
      <trkpt lat="45.97776" lon="4.92665">
        <ele>293.899993896</ele>
        <time>2015-07-06T09:32:43Z</time>
      </trkpt>
      <trkpt lat="45.97771" lon="4.92671">
        <ele>294</ele>
        <time>2015-07-06T09:32:44.001Z</time>
      </trkpt>
      <trkpt lat="45.97767" lon="4.92676">
        <ele>294.100006104</ele>
        <time>2015-07-06T09:32:45.022Z</time>
      </trkpt>
      <trkpt lat="45.97763" lon="4.92681">
        <ele>294</ele>
        <time>2015-07-06T09:32:46.032Z</time>
      </trkpt>
      <trkpt lat="45.97758" lon="4.92686">
        <ele>294.100006104</ele>
        <time>2015-07-06T09:32:47.003Z</time>
      </trkpt>
      <trkpt lat="45.97754" lon="4.92691">
        <ele>294.200012207</ele>
        <time>2015-07-06T09:32:48.007Z</time>
      </trkpt>
      <trkpt lat="45.9775" lon="4.92696">
        <ele>294.200012207</ele>
        <time>2015-07-06T09:32:49Z</time>
      </trkpt>
      <trkpt lat="45.97745" lon="4.92702">
        <ele>294.299987793</ele>
        <time>2015-07-06T09:32:50.002Z</time>
      </trkpt>
      <trkpt lat="45.97741" lon="4.92706">
        <ele>294.299987793</ele>
        <time>2015-07-06T09:32:51.004Z</time>
      </trkpt>
      <trkpt lat="45.97736" lon="4.92711">
        <ele>294.399993896</ele>
        <time>2015-07-06T09:32:52.003Z</time>
      </trkpt>
      <trkpt lat="45.97731" lon="4.92718">
        <ele>294.399993896</ele>
        <time>2015-07-06T09:32:53.002Z</time>
      </trkpt>
      <trkpt lat="45.97727" lon="4.92724">
        <ele>294.600006104</ele>
        <time>2015-07-06T09:32:54.003Z</time>
      </trkpt>
      <trkpt lat="45.97722" lon="4.92729">
        <ele>294.899993896</ele>
        <time>2015-07-06T09:32:55.003Z</time>
      </trkpt>
      <trkpt lat="45.97717" lon="4.92735">
        <ele>294.899993896</ele>
        <time>2015-07-06T09:32:56.004Z</time>
      </trkpt>
      <trkpt lat="45.97712" lon="4.9274">
        <ele>295.200012207</ele>
        <time>2015-07-06T09:32:57.001Z</time>
      </trkpt>
      <trkpt lat="45.97706" lon="4.92746">
        <ele>295.399993896</ele>
        <time>2015-07-06T09:32:58Z</time>
      </trkpt>
      <trkpt lat="45.97701" lon="4.92751">
        <ele>295.5</ele>
        <time>2015-07-06T09:32:59.001Z</time>
      </trkpt>
      <trkpt lat="45.97696" lon="4.92758">
        <ele>295.700012207</ele>
        <time>2015-07-06T09:33:00.034Z</time>
      </trkpt>
      <trkpt lat="45.97691" lon="4.92764">
        <ele>296</ele>
        <time>2015-07-06T09:33:01.02Z</time>
      </trkpt>
      <trkpt lat="45.97687" lon="4.9277">
        <ele>296.299987793</ele>
        <time>2015-07-06T09:33:02.003Z</time>
      </trkpt>
      <trkpt lat="45.97682" lon="4.92776">
        <ele>296.299987793</ele>
        <time>2015-07-06T09:33:03.008Z</time>
      </trkpt>
      <trkpt lat="45.97678" lon="4.92782">
        <ele>296.399993896</ele>
        <time>2015-07-06T09:33:04.004Z</time>
      </trkpt>
      <trkpt lat="45.97673" lon="4.92788">
        <ele>296.799987793</ele>
        <time>2015-07-06T09:33:05.003Z</time>
      </trkpt>
      <trkpt lat="45.97669" lon="4.92793">
        <ele>297.5</ele>
        <time>2015-07-06T09:33:06.005Z</time>
      </trkpt>
      <trkpt lat="45.97664" lon="4.92798">
        <ele>297.399993896</ele>
        <time>2015-07-06T09:33:07.002Z</time>
      </trkpt>
      <trkpt lat="45.97659" lon="4.92804">
        <ele>297.700012207</ele>
        <time>2015-07-06T09:33:08.004Z</time>
      </trkpt>
      <trkpt lat="45.97654" lon="4.9281">
        <ele>297.899993896</ele>
        <time>2015-07-06T09:33:09.002Z</time>
      </trkpt>
      <trkpt lat="45.9765" lon="4.92816">
        <ele>298</ele>
        <time>2015-07-06T09:33:10.052Z</time>
      </trkpt>
      <trkpt lat="45.97645" lon="4.92822">
        <ele>298</ele>
        <time>2015-07-06T09:33:11.016Z</time>
      </trkpt>
      <trkpt lat="45.9764" lon="4.92828">
        <ele>298.299987793</ele>
        <time>2015-07-06T09:33:12.01Z</time>
      </trkpt>
      <trkpt lat="45.97635" lon="4.92834">
        <ele>298.5</ele>
        <time>2015-07-06T09:33:13.008Z</time>
      </trkpt>
      <trkpt lat="45.97629" lon="4.9284">
        <ele>298.299987793</ele>
        <time>2015-07-06T09:33:14.002Z</time>
      </trkpt>
      <trkpt lat="45.97625" lon="4.92847">
        <ele>298.399993896</ele>
        <time>2015-07-06T09:33:15.008Z</time>
      </trkpt>
      <trkpt lat="45.9762" lon="4.92852">
        <ele>298.600006104</ele>
        <time>2015-07-06T09:33:16.008Z</time>
      </trkpt>
      <trkpt lat="45.97615" lon="4.92858">
        <ele>298.700012207</ele>
        <time>2015-07-06T09:33:17.028Z</time>
      </trkpt>
      <trkpt lat="45.9761" lon="4.92864">
        <ele>298.799987793</ele>
        <time>2015-07-06T09:33:18.009Z</time>
      </trkpt>
      <trkpt lat="45.97605" lon="4.9287">
        <ele>298.899993896</ele>
        <time>2015-07-06T09:33:19.009Z</time>
      </trkpt>
      <trkpt lat="45.976" lon="4.92876">
        <ele>299.200012207</ele>
        <time>2015-07-06T09:33:20.005Z</time>
      </trkpt>
      <trkpt lat="45.97595" lon="4.92881">
        <ele>300</ele>
        <time>2015-07-06T09:33:21.008Z</time>
      </trkpt>
      <trkpt lat="45.9759" lon="4.92885">
        <ele>300.100006104</ele>
        <time>2015-07-06T09:33:22.011Z</time>
      </trkpt>
      <trkpt lat="45.97585" lon="4.9289">
        <ele>300.399993896</ele>
        <time>2015-07-06T09:33:23.004Z</time>
      </trkpt>
      <trkpt lat="45.9758" lon="4.92896">
        <ele>300.600006104</ele>
        <time>2015-07-06T09:33:24.008Z</time>
      </trkpt>
      <trkpt lat="45.97574" lon="4.92902">
        <ele>300.299987793</ele>
        <time>2015-07-06T09:33:25.008Z</time>
      </trkpt>
      <trkpt lat="45.97568" lon="4.92909">
        <ele>300.200012207</ele>
        <time>2015-07-06T09:33:26.01Z</time>
      </trkpt>
      <trkpt lat="45.97563" lon="4.92915">
        <ele>300.299987793</ele>
        <time>2015-07-06T09:33:27.003Z</time>
      </trkpt>
      <trkpt lat="45.97558" lon="4.92921">
        <ele>300</ele>
        <time>2015-07-06T09:33:28.008Z</time>
      </trkpt>
      <trkpt lat="45.97552" lon="4.92928">
        <ele>299.799987793</ele>
        <time>2015-07-06T09:33:29.009Z</time>
      </trkpt>
      <trkpt lat="45.97547" lon="4.92934">
        <ele>299.299987793</ele>
        <time>2015-07-06T09:33:30.005Z</time>
      </trkpt>
      <trkpt lat="45.97542" lon="4.92941">
        <ele>299.200012207</ele>
        <time>2015-07-06T09:33:31.004Z</time>
      </trkpt>
      <trkpt lat="45.97536" lon="4.92947">
        <ele>298.799987793</ele>
        <time>2015-07-06T09:33:32.027Z</time>
      </trkpt>
      <trkpt lat="45.97532" lon="4.92953">
        <ele>298.899993896</ele>
        <time>2015-07-06T09:33:33.022Z</time>
      </trkpt>
      <trkpt lat="45.97526" lon="4.9296">
        <ele>298.600006104</ele>
        <time>2015-07-06T09:33:33.999Z</time>
      </trkpt>
      <trkpt lat="45.97521" lon="4.92967">
        <ele>298.200012207</ele>
        <time>2015-07-06T09:33:35.009Z</time>
      </trkpt>
      <trkpt lat="45.97516" lon="4.92975">
        <ele>298</ele>
        <time>2015-07-06T09:33:36.01Z</time>
      </trkpt>
      <trkpt lat="45.97511" lon="4.92981">
        <ele>297.5</ele>
        <time>2015-07-06T09:33:37.003Z</time>
      </trkpt>
      <trkpt lat="45.97506" lon="4.92986">
        <ele>297.5</ele>
        <time>2015-07-06T09:33:38.006Z</time>
      </trkpt>
      <trkpt lat="45.97501" lon="4.92994">
        <ele>297.200012207</ele>
        <time>2015-07-06T09:33:39.002Z</time>
      </trkpt>
      <trkpt lat="45.97496" lon="4.93">
        <ele>296.899993896</ele>
        <time>2015-07-06T09:33:40.001Z</time>
      </trkpt>
      <trkpt lat="45.97492" lon="4.93006">
        <ele>296.700012207</ele>
        <time>2015-07-06T09:33:41.002Z</time>
      </trkpt>
      <trkpt lat="45.97488" lon="4.93012">
        <ele>296.600006104</ele>
        <time>2015-07-06T09:33:42.006Z</time>
      </trkpt>
      <trkpt lat="45.97483" lon="4.93017">
        <ele>296.299987793</ele>
        <time>2015-07-06T09:33:43.005Z</time>
      </trkpt>
      <trkpt lat="45.97478" lon="4.93022">
        <ele>296.100006104</ele>
        <time>2015-07-06T09:33:44.003Z</time>
      </trkpt>
      <trkpt lat="45.97474" lon="4.93028">
        <ele>295.899993896</ele>
        <time>2015-07-06T09:33:45.002Z</time>
      </trkpt>
      <trkpt lat="45.97469" lon="4.93033">
        <ele>295.5</ele>
        <time>2015-07-06T09:33:46.002Z</time>
      </trkpt>
      <trkpt lat="45.97465" lon="4.93039">
        <ele>294.799987793</ele>
        <time>2015-07-06T09:33:47.004Z</time>
      </trkpt>
      <trkpt lat="45.97461" lon="4.93046">
        <ele>294.5</ele>
        <time>2015-07-06T09:33:48.004Z</time>
      </trkpt>
      <trkpt lat="45.97456" lon="4.93052">
        <ele>294.700012207</ele>
        <time>2015-07-06T09:33:49.02Z</time>
      </trkpt>
      <trkpt lat="45.97452" lon="4.93058">
        <ele>294.299987793</ele>
        <time>2015-07-06T09:33:50.004Z</time>
      </trkpt>
      <trkpt lat="45.97447" lon="4.93064">
        <ele>294.399993896</ele>
        <time>2015-07-06T09:33:51.007Z</time>
      </trkpt>
      <trkpt lat="45.97442" lon="4.93069">
        <ele>294.299987793</ele>
        <time>2015-07-06T09:33:52.004Z</time>
      </trkpt>
      <trkpt lat="45.97438" lon="4.93075">
        <ele>294.5</ele>
        <time>2015-07-06T09:33:53.002Z</time>
      </trkpt>
      <trkpt lat="45.97433" lon="4.93081">
        <ele>294.700012207</ele>
        <time>2015-07-06T09:33:54.037Z</time>
      </trkpt>
      <trkpt lat="45.97429" lon="4.93088">
        <ele>294.5</ele>
        <time>2015-07-06T09:33:55.002Z</time>
      </trkpt>
      <trkpt lat="45.97424" lon="4.93093">
        <ele>294.399993896</ele>
        <time>2015-07-06T09:33:56.003Z</time>
      </trkpt>
      <trkpt lat="45.97419" lon="4.93099">
        <ele>294.299987793</ele>
        <time>2015-07-06T09:33:57.02Z</time>
      </trkpt>
      <trkpt lat="45.97415" lon="4.93104">
        <ele>294.399993896</ele>
        <time>2015-07-06T09:33:58.002Z</time>
      </trkpt>
      <trkpt lat="45.9741" lon="4.9311">
        <ele>294.5</ele>
        <time>2015-07-06T09:33:59.001Z</time>
      </trkpt>
      <trkpt lat="45.97406" lon="4.93116">
        <ele>294.700012207</ele>
        <time>2015-07-06T09:34:00.028Z</time>
      </trkpt>
      <trkpt lat="45.97401" lon="4.93121">
        <ele>295</ele>
        <time>2015-07-06T09:34:01.001Z</time>
      </trkpt>
      <trkpt lat="45.97397" lon="4.93127">
        <ele>295</ele>
        <time>2015-07-06T09:34:02.005Z</time>
      </trkpt>
      <trkpt lat="45.97392" lon="4.93133">
        <ele>295.299987793</ele>
        <time>2015-07-06T09:34:03.001Z</time>
      </trkpt>
      <trkpt lat="45.97388" lon="4.93138">
        <ele>295.5</ele>
        <time>2015-07-06T09:34:04.001Z</time>
      </trkpt>
      <trkpt lat="45.97384" lon="4.93143">
        <ele>295.700012207</ele>
        <time>2015-07-06T09:34:05.023Z</time>
      </trkpt>
      <trkpt lat="45.9738" lon="4.93148">
        <ele>295.799987793</ele>
        <time>2015-07-06T09:34:06.005Z</time>
      </trkpt>
      <trkpt lat="45.97376" lon="4.93152">
        <ele>296.100006104</ele>
        <time>2015-07-06T09:34:07.003Z</time>
      </trkpt>
      <trkpt lat="45.97372" lon="4.93156">
        <ele>296.100006104</ele>
        <time>2015-07-06T09:34:08.005Z</time>
      </trkpt>
      <trkpt lat="45.97368" lon="4.93161">
        <ele>296.299987793</ele>
        <time>2015-07-06T09:34:09Z</time>
      </trkpt>
      <trkpt lat="45.97363" lon="4.93166">
        <ele>296.600006104</ele>
        <time>2015-07-06T09:34:10.003Z</time>
      </trkpt>
      <trkpt lat="45.97358" lon="4.93172">
        <ele>296.700012207</ele>
        <time>2015-07-06T09:34:11.001Z</time>
      </trkpt>
      <trkpt lat="45.97353" lon="4.93177">
        <ele>296.899993896</ele>
        <time>2015-07-06T09:34:12.008Z</time>
      </trkpt>
      <trkpt lat="45.97348" lon="4.93183">
        <ele>297</ele>
        <time>2015-07-06T09:34:13.003Z</time>
      </trkpt>
      <trkpt lat="45.97344" lon="4.93188">
        <ele>297.200012207</ele>
        <time>2015-07-06T09:34:14.005Z</time>
      </trkpt>
      <trkpt lat="45.97339" lon="4.93194">
        <ele>297.399993896</ele>
        <time>2015-07-06T09:34:15.004Z</time>
      </trkpt>
      <trkpt lat="45.97334" lon="4.932">
        <ele>297.5</ele>
        <time>2015-07-06T09:34:16.008Z</time>
      </trkpt>
      <trkpt lat="45.97329" lon="4.93205">
        <ele>297.700012207</ele>
        <time>2015-07-06T09:34:17.001Z</time>
      </trkpt>
      <trkpt lat="45.97324" lon="4.93211">
        <ele>297.899993896</ele>
        <time>2015-07-06T09:34:18.004Z</time>
      </trkpt>
      <trkpt lat="45.9732" lon="4.93217">
        <ele>298.100006104</ele>
        <time>2015-07-06T09:34:19.004Z</time>
      </trkpt>
      <trkpt lat="45.97315" lon="4.93222">
        <ele>298.200012207</ele>
        <time>2015-07-06T09:34:20.006Z</time>
      </trkpt>
      <trkpt lat="45.9731" lon="4.93232">
        <ele>298.399993896</ele>
        <time>2015-07-06T09:34:22.005Z</time>
      </trkpt>
      <trkpt lat="45.97307" lon="4.93236">
        <ele>298.700012207</ele>
        <time>2015-07-06T09:34:23.003Z</time>
      </trkpt>
      <trkpt lat="45.97303" lon="4.93241">
        <ele>299</ele>
        <time>2015-07-06T09:34:24.008Z</time>
      </trkpt>
      <trkpt lat="45.97298" lon="4.93245">
        <ele>299.299987793</ele>
        <time>2015-07-06T09:34:25.004Z</time>
      </trkpt>
      <trkpt lat="45.97294" lon="4.93251">
        <ele>299.5</ele>
        <time>2015-07-06T09:34:26.022Z</time>
      </trkpt>
      <trkpt lat="45.9729" lon="4.93257">
        <ele>299.799987793</ele>
        <time>2015-07-06T09:34:27.001Z</time>
      </trkpt>
      <trkpt lat="45.97285" lon="4.93263">
        <ele>300</ele>
        <time>2015-07-06T09:34:28.002Z</time>
      </trkpt>
      <trkpt lat="45.97279" lon="4.93269">
        <ele>299.899993896</ele>
        <time>2015-07-06T09:34:29.003Z</time>
      </trkpt>
      <trkpt lat="45.97274" lon="4.93275">
        <ele>299.899993896</ele>
        <time>2015-07-06T09:34:30.004Z</time>
      </trkpt>
      <trkpt lat="45.9727" lon="4.93281">
        <ele>299.5</ele>
        <time>2015-07-06T09:34:31.002Z</time>
      </trkpt>
      <trkpt lat="45.97265" lon="4.93287">
        <ele>299.600006104</ele>
        <time>2015-07-06T09:34:32.049Z</time>
      </trkpt>
      <trkpt lat="45.9726" lon="4.93293">
        <ele>299.299987793</ele>
        <time>2015-07-06T09:34:33.002Z</time>
      </trkpt>
      <trkpt lat="45.97255" lon="4.933">
        <ele>299.299987793</ele>
        <time>2015-07-06T09:34:34.002Z</time>
      </trkpt>
      <trkpt lat="45.9725" lon="4.93305">
        <ele>299</ele>
        <time>2015-07-06T09:34:35.004Z</time>
      </trkpt>
      <trkpt lat="45.97245" lon="4.93311">
        <ele>298.899993896</ele>
        <time>2015-07-06T09:34:36.006Z</time>
      </trkpt>
      <trkpt lat="45.9724" lon="4.93317">
        <ele>298.700012207</ele>
        <time>2015-07-06T09:34:37.004Z</time>
      </trkpt>
      <trkpt lat="45.97235" lon="4.93322">
        <ele>298.700012207</ele>
        <time>2015-07-06T09:34:38.004Z</time>
      </trkpt>
      <trkpt lat="45.97231" lon="4.93327">
        <ele>299</ele>
        <time>2015-07-06T09:34:39.003Z</time>
      </trkpt>
      <trkpt lat="45.97228" lon="4.93334">
        <ele>299</ele>
        <time>2015-07-06T09:34:40.003Z</time>
      </trkpt>
      <trkpt lat="45.97223" lon="4.9334">
        <ele>298.5</ele>
        <time>2015-07-06T09:34:41.002Z</time>
      </trkpt>
      <trkpt lat="45.97219" lon="4.93345">
        <ele>298.399993896</ele>
        <time>2015-07-06T09:34:42.025Z</time>
      </trkpt>
      <trkpt lat="45.97215" lon="4.93351">
        <ele>298.399993896</ele>
        <time>2015-07-06T09:34:43.001Z</time>
      </trkpt>
      <trkpt lat="45.9721" lon="4.93356">
        <ele>298.700012207</ele>
        <time>2015-07-06T09:34:44.002Z</time>
      </trkpt>
      <trkpt lat="45.97205" lon="4.93361">
        <ele>299.100006104</ele>
        <time>2015-07-06T09:34:45.002Z</time>
      </trkpt>
      <trkpt lat="45.972" lon="4.93366">
        <ele>299.200012207</ele>
        <time>2015-07-06T09:34:46.033Z</time>
      </trkpt>
      <trkpt lat="45.97196" lon="4.93372">
        <ele>299.399993896</ele>
        <time>2015-07-06T09:34:47.001Z</time>
      </trkpt>
      <trkpt lat="45.97191" lon="4.93377">
        <ele>299.700012207</ele>
        <time>2015-07-06T09:34:48.007Z</time>
      </trkpt>
      <trkpt lat="45.97187" lon="4.93383">
        <ele>300.100006104</ele>
        <time>2015-07-06T09:34:49.004Z</time>
      </trkpt>
      <trkpt lat="45.97183" lon="4.93389">
        <ele>300.299987793</ele>
        <time>2015-07-06T09:34:50.002Z</time>
      </trkpt>
      <trkpt lat="45.97179" lon="4.93394">
        <ele>300.600006104</ele>
        <time>2015-07-06T09:34:51.003Z</time>
      </trkpt>
      <trkpt lat="45.97174" lon="4.93399">
        <ele>300.899993896</ele>
        <time>2015-07-06T09:34:52.003Z</time>
      </trkpt>
      <trkpt lat="45.9717" lon="4.93404">
        <ele>301.100006104</ele>
        <time>2015-07-06T09:34:53.047Z</time>
      </trkpt>
      <trkpt lat="45.97165" lon="4.93409">
        <ele>301.5</ele>
        <time>2015-07-06T09:34:54.004Z</time>
      </trkpt>
      <trkpt lat="45.97161" lon="4.93415">
        <ele>301.700012207</ele>
        <time>2015-07-06T09:34:55.001Z</time>
      </trkpt>
      <trkpt lat="45.97157" lon="4.9342">
        <ele>302.100006104</ele>
        <time>2015-07-06T09:34:56.006Z</time>
      </trkpt>
      <trkpt lat="45.97152" lon="4.93425">
        <ele>302.299987793</ele>
        <time>2015-07-06T09:34:57.002Z</time>
      </trkpt>
      <trkpt lat="45.97148" lon="4.9343">
        <ele>302.5</ele>
        <time>2015-07-06T09:34:58.018Z</time>
      </trkpt>
      <trkpt lat="45.97143" lon="4.93436">
        <ele>302.600006104</ele>
        <time>2015-07-06T09:34:59.003Z</time>
      </trkpt>
      <trkpt lat="45.97139" lon="4.93442">
        <ele>302.799987793</ele>
        <time>2015-07-06T09:35:00.027Z</time>
      </trkpt>
      <trkpt lat="45.97134" lon="4.93447">
        <ele>303</ele>
        <time>2015-07-06T09:35:01.002Z</time>
      </trkpt>
      <trkpt lat="45.97129" lon="4.93453">
        <ele>303.299987793</ele>
        <time>2015-07-06T09:35:02.002Z</time>
      </trkpt>
      <trkpt lat="45.97124" lon="4.93459">
        <ele>303.700012207</ele>
        <time>2015-07-06T09:35:03.003Z</time>
      </trkpt>
      <trkpt lat="45.97118" lon="4.93464">
        <ele>304</ele>
        <time>2015-07-06T09:35:04.003Z</time>
      </trkpt>
      <trkpt lat="45.97114" lon="4.93469">
        <ele>304.100006104</ele>
        <time>2015-07-06T09:35:05.004Z</time>
      </trkpt>
      <trkpt lat="45.97109" lon="4.93475">
        <ele>303.899993896</ele>
        <time>2015-07-06T09:35:06.004Z</time>
      </trkpt>
      <trkpt lat="45.97104" lon="4.9348">
        <ele>303.799987793</ele>
        <time>2015-07-06T09:35:07Z</time>
      </trkpt>
      <trkpt lat="45.97099" lon="4.93485">
        <ele>303.799987793</ele>
        <time>2015-07-06T09:35:08.008Z</time>
      </trkpt>
      <trkpt lat="45.97095" lon="4.9349">
        <ele>304</ele>
        <time>2015-07-06T09:35:09.001Z</time>
      </trkpt>
      <trkpt lat="45.9709" lon="4.93495">
        <ele>304.100006104</ele>
        <time>2015-07-06T09:35:10.001Z</time>
      </trkpt>
      <trkpt lat="45.97086" lon="4.93501">
        <ele>304</ele>
        <time>2015-07-06T09:35:11.003Z</time>
      </trkpt>
      <trkpt lat="45.97082" lon="4.93506">
        <ele>304</ele>
        <time>2015-07-06T09:35:12.006Z</time>
      </trkpt>
      <trkpt lat="45.97078" lon="4.93512">
        <ele>304.100006104</ele>
        <time>2015-07-06T09:35:13.001Z</time>
      </trkpt>
      <trkpt lat="45.97073" lon="4.93517">
        <ele>304.100006104</ele>
        <time>2015-07-06T09:35:14.019Z</time>
      </trkpt>
      <trkpt lat="45.97069" lon="4.93523">
        <ele>304.200012207</ele>
        <time>2015-07-06T09:35:15.003Z</time>
      </trkpt>
      <trkpt lat="45.97064" lon="4.93528">
        <ele>304.100006104</ele>
        <time>2015-07-06T09:35:16.002Z</time>
      </trkpt>
      <trkpt lat="45.9706" lon="4.93534">
        <ele>304.100006104</ele>
        <time>2015-07-06T09:35:17.001Z</time>
      </trkpt>
      <trkpt lat="45.97056" lon="4.93539">
        <ele>304.299987793</ele>
        <time>2015-07-06T09:35:18.003Z</time>
      </trkpt>
      <trkpt lat="45.97051" lon="4.93545">
        <ele>304.399993896</ele>
        <time>2015-07-06T09:35:19.092Z</time>
      </trkpt>
      <trkpt lat="45.97047" lon="4.9355">
        <ele>304.399993896</ele>
        <time>2015-07-06T09:35:20.004Z</time>
      </trkpt>
      <trkpt lat="45.97042" lon="4.93556">
        <ele>304.5</ele>
        <time>2015-07-06T09:35:21.002Z</time>
      </trkpt>
      <trkpt lat="45.97037" lon="4.93562">
        <ele>304.600006104</ele>
        <time>2015-07-06T09:35:22.005Z</time>
      </trkpt>
      <trkpt lat="45.97032" lon="4.93568">
        <ele>304.700012207</ele>
        <time>2015-07-06T09:35:23.002Z</time>
      </trkpt>
      <trkpt lat="45.97028" lon="4.93573">
        <ele>304.700012207</ele>
        <time>2015-07-06T09:35:24.003Z</time>
      </trkpt>
      <trkpt lat="45.97023" lon="4.93579">
        <ele>304.700012207</ele>
        <time>2015-07-06T09:35:25Z</time>
      </trkpt>
      <trkpt lat="45.97019" lon="4.93586">
        <ele>304.899993896</ele>
        <time>2015-07-06T09:35:26.004Z</time>
      </trkpt>
      <trkpt lat="45.97015" lon="4.93592">
        <ele>305</ele>
        <time>2015-07-06T09:35:27.002Z</time>
      </trkpt>
      <trkpt lat="45.9701" lon="4.93598">
        <ele>305.100006104</ele>
        <time>2015-07-06T09:35:28.001Z</time>
      </trkpt>
      <trkpt lat="45.97006" lon="4.93604">
        <ele>305.299987793</ele>
        <time>2015-07-06T09:35:29.003Z</time>
      </trkpt>
      <trkpt lat="45.97001" lon="4.9361">
        <ele>305.399993896</ele>
        <time>2015-07-06T09:35:30.022Z</time>
      </trkpt>
      <trkpt lat="45.96996" lon="4.93617">
        <ele>305.399993896</ele>
        <time>2015-07-06T09:35:31.032Z</time>
      </trkpt>
      <trkpt lat="45.96991" lon="4.93623">
        <ele>305.399993896</ele>
        <time>2015-07-06T09:35:32.003Z</time>
      </trkpt>
      <trkpt lat="45.96986" lon="4.93629">
        <ele>305.399993896</ele>
        <time>2015-07-06T09:35:33.003Z</time>
      </trkpt>
      <trkpt lat="45.96981" lon="4.93636">
        <ele>305.399993896</ele>
        <time>2015-07-06T09:35:34.009Z</time>
      </trkpt>
      <trkpt lat="45.96976" lon="4.93642">
        <ele>305.200012207</ele>
        <time>2015-07-06T09:35:35.001Z</time>
      </trkpt>
      <trkpt lat="45.96971" lon="4.93648">
        <ele>305.299987793</ele>
        <time>2015-07-06T09:35:36.007Z</time>
      </trkpt>
      <trkpt lat="45.96966" lon="4.93654">
        <ele>305.299987793</ele>
        <time>2015-07-06T09:35:37.003Z</time>
      </trkpt>
      <trkpt lat="45.96961" lon="4.9366">
        <ele>305.100006104</ele>
        <time>2015-07-06T09:35:38.005Z</time>
      </trkpt>
      <trkpt lat="45.96956" lon="4.93665">
        <ele>305.100006104</ele>
        <time>2015-07-06T09:35:39Z</time>
      </trkpt>
      <trkpt lat="45.9695" lon="4.93671">
        <ele>304.5</ele>
        <time>2015-07-06T09:35:40.003Z</time>
      </trkpt>
      <trkpt lat="45.96945" lon="4.93677">
        <ele>304.100006104</ele>
        <time>2015-07-06T09:35:41Z</time>
      </trkpt>
      <trkpt lat="45.96941" lon="4.93683">
        <ele>304</ele>
        <time>2015-07-06T09:35:42.004Z</time>
      </trkpt>
      <trkpt lat="45.96936" lon="4.93688">
        <ele>304.100006104</ele>
        <time>2015-07-06T09:35:43.004Z</time>
      </trkpt>
      <trkpt lat="45.96931" lon="4.93694">
        <ele>303.799987793</ele>
        <time>2015-07-06T09:35:44.003Z</time>
      </trkpt>
      <trkpt lat="45.96925" lon="4.93699">
        <ele>303.100006104</ele>
        <time>2015-07-06T09:35:45.001Z</time>
      </trkpt>
      <trkpt lat="45.96919" lon="4.93704">
        <ele>302.899993896</ele>
        <time>2015-07-06T09:35:46.019Z</time>
      </trkpt>
      <trkpt lat="45.96913" lon="4.93709">
        <ele>302.799987793</ele>
        <time>2015-07-06T09:35:47.003Z</time>
      </trkpt>
      <trkpt lat="45.96907" lon="4.93714">
        <ele>302.5</ele>
        <time>2015-07-06T09:35:48.008Z</time>
      </trkpt>
      <trkpt lat="45.969" lon="4.93719">
        <ele>302.399993896</ele>
        <time>2015-07-06T09:35:49.001Z</time>
      </trkpt>
      <trkpt lat="45.96894" lon="4.93723">
        <ele>301.700012207</ele>
        <time>2015-07-06T09:35:50.003Z</time>
      </trkpt>
      <trkpt lat="45.96887" lon="4.93728">
        <ele>301.399993896</ele>
        <time>2015-07-06T09:35:51.047Z</time>
      </trkpt>
      <trkpt lat="45.9688" lon="4.93731">
        <ele>301.100006104</ele>
        <time>2015-07-06T09:35:52.004Z</time>
      </trkpt>
      <trkpt lat="45.96872" lon="4.93736">
        <ele>300.5</ele>
        <time>2015-07-06T09:35:53.001Z</time>
      </trkpt>
      <trkpt lat="45.96866" lon="4.9374">
        <ele>299.200012207</ele>
        <time>2015-07-06T09:35:54.007Z</time>
      </trkpt>
      <trkpt lat="45.9686" lon="4.93747">
        <ele>297.799987793</ele>
        <time>2015-07-06T09:35:55Z</time>
      </trkpt>
      <trkpt lat="45.96853" lon="4.9375">
        <ele>297</ele>
        <time>2015-07-06T09:35:56.002Z</time>
      </trkpt>
      <trkpt lat="45.96846" lon="4.93754">
        <ele>296.5</ele>
        <time>2015-07-06T09:35:57.003Z</time>
      </trkpt>
      <trkpt lat="45.96839" lon="4.93757">
        <ele>296</ele>
        <time>2015-07-06T09:35:58.001Z</time>
      </trkpt>
      <trkpt lat="45.96832" lon="4.9376">
        <ele>295.5</ele>
        <time>2015-07-06T09:35:59.002Z</time>
      </trkpt>
      <trkpt lat="45.96825" lon="4.93763">
        <ele>294.899993896</ele>
        <time>2015-07-06T09:36:00.029Z</time>
      </trkpt>
      <trkpt lat="45.96817" lon="4.93765">
        <ele>294.700012207</ele>
        <time>2015-07-06T09:36:01.001Z</time>
      </trkpt>
      <trkpt lat="45.9681" lon="4.93769">
        <ele>294.399993896</ele>
        <time>2015-07-06T09:36:02.021Z</time>
      </trkpt>
      <trkpt lat="45.96803" lon="4.93772">
        <ele>294.299987793</ele>
        <time>2015-07-06T09:36:03.002Z</time>
      </trkpt>
      <trkpt lat="45.96796" lon="4.93775">
        <ele>294.100006104</ele>
        <time>2015-07-06T09:36:04Z</time>
      </trkpt>
      <trkpt lat="45.96788" lon="4.93778">
        <ele>293.799987793</ele>
        <time>2015-07-06T09:36:05.002Z</time>
      </trkpt>
      <trkpt lat="45.96781" lon="4.9378">
        <ele>293.700012207</ele>
        <time>2015-07-06T09:36:06.102Z</time>
      </trkpt>
      <trkpt lat="45.96774" lon="4.93781">
        <ele>293.399993896</ele>
        <time>2015-07-06T09:36:07.003Z</time>
      </trkpt>
      <trkpt lat="45.96767" lon="4.93784">
        <ele>293.200012207</ele>
        <time>2015-07-06T09:36:08.004Z</time>
      </trkpt>
      <trkpt lat="45.96759" lon="4.93784">
        <ele>292.899993896</ele>
        <time>2015-07-06T09:36:09.004Z</time>
      </trkpt>
      <trkpt lat="45.96753" lon="4.93787">
        <ele>292.5</ele>
        <time>2015-07-06T09:36:10.004Z</time>
      </trkpt>
      <trkpt lat="45.96747" lon="4.93789">
        <ele>292.299987793</ele>
        <time>2015-07-06T09:36:11.003Z</time>
      </trkpt>
      <trkpt lat="45.9674" lon="4.93792">
        <ele>292.100006104</ele>
        <time>2015-07-06T09:36:12.003Z</time>
      </trkpt>
      <trkpt lat="45.96734" lon="4.93793">
        <ele>292.100006104</ele>
        <time>2015-07-06T09:36:13.003Z</time>
      </trkpt>
      <trkpt lat="45.96727" lon="4.93795">
        <ele>291.799987793</ele>
        <time>2015-07-06T09:36:14.004Z</time>
      </trkpt>
      <trkpt lat="45.96721" lon="4.93796">
        <ele>291.600006104</ele>
        <time>2015-07-06T09:36:15.002Z</time>
      </trkpt>
      <trkpt lat="45.96715" lon="4.93798">
        <ele>291.399993896</ele>
        <time>2015-07-06T09:36:16.008Z</time>
      </trkpt>
      <trkpt lat="45.96709" lon="4.93799">
        <ele>291.200012207</ele>
        <time>2015-07-06T09:36:17.002Z</time>
      </trkpt>
      <trkpt lat="45.96703" lon="4.93801">
        <ele>291</ele>
        <time>2015-07-06T09:36:18.082Z</time>
      </trkpt>
      <trkpt lat="45.96697" lon="4.93803">
        <ele>290.899993896</ele>
        <time>2015-07-06T09:36:19.003Z</time>
      </trkpt>
      <trkpt lat="45.96691" lon="4.93804">
        <ele>291</ele>
        <time>2015-07-06T09:36:20.004Z</time>
      </trkpt>
      <trkpt lat="45.96686" lon="4.93803">
        <ele>291.100006104</ele>
        <time>2015-07-06T09:36:21.003Z</time>
      </trkpt>
      <trkpt lat="45.9668" lon="4.93801">
        <ele>291.299987793</ele>
        <time>2015-07-06T09:36:22.004Z</time>
      </trkpt>
      <trkpt lat="45.96676" lon="4.93796">
        <ele>291.700012207</ele>
        <time>2015-07-06T09:36:23.002Z</time>
      </trkpt>
      <trkpt lat="45.96672" lon="4.9379">
        <ele>291.200012207</ele>
        <time>2015-07-06T09:36:24.009Z</time>
      </trkpt>
      <trkpt lat="45.96669" lon="4.93783">
        <ele>291.5</ele>
        <time>2015-07-06T09:36:25.004Z</time>
      </trkpt>
      <trkpt lat="45.96665" lon="4.93777">
        <ele>291.299987793</ele>
        <time>2015-07-06T09:36:26.001Z</time>
      </trkpt>
      <trkpt lat="45.96661" lon="4.93771">
        <ele>291.399993896</ele>
        <time>2015-07-06T09:36:27Z</time>
      </trkpt>
      <trkpt lat="45.96657" lon="4.93765">
        <ele>291.600006104</ele>
        <time>2015-07-06T09:36:28.002Z</time>
      </trkpt>
      <trkpt lat="45.96653" lon="4.9376">
        <ele>292</ele>
        <time>2015-07-06T09:36:29Z</time>
      </trkpt>
      <trkpt lat="45.96648" lon="4.93754">
        <ele>292.100006104</ele>
        <time>2015-07-06T09:36:30.052Z</time>
      </trkpt>
      <trkpt lat="45.96643" lon="4.93749">
        <ele>292.299987793</ele>
        <time>2015-07-06T09:36:31.002Z</time>
      </trkpt>
      <trkpt lat="45.96639" lon="4.93744">
        <ele>292.399993896</ele>
        <time>2015-07-06T09:36:32.001Z</time>
      </trkpt>
      <trkpt lat="45.96634" lon="4.93739">
        <ele>292.600006104</ele>
        <time>2015-07-06T09:36:33.002Z</time>
      </trkpt>
      <trkpt lat="45.96628" lon="4.93735">
        <ele>292.799987793</ele>
        <time>2015-07-06T09:36:34.016Z</time>
      </trkpt>
      <trkpt lat="45.96623" lon="4.9373">
        <ele>292.799987793</ele>
        <time>2015-07-06T09:36:35.001Z</time>
      </trkpt>
      <trkpt lat="45.96618" lon="4.93725">
        <ele>293.100006104</ele>
        <time>2015-07-06T09:36:36.02Z</time>
      </trkpt>
      <trkpt lat="45.96613" lon="4.93719">
        <ele>293.399993896</ele>
        <time>2015-07-06T09:36:37.004Z</time>
      </trkpt>
      <trkpt lat="45.96608" lon="4.93714">
        <ele>293.700012207</ele>
        <time>2015-07-06T09:36:38.003Z</time>
      </trkpt>
      <trkpt lat="45.96602" lon="4.93708">
        <ele>293.899993896</ele>
        <time>2015-07-06T09:36:39.004Z</time>
      </trkpt>
      <trkpt lat="45.96597" lon="4.93701">
        <ele>294.5</ele>
        <time>2015-07-06T09:36:40.003Z</time>
      </trkpt>
      <trkpt lat="45.96591" lon="4.93695">
        <ele>294.700012207</ele>
        <time>2015-07-06T09:36:41.022Z</time>
      </trkpt>
      <trkpt lat="45.96586" lon="4.93689">
        <ele>294.299987793</ele>
        <time>2015-07-06T09:36:42.004Z</time>
      </trkpt>
      <trkpt lat="45.96581" lon="4.93682">
        <ele>294.100006104</ele>
        <time>2015-07-06T09:36:43Z</time>
      </trkpt>
      <trkpt lat="45.96576" lon="4.93675">
        <ele>294</ele>
        <time>2015-07-06T09:36:44.001Z</time>
      </trkpt>
      <trkpt lat="45.96571" lon="4.93668">
        <ele>293.799987793</ele>
        <time>2015-07-06T09:36:45Z</time>
      </trkpt>
      <trkpt lat="45.96567" lon="4.93662">
        <ele>293.799987793</ele>
        <time>2015-07-06T09:36:46.017Z</time>
      </trkpt>
      <trkpt lat="45.96562" lon="4.93656">
        <ele>294.200012207</ele>
        <time>2015-07-06T09:36:46.999Z</time>
      </trkpt>
      <trkpt lat="45.96558" lon="4.9365">
        <ele>294.299987793</ele>
        <time>2015-07-06T09:36:48.007Z</time>
      </trkpt>
      <trkpt lat="45.96554" lon="4.93644">
        <ele>294.299987793</ele>
        <time>2015-07-06T09:36:49.002Z</time>
      </trkpt>
      <trkpt lat="45.96549" lon="4.93638">
        <ele>294.100006104</ele>
        <time>2015-07-06T09:36:50.004Z</time>
      </trkpt>
      <trkpt lat="45.96545" lon="4.93632">
        <ele>294.100006104</ele>
        <time>2015-07-06T09:36:51.001Z</time>
      </trkpt>
      <trkpt lat="45.9654" lon="4.93626">
        <ele>294</ele>
        <time>2015-07-06T09:36:52.001Z</time>
      </trkpt>
      <trkpt lat="45.96535" lon="4.9362">
        <ele>293.600006104</ele>
        <time>2015-07-06T09:36:53Z</time>
      </trkpt>
      <trkpt lat="45.96531" lon="4.93614">
        <ele>294.100006104</ele>
        <time>2015-07-06T09:36:54.005Z</time>
      </trkpt>
      <trkpt lat="45.96527" lon="4.93607">
        <ele>294.200012207</ele>
        <time>2015-07-06T09:36:55.017Z</time>
      </trkpt>
      <trkpt lat="45.96523" lon="4.936">
        <ele>294.600006104</ele>
        <time>2015-07-06T09:36:56.004Z</time>
      </trkpt>
      <trkpt lat="45.96518" lon="4.93594">
        <ele>295.100006104</ele>
        <time>2015-07-06T09:36:57.002Z</time>
      </trkpt>
      <trkpt lat="45.96513" lon="4.93587">
        <ele>294.799987793</ele>
        <time>2015-07-06T09:36:58.001Z</time>
      </trkpt>
      <trkpt lat="45.96509" lon="4.93581">
        <ele>295</ele>
        <time>2015-07-06T09:36:59.001Z</time>
      </trkpt>
      <trkpt lat="45.96504" lon="4.93574">
        <ele>295</ele>
        <time>2015-07-06T09:37:00.042Z</time>
      </trkpt>
      <trkpt lat="45.965" lon="4.93568">
        <ele>295</ele>
        <time>2015-07-06T09:37:01.004Z</time>
      </trkpt>
      <trkpt lat="45.96495" lon="4.93562">
        <ele>295.299987793</ele>
        <time>2015-07-06T09:37:02.001Z</time>
      </trkpt>
      <trkpt lat="45.96491" lon="4.93555">
        <ele>295.100006104</ele>
        <time>2015-07-06T09:37:03Z</time>
      </trkpt>
      <trkpt lat="45.96487" lon="4.93549">
        <ele>295.200012207</ele>
        <time>2015-07-06T09:37:04.003Z</time>
      </trkpt>
      <trkpt lat="45.96483" lon="4.93544">
        <ele>295.299987793</ele>
        <time>2015-07-06T09:37:05.062Z</time>
      </trkpt>
      <trkpt lat="45.96479" lon="4.93538">
        <ele>295.399993896</ele>
        <time>2015-07-06T09:37:06.031Z</time>
      </trkpt>
      <trkpt lat="45.96475" lon="4.93532">
        <ele>294.899993896</ele>
        <time>2015-07-06T09:37:07Z</time>
      </trkpt>
      <trkpt lat="45.96471" lon="4.93526">
        <ele>295.299987793</ele>
        <time>2015-07-06T09:37:08.002Z</time>
      </trkpt>
      <trkpt lat="45.96467" lon="4.9352">
        <ele>295.399993896</ele>
        <time>2015-07-06T09:37:09.037Z</time>
      </trkpt>
      <trkpt lat="45.96464" lon="4.93513">
        <ele>295.600006104</ele>
        <time>2015-07-06T09:37:10.004Z</time>
      </trkpt>
      <trkpt lat="45.96461" lon="4.93506">
        <ele>295.799987793</ele>
        <time>2015-07-06T09:37:11.002Z</time>
      </trkpt>
      <trkpt lat="45.96456" lon="4.935">
        <ele>295.799987793</ele>
        <time>2015-07-06T09:37:12.005Z</time>
      </trkpt>
      <trkpt lat="45.96451" lon="4.93493">
        <ele>295.899993896</ele>
        <time>2015-07-06T09:37:13.046Z</time>
      </trkpt>
      <trkpt lat="45.96447" lon="4.93487">
        <ele>295.899993896</ele>
        <time>2015-07-06T09:37:14.008Z</time>
      </trkpt>
      <trkpt lat="45.96442" lon="4.93481">
        <ele>295.899993896</ele>
        <time>2015-07-06T09:37:15Z</time>
      </trkpt>
      <trkpt lat="45.96438" lon="4.93475">
        <ele>296</ele>
        <time>2015-07-06T09:37:16.022Z</time>
      </trkpt>
      <trkpt lat="45.96434" lon="4.93468">
        <ele>296.100006104</ele>
        <time>2015-07-06T09:37:17.002Z</time>
      </trkpt>
      <trkpt lat="45.96428" lon="4.93462">
        <ele>295.899993896</ele>
        <time>2015-07-06T09:37:18.011Z</time>
      </trkpt>
      <trkpt lat="45.96422" lon="4.93456">
        <ele>295.899993896</ele>
        <time>2015-07-06T09:37:19.005Z</time>
      </trkpt>
      <trkpt lat="45.96417" lon="4.9345">
        <ele>295.899993896</ele>
        <time>2015-07-06T09:37:20.003Z</time>
      </trkpt>
      <trkpt lat="45.96412" lon="4.93445">
        <ele>296</ele>
        <time>2015-07-06T09:37:21.004Z</time>
      </trkpt>
      <trkpt lat="45.96408" lon="4.93441">
        <ele>296</ele>
        <time>2015-07-06T09:37:22.004Z</time>
      </trkpt>
      <trkpt lat="45.96403" lon="4.93437">
        <ele>296</ele>
        <time>2015-07-06T09:37:23.002Z</time>
      </trkpt>
      <trkpt lat="45.96398" lon="4.93433">
        <ele>295.899993896</ele>
        <time>2015-07-06T09:37:24.003Z</time>
      </trkpt>
      <trkpt lat="45.96393" lon="4.93428">
        <ele>295.700012207</ele>
        <time>2015-07-06T09:37:25.002Z</time>
      </trkpt>
      <trkpt lat="45.96388" lon="4.93424">
        <ele>295.5</ele>
        <time>2015-07-06T09:37:26.003Z</time>
      </trkpt>
      <trkpt lat="45.96383" lon="4.9342">
        <ele>295.399993896</ele>
        <time>2015-07-06T09:37:27.002Z</time>
      </trkpt>
      <trkpt lat="45.96378" lon="4.93417">
        <ele>295</ele>
        <time>2015-07-06T09:37:28.004Z</time>
      </trkpt>
      <trkpt lat="45.96372" lon="4.93413">
        <ele>294.799987793</ele>
        <time>2015-07-06T09:37:29.092Z</time>
      </trkpt>
      <trkpt lat="45.96367" lon="4.9341">
        <ele>294.700012207</ele>
        <time>2015-07-06T09:37:30.003Z</time>
      </trkpt>
      <trkpt lat="45.96362" lon="4.93406">
        <ele>294.799987793</ele>
        <time>2015-07-06T09:37:31.005Z</time>
      </trkpt>
      <trkpt lat="45.96358" lon="4.93402">
        <ele>294.600006104</ele>
        <time>2015-07-06T09:37:32.017Z</time>
      </trkpt>
      <trkpt lat="45.96353" lon="4.93398">
        <ele>294.299987793</ele>
        <time>2015-07-06T09:37:33Z</time>
      </trkpt>
      <trkpt lat="45.96348" lon="4.93395">
        <ele>294.100006104</ele>
        <time>2015-07-06T09:37:34.005Z</time>
      </trkpt>
      <trkpt lat="45.96341" lon="4.93392">
        <ele>294.100006104</ele>
        <time>2015-07-06T09:37:35Z</time>
      </trkpt>
      <trkpt lat="45.96335" lon="4.93388">
        <ele>294.100006104</ele>
        <time>2015-07-06T09:37:36.005Z</time>
      </trkpt>
      <trkpt lat="45.9633" lon="4.93385">
        <ele>294.200012207</ele>
        <time>2015-07-06T09:37:37Z</time>
      </trkpt>
      <trkpt lat="45.96324" lon="4.93381">
        <ele>294.700012207</ele>
        <time>2015-07-06T09:37:38.003Z</time>
      </trkpt>
      <trkpt lat="45.96319" lon="4.93378">
        <ele>294.700012207</ele>
        <time>2015-07-06T09:37:38.998Z</time>
      </trkpt>
      <trkpt lat="45.96313" lon="4.93375">
        <ele>295</ele>
        <time>2015-07-06T09:37:40.003Z</time>
      </trkpt>
      <trkpt lat="45.96308" lon="4.93371">
        <ele>295.100006104</ele>
        <time>2015-07-06T09:37:41.032Z</time>
      </trkpt>
      <trkpt lat="45.96303" lon="4.93367">
        <ele>295.200012207</ele>
        <time>2015-07-06T09:37:42.003Z</time>
      </trkpt>
      <trkpt lat="45.96297" lon="4.93363">
        <ele>295.299987793</ele>
        <time>2015-07-06T09:37:43.002Z</time>
      </trkpt>
      <trkpt lat="45.96291" lon="4.93359">
        <ele>295.399993896</ele>
        <time>2015-07-06T09:37:44.006Z</time>
      </trkpt>
      <trkpt lat="45.96286" lon="4.93356">
        <ele>295.399993896</ele>
        <time>2015-07-06T09:37:44.999Z</time>
      </trkpt>
      <trkpt lat="45.9628" lon="4.93353">
        <ele>295.799987793</ele>
        <time>2015-07-06T09:37:46.016Z</time>
      </trkpt>
      <trkpt lat="45.96275" lon="4.9335">
        <ele>296.100006104</ele>
        <time>2015-07-06T09:37:47Z</time>
      </trkpt>
      <trkpt lat="45.96268" lon="4.93346">
        <ele>296.100006104</ele>
        <time>2015-07-06T09:37:48.025Z</time>
      </trkpt>
      <trkpt lat="45.96263" lon="4.93342">
        <ele>296</ele>
        <time>2015-07-06T09:37:49.034Z</time>
      </trkpt>
      <trkpt lat="45.96258" lon="4.93338">
        <ele>296.200012207</ele>
        <time>2015-07-06T09:37:50.001Z</time>
      </trkpt>
      <trkpt lat="45.96252" lon="4.93333">
        <ele>296.200012207</ele>
        <time>2015-07-06T09:37:50.999Z</time>
      </trkpt>
      <trkpt lat="45.96247" lon="4.93329">
        <ele>296</ele>
        <time>2015-07-06T09:37:52.001Z</time>
      </trkpt>
      <trkpt lat="45.96242" lon="4.93323">
        <ele>296.200012207</ele>
        <time>2015-07-06T09:37:53.001Z</time>
      </trkpt>
      <trkpt lat="45.96238" lon="4.93318">
        <ele>296.200012207</ele>
        <time>2015-07-06T09:37:54.062Z</time>
      </trkpt>
      <trkpt lat="45.96232" lon="4.93312">
        <ele>296.399993896</ele>
        <time>2015-07-06T09:37:55.002Z</time>
      </trkpt>
      <trkpt lat="45.96228" lon="4.93305">
        <ele>296.299987793</ele>
        <time>2015-07-06T09:37:56.018Z</time>
      </trkpt>
      <trkpt lat="45.96224" lon="4.93298">
        <ele>296.600006104</ele>
        <time>2015-07-06T09:37:57.002Z</time>
      </trkpt>
      <trkpt lat="45.96219" lon="4.9329">
        <ele>296.299987793</ele>
        <time>2015-07-06T09:37:58.003Z</time>
      </trkpt>
      <trkpt lat="45.96215" lon="4.93282">
        <ele>296.5</ele>
        <time>2015-07-06T09:37:58.999Z</time>
      </trkpt>
      <trkpt lat="45.96211" lon="4.93275">
        <ele>296.799987793</ele>
        <time>2015-07-06T09:38:00.023Z</time>
      </trkpt>
      <trkpt lat="45.96207" lon="4.93266">
        <ele>296.899993896</ele>
        <time>2015-07-06T09:38:01.003Z</time>
      </trkpt>
      <trkpt lat="45.96203" lon="4.93258">
        <ele>296.799987793</ele>
        <time>2015-07-06T09:38:02.003Z</time>
      </trkpt>
      <trkpt lat="45.962" lon="4.93249">
        <ele>296.5</ele>
        <time>2015-07-06T09:38:03.003Z</time>
      </trkpt>
      <trkpt lat="45.96198" lon="4.93241">
        <ele>296.299987793</ele>
        <time>2015-07-06T09:38:04.017Z</time>
      </trkpt>
      <trkpt lat="45.96195" lon="4.93231">
        <ele>296.200012207</ele>
        <time>2015-07-06T09:38:04.999Z</time>
      </trkpt>
      <trkpt lat="45.96192" lon="4.93223">
        <ele>296.200012207</ele>
        <time>2015-07-06T09:38:06.021Z</time>
      </trkpt>
      <trkpt lat="45.9619" lon="4.93214">
        <ele>295.799987793</ele>
        <time>2015-07-06T09:38:07.004Z</time>
      </trkpt>
      <trkpt lat="45.96187" lon="4.93204">
        <ele>295.5</ele>
        <time>2015-07-06T09:38:08.039Z</time>
      </trkpt>
      <trkpt lat="45.96184" lon="4.93195">
        <ele>295.200012207</ele>
        <time>2015-07-06T09:38:08.999Z</time>
      </trkpt>
      <trkpt lat="45.96181" lon="4.93186">
        <ele>295.100006104</ele>
        <time>2015-07-06T09:38:10.005Z</time>
      </trkpt>
      <trkpt lat="45.9618" lon="4.93176">
        <ele>295.100006104</ele>
        <time>2015-07-06T09:38:10.999Z</time>
      </trkpt>
      <trkpt lat="45.96177" lon="4.93168">
        <ele>295.100006104</ele>
        <time>2015-07-06T09:38:12.006Z</time>
      </trkpt>
      <trkpt lat="45.96173" lon="4.93159">
        <ele>295.200012207</ele>
        <time>2015-07-06T09:38:13Z</time>
      </trkpt>
      <trkpt lat="45.9617" lon="4.9315">
        <ele>295</ele>
        <time>2015-07-06T09:38:14Z</time>
      </trkpt>
      <trkpt lat="45.96166" lon="4.93139">
        <ele>295.100006104</ele>
        <time>2015-07-06T09:38:15.003Z</time>
      </trkpt>
      <trkpt lat="45.96163" lon="4.93129">
        <ele>295.100006104</ele>
        <time>2015-07-06T09:38:16.007Z</time>
      </trkpt>
      <trkpt lat="45.96158" lon="4.93118">
        <ele>295.200012207</ele>
        <time>2015-07-06T09:38:17.003Z</time>
      </trkpt>
      <trkpt lat="45.96155" lon="4.93108">
        <ele>295.200012207</ele>
        <time>2015-07-06T09:38:18.004Z</time>
      </trkpt>
      <trkpt lat="45.96152" lon="4.93098">
        <ele>295.5</ele>
        <time>2015-07-06T09:38:19.003Z</time>
      </trkpt>
      <trkpt lat="45.96149" lon="4.93088">
        <ele>295.600006104</ele>
        <time>2015-07-06T09:38:20.018Z</time>
      </trkpt>
      <trkpt lat="45.96145" lon="4.93078">
        <ele>295.700012207</ele>
        <time>2015-07-06T09:38:21.001Z</time>
      </trkpt>
      <trkpt lat="45.96142" lon="4.93068">
        <ele>295.899993896</ele>
        <time>2015-07-06T09:38:22.004Z</time>
      </trkpt>
      <trkpt lat="45.9614" lon="4.93058">
        <ele>296</ele>
        <time>2015-07-06T09:38:23.001Z</time>
      </trkpt>
      <trkpt lat="45.96137" lon="4.93049">
        <ele>296</ele>
        <time>2015-07-06T09:38:24.004Z</time>
      </trkpt>
      <trkpt lat="45.96135" lon="4.93039">
        <ele>295.700012207</ele>
        <time>2015-07-06T09:38:25.003Z</time>
      </trkpt>
      <trkpt lat="45.96132" lon="4.9303">
        <ele>295.799987793</ele>
        <time>2015-07-06T09:38:26.017Z</time>
      </trkpt>
      <trkpt lat="45.96129" lon="4.93021">
        <ele>295.700012207</ele>
        <time>2015-07-06T09:38:26.999Z</time>
      </trkpt>
      <trkpt lat="45.96127" lon="4.93012">
        <ele>295.700012207</ele>
        <time>2015-07-06T09:38:28.037Z</time>
      </trkpt>
      <trkpt lat="45.96124" lon="4.93003">
        <ele>295.5</ele>
        <time>2015-07-06T09:38:28.999Z</time>
      </trkpt>
      <trkpt lat="45.96121" lon="4.92995">
        <ele>295.600006104</ele>
        <time>2015-07-06T09:38:30.007Z</time>
      </trkpt>
      <trkpt lat="45.96119" lon="4.92987">
        <ele>295.600006104</ele>
        <time>2015-07-06T09:38:31.002Z</time>
      </trkpt>
      <trkpt lat="45.96117" lon="4.92979">
        <ele>295.899993896</ele>
        <time>2015-07-06T09:38:32Z</time>
      </trkpt>
      <trkpt lat="45.96115" lon="4.92971">
        <ele>296</ele>
        <time>2015-07-06T09:38:33.001Z</time>
      </trkpt>
      <trkpt lat="45.96112" lon="4.92963">
        <ele>296.200012207</ele>
        <time>2015-07-06T09:38:33.999Z</time>
      </trkpt>
      <trkpt lat="45.9611" lon="4.92956">
        <ele>296.5</ele>
        <time>2015-07-06T09:38:34.999Z</time>
      </trkpt>
      <trkpt lat="45.96107" lon="4.92948">
        <ele>296.700012207</ele>
        <time>2015-07-06T09:38:36.04Z</time>
      </trkpt>
      <trkpt lat="45.96105" lon="4.92941">
        <ele>297.200012207</ele>
        <time>2015-07-06T09:38:37.001Z</time>
      </trkpt>
      <trkpt lat="45.96103" lon="4.92933">
        <ele>297.600006104</ele>
        <time>2015-07-06T09:38:38Z</time>
      </trkpt>
      <trkpt lat="45.961" lon="4.92925">
        <ele>297.600006104</ele>
        <time>2015-07-06T09:38:39Z</time>
      </trkpt>
      <trkpt lat="45.96098" lon="4.92917">
        <ele>297.5</ele>
        <time>2015-07-06T09:38:40.004Z</time>
      </trkpt>
      <trkpt lat="45.96097" lon="4.92908">
        <ele>297</ele>
        <time>2015-07-06T09:38:41.001Z</time>
      </trkpt>
      <trkpt lat="45.96095" lon="4.929">
        <ele>297.200012207</ele>
        <time>2015-07-06T09:38:42.005Z</time>
      </trkpt>
      <trkpt lat="45.96093" lon="4.92891">
        <ele>297.200012207</ele>
        <time>2015-07-06T09:38:43.001Z</time>
      </trkpt>
      <trkpt lat="45.9609" lon="4.92883">
        <ele>297.100006104</ele>
        <time>2015-07-06T09:38:44.002Z</time>
      </trkpt>
      <trkpt lat="45.96088" lon="4.92874">
        <ele>297.299987793</ele>
        <time>2015-07-06T09:38:44.999Z</time>
      </trkpt>
      <trkpt lat="45.96085" lon="4.92865">
        <ele>297.299987793</ele>
        <time>2015-07-06T09:38:46.003Z</time>
      </trkpt>
      <trkpt lat="45.96083" lon="4.92856">
        <ele>297.299987793</ele>
        <time>2015-07-06T09:38:46.999Z</time>
      </trkpt>
      <trkpt lat="45.9608" lon="4.92847">
        <ele>297.200012207</ele>
        <time>2015-07-06T09:38:48.039Z</time>
      </trkpt>
      <trkpt lat="45.96077" lon="4.92838">
        <ele>296.899993896</ele>
        <time>2015-07-06T09:38:49.002Z</time>
      </trkpt>
      <trkpt lat="45.96073" lon="4.9283">
        <ele>296.700012207</ele>
        <time>2015-07-06T09:38:50.002Z</time>
      </trkpt>
      <trkpt lat="45.9607" lon="4.92821">
        <ele>296.899993896</ele>
        <time>2015-07-06T09:38:50.999Z</time>
      </trkpt>
      <trkpt lat="45.96067" lon="4.92812">
        <ele>297.100006104</ele>
        <time>2015-07-06T09:38:52.015Z</time>
      </trkpt>
      <trkpt lat="45.96065" lon="4.92803">
        <ele>297.299987793</ele>
        <time>2015-07-06T09:38:53.024Z</time>
      </trkpt>
      <trkpt lat="45.96061" lon="4.92794">
        <ele>297.100006104</ele>
        <time>2015-07-06T09:38:54.003Z</time>
      </trkpt>
      <trkpt lat="45.96058" lon="4.92785">
        <ele>297.100006104</ele>
        <time>2015-07-06T09:38:54.998Z</time>
      </trkpt>
      <trkpt lat="45.96055" lon="4.92777">
        <ele>297.399993896</ele>
        <time>2015-07-06T09:38:56.021Z</time>
      </trkpt>
      <trkpt lat="45.96052" lon="4.92768">
        <ele>297.700012207</ele>
        <time>2015-07-06T09:38:56.999Z</time>
      </trkpt>
      <trkpt lat="45.9605" lon="4.9276">
        <ele>298</ele>
        <time>2015-07-06T09:38:58.002Z</time>
      </trkpt>
      <trkpt lat="45.96047" lon="4.92751">
        <ele>298</ele>
        <time>2015-07-06T09:38:59.001Z</time>
      </trkpt>
      <trkpt lat="45.96045" lon="4.92742">
        <ele>298.200012207</ele>
        <time>2015-07-06T09:39:00.026Z</time>
      </trkpt>
      <trkpt lat="45.96042" lon="4.92733">
        <ele>298.299987793</ele>
        <time>2015-07-06T09:39:00.999Z</time>
      </trkpt>
      <trkpt lat="45.9604" lon="4.92725">
        <ele>298.5</ele>
        <time>2015-07-06T09:39:01.999Z</time>
      </trkpt>
      <trkpt lat="45.96038" lon="4.92716">
        <ele>298.899993896</ele>
        <time>2015-07-06T09:39:03.001Z</time>
      </trkpt>
      <trkpt lat="45.96035" lon="4.92708">
        <ele>299.100006104</ele>
        <time>2015-07-06T09:39:04.003Z</time>
      </trkpt>
      <trkpt lat="45.96033" lon="4.927">
        <ele>299.299987793</ele>
        <time>2015-07-06T09:39:05.004Z</time>
      </trkpt>
      <trkpt lat="45.96031" lon="4.92692">
        <ele>299.299987793</ele>
        <time>2015-07-06T09:39:06.012Z</time>
      </trkpt>
      <trkpt lat="45.96029" lon="4.92684">
        <ele>299.299987793</ele>
        <time>2015-07-06T09:39:07.032Z</time>
      </trkpt>
      <trkpt lat="45.96027" lon="4.92676">
        <ele>299.100006104</ele>
        <time>2015-07-06T09:39:08.016Z</time>
      </trkpt>
      <trkpt lat="45.96025" lon="4.92668">
        <ele>299.100006104</ele>
        <time>2015-07-06T09:39:08.999Z</time>
      </trkpt>
      <trkpt lat="45.96022" lon="4.9266">
        <ele>299.299987793</ele>
        <time>2015-07-06T09:39:10Z</time>
      </trkpt>
      <trkpt lat="45.9602" lon="4.92652">
        <ele>299.100006104</ele>
        <time>2015-07-06T09:39:11.001Z</time>
      </trkpt>
      <trkpt lat="45.96017" lon="4.92643">
        <ele>299.399993896</ele>
        <time>2015-07-06T09:39:12.007Z</time>
      </trkpt>
      <trkpt lat="45.96015" lon="4.92635">
        <ele>299.299987793</ele>
        <time>2015-07-06T09:39:13Z</time>
      </trkpt>
      <trkpt lat="45.96013" lon="4.92627">
        <ele>299.200012207</ele>
        <time>2015-07-06T09:39:14.011Z</time>
      </trkpt>
      <trkpt lat="45.96011" lon="4.9262">
        <ele>299</ele>
        <time>2015-07-06T09:39:14.999Z</time>
      </trkpt>
      <trkpt lat="45.96009" lon="4.92611">
        <ele>299</ele>
        <time>2015-07-06T09:39:16.016Z</time>
      </trkpt>
      <trkpt lat="45.96007" lon="4.92603">
        <ele>298.299987793</ele>
        <time>2015-07-06T09:39:16.999Z</time>
      </trkpt>
      <trkpt lat="45.96006" lon="4.92594">
        <ele>297.899993896</ele>
        <time>2015-07-06T09:39:18.003Z</time>
      </trkpt>
      <trkpt lat="45.96005" lon="4.92585">
        <ele>297.700012207</ele>
        <time>2015-07-06T09:39:18.999Z</time>
      </trkpt>
      <trkpt lat="45.96002" lon="4.92575">
        <ele>297.600006104</ele>
        <time>2015-07-06T09:39:20.002Z</time>
      </trkpt>
      <trkpt lat="45.96" lon="4.92566">
        <ele>297.200012207</ele>
        <time>2015-07-06T09:39:21.001Z</time>
      </trkpt>
      <trkpt lat="45.95997" lon="4.92557">
        <ele>296.799987793</ele>
        <time>2015-07-06T09:39:22.005Z</time>
      </trkpt>
      <trkpt lat="45.95995" lon="4.92548">
        <ele>296.700012207</ele>
        <time>2015-07-06T09:39:22.998Z</time>
      </trkpt>
      <trkpt lat="45.95993" lon="4.92539">
        <ele>296.700012207</ele>
        <time>2015-07-06T09:39:24.019Z</time>
      </trkpt>
      <trkpt lat="45.9599" lon="4.9253">
        <ele>296.600006104</ele>
        <time>2015-07-06T09:39:24.999Z</time>
      </trkpt>
      <trkpt lat="45.95987" lon="4.92522">
        <ele>296.399993896</ele>
        <time>2015-07-06T09:39:26.003Z</time>
      </trkpt>
      <trkpt lat="45.95986" lon="4.92512">
        <ele>296.299987793</ele>
        <time>2015-07-06T09:39:27.001Z</time>
      </trkpt>
      <trkpt lat="45.95985" lon="4.92503">
        <ele>296.799987793</ele>
        <time>2015-07-06T09:39:28.002Z</time>
      </trkpt>
      <trkpt lat="45.95983" lon="4.92493">
        <ele>296.299987793</ele>
        <time>2015-07-06T09:39:28.999Z</time>
      </trkpt>
      <trkpt lat="45.95981" lon="4.92484">
        <ele>296.399993896</ele>
        <time>2015-07-06T09:39:30.002Z</time>
      </trkpt>
      <trkpt lat="45.9598" lon="4.92476">
        <ele>296.700012207</ele>
        <time>2015-07-06T09:39:30.999Z</time>
      </trkpt>
      <trkpt lat="45.95978" lon="4.92468">
        <ele>297.100006104</ele>
        <time>2015-07-06T09:39:32Z</time>
      </trkpt>
      <trkpt lat="45.95977" lon="4.9246">
        <ele>297.799987793</ele>
        <time>2015-07-06T09:39:32.998Z</time>
      </trkpt>
      <trkpt lat="45.95975" lon="4.92452">
        <ele>298</ele>
        <time>2015-07-06T09:39:33.998Z</time>
      </trkpt>
      <trkpt lat="45.95974" lon="4.92445">
        <ele>298.200012207</ele>
        <time>2015-07-06T09:39:34.998Z</time>
      </trkpt>
      <trkpt lat="45.95972" lon="4.92437">
        <ele>298.5</ele>
        <time>2015-07-06T09:39:36.004Z</time>
      </trkpt>
      <trkpt lat="45.95971" lon="4.9243">
        <ele>298.600006104</ele>
        <time>2015-07-06T09:39:36.998Z</time>
      </trkpt>
      <trkpt lat="45.95969" lon="4.92422">
        <ele>298.799987793</ele>
        <time>2015-07-06T09:39:38.005Z</time>
      </trkpt>
      <trkpt lat="45.95968" lon="4.92414">
        <ele>298.700012207</ele>
        <time>2015-07-06T09:39:39.001Z</time>
      </trkpt>
      <trkpt lat="45.95967" lon="4.92406">
        <ele>298.700012207</ele>
        <time>2015-07-06T09:39:39.998Z</time>
      </trkpt>
      <trkpt lat="45.95966" lon="4.92398">
        <ele>298.799987793</ele>
        <time>2015-07-06T09:39:41.001Z</time>
      </trkpt>
      <trkpt lat="45.95965" lon="4.9239">
        <ele>299.700012207</ele>
        <time>2015-07-06T09:39:42.003Z</time>
      </trkpt>
      <trkpt lat="45.95963" lon="4.92383">
        <ele>299.799987793</ele>
        <time>2015-07-06T09:39:42.999Z</time>
      </trkpt>
      <trkpt lat="45.95962" lon="4.92376">
        <ele>300</ele>
        <time>2015-07-06T09:39:44.001Z</time>
      </trkpt>
      <trkpt lat="45.9596" lon="4.92369">
        <ele>300.399993896</ele>
        <time>2015-07-06T09:39:45.015Z</time>
      </trkpt>
      <trkpt lat="45.95958" lon="4.92362">
        <ele>300.899993896</ele>
        <time>2015-07-06T09:39:46.004Z</time>
      </trkpt>
      <trkpt lat="45.95957" lon="4.92354">
        <ele>301.399993896</ele>
        <time>2015-07-06T09:39:47.022Z</time>
      </trkpt>
      <trkpt lat="45.95955" lon="4.92347">
        <ele>302</ele>
        <time>2015-07-06T09:39:48.005Z</time>
      </trkpt>
      <trkpt lat="45.95954" lon="4.92339">
        <ele>302.200012207</ele>
        <time>2015-07-06T09:39:48.999Z</time>
      </trkpt>
      <trkpt lat="45.95954" lon="4.92332">
        <ele>302.799987793</ele>
        <time>2015-07-06T09:39:50.001Z</time>
      </trkpt>
      <trkpt lat="45.95953" lon="4.92324">
        <ele>303.200012207</ele>
        <time>2015-07-06T09:39:50.998Z</time>
      </trkpt>
      <trkpt lat="45.95952" lon="4.92317">
        <ele>303.700012207</ele>
        <time>2015-07-06T09:39:51.999Z</time>
      </trkpt>
      <trkpt lat="45.95951" lon="4.92309">
        <ele>304.100006104</ele>
        <time>2015-07-06T09:39:53.052Z</time>
      </trkpt>
      <trkpt lat="45.95949" lon="4.92301">
        <ele>304.5</ele>
        <time>2015-07-06T09:39:54.003Z</time>
      </trkpt>
      <trkpt lat="45.95948" lon="4.92293">
        <ele>304.799987793</ele>
        <time>2015-07-06T09:39:55.001Z</time>
      </trkpt>
      <trkpt lat="45.95946" lon="4.92286">
        <ele>305.100006104</ele>
        <time>2015-07-06T09:39:56.027Z</time>
      </trkpt>
      <trkpt lat="45.95945" lon="4.92279">
        <ele>305.700012207</ele>
        <time>2015-07-06T09:39:57.003Z</time>
      </trkpt>
      <trkpt lat="45.95944" lon="4.92273">
        <ele>306.600006104</ele>
        <time>2015-07-06T09:39:58.003Z</time>
      </trkpt>
      <trkpt lat="45.95942" lon="4.92266">
        <ele>307.200012207</ele>
        <time>2015-07-06T09:39:59Z</time>
      </trkpt>
      <trkpt lat="45.95941" lon="4.92259">
        <ele>307.5</ele>
        <time>2015-07-06T09:40:00.023Z</time>
      </trkpt>
      <trkpt lat="45.95939" lon="4.92252">
        <ele>307.600006104</ele>
        <time>2015-07-06T09:40:00.999Z</time>
      </trkpt>
      <trkpt lat="45.95938" lon="4.92244">
        <ele>307.799987793</ele>
        <time>2015-07-06T09:40:02.002Z</time>
      </trkpt>
      <trkpt lat="45.95936" lon="4.92236">
        <ele>307.700012207</ele>
        <time>2015-07-06T09:40:03Z</time>
      </trkpt>
      <trkpt lat="45.95935" lon="4.92228">
        <ele>307.799987793</ele>
        <time>2015-07-06T09:40:04.003Z</time>
      </trkpt>
      <trkpt lat="45.95934" lon="4.92221">
        <ele>308</ele>
        <time>2015-07-06T09:40:05.001Z</time>
      </trkpt>
      <trkpt lat="45.95933" lon="4.92214">
        <ele>308.399993896</ele>
        <time>2015-07-06T09:40:06.077Z</time>
      </trkpt>
      <trkpt lat="45.95932" lon="4.92206">
        <ele>308.5</ele>
        <time>2015-07-06T09:40:07.001Z</time>
      </trkpt>
      <trkpt lat="45.95931" lon="4.92198">
        <ele>308.5</ele>
        <time>2015-07-06T09:40:08.002Z</time>
      </trkpt>
      <trkpt lat="45.95929" lon="4.9219">
        <ele>308.600006104</ele>
        <time>2015-07-06T09:40:08.998Z</time>
      </trkpt>
      <trkpt lat="45.95928" lon="4.92182">
        <ele>308.5</ele>
        <time>2015-07-06T09:40:09.998Z</time>
      </trkpt>
      <trkpt lat="45.95926" lon="4.92174">
        <ele>308.399993896</ele>
        <time>2015-07-06T09:40:10.999Z</time>
      </trkpt>
      <trkpt lat="45.95924" lon="4.92166">
        <ele>308.299987793</ele>
        <time>2015-07-06T09:40:12.008Z</time>
      </trkpt>
      <trkpt lat="45.95924" lon="4.92158">
        <ele>308.299987793</ele>
        <time>2015-07-06T09:40:13.003Z</time>
      </trkpt>
      <trkpt lat="45.95922" lon="4.9215">
        <ele>308.299987793</ele>
        <time>2015-07-06T09:40:14.004Z</time>
      </trkpt>
      <trkpt lat="45.95921" lon="4.92142">
        <ele>308.399993896</ele>
        <time>2015-07-06T09:40:14.998Z</time>
      </trkpt>
      <trkpt lat="45.9592" lon="4.92133">
        <ele>308.5</ele>
        <time>2015-07-06T09:40:16.083Z</time>
      </trkpt>
      <trkpt lat="45.95918" lon="4.92125">
        <ele>308.600006104</ele>
        <time>2015-07-06T09:40:16.999Z</time>
      </trkpt>
      <trkpt lat="45.95917" lon="4.92117">
        <ele>308.5</ele>
        <time>2015-07-06T09:40:18.004Z</time>
      </trkpt>
      <trkpt lat="45.95915" lon="4.92108">
        <ele>308.399993896</ele>
        <time>2015-07-06T09:40:18.998Z</time>
      </trkpt>
      <trkpt lat="45.95913" lon="4.921">
        <ele>308.399993896</ele>
        <time>2015-07-06T09:40:20Z</time>
      </trkpt>
      <trkpt lat="45.95911" lon="4.92092">
        <ele>308.299987793</ele>
        <time>2015-07-06T09:40:20.998Z</time>
      </trkpt>
      <trkpt lat="45.95909" lon="4.92083">
        <ele>308.100006104</ele>
        <time>2015-07-06T09:40:22.002Z</time>
      </trkpt>
      <trkpt lat="45.95907" lon="4.92075">
        <ele>307.899993896</ele>
        <time>2015-07-06T09:40:22.998Z</time>
      </trkpt>
      <trkpt lat="45.95906" lon="4.92067">
        <ele>307.899993896</ele>
        <time>2015-07-06T09:40:24.002Z</time>
      </trkpt>
      <trkpt lat="45.95904" lon="4.92058">
        <ele>307.799987793</ele>
        <time>2015-07-06T09:40:24.998Z</time>
      </trkpt>
      <trkpt lat="45.95903" lon="4.92049">
        <ele>308</ele>
        <time>2015-07-06T09:40:26.059Z</time>
      </trkpt>
      <trkpt lat="45.95901" lon="4.92041">
        <ele>307.899993896</ele>
        <time>2015-07-06T09:40:27.017Z</time>
      </trkpt>
      <trkpt lat="45.959" lon="4.92033">
        <ele>308.299987793</ele>
        <time>2015-07-06T09:40:28.002Z</time>
      </trkpt>
      <trkpt lat="45.95898" lon="4.92024">
        <ele>308.399993896</ele>
        <time>2015-07-06T09:40:28.998Z</time>
      </trkpt>
      <trkpt lat="45.95895" lon="4.92015">
        <ele>308.299987793</ele>
        <time>2015-07-06T09:40:30.004Z</time>
      </trkpt>
      <trkpt lat="45.95893" lon="4.92006">
        <ele>308.299987793</ele>
        <time>2015-07-06T09:40:30.998Z</time>
      </trkpt>
      <trkpt lat="45.95892" lon="4.91997">
        <ele>308.5</ele>
        <time>2015-07-06T09:40:32.002Z</time>
      </trkpt>
      <trkpt lat="45.9589" lon="4.91988">
        <ele>308.399993896</ele>
        <time>2015-07-06T09:40:32.998Z</time>
      </trkpt>
      <trkpt lat="45.95889" lon="4.9198">
        <ele>308.5</ele>
        <time>2015-07-06T09:40:33.998Z</time>
      </trkpt>
      <trkpt lat="45.95888" lon="4.91971">
        <ele>308.600006104</ele>
        <time>2015-07-06T09:40:34.998Z</time>
      </trkpt>
      <trkpt lat="45.95886" lon="4.91963">
        <ele>308.600006104</ele>
        <time>2015-07-06T09:40:36.006Z</time>
      </trkpt>
      <trkpt lat="45.95885" lon="4.91956">
        <ele>308.600006104</ele>
        <time>2015-07-06T09:40:36.998Z</time>
      </trkpt>
      <trkpt lat="45.95885" lon="4.91947">
        <ele>308.799987793</ele>
        <time>2015-07-06T09:40:38.002Z</time>
      </trkpt>
      <trkpt lat="45.95884" lon="4.91939">
        <ele>309</ele>
        <time>2015-07-06T09:40:39Z</time>
      </trkpt>
      <trkpt lat="45.95883" lon="4.91931">
        <ele>309.200012207</ele>
        <time>2015-07-06T09:40:40.046Z</time>
      </trkpt>
      <trkpt lat="45.95882" lon="4.91924">
        <ele>309.600006104</ele>
        <time>2015-07-06T09:40:41.021Z</time>
      </trkpt>
      <trkpt lat="45.95881" lon="4.91916">
        <ele>309.899993896</ele>
        <time>2015-07-06T09:40:42.001Z</time>
      </trkpt>
      <trkpt lat="45.95881" lon="4.91907">
        <ele>310.600006104</ele>
        <time>2015-07-06T09:40:42.998Z</time>
      </trkpt>
      <trkpt lat="45.9588" lon="4.91899">
        <ele>310.600006104</ele>
        <time>2015-07-06T09:40:44.004Z</time>
      </trkpt>
      <trkpt lat="45.95878" lon="4.91891">
        <ele>310.899993896</ele>
        <time>2015-07-06T09:40:44.999Z</time>
      </trkpt>
      <trkpt lat="45.95877" lon="4.91883">
        <ele>310.899993896</ele>
        <time>2015-07-06T09:40:46.042Z</time>
      </trkpt>
      <trkpt lat="45.95875" lon="4.91875">
        <ele>310.899993896</ele>
        <time>2015-07-06T09:40:46.999Z</time>
      </trkpt>
      <trkpt lat="45.95874" lon="4.91867">
        <ele>311.100006104</ele>
        <time>2015-07-06T09:40:48.017Z</time>
      </trkpt>
      <trkpt lat="45.95873" lon="4.91859">
        <ele>310.899993896</ele>
        <time>2015-07-06T09:40:48.998Z</time>
      </trkpt>
      <trkpt lat="45.95871" lon="4.91851">
        <ele>310.700012207</ele>
        <time>2015-07-06T09:40:50.002Z</time>
      </trkpt>
      <trkpt lat="45.95869" lon="4.91843">
        <ele>310.5</ele>
        <time>2015-07-06T09:40:50.999Z</time>
      </trkpt>
      <trkpt lat="45.95867" lon="4.91835">
        <ele>310.399993896</ele>
        <time>2015-07-06T09:40:52.003Z</time>
      </trkpt>
      <trkpt lat="45.95866" lon="4.91826">
        <ele>310.200012207</ele>
        <time>2015-07-06T09:40:52.999Z</time>
      </trkpt>
      <trkpt lat="45.95864" lon="4.91818">
        <ele>310.200012207</ele>
        <time>2015-07-06T09:40:54.002Z</time>
      </trkpt>
      <trkpt lat="45.95863" lon="4.91809">
        <ele>310.299987793</ele>
        <time>2015-07-06T09:40:55Z</time>
      </trkpt>
      <trkpt lat="45.95862" lon="4.918">
        <ele>310.399993896</ele>
        <time>2015-07-06T09:40:56.008Z</time>
      </trkpt>
      <trkpt lat="45.95861" lon="4.91791">
        <ele>310.200012207</ele>
        <time>2015-07-06T09:40:56.999Z</time>
      </trkpt>
      <trkpt lat="45.9586" lon="4.91783">
        <ele>310.200012207</ele>
        <time>2015-07-06T09:40:57.998Z</time>
      </trkpt>
      <trkpt lat="45.95859" lon="4.91776">
        <ele>310</ele>
        <time>2015-07-06T09:40:59.002Z</time>
      </trkpt>
      <trkpt lat="45.95858" lon="4.91768">
        <ele>309.700012207</ele>
        <time>2015-07-06T09:41:00.024Z</time>
      </trkpt>
      <trkpt lat="45.95857" lon="4.91761">
        <ele>309.299987793</ele>
        <time>2015-07-06T09:41:01.002Z</time>
      </trkpt>
      <trkpt lat="45.95856" lon="4.91753">
        <ele>309.200012207</ele>
        <time>2015-07-06T09:41:02.001Z</time>
      </trkpt>
      <trkpt lat="45.95855" lon="4.91746">
        <ele>309.100006104</ele>
        <time>2015-07-06T09:41:03Z</time>
      </trkpt>
      <trkpt lat="45.95853" lon="4.9174">
        <ele>309</ele>
        <time>2015-07-06T09:41:04.017Z</time>
      </trkpt>
      <trkpt lat="45.9585" lon="4.91734">
        <ele>309</ele>
        <time>2015-07-06T09:41:05Z</time>
      </trkpt>
      <trkpt lat="45.95842" lon="4.91732">
        <ele>308.799987793</ele>
        <time>2015-07-06T09:41:07Z</time>
      </trkpt>
      <trkpt lat="45.95839" lon="4.91736">
        <ele>308.799987793</ele>
        <time>2015-07-06T09:41:08.002Z</time>
      </trkpt>
      <trkpt lat="45.95836" lon="4.91741">
        <ele>308.899993896</ele>
        <time>2015-07-06T09:41:08.998Z</time>
      </trkpt>
      <trkpt lat="45.95833" lon="4.91747">
        <ele>308.899993896</ele>
        <time>2015-07-06T09:41:09.998Z</time>
      </trkpt>
      <trkpt lat="45.95829" lon="4.91753">
        <ele>308.899993896</ele>
        <time>2015-07-06T09:41:11Z</time>
      </trkpt>
      <trkpt lat="45.95826" lon="4.91759">
        <ele>309.100006104</ele>
        <time>2015-07-06T09:41:12.003Z</time>
      </trkpt>
      <trkpt lat="45.95822" lon="4.91765">
        <ele>309.100006104</ele>
        <time>2015-07-06T09:41:13.002Z</time>
      </trkpt>
      <trkpt lat="45.95818" lon="4.91769">
        <ele>309.100006104</ele>
        <time>2015-07-06T09:41:14.002Z</time>
      </trkpt>
      <trkpt lat="45.95814" lon="4.91775">
        <ele>308.899993896</ele>
        <time>2015-07-06T09:41:14.998Z</time>
      </trkpt>
      <trkpt lat="45.9581" lon="4.91782">
        <ele>308.799987793</ele>
        <time>2015-07-06T09:41:16.003Z</time>
      </trkpt>
      <trkpt lat="45.95806" lon="4.91787">
        <ele>308.5</ele>
        <time>2015-07-06T09:41:16.998Z</time>
      </trkpt>
      <trkpt lat="45.95802" lon="4.91793">
        <ele>308.5</ele>
        <time>2015-07-06T09:41:18.004Z</time>
      </trkpt>
      <trkpt lat="45.95799" lon="4.91799">
        <ele>308.600006104</ele>
        <time>2015-07-06T09:41:18.998Z</time>
      </trkpt>
      <trkpt lat="45.95795" lon="4.91806">
        <ele>308.799987793</ele>
        <time>2015-07-06T09:41:20.003Z</time>
      </trkpt>
      <trkpt lat="45.95791" lon="4.91813">
        <ele>309.100006104</ele>
        <time>2015-07-06T09:41:21Z</time>
      </trkpt>
      <trkpt lat="45.95787" lon="4.91819">
        <ele>309.200012207</ele>
        <time>2015-07-06T09:41:22.004Z</time>
      </trkpt>
      <trkpt lat="45.95783" lon="4.91827">
        <ele>309.399993896</ele>
        <time>2015-07-06T09:41:23Z</time>
      </trkpt>
      <trkpt lat="45.95778" lon="4.91834">
        <ele>309.399993896</ele>
        <time>2015-07-06T09:41:24.002Z</time>
      </trkpt>
      <trkpt lat="45.95774" lon="4.91841">
        <ele>309.5</ele>
        <time>2015-07-06T09:41:25.015Z</time>
      </trkpt>
      <trkpt lat="45.95771" lon="4.91847">
        <ele>309.700012207</ele>
        <time>2015-07-06T09:41:26.001Z</time>
      </trkpt>
      <trkpt lat="45.95768" lon="4.91854">
        <ele>310</ele>
        <time>2015-07-06T09:41:26.998Z</time>
      </trkpt>
      <trkpt lat="45.95766" lon="4.9186">
        <ele>310.200012207</ele>
        <time>2015-07-06T09:41:27.999Z</time>
      </trkpt>
      <trkpt lat="45.95763" lon="4.91865">
        <ele>310.5</ele>
        <time>2015-07-06T09:41:29Z</time>
      </trkpt>
      <trkpt lat="45.9576" lon="4.91871">
        <ele>310.700012207</ele>
        <time>2015-07-06T09:41:30.003Z</time>
      </trkpt>
      <trkpt lat="45.95757" lon="4.91877">
        <ele>310.899993896</ele>
        <time>2015-07-06T09:41:30.999Z</time>
      </trkpt>
      <trkpt lat="45.95753" lon="4.91883">
        <ele>311.200012207</ele>
        <time>2015-07-06T09:41:32.002Z</time>
      </trkpt>
      <trkpt lat="45.95749" lon="4.91888">
        <ele>311.5</ele>
        <time>2015-07-06T09:41:32.998Z</time>
      </trkpt>
      <trkpt lat="45.95747" lon="4.91893">
        <ele>311.600006104</ele>
        <time>2015-07-06T09:41:33.998Z</time>
      </trkpt>
      <trkpt lat="45.95744" lon="4.91898">
        <ele>311.799987793</ele>
        <time>2015-07-06T09:41:35.027Z</time>
      </trkpt>
      <trkpt lat="45.95741" lon="4.91904">
        <ele>312</ele>
        <time>2015-07-06T09:41:36.003Z</time>
      </trkpt>
      <trkpt lat="45.95736" lon="4.91914">
        <ele>312.399993896</ele>
        <time>2015-07-06T09:41:38.052Z</time>
      </trkpt>
      <trkpt lat="45.95733" lon="4.9192">
        <ele>312.600006104</ele>
        <time>2015-07-06T09:41:38.999Z</time>
      </trkpt>
      <trkpt lat="45.9573" lon="4.91926">
        <ele>312.899993896</ele>
        <time>2015-07-06T09:41:39.999Z</time>
      </trkpt>
      <trkpt lat="45.95726" lon="4.91932">
        <ele>313.100006104</ele>
        <time>2015-07-06T09:41:40.999Z</time>
      </trkpt>
      <trkpt lat="45.95723" lon="4.91938">
        <ele>313.299987793</ele>
        <time>2015-07-06T09:41:42.032Z</time>
      </trkpt>
      <trkpt lat="45.9572" lon="4.91943">
        <ele>313.600006104</ele>
        <time>2015-07-06T09:41:43.001Z</time>
      </trkpt>
      <trkpt lat="45.95718" lon="4.91947">
        <ele>314</ele>
        <time>2015-07-06T09:41:44.002Z</time>
      </trkpt>
      <trkpt lat="45.95713" lon="4.91953">
        <ele>314.299987793</ele>
        <time>2015-07-06T09:41:44.998Z</time>
      </trkpt>
      <trkpt lat="45.9571" lon="4.9196">
        <ele>314.5</ele>
        <time>2015-07-06T09:41:46.017Z</time>
      </trkpt>
      <trkpt lat="45.95707" lon="4.91967">
        <ele>314.799987793</ele>
        <time>2015-07-06T09:41:46.998Z</time>
      </trkpt>
      <trkpt lat="45.95704" lon="4.91975">
        <ele>314.700012207</ele>
        <time>2015-07-06T09:41:48.006Z</time>
      </trkpt>
      <trkpt lat="45.957" lon="4.91979">
        <ele>314.600006104</ele>
        <time>2015-07-06T09:41:48.998Z</time>
      </trkpt>
      <trkpt lat="45.95696" lon="4.91985">
        <ele>314.5</ele>
        <time>2015-07-06T09:41:50.002Z</time>
      </trkpt>
      <trkpt lat="45.95694" lon="4.91992">
        <ele>314.5</ele>
        <time>2015-07-06T09:41:51.001Z</time>
      </trkpt>
      <trkpt lat="45.9569" lon="4.91997">
        <ele>314.299987793</ele>
        <time>2015-07-06T09:41:51.999Z</time>
      </trkpt>
      <trkpt lat="45.95686" lon="4.92003">
        <ele>314</ele>
        <time>2015-07-06T09:41:52.998Z</time>
      </trkpt>
      <trkpt lat="45.95681" lon="4.92008">
        <ele>313.700012207</ele>
        <time>2015-07-06T09:41:54.005Z</time>
      </trkpt>
      <trkpt lat="45.95677" lon="4.9201">
        <ele>313.799987793</ele>
        <time>2015-07-06T09:41:55.001Z</time>
      </trkpt>
      <trkpt lat="45.9567" lon="4.92003">
        <ele>314.299987793</ele>
        <time>2015-07-06T09:41:56.998Z</time>
      </trkpt>
      <trkpt lat="45.95668" lon="4.91998">
        <ele>314.600006104</ele>
        <time>2015-07-06T09:41:58.002Z</time>
      </trkpt>
      <trkpt lat="45.95664" lon="4.91993">
        <ele>315</ele>
        <time>2015-07-06T09:41:59Z</time>
      </trkpt>
      <trkpt lat="45.95661" lon="4.91987">
        <ele>315.100006104</ele>
        <time>2015-07-06T09:42:00.019Z</time>
      </trkpt>
      <trkpt lat="45.95658" lon="4.9198">
        <ele>315.299987793</ele>
        <time>2015-07-06T09:42:01Z</time>
      </trkpt>
      <trkpt lat="45.95654" lon="4.91975">
        <ele>315.299987793</ele>
        <time>2015-07-06T09:42:02.023Z</time>
      </trkpt>
      <trkpt lat="45.9565" lon="4.9197">
        <ele>315.100006104</ele>
        <time>2015-07-06T09:42:02.999Z</time>
      </trkpt>
      <trkpt lat="45.95646" lon="4.91965">
        <ele>315</ele>
        <time>2015-07-06T09:42:04.002Z</time>
      </trkpt>
      <trkpt lat="45.95643" lon="4.9196">
        <ele>314.899993896</ele>
        <time>2015-07-06T09:42:04.998Z</time>
      </trkpt>
      <trkpt lat="45.95638" lon="4.91955">
        <ele>314.799987793</ele>
        <time>2015-07-06T09:42:06.005Z</time>
      </trkpt>
      <trkpt lat="45.95635" lon="4.91951">
        <ele>314.799987793</ele>
        <time>2015-07-06T09:42:07.003Z</time>
      </trkpt>
      <trkpt lat="45.95631" lon="4.91947">
        <ele>314.899993896</ele>
        <time>2015-07-06T09:42:08.002Z</time>
      </trkpt>
      <trkpt lat="45.95627" lon="4.91943">
        <ele>314.799987793</ele>
        <time>2015-07-06T09:42:09Z</time>
      </trkpt>
      <trkpt lat="45.95622" lon="4.91939">
        <ele>314.700012207</ele>
        <time>2015-07-06T09:42:09.998Z</time>
      </trkpt>
      <trkpt lat="45.95619" lon="4.91935">
        <ele>314.899993896</ele>
        <time>2015-07-06T09:42:11Z</time>
      </trkpt>
      <trkpt lat="45.95615" lon="4.91931">
        <ele>315</ele>
        <time>2015-07-06T09:42:12.001Z</time>
      </trkpt>
      <trkpt lat="45.9561" lon="4.91927">
        <ele>314.899993896</ele>
        <time>2015-07-06T09:42:13.052Z</time>
      </trkpt>
      <trkpt lat="45.95605" lon="4.91924">
        <ele>315</ele>
        <time>2015-07-06T09:42:14.004Z</time>
      </trkpt>
      <trkpt lat="45.95601" lon="4.9192">
        <ele>315.200012207</ele>
        <time>2015-07-06T09:42:14.998Z</time>
      </trkpt>
      <trkpt lat="45.95598" lon="4.91917">
        <ele>315.600006104</ele>
        <time>2015-07-06T09:42:16Z</time>
      </trkpt>
      <trkpt lat="45.95593" lon="4.91914">
        <ele>315.700012207</ele>
        <time>2015-07-06T09:42:17.002Z</time>
      </trkpt>
      <trkpt lat="45.9559" lon="4.9191">
        <ele>316</ele>
        <time>2015-07-06T09:42:18.001Z</time>
      </trkpt>
      <trkpt lat="45.95585" lon="4.91908">
        <ele>316.100006104</ele>
        <time>2015-07-06T09:42:19Z</time>
      </trkpt>
      <trkpt lat="45.9558" lon="4.91905">
        <ele>316.100006104</ele>
        <time>2015-07-06T09:42:20.002Z</time>
      </trkpt>
      <trkpt lat="45.95574" lon="4.91901">
        <ele>316.299987793</ele>
        <time>2015-07-06T09:42:21.037Z</time>
      </trkpt>
      <trkpt lat="45.95569" lon="4.91897">
        <ele>316.5</ele>
        <time>2015-07-06T09:42:22Z</time>
      </trkpt>
      <trkpt lat="45.95562" lon="4.91892">
        <ele>316.899993896</ele>
        <time>2015-07-06T09:42:23.024Z</time>
      </trkpt>
      <trkpt lat="45.95557" lon="4.91889">
        <ele>317</ele>
        <time>2015-07-06T09:42:24.001Z</time>
      </trkpt>
      <trkpt lat="45.95551" lon="4.91886">
        <ele>317</ele>
        <time>2015-07-06T09:42:24.998Z</time>
      </trkpt>
      <trkpt lat="45.95546" lon="4.91882">
        <ele>316.899993896</ele>
        <time>2015-07-06T09:42:26.002Z</time>
      </trkpt>
      <trkpt lat="45.95541" lon="4.91878">
        <ele>317.100006104</ele>
        <time>2015-07-06T09:42:27Z</time>
      </trkpt>
      <trkpt lat="45.95537" lon="4.91875">
        <ele>317.200012207</ele>
        <time>2015-07-06T09:42:28.001Z</time>
      </trkpt>
      <trkpt lat="45.95532" lon="4.91871">
        <ele>317.200012207</ele>
        <time>2015-07-06T09:42:29.021Z</time>
      </trkpt>
      <trkpt lat="45.95528" lon="4.91867">
        <ele>317.200012207</ele>
        <time>2015-07-06T09:42:30.003Z</time>
      </trkpt>
      <trkpt lat="45.95523" lon="4.91863">
        <ele>317.100006104</ele>
        <time>2015-07-06T09:42:30.998Z</time>
      </trkpt>
      <trkpt lat="45.95519" lon="4.91858">
        <ele>316.899993896</ele>
        <time>2015-07-06T09:42:32.001Z</time>
      </trkpt>
      <trkpt lat="45.95514" lon="4.91852">
        <ele>316.700012207</ele>
        <time>2015-07-06T09:42:32.998Z</time>
      </trkpt>
      <trkpt lat="45.95509" lon="4.91848">
        <ele>316.700012207</ele>
        <time>2015-07-06T09:42:33.998Z</time>
      </trkpt>
      <trkpt lat="45.95504" lon="4.91844">
        <ele>316.600006104</ele>
        <time>2015-07-06T09:42:35Z</time>
      </trkpt>
      <trkpt lat="45.95499" lon="4.9184">
        <ele>316.399993896</ele>
        <time>2015-07-06T09:42:36.008Z</time>
      </trkpt>
      <trkpt lat="45.95494" lon="4.91836">
        <ele>316.200012207</ele>
        <time>2015-07-06T09:42:37Z</time>
      </trkpt>
      <trkpt lat="45.95489" lon="4.91832">
        <ele>316.299987793</ele>
        <time>2015-07-06T09:42:38Z</time>
      </trkpt>
      <trkpt lat="45.95484" lon="4.91827">
        <ele>316.5</ele>
        <time>2015-07-06T09:42:39.016Z</time>
      </trkpt>
      <trkpt lat="45.9548" lon="4.91822">
        <ele>316.799987793</ele>
        <time>2015-07-06T09:42:40.003Z</time>
      </trkpt>
      <trkpt lat="45.95476" lon="4.91817">
        <ele>317</ele>
        <time>2015-07-06T09:42:41.032Z</time>
      </trkpt>
      <trkpt lat="45.95471" lon="4.91811">
        <ele>316.799987793</ele>
        <time>2015-07-06T09:42:42.002Z</time>
      </trkpt>
      <trkpt lat="45.95466" lon="4.91803">
        <ele>316.299987793</ele>
        <time>2015-07-06T09:42:42.999Z</time>
      </trkpt>
      <trkpt lat="45.95458" lon="4.91795">
        <ele>315.700012207</ele>
        <time>2015-07-06T09:42:44.002Z</time>
      </trkpt>
      <trkpt lat="45.95454" lon="4.91787">
        <ele>315.899993896</ele>
        <time>2015-07-06T09:42:45.003Z</time>
      </trkpt>
      <trkpt lat="45.9545" lon="4.91781">
        <ele>315.799987793</ele>
        <time>2015-07-06T09:42:46.001Z</time>
      </trkpt>
      <trkpt lat="45.95444" lon="4.91777">
        <ele>315.100006104</ele>
        <time>2015-07-06T09:42:47.001Z</time>
      </trkpt>
      <trkpt lat="45.95441" lon="4.91773">
        <ele>314.200012207</ele>
        <time>2015-07-06T09:42:48.002Z</time>
      </trkpt>
      <trkpt lat="45.95438" lon="4.91767">
        <ele>313.5</ele>
        <time>2015-07-06T09:42:49.035Z</time>
      </trkpt>
      <trkpt lat="45.95435" lon="4.91761">
        <ele>313</ele>
        <time>2015-07-06T09:42:50.001Z</time>
      </trkpt>
      <trkpt lat="45.95432" lon="4.91755">
        <ele>312.700012207</ele>
        <time>2015-07-06T09:42:51.001Z</time>
      </trkpt>
      <trkpt lat="45.9543" lon="4.91749">
        <ele>312.700012207</ele>
        <time>2015-07-06T09:42:52.003Z</time>
      </trkpt>
      <trkpt lat="45.95425" lon="4.91738">
        <ele>312.700012207</ele>
        <time>2015-07-06T09:42:54.002Z</time>
      </trkpt>
      <trkpt lat="45.95423" lon="4.91734">
        <ele>312.700012207</ele>
        <time>2015-07-06T09:42:55.015Z</time>
      </trkpt>
      <trkpt lat="45.9542" lon="4.91724">
        <ele>312.299987793</ele>
        <time>2015-07-06T09:42:58Z</time>
      </trkpt>
      <trkpt lat="45.95418" lon="4.91721">
        <ele>312.100006104</ele>
        <time>2015-07-06T09:42:59.001Z</time>
      </trkpt>
      <trkpt lat="45.95416" lon="4.91711">
        <ele>311.899993896</ele>
        <time>2015-07-06T09:43:02.002Z</time>
      </trkpt>
      <trkpt lat="45.95416" lon="4.91708">
        <ele>311.700012207</ele>
        <time>2015-07-06T09:43:02.999Z</time>
      </trkpt>
      <trkpt lat="45.95412" lon="4.91696">
        <ele>311.200012207</ele>
        <time>2015-07-06T09:43:07.001Z</time>
      </trkpt>
      <trkpt lat="45.95411" lon="4.91693">
        <ele>311.100006104</ele>
        <time>2015-07-06T09:43:08.002Z</time>
      </trkpt>
      <trkpt lat="45.95407" lon="4.91682">
        <ele>310.399993896</ele>
        <time>2015-07-06T09:43:12.003Z</time>
      </trkpt>
      <trkpt lat="45.95407" lon="4.91679">
        <ele>310.399993896</ele>
        <time>2015-07-06T09:43:13.002Z</time>
      </trkpt>
      <trkpt lat="45.95407" lon="4.91668">
        <ele>310</ele>
        <time>2015-07-06T09:43:16.999Z</time>
      </trkpt>
      <trkpt lat="45.95406" lon="4.91666">
        <ele>309.799987793</ele>
        <time>2015-07-06T09:43:18.001Z</time>
      </trkpt>
      <trkpt lat="45.95404" lon="4.91658">
        <ele>309.399993896</ele>
        <time>2015-07-06T09:43:20.004Z</time>
      </trkpt>
      <trkpt lat="45.95402" lon="4.91654">
        <ele>309.200012207</ele>
        <time>2015-07-06T09:43:20.998Z</time>
      </trkpt>
      <trkpt lat="45.95398" lon="4.91644">
        <ele>309</ele>
        <time>2015-07-06T09:43:24.001Z</time>
      </trkpt>
      <trkpt lat="45.95396" lon="4.91641">
        <ele>309.200012207</ele>
        <time>2015-07-06T09:43:25.112Z</time>
      </trkpt>
      <trkpt lat="45.95392" lon="4.91635">
        <ele>309.200012207</ele>
        <time>2015-07-06T09:43:27.003Z</time>
      </trkpt>
      <trkpt lat="45.95389" lon="4.91632">
        <ele>309</ele>
        <time>2015-07-06T09:43:27.998Z</time>
      </trkpt>
      <trkpt lat="45.95386" lon="4.91622">
        <ele>308.899993896</ele>
        <time>2015-07-06T09:43:30.026Z</time>
      </trkpt>
      <trkpt lat="45.95384" lon="4.91616">
        <ele>308.799987793</ele>
        <time>2015-07-06T09:43:30.999Z</time>
      </trkpt>
      <trkpt lat="45.95382" lon="4.91604">
        <ele>308.700012207</ele>
        <time>2015-07-06T09:43:33.999Z</time>
      </trkpt>
      <trkpt lat="45.95382" lon="4.91602">
        <ele>308.600006104</ele>
        <time>2015-07-06T09:43:35.002Z</time>
      </trkpt>
      <trkpt lat="45.95382" lon="4.91589">
        <ele>308.399993896</ele>
        <time>2015-07-06T09:43:39Z</time>
      </trkpt>
      <trkpt lat="45.95381" lon="4.91586">
        <ele>308.100006104</ele>
        <time>2015-07-06T09:43:39.998Z</time>
      </trkpt>
      <trkpt lat="45.95377" lon="4.91578">
        <ele>307.799987793</ele>
        <time>2015-07-06T09:43:42.003Z</time>
      </trkpt>
      <trkpt lat="45.95375" lon="4.91574">
        <ele>307.600006104</ele>
        <time>2015-07-06T09:43:43.001Z</time>
      </trkpt>
      <trkpt lat="45.95373" lon="4.91566">
        <ele>307.200012207</ele>
        <time>2015-07-06T09:43:45.003Z</time>
      </trkpt>
      <trkpt lat="45.95372" lon="4.91561">
        <ele>307</ele>
        <time>2015-07-06T09:43:46.006Z</time>
      </trkpt>
      <trkpt lat="45.95369" lon="4.91549">
        <ele>306.100006104</ele>
        <time>2015-07-06T09:43:48.998Z</time>
      </trkpt>
      <trkpt lat="45.95369" lon="4.91547">
        <ele>305.899993896</ele>
        <time>2015-07-06T09:43:50Z</time>
      </trkpt>
      <trkpt lat="45.95366" lon="4.91537">
        <ele>305.5</ele>
        <time>2015-07-06T09:43:52.998Z</time>
      </trkpt>
      <trkpt lat="45.95365" lon="4.91534">
        <ele>305.299987793</ele>
        <time>2015-07-06T09:43:54.004Z</time>
      </trkpt>
      <trkpt lat="45.95365" lon="4.91524">
        <ele>305.799987793</ele>
        <time>2015-07-06T09:43:57.003Z</time>
      </trkpt>
      <trkpt lat="45.95364" lon="4.9152">
        <ele>306.100006104</ele>
        <time>2015-07-06T09:43:58.041Z</time>
      </trkpt>
      <trkpt lat="45.95362" lon="4.91509">
        <ele>306.200012207</ele>
        <time>2015-07-06T09:44:01.001Z</time>
      </trkpt>
      <trkpt lat="45.95362" lon="4.91506">
        <ele>306.100006104</ele>
        <time>2015-07-06T09:44:02.002Z</time>
      </trkpt>
      <trkpt lat="45.9536" lon="4.91495">
        <ele>305.799987793</ele>
        <time>2015-07-06T09:44:05.003Z</time>
      </trkpt>
      <trkpt lat="45.95359" lon="4.91492">
        <ele>305.700012207</ele>
        <time>2015-07-06T09:44:06.041Z</time>
      </trkpt>
      <trkpt lat="45.95358" lon="4.91482">
        <ele>305.100006104</ele>
        <time>2015-07-06T09:44:09.02Z</time>
      </trkpt>
      <trkpt lat="45.95358" lon="4.91479">
        <ele>305</ele>
        <time>2015-07-06T09:44:10.003Z</time>
      </trkpt>
      <trkpt lat="45.95355" lon="4.91469">
        <ele>305.100006104</ele>
        <time>2015-07-06T09:44:12.998Z</time>
      </trkpt>
      <trkpt lat="45.95354" lon="4.91466">
        <ele>305.100006104</ele>
        <time>2015-07-06T09:44:14.001Z</time>
      </trkpt>
      <trkpt lat="45.95352" lon="4.91457">
        <ele>305.200012207</ele>
        <time>2015-07-06T09:44:16.036Z</time>
      </trkpt>
      <trkpt lat="45.95351" lon="4.91453">
        <ele>305.100006104</ele>
        <time>2015-07-06T09:44:17.01Z</time>
      </trkpt>
      <trkpt lat="45.95347" lon="4.91444">
        <ele>304.899993896</ele>
        <time>2015-07-06T09:44:18.998Z</time>
      </trkpt>
      <trkpt lat="45.95346" lon="4.91441">
        <ele>304.899993896</ele>
        <time>2015-07-06T09:44:20.004Z</time>
      </trkpt>
      <trkpt lat="45.95343" lon="4.91429">
        <ele>304.600006104</ele>
        <time>2015-07-06T09:44:24.007Z</time>
      </trkpt>
      <trkpt lat="45.95341" lon="4.91427">
        <ele>304.600006104</ele>
        <time>2015-07-06T09:44:25.036Z</time>
      </trkpt>
      <trkpt lat="45.95338" lon="4.91418">
        <ele>304.399993896</ele>
        <time>2015-07-06T09:44:28.002Z</time>
      </trkpt>
      <trkpt lat="45.95338" lon="4.91415">
        <ele>304.299987793</ele>
        <time>2015-07-06T09:44:29.002Z</time>
      </trkpt>
      <trkpt lat="45.95335" lon="4.91406">
        <ele>303.899993896</ele>
        <time>2015-07-06T09:44:30.999Z</time>
      </trkpt>
      <trkpt lat="45.95335" lon="4.91402">
        <ele>303.899993896</ele>
        <time>2015-07-06T09:44:32.002Z</time>
      </trkpt>
      <trkpt lat="45.95333" lon="4.91392">
        <ele>303.5</ele>
        <time>2015-07-06T09:44:34.998Z</time>
      </trkpt>
      <trkpt lat="45.95333" lon="4.91388">
        <ele>303.5</ele>
        <time>2015-07-06T09:44:36.015Z</time>
      </trkpt>
      <trkpt lat="45.95331" lon="4.91378">
        <ele>303</ele>
        <time>2015-07-06T09:44:38.998Z</time>
      </trkpt>
      <trkpt lat="45.95329" lon="4.91374">
        <ele>302.799987793</ele>
        <time>2015-07-06T09:44:39.998Z</time>
      </trkpt>
      <trkpt lat="45.95326" lon="4.91365">
        <ele>302.600006104</ele>
        <time>2015-07-06T09:44:42.998Z</time>
      </trkpt>
      <trkpt lat="45.95325" lon="4.91362">
        <ele>302.600006104</ele>
        <time>2015-07-06T09:44:44.003Z</time>
      </trkpt>
      <trkpt lat="45.95326" lon="4.91351">
        <ele>302.399993896</ele>
        <time>2015-07-06T09:44:46.999Z</time>
      </trkpt>
      <trkpt lat="45.95327" lon="4.91348">
        <ele>302.299987793</ele>
        <time>2015-07-06T09:44:48.042Z</time>
      </trkpt>
      <trkpt lat="45.95325" lon="4.91336">
        <ele>302</ele>
        <time>2015-07-06T09:44:52.032Z</time>
      </trkpt>
      <trkpt lat="45.95325" lon="4.91332">
        <ele>301.799987793</ele>
        <time>2015-07-06T09:44:52.998Z</time>
      </trkpt>
      <trkpt lat="45.95323" lon="4.9132">
        <ele>301.600006104</ele>
        <time>2015-07-06T09:44:56.035Z</time>
      </trkpt>
      <trkpt lat="45.95322" lon="4.91317">
        <ele>301.600006104</ele>
        <time>2015-07-06T09:44:56.998Z</time>
      </trkpt>
      <trkpt lat="45.95319" lon="4.91306">
        <ele>301.399993896</ele>
        <time>2015-07-06T09:45:00.143Z</time>
      </trkpt>
      <trkpt lat="45.95319" lon="4.91302">
        <ele>301.200012207</ele>
        <time>2015-07-06T09:45:00.998Z</time>
      </trkpt>
      <trkpt lat="45.95319" lon="4.91293">
        <ele>301</ele>
        <time>2015-07-06T09:45:02.998Z</time>
      </trkpt>
      <trkpt lat="45.95317" lon="4.91289">
        <ele>300.799987793</ele>
        <time>2015-07-06T09:45:03.998Z</time>
      </trkpt>
      <trkpt lat="45.95313" lon="4.91278">
        <ele>300.299987793</ele>
        <time>2015-07-06T09:45:08.002Z</time>
      </trkpt>
      <trkpt lat="45.95312" lon="4.91275">
        <ele>300.200012207</ele>
        <time>2015-07-06T09:45:09.023Z</time>
      </trkpt>
      <trkpt lat="45.95309" lon="4.91263">
        <ele>299.5</ele>
        <time>2015-07-06T09:45:13.001Z</time>
      </trkpt>
      <trkpt lat="45.95308" lon="4.91261">
        <ele>299.399993896</ele>
        <time>2015-07-06T09:45:14.002Z</time>
      </trkpt>
      <trkpt lat="45.95309" lon="4.91249">
        <ele>299</ele>
        <time>2015-07-06T09:45:19.002Z</time>
      </trkpt>
      <trkpt lat="45.95309" lon="4.91246">
        <ele>298.899993896</ele>
        <time>2015-07-06T09:45:20.002Z</time>
      </trkpt>
      <trkpt lat="45.95305" lon="4.91235">
        <ele>298.399993896</ele>
        <time>2015-07-06T09:45:24.002Z</time>
      </trkpt>
      <trkpt lat="45.95304" lon="4.91231">
        <ele>298.299987793</ele>
        <time>2015-07-06T09:45:24.998Z</time>
      </trkpt>
      <trkpt lat="45.95301" lon="4.91222">
        <ele>298.399993896</ele>
        <time>2015-07-06T09:45:28.041Z</time>
      </trkpt>
      <trkpt lat="45.953" lon="4.91218">
        <ele>298.399993896</ele>
        <time>2015-07-06T09:45:28.998Z</time>
      </trkpt>
      <trkpt lat="45.95296" lon="4.91209">
        <ele>298</ele>
        <time>2015-07-06T09:45:32.998Z</time>
      </trkpt>
      <trkpt lat="45.9529" lon="4.91203">
        <ele>297.600006104</ele>
        <time>2015-07-06T09:45:33.998Z</time>
      </trkpt>
      <trkpt lat="45.95286" lon="4.91199">
        <ele>297.100006104</ele>
        <time>2015-07-06T09:45:34.998Z</time>
      </trkpt>
      <trkpt lat="45.95282" lon="4.91195">
        <ele>296.700012207</ele>
        <time>2015-07-06T09:45:36.065Z</time>
      </trkpt>
      <trkpt lat="45.95278" lon="4.91191">
        <ele>296.299987793</ele>
        <time>2015-07-06T09:45:36.998Z</time>
      </trkpt>
      <trkpt lat="45.95275" lon="4.91186">
        <ele>295.799987793</ele>
        <time>2015-07-06T09:45:38.001Z</time>
      </trkpt>
      <trkpt lat="45.95269" lon="4.91178">
        <ele>295</ele>
        <time>2015-07-06T09:45:39.997Z</time>
      </trkpt>
      <trkpt lat="45.95267" lon="4.91175">
        <ele>294.700012207</ele>
        <time>2015-07-06T09:45:41.052Z</time>
      </trkpt>
      <trkpt lat="45.95262" lon="4.91168">
        <ele>294.200012207</ele>
        <time>2015-07-06T09:45:42.998Z</time>
      </trkpt>
      <trkpt lat="45.9526" lon="4.91164">
        <ele>294</ele>
        <time>2015-07-06T09:45:44.004Z</time>
      </trkpt>
      <trkpt lat="45.95255" lon="4.91156">
        <ele>293.5</ele>
        <time>2015-07-06T09:45:47.003Z</time>
      </trkpt>
      <trkpt lat="45.95254" lon="4.91154">
        <ele>293.200012207</ele>
        <time>2015-07-06T09:45:48.001Z</time>
      </trkpt>
      <trkpt lat="45.9525" lon="4.91146">
        <ele>292.100006104</ele>
        <time>2015-07-06T09:45:50.998Z</time>
      </trkpt>
      <trkpt lat="45.95247" lon="4.91142">
        <ele>291.899993896</ele>
        <time>2015-07-06T09:45:52Z</time>
      </trkpt>
      <trkpt lat="45.95242" lon="4.91134">
        <ele>291</ele>
        <time>2015-07-06T09:45:54.998Z</time>
      </trkpt>
      <trkpt lat="45.9524" lon="4.91131">
        <ele>290.899993896</ele>
        <time>2015-07-06T09:45:56.048Z</time>
      </trkpt>
      <trkpt lat="45.95236" lon="4.9112">
        <ele>289.700012207</ele>
        <time>2015-07-06T09:46:00.038Z</time>
      </trkpt>
      <trkpt lat="45.95234" lon="4.91118">
        <ele>289.399993896</ele>
        <time>2015-07-06T09:46:01.052Z</time>
      </trkpt>
      <trkpt lat="45.95232" lon="4.91106">
        <ele>288.399993896</ele>
        <time>2015-07-06T09:46:04.999Z</time>
      </trkpt>
      <trkpt lat="45.9523" lon="4.91104">
        <ele>288.100006104</ele>
        <time>2015-07-06T09:46:06.026Z</time>
      </trkpt>
      <trkpt lat="45.95225" lon="4.91094">
        <ele>287.5</ele>
        <time>2015-07-06T09:46:10.003Z</time>
      </trkpt>
      <trkpt lat="45.95224" lon="4.91092">
        <ele>287.399993896</ele>
        <time>2015-07-06T09:46:11Z</time>
      </trkpt>
      <trkpt lat="45.9522" lon="4.91083">
        <ele>287.5</ele>
        <time>2015-07-06T09:46:14.999Z</time>
      </trkpt>
      <trkpt lat="45.95218" lon="4.91082">
        <ele>287.5</ele>
        <time>2015-07-06T09:46:16.061Z</time>
      </trkpt>
      <trkpt lat="45.9521" lon="4.91082">
        <ele>287.600006104</ele>
        <time>2015-07-06T09:46:18.998Z</time>
      </trkpt>
      <trkpt lat="45.95206" lon="4.91081">
        <ele>287.5</ele>
        <time>2015-07-06T09:46:20.025Z</time>
      </trkpt>
      <trkpt lat="45.95199" lon="4.91079">
        <ele>287.399993896</ele>
        <time>2015-07-06T09:46:22.001Z</time>
      </trkpt>
      <trkpt lat="45.95196" lon="4.91077">
        <ele>287.399993896</ele>
        <time>2015-07-06T09:46:23Z</time>
      </trkpt>
      <trkpt lat="45.9519" lon="4.91069">
        <ele>288</ele>
        <time>2015-07-06T09:46:26.029Z</time>
      </trkpt>
      <trkpt lat="45.9519" lon="4.91064">
        <ele>288.200012207</ele>
        <time>2015-07-06T09:46:27.002Z</time>
      </trkpt>
      <trkpt lat="45.95186" lon="4.91057">
        <ele>288.299987793</ele>
        <time>2015-07-06T09:46:29.002Z</time>
      </trkpt>
      <trkpt lat="45.95184" lon="4.91054">
        <ele>288.399993896</ele>
        <time>2015-07-06T09:46:30.004Z</time>
      </trkpt>
      <trkpt lat="45.95178" lon="4.91046">
        <ele>288.600006104</ele>
        <time>2015-07-06T09:46:33.001Z</time>
      </trkpt>
      <trkpt lat="45.95176" lon="4.91043">
        <ele>288.799987793</ele>
        <time>2015-07-06T09:46:34.003Z</time>
      </trkpt>
      <trkpt lat="45.95172" lon="4.91035">
        <ele>288.899993896</ele>
        <time>2015-07-06T09:46:37.012Z</time>
      </trkpt>
      <trkpt lat="45.95171" lon="4.91032">
        <ele>289.100006104</ele>
        <time>2015-07-06T09:46:38.001Z</time>
      </trkpt>
      <trkpt lat="45.95171" lon="4.91022">
        <ele>290</ele>
        <time>2015-07-06T09:46:41Z</time>
      </trkpt>
      <trkpt lat="45.9517" lon="4.91018">
        <ele>290.200012207</ele>
        <time>2015-07-06T09:46:42.002Z</time>
      </trkpt>
      <trkpt lat="45.95168" lon="4.9101">
        <ele>290.700012207</ele>
        <time>2015-07-06T09:46:44Z</time>
      </trkpt>
      <trkpt lat="45.95167" lon="4.91005">
        <ele>291</ele>
        <time>2015-07-06T09:46:44.998Z</time>
      </trkpt>
      <trkpt lat="45.95165" lon="4.90993">
        <ele>291.200012207</ele>
        <time>2015-07-06T09:46:48.003Z</time>
      </trkpt>
      <trkpt lat="45.95166" lon="4.90989">
        <ele>291.5</ele>
        <time>2015-07-06T09:46:48.998Z</time>
      </trkpt>
      <trkpt lat="45.95164" lon="4.90979">
        <ele>291.799987793</ele>
        <time>2015-07-06T09:49:27.052Z</time>
      </trkpt>
      <trkpt lat="45.95166" lon="4.90979">
        <ele>291.799987793</ele>
        <time>2015-07-06T09:49:27.998Z</time>
      </trkpt>
      <trkpt lat="45.95168" lon="4.90978">
        <ele>291.799987793</ele>
        <time>2015-07-06T09:49:33.024Z</time>
      </trkpt>
      <trkpt lat="45.95168" lon="4.90978">
        <ele>291.899993896</ele>
        <time>2015-07-06T09:49:34.002Z</time>
      </trkpt>
      <trkpt lat="45.95171" lon="4.90969">
        <ele>292</ele>
        <time>2015-07-06T09:49:44.002Z</time>
      </trkpt>
      <trkpt lat="45.95173" lon="4.90964">
        <ele>292</ele>
        <time>2015-07-06T09:49:44.998Z</time>
      </trkpt>
      <trkpt lat="45.95176" lon="4.90954">
        <ele>292.200012207</ele>
        <time>2015-07-06T09:49:47.019Z</time>
      </trkpt>
      <trkpt lat="45.95176" lon="4.90947">
        <ele>292.299987793</ele>
        <time>2015-07-06T09:49:48.02Z</time>
      </trkpt>
      <trkpt lat="45.95178" lon="4.90934">
        <ele>292.399993896</ele>
        <time>2015-07-06T09:49:50.002Z</time>
      </trkpt>
      <trkpt lat="45.95179" lon="4.90928">
        <ele>292.299987793</ele>
        <time>2015-07-06T09:49:51.002Z</time>
      </trkpt>
      <trkpt lat="45.9518" lon="4.90921">
        <ele>292.299987793</ele>
        <time>2015-07-06T09:49:51.998Z</time>
      </trkpt>
      <trkpt lat="45.95181" lon="4.90914">
        <ele>292.299987793</ele>
        <time>2015-07-06T09:49:53Z</time>
      </trkpt>
      <trkpt lat="45.95181" lon="4.90907">
        <ele>292.399993896</ele>
        <time>2015-07-06T09:49:54.003Z</time>
      </trkpt>
      <trkpt lat="45.95181" lon="4.90899">
        <ele>292.600006104</ele>
        <time>2015-07-06T09:49:55.001Z</time>
      </trkpt>
      <trkpt lat="45.95182" lon="4.90892">
        <ele>292.700012207</ele>
        <time>2015-07-06T09:49:56.001Z</time>
      </trkpt>
      <trkpt lat="45.95183" lon="4.90884">
        <ele>292.700012207</ele>
        <time>2015-07-06T09:49:56.998Z</time>
      </trkpt>
      <trkpt lat="45.95183" lon="4.90877">
        <ele>292.700012207</ele>
        <time>2015-07-06T09:49:57.998Z</time>
      </trkpt>
      <trkpt lat="45.95184" lon="4.9087">
        <ele>292.799987793</ele>
        <time>2015-07-06T09:49:58.998Z</time>
      </trkpt>
      <trkpt lat="45.95185" lon="4.90863">
        <ele>292.899993896</ele>
        <time>2015-07-06T09:50:00.023Z</time>
      </trkpt>
      <trkpt lat="45.95185" lon="4.90855">
        <ele>293</ele>
        <time>2015-07-06T09:50:00.998Z</time>
      </trkpt>
      <trkpt lat="45.95186" lon="4.90847">
        <ele>293</ele>
        <time>2015-07-06T09:50:02.003Z</time>
      </trkpt>
      <trkpt lat="45.95187" lon="4.9084">
        <ele>292.899993896</ele>
        <time>2015-07-06T09:50:03.002Z</time>
      </trkpt>
      <trkpt lat="45.95188" lon="4.90832">
        <ele>293.100006104</ele>
        <time>2015-07-06T09:50:04.014Z</time>
      </trkpt>
      <trkpt lat="45.95189" lon="4.90823">
        <ele>293.200012207</ele>
        <time>2015-07-06T09:50:05.002Z</time>
      </trkpt>
      <trkpt lat="45.95189" lon="4.90815">
        <ele>293.299987793</ele>
        <time>2015-07-06T09:50:06.001Z</time>
      </trkpt>
      <trkpt lat="45.95189" lon="4.90807">
        <ele>293.399993896</ele>
        <time>2015-07-06T09:50:07.002Z</time>
      </trkpt>
      <trkpt lat="45.95189" lon="4.908">
        <ele>293.399993896</ele>
        <time>2015-07-06T09:50:08.003Z</time>
      </trkpt>
      <trkpt lat="45.95189" lon="4.90794">
        <ele>293.5</ele>
        <time>2015-07-06T09:50:09.072Z</time>
      </trkpt>
      <trkpt lat="45.95188" lon="4.90787">
        <ele>293.5</ele>
        <time>2015-07-06T09:50:10.002Z</time>
      </trkpt>
      <trkpt lat="45.95186" lon="4.9078">
        <ele>293.399993896</ele>
        <time>2015-07-06T09:50:11.002Z</time>
      </trkpt>
      <trkpt lat="45.95186" lon="4.90772">
        <ele>293.399993896</ele>
        <time>2015-07-06T09:50:12.036Z</time>
      </trkpt>
      <trkpt lat="45.95187" lon="4.90764">
        <ele>293.399993896</ele>
        <time>2015-07-06T09:50:13.001Z</time>
      </trkpt>
      <trkpt lat="45.95186" lon="4.90756">
        <ele>293.5</ele>
        <time>2015-07-06T09:50:14.003Z</time>
      </trkpt>
      <trkpt lat="45.95186" lon="4.90749">
        <ele>293.600006104</ele>
        <time>2015-07-06T09:50:15Z</time>
      </trkpt>
      <trkpt lat="45.95187" lon="4.90742">
        <ele>293.700012207</ele>
        <time>2015-07-06T09:50:16.002Z</time>
      </trkpt>
      <trkpt lat="45.95186" lon="4.90734">
        <ele>293.700012207</ele>
        <time>2015-07-06T09:50:17.002Z</time>
      </trkpt>
      <trkpt lat="45.95187" lon="4.90726">
        <ele>293.799987793</ele>
        <time>2015-07-06T09:50:18.005Z</time>
      </trkpt>
      <trkpt lat="45.95187" lon="4.90718">
        <ele>293.799987793</ele>
        <time>2015-07-06T09:50:18.997Z</time>
      </trkpt>
      <trkpt lat="45.95185" lon="4.90711">
        <ele>293.799987793</ele>
        <time>2015-07-06T09:50:20.042Z</time>
      </trkpt>
      <trkpt lat="45.95187" lon="4.90703">
        <ele>294</ele>
        <time>2015-07-06T09:50:20.998Z</time>
      </trkpt>
      <trkpt lat="45.9519" lon="4.90694">
        <ele>294.399993896</ele>
        <time>2015-07-06T09:50:22Z</time>
      </trkpt>
      <trkpt lat="45.95189" lon="4.90686">
        <ele>294.299987793</ele>
        <time>2015-07-06T09:50:22.998Z</time>
      </trkpt>
      <trkpt lat="45.9519" lon="4.90679">
        <ele>294.299987793</ele>
        <time>2015-07-06T09:50:24.002Z</time>
      </trkpt>
      <trkpt lat="45.95189" lon="4.9067">
        <ele>294.200012207</ele>
        <time>2015-07-06T09:50:25.002Z</time>
      </trkpt>
      <trkpt lat="45.95188" lon="4.90661">
        <ele>294.100006104</ele>
        <time>2015-07-06T09:50:26.002Z</time>
      </trkpt>
      <trkpt lat="45.95188" lon="4.90652">
        <ele>294</ele>
        <time>2015-07-06T09:50:26.998Z</time>
      </trkpt>
      <trkpt lat="45.95188" lon="4.90643">
        <ele>293.899993896</ele>
        <time>2015-07-06T09:50:27.998Z</time>
      </trkpt>
      <trkpt lat="45.95187" lon="4.90634">
        <ele>293.899993896</ele>
        <time>2015-07-06T09:50:29.002Z</time>
      </trkpt>
      <trkpt lat="45.95188" lon="4.90624">
        <ele>293.899993896</ele>
        <time>2015-07-06T09:50:30.027Z</time>
      </trkpt>
      <trkpt lat="45.95188" lon="4.90614">
        <ele>294</ele>
        <time>2015-07-06T09:50:31Z</time>
      </trkpt>
      <trkpt lat="45.95188" lon="4.90605">
        <ele>294</ele>
        <time>2015-07-06T09:50:32.002Z</time>
      </trkpt>
      <trkpt lat="45.95188" lon="4.90596">
        <ele>294.100006104</ele>
        <time>2015-07-06T09:50:33.002Z</time>
      </trkpt>
      <trkpt lat="45.95188" lon="4.90588">
        <ele>294.100006104</ele>
        <time>2015-07-06T09:50:34.001Z</time>
      </trkpt>
      <trkpt lat="45.95189" lon="4.90579">
        <ele>294.100006104</ele>
        <time>2015-07-06T09:50:34.998Z</time>
      </trkpt>
      <trkpt lat="45.95188" lon="4.90572">
        <ele>294.200012207</ele>
        <time>2015-07-06T09:50:36.022Z</time>
      </trkpt>
      <trkpt lat="45.95189" lon="4.90564">
        <ele>294.5</ele>
        <time>2015-07-06T09:50:37Z</time>
      </trkpt>
      <trkpt lat="45.95189" lon="4.90555">
        <ele>294.700012207</ele>
        <time>2015-07-06T09:50:37.999Z</time>
      </trkpt>
      <trkpt lat="45.95189" lon="4.90546">
        <ele>294.700012207</ele>
        <time>2015-07-06T09:50:39.002Z</time>
      </trkpt>
      <trkpt lat="45.95188" lon="4.90537">
        <ele>294.799987793</ele>
        <time>2015-07-06T09:50:39.997Z</time>
      </trkpt>
      <trkpt lat="45.95188" lon="4.90529">
        <ele>295</ele>
        <time>2015-07-06T09:50:41.001Z</time>
      </trkpt>
      <trkpt lat="45.95189" lon="4.9052">
        <ele>295</ele>
        <time>2015-07-06T09:50:42.003Z</time>
      </trkpt>
      <trkpt lat="45.9519" lon="4.90512">
        <ele>294.700012207</ele>
        <time>2015-07-06T09:50:43Z</time>
      </trkpt>
      <trkpt lat="45.95191" lon="4.90503">
        <ele>294.799987793</ele>
        <time>2015-07-06T09:50:44.002Z</time>
      </trkpt>
      <trkpt lat="45.95191" lon="4.90494">
        <ele>294.5</ele>
        <time>2015-07-06T09:50:44.998Z</time>
      </trkpt>
      <trkpt lat="45.95192" lon="4.90485">
        <ele>294.600006104</ele>
        <time>2015-07-06T09:50:45.997Z</time>
      </trkpt>
      <trkpt lat="45.95192" lon="4.90475">
        <ele>294.200012207</ele>
        <time>2015-07-06T09:50:47Z</time>
      </trkpt>
      <trkpt lat="45.95192" lon="4.90466">
        <ele>293.799987793</ele>
        <time>2015-07-06T09:50:48.002Z</time>
      </trkpt>
      <trkpt lat="45.95192" lon="4.90456">
        <ele>293.600006104</ele>
        <time>2015-07-06T09:50:48.998Z</time>
      </trkpt>
      <trkpt lat="45.95193" lon="4.90446">
        <ele>293.399993896</ele>
        <time>2015-07-06T09:50:50.003Z</time>
      </trkpt>
      <trkpt lat="45.95193" lon="4.90436">
        <ele>292.899993896</ele>
        <time>2015-07-06T09:50:50.997Z</time>
      </trkpt>
      <trkpt lat="45.95193" lon="4.90427">
        <ele>291.899993896</ele>
        <time>2015-07-06T09:50:52.015Z</time>
      </trkpt>
      <trkpt lat="45.95194" lon="4.90417">
        <ele>291.700012207</ele>
        <time>2015-07-06T09:50:52.999Z</time>
      </trkpt>
      <trkpt lat="45.95194" lon="4.90407">
        <ele>291.600006104</ele>
        <time>2015-07-06T09:50:54.004Z</time>
      </trkpt>
      <trkpt lat="45.95195" lon="4.90398">
        <ele>291.399993896</ele>
        <time>2015-07-06T09:50:55.002Z</time>
      </trkpt>
      <trkpt lat="45.95196" lon="4.90389">
        <ele>291.100006104</ele>
        <time>2015-07-06T09:50:56.004Z</time>
      </trkpt>
      <trkpt lat="45.95196" lon="4.9038">
        <ele>291.200012207</ele>
        <time>2015-07-06T09:50:57Z</time>
      </trkpt>
      <trkpt lat="45.95197" lon="4.90372">
        <ele>291.399993896</ele>
        <time>2015-07-06T09:50:57.998Z</time>
      </trkpt>
      <trkpt lat="45.95199" lon="4.90363">
        <ele>291.5</ele>
        <time>2015-07-06T09:50:59Z</time>
      </trkpt>
      <trkpt lat="45.95201" lon="4.90355">
        <ele>291.5</ele>
        <time>2015-07-06T09:51:00.018Z</time>
      </trkpt>
      <trkpt lat="45.95203" lon="4.90347">
        <ele>291.200012207</ele>
        <time>2015-07-06T09:51:01.002Z</time>
      </trkpt>
      <trkpt lat="45.95205" lon="4.90338">
        <ele>291.100006104</ele>
        <time>2015-07-06T09:51:02.001Z</time>
      </trkpt>
      <trkpt lat="45.95206" lon="4.9033">
        <ele>291</ele>
        <time>2015-07-06T09:51:03Z</time>
      </trkpt>
      <trkpt lat="45.95208" lon="4.90322">
        <ele>290.899993896</ele>
        <time>2015-07-06T09:51:04.042Z</time>
      </trkpt>
      <trkpt lat="45.9521" lon="4.90313">
        <ele>290.899993896</ele>
        <time>2015-07-06T09:51:04.996Z</time>
      </trkpt>
      <trkpt lat="45.95211" lon="4.90304">
        <ele>291.600006104</ele>
        <time>2015-07-06T09:51:06.001Z</time>
      </trkpt>
      <trkpt lat="45.95214" lon="4.90295">
        <ele>292.100006104</ele>
        <time>2015-07-06T09:51:06.998Z</time>
      </trkpt>
      <trkpt lat="45.95216" lon="4.90286">
        <ele>292.200012207</ele>
        <time>2015-07-06T09:51:08.015Z</time>
      </trkpt>
      <trkpt lat="45.95217" lon="4.90277">
        <ele>292.100006104</ele>
        <time>2015-07-06T09:51:09.002Z</time>
      </trkpt>
      <trkpt lat="45.95218" lon="4.90267">
        <ele>292</ele>
        <time>2015-07-06T09:51:10.002Z</time>
      </trkpt>
      <trkpt lat="45.95219" lon="4.90258">
        <ele>292</ele>
        <time>2015-07-06T09:51:11Z</time>
      </trkpt>
      <trkpt lat="45.95219" lon="4.90248">
        <ele>292.200012207</ele>
        <time>2015-07-06T09:51:12.004Z</time>
      </trkpt>
      <trkpt lat="45.95219" lon="4.90239">
        <ele>292.200012207</ele>
        <time>2015-07-06T09:51:12.998Z</time>
      </trkpt>
      <trkpt lat="45.95218" lon="4.90229">
        <ele>291.899993896</ele>
        <time>2015-07-06T09:51:14.001Z</time>
      </trkpt>
      <trkpt lat="45.95217" lon="4.9022">
        <ele>291.799987793</ele>
        <time>2015-07-06T09:51:15.001Z</time>
      </trkpt>
      <trkpt lat="45.95216" lon="4.90211">
        <ele>291.600006104</ele>
        <time>2015-07-06T09:51:16Z</time>
      </trkpt>
      <trkpt lat="45.95215" lon="4.90203">
        <ele>291.299987793</ele>
        <time>2015-07-06T09:51:16.998Z</time>
      </trkpt>
      <trkpt lat="45.95213" lon="4.90194">
        <ele>291.100006104</ele>
        <time>2015-07-06T09:51:18.002Z</time>
      </trkpt>
      <trkpt lat="45.95212" lon="4.90186">
        <ele>291.100006104</ele>
        <time>2015-07-06T09:51:18.998Z</time>
      </trkpt>
      <trkpt lat="45.95209" lon="4.90179">
        <ele>291.299987793</ele>
        <time>2015-07-06T09:51:20.003Z</time>
      </trkpt>
      <trkpt lat="45.95206" lon="4.90172">
        <ele>291.200012207</ele>
        <time>2015-07-06T09:51:20.998Z</time>
      </trkpt>
      <trkpt lat="45.95201" lon="4.90168">
        <ele>291</ele>
        <time>2015-07-06T09:51:22.004Z</time>
      </trkpt>
      <trkpt lat="45.95195" lon="4.90166">
        <ele>290.700012207</ele>
        <time>2015-07-06T09:51:22.997Z</time>
      </trkpt>
      <trkpt lat="45.95189" lon="4.90166">
        <ele>290.399993896</ele>
        <time>2015-07-06T09:51:24.017Z</time>
      </trkpt>
      <trkpt lat="45.95182" lon="4.90168">
        <ele>290.100006104</ele>
        <time>2015-07-06T09:51:24.998Z</time>
      </trkpt>
      <trkpt lat="45.95175" lon="4.90169">
        <ele>289.700012207</ele>
        <time>2015-07-06T09:51:26.003Z</time>
      </trkpt>
      <trkpt lat="45.95169" lon="4.90171">
        <ele>289.700012207</ele>
        <time>2015-07-06T09:51:27.041Z</time>
      </trkpt>
      <trkpt lat="45.95163" lon="4.90172">
        <ele>289.600006104</ele>
        <time>2015-07-06T09:51:27.998Z</time>
      </trkpt>
      <trkpt lat="45.95156" lon="4.90172">
        <ele>289.5</ele>
        <time>2015-07-06T09:51:29.028Z</time>
      </trkpt>
      <trkpt lat="45.9515" lon="4.9017">
        <ele>289.5</ele>
        <time>2015-07-06T09:51:30.002Z</time>
      </trkpt>
      <trkpt lat="45.95143" lon="4.90168">
        <ele>289.5</ele>
        <time>2015-07-06T09:51:30.998Z</time>
      </trkpt>
      <trkpt lat="45.95136" lon="4.90165">
        <ele>289.399993896</ele>
        <time>2015-07-06T09:51:32.001Z</time>
      </trkpt>
      <trkpt lat="45.95129" lon="4.90162">
        <ele>289.700012207</ele>
        <time>2015-07-06T09:51:32.998Z</time>
      </trkpt>
      <trkpt lat="45.95122" lon="4.90158">
        <ele>289.799987793</ele>
        <time>2015-07-06T09:51:33.998Z</time>
      </trkpt>
      <trkpt lat="45.95116" lon="4.90154">
        <ele>289.799987793</ele>
        <time>2015-07-06T09:51:34.998Z</time>
      </trkpt>
      <trkpt lat="45.9511" lon="4.90148">
        <ele>289.600006104</ele>
        <time>2015-07-06T09:51:36.004Z</time>
      </trkpt>
      <trkpt lat="45.95104" lon="4.90142">
        <ele>289.299987793</ele>
        <time>2015-07-06T09:51:37.032Z</time>
      </trkpt>
      <trkpt lat="45.95099" lon="4.90135">
        <ele>289</ele>
        <time>2015-07-06T09:51:38.002Z</time>
      </trkpt>
      <trkpt lat="45.95093" lon="4.9013">
        <ele>288.799987793</ele>
        <time>2015-07-06T09:51:39.002Z</time>
      </trkpt>
      <trkpt lat="45.95088" lon="4.90124">
        <ele>288.700012207</ele>
        <time>2015-07-06T09:51:40.017Z</time>
      </trkpt>
      <trkpt lat="45.95083" lon="4.90117">
        <ele>288.700012207</ele>
        <time>2015-07-06T09:51:41.001Z</time>
      </trkpt>
      <trkpt lat="45.95078" lon="4.90111">
        <ele>288.700012207</ele>
        <time>2015-07-06T09:51:42.001Z</time>
      </trkpt>
      <trkpt lat="45.95074" lon="4.90104">
        <ele>288.600006104</ele>
        <time>2015-07-06T09:51:42.998Z</time>
      </trkpt>
      <trkpt lat="45.95069" lon="4.90098">
        <ele>288.799987793</ele>
        <time>2015-07-06T09:51:44.001Z</time>
      </trkpt>
      <trkpt lat="45.95064" lon="4.90091">
        <ele>288.899993896</ele>
        <time>2015-07-06T09:51:44.997Z</time>
      </trkpt>
      <trkpt lat="45.95058" lon="4.90085">
        <ele>288.700012207</ele>
        <time>2015-07-06T09:51:45.997Z</time>
      </trkpt>
      <trkpt lat="45.95053" lon="4.90078">
        <ele>288.5</ele>
        <time>2015-07-06T09:51:47Z</time>
      </trkpt>
      <trkpt lat="45.95048" lon="4.90071">
        <ele>288.5</ele>
        <time>2015-07-06T09:51:48.003Z</time>
      </trkpt>
      <trkpt lat="45.95043" lon="4.90064">
        <ele>288.399993896</ele>
        <time>2015-07-06T09:51:48.998Z</time>
      </trkpt>
      <trkpt lat="45.95038" lon="4.90056">
        <ele>288.399993896</ele>
        <time>2015-07-06T09:51:49.999Z</time>
      </trkpt>
      <trkpt lat="45.95033" lon="4.90048">
        <ele>288.299987793</ele>
        <time>2015-07-06T09:51:51Z</time>
      </trkpt>
      <trkpt lat="45.95029" lon="4.9004">
        <ele>288.100006104</ele>
        <time>2015-07-06T09:51:52.002Z</time>
      </trkpt>
      <trkpt lat="45.95024" lon="4.90031">
        <ele>287.799987793</ele>
        <time>2015-07-06T09:51:53.001Z</time>
      </trkpt>
      <trkpt lat="45.95018" lon="4.90023">
        <ele>287.399993896</ele>
        <time>2015-07-06T09:51:54.001Z</time>
      </trkpt>
      <trkpt lat="45.95013" lon="4.90014">
        <ele>287.100006104</ele>
        <time>2015-07-06T09:51:55.048Z</time>
      </trkpt>
      <trkpt lat="45.95009" lon="4.90005">
        <ele>286.799987793</ele>
        <time>2015-07-06T09:51:56.003Z</time>
      </trkpt>
      <trkpt lat="45.95004" lon="4.89997">
        <ele>286.899993896</ele>
        <time>2015-07-06T09:51:57Z</time>
      </trkpt>
      <trkpt lat="45.94999" lon="4.89988">
        <ele>286.799987793</ele>
        <time>2015-07-06T09:51:57.997Z</time>
      </trkpt>
      <trkpt lat="45.94995" lon="4.8998">
        <ele>286.600006104</ele>
        <time>2015-07-06T09:51:58.997Z</time>
      </trkpt>
      <trkpt lat="45.9499" lon="4.89971">
        <ele>286.200012207</ele>
        <time>2015-07-06T09:52:00.023Z</time>
      </trkpt>
      <trkpt lat="45.94985" lon="4.89963">
        <ele>285.299987793</ele>
        <time>2015-07-06T09:52:01Z</time>
      </trkpt>
      <trkpt lat="45.94981" lon="4.89955">
        <ele>285</ele>
        <time>2015-07-06T09:52:02.004Z</time>
      </trkpt>
      <trkpt lat="45.94975" lon="4.89948">
        <ele>284.799987793</ele>
        <time>2015-07-06T09:52:02.999Z</time>
      </trkpt>
      <trkpt lat="45.9497" lon="4.8994">
        <ele>284.5</ele>
        <time>2015-07-06T09:52:03.997Z</time>
      </trkpt>
      <trkpt lat="45.94965" lon="4.89933">
        <ele>284.5</ele>
        <time>2015-07-06T09:52:04.997Z</time>
      </trkpt>
      <trkpt lat="45.94959" lon="4.89927">
        <ele>284.5</ele>
        <time>2015-07-06T09:52:06.026Z</time>
      </trkpt>
      <trkpt lat="45.94954" lon="4.8992">
        <ele>284.299987793</ele>
        <time>2015-07-06T09:52:07.004Z</time>
      </trkpt>
      <trkpt lat="45.94949" lon="4.89912">
        <ele>284.299987793</ele>
        <time>2015-07-06T09:52:08.003Z</time>
      </trkpt>
      <trkpt lat="45.94944" lon="4.89905">
        <ele>284.299987793</ele>
        <time>2015-07-06T09:52:09.001Z</time>
      </trkpt>
      <trkpt lat="45.94939" lon="4.89898">
        <ele>284.200012207</ele>
        <time>2015-07-06T09:52:10.002Z</time>
      </trkpt>
      <trkpt lat="45.94934" lon="4.8989">
        <ele>284.299987793</ele>
        <time>2015-07-06T09:52:11.003Z</time>
      </trkpt>
      <trkpt lat="45.9493" lon="4.89881">
        <ele>284.200012207</ele>
        <time>2015-07-06T09:52:12.002Z</time>
      </trkpt>
      <trkpt lat="45.94928" lon="4.89872">
        <ele>284.100006104</ele>
        <time>2015-07-06T09:52:13.002Z</time>
      </trkpt>
      <trkpt lat="45.94925" lon="4.89862">
        <ele>284.100006104</ele>
        <time>2015-07-06T09:52:14.004Z</time>
      </trkpt>
      <trkpt lat="45.94924" lon="4.89852">
        <ele>284</ele>
        <time>2015-07-06T09:52:14.998Z</time>
      </trkpt>
      <trkpt lat="45.94923" lon="4.89843">
        <ele>283.899993896</ele>
        <time>2015-07-06T09:52:15.999Z</time>
      </trkpt>
      <trkpt lat="45.94923" lon="4.89833">
        <ele>284.299987793</ele>
        <time>2015-07-06T09:52:17.039Z</time>
      </trkpt>
      <trkpt lat="45.94924" lon="4.89823">
        <ele>284.299987793</ele>
        <time>2015-07-06T09:52:18.004Z</time>
      </trkpt>
      <trkpt lat="45.94925" lon="4.89814">
        <ele>284.399993896</ele>
        <time>2015-07-06T09:52:19Z</time>
      </trkpt>
      <trkpt lat="45.94926" lon="4.89804">
        <ele>284.5</ele>
        <time>2015-07-06T09:52:20.004Z</time>
      </trkpt>
      <trkpt lat="45.94928" lon="4.89794">
        <ele>284.399993896</ele>
        <time>2015-07-06T09:52:21.062Z</time>
      </trkpt>
      <trkpt lat="45.94931" lon="4.89785">
        <ele>284.100006104</ele>
        <time>2015-07-06T09:52:22.001Z</time>
      </trkpt>
      <trkpt lat="45.94932" lon="4.89776">
        <ele>284.399993896</ele>
        <time>2015-07-06T09:52:23Z</time>
      </trkpt>
      <trkpt lat="45.94934" lon="4.89767">
        <ele>284.600006104</ele>
        <time>2015-07-06T09:52:24.002Z</time>
      </trkpt>
      <trkpt lat="45.94937" lon="4.89758">
        <ele>285</ele>
        <time>2015-07-06T09:52:24.998Z</time>
      </trkpt>
      <trkpt lat="45.94939" lon="4.8975">
        <ele>285.299987793</ele>
        <time>2015-07-06T09:52:26.002Z</time>
      </trkpt>
      <trkpt lat="45.94941" lon="4.89742">
        <ele>285.399993896</ele>
        <time>2015-07-06T09:52:27Z</time>
      </trkpt>
      <trkpt lat="45.94943" lon="4.89734">
        <ele>285.5</ele>
        <time>2015-07-06T09:52:28.015Z</time>
      </trkpt>
      <trkpt lat="45.94945" lon="4.89726">
        <ele>285.600006104</ele>
        <time>2015-07-06T09:52:29Z</time>
      </trkpt>
      <trkpt lat="45.94948" lon="4.89718">
        <ele>285.799987793</ele>
        <time>2015-07-06T09:52:30.043Z</time>
      </trkpt>
      <trkpt lat="45.9495" lon="4.8971">
        <ele>285.899993896</ele>
        <time>2015-07-06T09:52:30.998Z</time>
      </trkpt>
      <trkpt lat="45.94952" lon="4.89702">
        <ele>286</ele>
        <time>2015-07-06T09:52:32.052Z</time>
      </trkpt>
      <trkpt lat="45.94954" lon="4.89694">
        <ele>285.799987793</ele>
        <time>2015-07-06T09:52:33Z</time>
      </trkpt>
      <trkpt lat="45.94957" lon="4.89685">
        <ele>285.5</ele>
        <time>2015-07-06T09:52:33.998Z</time>
      </trkpt>
      <trkpt lat="45.9496" lon="4.89677">
        <ele>284.899993896</ele>
        <time>2015-07-06T09:52:34.998Z</time>
      </trkpt>
      <trkpt lat="45.94963" lon="4.89669">
        <ele>284.899993896</ele>
        <time>2015-07-06T09:52:36.001Z</time>
      </trkpt>
      <trkpt lat="45.94966" lon="4.8966">
        <ele>285.100006104</ele>
        <time>2015-07-06T09:52:36.998Z</time>
      </trkpt>
      <trkpt lat="45.94969" lon="4.89651">
        <ele>285.399993896</ele>
        <time>2015-07-06T09:52:38.001Z</time>
      </trkpt>
      <trkpt lat="45.94971" lon="4.89642">
        <ele>285.700012207</ele>
        <time>2015-07-06T09:52:38.998Z</time>
      </trkpt>
      <trkpt lat="45.94973" lon="4.89634">
        <ele>286</ele>
        <time>2015-07-06T09:52:39.997Z</time>
      </trkpt>
      <trkpt lat="45.94975" lon="4.89625">
        <ele>285.899993896</ele>
        <time>2015-07-06T09:52:40.997Z</time>
      </trkpt>
      <trkpt lat="45.94978" lon="4.89616">
        <ele>285.600006104</ele>
        <time>2015-07-06T09:52:42.001Z</time>
      </trkpt>
      <trkpt lat="45.9498" lon="4.89607">
        <ele>285.399993896</ele>
        <time>2015-07-06T09:52:43.001Z</time>
      </trkpt>
      <trkpt lat="45.94982" lon="4.89598">
        <ele>285.399993896</ele>
        <time>2015-07-06T09:52:44.018Z</time>
      </trkpt>
      <trkpt lat="45.94985" lon="4.8959">
        <ele>285.600006104</ele>
        <time>2015-07-06T09:52:44.999Z</time>
      </trkpt>
      <trkpt lat="45.94987" lon="4.89581">
        <ele>285.899993896</ele>
        <time>2015-07-06T09:52:45.998Z</time>
      </trkpt>
      <trkpt lat="45.94989" lon="4.89573">
        <ele>286</ele>
        <time>2015-07-06T09:52:46.998Z</time>
      </trkpt>
      <trkpt lat="45.94991" lon="4.89565">
        <ele>285.899993896</ele>
        <time>2015-07-06T09:52:48.001Z</time>
      </trkpt>
      <trkpt lat="45.94994" lon="4.89557">
        <ele>285.799987793</ele>
        <time>2015-07-06T09:52:48.998Z</time>
      </trkpt>
      <trkpt lat="45.94997" lon="4.89549">
        <ele>285.5</ele>
        <time>2015-07-06T09:52:50.001Z</time>
      </trkpt>
      <trkpt lat="45.94999" lon="4.89542">
        <ele>285.200012207</ele>
        <time>2015-07-06T09:52:50.997Z</time>
      </trkpt>
      <trkpt lat="45.95002" lon="4.89533">
        <ele>283.899993896</ele>
        <time>2015-07-06T09:52:51.998Z</time>
      </trkpt>
      <trkpt lat="45.95006" lon="4.89526">
        <ele>283.600006104</ele>
        <time>2015-07-06T09:52:52.997Z</time>
      </trkpt>
      <trkpt lat="45.95012" lon="4.89521">
        <ele>283.799987793</ele>
        <time>2015-07-06T09:52:54.006Z</time>
      </trkpt>
      <trkpt lat="45.95018" lon="4.89516">
        <ele>283.899993896</ele>
        <time>2015-07-06T09:52:54.998Z</time>
      </trkpt>
      <trkpt lat="45.95024" lon="4.89513">
        <ele>283.899993896</ele>
        <time>2015-07-06T09:52:56.003Z</time>
      </trkpt>
      <trkpt lat="45.95031" lon="4.89511">
        <ele>283.600006104</ele>
        <time>2015-07-06T09:52:56.998Z</time>
      </trkpt>
      <trkpt lat="45.95038" lon="4.89509">
        <ele>283</ele>
        <time>2015-07-06T09:52:57.997Z</time>
      </trkpt>
      <trkpt lat="45.95044" lon="4.89508">
        <ele>282.700012207</ele>
        <time>2015-07-06T09:52:58.997Z</time>
      </trkpt>
      <trkpt lat="45.95051" lon="4.89507">
        <ele>282.5</ele>
        <time>2015-07-06T09:53:00.021Z</time>
      </trkpt>
      <trkpt lat="45.95057" lon="4.89506">
        <ele>282.299987793</ele>
        <time>2015-07-06T09:53:01Z</time>
      </trkpt>
      <trkpt lat="45.95064" lon="4.89504">
        <ele>282.299987793</ele>
        <time>2015-07-06T09:53:02.001Z</time>
      </trkpt>
      <trkpt lat="45.9507" lon="4.89502">
        <ele>282.100006104</ele>
        <time>2015-07-06T09:53:02.997Z</time>
      </trkpt>
      <trkpt lat="45.95076" lon="4.89499">
        <ele>281.899993896</ele>
        <time>2015-07-06T09:53:03.997Z</time>
      </trkpt>
      <trkpt lat="45.95081" lon="4.89495">
        <ele>281.600006104</ele>
        <time>2015-07-06T09:53:04.997Z</time>
      </trkpt>
      <trkpt lat="45.95085" lon="4.89489">
        <ele>281.299987793</ele>
        <time>2015-07-06T09:53:06.001Z</time>
      </trkpt>
      <trkpt lat="45.95086" lon="4.8948">
        <ele>281.299987793</ele>
        <time>2015-07-06T09:53:07Z</time>
      </trkpt>
      <trkpt lat="45.95085" lon="4.89472">
        <ele>281.200012207</ele>
        <time>2015-07-06T09:53:08.004Z</time>
      </trkpt>
      <trkpt lat="45.95083" lon="4.89463">
        <ele>281.100006104</ele>
        <time>2015-07-06T09:53:09.031Z</time>
      </trkpt>
      <trkpt lat="45.95081" lon="4.89455">
        <ele>281.200012207</ele>
        <time>2015-07-06T09:53:10.016Z</time>
      </trkpt>
      <trkpt lat="45.95079" lon="4.89446">
        <ele>281.200012207</ele>
        <time>2015-07-06T09:53:11.002Z</time>
      </trkpt>
      <trkpt lat="45.95078" lon="4.89437">
        <ele>281.200012207</ele>
        <time>2015-07-06T09:53:12.001Z</time>
      </trkpt>
      <trkpt lat="45.95076" lon="4.89428">
        <ele>281.399993896</ele>
        <time>2015-07-06T09:53:12.998Z</time>
      </trkpt>
      <trkpt lat="45.95075" lon="4.89419">
        <ele>281.399993896</ele>
        <time>2015-07-06T09:53:13.999Z</time>
      </trkpt>
      <trkpt lat="45.95074" lon="4.8941">
        <ele>281.299987793</ele>
        <time>2015-07-06T09:53:14.998Z</time>
      </trkpt>
      <trkpt lat="45.95072" lon="4.89401">
        <ele>281.299987793</ele>
        <time>2015-07-06T09:53:15.998Z</time>
      </trkpt>
      <trkpt lat="45.95071" lon="4.89393">
        <ele>281.5</ele>
        <time>2015-07-06T09:53:17.042Z</time>
      </trkpt>
      <trkpt lat="45.95071" lon="4.89384">
        <ele>281.799987793</ele>
        <time>2015-07-06T09:53:18.003Z</time>
      </trkpt>
      <trkpt lat="45.95071" lon="4.89374">
        <ele>281.5</ele>
        <time>2015-07-06T09:53:18.998Z</time>
      </trkpt>
      <trkpt lat="45.95072" lon="4.89365">
        <ele>281.600006104</ele>
        <time>2015-07-06T09:53:20.002Z</time>
      </trkpt>
      <trkpt lat="45.95072" lon="4.89357">
        <ele>282</ele>
        <time>2015-07-06T09:53:21.004Z</time>
      </trkpt>
      <trkpt lat="45.95072" lon="4.89347">
        <ele>282.299987793</ele>
        <time>2015-07-06T09:53:22.002Z</time>
      </trkpt>
      <trkpt lat="45.95073" lon="4.89339">
        <ele>282.700012207</ele>
        <time>2015-07-06T09:53:22.997Z</time>
      </trkpt>
      <trkpt lat="45.95073" lon="4.8933">
        <ele>283</ele>
        <time>2015-07-06T09:53:24.001Z</time>
      </trkpt>
      <trkpt lat="45.95073" lon="4.89321">
        <ele>283.200012207</ele>
        <time>2015-07-06T09:53:24.997Z</time>
      </trkpt>
      <trkpt lat="45.95074" lon="4.89312">
        <ele>283.200012207</ele>
        <time>2015-07-06T09:53:26.003Z</time>
      </trkpt>
      <trkpt lat="45.95074" lon="4.89303">
        <ele>283.299987793</ele>
        <time>2015-07-06T09:53:26.998Z</time>
      </trkpt>
      <trkpt lat="45.95075" lon="4.89294">
        <ele>283.299987793</ele>
        <time>2015-07-06T09:53:27.997Z</time>
      </trkpt>
      <trkpt lat="45.95075" lon="4.89285">
        <ele>283.200012207</ele>
        <time>2015-07-06T09:53:28.999Z</time>
      </trkpt>
      <trkpt lat="45.95075" lon="4.89276">
        <ele>283</ele>
        <time>2015-07-06T09:53:30.001Z</time>
      </trkpt>
      <trkpt lat="45.95075" lon="4.89267">
        <ele>282.799987793</ele>
        <time>2015-07-06T09:53:31.015Z</time>
      </trkpt>
      <trkpt lat="45.95075" lon="4.89258">
        <ele>282.799987793</ele>
        <time>2015-07-06T09:53:31.998Z</time>
      </trkpt>
      <trkpt lat="45.95075" lon="4.89249">
        <ele>282.600006104</ele>
        <time>2015-07-06T09:53:32.998Z</time>
      </trkpt>
      <trkpt lat="45.95076" lon="4.89241">
        <ele>282.399993896</ele>
        <time>2015-07-06T09:53:34.001Z</time>
      </trkpt>
      <trkpt lat="45.95076" lon="4.89232">
        <ele>282.299987793</ele>
        <time>2015-07-06T09:53:34.999Z</time>
      </trkpt>
      <trkpt lat="45.95077" lon="4.89223">
        <ele>282.299987793</ele>
        <time>2015-07-06T09:53:36.062Z</time>
      </trkpt>
      <trkpt lat="45.95076" lon="4.89214">
        <ele>281.899993896</ele>
        <time>2015-07-06T09:53:37Z</time>
      </trkpt>
      <trkpt lat="45.95076" lon="4.89206">
        <ele>281.799987793</ele>
        <time>2015-07-06T09:53:38.003Z</time>
      </trkpt>
      <trkpt lat="45.95076" lon="4.89197">
        <ele>281.799987793</ele>
        <time>2015-07-06T09:53:38.998Z</time>
      </trkpt>
      <trkpt lat="45.95077" lon="4.89189">
        <ele>281.799987793</ele>
        <time>2015-07-06T09:53:39.999Z</time>
      </trkpt>
      <trkpt lat="45.95077" lon="4.8918">
        <ele>281.700012207</ele>
        <time>2015-07-06T09:53:40.997Z</time>
      </trkpt>
      <trkpt lat="45.95078" lon="4.89172">
        <ele>281.899993896</ele>
        <time>2015-07-06T09:53:42.003Z</time>
      </trkpt>
      <trkpt lat="45.95079" lon="4.89164">
        <ele>282.100006104</ele>
        <time>2015-07-06T09:53:42.999Z</time>
      </trkpt>
      <trkpt lat="45.95078" lon="4.89156">
        <ele>282.600006104</ele>
        <time>2015-07-06T09:53:44.003Z</time>
      </trkpt>
      <trkpt lat="45.95079" lon="4.89148">
        <ele>282.600006104</ele>
        <time>2015-07-06T09:53:44.997Z</time>
      </trkpt>
      <trkpt lat="45.95079" lon="4.89139">
        <ele>282.700012207</ele>
        <time>2015-07-06T09:53:46Z</time>
      </trkpt>
      <trkpt lat="45.9508" lon="4.8913">
        <ele>282.799987793</ele>
        <time>2015-07-06T09:53:46.998Z</time>
      </trkpt>
      <trkpt lat="45.95081" lon="4.89122">
        <ele>283</ele>
        <time>2015-07-06T09:53:48.036Z</time>
      </trkpt>
      <trkpt lat="45.95082" lon="4.89113">
        <ele>283.100006104</ele>
        <time>2015-07-06T09:53:48.997Z</time>
      </trkpt>
      <trkpt lat="45.95083" lon="4.89104">
        <ele>283.899993896</ele>
        <time>2015-07-06T09:53:50.003Z</time>
      </trkpt>
      <trkpt lat="45.95084" lon="4.89096">
        <ele>284.600006104</ele>
        <time>2015-07-06T09:53:51Z</time>
      </trkpt>
      <trkpt lat="45.95085" lon="4.89087">
        <ele>285.200012207</ele>
        <time>2015-07-06T09:53:52.013Z</time>
      </trkpt>
      <trkpt lat="45.95084" lon="4.89079">
        <ele>285.5</ele>
        <time>2015-07-06T09:53:52.997Z</time>
      </trkpt>
      <trkpt lat="45.95084" lon="4.8907">
        <ele>285.799987793</ele>
        <time>2015-07-06T09:53:54.003Z</time>
      </trkpt>
      <trkpt lat="45.95085" lon="4.89061">
        <ele>286</ele>
        <time>2015-07-06T09:53:54.999Z</time>
      </trkpt>
      <trkpt lat="45.95085" lon="4.89052">
        <ele>286.200012207</ele>
        <time>2015-07-06T09:53:56.003Z</time>
      </trkpt>
      <trkpt lat="45.95085" lon="4.89044">
        <ele>286.399993896</ele>
        <time>2015-07-06T09:53:57.008Z</time>
      </trkpt>
      <trkpt lat="45.95086" lon="4.89036">
        <ele>286.399993896</ele>
        <time>2015-07-06T09:53:57.997Z</time>
      </trkpt>
      <trkpt lat="45.95087" lon="4.89028">
        <ele>286.399993896</ele>
        <time>2015-07-06T09:53:58.999Z</time>
      </trkpt>
      <trkpt lat="45.95089" lon="4.8902">
        <ele>286.5</ele>
        <time>2015-07-06T09:54:00.013Z</time>
      </trkpt>
      <trkpt lat="45.9509" lon="4.89012">
        <ele>286.399993896</ele>
        <time>2015-07-06T09:54:01.002Z</time>
      </trkpt>
      <trkpt lat="45.95091" lon="4.89004">
        <ele>286.299987793</ele>
        <time>2015-07-06T09:54:02.001Z</time>
      </trkpt>
      <trkpt lat="45.95092" lon="4.88996">
        <ele>286.200012207</ele>
        <time>2015-07-06T09:54:02.998Z</time>
      </trkpt>
      <trkpt lat="45.95093" lon="4.88988">
        <ele>286.100006104</ele>
        <time>2015-07-06T09:54:04.02Z</time>
      </trkpt>
      <trkpt lat="45.95094" lon="4.88981">
        <ele>286.100006104</ele>
        <time>2015-07-06T09:54:04.998Z</time>
      </trkpt>
      <trkpt lat="45.95095" lon="4.88973">
        <ele>286.299987793</ele>
        <time>2015-07-06T09:54:06.003Z</time>
      </trkpt>
      <trkpt lat="45.95096" lon="4.88965">
        <ele>286.5</ele>
        <time>2015-07-06T09:54:07.022Z</time>
      </trkpt>
      <trkpt lat="45.95096" lon="4.88958">
        <ele>287.399993896</ele>
        <time>2015-07-06T09:54:08.015Z</time>
      </trkpt>
      <trkpt lat="45.95097" lon="4.8895">
        <ele>287.600006104</ele>
        <time>2015-07-06T09:54:08.997Z</time>
      </trkpt>
      <trkpt lat="45.95098" lon="4.88941">
        <ele>287.299987793</ele>
        <time>2015-07-06T09:54:10.001Z</time>
      </trkpt>
      <trkpt lat="45.95098" lon="4.88933">
        <ele>287.399993896</ele>
        <time>2015-07-06T09:54:10.997Z</time>
      </trkpt>
      <trkpt lat="45.95099" lon="4.88925">
        <ele>287.799987793</ele>
        <time>2015-07-06T09:54:12.006Z</time>
      </trkpt>
      <trkpt lat="45.95099" lon="4.88917">
        <ele>288.299987793</ele>
        <time>2015-07-06T09:54:12.998Z</time>
      </trkpt>
      <trkpt lat="45.951" lon="4.88909">
        <ele>288.5</ele>
        <time>2015-07-06T09:54:14.002Z</time>
      </trkpt>
      <trkpt lat="45.951" lon="4.88902">
        <ele>288.5</ele>
        <time>2015-07-06T09:54:14.997Z</time>
      </trkpt>
      <trkpt lat="45.95101" lon="4.88894">
        <ele>288.299987793</ele>
        <time>2015-07-06T09:54:15.998Z</time>
      </trkpt>
      <trkpt lat="45.95102" lon="4.88885">
        <ele>288.600006104</ele>
        <time>2015-07-06T09:54:16.998Z</time>
      </trkpt>
      <trkpt lat="45.95102" lon="4.88877">
        <ele>289</ele>
        <time>2015-07-06T09:54:18.001Z</time>
      </trkpt>
      <trkpt lat="45.95103" lon="4.88869">
        <ele>289</ele>
        <time>2015-07-06T09:54:18.999Z</time>
      </trkpt>
      <trkpt lat="45.95104" lon="4.88861">
        <ele>289.100006104</ele>
        <time>2015-07-06T09:54:19.999Z</time>
      </trkpt>
      <trkpt lat="45.95105" lon="4.88853">
        <ele>289.700012207</ele>
        <time>2015-07-06T09:54:20.997Z</time>
      </trkpt>
      <trkpt lat="45.95105" lon="4.88845">
        <ele>290.399993896</ele>
        <time>2015-07-06T09:54:22.001Z</time>
      </trkpt>
      <trkpt lat="45.95107" lon="4.88837">
        <ele>291.399993896</ele>
        <time>2015-07-06T09:54:22.997Z</time>
      </trkpt>
      <trkpt lat="45.95108" lon="4.8883">
        <ele>291.799987793</ele>
        <time>2015-07-06T09:54:24.082Z</time>
      </trkpt>
      <trkpt lat="45.9511" lon="4.88823">
        <ele>292.700012207</ele>
        <time>2015-07-06T09:54:25Z</time>
      </trkpt>
      <trkpt lat="45.9511" lon="4.88816">
        <ele>293.399993896</ele>
        <time>2015-07-06T09:54:25.999Z</time>
      </trkpt>
      <trkpt lat="45.95111" lon="4.88809">
        <ele>294.100006104</ele>
        <time>2015-07-06T09:54:27Z</time>
      </trkpt>
      <trkpt lat="45.95111" lon="4.88802">
        <ele>294.899993896</ele>
        <time>2015-07-06T09:54:28.002Z</time>
      </trkpt>
      <trkpt lat="45.95112" lon="4.88795">
        <ele>295.799987793</ele>
        <time>2015-07-06T09:54:28.997Z</time>
      </trkpt>
      <trkpt lat="45.95114" lon="4.88783">
        <ele>297.5</ele>
        <time>2015-07-06T09:54:30.998Z</time>
      </trkpt>
      <trkpt lat="45.95115" lon="4.88777">
        <ele>298.600006104</ele>
        <time>2015-07-06T09:54:32.003Z</time>
      </trkpt>
      <trkpt lat="45.95116" lon="4.88765">
        <ele>301</ele>
        <time>2015-07-06T09:54:34.001Z</time>
      </trkpt>
      <trkpt lat="45.95117" lon="4.8876">
        <ele>301.600006104</ele>
        <time>2015-07-06T09:54:34.999Z</time>
      </trkpt>
      <trkpt lat="45.95117" lon="4.88748">
        <ele>302.299987793</ele>
        <time>2015-07-06T09:54:37.022Z</time>
      </trkpt>
      <trkpt lat="45.95117" lon="4.88741">
        <ele>302.700012207</ele>
        <time>2015-07-06T09:54:38.004Z</time>
      </trkpt>
      <trkpt lat="45.95116" lon="4.88729">
        <ele>303.399993896</ele>
        <time>2015-07-06T09:54:40.013Z</time>
      </trkpt>
      <trkpt lat="45.95115" lon="4.88723">
        <ele>303.100006104</ele>
        <time>2015-07-06T09:54:41.001Z</time>
      </trkpt>
      <trkpt lat="45.95114" lon="4.88711">
        <ele>302.799987793</ele>
        <time>2015-07-06T09:54:42.997Z</time>
      </trkpt>
      <trkpt lat="45.95114" lon="4.88704">
        <ele>302.399993896</ele>
        <time>2015-07-06T09:54:44.003Z</time>
      </trkpt>
      <trkpt lat="45.95113" lon="4.88692">
        <ele>302.299987793</ele>
        <time>2015-07-06T09:54:45.997Z</time>
      </trkpt>
      <trkpt lat="45.95112" lon="4.88686">
        <ele>302.100006104</ele>
        <time>2015-07-06T09:54:46.997Z</time>
      </trkpt>
      <trkpt lat="45.95112" lon="4.88674">
        <ele>301.899993896</ele>
        <time>2015-07-06T09:54:49.022Z</time>
      </trkpt>
      <trkpt lat="45.95112" lon="4.88668">
        <ele>301.799987793</ele>
        <time>2015-07-06T09:54:49.999Z</time>
      </trkpt>
      <trkpt lat="45.95113" lon="4.88655">
        <ele>301.399993896</ele>
        <time>2015-07-06T09:54:51.997Z</time>
      </trkpt>
      <trkpt lat="45.95113" lon="4.88649">
        <ele>300.700012207</ele>
        <time>2015-07-06T09:54:52.997Z</time>
      </trkpt>
      <trkpt lat="45.95114" lon="4.88643">
        <ele>300</ele>
        <time>2015-07-06T09:54:54.001Z</time>
      </trkpt>
      <trkpt lat="45.95114" lon="4.88636">
        <ele>299.600006104</ele>
        <time>2015-07-06T09:54:54.997Z</time>
      </trkpt>
      <trkpt lat="45.95114" lon="4.88629">
        <ele>299.5</ele>
        <time>2015-07-06T09:54:56.003Z</time>
      </trkpt>
      <trkpt lat="45.95114" lon="4.88623">
        <ele>299.5</ele>
        <time>2015-07-06T09:54:56.999Z</time>
      </trkpt>
      <trkpt lat="45.95115" lon="4.8861">
        <ele>299.600006104</ele>
        <time>2015-07-06T09:54:58.999Z</time>
      </trkpt>
      <trkpt lat="45.95117" lon="4.88604">
        <ele>299.700012207</ele>
        <time>2015-07-06T09:55:00.02Z</time>
      </trkpt>
      <trkpt lat="45.95117" lon="4.88597">
        <ele>299.799987793</ele>
        <time>2015-07-06T09:55:01.052Z</time>
      </trkpt>
      <trkpt lat="45.95119" lon="4.8859">
        <ele>299.899993896</ele>
        <time>2015-07-06T09:55:02.001Z</time>
      </trkpt>
      <trkpt lat="45.9512" lon="4.88583">
        <ele>299.899993896</ele>
        <time>2015-07-06T09:55:02.998Z</time>
      </trkpt>
      <trkpt lat="45.9512" lon="4.88575">
        <ele>299.899993896</ele>
        <time>2015-07-06T09:55:04Z</time>
      </trkpt>
      <trkpt lat="45.9512" lon="4.88568">
        <ele>299.899993896</ele>
        <time>2015-07-06T09:55:05.032Z</time>
      </trkpt>
      <trkpt lat="45.95121" lon="4.88562">
        <ele>299.899993896</ele>
        <time>2015-07-06T09:55:06.001Z</time>
      </trkpt>
      <trkpt lat="45.95119" lon="4.88551">
        <ele>299.700012207</ele>
        <time>2015-07-06T09:55:07.999Z</time>
      </trkpt>
      <trkpt lat="45.95117" lon="4.88546">
        <ele>299.200012207</ele>
        <time>2015-07-06T09:55:08.999Z</time>
      </trkpt>
      <trkpt lat="45.95116" lon="4.88539">
        <ele>299.200012207</ele>
        <time>2015-07-06T09:55:09.997Z</time>
      </trkpt>
      <trkpt lat="45.95114" lon="4.88533">
        <ele>298.899993896</ele>
        <time>2015-07-06T09:55:10.997Z</time>
      </trkpt>
      <trkpt lat="45.95112" lon="4.88527">
        <ele>298.100006104</ele>
        <time>2015-07-06T09:55:12Z</time>
      </trkpt>
      <trkpt lat="45.95111" lon="4.88521">
        <ele>297.799987793</ele>
        <time>2015-07-06T09:55:12.997Z</time>
      </trkpt>
      <trkpt lat="45.95108" lon="4.88509">
        <ele>297.899993896</ele>
        <time>2015-07-06T09:55:14.997Z</time>
      </trkpt>
      <trkpt lat="45.95107" lon="4.88503">
        <ele>298.100006104</ele>
        <time>2015-07-06T09:55:15.997Z</time>
      </trkpt>
      <trkpt lat="45.95105" lon="4.88491">
        <ele>298.299987793</ele>
        <time>2015-07-06T09:55:18Z</time>
      </trkpt>
      <trkpt lat="45.95105" lon="4.88484">
        <ele>299.100006104</ele>
        <time>2015-07-06T09:55:18.997Z</time>
      </trkpt>
      <trkpt lat="45.95103" lon="4.88472">
        <ele>299.799987793</ele>
        <time>2015-07-06T09:55:20.997Z</time>
      </trkpt>
      <trkpt lat="45.95103" lon="4.88465">
        <ele>299.899993896</ele>
        <time>2015-07-06T09:55:22Z</time>
      </trkpt>
      <trkpt lat="45.95103" lon="4.88458">
        <ele>299.899993896</ele>
        <time>2015-07-06T09:55:22.995Z</time>
      </trkpt>
      <trkpt lat="45.95103" lon="4.88449">
        <ele>300.100006104</ele>
        <time>2015-07-06T09:55:24.003Z</time>
      </trkpt>
      <trkpt lat="45.95104" lon="4.88441">
        <ele>300.200012207</ele>
        <time>2015-07-06T09:55:25.035Z</time>
      </trkpt>
      <trkpt lat="45.95104" lon="4.88434">
        <ele>300.200012207</ele>
        <time>2015-07-06T09:55:26.064Z</time>
      </trkpt>
      <trkpt lat="45.95105" lon="4.88427">
        <ele>300.100006104</ele>
        <time>2015-07-06T09:55:27.001Z</time>
      </trkpt>
      <trkpt lat="45.95107" lon="4.8842">
        <ele>299.899993896</ele>
        <time>2015-07-06T09:55:27.997Z</time>
      </trkpt>
      <trkpt lat="45.95109" lon="4.88409">
        <ele>300.200012207</ele>
        <time>2015-07-06T09:55:30.003Z</time>
      </trkpt>
      <trkpt lat="45.95109" lon="4.88403">
        <ele>300.5</ele>
        <time>2015-07-06T09:55:31.025Z</time>
      </trkpt>
      <trkpt lat="45.95109" lon="4.88393">
        <ele>301.299987793</ele>
        <time>2015-07-06T09:55:33.013Z</time>
      </trkpt>
      <trkpt lat="45.9511" lon="4.88388">
        <ele>301.700012207</ele>
        <time>2015-07-06T09:55:34.001Z</time>
      </trkpt>
      <trkpt lat="45.95111" lon="4.88375">
        <ele>302.200012207</ele>
        <time>2015-07-06T09:55:36.014Z</time>
      </trkpt>
      <trkpt lat="45.95112" lon="4.88369">
        <ele>302.200012207</ele>
        <time>2015-07-06T09:55:36.999Z</time>
      </trkpt>
      <trkpt lat="45.95112" lon="4.88362">
        <ele>302.200012207</ele>
        <time>2015-07-06T09:55:38.003Z</time>
      </trkpt>
      <trkpt lat="45.95114" lon="4.88353">
        <ele>302.299987793</ele>
        <time>2015-07-06T09:55:39.001Z</time>
      </trkpt>
      <trkpt lat="45.95117" lon="4.88345">
        <ele>302.399993896</ele>
        <time>2015-07-06T09:55:39.997Z</time>
      </trkpt>
      <trkpt lat="45.95119" lon="4.88336">
        <ele>302.5</ele>
        <time>2015-07-06T09:55:40.997Z</time>
      </trkpt>
      <trkpt lat="45.9512" lon="4.88329">
        <ele>302.5</ele>
        <time>2015-07-06T09:55:42.001Z</time>
      </trkpt>
      <trkpt lat="45.9512" lon="4.88321">
        <ele>302</ele>
        <time>2015-07-06T09:55:42.999Z</time>
      </trkpt>
      <trkpt lat="45.95121" lon="4.88314">
        <ele>302</ele>
        <time>2015-07-06T09:55:44.016Z</time>
      </trkpt>
      <trkpt lat="45.95122" lon="4.88307">
        <ele>302</ele>
        <time>2015-07-06T09:55:45.029Z</time>
      </trkpt>
      <trkpt lat="45.95123" lon="4.88299">
        <ele>302</ele>
        <time>2015-07-06T09:55:45.997Z</time>
      </trkpt>
      <trkpt lat="45.95124" lon="4.88291">
        <ele>301.799987793</ele>
        <time>2015-07-06T09:55:46.997Z</time>
      </trkpt>
      <trkpt lat="45.95124" lon="4.88284">
        <ele>301.5</ele>
        <time>2015-07-06T09:55:48.003Z</time>
      </trkpt>
      <trkpt lat="45.95125" lon="4.88276">
        <ele>301.399993896</ele>
        <time>2015-07-06T09:55:48.997Z</time>
      </trkpt>
      <trkpt lat="45.95126" lon="4.88269">
        <ele>301.100006104</ele>
        <time>2015-07-06T09:55:50.003Z</time>
      </trkpt>
      <trkpt lat="45.95126" lon="4.88263">
        <ele>300.700012207</ele>
        <time>2015-07-06T09:55:51.02Z</time>
      </trkpt>
      <trkpt lat="45.95126" lon="4.88251">
        <ele>300.100006104</ele>
        <time>2015-07-06T09:55:52.997Z</time>
      </trkpt>
      <trkpt lat="45.95125" lon="4.88246">
        <ele>299.600006104</ele>
        <time>2015-07-06T09:55:54.003Z</time>
      </trkpt>
      <trkpt lat="45.95127" lon="4.88236">
        <ele>298.399993896</ele>
        <time>2015-07-06T09:55:56.002Z</time>
      </trkpt>
      <trkpt lat="45.95126" lon="4.88229">
        <ele>298.200012207</ele>
        <time>2015-07-06T09:55:56.999Z</time>
      </trkpt>
      <trkpt lat="45.95125" lon="4.88222">
        <ele>298.100006104</ele>
        <time>2015-07-06T09:55:58.001Z</time>
      </trkpt>
      <trkpt lat="45.95126" lon="4.88214">
        <ele>298</ele>
        <time>2015-07-06T09:55:58.999Z</time>
      </trkpt>
      <trkpt lat="45.95128" lon="4.88206">
        <ele>297.899993896</ele>
        <time>2015-07-06T09:56:00.035Z</time>
      </trkpt>
      <trkpt lat="45.95132" lon="4.88199">
        <ele>297.700012207</ele>
        <time>2015-07-06T09:56:01.002Z</time>
      </trkpt>
      <trkpt lat="45.95135" lon="4.88193">
        <ele>297.799987793</ele>
        <time>2015-07-06T09:56:01.999Z</time>
      </trkpt>
      <trkpt lat="45.95139" lon="4.88188">
        <ele>297.700012207</ele>
        <time>2015-07-06T09:56:02.997Z</time>
      </trkpt>
      <trkpt lat="45.95144" lon="4.88184">
        <ele>297.700012207</ele>
        <time>2015-07-06T09:56:04.031Z</time>
      </trkpt>
      <trkpt lat="45.9515" lon="4.8818">
        <ele>297.5</ele>
        <time>2015-07-06T09:56:04.997Z</time>
      </trkpt>
      <trkpt lat="45.95157" lon="4.88178">
        <ele>295.799987793</ele>
        <time>2015-07-06T09:56:06.003Z</time>
      </trkpt>
      <trkpt lat="45.95163" lon="4.88172">
        <ele>295.399993896</ele>
        <time>2015-07-06T09:56:06.998Z</time>
      </trkpt>
      <trkpt lat="45.95168" lon="4.88165">
        <ele>295.299987793</ele>
        <time>2015-07-06T09:56:08.002Z</time>
      </trkpt>
      <trkpt lat="45.95172" lon="4.88157">
        <ele>295.200012207</ele>
        <time>2015-07-06T09:56:09.001Z</time>
      </trkpt>
      <trkpt lat="45.95174" lon="4.88149">
        <ele>294.399993896</ele>
        <time>2015-07-06T09:56:09.999Z</time>
      </trkpt>
      <trkpt lat="45.95176" lon="4.88141">
        <ele>294</ele>
        <time>2015-07-06T09:56:10.997Z</time>
      </trkpt>
      <trkpt lat="45.95178" lon="4.88132">
        <ele>293.799987793</ele>
        <time>2015-07-06T09:56:12.003Z</time>
      </trkpt>
      <trkpt lat="45.95179" lon="4.88123">
        <ele>293.600006104</ele>
        <time>2015-07-06T09:56:12.997Z</time>
      </trkpt>
      <trkpt lat="45.95182" lon="4.88114">
        <ele>293.700012207</ele>
        <time>2015-07-06T09:56:14.003Z</time>
      </trkpt>
      <trkpt lat="45.95183" lon="4.88106">
        <ele>293.899993896</ele>
        <time>2015-07-06T09:56:14.997Z</time>
      </trkpt>
      <trkpt lat="45.95185" lon="4.88097">
        <ele>293.899993896</ele>
        <time>2015-07-06T09:56:16.013Z</time>
      </trkpt>
      <trkpt lat="45.95187" lon="4.88088">
        <ele>293.799987793</ele>
        <time>2015-07-06T09:56:16.997Z</time>
      </trkpt>
      <trkpt lat="45.95189" lon="4.88079">
        <ele>294</ele>
        <time>2015-07-06T09:56:18Z</time>
      </trkpt>
      <trkpt lat="45.95191" lon="4.8807">
        <ele>293.899993896</ele>
        <time>2015-07-06T09:56:18.999Z</time>
      </trkpt>
      <trkpt lat="45.95194" lon="4.88062">
        <ele>293.600006104</ele>
        <time>2015-07-06T09:56:20.001Z</time>
      </trkpt>
      <trkpt lat="45.95196" lon="4.88053">
        <ele>293.600006104</ele>
        <time>2015-07-06T09:56:20.999Z</time>
      </trkpt>
      <trkpt lat="45.95199" lon="4.88045">
        <ele>293.799987793</ele>
        <time>2015-07-06T09:56:22.003Z</time>
      </trkpt>
      <trkpt lat="45.95202" lon="4.88037">
        <ele>294</ele>
        <time>2015-07-06T09:56:23.032Z</time>
      </trkpt>
      <trkpt lat="45.95206" lon="4.8803">
        <ele>294.200012207</ele>
        <time>2015-07-06T09:56:24.045Z</time>
      </trkpt>
      <trkpt lat="45.9521" lon="4.88022">
        <ele>293.5</ele>
        <time>2015-07-06T09:56:24.997Z</time>
      </trkpt>
      <trkpt lat="45.95215" lon="4.88015">
        <ele>293.700012207</ele>
        <time>2015-07-06T09:56:26.002Z</time>
      </trkpt>
      <trkpt lat="45.9522" lon="4.88008">
        <ele>293.5</ele>
        <time>2015-07-06T09:56:26.999Z</time>
      </trkpt>
      <trkpt lat="45.95224" lon="4.88001">
        <ele>293.100006104</ele>
        <time>2015-07-06T09:56:28Z</time>
      </trkpt>
      <trkpt lat="45.95229" lon="4.87995">
        <ele>293.200012207</ele>
        <time>2015-07-06T09:56:28.999Z</time>
      </trkpt>
      <trkpt lat="45.95234" lon="4.87989">
        <ele>293.200012207</ele>
        <time>2015-07-06T09:56:30.001Z</time>
      </trkpt>
      <trkpt lat="45.95241" lon="4.87983">
        <ele>292.200012207</ele>
        <time>2015-07-06T09:56:31.001Z</time>
      </trkpt>
      <trkpt lat="45.95246" lon="4.87977">
        <ele>291.299987793</ele>
        <time>2015-07-06T09:56:32.016Z</time>
      </trkpt>
      <trkpt lat="45.9525" lon="4.8797">
        <ele>290.5</ele>
        <time>2015-07-06T09:56:33Z</time>
      </trkpt>
      <trkpt lat="45.95254" lon="4.87964">
        <ele>290</ele>
        <time>2015-07-06T09:56:33.999Z</time>
      </trkpt>
      <trkpt lat="45.95257" lon="4.87958">
        <ele>289.600006104</ele>
        <time>2015-07-06T09:56:34.997Z</time>
      </trkpt>
      <trkpt lat="45.9526" lon="4.87951">
        <ele>289.299987793</ele>
        <time>2015-07-06T09:56:36Z</time>
      </trkpt>
      <trkpt lat="45.95263" lon="4.87944">
        <ele>289.100006104</ele>
        <time>2015-07-06T09:56:36.997Z</time>
      </trkpt>
      <trkpt lat="45.95264" lon="4.87936">
        <ele>288.399993896</ele>
        <time>2015-07-06T09:56:38.002Z</time>
      </trkpt>
      <trkpt lat="45.95266" lon="4.87927">
        <ele>287.799987793</ele>
        <time>2015-07-06T09:56:38.996Z</time>
      </trkpt>
      <trkpt lat="45.95267" lon="4.87918">
        <ele>287.799987793</ele>
        <time>2015-07-06T09:56:39.997Z</time>
      </trkpt>
      <trkpt lat="45.95267" lon="4.8791">
        <ele>287.399993896</ele>
        <time>2015-07-06T09:56:40.997Z</time>
      </trkpt>
      <trkpt lat="45.95266" lon="4.87901">
        <ele>287.5</ele>
        <time>2015-07-06T09:56:42.001Z</time>
      </trkpt>
      <trkpt lat="45.95264" lon="4.87892">
        <ele>287.600006104</ele>
        <time>2015-07-06T09:56:42.997Z</time>
      </trkpt>
      <trkpt lat="45.95262" lon="4.87884">
        <ele>287.700012207</ele>
        <time>2015-07-06T09:56:44.002Z</time>
      </trkpt>
      <trkpt lat="45.95259" lon="4.87875">
        <ele>287.5</ele>
        <time>2015-07-06T09:56:45.001Z</time>
      </trkpt>
      <trkpt lat="45.95257" lon="4.87867">
        <ele>287.299987793</ele>
        <time>2015-07-06T09:56:46.001Z</time>
      </trkpt>
      <trkpt lat="45.95255" lon="4.87858">
        <ele>286.799987793</ele>
        <time>2015-07-06T09:56:47Z</time>
      </trkpt>
      <trkpt lat="45.95254" lon="4.87849">
        <ele>286.700012207</ele>
        <time>2015-07-06T09:56:48.016Z</time>
      </trkpt>
      <trkpt lat="45.95253" lon="4.8784">
        <ele>286.399993896</ele>
        <time>2015-07-06T09:56:48.997Z</time>
      </trkpt>
      <trkpt lat="45.95251" lon="4.8783">
        <ele>285.899993896</ele>
        <time>2015-07-06T09:56:49.999Z</time>
      </trkpt>
      <trkpt lat="45.95249" lon="4.87821">
        <ele>285.700012207</ele>
        <time>2015-07-06T09:56:50.997Z</time>
      </trkpt>
      <trkpt lat="45.95247" lon="4.87811">
        <ele>285.600006104</ele>
        <time>2015-07-06T09:56:52.001Z</time>
      </trkpt>
      <trkpt lat="45.95246" lon="4.87801">
        <ele>285.600006104</ele>
        <time>2015-07-06T09:56:52.997Z</time>
      </trkpt>
      <trkpt lat="45.95244" lon="4.87791">
        <ele>285.200012207</ele>
        <time>2015-07-06T09:56:54.002Z</time>
      </trkpt>
      <trkpt lat="45.95242" lon="4.87781">
        <ele>285.100006104</ele>
        <time>2015-07-06T09:56:55.001Z</time>
      </trkpt>
      <trkpt lat="45.95242" lon="4.8777">
        <ele>284.899993896</ele>
        <time>2015-07-06T09:56:55.998Z</time>
      </trkpt>
      <trkpt lat="45.9524" lon="4.8776">
        <ele>285.299987793</ele>
        <time>2015-07-06T09:56:56.998Z</time>
      </trkpt>
      <trkpt lat="45.95238" lon="4.87751">
        <ele>286.600006104</ele>
        <time>2015-07-06T09:56:57.997Z</time>
      </trkpt>
      <trkpt lat="45.95236" lon="4.87741">
        <ele>286.899993896</ele>
        <time>2015-07-06T09:56:58.998Z</time>
      </trkpt>
      <trkpt lat="45.95234" lon="4.87731">
        <ele>287</ele>
        <time>2015-07-06T09:57:00.018Z</time>
      </trkpt>
      <trkpt lat="45.95231" lon="4.87721">
        <ele>286.899993896</ele>
        <time>2015-07-06T09:57:00.998Z</time>
      </trkpt>
      <trkpt lat="45.95229" lon="4.8771">
        <ele>287</ele>
        <time>2015-07-06T09:57:02.001Z</time>
      </trkpt>
      <trkpt lat="45.95227" lon="4.877">
        <ele>287</ele>
        <time>2015-07-06T09:57:02.997Z</time>
      </trkpt>
      <trkpt lat="45.95225" lon="4.8769">
        <ele>287</ele>
        <time>2015-07-06T09:57:04.012Z</time>
      </trkpt>
      <trkpt lat="45.95224" lon="4.87679">
        <ele>287</ele>
        <time>2015-07-06T09:57:04.999Z</time>
      </trkpt>
      <trkpt lat="45.95223" lon="4.87668">
        <ele>286.899993896</ele>
        <time>2015-07-06T09:57:06.002Z</time>
      </trkpt>
      <trkpt lat="45.95222" lon="4.87656">
        <ele>287.100006104</ele>
        <time>2015-07-06T09:57:06.998Z</time>
      </trkpt>
      <trkpt lat="45.9522" lon="4.87645">
        <ele>287.200012207</ele>
        <time>2015-07-06T09:57:07.998Z</time>
      </trkpt>
      <trkpt lat="45.95219" lon="4.87633">
        <ele>287.100006104</ele>
        <time>2015-07-06T09:57:08.999Z</time>
      </trkpt>
      <trkpt lat="45.95218" lon="4.87621">
        <ele>287.100006104</ele>
        <time>2015-07-06T09:57:10Z</time>
      </trkpt>
      <trkpt lat="45.95216" lon="4.87608">
        <ele>286.899993896</ele>
        <time>2015-07-06T09:57:10.998Z</time>
      </trkpt>
      <trkpt lat="45.95215" lon="4.87595">
        <ele>286.799987793</ele>
        <time>2015-07-06T09:57:12.001Z</time>
      </trkpt>
      <trkpt lat="45.95214" lon="4.87582">
        <ele>286.700012207</ele>
        <time>2015-07-06T09:57:12.999Z</time>
      </trkpt>
      <trkpt lat="45.95213" lon="4.87568">
        <ele>286.600006104</ele>
        <time>2015-07-06T09:57:13.999Z</time>
      </trkpt>
      <trkpt lat="45.95212" lon="4.87555">
        <ele>286.5</ele>
        <time>2015-07-06T09:57:15.001Z</time>
      </trkpt>
      <trkpt lat="45.95211" lon="4.87541">
        <ele>286.399993896</ele>
        <time>2015-07-06T09:57:16Z</time>
      </trkpt>
      <trkpt lat="45.95209" lon="4.87528">
        <ele>286.399993896</ele>
        <time>2015-07-06T09:57:16.997Z</time>
      </trkpt>
      <trkpt lat="45.95206" lon="4.87514">
        <ele>286.399993896</ele>
        <time>2015-07-06T09:57:18.001Z</time>
      </trkpt>
      <trkpt lat="45.95203" lon="4.87502">
        <ele>286.299987793</ele>
        <time>2015-07-06T09:57:19.001Z</time>
      </trkpt>
      <trkpt lat="45.95201" lon="4.87489">
        <ele>286.299987793</ele>
        <time>2015-07-06T09:57:20.014Z</time>
      </trkpt>
      <trkpt lat="45.95198" lon="4.87477">
        <ele>286.100006104</ele>
        <time>2015-07-06T09:57:20.997Z</time>
      </trkpt>
      <trkpt lat="45.95195" lon="4.87465">
        <ele>285.899993896</ele>
        <time>2015-07-06T09:57:22Z</time>
      </trkpt>
      <trkpt lat="45.9519" lon="4.87454">
        <ele>285.100006104</ele>
        <time>2015-07-06T09:57:22.997Z</time>
      </trkpt>
      <trkpt lat="45.95188" lon="4.87442">
        <ele>285</ele>
        <time>2015-07-06T09:57:24.042Z</time>
      </trkpt>
      <trkpt lat="45.95185" lon="4.87431">
        <ele>284.899993896</ele>
        <time>2015-07-06T09:57:24.998Z</time>
      </trkpt>
      <trkpt lat="45.95183" lon="4.8742">
        <ele>284.700012207</ele>
        <time>2015-07-06T09:57:26.002Z</time>
      </trkpt>
      <trkpt lat="45.95181" lon="4.87409">
        <ele>284.5</ele>
        <time>2015-07-06T09:57:27.001Z</time>
      </trkpt>
      <trkpt lat="45.95179" lon="4.874">
        <ele>284.200012207</ele>
        <time>2015-07-06T09:57:28.001Z</time>
      </trkpt>
      <trkpt lat="45.95177" lon="4.8739">
        <ele>283.799987793</ele>
        <time>2015-07-06T09:57:28.998Z</time>
      </trkpt>
      <trkpt lat="45.95176" lon="4.8738">
        <ele>283.600006104</ele>
        <time>2015-07-06T09:57:30.003Z</time>
      </trkpt>
      <trkpt lat="45.95175" lon="4.8737">
        <ele>283.5</ele>
        <time>2015-07-06T09:57:30.999Z</time>
      </trkpt>
      <trkpt lat="45.95172" lon="4.87361">
        <ele>283.100006104</ele>
        <time>2015-07-06T09:57:31.998Z</time>
      </trkpt>
      <trkpt lat="45.95168" lon="4.87352">
        <ele>282.399993896</ele>
        <time>2015-07-06T09:57:32.999Z</time>
      </trkpt>
      <trkpt lat="45.95166" lon="4.87343">
        <ele>282.200012207</ele>
        <time>2015-07-06T09:57:33.996Z</time>
      </trkpt>
      <trkpt lat="45.95164" lon="4.87334">
        <ele>282</ele>
        <time>2015-07-06T09:57:34.996Z</time>
      </trkpt>
      <trkpt lat="45.95161" lon="4.87324">
        <ele>281.700012207</ele>
        <time>2015-07-06T09:57:36.016Z</time>
      </trkpt>
      <trkpt lat="45.95159" lon="4.87315">
        <ele>281.299987793</ele>
        <time>2015-07-06T09:57:36.997Z</time>
      </trkpt>
      <trkpt lat="45.95157" lon="4.87306">
        <ele>281.399993896</ele>
        <time>2015-07-06T09:57:38.021Z</time>
      </trkpt>
      <trkpt lat="45.95155" lon="4.87297">
        <ele>281.299987793</ele>
        <time>2015-07-06T09:57:38.997Z</time>
      </trkpt>
      <trkpt lat="45.95153" lon="4.87288">
        <ele>281.299987793</ele>
        <time>2015-07-06T09:57:39.995Z</time>
      </trkpt>
      <trkpt lat="45.95151" lon="4.87279">
        <ele>281.100006104</ele>
        <time>2015-07-06T09:57:40.997Z</time>
      </trkpt>
      <trkpt lat="45.9515" lon="4.87269">
        <ele>280.299987793</ele>
        <time>2015-07-06T09:57:42Z</time>
      </trkpt>
      <trkpt lat="45.95147" lon="4.87261">
        <ele>280.399993896</ele>
        <time>2015-07-06T09:57:42.997Z</time>
      </trkpt>
      <trkpt lat="45.95145" lon="4.87252">
        <ele>280.299987793</ele>
        <time>2015-07-06T09:57:44.002Z</time>
      </trkpt>
      <trkpt lat="45.95143" lon="4.87245">
        <ele>280.700012207</ele>
        <time>2015-07-06T09:57:44.998Z</time>
      </trkpt>
      <trkpt lat="45.95141" lon="4.87237">
        <ele>280.799987793</ele>
        <time>2015-07-06T09:57:46Z</time>
      </trkpt>
      <trkpt lat="45.95139" lon="4.87229">
        <ele>280.899993896</ele>
        <time>2015-07-06T09:57:46.997Z</time>
      </trkpt>
      <trkpt lat="45.95138" lon="4.87221">
        <ele>281.299987793</ele>
        <time>2015-07-06T09:57:48.002Z</time>
      </trkpt>
      <trkpt lat="45.95136" lon="4.87214">
        <ele>281.299987793</ele>
        <time>2015-07-06T09:57:48.999Z</time>
      </trkpt>
      <trkpt lat="45.95134" lon="4.87206">
        <ele>281.299987793</ele>
        <time>2015-07-06T09:57:50.004Z</time>
      </trkpt>
      <trkpt lat="45.95132" lon="4.87198">
        <ele>281.299987793</ele>
        <time>2015-07-06T09:57:50.997Z</time>
      </trkpt>
      <trkpt lat="45.95131" lon="4.8719">
        <ele>281.399993896</ele>
        <time>2015-07-06T09:57:52.022Z</time>
      </trkpt>
      <trkpt lat="45.95129" lon="4.87183">
        <ele>281.399993896</ele>
        <time>2015-07-06T09:57:53.012Z</time>
      </trkpt>
      <trkpt lat="45.95127" lon="4.87175">
        <ele>281.299987793</ele>
        <time>2015-07-06T09:57:54.022Z</time>
      </trkpt>
      <trkpt lat="45.95126" lon="4.87168">
        <ele>281.200012207</ele>
        <time>2015-07-06T09:57:55.012Z</time>
      </trkpt>
      <trkpt lat="45.95126" lon="4.87159">
        <ele>281.299987793</ele>
        <time>2015-07-06T09:57:56.012Z</time>
      </trkpt>
      <trkpt lat="45.95125" lon="4.87152">
        <ele>281.399993896</ele>
        <time>2015-07-06T09:57:57.006Z</time>
      </trkpt>
      <trkpt lat="45.95124" lon="4.87144">
        <ele>281.600006104</ele>
        <time>2015-07-06T09:57:58.012Z</time>
      </trkpt>
      <trkpt lat="45.95121" lon="4.87137">
        <ele>281.700012207</ele>
        <time>2015-07-06T09:57:59.012Z</time>
      </trkpt>
      <trkpt lat="45.9512" lon="4.87129">
        <ele>282</ele>
        <time>2015-07-06T09:58:00.042Z</time>
      </trkpt>
      <trkpt lat="45.95118" lon="4.87122">
        <ele>282.299987793</ele>
        <time>2015-07-06T09:58:01.012Z</time>
      </trkpt>
      <trkpt lat="45.95116" lon="4.87115">
        <ele>282.399993896</ele>
        <time>2015-07-06T09:58:02.052Z</time>
      </trkpt>
      <trkpt lat="45.95113" lon="4.87108">
        <ele>282.5</ele>
        <time>2015-07-06T09:58:03.012Z</time>
      </trkpt>
      <trkpt lat="45.95111" lon="4.87101">
        <ele>282.600006104</ele>
        <time>2015-07-06T09:58:04.006Z</time>
      </trkpt>
      <trkpt lat="45.95109" lon="4.87094">
        <ele>282.700012207</ele>
        <time>2015-07-06T09:58:05.022Z</time>
      </trkpt>
      <trkpt lat="45.95107" lon="4.87087">
        <ele>282.700012207</ele>
        <time>2015-07-06T09:58:06.012Z</time>
      </trkpt>
      <trkpt lat="45.95105" lon="4.8708">
        <ele>282.600006104</ele>
        <time>2015-07-06T09:58:07.012Z</time>
      </trkpt>
      <trkpt lat="45.95102" lon="4.87074">
        <ele>282.600006104</ele>
        <time>2015-07-06T09:58:08.016Z</time>
      </trkpt>
      <trkpt lat="45.951" lon="4.87067">
        <ele>282.700012207</ele>
        <time>2015-07-06T09:58:08.997Z</time>
      </trkpt>
      <trkpt lat="45.95096" lon="4.87061">
        <ele>282.700012207</ele>
        <time>2015-07-06T09:58:10Z</time>
      </trkpt>
      <trkpt lat="45.95093" lon="4.87055">
        <ele>282.700012207</ele>
        <time>2015-07-06T09:58:11.001Z</time>
      </trkpt>
      <trkpt lat="45.9509" lon="4.87049">
        <ele>282.700012207</ele>
        <time>2015-07-06T09:58:12.004Z</time>
      </trkpt>
      <trkpt lat="45.95087" lon="4.87043">
        <ele>282.799987793</ele>
        <time>2015-07-06T09:58:12.999Z</time>
      </trkpt>
      <trkpt lat="45.95083" lon="4.87037">
        <ele>282.899993896</ele>
        <time>2015-07-06T09:58:13.998Z</time>
      </trkpt>
      <trkpt lat="45.95079" lon="4.8703">
        <ele>282.899993896</ele>
        <time>2015-07-06T09:58:14.997Z</time>
      </trkpt>
      <trkpt lat="45.95076" lon="4.87023">
        <ele>282.899993896</ele>
        <time>2015-07-06T09:58:16.001Z</time>
      </trkpt>
      <trkpt lat="45.95073" lon="4.87016">
        <ele>282.899993896</ele>
        <time>2015-07-06T09:58:16.998Z</time>
      </trkpt>
      <trkpt lat="45.9507" lon="4.87008">
        <ele>282.799987793</ele>
        <time>2015-07-06T09:58:18.002Z</time>
      </trkpt>
      <trkpt lat="45.95066" lon="4.87001">
        <ele>282.799987793</ele>
        <time>2015-07-06T09:58:18.997Z</time>
      </trkpt>
      <trkpt lat="45.95063" lon="4.86993">
        <ele>282.600006104</ele>
        <time>2015-07-06T09:58:20.002Z</time>
      </trkpt>
      <trkpt lat="45.9506" lon="4.86985">
        <ele>282.5</ele>
        <time>2015-07-06T09:58:20.998Z</time>
      </trkpt>
      <trkpt lat="45.95057" lon="4.86977">
        <ele>282.399993896</ele>
        <time>2015-07-06T09:58:22.034Z</time>
      </trkpt>
      <trkpt lat="45.95055" lon="4.86969">
        <ele>282.299987793</ele>
        <time>2015-07-06T09:58:22.998Z</time>
      </trkpt>
      <trkpt lat="45.95052" lon="4.8696">
        <ele>282.200012207</ele>
        <time>2015-07-06T09:58:24.017Z</time>
      </trkpt>
      <trkpt lat="45.9505" lon="4.86952">
        <ele>282.100006104</ele>
        <time>2015-07-06T09:58:24.997Z</time>
      </trkpt>
      <trkpt lat="45.95048" lon="4.86943">
        <ele>282</ele>
        <time>2015-07-06T09:58:26.002Z</time>
      </trkpt>
      <trkpt lat="45.95046" lon="4.86935">
        <ele>281.899993896</ele>
        <time>2015-07-06T09:58:26.998Z</time>
      </trkpt>
      <trkpt lat="45.95044" lon="4.86926">
        <ele>281.600006104</ele>
        <time>2015-07-06T09:58:27.997Z</time>
      </trkpt>
      <trkpt lat="45.95041" lon="4.86918">
        <ele>281.399993896</ele>
        <time>2015-07-06T09:58:29.001Z</time>
      </trkpt>
      <trkpt lat="45.95038" lon="4.8691">
        <ele>281.200012207</ele>
        <time>2015-07-06T09:58:30.001Z</time>
      </trkpt>
      <trkpt lat="45.95035" lon="4.86902">
        <ele>280.799987793</ele>
        <time>2015-07-06T09:58:30.997Z</time>
      </trkpt>
      <trkpt lat="45.95033" lon="4.86895">
        <ele>280.5</ele>
        <time>2015-07-06T09:58:32.002Z</time>
      </trkpt>
      <trkpt lat="45.9503" lon="4.86887">
        <ele>280.399993896</ele>
        <time>2015-07-06T09:58:32.996Z</time>
      </trkpt>
      <trkpt lat="45.95027" lon="4.86878">
        <ele>280.200012207</ele>
        <time>2015-07-06T09:58:34.042Z</time>
      </trkpt>
      <trkpt lat="45.95024" lon="4.8687">
        <ele>279.799987793</ele>
        <time>2015-07-06T09:58:34.999Z</time>
      </trkpt>
      <trkpt lat="45.95021" lon="4.86862">
        <ele>279.799987793</ele>
        <time>2015-07-06T09:58:36.001Z</time>
      </trkpt>
      <trkpt lat="45.95017" lon="4.86854">
        <ele>279.399993896</ele>
        <time>2015-07-06T09:58:36.997Z</time>
      </trkpt>
      <trkpt lat="45.95014" lon="4.86846">
        <ele>278.799987793</ele>
        <time>2015-07-06T09:58:38Z</time>
      </trkpt>
      <trkpt lat="45.95012" lon="4.86838">
        <ele>278.100006104</ele>
        <time>2015-07-06T09:58:38.997Z</time>
      </trkpt>
      <trkpt lat="45.95008" lon="4.8683">
        <ele>278.200012207</ele>
        <time>2015-07-06T09:58:39.999Z</time>
      </trkpt>
      <trkpt lat="45.95005" lon="4.86823">
        <ele>278.100006104</ele>
        <time>2015-07-06T09:58:40.999Z</time>
      </trkpt>
      <trkpt lat="45.95001" lon="4.86815">
        <ele>277.600006104</ele>
        <time>2015-07-06T09:58:42.003Z</time>
      </trkpt>
      <trkpt lat="45.94999" lon="4.86807">
        <ele>277.799987793</ele>
        <time>2015-07-06T09:58:43Z</time>
      </trkpt>
      <trkpt lat="45.94995" lon="4.86799">
        <ele>277.799987793</ele>
        <time>2015-07-06T09:58:43.998Z</time>
      </trkpt>
      <trkpt lat="45.94991" lon="4.86793">
        <ele>277.600006104</ele>
        <time>2015-07-06T09:58:45.012Z</time>
      </trkpt>
      <trkpt lat="45.94986" lon="4.86786">
        <ele>277.600006104</ele>
        <time>2015-07-06T09:58:46Z</time>
      </trkpt>
      <trkpt lat="45.94982" lon="4.86779">
        <ele>277.299987793</ele>
        <time>2015-07-06T09:58:46.998Z</time>
      </trkpt>
      <trkpt lat="45.94978" lon="4.86772">
        <ele>277.399993896</ele>
        <time>2015-07-06T09:58:48Z</time>
      </trkpt>
      <trkpt lat="45.94973" lon="4.86764">
        <ele>277.399993896</ele>
        <time>2015-07-06T09:58:48.997Z</time>
      </trkpt>
      <trkpt lat="45.94969" lon="4.86757">
        <ele>277.600006104</ele>
        <time>2015-07-06T09:58:49.998Z</time>
      </trkpt>
      <trkpt lat="45.94965" lon="4.8675">
        <ele>277.600006104</ele>
        <time>2015-07-06T09:58:50.996Z</time>
      </trkpt>
      <trkpt lat="45.94961" lon="4.86742">
        <ele>277.799987793</ele>
        <time>2015-07-06T09:58:51.996Z</time>
      </trkpt>
      <trkpt lat="45.94958" lon="4.86734">
        <ele>277.700012207</ele>
        <time>2015-07-06T09:58:52.996Z</time>
      </trkpt>
      <trkpt lat="45.94955" lon="4.86727">
        <ele>277.700012207</ele>
        <time>2015-07-06T09:58:54Z</time>
      </trkpt>
      <trkpt lat="45.94952" lon="4.86718">
        <ele>277.700012207</ele>
        <time>2015-07-06T09:58:54.996Z</time>
      </trkpt>
      <trkpt lat="45.94951" lon="4.8671">
        <ele>277.700012207</ele>
        <time>2015-07-06T09:58:55.996Z</time>
      </trkpt>
      <trkpt lat="45.94949" lon="4.86701">
        <ele>277.100006104</ele>
        <time>2015-07-06T09:58:56.997Z</time>
      </trkpt>
      <trkpt lat="45.94948" lon="4.86693">
        <ele>276.700012207</ele>
        <time>2015-07-06T09:58:57.997Z</time>
      </trkpt>
      <trkpt lat="45.94947" lon="4.86686">
        <ele>276.5</ele>
        <time>2015-07-06T09:58:58.997Z</time>
      </trkpt>
      <trkpt lat="45.94946" lon="4.86678">
        <ele>276.299987793</ele>
        <time>2015-07-06T09:59:00.021Z</time>
      </trkpt>
      <trkpt lat="45.94945" lon="4.8667">
        <ele>276</ele>
        <time>2015-07-06T09:59:01.036Z</time>
      </trkpt>
      <trkpt lat="45.94946" lon="4.86663">
        <ele>275.799987793</ele>
        <time>2015-07-06T09:59:02Z</time>
      </trkpt>
      <trkpt lat="45.94947" lon="4.86656">
        <ele>275.600006104</ele>
        <time>2015-07-06T09:59:02.996Z</time>
      </trkpt>
      <trkpt lat="45.94949" lon="4.8665">
        <ele>275.600006104</ele>
        <time>2015-07-06T09:59:03.997Z</time>
      </trkpt>
      <trkpt lat="45.94952" lon="4.86644">
        <ele>275.600006104</ele>
        <time>2015-07-06T09:59:04.998Z</time>
      </trkpt>
      <trkpt lat="45.94955" lon="4.86638">
        <ele>275.799987793</ele>
        <time>2015-07-06T09:59:06.002Z</time>
      </trkpt>
      <trkpt lat="45.94958" lon="4.86633">
        <ele>276</ele>
        <time>2015-07-06T09:59:06.996Z</time>
      </trkpt>
      <trkpt lat="45.94962" lon="4.86629">
        <ele>275.700012207</ele>
        <time>2015-07-06T09:59:07.999Z</time>
      </trkpt>
      <trkpt lat="45.94966" lon="4.86625">
        <ele>275.799987793</ele>
        <time>2015-07-06T09:59:08.997Z</time>
      </trkpt>
      <trkpt lat="45.9497" lon="4.86623">
        <ele>276.100006104</ele>
        <time>2015-07-06T09:59:09.998Z</time>
      </trkpt>
      <trkpt lat="45.94974" lon="4.8662">
        <ele>275.799987793</ele>
        <time>2015-07-06T09:59:11.014Z</time>
      </trkpt>
      <trkpt lat="45.94982" lon="4.86618">
        <ele>276.600006104</ele>
        <time>2015-07-06T09:59:12.998Z</time>
      </trkpt>
      <trkpt lat="45.94987" lon="4.86616">
        <ele>276.299987793</ele>
        <time>2015-07-06T09:59:14.004Z</time>
      </trkpt>
      <trkpt lat="45.94995" lon="4.86614">
        <ele>276</ele>
        <time>2015-07-06T09:59:15.998Z</time>
      </trkpt>
      <trkpt lat="45.94999" lon="4.86613">
        <ele>275.799987793</ele>
        <time>2015-07-06T09:59:17Z</time>
      </trkpt>
      <trkpt lat="45.95007" lon="4.86611">
        <ele>275.5</ele>
        <time>2015-07-06T09:59:19Z</time>
      </trkpt>
      <trkpt lat="45.95011" lon="4.8661">
        <ele>274.899993896</ele>
        <time>2015-07-06T09:59:20.003Z</time>
      </trkpt>
      <trkpt lat="45.95016" lon="4.86607">
        <ele>273.100006104</ele>
        <time>2015-07-06T10:08:44.02Z</time>
      </trkpt>
      <trkpt lat="45.95021" lon="4.86607">
        <ele>273.899993896</ele>
        <time>2015-07-06T10:08:45.03Z</time>
      </trkpt>
      <trkpt lat="45.9503" lon="4.86609">
        <ele>273.399993896</ele>
        <time>2015-07-06T10:09:16.004Z</time>
      </trkpt>
      <trkpt lat="45.95033" lon="4.86608">
        <ele>273.5</ele>
        <time>2015-07-06T10:09:17.028Z</time>
      </trkpt>
      <trkpt lat="45.95039" lon="4.86606">
        <ele>273.700012207</ele>
        <time>2015-07-06T10:09:19.048Z</time>
      </trkpt>
      <trkpt lat="45.95044" lon="4.86605">
        <ele>274.100006104</ele>
        <time>2015-07-06T10:09:19.996Z</time>
      </trkpt>
      <trkpt lat="45.95048" lon="4.86604">
        <ele>274.299987793</ele>
        <time>2015-07-06T10:09:20.998Z</time>
      </trkpt>
      <trkpt lat="45.95054" lon="4.86604">
        <ele>274.200012207</ele>
        <time>2015-07-06T10:09:22.003Z</time>
      </trkpt>
      <trkpt lat="45.95059" lon="4.86603">
        <ele>274.299987793</ele>
        <time>2015-07-06T10:09:23Z</time>
      </trkpt>
      <trkpt lat="45.95064" lon="4.866">
        <ele>274.299987793</ele>
        <time>2015-07-06T10:09:24.005Z</time>
      </trkpt>
      <trkpt lat="45.95069" lon="4.86599">
        <ele>274.399993896</ele>
        <time>2015-07-06T10:09:24.998Z</time>
      </trkpt>
      <trkpt lat="45.95075" lon="4.86598">
        <ele>274.5</ele>
        <time>2015-07-06T10:09:25.997Z</time>
      </trkpt>
      <trkpt lat="45.95081" lon="4.86597">
        <ele>274.600006104</ele>
        <time>2015-07-06T10:09:27.024Z</time>
      </trkpt>
      <trkpt lat="45.95087" lon="4.86596">
        <ele>274.700012207</ele>
        <time>2015-07-06T10:09:27.997Z</time>
      </trkpt>
      <trkpt lat="45.95093" lon="4.86595">
        <ele>274.700012207</ele>
        <time>2015-07-06T10:09:28.997Z</time>
      </trkpt>
      <trkpt lat="45.95099" lon="4.86594">
        <ele>274.799987793</ele>
        <time>2015-07-06T10:09:30.003Z</time>
      </trkpt>
      <trkpt lat="45.95104" lon="4.86594">
        <ele>274.899993896</ele>
        <time>2015-07-06T10:09:30.997Z</time>
      </trkpt>
      <trkpt lat="45.9511" lon="4.86593">
        <ele>274.899993896</ele>
        <time>2015-07-06T10:09:32.003Z</time>
      </trkpt>
      <trkpt lat="45.95116" lon="4.86591">
        <ele>274</ele>
        <time>2015-07-06T10:09:33.001Z</time>
      </trkpt>
      <trkpt lat="45.95121" lon="4.86589">
        <ele>273.700012207</ele>
        <time>2015-07-06T10:09:33.998Z</time>
      </trkpt>
      <trkpt lat="45.95128" lon="4.86587">
        <ele>273.600006104</ele>
        <time>2015-07-06T10:09:35.013Z</time>
      </trkpt>
      <trkpt lat="45.95134" lon="4.86588">
        <ele>276.799987793</ele>
        <time>2015-07-06T10:09:36.005Z</time>
      </trkpt>
      <trkpt lat="45.9514" lon="4.86587">
        <ele>276.200012207</ele>
        <time>2015-07-06T10:09:37.023Z</time>
      </trkpt>
      <trkpt lat="45.95146" lon="4.86587">
        <ele>276.899993896</ele>
        <time>2015-07-06T10:09:38Z</time>
      </trkpt>
      <trkpt lat="45.95152" lon="4.86587">
        <ele>277.600006104</ele>
        <time>2015-07-06T10:09:39Z</time>
      </trkpt>
      <trkpt lat="45.95158" lon="4.86587">
        <ele>277.5</ele>
        <time>2015-07-06T10:09:40.032Z</time>
      </trkpt>
      <trkpt lat="45.95164" lon="4.86587">
        <ele>277.700012207</ele>
        <time>2015-07-06T10:09:40.999Z</time>
      </trkpt>
      <trkpt lat="45.9517" lon="4.86585">
        <ele>277.799987793</ele>
        <time>2015-07-06T10:09:42.003Z</time>
      </trkpt>
      <trkpt lat="45.95175" lon="4.86583">
        <ele>277.700012207</ele>
        <time>2015-07-06T10:09:43Z</time>
      </trkpt>
      <trkpt lat="45.95181" lon="4.86583">
        <ele>277.700012207</ele>
        <time>2015-07-06T10:09:43.996Z</time>
      </trkpt>
      <trkpt lat="45.95187" lon="4.86582">
        <ele>277</ele>
        <time>2015-07-06T10:09:44.997Z</time>
      </trkpt>
      <trkpt lat="45.95194" lon="4.86582">
        <ele>276.5</ele>
        <time>2015-07-06T10:09:45.996Z</time>
      </trkpt>
      <trkpt lat="45.952" lon="4.86582">
        <ele>275.799987793</ele>
        <time>2015-07-06T10:09:47.022Z</time>
      </trkpt>
      <trkpt lat="45.95207" lon="4.86583">
        <ele>275.700012207</ele>
        <time>2015-07-06T10:09:48Z</time>
      </trkpt>
      <trkpt lat="45.95214" lon="4.86583">
        <ele>275.100006104</ele>
        <time>2015-07-06T10:09:49Z</time>
      </trkpt>
      <trkpt lat="45.95222" lon="4.86584">
        <ele>273.5</ele>
        <time>2015-07-06T10:09:49.996Z</time>
      </trkpt>
      <trkpt lat="45.9523" lon="4.86585">
        <ele>273.899993896</ele>
        <time>2015-07-06T10:09:51.014Z</time>
      </trkpt>
      <trkpt lat="45.95237" lon="4.86587">
        <ele>272.700012207</ele>
        <time>2015-07-06T10:09:51.996Z</time>
      </trkpt>
      <trkpt lat="45.95243" lon="4.86587">
        <ele>273.100006104</ele>
        <time>2015-07-06T10:09:53Z</time>
      </trkpt>
      <trkpt lat="45.95248" lon="4.86586">
        <ele>272.799987793</ele>
        <time>2015-07-06T10:09:53.999Z</time>
      </trkpt>
      <trkpt lat="45.95255" lon="4.86583">
        <ele>272.799987793</ele>
        <time>2015-07-06T10:09:56.01Z</time>
      </trkpt>
      <trkpt lat="45.95257" lon="4.86581">
        <ele>272.799987793</ele>
        <time>2015-07-06T10:09:57.023Z</time>
      </trkpt>
      <trkpt lat="45.95264" lon="4.86578">
        <ele>271.700012207</ele>
        <time>2015-07-06T10:10:01Z</time>
      </trkpt>
      <trkpt lat="45.95265" lon="4.86576">
        <ele>271.600006104</ele>
        <time>2015-07-06T10:10:02.001Z</time>
      </trkpt>
      <trkpt lat="45.95263" lon="4.86563">
        <ele>271.299987793</ele>
        <time>2015-07-06T10:10:06.005Z</time>
      </trkpt>
      <trkpt lat="45.9526" lon="4.8656">
        <ele>271.100006104</ele>
        <time>2015-07-06T10:10:07.008Z</time>
      </trkpt>
      <trkpt lat="45.95255" lon="4.86553">
        <ele>271</ele>
        <time>2015-07-06T10:10:09.026Z</time>
      </trkpt>
      <trkpt lat="45.95253" lon="4.86549">
        <ele>271</ele>
        <time>2015-07-06T10:10:09.999Z</time>
      </trkpt>
      <trkpt lat="45.95249" lon="4.86545">
        <ele>271.100006104</ele>
        <time>2015-07-06T10:10:10.995Z</time>
      </trkpt>
      <trkpt lat="45.95244" lon="4.86543">
        <ele>271.100006104</ele>
        <time>2015-07-06T10:10:12.019Z</time>
      </trkpt>
      <trkpt lat="45.95239" lon="4.86538">
        <ele>271.100006104</ele>
        <time>2015-07-06T10:10:13.062Z</time>
      </trkpt>
      <trkpt lat="45.95237" lon="4.8653">
        <ele>271.100006104</ele>
        <time>2015-07-06T10:10:14Z</time>
      </trkpt>
      <trkpt lat="45.95235" lon="4.86524">
        <ele>271.100006104</ele>
        <time>2015-07-06T10:10:15Z</time>
      </trkpt>
      <trkpt lat="45.95232" lon="4.86519">
        <ele>271.200012207</ele>
        <time>2015-07-06T10:10:16Z</time>
      </trkpt>
      <trkpt lat="45.95228" lon="4.86514">
        <ele>271.399993896</ele>
        <time>2015-07-06T10:10:17.012Z</time>
      </trkpt>
      <trkpt lat="45.95224" lon="4.86511">
        <ele>271.399993896</ele>
        <time>2015-07-06T10:10:18.002Z</time>
      </trkpt>
      <trkpt lat="45.9522" lon="4.86506">
        <ele>271.600006104</ele>
        <time>2015-07-06T10:10:19Z</time>
      </trkpt>
      <trkpt lat="45.95216" lon="4.86502">
        <ele>271.799987793</ele>
        <time>2015-07-06T10:10:20Z</time>
      </trkpt>
      <trkpt lat="45.95212" lon="4.86497">
        <ele>271.899993896</ele>
        <time>2015-07-06T10:10:21.04Z</time>
      </trkpt>
      <trkpt lat="45.95207" lon="4.86492">
        <ele>272</ele>
        <time>2015-07-06T10:10:22Z</time>
      </trkpt>
      <trkpt lat="45.95203" lon="4.86487">
        <ele>271.899993896</ele>
        <time>2015-07-06T10:10:22.998Z</time>
      </trkpt>
      <trkpt lat="45.95199" lon="4.86483">
        <ele>271.799987793</ele>
        <time>2015-07-06T10:10:24.062Z</time>
      </trkpt>
      <trkpt lat="45.95192" lon="4.86476">
        <ele>271.5</ele>
        <time>2015-07-06T10:10:26.001Z</time>
      </trkpt>
      <trkpt lat="45.95189" lon="4.86472">
        <ele>271.299987793</ele>
        <time>2015-07-06T10:10:27.057Z</time>
      </trkpt>
      <trkpt lat="45.95185" lon="4.86467">
        <ele>271.100006104</ele>
        <time>2015-07-06T10:10:27.995Z</time>
      </trkpt>
      <trkpt lat="45.95182" lon="4.86463">
        <ele>270.799987793</ele>
        <time>2015-07-06T10:10:28.995Z</time>
      </trkpt>
      <trkpt lat="45.95179" lon="4.86459">
        <ele>270.700012207</ele>
        <time>2015-07-06T10:10:29.998Z</time>
      </trkpt>
      <trkpt lat="45.95175" lon="4.86453">
        <ele>270.700012207</ele>
        <time>2015-07-06T10:10:30.995Z</time>
      </trkpt>
      <trkpt lat="45.95172" lon="4.86449">
        <ele>270.600006104</ele>
        <time>2015-07-06T10:10:31.999Z</time>
      </trkpt>
      <trkpt lat="45.95167" lon="4.86444">
        <ele>270.700012207</ele>
        <time>2015-07-06T10:10:32.998Z</time>
      </trkpt>
      <trkpt lat="45.95164" lon="4.8644">
        <ele>270.600006104</ele>
        <time>2015-07-06T10:10:33.999Z</time>
      </trkpt>
      <trkpt lat="45.9516" lon="4.86435">
        <ele>270.399993896</ele>
        <time>2015-07-06T10:10:35.008Z</time>
      </trkpt>
      <trkpt lat="45.95156" lon="4.8643">
        <ele>270.399993896</ele>
        <time>2015-07-06T10:10:35.999Z</time>
      </trkpt>
      <trkpt lat="45.95152" lon="4.86424">
        <ele>270.299987793</ele>
        <time>2015-07-06T10:10:37.01Z</time>
      </trkpt>
      <trkpt lat="45.95148" lon="4.86419">
        <ele>270.299987793</ele>
        <time>2015-07-06T10:10:38.013Z</time>
      </trkpt>
      <trkpt lat="45.95145" lon="4.86414">
        <ele>270.100006104</ele>
        <time>2015-07-06T10:10:38.995Z</time>
      </trkpt>
      <trkpt lat="45.9514" lon="4.8641">
        <ele>269.899993896</ele>
        <time>2015-07-06T10:10:39.995Z</time>
      </trkpt>
      <trkpt lat="45.95136" lon="4.86405">
        <ele>269.799987793</ele>
        <time>2015-07-06T10:10:40.997Z</time>
      </trkpt>
      <trkpt lat="45.95132" lon="4.864">
        <ele>269.600006104</ele>
        <time>2015-07-06T10:10:42.003Z</time>
      </trkpt>
      <trkpt lat="45.95128" lon="4.86395">
        <ele>269.5</ele>
        <time>2015-07-06T10:10:42.999Z</time>
      </trkpt>
      <trkpt lat="45.95123" lon="4.8639">
        <ele>269.5</ele>
        <time>2015-07-06T10:10:44Z</time>
      </trkpt>
      <trkpt lat="45.95119" lon="4.86386">
        <ele>269.5</ele>
        <time>2015-07-06T10:10:44.996Z</time>
      </trkpt>
      <trkpt lat="45.95114" lon="4.86381">
        <ele>269.5</ele>
        <time>2015-07-06T10:10:45.995Z</time>
      </trkpt>
      <trkpt lat="45.9511" lon="4.86376">
        <ele>269.399993896</ele>
        <time>2015-07-06T10:10:47.06Z</time>
      </trkpt>
      <trkpt lat="45.95105" lon="4.8637">
        <ele>269.299987793</ele>
        <time>2015-07-06T10:10:47.999Z</time>
      </trkpt>
      <trkpt lat="45.95101" lon="4.86365">
        <ele>269.399993896</ele>
        <time>2015-07-06T10:10:48.995Z</time>
      </trkpt>
      <trkpt lat="45.95097" lon="4.8636">
        <ele>269.399993896</ele>
        <time>2015-07-06T10:10:49.997Z</time>
      </trkpt>
      <trkpt lat="45.95092" lon="4.86355">
        <ele>269.399993896</ele>
        <time>2015-07-06T10:10:50.997Z</time>
      </trkpt>
      <trkpt lat="45.95088" lon="4.86349">
        <ele>269.700012207</ele>
        <time>2015-07-06T10:10:51.996Z</time>
      </trkpt>
      <trkpt lat="45.95084" lon="4.86342">
        <ele>269.899993896</ele>
        <time>2015-07-06T10:10:52.999Z</time>
      </trkpt>
      <trkpt lat="45.95081" lon="4.86336">
        <ele>270</ele>
        <time>2015-07-06T10:10:54.001Z</time>
      </trkpt>
      <trkpt lat="45.95076" lon="4.8633">
        <ele>269.899993896</ele>
        <time>2015-07-06T10:10:54.995Z</time>
      </trkpt>
      <trkpt lat="45.95071" lon="4.86326">
        <ele>270</ele>
        <time>2015-07-06T10:10:55.997Z</time>
      </trkpt>
      <trkpt lat="45.95067" lon="4.86321">
        <ele>270.100006104</ele>
        <time>2015-07-06T10:10:57.073Z</time>
      </trkpt>
      <trkpt lat="45.95063" lon="4.86316">
        <ele>270.200012207</ele>
        <time>2015-07-06T10:10:57.995Z</time>
      </trkpt>
      <trkpt lat="45.95059" lon="4.86311">
        <ele>270.100006104</ele>
        <time>2015-07-06T10:10:59.012Z</time>
      </trkpt>
      <trkpt lat="45.95054" lon="4.86305">
        <ele>270.200012207</ele>
        <time>2015-07-06T10:11:00.023Z</time>
      </trkpt>
      <trkpt lat="45.9505" lon="4.863">
        <ele>270.200012207</ele>
        <time>2015-07-06T10:11:01.012Z</time>
      </trkpt>
      <trkpt lat="45.95046" lon="4.86295">
        <ele>270.200012207</ele>
        <time>2015-07-06T10:11:01.996Z</time>
      </trkpt>
      <trkpt lat="45.95041" lon="4.8629">
        <ele>270.299987793</ele>
        <time>2015-07-06T10:11:03.019Z</time>
      </trkpt>
      <trkpt lat="45.95037" lon="4.86285">
        <ele>270.600006104</ele>
        <time>2015-07-06T10:11:03.995Z</time>
      </trkpt>
      <trkpt lat="45.95033" lon="4.8628">
        <ele>270.600006104</ele>
        <time>2015-07-06T10:11:04.995Z</time>
      </trkpt>
      <trkpt lat="45.95029" lon="4.86275">
        <ele>270.600006104</ele>
        <time>2015-07-06T10:11:06.002Z</time>
      </trkpt>
      <trkpt lat="45.95024" lon="4.8627">
        <ele>271.200012207</ele>
        <time>2015-07-06T10:11:07.002Z</time>
      </trkpt>
      <trkpt lat="45.9502" lon="4.86265">
        <ele>271.5</ele>
        <time>2015-07-06T10:11:07.996Z</time>
      </trkpt>
      <trkpt lat="45.95017" lon="4.86261">
        <ele>271.899993896</ele>
        <time>2015-07-06T10:11:08.999Z</time>
      </trkpt>
      <trkpt lat="45.95012" lon="4.86256">
        <ele>272.100006104</ele>
        <time>2015-07-06T10:11:09.999Z</time>
      </trkpt>
      <trkpt lat="45.95008" lon="4.86252">
        <ele>272.299987793</ele>
        <time>2015-07-06T10:11:10.999Z</time>
      </trkpt>
      <trkpt lat="45.95004" lon="4.86247">
        <ele>272.399993896</ele>
        <time>2015-07-06T10:11:12.002Z</time>
      </trkpt>
      <trkpt lat="45.95" lon="4.86241">
        <ele>272.600006104</ele>
        <time>2015-07-06T10:11:12.994Z</time>
      </trkpt>
      <trkpt lat="45.94996" lon="4.86236">
        <ele>272.799987793</ele>
        <time>2015-07-06T10:11:13.996Z</time>
      </trkpt>
      <trkpt lat="45.94992" lon="4.86232">
        <ele>272.799987793</ele>
        <time>2015-07-06T10:11:14.995Z</time>
      </trkpt>
      <trkpt lat="45.94988" lon="4.86226">
        <ele>272.700012207</ele>
        <time>2015-07-06T10:11:15.995Z</time>
      </trkpt>
      <trkpt lat="45.94983" lon="4.86221">
        <ele>272.799987793</ele>
        <time>2015-07-06T10:11:16.996Z</time>
      </trkpt>
      <trkpt lat="45.94979" lon="4.86217">
        <ele>272.799987793</ele>
        <time>2015-07-06T10:11:18.002Z</time>
      </trkpt>
      <trkpt lat="45.94975" lon="4.86211">
        <ele>272.799987793</ele>
        <time>2015-07-06T10:11:18.996Z</time>
      </trkpt>
      <trkpt lat="45.9497" lon="4.86206">
        <ele>272.899993896</ele>
        <time>2015-07-06T10:11:19.996Z</time>
      </trkpt>
      <trkpt lat="45.94966" lon="4.86201">
        <ele>273</ele>
        <time>2015-07-06T10:11:20.995Z</time>
      </trkpt>
      <trkpt lat="45.94962" lon="4.86196">
        <ele>273.200012207</ele>
        <time>2015-07-06T10:11:21.999Z</time>
      </trkpt>
      <trkpt lat="45.94958" lon="4.8619">
        <ele>273.399993896</ele>
        <time>2015-07-06T10:11:22.995Z</time>
      </trkpt>
      <trkpt lat="45.94955" lon="4.86184">
        <ele>273.700012207</ele>
        <time>2015-07-06T10:11:23.998Z</time>
      </trkpt>
      <trkpt lat="45.94951" lon="4.8618">
        <ele>273.899993896</ele>
        <time>2015-07-06T10:11:25.011Z</time>
      </trkpt>
      <trkpt lat="45.94946" lon="4.86175">
        <ele>274.100006104</ele>
        <time>2015-07-06T10:11:26.031Z</time>
      </trkpt>
      <trkpt lat="45.94942" lon="4.86171">
        <ele>274.100006104</ele>
        <time>2015-07-06T10:11:26.997Z</time>
      </trkpt>
      <trkpt lat="45.94938" lon="4.86166">
        <ele>274.100006104</ele>
        <time>2015-07-06T10:11:27.995Z</time>
      </trkpt>
      <trkpt lat="45.94934" lon="4.86161">
        <ele>274.399993896</ele>
        <time>2015-07-06T10:11:28.999Z</time>
      </trkpt>
      <trkpt lat="45.9493" lon="4.86155">
        <ele>274.700012207</ele>
        <time>2015-07-06T10:11:30Z</time>
      </trkpt>
      <trkpt lat="45.94926" lon="4.8615">
        <ele>274.799987793</ele>
        <time>2015-07-06T10:11:30.995Z</time>
      </trkpt>
      <trkpt lat="45.94923" lon="4.86145">
        <ele>274.899993896</ele>
        <time>2015-07-06T10:11:32Z</time>
      </trkpt>
      <trkpt lat="45.94919" lon="4.86139">
        <ele>275</ele>
        <time>2015-07-06T10:11:32.995Z</time>
      </trkpt>
      <trkpt lat="45.94916" lon="4.86133">
        <ele>275.200012207</ele>
        <time>2015-07-06T10:11:33.995Z</time>
      </trkpt>
      <trkpt lat="45.94913" lon="4.86127">
        <ele>275.399993896</ele>
        <time>2015-07-06T10:11:34.997Z</time>
      </trkpt>
      <trkpt lat="45.9491" lon="4.86121">
        <ele>275.700012207</ele>
        <time>2015-07-06T10:11:35.999Z</time>
      </trkpt>
      <trkpt lat="45.94906" lon="4.86115">
        <ele>275.899993896</ele>
        <time>2015-07-06T10:11:36.998Z</time>
      </trkpt>
      <trkpt lat="45.94903" lon="4.86109">
        <ele>276.100006104</ele>
        <time>2015-07-06T10:11:37.997Z</time>
      </trkpt>
      <trkpt lat="45.949" lon="4.86102">
        <ele>276.299987793</ele>
        <time>2015-07-06T10:11:38.994Z</time>
      </trkpt>
      <trkpt lat="45.94898" lon="4.86096">
        <ele>276.299987793</ele>
        <time>2015-07-06T10:11:40.052Z</time>
      </trkpt>
      <trkpt lat="45.94896" lon="4.86089">
        <ele>276.299987793</ele>
        <time>2015-07-06T10:11:40.995Z</time>
      </trkpt>
      <trkpt lat="45.94894" lon="4.86082">
        <ele>276.899993896</ele>
        <time>2015-07-06T10:11:42.001Z</time>
      </trkpt>
      <trkpt lat="45.94892" lon="4.86075">
        <ele>277.100006104</ele>
        <time>2015-07-06T10:11:42.995Z</time>
      </trkpt>
      <trkpt lat="45.9489" lon="4.86068">
        <ele>277.299987793</ele>
        <time>2015-07-06T10:11:44.007Z</time>
      </trkpt>
      <trkpt lat="45.94887" lon="4.86061">
        <ele>277.5</ele>
        <time>2015-07-06T10:11:44.995Z</time>
      </trkpt>
      <trkpt lat="45.94885" lon="4.86053">
        <ele>277.700012207</ele>
        <time>2015-07-06T10:11:45.999Z</time>
      </trkpt>
      <trkpt lat="45.94883" lon="4.86046">
        <ele>277.799987793</ele>
        <time>2015-07-06T10:11:46.997Z</time>
      </trkpt>
      <trkpt lat="45.94882" lon="4.86038">
        <ele>277.899993896</ele>
        <time>2015-07-06T10:11:48Z</time>
      </trkpt>
      <trkpt lat="45.9488" lon="4.86031">
        <ele>278.100006104</ele>
        <time>2015-07-06T10:11:48.999Z</time>
      </trkpt>
      <trkpt lat="45.94877" lon="4.86023">
        <ele>278.100006104</ele>
        <time>2015-07-06T10:11:50Z</time>
      </trkpt>
      <trkpt lat="45.94876" lon="4.86016">
        <ele>278</ele>
        <time>2015-07-06T10:11:50.995Z</time>
      </trkpt>
      <trkpt lat="45.94874" lon="4.86009">
        <ele>278</ele>
        <time>2015-07-06T10:11:52Z</time>
      </trkpt>
      <trkpt lat="45.94874" lon="4.86002">
        <ele>278.899993896</ele>
        <time>2015-07-06T10:11:52.998Z</time>
      </trkpt>
      <trkpt lat="45.94874" lon="4.85994">
        <ele>279.5</ele>
        <time>2015-07-06T10:11:54.004Z</time>
      </trkpt>
      <trkpt lat="45.94872" lon="4.85987">
        <ele>279.899993896</ele>
        <time>2015-07-06T10:11:54.995Z</time>
      </trkpt>
      <trkpt lat="45.94871" lon="4.85979">
        <ele>280.100006104</ele>
        <time>2015-07-06T10:11:56.012Z</time>
      </trkpt>
      <trkpt lat="45.94869" lon="4.85972">
        <ele>280.399993896</ele>
        <time>2015-07-06T10:11:56.996Z</time>
      </trkpt>
      <trkpt lat="45.94867" lon="4.85965">
        <ele>280.600006104</ele>
        <time>2015-07-06T10:11:57.998Z</time>
      </trkpt>
      <trkpt lat="45.94864" lon="4.85957">
        <ele>280.700012207</ele>
        <time>2015-07-06T10:11:58.995Z</time>
      </trkpt>
      <trkpt lat="45.94861" lon="4.8595">
        <ele>280.299987793</ele>
        <time>2015-07-06T10:11:59.998Z</time>
      </trkpt>
      <trkpt lat="45.94859" lon="4.85943">
        <ele>280.299987793</ele>
        <time>2015-07-06T10:12:00.995Z</time>
      </trkpt>
      <trkpt lat="45.94858" lon="4.85936">
        <ele>280.5</ele>
        <time>2015-07-06T10:12:01.996Z</time>
      </trkpt>
      <trkpt lat="45.94856" lon="4.85929">
        <ele>280.700012207</ele>
        <time>2015-07-06T10:12:02.995Z</time>
      </trkpt>
      <trkpt lat="45.94854" lon="4.85922">
        <ele>281.100006104</ele>
        <time>2015-07-06T10:12:03.995Z</time>
      </trkpt>
      <trkpt lat="45.94852" lon="4.85915">
        <ele>281.399993896</ele>
        <time>2015-07-06T10:12:05.033Z</time>
      </trkpt>
      <trkpt lat="45.9485" lon="4.85908">
        <ele>281.5</ele>
        <time>2015-07-06T10:12:06.001Z</time>
      </trkpt>
      <trkpt lat="45.94848" lon="4.85901">
        <ele>282.399993896</ele>
        <time>2015-07-06T10:12:06.995Z</time>
      </trkpt>
      <trkpt lat="45.94847" lon="4.85894">
        <ele>283.200012207</ele>
        <time>2015-07-06T10:12:08Z</time>
      </trkpt>
      <trkpt lat="45.94845" lon="4.85886">
        <ele>282.5</ele>
        <time>2015-07-06T10:12:08.995Z</time>
      </trkpt>
      <trkpt lat="45.94843" lon="4.85879">
        <ele>282.799987793</ele>
        <time>2015-07-06T10:12:09.994Z</time>
      </trkpt>
      <trkpt lat="45.9484" lon="4.85872">
        <ele>282.799987793</ele>
        <time>2015-07-06T10:12:10.994Z</time>
      </trkpt>
      <trkpt lat="45.94838" lon="4.85866">
        <ele>282.899993896</ele>
        <time>2015-07-06T10:12:12.015Z</time>
      </trkpt>
      <trkpt lat="45.94836" lon="4.85858">
        <ele>283</ele>
        <time>2015-07-06T10:12:12.999Z</time>
      </trkpt>
      <trkpt lat="45.94835" lon="4.85851">
        <ele>283.200012207</ele>
        <time>2015-07-06T10:12:13.996Z</time>
      </trkpt>
      <trkpt lat="45.94833" lon="4.85844">
        <ele>282.899993896</ele>
        <time>2015-07-06T10:12:14.995Z</time>
      </trkpt>
      <trkpt lat="45.94831" lon="4.85836">
        <ele>282.899993896</ele>
        <time>2015-07-06T10:12:15.994Z</time>
      </trkpt>
      <trkpt lat="45.94829" lon="4.85829">
        <ele>282.200012207</ele>
        <time>2015-07-06T10:12:16.994Z</time>
      </trkpt>
      <trkpt lat="45.94823" lon="4.85822">
        <ele>282</ele>
        <time>2015-07-06T10:12:18.003Z</time>
      </trkpt>
      <trkpt lat="45.94819" lon="4.85815">
        <ele>281.799987793</ele>
        <time>2015-07-06T10:12:18.995Z</time>
      </trkpt>
      <trkpt lat="45.94815" lon="4.85807">
        <ele>281.200012207</ele>
        <time>2015-07-06T10:12:20.001Z</time>
      </trkpt>
      <trkpt lat="45.94812" lon="4.858">
        <ele>280.899993896</ele>
        <time>2015-07-06T10:12:20.994Z</time>
      </trkpt>
      <trkpt lat="45.9481" lon="4.85792">
        <ele>280.600006104</ele>
        <time>2015-07-06T10:12:21.999Z</time>
      </trkpt>
      <trkpt lat="45.94809" lon="4.85785">
        <ele>280.399993896</ele>
        <time>2015-07-06T10:12:23.052Z</time>
      </trkpt>
      <trkpt lat="45.94807" lon="4.85777">
        <ele>280.200012207</ele>
        <time>2015-07-06T10:12:24.001Z</time>
      </trkpt>
      <trkpt lat="45.94805" lon="4.8577">
        <ele>279.600006104</ele>
        <time>2015-07-06T10:12:25.028Z</time>
      </trkpt>
      <trkpt lat="45.94803" lon="4.85762">
        <ele>279.799987793</ele>
        <time>2015-07-06T10:12:25.996Z</time>
      </trkpt>
      <trkpt lat="45.94802" lon="4.85755">
        <ele>279.5</ele>
        <time>2015-07-06T10:12:26.995Z</time>
      </trkpt>
      <trkpt lat="45.948" lon="4.85748">
        <ele>279.100006104</ele>
        <time>2015-07-06T10:12:28.012Z</time>
      </trkpt>
      <trkpt lat="45.94798" lon="4.8574">
        <ele>279</ele>
        <time>2015-07-06T10:12:28.994Z</time>
      </trkpt>
      <trkpt lat="45.94797" lon="4.85733">
        <ele>279.299987793</ele>
        <time>2015-07-06T10:12:29.997Z</time>
      </trkpt>
      <trkpt lat="45.94795" lon="4.85727">
        <ele>279.600006104</ele>
        <time>2015-07-06T10:12:30.995Z</time>
      </trkpt>
      <trkpt lat="45.94793" lon="4.8572">
        <ele>279.899993896</ele>
        <time>2015-07-06T10:12:31.996Z</time>
      </trkpt>
      <trkpt lat="45.94792" lon="4.85713">
        <ele>279.799987793</ele>
        <time>2015-07-06T10:12:32.994Z</time>
      </trkpt>
      <trkpt lat="45.9479" lon="4.85707">
        <ele>280.100006104</ele>
        <time>2015-07-06T10:12:33.994Z</time>
      </trkpt>
      <trkpt lat="45.94789" lon="4.857">
        <ele>280.100006104</ele>
        <time>2015-07-06T10:12:34.999Z</time>
      </trkpt>
      <trkpt lat="45.94788" lon="4.85693">
        <ele>280</ele>
        <time>2015-07-06T10:12:36.001Z</time>
      </trkpt>
      <trkpt lat="45.94786" lon="4.85686">
        <ele>280.100006104</ele>
        <time>2015-07-06T10:12:36.996Z</time>
      </trkpt>
      <trkpt lat="45.94784" lon="4.85679">
        <ele>280.299987793</ele>
        <time>2015-07-06T10:12:37.997Z</time>
      </trkpt>
      <trkpt lat="45.94783" lon="4.85671">
        <ele>280.399993896</ele>
        <time>2015-07-06T10:12:38.997Z</time>
      </trkpt>
      <trkpt lat="45.94782" lon="4.85664">
        <ele>280.299987793</ele>
        <time>2015-07-06T10:12:39.995Z</time>
      </trkpt>
      <trkpt lat="45.9478" lon="4.85656">
        <ele>280.299987793</ele>
        <time>2015-07-06T10:12:40.994Z</time>
      </trkpt>
      <trkpt lat="45.94779" lon="4.85648">
        <ele>280.299987793</ele>
        <time>2015-07-06T10:12:42.002Z</time>
      </trkpt>
      <trkpt lat="45.94777" lon="4.85641">
        <ele>280.200012207</ele>
        <time>2015-07-06T10:12:42.994Z</time>
      </trkpt>
      <trkpt lat="45.94776" lon="4.85633">
        <ele>280</ele>
        <time>2015-07-06T10:12:44.014Z</time>
      </trkpt>
      <trkpt lat="45.94773" lon="4.85626">
        <ele>279.600006104</ele>
        <time>2015-07-06T10:12:44.994Z</time>
      </trkpt>
      <trkpt lat="45.94771" lon="4.85618">
        <ele>279.299987793</ele>
        <time>2015-07-06T10:12:45.999Z</time>
      </trkpt>
      <trkpt lat="45.94769" lon="4.85609">
        <ele>279</ele>
        <time>2015-07-06T10:12:46.995Z</time>
      </trkpt>
      <trkpt lat="45.94767" lon="4.85601">
        <ele>278.799987793</ele>
        <time>2015-07-06T10:12:47.998Z</time>
      </trkpt>
      <trkpt lat="45.94764" lon="4.85592">
        <ele>278.600006104</ele>
        <time>2015-07-06T10:12:48.998Z</time>
      </trkpt>
      <trkpt lat="45.94761" lon="4.85584">
        <ele>278.399993896</ele>
        <time>2015-07-06T10:12:50.019Z</time>
      </trkpt>
      <trkpt lat="45.94759" lon="4.85574">
        <ele>278.200012207</ele>
        <time>2015-07-06T10:12:50.998Z</time>
      </trkpt>
      <trkpt lat="45.94758" lon="4.85564">
        <ele>277.899993896</ele>
        <time>2015-07-06T10:12:51.998Z</time>
      </trkpt>
      <trkpt lat="45.94756" lon="4.85554">
        <ele>278</ele>
        <time>2015-07-06T10:12:53.014Z</time>
      </trkpt>
      <trkpt lat="45.94753" lon="4.85543">
        <ele>277.600006104</ele>
        <time>2015-07-06T10:12:54.002Z</time>
      </trkpt>
      <trkpt lat="45.94752" lon="4.85532">
        <ele>277.600006104</ele>
        <time>2015-07-06T10:12:54.994Z</time>
      </trkpt>
      <trkpt lat="45.9475" lon="4.85521">
        <ele>277.399993896</ele>
        <time>2015-07-06T10:12:55.996Z</time>
      </trkpt>
      <trkpt lat="45.94748" lon="4.85509">
        <ele>277.100006104</ele>
        <time>2015-07-06T10:12:56.998Z</time>
      </trkpt>
      <trkpt lat="45.94747" lon="4.85497">
        <ele>276.899993896</ele>
        <time>2015-07-06T10:12:57.995Z</time>
      </trkpt>
      <trkpt lat="45.94745" lon="4.85485">
        <ele>276.5</ele>
        <time>2015-07-06T10:12:58.995Z</time>
      </trkpt>
      <trkpt lat="45.94743" lon="4.85473">
        <ele>276.200012207</ele>
        <time>2015-07-06T10:13:00.034Z</time>
      </trkpt>
      <trkpt lat="45.94743" lon="4.8546">
        <ele>276</ele>
        <time>2015-07-06T10:13:00.994Z</time>
      </trkpt>
      <trkpt lat="45.94742" lon="4.85447">
        <ele>275.899993896</ele>
        <time>2015-07-06T10:13:01.999Z</time>
      </trkpt>
      <trkpt lat="45.9474" lon="4.85434">
        <ele>276</ele>
        <time>2015-07-06T10:13:02.994Z</time>
      </trkpt>
      <trkpt lat="45.94739" lon="4.85421">
        <ele>276.100006104</ele>
        <time>2015-07-06T10:13:03.994Z</time>
      </trkpt>
      <trkpt lat="45.94738" lon="4.85409">
        <ele>276</ele>
        <time>2015-07-06T10:13:04.994Z</time>
      </trkpt>
      <trkpt lat="45.94737" lon="4.85397">
        <ele>276.200012207</ele>
        <time>2015-07-06T10:13:05.998Z</time>
      </trkpt>
      <trkpt lat="45.94735" lon="4.85385">
        <ele>276.5</ele>
        <time>2015-07-06T10:13:07.023Z</time>
      </trkpt>
      <trkpt lat="45.94734" lon="4.85373">
        <ele>276.700012207</ele>
        <time>2015-07-06T10:13:07.997Z</time>
      </trkpt>
      <trkpt lat="45.94734" lon="4.85361">
        <ele>276.600006104</ele>
        <time>2015-07-06T10:13:08.999Z</time>
      </trkpt>
      <trkpt lat="45.94733" lon="4.8535">
        <ele>276.799987793</ele>
        <time>2015-07-06T10:13:10.001Z</time>
      </trkpt>
      <trkpt lat="45.94732" lon="4.85339">
        <ele>276.899993896</ele>
        <time>2015-07-06T10:13:10.998Z</time>
      </trkpt>
      <trkpt lat="45.94731" lon="4.85328">
        <ele>276.899993896</ele>
        <time>2015-07-06T10:13:12.001Z</time>
      </trkpt>
      <trkpt lat="45.94729" lon="4.85318">
        <ele>276.799987793</ele>
        <time>2015-07-06T10:13:12.994Z</time>
      </trkpt>
      <trkpt lat="45.94728" lon="4.85307">
        <ele>276.700012207</ele>
        <time>2015-07-06T10:13:13.995Z</time>
      </trkpt>
      <trkpt lat="45.94727" lon="4.85296">
        <ele>276.700012207</ele>
        <time>2015-07-06T10:13:14.994Z</time>
      </trkpt>
      <trkpt lat="45.94726" lon="4.85285">
        <ele>276.399993896</ele>
        <time>2015-07-06T10:13:16.014Z</time>
      </trkpt>
      <trkpt lat="45.94725" lon="4.85275">
        <ele>276.399993896</ele>
        <time>2015-07-06T10:13:16.994Z</time>
      </trkpt>
      <trkpt lat="45.94724" lon="4.85264">
        <ele>276.700012207</ele>
        <time>2015-07-06T10:13:18.042Z</time>
      </trkpt>
      <trkpt lat="45.94723" lon="4.85254">
        <ele>276.700012207</ele>
        <time>2015-07-06T10:13:18.995Z</time>
      </trkpt>
      <trkpt lat="45.94721" lon="4.85243">
        <ele>276.600006104</ele>
        <time>2015-07-06T10:13:19.995Z</time>
      </trkpt>
      <trkpt lat="45.94719" lon="4.85233">
        <ele>276.799987793</ele>
        <time>2015-07-06T10:13:20.998Z</time>
      </trkpt>
      <trkpt lat="45.94719" lon="4.85223">
        <ele>277.399993896</ele>
        <time>2015-07-06T10:13:21.999Z</time>
      </trkpt>
      <trkpt lat="45.94718" lon="4.85213">
        <ele>277.600006104</ele>
        <time>2015-07-06T10:13:22.994Z</time>
      </trkpt>
      <trkpt lat="45.94716" lon="4.85203">
        <ele>277.299987793</ele>
        <time>2015-07-06T10:13:24.001Z</time>
      </trkpt>
      <trkpt lat="45.94715" lon="4.85193">
        <ele>277</ele>
        <time>2015-07-06T10:13:24.998Z</time>
      </trkpt>
      <trkpt lat="45.94715" lon="4.85183">
        <ele>277.100006104</ele>
        <time>2015-07-06T10:13:26.062Z</time>
      </trkpt>
      <trkpt lat="45.94713" lon="4.85174">
        <ele>277.200012207</ele>
        <time>2015-07-06T10:13:26.995Z</time>
      </trkpt>
      <trkpt lat="45.94713" lon="4.85164">
        <ele>277.399993896</ele>
        <time>2015-07-06T10:13:28Z</time>
      </trkpt>
      <trkpt lat="45.94712" lon="4.85155">
        <ele>277.600006104</ele>
        <time>2015-07-06T10:13:28.994Z</time>
      </trkpt>
      <trkpt lat="45.94711" lon="4.85145">
        <ele>277.5</ele>
        <time>2015-07-06T10:13:30.002Z</time>
      </trkpt>
      <trkpt lat="45.9471" lon="4.85136">
        <ele>277.399993896</ele>
        <time>2015-07-06T10:13:30.995Z</time>
      </trkpt>
      <trkpt lat="45.9471" lon="4.85126">
        <ele>277.399993896</ele>
        <time>2015-07-06T10:13:31.995Z</time>
      </trkpt>
      <trkpt lat="45.94709" lon="4.85116">
        <ele>277.700012207</ele>
        <time>2015-07-06T10:13:32.994Z</time>
      </trkpt>
      <trkpt lat="45.94708" lon="4.85107">
        <ele>277.700012207</ele>
        <time>2015-07-06T10:13:33.995Z</time>
      </trkpt>
      <trkpt lat="45.94707" lon="4.85097">
        <ele>277.700012207</ele>
        <time>2015-07-06T10:13:34.994Z</time>
      </trkpt>
      <trkpt lat="45.94706" lon="4.85088">
        <ele>277.799987793</ele>
        <time>2015-07-06T10:13:36Z</time>
      </trkpt>
      <trkpt lat="45.94705" lon="4.85078">
        <ele>277.899993896</ele>
        <time>2015-07-06T10:13:36.995Z</time>
      </trkpt>
      <trkpt lat="45.94704" lon="4.85069">
        <ele>278.100006104</ele>
        <time>2015-07-06T10:13:38Z</time>
      </trkpt>
      <trkpt lat="45.94702" lon="4.8506">
        <ele>278.200012207</ele>
        <time>2015-07-06T10:13:38.996Z</time>
      </trkpt>
      <trkpt lat="45.94701" lon="4.8505">
        <ele>278.299987793</ele>
        <time>2015-07-06T10:13:39.994Z</time>
      </trkpt>
      <trkpt lat="45.947" lon="4.8504">
        <ele>278.399993896</ele>
        <time>2015-07-06T10:13:40.995Z</time>
      </trkpt>
      <trkpt lat="45.94699" lon="4.85031">
        <ele>278.299987793</ele>
        <time>2015-07-06T10:13:42.014Z</time>
      </trkpt>
      <trkpt lat="45.94698" lon="4.85022">
        <ele>278.200012207</ele>
        <time>2015-07-06T10:13:42.994Z</time>
      </trkpt>
      <trkpt lat="45.94697" lon="4.85012">
        <ele>278.100006104</ele>
        <time>2015-07-06T10:13:44.019Z</time>
      </trkpt>
      <trkpt lat="45.94695" lon="4.85003">
        <ele>278</ele>
        <time>2015-07-06T10:13:44.995Z</time>
      </trkpt>
      <trkpt lat="45.94694" lon="4.84994">
        <ele>277.799987793</ele>
        <time>2015-07-06T10:13:45.995Z</time>
      </trkpt>
      <trkpt lat="45.94693" lon="4.84985">
        <ele>277.600006104</ele>
        <time>2015-07-06T10:13:46.995Z</time>
      </trkpt>
      <trkpt lat="45.94692" lon="4.84976">
        <ele>277.399993896</ele>
        <time>2015-07-06T10:13:48.002Z</time>
      </trkpt>
      <trkpt lat="45.94691" lon="4.84967">
        <ele>277.200012207</ele>
        <time>2015-07-06T10:13:48.994Z</time>
      </trkpt>
      <trkpt lat="45.94691" lon="4.84957">
        <ele>277.200012207</ele>
        <time>2015-07-06T10:13:49.996Z</time>
      </trkpt>
      <trkpt lat="45.94691" lon="4.84947">
        <ele>277.100006104</ele>
        <time>2015-07-06T10:13:50.996Z</time>
      </trkpt>
      <trkpt lat="45.9469" lon="4.84938">
        <ele>277.200012207</ele>
        <time>2015-07-06T10:13:51.993Z</time>
      </trkpt>
      <trkpt lat="45.94688" lon="4.84929">
        <ele>277.299987793</ele>
        <time>2015-07-06T10:13:52.993Z</time>
      </trkpt>
      <trkpt lat="45.94687" lon="4.84919">
        <ele>277.399993896</ele>
        <time>2015-07-06T10:13:53.997Z</time>
      </trkpt>
      <trkpt lat="45.94687" lon="4.84909">
        <ele>277.200012207</ele>
        <time>2015-07-06T10:13:54.993Z</time>
      </trkpt>
      <trkpt lat="45.94687" lon="4.84899">
        <ele>277.200012207</ele>
        <time>2015-07-06T10:13:56.042Z</time>
      </trkpt>
      <trkpt lat="45.94687" lon="4.8489">
        <ele>277.200012207</ele>
        <time>2015-07-06T10:13:56.997Z</time>
      </trkpt>
      <trkpt lat="45.94686" lon="4.8488">
        <ele>277</ele>
        <time>2015-07-06T10:13:58.012Z</time>
      </trkpt>
      <trkpt lat="45.94685" lon="4.8487">
        <ele>276.899993896</ele>
        <time>2015-07-06T10:13:58.994Z</time>
      </trkpt>
      <trkpt lat="45.94684" lon="4.8486">
        <ele>276.5</ele>
        <time>2015-07-06T10:13:59.996Z</time>
      </trkpt>
      <trkpt lat="45.94683" lon="4.84851">
        <ele>276.100006104</ele>
        <time>2015-07-06T10:14:00.994Z</time>
      </trkpt>
      <trkpt lat="45.94681" lon="4.84842">
        <ele>276</ele>
        <time>2015-07-06T10:14:01.998Z</time>
      </trkpt>
      <trkpt lat="45.9468" lon="4.84833">
        <ele>276</ele>
        <time>2015-07-06T10:14:02.994Z</time>
      </trkpt>
      <trkpt lat="45.94679" lon="4.84824">
        <ele>276</ele>
        <time>2015-07-06T10:14:03.993Z</time>
      </trkpt>
      <trkpt lat="45.94678" lon="4.84815">
        <ele>275.700012207</ele>
        <time>2015-07-06T10:14:04.995Z</time>
      </trkpt>
      <trkpt lat="45.94677" lon="4.84806">
        <ele>275.299987793</ele>
        <time>2015-07-06T10:14:05.998Z</time>
      </trkpt>
      <trkpt lat="45.94676" lon="4.84798">
        <ele>275.100006104</ele>
        <time>2015-07-06T10:14:06.994Z</time>
      </trkpt>
      <trkpt lat="45.94676" lon="4.84788">
        <ele>274.899993896</ele>
        <time>2015-07-06T10:14:07.995Z</time>
      </trkpt>
      <trkpt lat="45.94675" lon="4.84779">
        <ele>274.799987793</ele>
        <time>2015-07-06T10:14:09.013Z</time>
      </trkpt>
      <trkpt lat="45.94673" lon="4.84771">
        <ele>274.799987793</ele>
        <time>2015-07-06T10:14:09.994Z</time>
      </trkpt>
      <trkpt lat="45.94672" lon="4.84762">
        <ele>275.399993896</ele>
        <time>2015-07-06T10:14:10.997Z</time>
      </trkpt>
      <trkpt lat="45.94672" lon="4.84752">
        <ele>275.399993896</ele>
        <time>2015-07-06T10:14:11.998Z</time>
      </trkpt>
      <trkpt lat="45.94671" lon="4.84743">
        <ele>275.299987793</ele>
        <time>2015-07-06T10:14:12.994Z</time>
      </trkpt>
      <trkpt lat="45.94671" lon="4.84733">
        <ele>275.299987793</ele>
        <time>2015-07-06T10:14:14.011Z</time>
      </trkpt>
      <trkpt lat="45.9467" lon="4.84724">
        <ele>275.5</ele>
        <time>2015-07-06T10:14:14.998Z</time>
      </trkpt>
      <trkpt lat="45.9467" lon="4.84715">
        <ele>275.299987793</ele>
        <time>2015-07-06T10:14:15.994Z</time>
      </trkpt>
      <trkpt lat="45.94669" lon="4.84706">
        <ele>275.299987793</ele>
        <time>2015-07-06T10:14:16.994Z</time>
      </trkpt>
      <trkpt lat="45.94669" lon="4.84696">
        <ele>275.299987793</ele>
        <time>2015-07-06T10:14:17.997Z</time>
      </trkpt>
      <trkpt lat="45.94668" lon="4.84687">
        <ele>275.5</ele>
        <time>2015-07-06T10:14:18.998Z</time>
      </trkpt>
      <trkpt lat="45.94668" lon="4.84678">
        <ele>275.600006104</ele>
        <time>2015-07-06T10:14:19.995Z</time>
      </trkpt>
      <trkpt lat="45.94667" lon="4.84669">
        <ele>275.799987793</ele>
        <time>2015-07-06T10:14:20.994Z</time>
      </trkpt>
      <trkpt lat="45.94665" lon="4.84659">
        <ele>275.899993896</ele>
        <time>2015-07-06T10:14:21.996Z</time>
      </trkpt>
      <trkpt lat="45.94664" lon="4.84649">
        <ele>276</ele>
        <time>2015-07-06T10:14:22.996Z</time>
      </trkpt>
      <trkpt lat="45.94664" lon="4.84639">
        <ele>276.200012207</ele>
        <time>2015-07-06T10:14:24.038Z</time>
      </trkpt>
      <trkpt lat="45.94664" lon="4.8463">
        <ele>277.600006104</ele>
        <time>2015-07-06T10:14:24.994Z</time>
      </trkpt>
      <trkpt lat="45.94664" lon="4.84621">
        <ele>277.5</ele>
        <time>2015-07-06T10:14:25.994Z</time>
      </trkpt>
      <trkpt lat="45.94663" lon="4.84611">
        <ele>276.899993896</ele>
        <time>2015-07-06T10:14:26.993Z</time>
      </trkpt>
      <trkpt lat="45.94662" lon="4.84601">
        <ele>276.299987793</ele>
        <time>2015-07-06T10:14:28.052Z</time>
      </trkpt>
      <trkpt lat="45.94661" lon="4.84592">
        <ele>276.299987793</ele>
        <time>2015-07-06T10:14:28.994Z</time>
      </trkpt>
      <trkpt lat="45.94661" lon="4.84583">
        <ele>276.100006104</ele>
        <time>2015-07-06T10:14:30.024Z</time>
      </trkpt>
      <trkpt lat="45.94661" lon="4.84573">
        <ele>276.100006104</ele>
        <time>2015-07-06T10:14:30.994Z</time>
      </trkpt>
      <trkpt lat="45.9466" lon="4.84564">
        <ele>276</ele>
        <time>2015-07-06T10:14:31.995Z</time>
      </trkpt>
      <trkpt lat="45.94659" lon="4.84554">
        <ele>275.799987793</ele>
        <time>2015-07-06T10:14:32.993Z</time>
      </trkpt>
      <trkpt lat="45.94659" lon="4.84545">
        <ele>275.700012207</ele>
        <time>2015-07-06T10:14:33.993Z</time>
      </trkpt>
      <trkpt lat="45.94658" lon="4.84536">
        <ele>275.700012207</ele>
        <time>2015-07-06T10:14:34.993Z</time>
      </trkpt>
      <trkpt lat="45.94658" lon="4.84526">
        <ele>275.600006104</ele>
        <time>2015-07-06T10:14:35.997Z</time>
      </trkpt>
      <trkpt lat="45.94658" lon="4.84517">
        <ele>275.399993896</ele>
        <time>2015-07-06T10:14:36.995Z</time>
      </trkpt>
      <trkpt lat="45.94657" lon="4.84508">
        <ele>274.899993896</ele>
        <time>2015-07-06T10:14:38.018Z</time>
      </trkpt>
      <trkpt lat="45.94656" lon="4.84498">
        <ele>274.799987793</ele>
        <time>2015-07-06T10:14:38.993Z</time>
      </trkpt>
      <trkpt lat="45.94656" lon="4.84489">
        <ele>274.200012207</ele>
        <time>2015-07-06T10:14:39.994Z</time>
      </trkpt>
      <trkpt lat="45.94656" lon="4.84481">
        <ele>273.600006104</ele>
        <time>2015-07-06T10:14:40.996Z</time>
      </trkpt>
      <trkpt lat="45.94655" lon="4.84473">
        <ele>273.600006104</ele>
        <time>2015-07-06T10:14:41.997Z</time>
      </trkpt>
      <trkpt lat="45.94654" lon="4.84464">
        <ele>273.299987793</ele>
        <time>2015-07-06T10:14:42.994Z</time>
      </trkpt>
      <trkpt lat="45.94653" lon="4.84456">
        <ele>273.100006104</ele>
        <time>2015-07-06T10:14:43.999Z</time>
      </trkpt>
      <trkpt lat="45.94652" lon="4.84448">
        <ele>273.799987793</ele>
        <time>2015-07-06T10:14:44.995Z</time>
      </trkpt>
      <trkpt lat="45.94651" lon="4.8444">
        <ele>273.600006104</ele>
        <time>2015-07-06T10:14:46.01Z</time>
      </trkpt>
      <trkpt lat="45.9465" lon="4.84431">
        <ele>272.799987793</ele>
        <time>2015-07-06T10:14:46.994Z</time>
      </trkpt>
      <trkpt lat="45.94649" lon="4.84423">
        <ele>273.299987793</ele>
        <time>2015-07-06T10:14:47.997Z</time>
      </trkpt>
      <trkpt lat="45.94648" lon="4.84414">
        <ele>273.100006104</ele>
        <time>2015-07-06T10:14:48.993Z</time>
      </trkpt>
      <trkpt lat="45.94647" lon="4.84405">
        <ele>273.299987793</ele>
        <time>2015-07-06T10:14:49.998Z</time>
      </trkpt>
      <trkpt lat="45.94646" lon="4.84397">
        <ele>273.200012207</ele>
        <time>2015-07-06T10:14:50.994Z</time>
      </trkpt>
      <trkpt lat="45.94646" lon="4.84388">
        <ele>273.299987793</ele>
        <time>2015-07-06T10:14:51.998Z</time>
      </trkpt>
      <trkpt lat="45.94644" lon="4.84379">
        <ele>273.200012207</ele>
        <time>2015-07-06T10:14:52.994Z</time>
      </trkpt>
      <trkpt lat="45.94643" lon="4.8437">
        <ele>273.100006104</ele>
        <time>2015-07-06T10:14:54.001Z</time>
      </trkpt>
      <trkpt lat="45.94642" lon="4.84361">
        <ele>273.600006104</ele>
        <time>2015-07-06T10:14:54.994Z</time>
      </trkpt>
      <trkpt lat="45.9464" lon="4.84352">
        <ele>273.799987793</ele>
        <time>2015-07-06T10:14:55.998Z</time>
      </trkpt>
      <trkpt lat="45.94639" lon="4.84343">
        <ele>273.799987793</ele>
        <time>2015-07-06T10:14:56.993Z</time>
      </trkpt>
      <trkpt lat="45.94638" lon="4.84334">
        <ele>273.799987793</ele>
        <time>2015-07-06T10:14:57.994Z</time>
      </trkpt>
      <trkpt lat="45.94637" lon="4.84325">
        <ele>273.700012207</ele>
        <time>2015-07-06T10:14:58.993Z</time>
      </trkpt>
      <trkpt lat="45.94636" lon="4.84315">
        <ele>273.5</ele>
        <time>2015-07-06T10:14:59.996Z</time>
      </trkpt>
      <trkpt lat="45.94635" lon="4.84306">
        <ele>273.5</ele>
        <time>2015-07-06T10:15:01.042Z</time>
      </trkpt>
      <trkpt lat="45.94634" lon="4.84296">
        <ele>273.600006104</ele>
        <time>2015-07-06T10:15:02.013Z</time>
      </trkpt>
      <trkpt lat="45.94632" lon="4.84287">
        <ele>273.799987793</ele>
        <time>2015-07-06T10:15:02.994Z</time>
      </trkpt>
      <trkpt lat="45.94631" lon="4.84278">
        <ele>273.899993896</ele>
        <time>2015-07-06T10:15:03.994Z</time>
      </trkpt>
      <trkpt lat="45.9463" lon="4.84269">
        <ele>274.299987793</ele>
        <time>2015-07-06T10:15:04.997Z</time>
      </trkpt>
      <trkpt lat="45.94628" lon="4.84261">
        <ele>274.200012207</ele>
        <time>2015-07-06T10:15:05.996Z</time>
      </trkpt>
      <trkpt lat="45.94627" lon="4.84252">
        <ele>273.899993896</ele>
        <time>2015-07-06T10:15:06.994Z</time>
      </trkpt>
      <trkpt lat="45.94626" lon="4.84243">
        <ele>273.600006104</ele>
        <time>2015-07-06T10:15:07.995Z</time>
      </trkpt>
      <trkpt lat="45.94625" lon="4.84234">
        <ele>273.299987793</ele>
        <time>2015-07-06T10:15:08.993Z</time>
      </trkpt>
      <trkpt lat="45.94623" lon="4.84225">
        <ele>273</ele>
        <time>2015-07-06T10:15:09.993Z</time>
      </trkpt>
      <trkpt lat="45.94622" lon="4.84216">
        <ele>272.299987793</ele>
        <time>2015-07-06T10:15:10.997Z</time>
      </trkpt>
      <trkpt lat="45.94621" lon="4.84207">
        <ele>272.100006104</ele>
        <time>2015-07-06T10:15:12.001Z</time>
      </trkpt>
      <trkpt lat="45.94619" lon="4.84198">
        <ele>271.700012207</ele>
        <time>2015-07-06T10:15:12.996Z</time>
      </trkpt>
      <trkpt lat="45.94618" lon="4.84189">
        <ele>271</ele>
        <time>2015-07-06T10:15:13.995Z</time>
      </trkpt>
      <trkpt lat="45.94617" lon="4.84179">
        <ele>270.600006104</ele>
        <time>2015-07-06T10:15:14.994Z</time>
      </trkpt>
      <trkpt lat="45.94616" lon="4.8417">
        <ele>270.200012207</ele>
        <time>2015-07-06T10:15:15.994Z</time>
      </trkpt>
      <trkpt lat="45.94615" lon="4.8416">
        <ele>269.799987793</ele>
        <time>2015-07-06T10:15:16.994Z</time>
      </trkpt>
      <trkpt lat="45.94614" lon="4.84151">
        <ele>269.5</ele>
        <time>2015-07-06T10:15:18.018Z</time>
      </trkpt>
      <trkpt lat="45.94612" lon="4.84141">
        <ele>269.100006104</ele>
        <time>2015-07-06T10:15:18.995Z</time>
      </trkpt>
      <trkpt lat="45.94611" lon="4.84132">
        <ele>268.600006104</ele>
        <time>2015-07-06T10:15:20.001Z</time>
      </trkpt>
      <trkpt lat="45.9461" lon="4.84123">
        <ele>268.299987793</ele>
        <time>2015-07-06T10:15:20.996Z</time>
      </trkpt>
      <trkpt lat="45.94608" lon="4.84113">
        <ele>267.799987793</ele>
        <time>2015-07-06T10:15:21.998Z</time>
      </trkpt>
      <trkpt lat="45.94607" lon="4.84103">
        <ele>267.5</ele>
        <time>2015-07-06T10:15:22.994Z</time>
      </trkpt>
      <trkpt lat="45.94605" lon="4.84092">
        <ele>267.100006104</ele>
        <time>2015-07-06T10:15:24.001Z</time>
      </trkpt>
      <trkpt lat="45.94602" lon="4.84083">
        <ele>266.799987793</ele>
        <time>2015-07-06T10:15:24.993Z</time>
      </trkpt>
      <trkpt lat="45.946" lon="4.84072">
        <ele>266</ele>
        <time>2015-07-06T10:15:26.039Z</time>
      </trkpt>
      <trkpt lat="45.94599" lon="4.84063">
        <ele>266</ele>
        <time>2015-07-06T10:15:26.996Z</time>
      </trkpt>
      <trkpt lat="45.94598" lon="4.84053">
        <ele>265.899993896</ele>
        <time>2015-07-06T10:15:27.998Z</time>
      </trkpt>
      <trkpt lat="45.94596" lon="4.84043">
        <ele>265.700012207</ele>
        <time>2015-07-06T10:15:28.995Z</time>
      </trkpt>
      <trkpt lat="45.94595" lon="4.84033">
        <ele>265.799987793</ele>
        <time>2015-07-06T10:15:29.998Z</time>
      </trkpt>
      <trkpt lat="45.94594" lon="4.84024">
        <ele>265.799987793</ele>
        <time>2015-07-06T10:15:30.994Z</time>
      </trkpt>
      <trkpt lat="45.94593" lon="4.84015">
        <ele>265.899993896</ele>
        <time>2015-07-06T10:15:32.018Z</time>
      </trkpt>
      <trkpt lat="45.94592" lon="4.84005">
        <ele>265.899993896</ele>
        <time>2015-07-06T10:15:32.993Z</time>
      </trkpt>
      <trkpt lat="45.94591" lon="4.83996">
        <ele>266</ele>
        <time>2015-07-06T10:15:34.008Z</time>
      </trkpt>
      <trkpt lat="45.9459" lon="4.83987">
        <ele>265.600006104</ele>
        <time>2015-07-06T10:15:34.998Z</time>
      </trkpt>
      <trkpt lat="45.94589" lon="4.83977">
        <ele>265.399993896</ele>
        <time>2015-07-06T10:15:36.001Z</time>
      </trkpt>
      <trkpt lat="45.94587" lon="4.83968">
        <ele>265.200012207</ele>
        <time>2015-07-06T10:15:36.996Z</time>
      </trkpt>
      <trkpt lat="45.94585" lon="4.83958">
        <ele>265.100006104</ele>
        <time>2015-07-06T10:15:37.995Z</time>
      </trkpt>
      <trkpt lat="45.94584" lon="4.83948">
        <ele>265.100006104</ele>
        <time>2015-07-06T10:15:38.996Z</time>
      </trkpt>
      <trkpt lat="45.94583" lon="4.83937">
        <ele>264.799987793</ele>
        <time>2015-07-06T10:15:40.022Z</time>
      </trkpt>
      <trkpt lat="45.94581" lon="4.83927">
        <ele>264.299987793</ele>
        <time>2015-07-06T10:15:40.994Z</time>
      </trkpt>
      <trkpt lat="45.94579" lon="4.83915">
        <ele>264.200012207</ele>
        <time>2015-07-06T10:15:42.001Z</time>
      </trkpt>
      <trkpt lat="45.94577" lon="4.83904">
        <ele>263.799987793</ele>
        <time>2015-07-06T10:15:42.994Z</time>
      </trkpt>
      <trkpt lat="45.94574" lon="4.83893">
        <ele>263.299987793</ele>
        <time>2015-07-06T10:15:44.022Z</time>
      </trkpt>
      <trkpt lat="45.94572" lon="4.83882">
        <ele>262.700012207</ele>
        <time>2015-07-06T10:15:44.994Z</time>
      </trkpt>
      <trkpt lat="45.94571" lon="4.83871">
        <ele>262.399993896</ele>
        <time>2015-07-06T10:15:45.994Z</time>
      </trkpt>
      <trkpt lat="45.94569" lon="4.83859">
        <ele>261.899993896</ele>
        <time>2015-07-06T10:15:46.994Z</time>
      </trkpt>
      <trkpt lat="45.94567" lon="4.83847">
        <ele>261.600006104</ele>
        <time>2015-07-06T10:15:47.997Z</time>
      </trkpt>
      <trkpt lat="45.94565" lon="4.83835">
        <ele>261.5</ele>
        <time>2015-07-06T10:15:48.994Z</time>
      </trkpt>
      <trkpt lat="45.94564" lon="4.83823">
        <ele>261.399993896</ele>
        <time>2015-07-06T10:15:49.995Z</time>
      </trkpt>
      <trkpt lat="45.94562" lon="4.83811">
        <ele>261.200012207</ele>
        <time>2015-07-06T10:15:50.993Z</time>
      </trkpt>
      <trkpt lat="45.9456" lon="4.83798">
        <ele>261</ele>
        <time>2015-07-06T10:15:51.995Z</time>
      </trkpt>
      <trkpt lat="45.94559" lon="4.83786">
        <ele>260.899993896</ele>
        <time>2015-07-06T10:15:52.994Z</time>
      </trkpt>
      <trkpt lat="45.94557" lon="4.83775">
        <ele>260.700012207</ele>
        <time>2015-07-06T10:15:53.997Z</time>
      </trkpt>
      <trkpt lat="45.94555" lon="4.83763">
        <ele>260.399993896</ele>
        <time>2015-07-06T10:15:55.01Z</time>
      </trkpt>
      <trkpt lat="45.94554" lon="4.83751">
        <ele>259.899993896</ele>
        <time>2015-07-06T10:15:55.998Z</time>
      </trkpt>
      <trkpt lat="45.94553" lon="4.83739">
        <ele>259.5</ele>
        <time>2015-07-06T10:15:56.999Z</time>
      </trkpt>
      <trkpt lat="45.94552" lon="4.83728">
        <ele>259.200012207</ele>
        <time>2015-07-06T10:15:57.998Z</time>
      </trkpt>
      <trkpt lat="45.94551" lon="4.83719">
        <ele>259</ele>
        <time>2015-07-06T10:15:58.997Z</time>
      </trkpt>
      <trkpt lat="45.94549" lon="4.83709">
        <ele>258.600006104</ele>
        <time>2015-07-06T10:15:59.998Z</time>
      </trkpt>
      <trkpt lat="45.94547" lon="4.83699">
        <ele>258.299987793</ele>
        <time>2015-07-06T10:16:00.995Z</time>
      </trkpt>
      <trkpt lat="45.94545" lon="4.83687">
        <ele>257.899993896</ele>
        <time>2015-07-06T10:16:01.995Z</time>
      </trkpt>
      <trkpt lat="45.94542" lon="4.83675">
        <ele>256.799987793</ele>
        <time>2015-07-06T10:16:02.996Z</time>
      </trkpt>
      <trkpt lat="45.94539" lon="4.83663">
        <ele>256.299987793</ele>
        <time>2015-07-06T10:16:03.994Z</time>
      </trkpt>
      <trkpt lat="45.94537" lon="4.83653">
        <ele>255.899993896</ele>
        <time>2015-07-06T10:16:04.994Z</time>
      </trkpt>
      <trkpt lat="45.94534" lon="4.83642">
        <ele>255.199996948</ele>
        <time>2015-07-06T10:16:06.204Z</time>
      </trkpt>
      <trkpt lat="45.94533" lon="4.83632">
        <ele>254.800003052</ele>
        <time>2015-07-06T10:16:06.995Z</time>
      </trkpt>
      <trkpt lat="45.94531" lon="4.83621">
        <ele>254.5</ele>
        <time>2015-07-06T10:16:07.995Z</time>
      </trkpt>
      <trkpt lat="45.94529" lon="4.83611">
        <ele>254.399993896</ele>
        <time>2015-07-06T10:16:08.996Z</time>
      </trkpt>
      <trkpt lat="45.94527" lon="4.83602">
        <ele>254.100006104</ele>
        <time>2015-07-06T10:16:09.994Z</time>
      </trkpt>
      <trkpt lat="45.94525" lon="4.83592">
        <ele>253.699996948</ele>
        <time>2015-07-06T10:16:10.998Z</time>
      </trkpt>
      <trkpt lat="45.94524" lon="4.83582">
        <ele>253.399993896</ele>
        <time>2015-07-06T10:16:11.999Z</time>
      </trkpt>
      <trkpt lat="45.9452" lon="4.83572">
        <ele>253.300003052</ele>
        <time>2015-07-06T10:16:12.998Z</time>
      </trkpt>
      <trkpt lat="45.94516" lon="4.83563">
        <ele>253.100006104</ele>
        <time>2015-07-06T10:16:13.996Z</time>
      </trkpt>
      <trkpt lat="45.94512" lon="4.83554">
        <ele>252.899993896</ele>
        <time>2015-07-06T10:16:14.994Z</time>
      </trkpt>
      <trkpt lat="45.94508" lon="4.83545">
        <ele>252.800003052</ele>
        <time>2015-07-06T10:16:16.01Z</time>
      </trkpt>
      <trkpt lat="45.94503" lon="4.83537">
        <ele>252.600006104</ele>
        <time>2015-07-06T10:16:16.994Z</time>
      </trkpt>
      <trkpt lat="45.94499" lon="4.83529">
        <ele>252.300003052</ele>
        <time>2015-07-06T10:16:18Z</time>
      </trkpt>
      <trkpt lat="45.94494" lon="4.83521">
        <ele>252.100006104</ele>
        <time>2015-07-06T10:16:18.995Z</time>
      </trkpt>
      <trkpt lat="45.9449" lon="4.83514">
        <ele>251.899993896</ele>
        <time>2015-07-06T10:16:19.995Z</time>
      </trkpt>
      <trkpt lat="45.94485" lon="4.83506">
        <ele>251.600006104</ele>
        <time>2015-07-06T10:16:20.994Z</time>
      </trkpt>
      <trkpt lat="45.94481" lon="4.83498">
        <ele>251.300003052</ele>
        <time>2015-07-06T10:16:22Z</time>
      </trkpt>
      <trkpt lat="45.94477" lon="4.8349">
        <ele>251</ele>
        <time>2015-07-06T10:16:22.994Z</time>
      </trkpt>
      <trkpt lat="45.94472" lon="4.83482">
        <ele>250.899993896</ele>
        <time>2015-07-06T10:16:24.002Z</time>
      </trkpt>
      <trkpt lat="45.94468" lon="4.83474">
        <ele>250.800003052</ele>
        <time>2015-07-06T10:16:24.994Z</time>
      </trkpt>
      <trkpt lat="45.94463" lon="4.83467">
        <ele>250.899993896</ele>
        <time>2015-07-06T10:16:26.018Z</time>
      </trkpt>
      <trkpt lat="45.94459" lon="4.83459">
        <ele>251.100006104</ele>
        <time>2015-07-06T10:16:26.994Z</time>
      </trkpt>
      <trkpt lat="45.94455" lon="4.83452">
        <ele>251.5</ele>
        <time>2015-07-06T10:16:27.998Z</time>
      </trkpt>
      <trkpt lat="45.94451" lon="4.83444">
        <ele>251.5</ele>
        <time>2015-07-06T10:16:28.994Z</time>
      </trkpt>
      <trkpt lat="45.94446" lon="4.83438">
        <ele>251.699996948</ele>
        <time>2015-07-06T10:16:29.998Z</time>
      </trkpt>
      <trkpt lat="45.94442" lon="4.83431">
        <ele>252</ele>
        <time>2015-07-06T10:16:30.994Z</time>
      </trkpt>
      <trkpt lat="45.94438" lon="4.83423">
        <ele>252.100006104</ele>
        <time>2015-07-06T10:16:31.995Z</time>
      </trkpt>
      <trkpt lat="45.94435" lon="4.83416">
        <ele>252.100006104</ele>
        <time>2015-07-06T10:16:32.995Z</time>
      </trkpt>
      <trkpt lat="45.94431" lon="4.83408">
        <ele>252.100006104</ele>
        <time>2015-07-06T10:16:33.998Z</time>
      </trkpt>
      <trkpt lat="45.94428" lon="4.83401">
        <ele>252.100006104</ele>
        <time>2015-07-06T10:16:34.993Z</time>
      </trkpt>
      <trkpt lat="45.94425" lon="4.83393">
        <ele>252</ele>
        <time>2015-07-06T10:16:36.001Z</time>
      </trkpt>
      <trkpt lat="45.94421" lon="4.83385">
        <ele>252.5</ele>
        <time>2015-07-06T10:16:37.01Z</time>
      </trkpt>
      <trkpt lat="45.94418" lon="4.83377">
        <ele>252.600006104</ele>
        <time>2015-07-06T10:16:37.995Z</time>
      </trkpt>
      <trkpt lat="45.94414" lon="4.8337">
        <ele>252.5</ele>
        <time>2015-07-06T10:16:39.052Z</time>
      </trkpt>
      <trkpt lat="45.94411" lon="4.83362">
        <ele>252.399993896</ele>
        <time>2015-07-06T10:16:39.994Z</time>
      </trkpt>
      <trkpt lat="45.94407" lon="4.83354">
        <ele>252.399993896</ele>
        <time>2015-07-06T10:16:40.994Z</time>
      </trkpt>
      <trkpt lat="45.94403" lon="4.83346">
        <ele>252.399993896</ele>
        <time>2015-07-06T10:16:42.002Z</time>
      </trkpt>
      <trkpt lat="45.944" lon="4.83338">
        <ele>252.199996948</ele>
        <time>2015-07-06T10:16:42.998Z</time>
      </trkpt>
      <trkpt lat="45.94396" lon="4.8333">
        <ele>252.100006104</ele>
        <time>2015-07-06T10:16:43.995Z</time>
      </trkpt>
      <trkpt lat="45.94393" lon="4.83321">
        <ele>252</ele>
        <time>2015-07-06T10:16:44.994Z</time>
      </trkpt>
      <trkpt lat="45.9439" lon="4.83313">
        <ele>251.800003052</ele>
        <time>2015-07-06T10:16:45.994Z</time>
      </trkpt>
      <trkpt lat="45.94387" lon="4.83305">
        <ele>251.600006104</ele>
        <time>2015-07-06T10:16:46.994Z</time>
      </trkpt>
      <trkpt lat="45.94384" lon="4.83296">
        <ele>251.199996948</ele>
        <time>2015-07-06T10:16:47.997Z</time>
      </trkpt>
      <trkpt lat="45.94381" lon="4.83288">
        <ele>250.899993896</ele>
        <time>2015-07-06T10:16:48.994Z</time>
      </trkpt>
      <trkpt lat="45.94378" lon="4.83279">
        <ele>250.699996948</ele>
        <time>2015-07-06T10:16:49.995Z</time>
      </trkpt>
      <trkpt lat="45.94375" lon="4.83271">
        <ele>250.600006104</ele>
        <time>2015-07-06T10:16:50.994Z</time>
      </trkpt>
      <trkpt lat="45.94372" lon="4.83263">
        <ele>250.5</ele>
        <time>2015-07-06T10:16:51.994Z</time>
      </trkpt>
      <trkpt lat="45.94369" lon="4.83255">
        <ele>250.600006104</ele>
        <time>2015-07-06T10:16:52.994Z</time>
      </trkpt>
      <trkpt lat="45.94366" lon="4.83247">
        <ele>250.600006104</ele>
        <time>2015-07-06T10:16:54Z</time>
      </trkpt>
      <trkpt lat="45.94363" lon="4.83239">
        <ele>250.300003052</ele>
        <time>2015-07-06T10:16:54.994Z</time>
      </trkpt>
      <trkpt lat="45.9436" lon="4.83231">
        <ele>250.399993896</ele>
        <time>2015-07-06T10:16:55.995Z</time>
      </trkpt>
      <trkpt lat="45.94357" lon="4.83223">
        <ele>250.5</ele>
        <time>2015-07-06T10:16:57.018Z</time>
      </trkpt>
      <trkpt lat="45.94354" lon="4.83215">
        <ele>250.5</ele>
        <time>2015-07-06T10:16:58.011Z</time>
      </trkpt>
      <trkpt lat="45.94351" lon="4.83207">
        <ele>250.600006104</ele>
        <time>2015-07-06T10:16:58.998Z</time>
      </trkpt>
      <trkpt lat="45.94349" lon="4.832">
        <ele>250.5</ele>
        <time>2015-07-06T10:16:59.998Z</time>
      </trkpt>
      <trkpt lat="45.94347" lon="4.83193">
        <ele>250.5</ele>
        <time>2015-07-06T10:17:00.994Z</time>
      </trkpt>
      <trkpt lat="45.94345" lon="4.83185">
        <ele>250.5</ele>
        <time>2015-07-06T10:17:01.999Z</time>
      </trkpt>
      <trkpt lat="45.94343" lon="4.83177">
        <ele>250.600006104</ele>
        <time>2015-07-06T10:17:02.994Z</time>
      </trkpt>
      <trkpt lat="45.9434" lon="4.83169">
        <ele>250.800003052</ele>
        <time>2015-07-06T10:17:03.994Z</time>
      </trkpt>
      <trkpt lat="45.94337" lon="4.83161">
        <ele>251.100006104</ele>
        <time>2015-07-06T10:17:04.996Z</time>
      </trkpt>
      <trkpt lat="45.94335" lon="4.83154">
        <ele>251.399993896</ele>
        <time>2015-07-06T10:17:05.997Z</time>
      </trkpt>
      <trkpt lat="45.94332" lon="4.83146">
        <ele>251.600006104</ele>
        <time>2015-07-06T10:17:06.994Z</time>
      </trkpt>
      <trkpt lat="45.94329" lon="4.83139">
        <ele>252</ele>
        <time>2015-07-06T10:17:07.994Z</time>
      </trkpt>
      <trkpt lat="45.94326" lon="4.83131">
        <ele>252.199996948</ele>
        <time>2015-07-06T10:17:08.998Z</time>
      </trkpt>
      <trkpt lat="45.94324" lon="4.83123">
        <ele>252</ele>
        <time>2015-07-06T10:17:09.994Z</time>
      </trkpt>
      <trkpt lat="45.94321" lon="4.83115">
        <ele>251.899993896</ele>
        <time>2015-07-06T10:17:10.994Z</time>
      </trkpt>
      <trkpt lat="45.94318" lon="4.83107">
        <ele>252.199996948</ele>
        <time>2015-07-06T10:17:11.997Z</time>
      </trkpt>
      <trkpt lat="45.94317" lon="4.83099">
        <ele>251.899993896</ele>
        <time>2015-07-06T10:17:12.994Z</time>
      </trkpt>
      <trkpt lat="45.94316" lon="4.83091">
        <ele>252.399993896</ele>
        <time>2015-07-06T10:17:14.012Z</time>
      </trkpt>
      <trkpt lat="45.94313" lon="4.83083">
        <ele>252.699996948</ele>
        <time>2015-07-06T10:17:14.996Z</time>
      </trkpt>
      <trkpt lat="45.94311" lon="4.83075">
        <ele>253.399993896</ele>
        <time>2015-07-06T10:17:15.994Z</time>
      </trkpt>
      <trkpt lat="45.94308" lon="4.83067">
        <ele>254.199996948</ele>
        <time>2015-07-06T10:17:16.994Z</time>
      </trkpt>
      <trkpt lat="45.94306" lon="4.8306">
        <ele>255.100006104</ele>
        <time>2015-07-06T10:17:18.002Z</time>
      </trkpt>
      <trkpt lat="45.94304" lon="4.83053">
        <ele>255.300003052</ele>
        <time>2015-07-06T10:17:18.996Z</time>
      </trkpt>
      <trkpt lat="45.94303" lon="4.83045">
        <ele>255.600006104</ele>
        <time>2015-07-06T10:17:20.017Z</time>
      </trkpt>
      <trkpt lat="45.94301" lon="4.83038">
        <ele>255.699996948</ele>
        <time>2015-07-06T10:17:20.994Z</time>
      </trkpt>
      <trkpt lat="45.943" lon="4.8303">
        <ele>255.699996948</ele>
        <time>2015-07-06T10:17:21.998Z</time>
      </trkpt>
      <trkpt lat="45.94298" lon="4.83022">
        <ele>255.699996948</ele>
        <time>2015-07-06T10:17:22.994Z</time>
      </trkpt>
      <trkpt lat="45.94297" lon="4.83014">
        <ele>255.600006104</ele>
        <time>2015-07-06T10:17:23.998Z</time>
      </trkpt>
      <trkpt lat="45.94296" lon="4.83006">
        <ele>255.800003052</ele>
        <time>2015-07-06T10:17:24.997Z</time>
      </trkpt>
      <trkpt lat="45.94294" lon="4.82998">
        <ele>255.800003052</ele>
        <time>2015-07-06T10:17:25.995Z</time>
      </trkpt>
      <trkpt lat="45.94291" lon="4.8299">
        <ele>256</ele>
        <time>2015-07-06T10:17:26.998Z</time>
      </trkpt>
      <trkpt lat="45.94289" lon="4.82982">
        <ele>256.299987793</ele>
        <time>2015-07-06T10:17:27.994Z</time>
      </trkpt>
      <trkpt lat="45.94288" lon="4.82975">
        <ele>256.5</ele>
        <time>2015-07-06T10:17:28.993Z</time>
      </trkpt>
      <trkpt lat="45.94285" lon="4.82968">
        <ele>257</ele>
        <time>2015-07-06T10:17:30.013Z</time>
      </trkpt>
      <trkpt lat="45.94283" lon="4.82961">
        <ele>257</ele>
        <time>2015-07-06T10:17:30.993Z</time>
      </trkpt>
      <trkpt lat="45.9428" lon="4.82954">
        <ele>257.200012207</ele>
        <time>2015-07-06T10:17:31.998Z</time>
      </trkpt>
      <trkpt lat="45.9428" lon="4.82948">
        <ele>257.700012207</ele>
        <time>2015-07-06T10:17:32.994Z</time>
      </trkpt>
      <trkpt lat="45.9428" lon="4.82941">
        <ele>257.899993896</ele>
        <time>2015-07-06T10:17:33.993Z</time>
      </trkpt>
      <trkpt lat="45.94281" lon="4.82934">
        <ele>258.200012207</ele>
        <time>2015-07-06T10:17:34.995Z</time>
      </trkpt>
      <trkpt lat="45.94283" lon="4.82927">
        <ele>259.700012207</ele>
        <time>2015-07-06T10:17:35.997Z</time>
      </trkpt>
      <trkpt lat="45.94285" lon="4.8292">
        <ele>260.100006104</ele>
        <time>2015-07-06T10:17:36.994Z</time>
      </trkpt>
      <trkpt lat="45.94286" lon="4.82912">
        <ele>260.399993896</ele>
        <time>2015-07-06T10:17:38.052Z</time>
      </trkpt>
      <trkpt lat="45.94287" lon="4.82904">
        <ele>260.5</ele>
        <time>2015-07-06T10:17:38.994Z</time>
      </trkpt>
      <trkpt lat="45.94288" lon="4.82895">
        <ele>260.399993896</ele>
        <time>2015-07-06T10:17:39.994Z</time>
      </trkpt>
      <trkpt lat="45.94289" lon="4.82886">
        <ele>260.200012207</ele>
        <time>2015-07-06T10:17:40.994Z</time>
      </trkpt>
      <trkpt lat="45.94289" lon="4.82877">
        <ele>260.399993896</ele>
        <time>2015-07-06T10:17:42.001Z</time>
      </trkpt>
      <trkpt lat="45.9429" lon="4.82867">
        <ele>260.100006104</ele>
        <time>2015-07-06T10:17:42.998Z</time>
      </trkpt>
      <trkpt lat="45.94289" lon="4.82857">
        <ele>260</ele>
        <time>2015-07-06T10:17:43.995Z</time>
      </trkpt>
      <trkpt lat="45.94289" lon="4.82848">
        <ele>260</ele>
        <time>2015-07-06T10:17:44.995Z</time>
      </trkpt>
      <trkpt lat="45.94289" lon="4.82837">
        <ele>259.600006104</ele>
        <time>2015-07-06T10:17:46.011Z</time>
      </trkpt>
      <trkpt lat="45.94289" lon="4.82827">
        <ele>259.5</ele>
        <time>2015-07-06T10:17:46.993Z</time>
      </trkpt>
      <trkpt lat="45.94289" lon="4.82816">
        <ele>259.200012207</ele>
        <time>2015-07-06T10:17:47.997Z</time>
      </trkpt>
      <trkpt lat="45.94289" lon="4.82805">
        <ele>259</ele>
        <time>2015-07-06T10:17:48.994Z</time>
      </trkpt>
      <trkpt lat="45.94288" lon="4.82795">
        <ele>258.700012207</ele>
        <time>2015-07-06T10:17:49.995Z</time>
      </trkpt>
      <trkpt lat="45.94289" lon="4.82785">
        <ele>258.700012207</ele>
        <time>2015-07-06T10:17:50.997Z</time>
      </trkpt>
      <trkpt lat="45.94288" lon="4.82776">
        <ele>258.600006104</ele>
        <time>2015-07-06T10:17:51.994Z</time>
      </trkpt>
      <trkpt lat="45.94288" lon="4.82766">
        <ele>258.399993896</ele>
        <time>2015-07-06T10:17:52.994Z</time>
      </trkpt>
      <trkpt lat="45.94288" lon="4.82756">
        <ele>258.299987793</ele>
        <time>2015-07-06T10:17:53.997Z</time>
      </trkpt>
      <trkpt lat="45.94288" lon="4.82746">
        <ele>258.299987793</ele>
        <time>2015-07-06T10:17:54.995Z</time>
      </trkpt>
      <trkpt lat="45.94288" lon="4.82737">
        <ele>258.200012207</ele>
        <time>2015-07-06T10:17:55.999Z</time>
      </trkpt>
      <trkpt lat="45.94288" lon="4.82727">
        <ele>258.600006104</ele>
        <time>2015-07-06T10:17:56.998Z</time>
      </trkpt>
      <trkpt lat="45.94288" lon="4.82718">
        <ele>258.799987793</ele>
        <time>2015-07-06T10:17:57.993Z</time>
      </trkpt>
      <trkpt lat="45.94288" lon="4.82708">
        <ele>257.899993896</ele>
        <time>2015-07-06T10:17:58.994Z</time>
      </trkpt>
      <trkpt lat="45.94289" lon="4.82698">
        <ele>258</ele>
        <time>2015-07-06T10:18:00.019Z</time>
      </trkpt>
      <trkpt lat="45.94289" lon="4.82688">
        <ele>257.799987793</ele>
        <time>2015-07-06T10:18:01.042Z</time>
      </trkpt>
      <trkpt lat="45.9429" lon="4.82678">
        <ele>257.399993896</ele>
        <time>2015-07-06T10:18:02.011Z</time>
      </trkpt>
      <trkpt lat="45.94291" lon="4.82667">
        <ele>257.200012207</ele>
        <time>2015-07-06T10:18:02.996Z</time>
      </trkpt>
      <trkpt lat="45.94291" lon="4.82657">
        <ele>257</ele>
        <time>2015-07-06T10:18:03.998Z</time>
      </trkpt>
      <trkpt lat="45.94291" lon="4.82647">
        <ele>257.100006104</ele>
        <time>2015-07-06T10:18:04.995Z</time>
      </trkpt>
      <trkpt lat="45.94292" lon="4.82637">
        <ele>257.100006104</ele>
        <time>2015-07-06T10:18:06.001Z</time>
      </trkpt>
      <trkpt lat="45.94292" lon="4.82626">
        <ele>256.799987793</ele>
        <time>2015-07-06T10:18:06.993Z</time>
      </trkpt>
      <trkpt lat="45.94292" lon="4.82616">
        <ele>256.5</ele>
        <time>2015-07-06T10:18:07.994Z</time>
      </trkpt>
      <trkpt lat="45.94291" lon="4.82606">
        <ele>256.100006104</ele>
        <time>2015-07-06T10:18:08.994Z</time>
      </trkpt>
      <trkpt lat="45.94291" lon="4.82595">
        <ele>255.699996948</ele>
        <time>2015-07-06T10:18:09.993Z</time>
      </trkpt>
      <trkpt lat="45.94291" lon="4.82585">
        <ele>255.800003052</ele>
        <time>2015-07-06T10:18:10.994Z</time>
      </trkpt>
      <trkpt lat="45.94292" lon="4.82575">
        <ele>256</ele>
        <time>2015-07-06T10:18:11.997Z</time>
      </trkpt>
      <trkpt lat="45.94291" lon="4.82565">
        <ele>256.100006104</ele>
        <time>2015-07-06T10:18:12.993Z</time>
      </trkpt>
      <trkpt lat="45.94291" lon="4.82555">
        <ele>256</ele>
        <time>2015-07-06T10:18:14.019Z</time>
      </trkpt>
      <trkpt lat="45.94291" lon="4.82545">
        <ele>256.200012207</ele>
        <time>2015-07-06T10:18:14.996Z</time>
      </trkpt>
      <trkpt lat="45.94292" lon="4.82535">
        <ele>256</ele>
        <time>2015-07-06T10:18:16.032Z</time>
      </trkpt>
      <trkpt lat="45.94291" lon="4.82526">
        <ele>256</ele>
        <time>2015-07-06T10:18:17Z</time>
      </trkpt>
      <trkpt lat="45.94291" lon="4.82516">
        <ele>255.800003052</ele>
        <time>2015-07-06T10:18:18.017Z</time>
      </trkpt>
      <trkpt lat="45.94291" lon="4.82506">
        <ele>255.800003052</ele>
        <time>2015-07-06T10:18:18.994Z</time>
      </trkpt>
      <trkpt lat="45.94291" lon="4.82496">
        <ele>255.699996948</ele>
        <time>2015-07-06T10:18:19.994Z</time>
      </trkpt>
      <trkpt lat="45.94291" lon="4.82486">
        <ele>255.300003052</ele>
        <time>2015-07-06T10:18:20.993Z</time>
      </trkpt>
      <trkpt lat="45.9429" lon="4.82475">
        <ele>255.300003052</ele>
        <time>2015-07-06T10:18:22Z</time>
      </trkpt>
      <trkpt lat="45.9429" lon="4.82465">
        <ele>255.100006104</ele>
        <time>2015-07-06T10:18:22.994Z</time>
      </trkpt>
      <trkpt lat="45.9429" lon="4.82454">
        <ele>254.800003052</ele>
        <time>2015-07-06T10:18:23.997Z</time>
      </trkpt>
      <trkpt lat="45.94289" lon="4.82443">
        <ele>254.600006104</ele>
        <time>2015-07-06T10:18:24.997Z</time>
      </trkpt>
      <trkpt lat="45.94288" lon="4.82433">
        <ele>254.5</ele>
        <time>2015-07-06T10:18:25.995Z</time>
      </trkpt>
      <trkpt lat="45.94288" lon="4.82423">
        <ele>254.699996948</ele>
        <time>2015-07-06T10:18:26.994Z</time>
      </trkpt>
      <trkpt lat="45.94288" lon="4.82412">
        <ele>254.600006104</ele>
        <time>2015-07-06T10:18:27.994Z</time>
      </trkpt>
      <trkpt lat="45.94287" lon="4.82402">
        <ele>254.399993896</ele>
        <time>2015-07-06T10:18:28.998Z</time>
      </trkpt>
      <trkpt lat="45.94287" lon="4.82392">
        <ele>254.199996948</ele>
        <time>2015-07-06T10:18:29.999Z</time>
      </trkpt>
      <trkpt lat="45.94287" lon="4.82381">
        <ele>254.100006104</ele>
        <time>2015-07-06T10:18:30.993Z</time>
      </trkpt>
      <trkpt lat="45.94286" lon="4.8237">
        <ele>253.600006104</ele>
        <time>2015-07-06T10:18:31.998Z</time>
      </trkpt>
      <trkpt lat="45.94286" lon="4.8236">
        <ele>253.399993896</ele>
        <time>2015-07-06T10:18:32.995Z</time>
      </trkpt>
      <trkpt lat="45.94285" lon="4.82349">
        <ele>253.100006104</ele>
        <time>2015-07-06T10:18:34.01Z</time>
      </trkpt>
      <trkpt lat="45.94284" lon="4.82338">
        <ele>252.899993896</ele>
        <time>2015-07-06T10:18:34.993Z</time>
      </trkpt>
      <trkpt lat="45.94284" lon="4.82328">
        <ele>252.600006104</ele>
        <time>2015-07-06T10:18:36.001Z</time>
      </trkpt>
      <trkpt lat="45.94284" lon="4.82317">
        <ele>252.5</ele>
        <time>2015-07-06T10:18:36.993Z</time>
      </trkpt>
      <trkpt lat="45.94284" lon="4.82307">
        <ele>252.300003052</ele>
        <time>2015-07-06T10:18:37.995Z</time>
      </trkpt>
      <trkpt lat="45.94284" lon="4.82297">
        <ele>252.699996948</ele>
        <time>2015-07-06T10:18:38.994Z</time>
      </trkpt>
      <trkpt lat="45.94284" lon="4.82287">
        <ele>253.5</ele>
        <time>2015-07-06T10:18:39.994Z</time>
      </trkpt>
      <trkpt lat="45.94285" lon="4.82277">
        <ele>253.899993896</ele>
        <time>2015-07-06T10:18:40.998Z</time>
      </trkpt>
      <trkpt lat="45.94284" lon="4.82267">
        <ele>254.199996948</ele>
        <time>2015-07-06T10:18:42Z</time>
      </trkpt>
      <trkpt lat="45.94284" lon="4.82258">
        <ele>254.800003052</ele>
        <time>2015-07-06T10:18:43.001Z</time>
      </trkpt>
      <trkpt lat="45.94283" lon="4.82248">
        <ele>255.300003052</ele>
        <time>2015-07-06T10:18:43.994Z</time>
      </trkpt>
      <trkpt lat="45.94283" lon="4.82239">
        <ele>255.699996948</ele>
        <time>2015-07-06T10:18:44.995Z</time>
      </trkpt>
      <trkpt lat="45.94283" lon="4.8223">
        <ele>256.200012207</ele>
        <time>2015-07-06T10:18:45.997Z</time>
      </trkpt>
      <trkpt lat="45.94282" lon="4.8222">
        <ele>256.299987793</ele>
        <time>2015-07-06T10:18:46.993Z</time>
      </trkpt>
      <trkpt lat="45.94282" lon="4.82211">
        <ele>256.5</ele>
        <time>2015-07-06T10:18:47.995Z</time>
      </trkpt>
      <trkpt lat="45.94281" lon="4.82202">
        <ele>256.5</ele>
        <time>2015-07-06T10:18:48.993Z</time>
      </trkpt>
      <trkpt lat="45.94279" lon="4.82193">
        <ele>256.799987793</ele>
        <time>2015-07-06T10:18:50.013Z</time>
      </trkpt>
      <trkpt lat="45.94278" lon="4.82184">
        <ele>257</ele>
        <time>2015-07-06T10:18:50.993Z</time>
      </trkpt>
      <trkpt lat="45.94277" lon="4.82175">
        <ele>257.700012207</ele>
        <time>2015-07-06T10:18:51.997Z</time>
      </trkpt>
      <trkpt lat="45.94276" lon="4.82166">
        <ele>258.200012207</ele>
        <time>2015-07-06T10:18:52.993Z</time>
      </trkpt>
      <trkpt lat="45.94275" lon="4.82157">
        <ele>259.299987793</ele>
        <time>2015-07-06T10:18:54Z</time>
      </trkpt>
      <trkpt lat="45.94274" lon="4.82148">
        <ele>260.100006104</ele>
        <time>2015-07-06T10:18:54.995Z</time>
      </trkpt>
      <trkpt lat="45.94272" lon="4.82139">
        <ele>260.399993896</ele>
        <time>2015-07-06T10:18:55.994Z</time>
      </trkpt>
      <trkpt lat="45.9427" lon="4.82129">
        <ele>260.899993896</ele>
        <time>2015-07-06T10:18:56.995Z</time>
      </trkpt>
      <trkpt lat="45.94268" lon="4.8212">
        <ele>261.399993896</ele>
        <time>2015-07-06T10:18:57.993Z</time>
      </trkpt>
      <trkpt lat="45.94266" lon="4.82111">
        <ele>261.899993896</ele>
        <time>2015-07-06T10:18:58.993Z</time>
      </trkpt>
      <trkpt lat="45.94263" lon="4.82102">
        <ele>262.5</ele>
        <time>2015-07-06T10:18:59.997Z</time>
      </trkpt>
      <trkpt lat="45.94261" lon="4.82093">
        <ele>263</ele>
        <time>2015-07-06T10:19:01.042Z</time>
      </trkpt>
      <trkpt lat="45.94259" lon="4.82084">
        <ele>263.200012207</ele>
        <time>2015-07-06T10:19:01.994Z</time>
      </trkpt>
      <trkpt lat="45.94256" lon="4.82075">
        <ele>263.5</ele>
        <time>2015-07-06T10:19:02.992Z</time>
      </trkpt>
      <trkpt lat="45.94254" lon="4.82066">
        <ele>263.700012207</ele>
        <time>2015-07-06T10:19:03.997Z</time>
      </trkpt>
      <trkpt lat="45.94252" lon="4.82056">
        <ele>263.899993896</ele>
        <time>2015-07-06T10:19:04.993Z</time>
      </trkpt>
      <trkpt lat="45.94251" lon="4.82046">
        <ele>263.899993896</ele>
        <time>2015-07-06T10:19:05.996Z</time>
      </trkpt>
      <trkpt lat="45.94249" lon="4.82036">
        <ele>263.299987793</ele>
        <time>2015-07-06T10:19:06.993Z</time>
      </trkpt>
      <trkpt lat="45.94247" lon="4.82026">
        <ele>263</ele>
        <time>2015-07-06T10:19:08.017Z</time>
      </trkpt>
      <trkpt lat="45.94245" lon="4.82017">
        <ele>263.100006104</ele>
        <time>2015-07-06T10:19:08.998Z</time>
      </trkpt>
      <trkpt lat="45.94242" lon="4.82007">
        <ele>263.399993896</ele>
        <time>2015-07-06T10:19:09.997Z</time>
      </trkpt>
      <trkpt lat="45.9424" lon="4.81998">
        <ele>263.5</ele>
        <time>2015-07-06T10:19:11.01Z</time>
      </trkpt>
      <trkpt lat="45.94237" lon="4.81989">
        <ele>263.700012207</ele>
        <time>2015-07-06T10:19:11.996Z</time>
      </trkpt>
      <trkpt lat="45.94235" lon="4.81979">
        <ele>263.799987793</ele>
        <time>2015-07-06T10:19:13.023Z</time>
      </trkpt>
      <trkpt lat="45.94232" lon="4.8197">
        <ele>263.899993896</ele>
        <time>2015-07-06T10:19:14Z</time>
      </trkpt>
      <trkpt lat="45.9423" lon="4.81961">
        <ele>264.100006104</ele>
        <time>2015-07-06T10:19:14.997Z</time>
      </trkpt>
      <trkpt lat="45.94229" lon="4.81952">
        <ele>264.200012207</ele>
        <time>2015-07-06T10:19:15.997Z</time>
      </trkpt>
      <trkpt lat="45.94227" lon="4.81943">
        <ele>264.299987793</ele>
        <time>2015-07-06T10:19:16.995Z</time>
      </trkpt>
      <trkpt lat="45.94225" lon="4.81935">
        <ele>264.200012207</ele>
        <time>2015-07-06T10:19:17.997Z</time>
      </trkpt>
      <trkpt lat="45.94223" lon="4.81926">
        <ele>264.100006104</ele>
        <time>2015-07-06T10:19:18.997Z</time>
      </trkpt>
      <trkpt lat="45.94221" lon="4.81918">
        <ele>263.700012207</ele>
        <time>2015-07-06T10:19:19.998Z</time>
      </trkpt>
      <trkpt lat="45.94219" lon="4.8191">
        <ele>263.5</ele>
        <time>2015-07-06T10:19:20.997Z</time>
      </trkpt>
      <trkpt lat="45.94218" lon="4.81901">
        <ele>263</ele>
        <time>2015-07-06T10:19:21.995Z</time>
      </trkpt>
      <trkpt lat="45.94216" lon="4.81893">
        <ele>262.799987793</ele>
        <time>2015-07-06T10:19:22.993Z</time>
      </trkpt>
      <trkpt lat="45.94214" lon="4.81884">
        <ele>262.299987793</ele>
        <time>2015-07-06T10:19:23.996Z</time>
      </trkpt>
      <trkpt lat="45.94212" lon="4.81876">
        <ele>262.100006104</ele>
        <time>2015-07-06T10:19:24.995Z</time>
      </trkpt>
      <trkpt lat="45.9421" lon="4.81868">
        <ele>262.100006104</ele>
        <time>2015-07-06T10:19:25.994Z</time>
      </trkpt>
      <trkpt lat="45.94208" lon="4.8186">
        <ele>262</ele>
        <time>2015-07-06T10:19:26.993Z</time>
      </trkpt>
      <trkpt lat="45.94206" lon="4.81851">
        <ele>261.899993896</ele>
        <time>2015-07-06T10:19:27.997Z</time>
      </trkpt>
      <trkpt lat="45.94204" lon="4.81843">
        <ele>261.899993896</ele>
        <time>2015-07-06T10:19:28.993Z</time>
      </trkpt>
      <trkpt lat="45.94202" lon="4.81835">
        <ele>262</ele>
        <time>2015-07-06T10:19:29.996Z</time>
      </trkpt>
      <trkpt lat="45.942" lon="4.81826">
        <ele>261.5</ele>
        <time>2015-07-06T10:19:31.034Z</time>
      </trkpt>
      <trkpt lat="45.94199" lon="4.81817">
        <ele>261.299987793</ele>
        <time>2015-07-06T10:19:32.013Z</time>
      </trkpt>
      <trkpt lat="45.94199" lon="4.81808">
        <ele>260.799987793</ele>
        <time>2015-07-06T10:19:32.993Z</time>
      </trkpt>
      <trkpt lat="45.94199" lon="4.81799">
        <ele>260</ele>
        <time>2015-07-06T10:19:33.995Z</time>
      </trkpt>
      <trkpt lat="45.942" lon="4.8179">
        <ele>259.399993896</ele>
        <time>2015-07-06T10:19:34.996Z</time>
      </trkpt>
      <trkpt lat="45.94203" lon="4.81783">
        <ele>258.399993896</ele>
        <time>2015-07-06T10:19:36Z</time>
      </trkpt>
      <trkpt lat="45.94205" lon="4.81776">
        <ele>258.200012207</ele>
        <time>2015-07-06T10:19:36.996Z</time>
      </trkpt>
      <trkpt lat="45.94208" lon="4.81766">
        <ele>258.5</ele>
        <time>2015-07-06T10:19:38.993Z</time>
      </trkpt>
      <trkpt lat="45.9421" lon="4.81762">
        <ele>258.700012207</ele>
        <time>2015-07-06T10:19:39.993Z</time>
      </trkpt>
      <trkpt lat="45.94214" lon="4.81753">
        <ele>259.100006104</ele>
        <time>2015-07-06T10:19:41.997Z</time>
      </trkpt>
      <trkpt lat="45.94217" lon="4.81747">
        <ele>259.299987793</ele>
        <time>2015-07-06T10:19:42.993Z</time>
      </trkpt>
      <trkpt lat="45.94219" lon="4.8174">
        <ele>260.100006104</ele>
        <time>2015-07-06T10:19:43.998Z</time>
      </trkpt>
      <trkpt lat="45.9422" lon="4.81733">
        <ele>260</ele>
        <time>2015-07-06T10:19:44.997Z</time>
      </trkpt>
      <trkpt lat="45.94221" lon="4.81726">
        <ele>259.5</ele>
        <time>2015-07-06T10:19:45.996Z</time>
      </trkpt>
      <trkpt lat="45.94222" lon="4.8172">
        <ele>259.399993896</ele>
        <time>2015-07-06T10:19:46.996Z</time>
      </trkpt>
      <trkpt lat="45.94219" lon="4.81714">
        <ele>259.299987793</ele>
        <time>2015-07-06T10:19:48.015Z</time>
      </trkpt>
      <trkpt lat="45.94217" lon="4.81709">
        <ele>259.100006104</ele>
        <time>2015-07-06T10:19:48.994Z</time>
      </trkpt>
      <trkpt lat="45.94213" lon="4.81705">
        <ele>259</ele>
        <time>2015-07-06T10:19:49.999Z</time>
      </trkpt>
      <trkpt lat="45.94208" lon="4.81702">
        <ele>258.700012207</ele>
        <time>2015-07-06T10:19:50.995Z</time>
      </trkpt>
      <trkpt lat="45.94204" lon="4.817">
        <ele>258.5</ele>
        <time>2015-07-06T10:19:52.028Z</time>
      </trkpt>
      <trkpt lat="45.94198" lon="4.81697">
        <ele>258.399993896</ele>
        <time>2015-07-06T10:19:52.993Z</time>
      </trkpt>
      <trkpt lat="45.94193" lon="4.81692">
        <ele>258.299987793</ele>
        <time>2015-07-06T10:19:54Z</time>
      </trkpt>
      <trkpt lat="45.94189" lon="4.81686">
        <ele>258.200012207</ele>
        <time>2015-07-06T10:19:54.997Z</time>
      </trkpt>
      <trkpt lat="45.94184" lon="4.81678">
        <ele>258.299987793</ele>
        <time>2015-07-06T10:19:55.994Z</time>
      </trkpt>
      <trkpt lat="45.94181" lon="4.81668">
        <ele>258.299987793</ele>
        <time>2015-07-06T10:19:56.995Z</time>
      </trkpt>
      <trkpt lat="45.94177" lon="4.81658">
        <ele>258.100006104</ele>
        <time>2015-07-06T10:19:57.996Z</time>
      </trkpt>
      <trkpt lat="45.94174" lon="4.81647">
        <ele>257.899993896</ele>
        <time>2015-07-06T10:19:58.993Z</time>
      </trkpt>
      <trkpt lat="45.94172" lon="4.81636">
        <ele>257.600006104</ele>
        <time>2015-07-06T10:20:00.052Z</time>
      </trkpt>
      <trkpt lat="45.94169" lon="4.81625">
        <ele>257.200012207</ele>
        <time>2015-07-06T10:20:00.996Z</time>
      </trkpt>
      <trkpt lat="45.94166" lon="4.81613">
        <ele>257</ele>
        <time>2015-07-06T10:20:02.018Z</time>
      </trkpt>
      <trkpt lat="45.94164" lon="4.81602">
        <ele>256.799987793</ele>
        <time>2015-07-06T10:20:02.995Z</time>
      </trkpt>
      <trkpt lat="45.94162" lon="4.8159">
        <ele>256.700012207</ele>
        <time>2015-07-06T10:20:04.011Z</time>
      </trkpt>
      <trkpt lat="45.94161" lon="4.81579">
        <ele>256.700012207</ele>
        <time>2015-07-06T10:20:04.995Z</time>
      </trkpt>
      <trkpt lat="45.9416" lon="4.81567">
        <ele>256.700012207</ele>
        <time>2015-07-06T10:20:05.996Z</time>
      </trkpt>
      <trkpt lat="45.94158" lon="4.81555">
        <ele>256.600006104</ele>
        <time>2015-07-06T10:20:06.993Z</time>
      </trkpt>
      <trkpt lat="45.94156" lon="4.81543">
        <ele>256.399993896</ele>
        <time>2015-07-06T10:20:07.994Z</time>
      </trkpt>
      <trkpt lat="45.94156" lon="4.8153">
        <ele>256.299987793</ele>
        <time>2015-07-06T10:20:08.997Z</time>
      </trkpt>
      <trkpt lat="45.94156" lon="4.81518">
        <ele>256.100006104</ele>
        <time>2015-07-06T10:20:09.993Z</time>
      </trkpt>
      <trkpt lat="45.94156" lon="4.81507">
        <ele>255.899993896</ele>
        <time>2015-07-06T10:20:10.984Z</time>
      </trkpt>
      <trkpt lat="45.94157" lon="4.81495">
        <ele>255.800003052</ele>
        <time>2015-07-06T10:20:12.042Z</time>
      </trkpt>
      <trkpt lat="45.94158" lon="4.81482">
        <ele>255.600006104</ele>
        <time>2015-07-06T10:20:12.993Z</time>
      </trkpt>
      <trkpt lat="45.9416" lon="4.8147">
        <ele>255.5</ele>
        <time>2015-07-06T10:20:13.998Z</time>
      </trkpt>
      <trkpt lat="45.94161" lon="4.81456">
        <ele>255.199996948</ele>
        <time>2015-07-06T10:20:14.993Z</time>
      </trkpt>
      <trkpt lat="45.94163" lon="4.81442">
        <ele>255</ele>
        <time>2015-07-06T10:20:15.993Z</time>
      </trkpt>
      <trkpt lat="45.94164" lon="4.81427">
        <ele>254.899993896</ele>
        <time>2015-07-06T10:20:16.993Z</time>
      </trkpt>
      <trkpt lat="45.94165" lon="4.81412">
        <ele>254.800003052</ele>
        <time>2015-07-06T10:20:17.995Z</time>
      </trkpt>
      <trkpt lat="45.94166" lon="4.814">
        <ele>254.600006104</ele>
        <time>2015-07-06T10:20:18.993Z</time>
      </trkpt>
      <trkpt lat="45.9417" lon="4.81387">
        <ele>254.300003052</ele>
        <time>2015-07-06T10:20:20.01Z</time>
      </trkpt>
      <trkpt lat="45.94173" lon="4.81373">
        <ele>254.300003052</ele>
        <time>2015-07-06T10:20:20.993Z</time>
      </trkpt>
      <trkpt lat="45.94175" lon="4.81359">
        <ele>254.100006104</ele>
        <time>2015-07-06T10:20:21.996Z</time>
      </trkpt>
      <trkpt lat="45.94176" lon="4.81346">
        <ele>253.899993896</ele>
        <time>2015-07-06T10:20:22.993Z</time>
      </trkpt>
      <trkpt lat="45.94176" lon="4.81332">
        <ele>253.699996948</ele>
        <time>2015-07-06T10:20:23.999Z</time>
      </trkpt>
      <trkpt lat="45.94177" lon="4.81318">
        <ele>253.5</ele>
        <time>2015-07-06T10:20:24.993Z</time>
      </trkpt>
      <trkpt lat="45.94177" lon="4.81305">
        <ele>253.399993896</ele>
        <time>2015-07-06T10:20:25.994Z</time>
      </trkpt>
      <trkpt lat="45.94176" lon="4.81292">
        <ele>253.199996948</ele>
        <time>2015-07-06T10:20:26.997Z</time>
      </trkpt>
      <trkpt lat="45.94173" lon="4.81275">
        <ele>253.300003052</ele>
        <time>2015-07-06T10:20:27.994Z</time>
      </trkpt>
      <trkpt lat="45.94171" lon="4.81261">
        <ele>253.100006104</ele>
        <time>2015-07-06T10:20:28.997Z</time>
      </trkpt>
      <trkpt lat="45.94169" lon="4.81247">
        <ele>252.899993896</ele>
        <time>2015-07-06T10:20:29.998Z</time>
      </trkpt>
      <trkpt lat="45.94167" lon="4.81234">
        <ele>252.600006104</ele>
        <time>2015-07-06T10:20:31.032Z</time>
      </trkpt>
      <trkpt lat="45.94165" lon="4.81221">
        <ele>252.300003052</ele>
        <time>2015-07-06T10:20:31.998Z</time>
      </trkpt>
      <trkpt lat="45.94162" lon="4.81209">
        <ele>251.800003052</ele>
        <time>2015-07-06T10:20:32.997Z</time>
      </trkpt>
      <trkpt lat="45.94161" lon="4.81197">
        <ele>251.199996948</ele>
        <time>2015-07-06T10:20:33.993Z</time>
      </trkpt>
      <trkpt lat="45.94159" lon="4.81184">
        <ele>250.800003052</ele>
        <time>2015-07-06T10:20:34.997Z</time>
      </trkpt>
      <trkpt lat="45.94155" lon="4.81172">
        <ele>250.5</ele>
        <time>2015-07-06T10:20:35.995Z</time>
      </trkpt>
      <trkpt lat="45.94149" lon="4.81158">
        <ele>250.199996948</ele>
        <time>2015-07-06T10:20:36.995Z</time>
      </trkpt>
      <trkpt lat="45.94143" lon="4.81145">
        <ele>249.699996948</ele>
        <time>2015-07-06T10:20:37.998Z</time>
      </trkpt>
      <trkpt lat="45.94136" lon="4.81133">
        <ele>249.399993896</ele>
        <time>2015-07-06T10:20:38.997Z</time>
      </trkpt>
      <trkpt lat="45.9413" lon="4.81121">
        <ele>249.100006104</ele>
        <time>2015-07-06T10:20:39.993Z</time>
      </trkpt>
      <trkpt lat="45.94123" lon="4.81109">
        <ele>248.600006104</ele>
        <time>2015-07-06T10:20:41.011Z</time>
      </trkpt>
      <trkpt lat="45.94116" lon="4.81097">
        <ele>248.300003052</ele>
        <time>2015-07-06T10:20:41.995Z</time>
      </trkpt>
      <trkpt lat="45.9411" lon="4.81085">
        <ele>248</ele>
        <time>2015-07-06T10:20:43.007Z</time>
      </trkpt>
      <trkpt lat="45.94103" lon="4.81074">
        <ele>247.699996948</ele>
        <time>2015-07-06T10:20:43.994Z</time>
      </trkpt>
      <trkpt lat="45.94096" lon="4.81062">
        <ele>247.300003052</ele>
        <time>2015-07-06T10:20:44.993Z</time>
      </trkpt>
      <trkpt lat="45.9409" lon="4.81049">
        <ele>246.800003052</ele>
        <time>2015-07-06T10:20:45.992Z</time>
      </trkpt>
      <trkpt lat="45.94086" lon="4.81031">
        <ele>246.5</ele>
        <time>2015-07-06T10:20:46.992Z</time>
      </trkpt>
      <trkpt lat="45.94078" lon="4.81019">
        <ele>246.399993896</ele>
        <time>2015-07-06T10:20:47.999Z</time>
      </trkpt>
      <trkpt lat="45.94061" lon="4.81015">
        <ele>247.800003052</ele>
        <time>2015-07-06T10:20:48.994Z</time>
      </trkpt>
      <trkpt lat="45.94013" lon="4.80985">
        <ele>246.699996948</ele>
        <time>2015-07-06T10:20:49.995Z</time>
      </trkpt>
      <trkpt lat="45.94001" lon="4.80967">
        <ele>244.800003052</ele>
        <time>2015-07-06T10:20:50.994Z</time>
      </trkpt>
      <trkpt lat="45.93997" lon="4.80951">
        <ele>242.600006104</ele>
        <time>2015-07-06T10:20:51.994Z</time>
      </trkpt>
      <trkpt lat="45.93995" lon="4.80935">
        <ele>240.199996948</ele>
        <time>2015-07-06T10:20:52.995Z</time>
      </trkpt>
      <trkpt lat="45.93995" lon="4.80918">
        <ele>237.899993896</ele>
        <time>2015-07-06T10:20:53.996Z</time>
      </trkpt>
      <trkpt lat="45.93997" lon="4.80905">
        <ele>234.399993896</ele>
        <time>2015-07-06T10:20:54.994Z</time>
      </trkpt>
      <trkpt lat="45.94001" lon="4.80892">
        <ele>232.5</ele>
        <time>2015-07-06T10:20:56.017Z</time>
      </trkpt>
      <trkpt lat="45.94007" lon="4.80879">
        <ele>230.199996948</ele>
        <time>2015-07-06T10:20:56.995Z</time>
      </trkpt>
      <trkpt lat="45.94012" lon="4.80866">
        <ele>228.399993896</ele>
        <time>2015-07-06T10:20:57.994Z</time>
      </trkpt>
      <trkpt lat="45.94017" lon="4.80853">
        <ele>225.600006104</ele>
        <time>2015-07-06T10:20:58.994Z</time>
      </trkpt>
      <trkpt lat="45.94021" lon="4.80839">
        <ele>222.199996948</ele>
        <time>2015-07-06T10:20:59.995Z</time>
      </trkpt>
      <trkpt lat="45.94025" lon="4.80825">
        <ele>222.199996948</ele>
        <time>2015-07-06T10:21:00.997Z</time>
      </trkpt>
      <trkpt lat="45.94025" lon="4.8081">
        <ele>218.600006104</ele>
        <time>2015-07-06T10:21:01.993Z</time>
      </trkpt>
      <trkpt lat="45.94026" lon="4.80796">
        <ele>214.899993896</ele>
        <time>2015-07-06T10:21:03.03Z</time>
      </trkpt>
      <trkpt lat="45.94034" lon="4.80779">
        <ele>212</ele>
        <time>2015-07-06T10:21:03.993Z</time>
      </trkpt>
      <trkpt lat="45.94044" lon="4.80764">
        <ele>204.800003052</ele>
        <time>2015-07-06T10:21:04.997Z</time>
      </trkpt>
      <trkpt lat="45.94048" lon="4.80749">
        <ele>199.899993896</ele>
        <time>2015-07-06T10:21:06.016Z</time>
      </trkpt>
      <trkpt lat="45.94047" lon="4.80734">
        <ele>198.100006104</ele>
        <time>2015-07-06T10:21:07.085Z</time>
      </trkpt>
      <trkpt lat="45.94044" lon="4.80717">
        <ele>194</ele>
        <time>2015-07-06T10:21:08.172Z</time>
      </trkpt>
      <trkpt lat="45.94041" lon="4.80702">
        <ele>191.399993896</ele>
        <time>2015-07-06T10:21:09.002Z</time>
      </trkpt>
      <trkpt lat="45.9404" lon="4.80687">
        <ele>188.300003052</ele>
        <time>2015-07-06T10:21:09.995Z</time>
      </trkpt>
      <trkpt lat="45.94038" lon="4.80673">
        <ele>188.199996948</ele>
        <time>2015-07-06T10:21:10.997Z</time>
      </trkpt>
      <trkpt lat="45.94035" lon="4.80659">
        <ele>191.600006104</ele>
        <time>2015-07-06T10:21:12.053Z</time>
      </trkpt>
      <trkpt lat="45.94034" lon="4.80644">
        <ele>190.199996948</ele>
        <time>2015-07-06T10:21:12.997Z</time>
      </trkpt>
      <trkpt lat="45.94034" lon="4.8063">
        <ele>191.699996948</ele>
        <time>2015-07-06T10:21:13.995Z</time>
      </trkpt>
      <trkpt lat="45.94025" lon="4.8061">
        <ele>188.300003052</ele>
        <time>2015-07-06T10:21:14.996Z</time>
      </trkpt>
      <trkpt lat="45.94018" lon="4.80593">
        <ele>186.300003052</ele>
        <time>2015-07-06T10:21:15.997Z</time>
      </trkpt>
      <trkpt lat="45.94015" lon="4.80576">
        <ele>184.399993896</ele>
        <time>2015-07-06T10:21:16.994Z</time>
      </trkpt>
      <trkpt lat="45.94013" lon="4.8056">
        <ele>182.199996948</ele>
        <time>2015-07-06T10:21:17.995Z</time>
      </trkpt>
      <trkpt lat="45.94012" lon="4.80545">
        <ele>181.5</ele>
        <time>2015-07-06T10:21:19.001Z</time>
      </trkpt>
      <trkpt lat="45.94012" lon="4.8053">
        <ele>181.899993896</ele>
        <time>2015-07-06T10:21:19.998Z</time>
      </trkpt>
      <trkpt lat="45.94013" lon="4.80514">
        <ele>182.800003052</ele>
        <time>2015-07-06T10:21:20.993Z</time>
      </trkpt>
      <trkpt lat="45.94014" lon="4.805">
        <ele>184.5</ele>
        <time>2015-07-06T10:21:21.995Z</time>
      </trkpt>
      <trkpt lat="45.94015" lon="4.80486">
        <ele>185.300003052</ele>
        <time>2015-07-06T10:21:23.009Z</time>
      </trkpt>
      <trkpt lat="45.94015" lon="4.80471">
        <ele>184.699996948</ele>
        <time>2015-07-06T10:21:23.995Z</time>
      </trkpt>
      <trkpt lat="45.94015" lon="4.80456">
        <ele>185.100006104</ele>
        <time>2015-07-06T10:21:24.992Z</time>
      </trkpt>
      <trkpt lat="45.94013" lon="4.8044">
        <ele>185.300003052</ele>
        <time>2015-07-06T10:21:25.998Z</time>
      </trkpt>
      <trkpt lat="45.94013" lon="4.80425">
        <ele>185.600006104</ele>
        <time>2015-07-06T10:21:26.995Z</time>
      </trkpt>
      <trkpt lat="45.94012" lon="4.80411">
        <ele>187</ele>
        <time>2015-07-06T10:21:27.993Z</time>
      </trkpt>
      <trkpt lat="45.9401" lon="4.80396">
        <ele>185.600006104</ele>
        <time>2015-07-06T10:21:29.035Z</time>
      </trkpt>
      <trkpt lat="45.94006" lon="4.80382">
        <ele>187.399993896</ele>
        <time>2015-07-06T10:21:29.995Z</time>
      </trkpt>
      <trkpt lat="45.94003" lon="4.80369">
        <ele>186.800003052</ele>
        <time>2015-07-06T10:21:30.993Z</time>
      </trkpt>
      <trkpt lat="45.93999" lon="4.80356">
        <ele>188.699996948</ele>
        <time>2015-07-06T10:21:31.994Z</time>
      </trkpt>
      <trkpt lat="45.93995" lon="4.80341">
        <ele>187.399993896</ele>
        <time>2015-07-06T10:21:33.026Z</time>
      </trkpt>
      <trkpt lat="45.93991" lon="4.80328">
        <ele>191</ele>
        <time>2015-07-06T10:21:33.997Z</time>
      </trkpt>
      <trkpt lat="45.93986" lon="4.80311">
        <ele>189.600006104</ele>
        <time>2015-07-06T10:21:34.997Z</time>
      </trkpt>
      <trkpt lat="45.93981" lon="4.80296">
        <ele>191.100006104</ele>
        <time>2015-07-06T10:21:35.999Z</time>
      </trkpt>
      <trkpt lat="45.93976" lon="4.80281">
        <ele>191.5</ele>
        <time>2015-07-06T10:21:36.994Z</time>
      </trkpt>
      <trkpt lat="45.93971" lon="4.80266">
        <ele>191.399993896</ele>
        <time>2015-07-06T10:21:38.042Z</time>
      </trkpt>
      <trkpt lat="45.93966" lon="4.80252">
        <ele>192.699996948</ele>
        <time>2015-07-06T10:21:39.007Z</time>
      </trkpt>
      <trkpt lat="45.93962" lon="4.80238">
        <ele>192.800003052</ele>
        <time>2015-07-06T10:21:39.993Z</time>
      </trkpt>
      <trkpt lat="45.93959" lon="4.80223">
        <ele>191.899993896</ele>
        <time>2015-07-06T10:21:40.997Z</time>
      </trkpt>
      <trkpt lat="45.93955" lon="4.80209">
        <ele>190.5</ele>
        <time>2015-07-06T10:21:41.995Z</time>
      </trkpt>
      <trkpt lat="45.93952" lon="4.80195">
        <ele>191.199996948</ele>
        <time>2015-07-06T10:21:42.993Z</time>
      </trkpt>
      <trkpt lat="45.93949" lon="4.80182">
        <ele>192.100006104</ele>
        <time>2015-07-06T10:21:43.994Z</time>
      </trkpt>
      <trkpt lat="45.93947" lon="4.80168">
        <ele>191.5</ele>
        <time>2015-07-06T10:21:45.001Z</time>
      </trkpt>
      <trkpt lat="45.93944" lon="4.80156">
        <ele>192.399993896</ele>
        <time>2015-07-06T10:21:45.997Z</time>
      </trkpt>
      <trkpt lat="45.93943" lon="4.80143">
        <ele>191.899993896</ele>
        <time>2015-07-06T10:21:46.995Z</time>
      </trkpt>
      <trkpt lat="45.93941" lon="4.80131">
        <ele>191.800003052</ele>
        <time>2015-07-06T10:21:47.996Z</time>
      </trkpt>
      <trkpt lat="45.9394" lon="4.80118">
        <ele>191.899993896</ele>
        <time>2015-07-06T10:21:48.993Z</time>
      </trkpt>
      <trkpt lat="45.9394" lon="4.80105">
        <ele>192.300003052</ele>
        <time>2015-07-06T10:21:50.019Z</time>
      </trkpt>
      <trkpt lat="45.93939" lon="4.80093">
        <ele>192.399993896</ele>
        <time>2015-07-06T10:21:50.993Z</time>
      </trkpt>
      <trkpt lat="45.93939" lon="4.80081">
        <ele>192.100006104</ele>
        <time>2015-07-06T10:21:51.997Z</time>
      </trkpt>
      <trkpt lat="45.93939" lon="4.80069">
        <ele>192.199996948</ele>
        <time>2015-07-06T10:21:52.995Z</time>
      </trkpt>
      <trkpt lat="45.93939" lon="4.80057">
        <ele>192.100006104</ele>
        <time>2015-07-06T10:21:53.999Z</time>
      </trkpt>
      <trkpt lat="45.9394" lon="4.80046">
        <ele>192</ele>
        <time>2015-07-06T10:21:55.01Z</time>
      </trkpt>
      <trkpt lat="45.93941" lon="4.80035">
        <ele>191.899993896</ele>
        <time>2015-07-06T10:21:55.994Z</time>
      </trkpt>
      <trkpt lat="45.93944" lon="4.80026">
        <ele>192.300003052</ele>
        <time>2015-07-06T10:21:56.995Z</time>
      </trkpt>
      <trkpt lat="45.93946" lon="4.80015">
        <ele>192.699996948</ele>
        <time>2015-07-06T10:21:57.997Z</time>
      </trkpt>
      <trkpt lat="45.93948" lon="4.80003">
        <ele>192.899993896</ele>
        <time>2015-07-06T10:21:58.994Z</time>
      </trkpt>
      <trkpt lat="45.9395" lon="4.79992">
        <ele>192.800003052</ele>
        <time>2015-07-06T10:21:59.994Z</time>
      </trkpt>
      <trkpt lat="45.93952" lon="4.79981">
        <ele>193.100006104</ele>
        <time>2015-07-06T10:22:00.993Z</time>
      </trkpt>
      <trkpt lat="45.93953" lon="4.7997">
        <ele>193.100006104</ele>
        <time>2015-07-06T10:22:01.994Z</time>
      </trkpt>
      <trkpt lat="45.93954" lon="4.79959">
        <ele>193</ele>
        <time>2015-07-06T10:22:02.993Z</time>
      </trkpt>
      <trkpt lat="45.93953" lon="4.79947">
        <ele>194</ele>
        <time>2015-07-06T10:22:03.993Z</time>
      </trkpt>
      <trkpt lat="45.93955" lon="4.79936">
        <ele>193.899993896</ele>
        <time>2015-07-06T10:22:04.994Z</time>
      </trkpt>
      <trkpt lat="45.93957" lon="4.79925">
        <ele>194</ele>
        <time>2015-07-06T10:22:05.995Z</time>
      </trkpt>
      <trkpt lat="45.93959" lon="4.79914">
        <ele>194.100006104</ele>
        <time>2015-07-06T10:22:06.994Z</time>
      </trkpt>
      <trkpt lat="45.9396" lon="4.79903">
        <ele>194</ele>
        <time>2015-07-06T10:22:07.995Z</time>
      </trkpt>
      <trkpt lat="45.93961" lon="4.79892">
        <ele>194</ele>
        <time>2015-07-06T10:22:08.996Z</time>
      </trkpt>
      <trkpt lat="45.93963" lon="4.79882">
        <ele>193.899993896</ele>
        <time>2015-07-06T10:22:09.994Z</time>
      </trkpt>
      <trkpt lat="45.93965" lon="4.79872">
        <ele>194.100006104</ele>
        <time>2015-07-06T10:22:10.999Z</time>
      </trkpt>
      <trkpt lat="45.93965" lon="4.79862">
        <ele>194.5</ele>
        <time>2015-07-06T10:22:12Z</time>
      </trkpt>
      <trkpt lat="45.93968" lon="4.79852">
        <ele>194.300003052</ele>
        <time>2015-07-06T10:22:13.032Z</time>
      </trkpt>
      <trkpt lat="45.9397" lon="4.79843">
        <ele>194.300003052</ele>
        <time>2015-07-06T10:22:13.994Z</time>
      </trkpt>
      <trkpt lat="45.93971" lon="4.79833">
        <ele>194.5</ele>
        <time>2015-07-06T10:22:14.995Z</time>
      </trkpt>
      <trkpt lat="45.93972" lon="4.79824">
        <ele>194.600006104</ele>
        <time>2015-07-06T10:22:16.012Z</time>
      </trkpt>
      <trkpt lat="45.93973" lon="4.79815">
        <ele>194.899993896</ele>
        <time>2015-07-06T10:22:16.995Z</time>
      </trkpt>
      <trkpt lat="45.93974" lon="4.79805">
        <ele>194.800003052</ele>
        <time>2015-07-06T10:22:17.996Z</time>
      </trkpt>
      <trkpt lat="45.93976" lon="4.79796">
        <ele>195</ele>
        <time>2015-07-06T10:22:18.995Z</time>
      </trkpt>
      <trkpt lat="45.93976" lon="4.79787">
        <ele>195.199996948</ele>
        <time>2015-07-06T10:22:19.994Z</time>
      </trkpt>
      <trkpt lat="45.93977" lon="4.79777">
        <ele>195.399993896</ele>
        <time>2015-07-06T10:22:20.993Z</time>
      </trkpt>
      <trkpt lat="45.93976" lon="4.79768">
        <ele>195.600006104</ele>
        <time>2015-07-06T10:22:21.995Z</time>
      </trkpt>
      <trkpt lat="45.93976" lon="4.79759">
        <ele>195.5</ele>
        <time>2015-07-06T10:22:22.993Z</time>
      </trkpt>
      <trkpt lat="45.93975" lon="4.79749">
        <ele>195.399993896</ele>
        <time>2015-07-06T10:22:23.996Z</time>
      </trkpt>
      <trkpt lat="45.93974" lon="4.7974">
        <ele>195.5</ele>
        <time>2015-07-06T10:22:25.052Z</time>
      </trkpt>
      <trkpt lat="45.93973" lon="4.79731">
        <ele>195.5</ele>
        <time>2015-07-06T10:22:25.994Z</time>
      </trkpt>
      <trkpt lat="45.93972" lon="4.79721">
        <ele>195.699996948</ele>
        <time>2015-07-06T10:22:26.994Z</time>
      </trkpt>
      <trkpt lat="45.9397" lon="4.79712">
        <ele>195.800003052</ele>
        <time>2015-07-06T10:22:27.993Z</time>
      </trkpt>
      <trkpt lat="45.93969" lon="4.79703">
        <ele>195.899993896</ele>
        <time>2015-07-06T10:22:28.993Z</time>
      </trkpt>
      <trkpt lat="45.93968" lon="4.79693">
        <ele>196</ele>
        <time>2015-07-06T10:22:29.998Z</time>
      </trkpt>
      <trkpt lat="45.93967" lon="4.79683">
        <ele>195.699996948</ele>
        <time>2015-07-06T10:22:30.993Z</time>
      </trkpt>
      <trkpt lat="45.93967" lon="4.79673">
        <ele>195.600006104</ele>
        <time>2015-07-06T10:22:32.012Z</time>
      </trkpt>
      <trkpt lat="45.93966" lon="4.79663">
        <ele>195.800003052</ele>
        <time>2015-07-06T10:22:33.036Z</time>
      </trkpt>
      <trkpt lat="45.93966" lon="4.79654">
        <ele>196.100006104</ele>
        <time>2015-07-06T10:22:33.992Z</time>
      </trkpt>
      <trkpt lat="45.93965" lon="4.79645">
        <ele>196.300003052</ele>
        <time>2015-07-06T10:22:34.994Z</time>
      </trkpt>
      <trkpt lat="45.93964" lon="4.79635">
        <ele>196.600006104</ele>
        <time>2015-07-06T10:22:35.998Z</time>
      </trkpt>
      <trkpt lat="45.93964" lon="4.79626">
        <ele>196.600006104</ele>
        <time>2015-07-06T10:22:37Z</time>
      </trkpt>
      <trkpt lat="45.93963" lon="4.79617">
        <ele>196.699996948</ele>
        <time>2015-07-06T10:22:37.997Z</time>
      </trkpt>
      <trkpt lat="45.93962" lon="4.79606">
        <ele>196.899993896</ele>
        <time>2015-07-06T10:22:38.992Z</time>
      </trkpt>
      <trkpt lat="45.93961" lon="4.79597">
        <ele>197.100006104</ele>
        <time>2015-07-06T10:22:39.996Z</time>
      </trkpt>
      <trkpt lat="45.93961" lon="4.79587">
        <ele>197.300003052</ele>
        <time>2015-07-06T10:22:40.992Z</time>
      </trkpt>
      <trkpt lat="45.9396" lon="4.79577">
        <ele>197.5</ele>
        <time>2015-07-06T10:22:41.996Z</time>
      </trkpt>
      <trkpt lat="45.93959" lon="4.79567">
        <ele>197.5</ele>
        <time>2015-07-06T10:22:42.996Z</time>
      </trkpt>
      <trkpt lat="45.93958" lon="4.79557">
        <ele>197.5</ele>
        <time>2015-07-06T10:22:44.018Z</time>
      </trkpt>
      <trkpt lat="45.93957" lon="4.79546">
        <ele>197.5</ele>
        <time>2015-07-06T10:22:44.994Z</time>
      </trkpt>
      <trkpt lat="45.93956" lon="4.79536">
        <ele>197.600006104</ele>
        <time>2015-07-06T10:22:45.992Z</time>
      </trkpt>
      <trkpt lat="45.93956" lon="4.79525">
        <ele>197.600006104</ele>
        <time>2015-07-06T10:22:46.992Z</time>
      </trkpt>
      <trkpt lat="45.93956" lon="4.79515">
        <ele>197.699996948</ele>
        <time>2015-07-06T10:22:48.011Z</time>
      </trkpt>
      <trkpt lat="45.93957" lon="4.79505">
        <ele>197.600006104</ele>
        <time>2015-07-06T10:22:48.992Z</time>
      </trkpt>
      <trkpt lat="45.93959" lon="4.79493">
        <ele>197.100006104</ele>
        <time>2015-07-06T10:22:49.993Z</time>
      </trkpt>
      <trkpt lat="45.93959" lon="4.79483">
        <ele>197.600006104</ele>
        <time>2015-07-06T10:22:50.994Z</time>
      </trkpt>
      <trkpt lat="45.93959" lon="4.79471">
        <ele>198.100006104</ele>
        <time>2015-07-06T10:22:51.992Z</time>
      </trkpt>
      <trkpt lat="45.93959" lon="4.7946">
        <ele>198.300003052</ele>
        <time>2015-07-06T10:22:52.994Z</time>
      </trkpt>
      <trkpt lat="45.9396" lon="4.79449">
        <ele>198.5</ele>
        <time>2015-07-06T10:22:53.998Z</time>
      </trkpt>
      <trkpt lat="45.93959" lon="4.79438">
        <ele>198.699996948</ele>
        <time>2015-07-06T10:22:54.992Z</time>
      </trkpt>
      <trkpt lat="45.93958" lon="4.79426">
        <ele>199</ele>
        <time>2015-07-06T10:22:55.993Z</time>
      </trkpt>
      <trkpt lat="45.93958" lon="4.79415">
        <ele>199.100006104</ele>
        <time>2015-07-06T10:22:56.994Z</time>
      </trkpt>
      <trkpt lat="45.93958" lon="4.79404">
        <ele>199.199996948</ele>
        <time>2015-07-06T10:22:57.992Z</time>
      </trkpt>
      <trkpt lat="45.93961" lon="4.79393">
        <ele>199.300003052</ele>
        <time>2015-07-06T10:22:58.992Z</time>
      </trkpt>
      <trkpt lat="45.93961" lon="4.79382">
        <ele>199.199996948</ele>
        <time>2015-07-06T10:23:00.063Z</time>
      </trkpt>
      <trkpt lat="45.93962" lon="4.79371">
        <ele>199</ele>
        <time>2015-07-06T10:23:00.993Z</time>
      </trkpt>
      <trkpt lat="45.93962" lon="4.79359">
        <ele>199</ele>
        <time>2015-07-06T10:23:01.993Z</time>
      </trkpt>
      <trkpt lat="45.93961" lon="4.79347">
        <ele>199</ele>
        <time>2015-07-06T10:23:02.996Z</time>
      </trkpt>
      <trkpt lat="45.93961" lon="4.79336">
        <ele>199</ele>
        <time>2015-07-06T10:23:04.015Z</time>
      </trkpt>
      <trkpt lat="45.93963" lon="4.79324">
        <ele>198.699996948</ele>
        <time>2015-07-06T10:23:04.992Z</time>
      </trkpt>
      <trkpt lat="45.93962" lon="4.79312">
        <ele>198.300003052</ele>
        <time>2015-07-06T10:23:05.998Z</time>
      </trkpt>
      <trkpt lat="45.93957" lon="4.79298">
        <ele>197.899993896</ele>
        <time>2015-07-06T10:23:06.992Z</time>
      </trkpt>
      <trkpt lat="45.93956" lon="4.79286">
        <ele>197.600006104</ele>
        <time>2015-07-06T10:23:07.995Z</time>
      </trkpt>
      <trkpt lat="45.93955" lon="4.79274">
        <ele>197</ele>
        <time>2015-07-06T10:23:08.996Z</time>
      </trkpt>
      <trkpt lat="45.93954" lon="4.79263">
        <ele>196.199996948</ele>
        <time>2015-07-06T10:23:09.994Z</time>
      </trkpt>
      <trkpt lat="45.93953" lon="4.79253">
        <ele>196</ele>
        <time>2015-07-06T10:23:10.992Z</time>
      </trkpt>
      <trkpt lat="45.93953" lon="4.79243">
        <ele>195.899993896</ele>
        <time>2015-07-06T10:23:11.994Z</time>
      </trkpt>
      <trkpt lat="45.93952" lon="4.79233">
        <ele>195.699996948</ele>
        <time>2015-07-06T10:23:12.992Z</time>
      </trkpt>
      <trkpt lat="45.93952" lon="4.79222">
        <ele>195.800003052</ele>
        <time>2015-07-06T10:23:13.997Z</time>
      </trkpt>
      <trkpt lat="45.93952" lon="4.79212">
        <ele>195.699996948</ele>
        <time>2015-07-06T10:23:14.996Z</time>
      </trkpt>
      <trkpt lat="45.93952" lon="4.79202">
        <ele>196</ele>
        <time>2015-07-06T10:23:15.996Z</time>
      </trkpt>
      <trkpt lat="45.93952" lon="4.79192">
        <ele>196.100006104</ele>
        <time>2015-07-06T10:23:16.992Z</time>
      </trkpt>
      <trkpt lat="45.93952" lon="4.79182">
        <ele>195.899993896</ele>
        <time>2015-07-06T10:23:17.994Z</time>
      </trkpt>
      <trkpt lat="45.93953" lon="4.79173">
        <ele>195.899993896</ele>
        <time>2015-07-06T10:23:18.992Z</time>
      </trkpt>
      <trkpt lat="45.93953" lon="4.79164">
        <ele>195.699996948</ele>
        <time>2015-07-06T10:23:20.05Z</time>
      </trkpt>
      <trkpt lat="45.93952" lon="4.79156">
        <ele>194.899993896</ele>
        <time>2015-07-06T10:23:21.496Z</time>
      </trkpt>
      <trkpt lat="45.93951" lon="4.79148">
        <ele>200.5</ele>
        <time>2015-07-06T10:23:22.187Z</time>
      </trkpt>
      <trkpt lat="45.9395" lon="4.79138">
        <ele>201.300003052</ele>
        <time>2015-07-06T10:23:22.994Z</time>
      </trkpt>
      <trkpt lat="45.93949" lon="4.79128">
        <ele>201.899993896</ele>
        <time>2015-07-06T10:23:24.038Z</time>
      </trkpt>
      <trkpt lat="45.93948" lon="4.79117">
        <ele>201.600006104</ele>
        <time>2015-07-06T10:23:25.009Z</time>
      </trkpt>
      <trkpt lat="45.93949" lon="4.79106">
        <ele>202.100006104</ele>
        <time>2015-07-06T10:23:25.997Z</time>
      </trkpt>
      <trkpt lat="45.93949" lon="4.79095">
        <ele>202.300003052</ele>
        <time>2015-07-06T10:23:26.991Z</time>
      </trkpt>
      <trkpt lat="45.93949" lon="4.79084">
        <ele>202.199996948</ele>
        <time>2015-07-06T10:23:27.992Z</time>
      </trkpt>
      <trkpt lat="45.93949" lon="4.79073">
        <ele>202.300003052</ele>
        <time>2015-07-06T10:23:28.995Z</time>
      </trkpt>
      <trkpt lat="45.9395" lon="4.79063">
        <ele>202.100006104</ele>
        <time>2015-07-06T10:23:29.992Z</time>
      </trkpt>
      <trkpt lat="45.93951" lon="4.79053">
        <ele>202.100006104</ele>
        <time>2015-07-06T10:23:30.996Z</time>
      </trkpt>
      <trkpt lat="45.93951" lon="4.79042">
        <ele>201.699996948</ele>
        <time>2015-07-06T10:23:31.992Z</time>
      </trkpt>
      <trkpt lat="45.9395" lon="4.7903">
        <ele>201.399993896</ele>
        <time>2015-07-06T10:23:32.993Z</time>
      </trkpt>
      <trkpt lat="45.93946" lon="4.79018">
        <ele>201.5</ele>
        <time>2015-07-06T10:23:33.991Z</time>
      </trkpt>
      <trkpt lat="45.93944" lon="4.79006">
        <ele>201.5</ele>
        <time>2015-07-06T10:23:34.993Z</time>
      </trkpt>
      <trkpt lat="45.93944" lon="4.78994">
        <ele>201.300003052</ele>
        <time>2015-07-06T10:23:36.022Z</time>
      </trkpt>
      <trkpt lat="45.93943" lon="4.78982">
        <ele>200.899993896</ele>
        <time>2015-07-06T10:23:36.993Z</time>
      </trkpt>
      <trkpt lat="45.93943" lon="4.7897">
        <ele>200.699996948</ele>
        <time>2015-07-06T10:23:38.014Z</time>
      </trkpt>
      <trkpt lat="45.93943" lon="4.78958">
        <ele>200.399993896</ele>
        <time>2015-07-06T10:23:38.994Z</time>
      </trkpt>
      <trkpt lat="45.93942" lon="4.78947">
        <ele>200.100006104</ele>
        <time>2015-07-06T10:23:39.992Z</time>
      </trkpt>
      <trkpt lat="45.93942" lon="4.78935">
        <ele>199.800003052</ele>
        <time>2015-07-06T10:23:40.991Z</time>
      </trkpt>
      <trkpt lat="45.93941" lon="4.78924">
        <ele>199.300003052</ele>
        <time>2015-07-06T10:23:41.993Z</time>
      </trkpt>
      <trkpt lat="45.93941" lon="4.78913">
        <ele>199.399993896</ele>
        <time>2015-07-06T10:23:42.993Z</time>
      </trkpt>
      <trkpt lat="45.93941" lon="4.78902">
        <ele>199.100006104</ele>
        <time>2015-07-06T10:23:43.993Z</time>
      </trkpt>
      <trkpt lat="45.93941" lon="4.78891">
        <ele>199.100006104</ele>
        <time>2015-07-06T10:23:44.992Z</time>
      </trkpt>
      <trkpt lat="45.9394" lon="4.7888">
        <ele>198.800003052</ele>
        <time>2015-07-06T10:23:45.995Z</time>
      </trkpt>
      <trkpt lat="45.9394" lon="4.78869">
        <ele>198.699996948</ele>
        <time>2015-07-06T10:23:47.007Z</time>
      </trkpt>
      <trkpt lat="45.93939" lon="4.78857">
        <ele>198.199996948</ele>
        <time>2015-07-06T10:23:47.992Z</time>
      </trkpt>
      <trkpt lat="45.93939" lon="4.78846">
        <ele>197.800003052</ele>
        <time>2015-07-06T10:23:48.991Z</time>
      </trkpt>
      <trkpt lat="45.9394" lon="4.78835">
        <ele>197.899993896</ele>
        <time>2015-07-06T10:23:50.032Z</time>
      </trkpt>
      <trkpt lat="45.9394" lon="4.78824">
        <ele>197.800003052</ele>
        <time>2015-07-06T10:23:50.991Z</time>
      </trkpt>
      <trkpt lat="45.9394" lon="4.78813">
        <ele>198</ele>
        <time>2015-07-06T10:23:51.999Z</time>
      </trkpt>
      <trkpt lat="45.9394" lon="4.78803">
        <ele>197.5</ele>
        <time>2015-07-06T10:23:52.991Z</time>
      </trkpt>
      <trkpt lat="45.93941" lon="4.78793">
        <ele>197.5</ele>
        <time>2015-07-06T10:23:53.992Z</time>
      </trkpt>
      <trkpt lat="45.93942" lon="4.78782">
        <ele>197.100006104</ele>
        <time>2015-07-06T10:23:54.999Z</time>
      </trkpt>
      <trkpt lat="45.93941" lon="4.78772">
        <ele>196.5</ele>
        <time>2015-07-06T10:23:55.992Z</time>
      </trkpt>
      <trkpt lat="45.9394" lon="4.78761">
        <ele>195.800003052</ele>
        <time>2015-07-06T10:23:56.991Z</time>
      </trkpt>
      <trkpt lat="45.9394" lon="4.7875">
        <ele>195.600006104</ele>
        <time>2015-07-06T10:23:57.995Z</time>
      </trkpt>
      <trkpt lat="45.93941" lon="4.7874">
        <ele>195.199996948</ele>
        <time>2015-07-06T10:23:58.992Z</time>
      </trkpt>
      <trkpt lat="45.93942" lon="4.7873">
        <ele>195</ele>
        <time>2015-07-06T10:23:59.997Z</time>
      </trkpt>
      <trkpt lat="45.93944" lon="4.7872">
        <ele>195</ele>
        <time>2015-07-06T10:24:00.992Z</time>
      </trkpt>
      <trkpt lat="45.93944" lon="4.78711">
        <ele>194.800003052</ele>
        <time>2015-07-06T10:24:01.992Z</time>
      </trkpt>
      <trkpt lat="45.93945" lon="4.78702">
        <ele>194.300003052</ele>
        <time>2015-07-06T10:24:02.993Z</time>
      </trkpt>
      <trkpt lat="45.93944" lon="4.78693">
        <ele>194</ele>
        <time>2015-07-06T10:24:03.991Z</time>
      </trkpt>
      <trkpt lat="45.93944" lon="4.78684">
        <ele>193.699996948</ele>
        <time>2015-07-06T10:24:04.993Z</time>
      </trkpt>
      <trkpt lat="45.93941" lon="4.78675">
        <ele>193.899993896</ele>
        <time>2015-07-06T10:24:05.994Z</time>
      </trkpt>
      <trkpt lat="45.9394" lon="4.78667">
        <ele>193.800003052</ele>
        <time>2015-07-06T10:24:06.991Z</time>
      </trkpt>
      <trkpt lat="45.93939" lon="4.78658">
        <ele>193.5</ele>
        <time>2015-07-06T10:24:08.007Z</time>
      </trkpt>
      <trkpt lat="45.93939" lon="4.78649">
        <ele>193.300003052</ele>
        <time>2015-07-06T10:24:08.991Z</time>
      </trkpt>
      <trkpt lat="45.93939" lon="4.78641">
        <ele>193.199996948</ele>
        <time>2015-07-06T10:24:09.991Z</time>
      </trkpt>
      <trkpt lat="45.9394" lon="4.78632">
        <ele>192.600006104</ele>
        <time>2015-07-06T10:24:10.991Z</time>
      </trkpt>
      <trkpt lat="45.9394" lon="4.78624">
        <ele>192.5</ele>
        <time>2015-07-06T10:24:11.992Z</time>
      </trkpt>
      <trkpt lat="45.93941" lon="4.78617">
        <ele>192.100006104</ele>
        <time>2015-07-06T10:24:12.991Z</time>
      </trkpt>
      <trkpt lat="45.93941" lon="4.7861">
        <ele>191.399993896</ele>
        <time>2015-07-06T10:24:13.992Z</time>
      </trkpt>
      <trkpt lat="45.93941" lon="4.78602">
        <ele>190.699996948</ele>
        <time>2015-07-06T10:24:14.991Z</time>
      </trkpt>
      <trkpt lat="45.9394" lon="4.78595">
        <ele>190</ele>
        <time>2015-07-06T10:24:15.995Z</time>
      </trkpt>
      <trkpt lat="45.9394" lon="4.78588">
        <ele>189.300003052</ele>
        <time>2015-07-06T10:24:16.992Z</time>
      </trkpt>
      <trkpt lat="45.9394" lon="4.78581">
        <ele>188.399993896</ele>
        <time>2015-07-06T10:24:17.993Z</time>
      </trkpt>
      <trkpt lat="45.93938" lon="4.78574">
        <ele>187.899993896</ele>
        <time>2015-07-06T10:24:18.994Z</time>
      </trkpt>
      <trkpt lat="45.93938" lon="4.78568">
        <ele>187.699996948</ele>
        <time>2015-07-06T10:24:19.994Z</time>
      </trkpt>
      <trkpt lat="45.93936" lon="4.78556">
        <ele>187.300003052</ele>
        <time>2015-07-06T10:24:21.996Z</time>
      </trkpt>
      <trkpt lat="45.93936" lon="4.78549">
        <ele>187</ele>
        <time>2015-07-06T10:24:22.993Z</time>
      </trkpt>
      <trkpt lat="45.93936" lon="4.78542">
        <ele>187.100006104</ele>
        <time>2015-07-06T10:24:23.999Z</time>
      </trkpt>
      <trkpt lat="45.93936" lon="4.78535">
        <ele>186.899993896</ele>
        <time>2015-07-06T10:24:25.034Z</time>
      </trkpt>
      <trkpt lat="45.93937" lon="4.78528">
        <ele>186.199996948</ele>
        <time>2015-07-06T10:24:26.203Z</time>
      </trkpt>
      <trkpt lat="45.93937" lon="4.78521">
        <ele>186</ele>
        <time>2015-07-06T10:24:27.148Z</time>
      </trkpt>
      <trkpt lat="45.93937" lon="4.78514">
        <ele>185.800003052</ele>
        <time>2015-07-06T10:24:28.003Z</time>
      </trkpt>
      <trkpt lat="45.93936" lon="4.78506">
        <ele>185.300003052</ele>
        <time>2015-07-06T10:24:29.216Z</time>
      </trkpt>
      <trkpt lat="45.93938" lon="4.78494">
        <ele>184.800003052</ele>
        <time>2015-07-06T10:24:31.081Z</time>
      </trkpt>
      <trkpt lat="45.93939" lon="4.78488">
        <ele>184.399993896</ele>
        <time>2015-07-06T10:24:32.02Z</time>
      </trkpt>
      <trkpt lat="45.93943" lon="4.78477">
        <ele>184.699996948</ele>
        <time>2015-07-06T10:24:34.001Z</time>
      </trkpt>
      <trkpt lat="45.93943" lon="4.78471">
        <ele>184.800003052</ele>
        <time>2015-07-06T10:24:34.998Z</time>
      </trkpt>
      <trkpt lat="45.93945" lon="4.78459">
        <ele>185.5</ele>
        <time>2015-07-06T10:24:36.998Z</time>
      </trkpt>
      <trkpt lat="45.93947" lon="4.78453">
        <ele>185.5</ele>
        <time>2015-07-06T10:24:38.033Z</time>
      </trkpt>
      <trkpt lat="45.93947" lon="4.78447">
        <ele>185.399993896</ele>
        <time>2015-07-06T10:24:38.997Z</time>
      </trkpt>
      <trkpt lat="45.93948" lon="4.7844">
        <ele>185.199996948</ele>
        <time>2015-07-06T10:24:39.996Z</time>
      </trkpt>
      <trkpt lat="45.9395" lon="4.78434">
        <ele>185.300003052</ele>
        <time>2015-07-06T10:24:40.994Z</time>
      </trkpt>
      <trkpt lat="45.9395" lon="4.78428">
        <ele>185.399993896</ele>
        <time>2015-07-06T10:24:42.002Z</time>
      </trkpt>
      <trkpt lat="45.93953" lon="4.78421">
        <ele>185.899993896</ele>
        <time>2015-07-06T10:24:42.998Z</time>
      </trkpt>
      <trkpt lat="45.93954" lon="4.78414">
        <ele>186.699996948</ele>
        <time>2015-07-06T10:24:44Z</time>
      </trkpt>
      <trkpt lat="45.93955" lon="4.78407">
        <ele>187</ele>
        <time>2015-07-06T10:24:45.024Z</time>
      </trkpt>
      <trkpt lat="45.93958" lon="4.78401">
        <ele>187.199996948</ele>
        <time>2015-07-06T10:24:45.998Z</time>
      </trkpt>
      <trkpt lat="45.93959" lon="4.78394">
        <ele>187.199996948</ele>
        <time>2015-07-06T10:24:47.003Z</time>
      </trkpt>
      <trkpt lat="45.9396" lon="4.78387">
        <ele>187.199996948</ele>
        <time>2015-07-06T10:24:47.997Z</time>
      </trkpt>
      <trkpt lat="45.93962" lon="4.78381">
        <ele>187.399993896</ele>
        <time>2015-07-06T10:24:48.997Z</time>
      </trkpt>
      <trkpt lat="45.93963" lon="4.78373">
        <ele>187.600006104</ele>
        <time>2015-07-06T10:24:49.998Z</time>
      </trkpt>
      <trkpt lat="45.93964" lon="4.78365">
        <ele>187.5</ele>
        <time>2015-07-06T10:24:50.994Z</time>
      </trkpt>
      <trkpt lat="45.93965" lon="4.78358">
        <ele>187.399993896</ele>
        <time>2015-07-06T10:24:51.997Z</time>
      </trkpt>
      <trkpt lat="45.93966" lon="4.7835">
        <ele>187.399993896</ele>
        <time>2015-07-06T10:24:52.995Z</time>
      </trkpt>
      <trkpt lat="45.93968" lon="4.78342">
        <ele>187.399993896</ele>
        <time>2015-07-06T10:24:54Z</time>
      </trkpt>
      <trkpt lat="45.93968" lon="4.78335">
        <ele>187.199996948</ele>
        <time>2015-07-06T10:24:54.994Z</time>
      </trkpt>
      <trkpt lat="45.93969" lon="4.78328">
        <ele>187.300003052</ele>
        <time>2015-07-06T10:24:55.999Z</time>
      </trkpt>
      <trkpt lat="45.9397" lon="4.78321">
        <ele>187.300003052</ele>
        <time>2015-07-06T10:24:56.998Z</time>
      </trkpt>
      <trkpt lat="45.93972" lon="4.78309">
        <ele>186.899993896</ele>
        <time>2015-07-06T10:24:58.042Z</time>
      </trkpt>
      <trkpt lat="45.93972" lon="4.78302">
        <ele>186.899993896</ele>
        <time>2015-07-06T10:24:58.997Z</time>
      </trkpt>
      <trkpt lat="45.93973" lon="4.78294">
        <ele>187.100006104</ele>
        <time>2015-07-06T10:24:59.996Z</time>
      </trkpt>
      <trkpt lat="45.93971" lon="4.78288">
        <ele>187.5</ele>
        <time>2015-07-06T10:25:01.012Z</time>
      </trkpt>
      <trkpt lat="45.9397" lon="4.78281">
        <ele>187.899993896</ele>
        <time>2015-07-06T10:25:01.994Z</time>
      </trkpt>
      <trkpt lat="45.9397" lon="4.78274">
        <ele>187.899993896</ele>
        <time>2015-07-06T10:25:02.995Z</time>
      </trkpt>
      <trkpt lat="45.93971" lon="4.78268">
        <ele>188</ele>
        <time>2015-07-06T10:25:03.997Z</time>
      </trkpt>
      <trkpt lat="45.93972" lon="4.78261">
        <ele>187.899993896</ele>
        <time>2015-07-06T10:25:04.996Z</time>
      </trkpt>
      <trkpt lat="45.93974" lon="4.78255">
        <ele>187.800003052</ele>
        <time>2015-07-06T10:25:05.995Z</time>
      </trkpt>
      <trkpt lat="45.93976" lon="4.78244">
        <ele>186.800003052</ele>
        <time>2015-07-06T10:25:07.995Z</time>
      </trkpt>
      <trkpt lat="45.93975" lon="4.78237">
        <ele>186.199996948</ele>
        <time>2015-07-06T10:25:08.996Z</time>
      </trkpt>
      <trkpt lat="45.93972" lon="4.7823">
        <ele>185.800003052</ele>
        <time>2015-07-06T10:25:09.997Z</time>
      </trkpt>
      <trkpt lat="45.93973" lon="4.78224">
        <ele>185.399993896</ele>
        <time>2015-07-06T10:25:10.994Z</time>
      </trkpt>
      <trkpt lat="45.93972" lon="4.78216">
        <ele>184.899993896</ele>
        <time>2015-07-06T10:25:12Z</time>
      </trkpt>
      <trkpt lat="45.93975" lon="4.78211">
        <ele>184.899993896</ele>
        <time>2015-07-06T10:25:12.999Z</time>
      </trkpt>
      <trkpt lat="45.93979" lon="4.78201">
        <ele>185.300003052</ele>
        <time>2015-07-06T10:25:14.994Z</time>
      </trkpt>
      <trkpt lat="45.93982" lon="4.78196">
        <ele>185.5</ele>
        <time>2015-07-06T10:25:15.993Z</time>
      </trkpt>
      <trkpt lat="45.93986" lon="4.78185">
        <ele>185.899993896</ele>
        <time>2015-07-06T10:25:17.995Z</time>
      </trkpt>
      <trkpt lat="45.93988" lon="4.7818">
        <ele>186.100006104</ele>
        <time>2015-07-06T10:25:18.992Z</time>
      </trkpt>
      <trkpt lat="45.93992" lon="4.78169">
        <ele>186</ele>
        <time>2015-07-06T10:25:21.033Z</time>
      </trkpt>
      <trkpt lat="45.93994" lon="4.78164">
        <ele>186.199996948</ele>
        <time>2015-07-06T10:25:21.998Z</time>
      </trkpt>
      <trkpt lat="45.93997" lon="4.78153">
        <ele>186.399993896</ele>
        <time>2015-07-06T10:25:23.994Z</time>
      </trkpt>
      <trkpt lat="45.94" lon="4.78148">
        <ele>186.100006104</ele>
        <time>2015-07-06T10:25:24.996Z</time>
      </trkpt>
      <trkpt lat="45.94002" lon="4.78136">
        <ele>189.800003052</ele>
        <time>2015-07-06T10:25:26.995Z</time>
      </trkpt>
      <trkpt lat="45.94003" lon="4.78129">
        <ele>190.800003052</ele>
        <time>2015-07-06T10:25:27.992Z</time>
      </trkpt>
      <trkpt lat="45.94003" lon="4.78122">
        <ele>191.5</ele>
        <time>2015-07-06T10:25:28.995Z</time>
      </trkpt>
      <trkpt lat="45.94004" lon="4.78114">
        <ele>192.300003052</ele>
        <time>2015-07-06T10:25:30.464Z</time>
      </trkpt>
      <trkpt lat="45.94004" lon="4.78107">
        <ele>192.899993896</ele>
        <time>2015-07-06T10:25:31.039Z</time>
      </trkpt>
      <trkpt lat="45.94004" lon="4.78099">
        <ele>193.699996948</ele>
        <time>2015-07-06T10:25:31.995Z</time>
      </trkpt>
      <trkpt lat="45.94005" lon="4.78091">
        <ele>194.300003052</ele>
        <time>2015-07-06T10:25:33.014Z</time>
      </trkpt>
      <trkpt lat="45.94006" lon="4.78083">
        <ele>194.699996948</ele>
        <time>2015-07-06T10:25:34.101Z</time>
      </trkpt>
      <trkpt lat="45.94007" lon="4.78075">
        <ele>195.199996948</ele>
        <time>2015-07-06T10:25:34.997Z</time>
      </trkpt>
      <trkpt lat="45.94008" lon="4.78067">
        <ele>195.699996948</ele>
        <time>2015-07-06T10:25:35.993Z</time>
      </trkpt>
      <trkpt lat="45.9401" lon="4.78059">
        <ele>196</ele>
        <time>2015-07-06T10:25:36.994Z</time>
      </trkpt>
      <trkpt lat="45.94012" lon="4.78051">
        <ele>196.300003052</ele>
        <time>2015-07-06T10:25:37.995Z</time>
      </trkpt>
      <trkpt lat="45.94013" lon="4.78042">
        <ele>196.699996948</ele>
        <time>2015-07-06T10:25:38.998Z</time>
      </trkpt>
      <trkpt lat="45.94015" lon="4.78027">
        <ele>196.899993896</ele>
        <time>2015-07-06T10:25:39.996Z</time>
      </trkpt>
      <trkpt lat="45.94017" lon="4.78015">
        <ele>197.300003052</ele>
        <time>2015-07-06T10:25:41.998Z</time>
      </trkpt>
      <trkpt lat="45.94018" lon="4.78007">
        <ele>197.199996948</ele>
        <time>2015-07-06T10:25:42.994Z</time>
      </trkpt>
      <trkpt lat="45.94019" lon="4.77999">
        <ele>197.300003052</ele>
        <time>2015-07-06T10:25:43.993Z</time>
      </trkpt>
      <trkpt lat="45.94019" lon="4.7799">
        <ele>197.300003052</ele>
        <time>2015-07-06T10:25:44.998Z</time>
      </trkpt>
      <trkpt lat="45.9402" lon="4.77982">
        <ele>197.300003052</ele>
        <time>2015-07-06T10:25:46.023Z</time>
      </trkpt>
      <trkpt lat="45.94021" lon="4.77973">
        <ele>197.100006104</ele>
        <time>2015-07-06T10:25:47.022Z</time>
      </trkpt>
      <trkpt lat="45.94022" lon="4.77964">
        <ele>197</ele>
        <time>2015-07-06T10:25:47.992Z</time>
      </trkpt>
      <trkpt lat="45.94024" lon="4.77955">
        <ele>196.899993896</ele>
        <time>2015-07-06T10:25:48.992Z</time>
      </trkpt>
      <trkpt lat="45.94025" lon="4.77947">
        <ele>196.899993896</ele>
        <time>2015-07-06T10:25:49.993Z</time>
      </trkpt>
      <trkpt lat="45.94028" lon="4.77939">
        <ele>197</ele>
        <time>2015-07-06T10:25:50.994Z</time>
      </trkpt>
      <trkpt lat="45.94027" lon="4.77927">
        <ele>196.800003052</ele>
        <time>2015-07-06T10:25:52.992Z</time>
      </trkpt>
      <trkpt lat="45.94026" lon="4.77922">
        <ele>196.800003052</ele>
        <time>2015-07-06T10:25:54.014Z</time>
      </trkpt>
      <trkpt lat="45.94019" lon="4.77917">
        <ele>197</ele>
        <time>2015-07-06T10:25:55.994Z</time>
      </trkpt>
      <trkpt lat="45.94017" lon="4.77916">
        <ele>197</ele>
        <time>2015-07-06T10:25:56.992Z</time>
      </trkpt>
      <trkpt lat="45.94005" lon="4.77918">
        <ele>196.800003052</ele>
        <time>2015-07-06T10:25:57.995Z</time>
      </trkpt>
      <trkpt lat="45.93995" lon="4.77924">
        <ele>196.699996948</ele>
        <time>2015-07-06T10:25:58.993Z</time>
      </trkpt>
      <trkpt lat="45.93987" lon="4.7793">
        <ele>196.899993896</ele>
        <time>2015-07-06T10:25:59.997Z</time>
      </trkpt>
      <trkpt lat="45.93978" lon="4.77935">
        <ele>196.699996948</ele>
        <time>2015-07-06T10:26:00.993Z</time>
      </trkpt>
      <trkpt lat="45.9397" lon="4.77941">
        <ele>196.699996948</ele>
        <time>2015-07-06T10:26:01.999Z</time>
      </trkpt>
      <trkpt lat="45.9396" lon="4.77947">
        <ele>196.699996948</ele>
        <time>2015-07-06T10:26:02.994Z</time>
      </trkpt>
      <trkpt lat="45.9395" lon="4.77954">
        <ele>196.5</ele>
        <time>2015-07-06T10:26:03.993Z</time>
      </trkpt>
      <trkpt lat="45.93941" lon="4.7796">
        <ele>196.800003052</ele>
        <time>2015-07-06T10:26:04.998Z</time>
      </trkpt>
      <trkpt lat="45.93932" lon="4.77966">
        <ele>196.800003052</ele>
        <time>2015-07-06T10:26:05.994Z</time>
      </trkpt>
      <trkpt lat="45.93922" lon="4.77973">
        <ele>196.600006104</ele>
        <time>2015-07-06T10:26:06.994Z</time>
      </trkpt>
      <trkpt lat="45.93912" lon="4.77981">
        <ele>196.300003052</ele>
        <time>2015-07-06T10:26:07.997Z</time>
      </trkpt>
      <trkpt lat="45.93903" lon="4.77988">
        <ele>195.600006104</ele>
        <time>2015-07-06T10:26:09.002Z</time>
      </trkpt>
      <trkpt lat="45.93894" lon="4.77996">
        <ele>195</ele>
        <time>2015-07-06T10:26:09.994Z</time>
      </trkpt>
      <trkpt lat="45.93887" lon="4.78002">
        <ele>194.699996948</ele>
        <time>2015-07-06T10:26:11.048Z</time>
      </trkpt>
      <trkpt lat="45.93883" lon="4.78007">
        <ele>194.800003052</ele>
        <time>2015-07-06T10:26:11.996Z</time>
      </trkpt>
      <trkpt lat="45.93878" lon="4.78011">
        <ele>194.699996948</ele>
        <time>2015-07-06T10:26:13.023Z</time>
      </trkpt>
      <trkpt lat="45.93874" lon="4.78009">
        <ele>194.600006104</ele>
        <time>2015-07-06T10:26:14.04Z</time>
      </trkpt>
      <trkpt lat="45.93869" lon="4.78007">
        <ele>194.5</ele>
        <time>2015-07-06T10:26:15.049Z</time>
      </trkpt>
      <trkpt lat="45.93864" lon="4.78002">
        <ele>194.199996948</ele>
        <time>2015-07-06T10:26:16Z</time>
      </trkpt>
      <trkpt lat="45.93858" lon="4.77994">
        <ele>194.100006104</ele>
        <time>2015-07-06T10:26:17.003Z</time>
      </trkpt>
      <trkpt lat="45.93852" lon="4.77987">
        <ele>194</ele>
        <time>2015-07-06T10:26:17.999Z</time>
      </trkpt>
      <trkpt lat="45.93845" lon="4.77979">
        <ele>193.899993896</ele>
        <time>2015-07-06T10:26:19.003Z</time>
      </trkpt>
      <trkpt lat="45.93842" lon="4.77976">
        <ele>192.800003052</ele>
        <time>2015-07-06T10:26:20.072Z</time>
      </trkpt>
      <trkpt lat="45.93837" lon="4.77971">
        <ele>192.199996948</ele>
        <time>2015-07-06T10:26:20.998Z</time>
      </trkpt>
      <trkpt lat="45.93832" lon="4.77964">
        <ele>192.300003052</ele>
        <time>2015-07-06T10:26:21.997Z</time>
      </trkpt>
      <trkpt lat="45.93827" lon="4.77959">
        <ele>192.300003052</ele>
        <time>2015-07-06T10:26:22.992Z</time>
      </trkpt>
      <trkpt lat="45.93823" lon="4.77954">
        <ele>192.300003052</ele>
        <time>2015-07-06T10:26:23.998Z</time>
      </trkpt>
      <trkpt lat="45.93818" lon="4.77947">
        <ele>192.100006104</ele>
        <time>2015-07-06T10:26:24.996Z</time>
      </trkpt>
      <trkpt lat="45.93814" lon="4.77942">
        <ele>191.899993896</ele>
        <time>2015-07-06T10:26:26.01Z</time>
      </trkpt>
      <trkpt lat="45.9381" lon="4.7794">
        <ele>191.699996948</ele>
        <time>2015-07-06T10:26:26.998Z</time>
      </trkpt>
      <trkpt lat="45.93806" lon="4.77935">
        <ele>191.5</ele>
        <time>2015-07-06T10:26:27.995Z</time>
      </trkpt>
      <trkpt lat="45.93802" lon="4.7793">
        <ele>191.199996948</ele>
        <time>2015-07-06T10:26:28.994Z</time>
      </trkpt>
      <trkpt lat="45.93798" lon="4.77926">
        <ele>191</ele>
        <time>2015-07-06T10:26:29.999Z</time>
      </trkpt>
      <trkpt lat="45.93793" lon="4.77921">
        <ele>190.899993896</ele>
        <time>2015-07-06T10:26:30.995Z</time>
      </trkpt>
      <trkpt lat="45.93789" lon="4.77916">
        <ele>190.600006104</ele>
        <time>2015-07-06T10:26:31.997Z</time>
      </trkpt>
      <trkpt lat="45.93785" lon="4.77911">
        <ele>190.399993896</ele>
        <time>2015-07-06T10:26:32.992Z</time>
      </trkpt>
      <trkpt lat="45.93781" lon="4.77906">
        <ele>190.300003052</ele>
        <time>2015-07-06T10:26:33.993Z</time>
      </trkpt>
      <trkpt lat="45.93776" lon="4.779">
        <ele>190.199996948</ele>
        <time>2015-07-06T10:26:34.992Z</time>
      </trkpt>
      <trkpt lat="45.93772" lon="4.77895">
        <ele>190.199996948</ele>
        <time>2015-07-06T10:26:36.012Z</time>
      </trkpt>
      <trkpt lat="45.93768" lon="4.7789">
        <ele>190.199996948</ele>
        <time>2015-07-06T10:26:36.993Z</time>
      </trkpt>
      <trkpt lat="45.93764" lon="4.77885">
        <ele>190.100006104</ele>
        <time>2015-07-06T10:26:37.994Z</time>
      </trkpt>
      <trkpt lat="45.93759" lon="4.77879">
        <ele>190.100006104</ele>
        <time>2015-07-06T10:26:38.993Z</time>
      </trkpt>
      <trkpt lat="45.93755" lon="4.77873">
        <ele>190.100006104</ele>
        <time>2015-07-06T10:26:39.995Z</time>
      </trkpt>
      <trkpt lat="45.93751" lon="4.77868">
        <ele>190.100006104</ele>
        <time>2015-07-06T10:26:40.995Z</time>
      </trkpt>
      <trkpt lat="45.93747" lon="4.77861">
        <ele>190</ele>
        <time>2015-07-06T10:26:41.999Z</time>
      </trkpt>
      <trkpt lat="45.93744" lon="4.77854">
        <ele>189.899993896</ele>
        <time>2015-07-06T10:26:42.994Z</time>
      </trkpt>
      <trkpt lat="45.9374" lon="4.77848">
        <ele>189.800003052</ele>
        <time>2015-07-06T10:26:43.993Z</time>
      </trkpt>
      <trkpt lat="45.93735" lon="4.77843">
        <ele>189.600006104</ele>
        <time>2015-07-06T10:26:44.992Z</time>
      </trkpt>
      <trkpt lat="45.9373" lon="4.77839">
        <ele>189.100006104</ele>
        <time>2015-07-06T10:26:45.993Z</time>
      </trkpt>
      <trkpt lat="45.93725" lon="4.77834">
        <ele>188.899993896</ele>
        <time>2015-07-06T10:26:46.994Z</time>
      </trkpt>
      <trkpt lat="45.9372" lon="4.77828">
        <ele>188.800003052</ele>
        <time>2015-07-06T10:26:47.999Z</time>
      </trkpt>
      <trkpt lat="45.93715" lon="4.77824">
        <ele>188.600006104</ele>
        <time>2015-07-06T10:26:48.994Z</time>
      </trkpt>
      <trkpt lat="45.93711" lon="4.77818">
        <ele>188.399993896</ele>
        <time>2015-07-06T10:26:49.993Z</time>
      </trkpt>
      <trkpt lat="45.93706" lon="4.77811">
        <ele>188.100006104</ele>
        <time>2015-07-06T10:26:50.992Z</time>
      </trkpt>
      <trkpt lat="45.93703" lon="4.77806">
        <ele>187.5</ele>
        <time>2015-07-06T10:26:52.012Z</time>
      </trkpt>
      <trkpt lat="45.93697" lon="4.77799">
        <ele>187.5</ele>
        <time>2015-07-06T10:26:52.993Z</time>
      </trkpt>
      <trkpt lat="45.93694" lon="4.77793">
        <ele>186.899993896</ele>
        <time>2015-07-06T10:26:53.999Z</time>
      </trkpt>
      <trkpt lat="45.93689" lon="4.77786">
        <ele>186.300003052</ele>
        <time>2015-07-06T10:26:54.992Z</time>
      </trkpt>
      <trkpt lat="45.93684" lon="4.77779">
        <ele>186.199996948</ele>
        <time>2015-07-06T10:26:55.997Z</time>
      </trkpt>
      <trkpt lat="45.93679" lon="4.77771">
        <ele>185.699996948</ele>
        <time>2015-07-06T10:26:57.062Z</time>
      </trkpt>
      <trkpt lat="45.93674" lon="4.77764">
        <ele>185.600006104</ele>
        <time>2015-07-06T10:26:57.993Z</time>
      </trkpt>
      <trkpt lat="45.93668" lon="4.77755">
        <ele>185.300003052</ele>
        <time>2015-07-06T10:26:58.993Z</time>
      </trkpt>
      <trkpt lat="45.93663" lon="4.77747">
        <ele>184.600006104</ele>
        <time>2015-07-06T10:26:59.994Z</time>
      </trkpt>
      <trkpt lat="45.93657" lon="4.77738">
        <ele>184.199996948</ele>
        <time>2015-07-06T10:27:00.993Z</time>
      </trkpt>
      <trkpt lat="45.93651" lon="4.77728">
        <ele>183.600006104</ele>
        <time>2015-07-06T10:27:01.993Z</time>
      </trkpt>
      <trkpt lat="45.93646" lon="4.77718">
        <ele>182.899993896</ele>
        <time>2015-07-06T10:27:02.993Z</time>
      </trkpt>
      <trkpt lat="45.93641" lon="4.77708">
        <ele>182.399993896</ele>
        <time>2015-07-06T10:27:03.992Z</time>
      </trkpt>
      <trkpt lat="45.93636" lon="4.77697">
        <ele>181.899993896</ele>
        <time>2015-07-06T10:27:04.992Z</time>
      </trkpt>
      <trkpt lat="45.9363" lon="4.77687">
        <ele>181.199996948</ele>
        <time>2015-07-06T10:27:05.994Z</time>
      </trkpt>
      <trkpt lat="45.93626" lon="4.77676">
        <ele>181.100006104</ele>
        <time>2015-07-06T10:27:06.997Z</time>
      </trkpt>
      <trkpt lat="45.93621" lon="4.77666">
        <ele>181.100006104</ele>
        <time>2015-07-06T10:27:07.994Z</time>
      </trkpt>
      <trkpt lat="45.93617" lon="4.77656">
        <ele>180.800003052</ele>
        <time>2015-07-06T10:27:08.993Z</time>
      </trkpt>
      <trkpt lat="45.93613" lon="4.77645">
        <ele>180.199996948</ele>
        <time>2015-07-06T10:27:09.995Z</time>
      </trkpt>
      <trkpt lat="45.93609" lon="4.77635">
        <ele>179.699996948</ele>
        <time>2015-07-06T10:27:10.995Z</time>
      </trkpt>
      <trkpt lat="45.93606" lon="4.77625">
        <ele>179.399993896</ele>
        <time>2015-07-06T10:27:11.996Z</time>
      </trkpt>
      <trkpt lat="45.93602" lon="4.77615">
        <ele>179.100006104</ele>
        <time>2015-07-06T10:27:13.01Z</time>
      </trkpt>
      <trkpt lat="45.93599" lon="4.77606">
        <ele>178.899993896</ele>
        <time>2015-07-06T10:27:13.993Z</time>
      </trkpt>
      <trkpt lat="45.93596" lon="4.77596">
        <ele>178.899993896</ele>
        <time>2015-07-06T10:27:14.994Z</time>
      </trkpt>
      <trkpt lat="45.93591" lon="4.77586">
        <ele>178.800003052</ele>
        <time>2015-07-06T10:27:15.994Z</time>
      </trkpt>
      <trkpt lat="45.93587" lon="4.77576">
        <ele>178.600006104</ele>
        <time>2015-07-06T10:27:17.022Z</time>
      </trkpt>
      <trkpt lat="45.93584" lon="4.77567">
        <ele>178.100006104</ele>
        <time>2015-07-06T10:27:17.994Z</time>
      </trkpt>
      <trkpt lat="45.93581" lon="4.77556">
        <ele>177.699996948</ele>
        <time>2015-07-06T10:27:18.992Z</time>
      </trkpt>
      <trkpt lat="45.93578" lon="4.77547">
        <ele>177.300003052</ele>
        <time>2015-07-06T10:27:19.993Z</time>
      </trkpt>
      <trkpt lat="45.93575" lon="4.77537">
        <ele>177.199996948</ele>
        <time>2015-07-06T10:27:20.993Z</time>
      </trkpt>
      <trkpt lat="45.93573" lon="4.77527">
        <ele>177.100006104</ele>
        <time>2015-07-06T10:27:21.995Z</time>
      </trkpt>
      <trkpt lat="45.9357" lon="4.77517">
        <ele>176.699996948</ele>
        <time>2015-07-06T10:27:22.993Z</time>
      </trkpt>
      <trkpt lat="45.93568" lon="4.77507">
        <ele>176.5</ele>
        <time>2015-07-06T10:27:23.995Z</time>
      </trkpt>
      <trkpt lat="45.93565" lon="4.77497">
        <ele>176.300003052</ele>
        <time>2015-07-06T10:27:24.995Z</time>
      </trkpt>
      <trkpt lat="45.93563" lon="4.77487">
        <ele>176</ele>
        <time>2015-07-06T10:27:25.993Z</time>
      </trkpt>
      <trkpt lat="45.93561" lon="4.77476">
        <ele>175.699996948</ele>
        <time>2015-07-06T10:27:26.993Z</time>
      </trkpt>
      <trkpt lat="45.93559" lon="4.77466">
        <ele>176.5</ele>
        <time>2015-07-06T10:27:27.993Z</time>
      </trkpt>
      <trkpt lat="45.93557" lon="4.77456">
        <ele>176.800003052</ele>
        <time>2015-07-06T10:27:29.01Z</time>
      </trkpt>
      <trkpt lat="45.93555" lon="4.77445">
        <ele>177</ele>
        <time>2015-07-06T10:27:29.998Z</time>
      </trkpt>
      <trkpt lat="45.93553" lon="4.77435">
        <ele>177.5</ele>
        <time>2015-07-06T10:27:30.992Z</time>
      </trkpt>
      <trkpt lat="45.93551" lon="4.77425">
        <ele>177.600006104</ele>
        <time>2015-07-06T10:27:31.994Z</time>
      </trkpt>
      <trkpt lat="45.93549" lon="4.77415">
        <ele>177.399993896</ele>
        <time>2015-07-06T10:27:32.994Z</time>
      </trkpt>
      <trkpt lat="45.93547" lon="4.77405">
        <ele>177.100006104</ele>
        <time>2015-07-06T10:27:33.995Z</time>
      </trkpt>
      <trkpt lat="45.93545" lon="4.77394">
        <ele>177.100006104</ele>
        <time>2015-07-06T10:27:34.994Z</time>
      </trkpt>
      <trkpt lat="45.93543" lon="4.77384">
        <ele>176.800003052</ele>
        <time>2015-07-06T10:27:35.994Z</time>
      </trkpt>
      <trkpt lat="45.93541" lon="4.77374">
        <ele>176.600006104</ele>
        <time>2015-07-06T10:27:36.995Z</time>
      </trkpt>
      <trkpt lat="45.93538" lon="4.77364">
        <ele>176.600006104</ele>
        <time>2015-07-06T10:27:37.993Z</time>
      </trkpt>
      <trkpt lat="45.93536" lon="4.77354">
        <ele>176.5</ele>
        <time>2015-07-06T10:27:38.993Z</time>
      </trkpt>
      <trkpt lat="45.93534" lon="4.77344">
        <ele>176.199996948</ele>
        <time>2015-07-06T10:27:39.992Z</time>
      </trkpt>
      <trkpt lat="45.93532" lon="4.77334">
        <ele>176.199996948</ele>
        <time>2015-07-06T10:27:40.991Z</time>
      </trkpt>
      <trkpt lat="45.9353" lon="4.77324">
        <ele>176.199996948</ele>
        <time>2015-07-06T10:27:41.993Z</time>
      </trkpt>
      <trkpt lat="45.93528" lon="4.77315">
        <ele>176.300003052</ele>
        <time>2015-07-06T10:27:43.012Z</time>
      </trkpt>
      <trkpt lat="45.93527" lon="4.77305">
        <ele>176.5</ele>
        <time>2015-07-06T10:27:43.995Z</time>
      </trkpt>
      <trkpt lat="45.93525" lon="4.77295">
        <ele>176.399993896</ele>
        <time>2015-07-06T10:27:45.008Z</time>
      </trkpt>
      <trkpt lat="45.93522" lon="4.77285">
        <ele>176.100006104</ele>
        <time>2015-07-06T10:27:45.995Z</time>
      </trkpt>
      <trkpt lat="45.9352" lon="4.77276">
        <ele>175.800003052</ele>
        <time>2015-07-06T10:27:46.992Z</time>
      </trkpt>
      <trkpt lat="45.93517" lon="4.77266">
        <ele>175.899993896</ele>
        <time>2015-07-06T10:27:47.994Z</time>
      </trkpt>
      <trkpt lat="45.93514" lon="4.77257">
        <ele>176</ele>
        <time>2015-07-06T10:27:48.994Z</time>
      </trkpt>
      <trkpt lat="45.93512" lon="4.77247">
        <ele>176.399993896</ele>
        <time>2015-07-06T10:27:49.993Z</time>
      </trkpt>
      <trkpt lat="45.9351" lon="4.77237">
        <ele>176.5</ele>
        <time>2015-07-06T10:27:50.993Z</time>
      </trkpt>
      <trkpt lat="45.93508" lon="4.77228">
        <ele>176.600006104</ele>
        <time>2015-07-06T10:27:51.991Z</time>
      </trkpt>
      <trkpt lat="45.93506" lon="4.77218">
        <ele>176.5</ele>
        <time>2015-07-06T10:27:52.995Z</time>
      </trkpt>
      <trkpt lat="45.93504" lon="4.77209">
        <ele>175.899993896</ele>
        <time>2015-07-06T10:27:53.999Z</time>
      </trkpt>
      <trkpt lat="45.93501" lon="4.77199">
        <ele>175.699996948</ele>
        <time>2015-07-06T10:27:54.992Z</time>
      </trkpt>
      <trkpt lat="45.93499" lon="4.77189">
        <ele>175.5</ele>
        <time>2015-07-06T10:27:55.997Z</time>
      </trkpt>
      <trkpt lat="45.93497" lon="4.77179">
        <ele>175.399993896</ele>
        <time>2015-07-06T10:27:56.993Z</time>
      </trkpt>
      <trkpt lat="45.93496" lon="4.7717">
        <ele>175.5</ele>
        <time>2015-07-06T10:27:57.992Z</time>
      </trkpt>
      <trkpt lat="45.93495" lon="4.7716">
        <ele>175.600006104</ele>
        <time>2015-07-06T10:27:58.997Z</time>
      </trkpt>
      <trkpt lat="45.93493" lon="4.7715">
        <ele>175.699996948</ele>
        <time>2015-07-06T10:28:00.001Z</time>
      </trkpt>
      <trkpt lat="45.9349" lon="4.7714">
        <ele>175.5</ele>
        <time>2015-07-06T10:28:01.009Z</time>
      </trkpt>
      <trkpt lat="45.93488" lon="4.7713">
        <ele>175.300003052</ele>
        <time>2015-07-06T10:28:01.993Z</time>
      </trkpt>
      <trkpt lat="45.93486" lon="4.7712">
        <ele>175.100006104</ele>
        <time>2015-07-06T10:28:02.992Z</time>
      </trkpt>
      <trkpt lat="45.93484" lon="4.7711">
        <ele>174.899993896</ele>
        <time>2015-07-06T10:28:03.992Z</time>
      </trkpt>
      <trkpt lat="45.93483" lon="4.771">
        <ele>174.899993896</ele>
        <time>2015-07-06T10:28:04.994Z</time>
      </trkpt>
      <trkpt lat="45.93481" lon="4.7709">
        <ele>174.5</ele>
        <time>2015-07-06T10:28:05.995Z</time>
      </trkpt>
      <trkpt lat="45.93479" lon="4.77081">
        <ele>174.300003052</ele>
        <time>2015-07-06T10:28:07.018Z</time>
      </trkpt>
      <trkpt lat="45.93477" lon="4.77072">
        <ele>174.100006104</ele>
        <time>2015-07-06T10:28:07.992Z</time>
      </trkpt>
      <trkpt lat="45.93475" lon="4.77063">
        <ele>173.800003052</ele>
        <time>2015-07-06T10:28:08.995Z</time>
      </trkpt>
      <trkpt lat="45.93473" lon="4.77055">
        <ele>173.899993896</ele>
        <time>2015-07-06T10:28:09.992Z</time>
      </trkpt>
      <trkpt lat="45.93472" lon="4.77046">
        <ele>174</ele>
        <time>2015-07-06T10:28:10.992Z</time>
      </trkpt>
      <trkpt lat="45.9347" lon="4.77037">
        <ele>174.399993896</ele>
        <time>2015-07-06T10:28:11.994Z</time>
      </trkpt>
      <trkpt lat="45.93469" lon="4.77028">
        <ele>174.399993896</ele>
        <time>2015-07-06T10:28:12.996Z</time>
      </trkpt>
      <trkpt lat="45.93467" lon="4.7702">
        <ele>174.100006104</ele>
        <time>2015-07-06T10:28:13.993Z</time>
      </trkpt>
      <trkpt lat="45.93466" lon="4.77011">
        <ele>173.699996948</ele>
        <time>2015-07-06T10:28:14.995Z</time>
      </trkpt>
      <trkpt lat="45.93463" lon="4.77002">
        <ele>173.399993896</ele>
        <time>2015-07-06T10:28:16.03Z</time>
      </trkpt>
      <trkpt lat="45.93461" lon="4.76993">
        <ele>173.100006104</ele>
        <time>2015-07-06T10:28:17.012Z</time>
      </trkpt>
      <trkpt lat="45.9346" lon="4.76985">
        <ele>172.699996948</ele>
        <time>2015-07-06T10:28:17.995Z</time>
      </trkpt>
      <trkpt lat="45.93458" lon="4.76976">
        <ele>172.100006104</ele>
        <time>2015-07-06T10:28:18.993Z</time>
      </trkpt>
      <trkpt lat="45.93456" lon="4.76967">
        <ele>171.5</ele>
        <time>2015-07-06T10:28:19.993Z</time>
      </trkpt>
      <trkpt lat="45.93454" lon="4.76958">
        <ele>171.300003052</ele>
        <time>2015-07-06T10:28:20.994Z</time>
      </trkpt>
      <trkpt lat="45.93453" lon="4.7695">
        <ele>171.100006104</ele>
        <time>2015-07-06T10:28:21.996Z</time>
      </trkpt>
      <trkpt lat="45.93452" lon="4.76941">
        <ele>171.199996948</ele>
        <time>2015-07-06T10:28:22.994Z</time>
      </trkpt>
      <trkpt lat="45.9345" lon="4.76932">
        <ele>171.399993896</ele>
        <time>2015-07-06T10:28:23.995Z</time>
      </trkpt>
      <trkpt lat="45.93448" lon="4.76923">
        <ele>171.300003052</ele>
        <time>2015-07-06T10:28:24.992Z</time>
      </trkpt>
      <trkpt lat="45.93446" lon="4.76914">
        <ele>171.800003052</ele>
        <time>2015-07-06T10:28:25.993Z</time>
      </trkpt>
      <trkpt lat="45.93444" lon="4.76906">
        <ele>172.399993896</ele>
        <time>2015-07-06T10:28:26.993Z</time>
      </trkpt>
      <trkpt lat="45.93441" lon="4.76897">
        <ele>172.199996948</ele>
        <time>2015-07-06T10:28:27.992Z</time>
      </trkpt>
      <trkpt lat="45.93438" lon="4.76887">
        <ele>171.5</ele>
        <time>2015-07-06T10:28:28.992Z</time>
      </trkpt>
      <trkpt lat="45.93435" lon="4.76878">
        <ele>171</ele>
        <time>2015-07-06T10:28:29.997Z</time>
      </trkpt>
      <trkpt lat="45.93432" lon="4.76869">
        <ele>170.600006104</ele>
        <time>2015-07-06T10:28:30.994Z</time>
      </trkpt>
      <trkpt lat="45.93428" lon="4.76861">
        <ele>170.100006104</ele>
        <time>2015-07-06T10:28:31.993Z</time>
      </trkpt>
      <trkpt lat="45.93424" lon="4.76853">
        <ele>169.399993896</ele>
        <time>2015-07-06T10:28:33.01Z</time>
      </trkpt>
      <trkpt lat="45.9342" lon="4.76845">
        <ele>168.800003052</ele>
        <time>2015-07-06T10:28:33.992Z</time>
      </trkpt>
      <trkpt lat="45.93417" lon="4.76837">
        <ele>168.5</ele>
        <time>2015-07-06T10:28:34.991Z</time>
      </trkpt>
      <trkpt lat="45.93413" lon="4.76829">
        <ele>168.5</ele>
        <time>2015-07-06T10:28:36.031Z</time>
      </trkpt>
      <trkpt lat="45.93409" lon="4.76821">
        <ele>168.600006104</ele>
        <time>2015-07-06T10:28:36.992Z</time>
      </trkpt>
      <trkpt lat="45.93404" lon="4.76813">
        <ele>168.399993896</ele>
        <time>2015-07-06T10:28:37.993Z</time>
      </trkpt>
      <trkpt lat="45.934" lon="4.76806">
        <ele>168.300003052</ele>
        <time>2015-07-06T10:28:38.992Z</time>
      </trkpt>
      <trkpt lat="45.93395" lon="4.76799">
        <ele>167.699996948</ele>
        <time>2015-07-06T10:28:39.992Z</time>
      </trkpt>
      <trkpt lat="45.93391" lon="4.76793">
        <ele>167.199996948</ele>
        <time>2015-07-06T10:28:40.992Z</time>
      </trkpt>
      <trkpt lat="45.93385" lon="4.76787">
        <ele>166.399993896</ele>
        <time>2015-07-06T10:28:42.042Z</time>
      </trkpt>
      <trkpt lat="45.9338" lon="4.76781">
        <ele>166.300003052</ele>
        <time>2015-07-06T10:28:43.015Z</time>
      </trkpt>
      <trkpt lat="45.93375" lon="4.76775">
        <ele>165.5</ele>
        <time>2015-07-06T10:28:43.992Z</time>
      </trkpt>
      <trkpt lat="45.93369" lon="4.7677">
        <ele>166</ele>
        <time>2015-07-06T10:28:44.994Z</time>
      </trkpt>
      <trkpt lat="45.93364" lon="4.76764">
        <ele>166.100006104</ele>
        <time>2015-07-06T10:28:45.992Z</time>
      </trkpt>
      <trkpt lat="45.93358" lon="4.76759">
        <ele>166</ele>
        <time>2015-07-06T10:28:46.994Z</time>
      </trkpt>
      <trkpt lat="45.93353" lon="4.76752">
        <ele>165.800003052</ele>
        <time>2015-07-06T10:28:47.993Z</time>
      </trkpt>
      <trkpt lat="45.93348" lon="4.76747">
        <ele>165.699996948</ele>
        <time>2015-07-06T10:28:49.011Z</time>
      </trkpt>
      <trkpt lat="45.93341" lon="4.76742">
        <ele>165.399993896</ele>
        <time>2015-07-06T10:28:49.993Z</time>
      </trkpt>
      <trkpt lat="45.93336" lon="4.76737">
        <ele>165.100006104</ele>
        <time>2015-07-06T10:28:50.991Z</time>
      </trkpt>
      <trkpt lat="45.9333" lon="4.76731">
        <ele>164.800003052</ele>
        <time>2015-07-06T10:28:51.994Z</time>
      </trkpt>
      <trkpt lat="45.93324" lon="4.76726">
        <ele>164.100006104</ele>
        <time>2015-07-06T10:28:52.991Z</time>
      </trkpt>
      <trkpt lat="45.93319" lon="4.7672">
        <ele>164</ele>
        <time>2015-07-06T10:28:53.993Z</time>
      </trkpt>
      <trkpt lat="45.93314" lon="4.76715">
        <ele>163.600006104</ele>
        <time>2015-07-06T10:28:54.992Z</time>
      </trkpt>
      <trkpt lat="45.93309" lon="4.76709">
        <ele>163.399993896</ele>
        <time>2015-07-06T10:28:55.995Z</time>
      </trkpt>
      <trkpt lat="45.93304" lon="4.76704">
        <ele>162.899993896</ele>
        <time>2015-07-06T10:28:56.992Z</time>
      </trkpt>
      <trkpt lat="45.93298" lon="4.76699">
        <ele>162.699996948</ele>
        <time>2015-07-06T10:28:57.996Z</time>
      </trkpt>
      <trkpt lat="45.93295" lon="4.76691">
        <ele>162.100006104</ele>
        <time>2015-07-06T10:28:58.994Z</time>
      </trkpt>
      <trkpt lat="45.9329" lon="4.76683">
        <ele>161.800003052</ele>
        <time>2015-07-06T10:28:59.993Z</time>
      </trkpt>
      <trkpt lat="45.93285" lon="4.76678">
        <ele>161.800003052</ele>
        <time>2015-07-06T10:29:01.014Z</time>
      </trkpt>
      <trkpt lat="45.9328" lon="4.76674">
        <ele>161.600006104</ele>
        <time>2015-07-06T10:29:01.998Z</time>
      </trkpt>
      <trkpt lat="45.93275" lon="4.76669">
        <ele>161.5</ele>
        <time>2015-07-06T10:29:02.992Z</time>
      </trkpt>
      <trkpt lat="45.93271" lon="4.76664">
        <ele>161.300003052</ele>
        <time>2015-07-06T10:29:03.994Z</time>
      </trkpt>
      <trkpt lat="45.93267" lon="4.76658">
        <ele>160.899993896</ele>
        <time>2015-07-06T10:29:05.008Z</time>
      </trkpt>
      <trkpt lat="45.93263" lon="4.76653">
        <ele>160.600006104</ele>
        <time>2015-07-06T10:29:05.994Z</time>
      </trkpt>
      <trkpt lat="45.93259" lon="4.76648">
        <ele>160.199996948</ele>
        <time>2015-07-06T10:29:06.992Z</time>
      </trkpt>
      <trkpt lat="45.93252" lon="4.76642">
        <ele>160</ele>
        <time>2015-07-06T10:29:07.994Z</time>
      </trkpt>
      <trkpt lat="45.93247" lon="4.76637">
        <ele>160</ele>
        <time>2015-07-06T10:29:08.991Z</time>
      </trkpt>
      <trkpt lat="45.93242" lon="4.76631">
        <ele>159.899993896</ele>
        <time>2015-07-06T10:29:09.991Z</time>
      </trkpt>
      <trkpt lat="45.93238" lon="4.76626">
        <ele>160</ele>
        <time>2015-07-06T10:29:10.994Z</time>
      </trkpt>
      <trkpt lat="45.93233" lon="4.76621">
        <ele>160</ele>
        <time>2015-07-06T10:29:11.993Z</time>
      </trkpt>
      <trkpt lat="45.93227" lon="4.76615">
        <ele>159.899993896</ele>
        <time>2015-07-06T10:29:12.992Z</time>
      </trkpt>
      <trkpt lat="45.93224" lon="4.7661">
        <ele>159.699996948</ele>
        <time>2015-07-06T10:29:13.992Z</time>
      </trkpt>
      <trkpt lat="45.93219" lon="4.76605">
        <ele>159.600006104</ele>
        <time>2015-07-06T10:29:14.994Z</time>
      </trkpt>
      <trkpt lat="45.93214" lon="4.76601">
        <ele>159.399993896</ele>
        <time>2015-07-06T10:29:15.991Z</time>
      </trkpt>
      <trkpt lat="45.93209" lon="4.76596">
        <ele>159.199996948</ele>
        <time>2015-07-06T10:29:16.993Z</time>
      </trkpt>
      <trkpt lat="45.93203" lon="4.76591">
        <ele>158.899993896</ele>
        <time>2015-07-06T10:29:17.994Z</time>
      </trkpt>
      <trkpt lat="45.93197" lon="4.76586">
        <ele>158.899993896</ele>
        <time>2015-07-06T10:29:18.992Z</time>
      </trkpt>
      <trkpt lat="45.93191" lon="4.76582">
        <ele>158.800003052</ele>
        <time>2015-07-06T10:29:19.994Z</time>
      </trkpt>
      <trkpt lat="45.93185" lon="4.76576">
        <ele>158.600006104</ele>
        <time>2015-07-06T10:29:21.011Z</time>
      </trkpt>
      <trkpt lat="45.93181" lon="4.7657">
        <ele>158.399993896</ele>
        <time>2015-07-06T10:29:21.995Z</time>
      </trkpt>
      <trkpt lat="45.93175" lon="4.76565">
        <ele>158.199996948</ele>
        <time>2015-07-06T10:29:22.992Z</time>
      </trkpt>
      <trkpt lat="45.93169" lon="4.7656">
        <ele>158</ele>
        <time>2015-07-06T10:29:23.993Z</time>
      </trkpt>
      <trkpt lat="45.93164" lon="4.76555">
        <ele>157.699996948</ele>
        <time>2015-07-06T10:29:24.991Z</time>
      </trkpt>
      <trkpt lat="45.9316" lon="4.7655">
        <ele>157.399993896</ele>
        <time>2015-07-06T10:29:25.992Z</time>
      </trkpt>
      <trkpt lat="45.93156" lon="4.76544">
        <ele>157.300003052</ele>
        <time>2015-07-06T10:29:26.99Z</time>
      </trkpt>
      <trkpt lat="45.93152" lon="4.76538">
        <ele>157.100006104</ele>
        <time>2015-07-06T10:29:27.999Z</time>
      </trkpt>
      <trkpt lat="45.93148" lon="4.76533">
        <ele>157</ele>
        <time>2015-07-06T10:29:28.992Z</time>
      </trkpt>
      <trkpt lat="45.93142" lon="4.76528">
        <ele>157.100006104</ele>
        <time>2015-07-06T10:29:30.035Z</time>
      </trkpt>
      <trkpt lat="45.93136" lon="4.76522">
        <ele>157.100006104</ele>
        <time>2015-07-06T10:29:30.991Z</time>
      </trkpt>
      <trkpt lat="45.93131" lon="4.76517">
        <ele>157.100006104</ele>
        <time>2015-07-06T10:29:31.992Z</time>
      </trkpt>
      <trkpt lat="45.93125" lon="4.76512">
        <ele>156.899993896</ele>
        <time>2015-07-06T10:29:32.991Z</time>
      </trkpt>
      <trkpt lat="45.93117" lon="4.76508">
        <ele>156.5</ele>
        <time>2015-07-06T10:29:33.991Z</time>
      </trkpt>
      <trkpt lat="45.9311" lon="4.76503">
        <ele>156.399993896</ele>
        <time>2015-07-06T10:29:34.992Z</time>
      </trkpt>
      <trkpt lat="45.93104" lon="4.76498">
        <ele>156.199996948</ele>
        <time>2015-07-06T10:29:35.993Z</time>
      </trkpt>
      <trkpt lat="45.93099" lon="4.76493">
        <ele>156.100006104</ele>
        <time>2015-07-06T10:29:37.011Z</time>
      </trkpt>
      <trkpt lat="45.93092" lon="4.76488">
        <ele>156</ele>
        <time>2015-07-06T10:29:37.992Z</time>
      </trkpt>
      <trkpt lat="45.93087" lon="4.76482">
        <ele>156</ele>
        <time>2015-07-06T10:29:38.993Z</time>
      </trkpt>
      <trkpt lat="45.93082" lon="4.76477">
        <ele>156.100006104</ele>
        <time>2015-07-06T10:29:39.99Z</time>
      </trkpt>
      <trkpt lat="45.93077" lon="4.76472">
        <ele>156.100006104</ele>
        <time>2015-07-06T10:29:40.991Z</time>
      </trkpt>
      <trkpt lat="45.93071" lon="4.76466">
        <ele>155.899993896</ele>
        <time>2015-07-06T10:29:41.993Z</time>
      </trkpt>
      <trkpt lat="45.93066" lon="4.76461">
        <ele>155.899993896</ele>
        <time>2015-07-06T10:29:42.992Z</time>
      </trkpt>
      <trkpt lat="45.93061" lon="4.76456">
        <ele>155.800003052</ele>
        <time>2015-07-06T10:29:43.994Z</time>
      </trkpt>
      <trkpt lat="45.93055" lon="4.76451">
        <ele>155.600006104</ele>
        <time>2015-07-06T10:29:44.993Z</time>
      </trkpt>
      <trkpt lat="45.9305" lon="4.76445">
        <ele>155.5</ele>
        <time>2015-07-06T10:29:45.993Z</time>
      </trkpt>
      <trkpt lat="45.93044" lon="4.76441">
        <ele>155.600006104</ele>
        <time>2015-07-06T10:29:46.991Z</time>
      </trkpt>
      <trkpt lat="45.93039" lon="4.76436">
        <ele>155.5</ele>
        <time>2015-07-06T10:29:47.997Z</time>
      </trkpt>
      <trkpt lat="45.93033" lon="4.76431">
        <ele>155.5</ele>
        <time>2015-07-06T10:29:48.991Z</time>
      </trkpt>
      <trkpt lat="45.93028" lon="4.76425">
        <ele>155.5</ele>
        <time>2015-07-06T10:29:49.992Z</time>
      </trkpt>
      <trkpt lat="45.93023" lon="4.76419">
        <ele>155.5</ele>
        <time>2015-07-06T10:29:50.993Z</time>
      </trkpt>
      <trkpt lat="45.93018" lon="4.76413">
        <ele>155.300003052</ele>
        <time>2015-07-06T10:29:52.017Z</time>
      </trkpt>
      <trkpt lat="45.93013" lon="4.76407">
        <ele>155.300003052</ele>
        <time>2015-07-06T10:29:53.008Z</time>
      </trkpt>
      <trkpt lat="45.93008" lon="4.76402">
        <ele>155.199996948</ele>
        <time>2015-07-06T10:29:54.001Z</time>
      </trkpt>
      <trkpt lat="45.93002" lon="4.76396">
        <ele>155.100006104</ele>
        <time>2015-07-06T10:29:55.016Z</time>
      </trkpt>
      <trkpt lat="45.92997" lon="4.7639">
        <ele>154.899993896</ele>
        <time>2015-07-06T10:29:55.992Z</time>
      </trkpt>
      <trkpt lat="45.92992" lon="4.76385">
        <ele>154.699996948</ele>
        <time>2015-07-06T10:29:56.991Z</time>
      </trkpt>
      <trkpt lat="45.92986" lon="4.76379">
        <ele>154.600006104</ele>
        <time>2015-07-06T10:29:57.992Z</time>
      </trkpt>
      <trkpt lat="45.92982" lon="4.76375">
        <ele>154.199996948</ele>
        <time>2015-07-06T10:29:58.99Z</time>
      </trkpt>
      <trkpt lat="45.92975" lon="4.7637">
        <ele>153.800003052</ele>
        <time>2015-07-06T10:29:59.998Z</time>
      </trkpt>
      <trkpt lat="45.92968" lon="4.76364">
        <ele>153.800003052</ele>
        <time>2015-07-06T10:30:00.993Z</time>
      </trkpt>
      <trkpt lat="45.92962" lon="4.76358">
        <ele>153.600006104</ele>
        <time>2015-07-06T10:30:01.994Z</time>
      </trkpt>
      <trkpt lat="45.92956" lon="4.76353">
        <ele>153.5</ele>
        <time>2015-07-06T10:30:02.994Z</time>
      </trkpt>
      <trkpt lat="45.92951" lon="4.76348">
        <ele>153.199996948</ele>
        <time>2015-07-06T10:30:03.994Z</time>
      </trkpt>
      <trkpt lat="45.92946" lon="4.76343">
        <ele>153</ele>
        <time>2015-07-06T10:30:04.991Z</time>
      </trkpt>
      <trkpt lat="45.9294" lon="4.76338">
        <ele>152.899993896</ele>
        <time>2015-07-06T10:30:05.993Z</time>
      </trkpt>
      <trkpt lat="45.92935" lon="4.76333">
        <ele>152.800003052</ele>
        <time>2015-07-06T10:30:06.994Z</time>
      </trkpt>
      <trkpt lat="45.92929" lon="4.76328">
        <ele>152.899993896</ele>
        <time>2015-07-06T10:30:07.993Z</time>
      </trkpt>
      <trkpt lat="45.92924" lon="4.76322">
        <ele>152.800003052</ele>
        <time>2015-07-06T10:30:09.006Z</time>
      </trkpt>
      <trkpt lat="45.92918" lon="4.76317">
        <ele>152.800003052</ele>
        <time>2015-07-06T10:30:09.993Z</time>
      </trkpt>
      <trkpt lat="45.92913" lon="4.76311">
        <ele>152.699996948</ele>
        <time>2015-07-06T10:30:10.991Z</time>
      </trkpt>
      <trkpt lat="45.92907" lon="4.76306">
        <ele>152.600006104</ele>
        <time>2015-07-06T10:30:11.993Z</time>
      </trkpt>
      <trkpt lat="45.92902" lon="4.763">
        <ele>152.600006104</ele>
        <time>2015-07-06T10:30:12.991Z</time>
      </trkpt>
      <trkpt lat="45.92896" lon="4.76295">
        <ele>152.600006104</ele>
        <time>2015-07-06T10:30:14.027Z</time>
      </trkpt>
      <trkpt lat="45.92891" lon="4.76289">
        <ele>152.5</ele>
        <time>2015-07-06T10:30:14.991Z</time>
      </trkpt>
      <trkpt lat="45.92886" lon="4.76283">
        <ele>152.600006104</ele>
        <time>2015-07-06T10:30:15.992Z</time>
      </trkpt>
      <trkpt lat="45.9288" lon="4.76278">
        <ele>152.699996948</ele>
        <time>2015-07-06T10:30:16.991Z</time>
      </trkpt>
      <trkpt lat="45.92876" lon="4.76273">
        <ele>152.699996948</ele>
        <time>2015-07-06T10:30:17.993Z</time>
      </trkpt>
      <trkpt lat="45.92871" lon="4.76267">
        <ele>152.5</ele>
        <time>2015-07-06T10:30:18.993Z</time>
      </trkpt>
      <trkpt lat="45.92867" lon="4.76262">
        <ele>152.399993896</ele>
        <time>2015-07-06T10:30:19.997Z</time>
      </trkpt>
      <trkpt lat="45.92863" lon="4.76258">
        <ele>152.199996948</ele>
        <time>2015-07-06T10:30:20.991Z</time>
      </trkpt>
      <trkpt lat="45.92859" lon="4.76253">
        <ele>151.899993896</ele>
        <time>2015-07-06T10:30:21.993Z</time>
      </trkpt>
      <trkpt lat="45.92854" lon="4.76248">
        <ele>151.699996948</ele>
        <time>2015-07-06T10:30:22.992Z</time>
      </trkpt>
      <trkpt lat="45.92849" lon="4.76244">
        <ele>151.399993896</ele>
        <time>2015-07-06T10:30:23.993Z</time>
      </trkpt>
      <trkpt lat="45.92844" lon="4.76239">
        <ele>151.199996948</ele>
        <time>2015-07-06T10:30:24.991Z</time>
      </trkpt>
      <trkpt lat="45.92839" lon="4.76233">
        <ele>150.899993896</ele>
        <time>2015-07-06T10:30:25.992Z</time>
      </trkpt>
      <trkpt lat="45.92834" lon="4.76227">
        <ele>150.699996948</ele>
        <time>2015-07-06T10:30:27.043Z</time>
      </trkpt>
      <trkpt lat="45.92828" lon="4.76221">
        <ele>150.5</ele>
        <time>2015-07-06T10:30:27.993Z</time>
      </trkpt>
      <trkpt lat="45.92823" lon="4.76216">
        <ele>150.199996948</ele>
        <time>2015-07-06T10:30:28.994Z</time>
      </trkpt>
      <trkpt lat="45.92817" lon="4.7621">
        <ele>150</ele>
        <time>2015-07-06T10:30:30.012Z</time>
      </trkpt>
      <trkpt lat="45.92811" lon="4.76203">
        <ele>150</ele>
        <time>2015-07-06T10:30:30.994Z</time>
      </trkpt>
      <trkpt lat="45.92806" lon="4.76197">
        <ele>149.800003052</ele>
        <time>2015-07-06T10:30:31.994Z</time>
      </trkpt>
      <trkpt lat="45.92801" lon="4.7619">
        <ele>149.800003052</ele>
        <time>2015-07-06T10:30:32.991Z</time>
      </trkpt>
      <trkpt lat="45.92796" lon="4.76185">
        <ele>149.600006104</ele>
        <time>2015-07-06T10:30:33.994Z</time>
      </trkpt>
      <trkpt lat="45.9279" lon="4.76179">
        <ele>149.199996948</ele>
        <time>2015-07-06T10:30:34.991Z</time>
      </trkpt>
      <trkpt lat="45.92785" lon="4.76174">
        <ele>148.899993896</ele>
        <time>2015-07-06T10:30:35.993Z</time>
      </trkpt>
      <trkpt lat="45.9278" lon="4.76168">
        <ele>148.699996948</ele>
        <time>2015-07-06T10:30:36.993Z</time>
      </trkpt>
      <trkpt lat="45.92774" lon="4.76164">
        <ele>148.5</ele>
        <time>2015-07-06T10:30:37.994Z</time>
      </trkpt>
      <trkpt lat="45.92769" lon="4.76159">
        <ele>148.300003052</ele>
        <time>2015-07-06T10:30:39.052Z</time>
      </trkpt>
      <trkpt lat="45.92763" lon="4.76155">
        <ele>148.100006104</ele>
        <time>2015-07-06T10:30:39.993Z</time>
      </trkpt>
      <trkpt lat="45.92757" lon="4.7615">
        <ele>147.899993896</ele>
        <time>2015-07-06T10:30:40.993Z</time>
      </trkpt>
      <trkpt lat="45.92751" lon="4.76145">
        <ele>147.699996948</ele>
        <time>2015-07-06T10:30:41.993Z</time>
      </trkpt>
      <trkpt lat="45.92745" lon="4.76141">
        <ele>147.600006104</ele>
        <time>2015-07-06T10:30:42.991Z</time>
      </trkpt>
      <trkpt lat="45.9274" lon="4.76136">
        <ele>147.600006104</ele>
        <time>2015-07-06T10:30:43.991Z</time>
      </trkpt>
      <trkpt lat="45.92734" lon="4.76132">
        <ele>147.399993896</ele>
        <time>2015-07-06T10:30:44.991Z</time>
      </trkpt>
      <trkpt lat="45.92728" lon="4.76128">
        <ele>147.5</ele>
        <time>2015-07-06T10:30:46.004Z</time>
      </trkpt>
      <trkpt lat="45.92724" lon="4.76122">
        <ele>147.5</ele>
        <time>2015-07-06T10:30:46.991Z</time>
      </trkpt>
      <trkpt lat="45.92718" lon="4.76119">
        <ele>147.699996948</ele>
        <time>2015-07-06T10:30:47.995Z</time>
      </trkpt>
      <trkpt lat="45.92712" lon="4.76115">
        <ele>147.600006104</ele>
        <time>2015-07-06T10:30:49.014Z</time>
      </trkpt>
      <trkpt lat="45.92706" lon="4.76112">
        <ele>147.699996948</ele>
        <time>2015-07-06T10:30:49.993Z</time>
      </trkpt>
      <trkpt lat="45.92702" lon="4.76108">
        <ele>147.800003052</ele>
        <time>2015-07-06T10:30:51.052Z</time>
      </trkpt>
      <trkpt lat="45.92696" lon="4.76106">
        <ele>147.800003052</ele>
        <time>2015-07-06T10:30:51.993Z</time>
      </trkpt>
      <trkpt lat="45.9269" lon="4.76102">
        <ele>148.100006104</ele>
        <time>2015-07-06T10:30:52.993Z</time>
      </trkpt>
      <trkpt lat="45.92685" lon="4.76098">
        <ele>148.5</ele>
        <time>2015-07-06T10:30:53.994Z</time>
      </trkpt>
      <trkpt lat="45.9268" lon="4.76095">
        <ele>148.800003052</ele>
        <time>2015-07-06T10:30:54.991Z</time>
      </trkpt>
      <trkpt lat="45.92674" lon="4.76091">
        <ele>149</ele>
        <time>2015-07-06T10:30:55.991Z</time>
      </trkpt>
      <trkpt lat="45.92669" lon="4.76087">
        <ele>149.199996948</ele>
        <time>2015-07-06T10:30:56.992Z</time>
      </trkpt>
      <trkpt lat="45.92664" lon="4.76084">
        <ele>149.600006104</ele>
        <time>2015-07-06T10:30:57.991Z</time>
      </trkpt>
      <trkpt lat="45.92659" lon="4.76081">
        <ele>149.899993896</ele>
        <time>2015-07-06T10:30:58.991Z</time>
      </trkpt>
      <trkpt lat="45.92654" lon="4.76077">
        <ele>150.300003052</ele>
        <time>2015-07-06T10:30:59.997Z</time>
      </trkpt>
      <trkpt lat="45.92649" lon="4.76074">
        <ele>150.199996948</ele>
        <time>2015-07-06T10:31:00.994Z</time>
      </trkpt>
      <trkpt lat="45.92645" lon="4.7607">
        <ele>150.600006104</ele>
        <time>2015-07-06T10:31:01.991Z</time>
      </trkpt>
      <trkpt lat="45.92641" lon="4.76066">
        <ele>150.899993896</ele>
        <time>2015-07-06T10:31:02.994Z</time>
      </trkpt>
      <trkpt lat="45.92636" lon="4.76063">
        <ele>151</ele>
        <time>2015-07-06T10:31:03.993Z</time>
      </trkpt>
      <trkpt lat="45.92631" lon="4.76059">
        <ele>151.199996948</ele>
        <time>2015-07-06T10:31:04.991Z</time>
      </trkpt>
      <trkpt lat="45.92627" lon="4.76056">
        <ele>151.600006104</ele>
        <time>2015-07-06T10:31:05.993Z</time>
      </trkpt>
      <trkpt lat="45.92623" lon="4.76053">
        <ele>151.899993896</ele>
        <time>2015-07-06T10:31:07.009Z</time>
      </trkpt>
      <trkpt lat="45.92618" lon="4.76049">
        <ele>152.300003052</ele>
        <time>2015-07-06T10:31:07.991Z</time>
      </trkpt>
      <trkpt lat="45.92614" lon="4.76046">
        <ele>152.600006104</ele>
        <time>2015-07-06T10:31:08.991Z</time>
      </trkpt>
      <trkpt lat="45.9261" lon="4.76043">
        <ele>152.800003052</ele>
        <time>2015-07-06T10:31:09.991Z</time>
      </trkpt>
      <trkpt lat="45.92605" lon="4.76039">
        <ele>152.899993896</ele>
        <time>2015-07-06T10:31:10.991Z</time>
      </trkpt>
      <trkpt lat="45.92601" lon="4.76036">
        <ele>153</ele>
        <time>2015-07-06T10:31:11.996Z</time>
      </trkpt>
      <trkpt lat="45.92597" lon="4.76032">
        <ele>153.399993896</ele>
        <time>2015-07-06T10:31:12.994Z</time>
      </trkpt>
      <trkpt lat="45.92593" lon="4.76029">
        <ele>153.399993896</ele>
        <time>2015-07-06T10:31:13.993Z</time>
      </trkpt>
      <trkpt lat="45.92588" lon="4.76024">
        <ele>153.699996948</ele>
        <time>2015-07-06T10:31:14.992Z</time>
      </trkpt>
      <trkpt lat="45.92584" lon="4.7602">
        <ele>153.699996948</ele>
        <time>2015-07-06T10:31:15.994Z</time>
      </trkpt>
      <trkpt lat="45.92581" lon="4.76017">
        <ele>153.899993896</ele>
        <time>2015-07-06T10:31:16.991Z</time>
      </trkpt>
      <trkpt lat="45.92576" lon="4.76014">
        <ele>154.100006104</ele>
        <time>2015-07-06T10:31:17.994Z</time>
      </trkpt>
      <trkpt lat="45.92572" lon="4.76011">
        <ele>154.199996948</ele>
        <time>2015-07-06T10:31:18.992Z</time>
      </trkpt>
      <trkpt lat="45.92567" lon="4.76008">
        <ele>154.300003052</ele>
        <time>2015-07-06T10:31:19.991Z</time>
      </trkpt>
      <trkpt lat="45.92562" lon="4.76005">
        <ele>154.399993896</ele>
        <time>2015-07-06T10:31:20.991Z</time>
      </trkpt>
      <trkpt lat="45.92557" lon="4.76002">
        <ele>154.5</ele>
        <time>2015-07-06T10:31:21.995Z</time>
      </trkpt>
      <trkpt lat="45.92552" lon="4.75999">
        <ele>154.800003052</ele>
        <time>2015-07-06T10:31:22.991Z</time>
      </trkpt>
      <trkpt lat="45.92547" lon="4.75996">
        <ele>155.300003052</ele>
        <time>2015-07-06T10:31:23.996Z</time>
      </trkpt>
      <trkpt lat="45.92541" lon="4.75993">
        <ele>155.399993896</ele>
        <time>2015-07-06T10:31:24.993Z</time>
      </trkpt>
      <trkpt lat="45.92536" lon="4.7599">
        <ele>155.699996948</ele>
        <time>2015-07-06T10:31:25.994Z</time>
      </trkpt>
      <trkpt lat="45.92531" lon="4.75987">
        <ele>155.899993896</ele>
        <time>2015-07-06T10:31:26.993Z</time>
      </trkpt>
      <trkpt lat="45.92527" lon="4.75984">
        <ele>156.100006104</ele>
        <time>2015-07-06T10:31:28.008Z</time>
      </trkpt>
      <trkpt lat="45.92522" lon="4.75981">
        <ele>156.300003052</ele>
        <time>2015-07-06T10:31:28.993Z</time>
      </trkpt>
      <trkpt lat="45.92515" lon="4.7598">
        <ele>159.699996948</ele>
        <time>2015-07-06T10:31:29.997Z</time>
      </trkpt>
      <trkpt lat="45.92509" lon="4.75978">
        <ele>161.699996948</ele>
        <time>2015-07-06T10:31:31.043Z</time>
      </trkpt>
      <trkpt lat="45.92505" lon="4.75973">
        <ele>162.699996948</ele>
        <time>2015-07-06T10:31:31.992Z</time>
      </trkpt>
      <trkpt lat="45.925" lon="4.75971">
        <ele>163.5</ele>
        <time>2015-07-06T10:31:32.993Z</time>
      </trkpt>
      <trkpt lat="45.92495" lon="4.75968">
        <ele>164.199996948</ele>
        <time>2015-07-06T10:31:34.033Z</time>
      </trkpt>
      <trkpt lat="45.92489" lon="4.75965">
        <ele>164.800003052</ele>
        <time>2015-07-06T10:31:34.994Z</time>
      </trkpt>
      <trkpt lat="45.92484" lon="4.75961">
        <ele>165.300003052</ele>
        <time>2015-07-06T10:31:35.993Z</time>
      </trkpt>
      <trkpt lat="45.92479" lon="4.75958">
        <ele>165.600006104</ele>
        <time>2015-07-06T10:31:36.993Z</time>
      </trkpt>
      <trkpt lat="45.92473" lon="4.75955">
        <ele>165.800003052</ele>
        <time>2015-07-06T10:31:37.996Z</time>
      </trkpt>
      <trkpt lat="45.92468" lon="4.75951">
        <ele>166</ele>
        <time>2015-07-06T10:31:38.993Z</time>
      </trkpt>
      <trkpt lat="45.92464" lon="4.75948">
        <ele>166.199996948</ele>
        <time>2015-07-06T10:31:39.991Z</time>
      </trkpt>
      <trkpt lat="45.92459" lon="4.75944">
        <ele>166.300003052</ele>
        <time>2015-07-06T10:31:40.991Z</time>
      </trkpt>
      <trkpt lat="45.92454" lon="4.7594">
        <ele>166.800003052</ele>
        <time>2015-07-06T10:31:41.994Z</time>
      </trkpt>
      <trkpt lat="45.92448" lon="4.75937">
        <ele>166.899993896</ele>
        <time>2015-07-06T10:31:43.016Z</time>
      </trkpt>
      <trkpt lat="45.92442" lon="4.75933">
        <ele>167</ele>
        <time>2015-07-06T10:31:43.993Z</time>
      </trkpt>
      <trkpt lat="45.92436" lon="4.75929">
        <ele>167</ele>
        <time>2015-07-06T10:31:44.993Z</time>
      </trkpt>
      <trkpt lat="45.92429" lon="4.75925">
        <ele>166.899993896</ele>
        <time>2015-07-06T10:31:45.994Z</time>
      </trkpt>
      <trkpt lat="45.92422" lon="4.75921">
        <ele>167.100006104</ele>
        <time>2015-07-06T10:31:46.993Z</time>
      </trkpt>
      <trkpt lat="45.92416" lon="4.75917">
        <ele>167.100006104</ele>
        <time>2015-07-06T10:31:47.997Z</time>
      </trkpt>
      <trkpt lat="45.9241" lon="4.75912">
        <ele>167.100006104</ele>
        <time>2015-07-06T10:31:49.01Z</time>
      </trkpt>
      <trkpt lat="45.92403" lon="4.75908">
        <ele>167.100006104</ele>
        <time>2015-07-06T10:31:49.994Z</time>
      </trkpt>
      <trkpt lat="45.92397" lon="4.75903">
        <ele>167</ele>
        <time>2015-07-06T10:31:50.993Z</time>
      </trkpt>
      <trkpt lat="45.92391" lon="4.75899">
        <ele>167.100006104</ele>
        <time>2015-07-06T10:31:51.993Z</time>
      </trkpt>
      <trkpt lat="45.92385" lon="4.75894">
        <ele>167.199996948</ele>
        <time>2015-07-06T10:31:52.993Z</time>
      </trkpt>
      <trkpt lat="45.92379" lon="4.7589">
        <ele>167.100006104</ele>
        <time>2015-07-06T10:31:53.993Z</time>
      </trkpt>
      <trkpt lat="45.92374" lon="4.75886">
        <ele>166.899993896</ele>
        <time>2015-07-06T10:31:54.991Z</time>
      </trkpt>
      <trkpt lat="45.92368" lon="4.75881">
        <ele>166.699996948</ele>
        <time>2015-07-06T10:31:55.992Z</time>
      </trkpt>
      <trkpt lat="45.92362" lon="4.75877">
        <ele>166.699996948</ele>
        <time>2015-07-06T10:31:56.991Z</time>
      </trkpt>
      <trkpt lat="45.92356" lon="4.75874">
        <ele>166.699996948</ele>
        <time>2015-07-06T10:31:57.994Z</time>
      </trkpt>
      <trkpt lat="45.9235" lon="4.7587">
        <ele>166.699996948</ele>
        <time>2015-07-06T10:31:58.991Z</time>
      </trkpt>
      <trkpt lat="45.92344" lon="4.75867">
        <ele>166.199996948</ele>
        <time>2015-07-06T10:31:59.994Z</time>
      </trkpt>
      <trkpt lat="45.92338" lon="4.75862">
        <ele>166.100006104</ele>
        <time>2015-07-06T10:32:00.991Z</time>
      </trkpt>
      <trkpt lat="45.92331" lon="4.75858">
        <ele>166</ele>
        <time>2015-07-06T10:32:01.991Z</time>
      </trkpt>
      <trkpt lat="45.92326" lon="4.75854">
        <ele>165.800003052</ele>
        <time>2015-07-06T10:32:02.993Z</time>
      </trkpt>
      <trkpt lat="45.92321" lon="4.75849">
        <ele>165.699996948</ele>
        <time>2015-07-06T10:32:03.999Z</time>
      </trkpt>
      <trkpt lat="45.92316" lon="4.75845">
        <ele>165.600006104</ele>
        <time>2015-07-06T10:32:05.009Z</time>
      </trkpt>
      <trkpt lat="45.92311" lon="4.75842">
        <ele>165.399993896</ele>
        <time>2015-07-06T10:32:05.993Z</time>
      </trkpt>
      <trkpt lat="45.92306" lon="4.75839">
        <ele>165.199996948</ele>
        <time>2015-07-06T10:32:06.991Z</time>
      </trkpt>
      <trkpt lat="45.923" lon="4.75836">
        <ele>165.199996948</ele>
        <time>2015-07-06T10:32:07.992Z</time>
      </trkpt>
      <trkpt lat="45.92294" lon="4.75832">
        <ele>165.199996948</ele>
        <time>2015-07-06T10:32:08.993Z</time>
      </trkpt>
      <trkpt lat="45.92288" lon="4.75829">
        <ele>165.100006104</ele>
        <time>2015-07-06T10:32:09.993Z</time>
      </trkpt>
      <trkpt lat="45.92282" lon="4.75825">
        <ele>165</ele>
        <time>2015-07-06T10:32:10.991Z</time>
      </trkpt>
      <trkpt lat="45.92277" lon="4.75821">
        <ele>165</ele>
        <time>2015-07-06T10:32:11.998Z</time>
      </trkpt>
      <trkpt lat="45.92273" lon="4.75816">
        <ele>164.899993896</ele>
        <time>2015-07-06T10:32:12.991Z</time>
      </trkpt>
      <trkpt lat="45.92269" lon="4.75809">
        <ele>164.800003052</ele>
        <time>2015-07-06T10:32:13.991Z</time>
      </trkpt>
      <trkpt lat="45.92266" lon="4.75803">
        <ele>164.800003052</ele>
        <time>2015-07-06T10:32:14.991Z</time>
      </trkpt>
      <trkpt lat="45.92262" lon="4.75795">
        <ele>164.800003052</ele>
        <time>2015-07-06T10:32:16.035Z</time>
      </trkpt>
      <trkpt lat="45.92259" lon="4.75787">
        <ele>165</ele>
        <time>2015-07-06T10:32:16.993Z</time>
      </trkpt>
      <trkpt lat="45.92258" lon="4.75779">
        <ele>165.100006104</ele>
        <time>2015-07-06T10:32:17.994Z</time>
      </trkpt>
      <trkpt lat="45.92256" lon="4.7577">
        <ele>165.100006104</ele>
        <time>2015-07-06T10:32:18.993Z</time>
      </trkpt>
      <trkpt lat="45.92254" lon="4.75761">
        <ele>165.100006104</ele>
        <time>2015-07-06T10:32:19.993Z</time>
      </trkpt>
      <trkpt lat="45.92252" lon="4.75753">
        <ele>165</ele>
        <time>2015-07-06T10:32:21.01Z</time>
      </trkpt>
      <trkpt lat="45.9225" lon="4.75744">
        <ele>165.100006104</ele>
        <time>2015-07-06T10:32:21.993Z</time>
      </trkpt>
      <trkpt lat="45.92248" lon="4.75735">
        <ele>165.199996948</ele>
        <time>2015-07-06T10:32:22.993Z</time>
      </trkpt>
      <trkpt lat="45.92245" lon="4.75727">
        <ele>165.600006104</ele>
        <time>2015-07-06T10:32:23.997Z</time>
      </trkpt>
      <trkpt lat="45.92242" lon="4.7572">
        <ele>165.600006104</ele>
        <time>2015-07-06T10:32:24.993Z</time>
      </trkpt>
      <trkpt lat="45.92239" lon="4.75713">
        <ele>165.600006104</ele>
        <time>2015-07-06T10:32:25.993Z</time>
      </trkpt>
      <trkpt lat="45.92235" lon="4.75706">
        <ele>165.699996948</ele>
        <time>2015-07-06T10:32:26.991Z</time>
      </trkpt>
      <trkpt lat="45.92231" lon="4.75699">
        <ele>165.699996948</ele>
        <time>2015-07-06T10:32:27.991Z</time>
      </trkpt>
      <trkpt lat="45.92226" lon="4.75693">
        <ele>165.800003052</ele>
        <time>2015-07-06T10:32:28.993Z</time>
      </trkpt>
      <trkpt lat="45.92221" lon="4.75688">
        <ele>165.800003052</ele>
        <time>2015-07-06T10:32:29.997Z</time>
      </trkpt>
      <trkpt lat="45.92216" lon="4.75683">
        <ele>165.899993896</ele>
        <time>2015-07-06T10:32:30.993Z</time>
      </trkpt>
      <trkpt lat="45.9221" lon="4.75677">
        <ele>165.800003052</ele>
        <time>2015-07-06T10:32:31.993Z</time>
      </trkpt>
      <trkpt lat="45.92206" lon="4.75671">
        <ele>165.899993896</ele>
        <time>2015-07-06T10:32:32.993Z</time>
      </trkpt>
      <trkpt lat="45.922" lon="4.75666">
        <ele>166.199996948</ele>
        <time>2015-07-06T10:32:33.993Z</time>
      </trkpt>
      <trkpt lat="45.92195" lon="4.7566">
        <ele>166.199996948</ele>
        <time>2015-07-06T10:32:34.993Z</time>
      </trkpt>
      <trkpt lat="45.92189" lon="4.75655">
        <ele>166.300003052</ele>
        <time>2015-07-06T10:32:35.995Z</time>
      </trkpt>
      <trkpt lat="45.92184" lon="4.7565">
        <ele>166.600006104</ele>
        <time>2015-07-06T10:32:37.03Z</time>
      </trkpt>
      <trkpt lat="45.92178" lon="4.75644">
        <ele>167.199996948</ele>
        <time>2015-07-06T10:32:38.035Z</time>
      </trkpt>
      <trkpt lat="45.92173" lon="4.75639">
        <ele>167.5</ele>
        <time>2015-07-06T10:32:39.022Z</time>
      </trkpt>
      <trkpt lat="45.92167" lon="4.75634">
        <ele>167.699996948</ele>
        <time>2015-07-06T10:32:39.991Z</time>
      </trkpt>
      <trkpt lat="45.92162" lon="4.7563">
        <ele>167.899993896</ele>
        <time>2015-07-06T10:32:40.993Z</time>
      </trkpt>
      <trkpt lat="45.92158" lon="4.75625">
        <ele>167.899993896</ele>
        <time>2015-07-06T10:32:41.993Z</time>
      </trkpt>
      <trkpt lat="45.92154" lon="4.7562">
        <ele>167.899993896</ele>
        <time>2015-07-06T10:32:42.991Z</time>
      </trkpt>
      <trkpt lat="45.9215" lon="4.75616">
        <ele>167.800003052</ele>
        <time>2015-07-06T10:32:43.992Z</time>
      </trkpt>
      <trkpt lat="45.92145" lon="4.75611">
        <ele>167.899993896</ele>
        <time>2015-07-06T10:32:44.991Z</time>
      </trkpt>
      <trkpt lat="45.92141" lon="4.75606">
        <ele>168.100006104</ele>
        <time>2015-07-06T10:32:45.993Z</time>
      </trkpt>
      <trkpt lat="45.92137" lon="4.75601">
        <ele>168.100006104</ele>
        <time>2015-07-06T10:32:46.993Z</time>
      </trkpt>
      <trkpt lat="45.92134" lon="4.75595">
        <ele>168.199996948</ele>
        <time>2015-07-06T10:32:47.995Z</time>
      </trkpt>
      <trkpt lat="45.9213" lon="4.75591">
        <ele>168.5</ele>
        <time>2015-07-06T10:32:48.993Z</time>
      </trkpt>
      <trkpt lat="45.92127" lon="4.75587">
        <ele>168.600006104</ele>
        <time>2015-07-06T10:32:50.036Z</time>
      </trkpt>
      <trkpt lat="45.9212" lon="4.75578">
        <ele>168.800003052</ele>
        <time>2015-07-06T10:32:51.993Z</time>
      </trkpt>
      <trkpt lat="45.92119" lon="4.75573">
        <ele>168.899993896</ele>
        <time>2015-07-06T10:32:53.008Z</time>
      </trkpt>
      <trkpt lat="45.92122" lon="4.75561">
        <ele>169.199996948</ele>
        <time>2015-07-06T10:32:54.99Z</time>
      </trkpt>
      <trkpt lat="45.92122" lon="4.75555">
        <ele>169.300003052</ele>
        <time>2015-07-06T10:32:55.995Z</time>
      </trkpt>
      <trkpt lat="45.92125" lon="4.75549">
        <ele>169.5</ele>
        <time>2015-07-06T10:32:56.993Z</time>
      </trkpt>
      <trkpt lat="45.92128" lon="4.75543">
        <ele>169.800003052</ele>
        <time>2015-07-06T10:32:57.99Z</time>
      </trkpt>
      <trkpt lat="45.92131" lon="4.75538">
        <ele>170</ele>
        <time>2015-07-06T10:32:58.99Z</time>
      </trkpt>
      <trkpt lat="45.92135" lon="4.75532">
        <ele>170.399993896</ele>
        <time>2015-07-06T10:32:59.997Z</time>
      </trkpt>
      <trkpt lat="45.92138" lon="4.75527">
        <ele>170.800003052</ele>
        <time>2015-07-06T10:33:00.993Z</time>
      </trkpt>
      <trkpt lat="45.92141" lon="4.7552">
        <ele>171.199996948</ele>
        <time>2015-07-06T10:33:01.994Z</time>
      </trkpt>
      <trkpt lat="45.92144" lon="4.75515">
        <ele>171.600006104</ele>
        <time>2015-07-06T10:33:02.993Z</time>
      </trkpt>
      <trkpt lat="45.92147" lon="4.75508">
        <ele>171.899993896</ele>
        <time>2015-07-06T10:33:03.999Z</time>
      </trkpt>
      <trkpt lat="45.9215" lon="4.75501">
        <ele>172.199996948</ele>
        <time>2015-07-06T10:33:04.993Z</time>
      </trkpt>
      <trkpt lat="45.92152" lon="4.75493">
        <ele>172.699996948</ele>
        <time>2015-07-06T10:33:05.997Z</time>
      </trkpt>
      <trkpt lat="45.92155" lon="4.75486">
        <ele>173</ele>
        <time>2015-07-06T10:33:06.991Z</time>
      </trkpt>
      <trkpt lat="45.92157" lon="4.75479">
        <ele>173.199996948</ele>
        <time>2015-07-06T10:33:07.992Z</time>
      </trkpt>
      <trkpt lat="45.92159" lon="4.75472">
        <ele>173.300003052</ele>
        <time>2015-07-06T10:33:09.041Z</time>
      </trkpt>
      <trkpt lat="45.92162" lon="4.75465">
        <ele>173.5</ele>
        <time>2015-07-06T10:33:09.992Z</time>
      </trkpt>
      <trkpt lat="45.92164" lon="4.75458">
        <ele>173.600006104</ele>
        <time>2015-07-06T10:33:10.991Z</time>
      </trkpt>
      <trkpt lat="45.92167" lon="4.75451">
        <ele>173.699996948</ele>
        <time>2015-07-06T10:33:11.998Z</time>
      </trkpt>
      <trkpt lat="45.9217" lon="4.75445">
        <ele>173.800003052</ele>
        <time>2015-07-06T10:33:12.995Z</time>
      </trkpt>
      <trkpt lat="45.92172" lon="4.75437">
        <ele>173.899993896</ele>
        <time>2015-07-06T10:33:13.993Z</time>
      </trkpt>
      <trkpt lat="45.92174" lon="4.75431">
        <ele>174.199996948</ele>
        <time>2015-07-06T10:33:14.991Z</time>
      </trkpt>
      <trkpt lat="45.92177" lon="4.75423">
        <ele>174.399993896</ele>
        <time>2015-07-06T10:33:15.993Z</time>
      </trkpt>
      <trkpt lat="45.92179" lon="4.75416">
        <ele>174.199996948</ele>
        <time>2015-07-06T10:33:16.993Z</time>
      </trkpt>
      <trkpt lat="45.92182" lon="4.75409">
        <ele>174.5</ele>
        <time>2015-07-06T10:33:17.999Z</time>
      </trkpt>
      <trkpt lat="45.92184" lon="4.75403">
        <ele>174.199996948</ele>
        <time>2015-07-06T10:33:18.993Z</time>
      </trkpt>
      <trkpt lat="45.92186" lon="4.75396">
        <ele>174.300003052</ele>
        <time>2015-07-06T10:33:19.991Z</time>
      </trkpt>
      <trkpt lat="45.92189" lon="4.75388">
        <ele>174.399993896</ele>
        <time>2015-07-06T10:33:20.992Z</time>
      </trkpt>
      <trkpt lat="45.92192" lon="4.75382">
        <ele>174.600006104</ele>
        <time>2015-07-06T10:33:22.052Z</time>
      </trkpt>
      <trkpt lat="45.92195" lon="4.75375">
        <ele>175.100006104</ele>
        <time>2015-07-06T10:33:22.991Z</time>
      </trkpt>
      <trkpt lat="45.92198" lon="4.75368">
        <ele>174.800003052</ele>
        <time>2015-07-06T10:33:23.993Z</time>
      </trkpt>
      <trkpt lat="45.92201" lon="4.7536">
        <ele>174.5</ele>
        <time>2015-07-06T10:33:25.009Z</time>
      </trkpt>
      <trkpt lat="45.92202" lon="4.75353">
        <ele>174.899993896</ele>
        <time>2015-07-06T10:33:25.991Z</time>
      </trkpt>
      <trkpt lat="45.922" lon="4.75343">
        <ele>175.199996948</ele>
        <time>2015-07-06T10:33:26.993Z</time>
      </trkpt>
      <trkpt lat="45.92201" lon="4.75332">
        <ele>174.300003052</ele>
        <time>2015-07-06T10:33:27.989Z</time>
      </trkpt>
      <trkpt lat="45.92203" lon="4.75323">
        <ele>173.800003052</ele>
        <time>2015-07-06T10:33:28.991Z</time>
      </trkpt>
      <trkpt lat="45.92205" lon="4.75314">
        <ele>173.300003052</ele>
        <time>2015-07-06T10:33:29.993Z</time>
      </trkpt>
      <trkpt lat="45.92206" lon="4.75306">
        <ele>173</ele>
        <time>2015-07-06T10:33:31.01Z</time>
      </trkpt>
      <trkpt lat="45.92207" lon="4.75297">
        <ele>172.5</ele>
        <time>2015-07-06T10:33:31.991Z</time>
      </trkpt>
      <trkpt lat="45.92209" lon="4.75289">
        <ele>173</ele>
        <time>2015-07-06T10:33:32.993Z</time>
      </trkpt>
      <trkpt lat="45.92211" lon="4.7528">
        <ele>172.800003052</ele>
        <time>2015-07-06T10:33:33.993Z</time>
      </trkpt>
      <trkpt lat="45.9221" lon="4.75271">
        <ele>172.600006104</ele>
        <time>2015-07-06T10:33:34.991Z</time>
      </trkpt>
      <trkpt lat="45.9221" lon="4.75262">
        <ele>172.399993896</ele>
        <time>2015-07-06T10:33:35.993Z</time>
      </trkpt>
      <trkpt lat="45.9221" lon="4.75253">
        <ele>172.399993896</ele>
        <time>2015-07-06T10:33:36.993Z</time>
      </trkpt>
      <trkpt lat="45.92211" lon="4.75244">
        <ele>172.600006104</ele>
        <time>2015-07-06T10:33:37.991Z</time>
      </trkpt>
      <trkpt lat="45.92211" lon="4.75235">
        <ele>172.800003052</ele>
        <time>2015-07-06T10:33:38.99Z</time>
      </trkpt>
      <trkpt lat="45.92211" lon="4.75226">
        <ele>172.699996948</ele>
        <time>2015-07-06T10:33:39.99Z</time>
      </trkpt>
      <trkpt lat="45.92212" lon="4.75215">
        <ele>172.100006104</ele>
        <time>2015-07-06T10:33:41.008Z</time>
      </trkpt>
      <trkpt lat="45.92213" lon="4.75205">
        <ele>172</ele>
        <time>2015-07-06T10:33:41.992Z</time>
      </trkpt>
      <trkpt lat="45.92215" lon="4.75196">
        <ele>171.5</ele>
        <time>2015-07-06T10:33:42.993Z</time>
      </trkpt>
      <trkpt lat="45.92218" lon="4.75186">
        <ele>171</ele>
        <time>2015-07-06T10:33:43.994Z</time>
      </trkpt>
      <trkpt lat="45.92222" lon="4.75176">
        <ele>170.600006104</ele>
        <time>2015-07-06T10:33:44.99Z</time>
      </trkpt>
      <trkpt lat="45.92226" lon="4.75167">
        <ele>170.399993896</ele>
        <time>2015-07-06T10:33:45.993Z</time>
      </trkpt>
      <trkpt lat="45.9223" lon="4.75157">
        <ele>170</ele>
        <time>2015-07-06T10:33:46.991Z</time>
      </trkpt>
      <trkpt lat="45.92235" lon="4.75148">
        <ele>170.5</ele>
        <time>2015-07-06T10:33:47.997Z</time>
      </trkpt>
      <trkpt lat="45.9224" lon="4.7514">
        <ele>170.5</ele>
        <time>2015-07-06T10:33:48.992Z</time>
      </trkpt>
      <trkpt lat="45.92246" lon="4.75131">
        <ele>170.399993896</ele>
        <time>2015-07-06T10:33:49.993Z</time>
      </trkpt>
      <trkpt lat="45.92252" lon="4.75122">
        <ele>170.399993896</ele>
        <time>2015-07-06T10:33:50.992Z</time>
      </trkpt>
      <trkpt lat="45.92258" lon="4.75115">
        <ele>170.399993896</ele>
        <time>2015-07-06T10:33:51.989Z</time>
      </trkpt>
      <trkpt lat="45.92264" lon="4.75109">
        <ele>170.5</ele>
        <time>2015-07-06T10:33:52.992Z</time>
      </trkpt>
      <trkpt lat="45.9227" lon="4.75102">
        <ele>170.600006104</ele>
        <time>2015-07-06T10:33:53.993Z</time>
      </trkpt>
      <trkpt lat="45.92276" lon="4.75096">
        <ele>170.600006104</ele>
        <time>2015-07-06T10:33:54.991Z</time>
      </trkpt>
      <trkpt lat="45.92282" lon="4.7509">
        <ele>170.600006104</ele>
        <time>2015-07-06T10:33:55.992Z</time>
      </trkpt>
      <trkpt lat="45.92288" lon="4.75084">
        <ele>170.600006104</ele>
        <time>2015-07-06T10:33:57.009Z</time>
      </trkpt>
      <trkpt lat="45.92293" lon="4.75078">
        <ele>170.5</ele>
        <time>2015-07-06T10:33:57.99Z</time>
      </trkpt>
      <trkpt lat="45.92298" lon="4.75072">
        <ele>170.399993896</ele>
        <time>2015-07-06T10:33:58.991Z</time>
      </trkpt>
      <trkpt lat="45.92304" lon="4.75066">
        <ele>170.699996948</ele>
        <time>2015-07-06T10:33:59.992Z</time>
      </trkpt>
      <trkpt lat="45.92309" lon="4.75059">
        <ele>171.300003052</ele>
        <time>2015-07-06T10:34:00.99Z</time>
      </trkpt>
      <trkpt lat="45.92314" lon="4.75052">
        <ele>171.600006104</ele>
        <time>2015-07-06T10:34:01.991Z</time>
      </trkpt>
      <trkpt lat="45.92318" lon="4.75044">
        <ele>171.600006104</ele>
        <time>2015-07-06T10:34:02.99Z</time>
      </trkpt>
      <trkpt lat="45.92322" lon="4.75037">
        <ele>171.800003052</ele>
        <time>2015-07-06T10:34:03.99Z</time>
      </trkpt>
      <trkpt lat="45.92326" lon="4.75029">
        <ele>172.399993896</ele>
        <time>2015-07-06T10:34:04.991Z</time>
      </trkpt>
      <trkpt lat="45.9233" lon="4.75021">
        <ele>172.600006104</ele>
        <time>2015-07-06T10:34:05.997Z</time>
      </trkpt>
      <trkpt lat="45.92334" lon="4.75013">
        <ele>172.699996948</ele>
        <time>2015-07-06T10:34:06.991Z</time>
      </trkpt>
      <trkpt lat="45.92338" lon="4.75005">
        <ele>172.800003052</ele>
        <time>2015-07-06T10:34:07.991Z</time>
      </trkpt>
      <trkpt lat="45.92341" lon="4.74996">
        <ele>172.899993896</ele>
        <time>2015-07-06T10:34:08.99Z</time>
      </trkpt>
      <trkpt lat="45.92345" lon="4.74987">
        <ele>173</ele>
        <time>2015-07-06T10:34:09.99Z</time>
      </trkpt>
      <trkpt lat="45.92348" lon="4.74979">
        <ele>173.600006104</ele>
        <time>2015-07-06T10:34:10.99Z</time>
      </trkpt>
      <trkpt lat="45.92351" lon="4.7497">
        <ele>174.199996948</ele>
        <time>2015-07-06T10:34:11.996Z</time>
      </trkpt>
      <trkpt lat="45.92354" lon="4.74963">
        <ele>174.399993896</ele>
        <time>2015-07-06T10:34:13.007Z</time>
      </trkpt>
      <trkpt lat="45.92357" lon="4.74954">
        <ele>174.899993896</ele>
        <time>2015-07-06T10:34:13.995Z</time>
      </trkpt>
      <trkpt lat="45.9236" lon="4.74947">
        <ele>175.300003052</ele>
        <time>2015-07-06T10:34:14.991Z</time>
      </trkpt>
      <trkpt lat="45.92362" lon="4.74939">
        <ele>175.699996948</ele>
        <time>2015-07-06T10:34:15.99Z</time>
      </trkpt>
      <trkpt lat="45.92365" lon="4.74932">
        <ele>175.899993896</ele>
        <time>2015-07-06T10:34:16.99Z</time>
      </trkpt>
      <trkpt lat="45.92368" lon="4.74924">
        <ele>175.600006104</ele>
        <time>2015-07-06T10:34:17.993Z</time>
      </trkpt>
      <trkpt lat="45.92371" lon="4.74917">
        <ele>175.5</ele>
        <time>2015-07-06T10:34:18.99Z</time>
      </trkpt>
      <trkpt lat="45.92375" lon="4.7491">
        <ele>175.899993896</ele>
        <time>2015-07-06T10:34:19.993Z</time>
      </trkpt>
      <trkpt lat="45.92378" lon="4.74902">
        <ele>175.899993896</ele>
        <time>2015-07-06T10:34:20.992Z</time>
      </trkpt>
      <trkpt lat="45.92381" lon="4.74894">
        <ele>175.5</ele>
        <time>2015-07-06T10:34:21.994Z</time>
      </trkpt>
      <trkpt lat="45.92384" lon="4.74887">
        <ele>175.300003052</ele>
        <time>2015-07-06T10:34:22.99Z</time>
      </trkpt>
      <trkpt lat="45.92387" lon="4.74879">
        <ele>175.100006104</ele>
        <time>2015-07-06T10:34:24.032Z</time>
      </trkpt>
      <trkpt lat="45.9239" lon="4.74872">
        <ele>174.800003052</ele>
        <time>2015-07-06T10:34:24.991Z</time>
      </trkpt>
      <trkpt lat="45.92393" lon="4.74864">
        <ele>174.5</ele>
        <time>2015-07-06T10:34:25.992Z</time>
      </trkpt>
      <trkpt lat="45.92396" lon="4.74856">
        <ele>174.100006104</ele>
        <time>2015-07-06T10:34:26.992Z</time>
      </trkpt>
      <trkpt lat="45.92399" lon="4.74848">
        <ele>173.899993896</ele>
        <time>2015-07-06T10:34:27.991Z</time>
      </trkpt>
      <trkpt lat="45.92402" lon="4.7484">
        <ele>173.899993896</ele>
        <time>2015-07-06T10:34:29.01Z</time>
      </trkpt>
      <trkpt lat="45.92404" lon="4.74831">
        <ele>173.800003052</ele>
        <time>2015-07-06T10:34:29.996Z</time>
      </trkpt>
      <trkpt lat="45.92407" lon="4.74823">
        <ele>173.800003052</ele>
        <time>2015-07-06T10:34:30.991Z</time>
      </trkpt>
      <trkpt lat="45.9241" lon="4.74813">
        <ele>173.199996948</ele>
        <time>2015-07-06T10:34:31.994Z</time>
      </trkpt>
      <trkpt lat="45.92413" lon="4.74804">
        <ele>172.800003052</ele>
        <time>2015-07-06T10:34:32.991Z</time>
      </trkpt>
      <trkpt lat="45.92416" lon="4.74795">
        <ele>171.399993896</ele>
        <time>2015-07-06T10:34:33.99Z</time>
      </trkpt>
      <trkpt lat="45.92419" lon="4.74787">
        <ele>171.199996948</ele>
        <time>2015-07-06T10:34:35.042Z</time>
      </trkpt>
      <trkpt lat="45.92421" lon="4.74778">
        <ele>171.199996948</ele>
        <time>2015-07-06T10:34:35.993Z</time>
      </trkpt>
      <trkpt lat="45.92423" lon="4.74769">
        <ele>170.800003052</ele>
        <time>2015-07-06T10:34:36.993Z</time>
      </trkpt>
      <trkpt lat="45.92426" lon="4.7476">
        <ele>170.699996948</ele>
        <time>2015-07-06T10:34:37.992Z</time>
      </trkpt>
      <trkpt lat="45.92428" lon="4.74751">
        <ele>170.399993896</ele>
        <time>2015-07-06T10:34:38.99Z</time>
      </trkpt>
      <trkpt lat="45.92431" lon="4.74742">
        <ele>170.100006104</ele>
        <time>2015-07-06T10:34:39.994Z</time>
      </trkpt>
      <trkpt lat="45.92434" lon="4.74734">
        <ele>169.899993896</ele>
        <time>2015-07-06T10:34:40.991Z</time>
      </trkpt>
      <trkpt lat="45.92437" lon="4.74725">
        <ele>169.600006104</ele>
        <time>2015-07-06T10:34:41.992Z</time>
      </trkpt>
      <trkpt lat="45.9244" lon="4.74718">
        <ele>170</ele>
        <time>2015-07-06T10:34:42.99Z</time>
      </trkpt>
      <trkpt lat="45.92443" lon="4.74711">
        <ele>169.399993896</ele>
        <time>2015-07-06T10:34:43.991Z</time>
      </trkpt>
      <trkpt lat="45.92446" lon="4.74703">
        <ele>169.300003052</ele>
        <time>2015-07-06T10:34:44.99Z</time>
      </trkpt>
      <trkpt lat="45.92449" lon="4.74696">
        <ele>169.100006104</ele>
        <time>2015-07-06T10:34:45.992Z</time>
      </trkpt>
      <trkpt lat="45.92452" lon="4.74689">
        <ele>168.699996948</ele>
        <time>2015-07-06T10:34:47.012Z</time>
      </trkpt>
      <trkpt lat="45.92456" lon="4.74682">
        <ele>168.199996948</ele>
        <time>2015-07-06T10:34:47.993Z</time>
      </trkpt>
      <trkpt lat="45.9246" lon="4.74675">
        <ele>167.399993896</ele>
        <time>2015-07-06T10:34:48.993Z</time>
      </trkpt>
      <trkpt lat="45.92464" lon="4.74669">
        <ele>167.199996948</ele>
        <time>2015-07-06T10:34:50.014Z</time>
      </trkpt>
      <trkpt lat="45.92468" lon="4.74661">
        <ele>167</ele>
        <time>2015-07-06T10:34:50.994Z</time>
      </trkpt>
      <trkpt lat="45.92471" lon="4.74654">
        <ele>166.800003052</ele>
        <time>2015-07-06T10:34:51.989Z</time>
      </trkpt>
      <trkpt lat="45.92476" lon="4.74647">
        <ele>166.5</ele>
        <time>2015-07-06T10:34:52.992Z</time>
      </trkpt>
      <trkpt lat="45.92481" lon="4.74641">
        <ele>166.300003052</ele>
        <time>2015-07-06T10:34:53.996Z</time>
      </trkpt>
      <trkpt lat="45.92485" lon="4.74634">
        <ele>166.100006104</ele>
        <time>2015-07-06T10:34:54.992Z</time>
      </trkpt>
      <trkpt lat="45.92489" lon="4.74628">
        <ele>165.699996948</ele>
        <time>2015-07-06T10:34:56.052Z</time>
      </trkpt>
      <trkpt lat="45.92493" lon="4.74621">
        <ele>165.399993896</ele>
        <time>2015-07-06T10:34:56.991Z</time>
      </trkpt>
      <trkpt lat="45.92498" lon="4.74616">
        <ele>165.100006104</ele>
        <time>2015-07-06T10:34:57.99Z</time>
      </trkpt>
      <trkpt lat="45.92503" lon="4.7461">
        <ele>164.800003052</ele>
        <time>2015-07-06T10:34:58.99Z</time>
      </trkpt>
      <trkpt lat="45.92509" lon="4.74604">
        <ele>164.600006104</ele>
        <time>2015-07-06T10:34:59.996Z</time>
      </trkpt>
      <trkpt lat="45.92514" lon="4.74598">
        <ele>164.399993896</ele>
        <time>2015-07-06T10:35:00.993Z</time>
      </trkpt>
      <trkpt lat="45.92519" lon="4.74592">
        <ele>164.199996948</ele>
        <time>2015-07-06T10:35:01.991Z</time>
      </trkpt>
      <trkpt lat="45.92524" lon="4.74586">
        <ele>164.100006104</ele>
        <time>2015-07-06T10:35:02.99Z</time>
      </trkpt>
      <trkpt lat="45.9253" lon="4.7458">
        <ele>163.800003052</ele>
        <time>2015-07-06T10:35:03.99Z</time>
      </trkpt>
      <trkpt lat="45.92535" lon="4.74575">
        <ele>163.300003052</ele>
        <time>2015-07-06T10:35:04.99Z</time>
      </trkpt>
      <trkpt lat="45.92539" lon="4.74568">
        <ele>163.600006104</ele>
        <time>2015-07-06T10:35:05.992Z</time>
      </trkpt>
      <trkpt lat="45.92544" lon="4.74561">
        <ele>163.300003052</ele>
        <time>2015-07-06T10:35:06.991Z</time>
      </trkpt>
      <trkpt lat="45.92548" lon="4.74553">
        <ele>163</ele>
        <time>2015-07-06T10:35:07.993Z</time>
      </trkpt>
      <trkpt lat="45.92552" lon="4.74546">
        <ele>162.600006104</ele>
        <time>2015-07-06T10:35:08.99Z</time>
      </trkpt>
      <trkpt lat="45.92556" lon="4.74539">
        <ele>162.600006104</ele>
        <time>2015-07-06T10:35:09.99Z</time>
      </trkpt>
      <trkpt lat="45.9256" lon="4.74531">
        <ele>162.399993896</ele>
        <time>2015-07-06T10:35:10.99Z</time>
      </trkpt>
      <trkpt lat="45.92564" lon="4.74524">
        <ele>162.399993896</ele>
        <time>2015-07-06T10:35:12.023Z</time>
      </trkpt>
      <trkpt lat="45.92568" lon="4.74517">
        <ele>162.5</ele>
        <time>2015-07-06T10:35:12.992Z</time>
      </trkpt>
      <trkpt lat="45.92572" lon="4.74509">
        <ele>162.399993896</ele>
        <time>2015-07-06T10:35:13.99Z</time>
      </trkpt>
      <trkpt lat="45.92575" lon="4.74503">
        <ele>162.300003052</ele>
        <time>2015-07-06T10:35:14.992Z</time>
      </trkpt>
      <trkpt lat="45.92579" lon="4.74496">
        <ele>162.399993896</ele>
        <time>2015-07-06T10:35:16.008Z</time>
      </trkpt>
      <trkpt lat="45.92583" lon="4.74489">
        <ele>162.399993896</ele>
        <time>2015-07-06T10:35:17.006Z</time>
      </trkpt>
      <trkpt lat="45.92586" lon="4.74483">
        <ele>162.5</ele>
        <time>2015-07-06T10:35:17.977Z</time>
      </trkpt>
      <trkpt lat="45.92589" lon="4.74475">
        <ele>162.600006104</ele>
        <time>2015-07-06T10:35:18.993Z</time>
      </trkpt>
      <trkpt lat="45.92593" lon="4.74469">
        <ele>162.800003052</ele>
        <time>2015-07-06T10:35:19.993Z</time>
      </trkpt>
      <trkpt lat="45.92596" lon="4.74463">
        <ele>163</ele>
        <time>2015-07-06T10:35:20.992Z</time>
      </trkpt>
      <trkpt lat="45.92599" lon="4.74456">
        <ele>163.399993896</ele>
        <time>2015-07-06T10:35:21.992Z</time>
      </trkpt>
      <trkpt lat="45.92603" lon="4.74449">
        <ele>163.600006104</ele>
        <time>2015-07-06T10:35:22.992Z</time>
      </trkpt>
      <trkpt lat="45.92606" lon="4.74442">
        <ele>163.800003052</ele>
        <time>2015-07-06T10:35:23.992Z</time>
      </trkpt>
      <trkpt lat="45.92609" lon="4.74435">
        <ele>163.800003052</ele>
        <time>2015-07-06T10:35:24.99Z</time>
      </trkpt>
      <trkpt lat="45.92613" lon="4.74428">
        <ele>163.699996948</ele>
        <time>2015-07-06T10:35:25.99Z</time>
      </trkpt>
      <trkpt lat="45.92616" lon="4.74421">
        <ele>163.600006104</ele>
        <time>2015-07-06T10:35:26.99Z</time>
      </trkpt>
      <trkpt lat="45.92619" lon="4.74414">
        <ele>163.600006104</ele>
        <time>2015-07-06T10:35:27.99Z</time>
      </trkpt>
      <trkpt lat="45.92623" lon="4.74408">
        <ele>163.300003052</ele>
        <time>2015-07-06T10:35:28.992Z</time>
      </trkpt>
      <trkpt lat="45.92626" lon="4.74401">
        <ele>163.199996948</ele>
        <time>2015-07-06T10:35:29.992Z</time>
      </trkpt>
      <trkpt lat="45.92629" lon="4.74395">
        <ele>163</ele>
        <time>2015-07-06T10:35:30.99Z</time>
      </trkpt>
      <trkpt lat="45.92633" lon="4.74388">
        <ele>162.800003052</ele>
        <time>2015-07-06T10:35:31.991Z</time>
      </trkpt>
      <trkpt lat="45.92637" lon="4.74381">
        <ele>162.600006104</ele>
        <time>2015-07-06T10:35:32.99Z</time>
      </trkpt>
      <trkpt lat="45.92641" lon="4.74374">
        <ele>162.800003052</ele>
        <time>2015-07-06T10:35:33.99Z</time>
      </trkpt>
      <trkpt lat="45.92644" lon="4.74368">
        <ele>162.5</ele>
        <time>2015-07-06T10:35:34.992Z</time>
      </trkpt>
      <trkpt lat="45.92647" lon="4.74362">
        <ele>162.899993896</ele>
        <time>2015-07-06T10:35:35.992Z</time>
      </trkpt>
      <trkpt lat="45.9265" lon="4.74354">
        <ele>163.199996948</ele>
        <time>2015-07-06T10:35:37.006Z</time>
      </trkpt>
      <trkpt lat="45.92653" lon="4.74347">
        <ele>163.300003052</ele>
        <time>2015-07-06T10:35:37.991Z</time>
      </trkpt>
      <trkpt lat="45.92656" lon="4.7434">
        <ele>163.5</ele>
        <time>2015-07-06T10:35:38.991Z</time>
      </trkpt>
      <trkpt lat="45.92659" lon="4.74333">
        <ele>163.800003052</ele>
        <time>2015-07-06T10:35:39.99Z</time>
      </trkpt>
      <trkpt lat="45.92663" lon="4.74326">
        <ele>163.899993896</ele>
        <time>2015-07-06T10:35:40.99Z</time>
      </trkpt>
      <trkpt lat="45.92667" lon="4.7432">
        <ele>164.399993896</ele>
        <time>2015-07-06T10:35:41.995Z</time>
      </trkpt>
      <trkpt lat="45.9267" lon="4.74314">
        <ele>164.600006104</ele>
        <time>2015-07-06T10:35:42.991Z</time>
      </trkpt>
      <trkpt lat="45.92675" lon="4.74307">
        <ele>164.699996948</ele>
        <time>2015-07-06T10:35:43.991Z</time>
      </trkpt>
      <trkpt lat="45.92679" lon="4.743">
        <ele>165.100006104</ele>
        <time>2015-07-06T10:35:45.027Z</time>
      </trkpt>
      <trkpt lat="45.92683" lon="4.74293">
        <ele>165.399993896</ele>
        <time>2015-07-06T10:35:45.99Z</time>
      </trkpt>
      <trkpt lat="45.92687" lon="4.74286">
        <ele>165.5</ele>
        <time>2015-07-06T10:35:46.99Z</time>
      </trkpt>
      <trkpt lat="45.92691" lon="4.74279">
        <ele>165.600006104</ele>
        <time>2015-07-06T10:35:47.996Z</time>
      </trkpt>
      <trkpt lat="45.92694" lon="4.74272">
        <ele>165.199996948</ele>
        <time>2015-07-06T10:35:49.047Z</time>
      </trkpt>
      <trkpt lat="45.92698" lon="4.74267">
        <ele>165.600006104</ele>
        <time>2015-07-06T10:35:49.99Z</time>
      </trkpt>
      <trkpt lat="45.92702" lon="4.74262">
        <ele>165.800003052</ele>
        <time>2015-07-06T10:35:50.993Z</time>
      </trkpt>
      <trkpt lat="45.92705" lon="4.74256">
        <ele>165.800003052</ele>
        <time>2015-07-06T10:35:51.992Z</time>
      </trkpt>
      <trkpt lat="45.92709" lon="4.7425">
        <ele>165.899993896</ele>
        <time>2015-07-06T10:35:53.007Z</time>
      </trkpt>
      <trkpt lat="45.92714" lon="4.74244">
        <ele>166.399993896</ele>
        <time>2015-07-06T10:35:53.992Z</time>
      </trkpt>
      <trkpt lat="45.92718" lon="4.74239">
        <ele>166.899993896</ele>
        <time>2015-07-06T10:35:54.99Z</time>
      </trkpt>
      <trkpt lat="45.92721" lon="4.74232">
        <ele>167</ele>
        <time>2015-07-06T10:35:55.991Z</time>
      </trkpt>
      <trkpt lat="45.92725" lon="4.74226">
        <ele>167.300003052</ele>
        <time>2015-07-06T10:35:56.99Z</time>
      </trkpt>
      <trkpt lat="45.92729" lon="4.7422">
        <ele>167.800003052</ele>
        <time>2015-07-06T10:35:57.99Z</time>
      </trkpt>
      <trkpt lat="45.92733" lon="4.74214">
        <ele>168.399993896</ele>
        <time>2015-07-06T10:35:58.99Z</time>
      </trkpt>
      <trkpt lat="45.92737" lon="4.74208">
        <ele>168.800003052</ele>
        <time>2015-07-06T10:35:59.991Z</time>
      </trkpt>
      <trkpt lat="45.92742" lon="4.74202">
        <ele>168.899993896</ele>
        <time>2015-07-06T10:36:00.993Z</time>
      </trkpt>
      <trkpt lat="45.92747" lon="4.74197">
        <ele>169</ele>
        <time>2015-07-06T10:36:02.005Z</time>
      </trkpt>
      <trkpt lat="45.92753" lon="4.74192">
        <ele>168.800003052</ele>
        <time>2015-07-06T10:36:02.99Z</time>
      </trkpt>
      <trkpt lat="45.92759" lon="4.74187">
        <ele>168.5</ele>
        <time>2015-07-06T10:36:03.991Z</time>
      </trkpt>
      <trkpt lat="45.92764" lon="4.7418">
        <ele>168.600006104</ele>
        <time>2015-07-06T10:36:04.992Z</time>
      </trkpt>
      <trkpt lat="45.92768" lon="4.74177">
        <ele>168.600006104</ele>
        <time>2015-07-06T10:36:05.992Z</time>
      </trkpt>
      <trkpt lat="45.92773" lon="4.74171">
        <ele>168.300003052</ele>
        <time>2015-07-06T10:36:06.99Z</time>
      </trkpt>
      <trkpt lat="45.92776" lon="4.74165">
        <ele>167.699996948</ele>
        <time>2015-07-06T10:36:07.994Z</time>
      </trkpt>
      <trkpt lat="45.92781" lon="4.7416">
        <ele>167.600006104</ele>
        <time>2015-07-06T10:36:08.993Z</time>
      </trkpt>
      <trkpt lat="45.92785" lon="4.74154">
        <ele>167.800003052</ele>
        <time>2015-07-06T10:36:09.99Z</time>
      </trkpt>
      <trkpt lat="45.9279" lon="4.74149">
        <ele>168.199996948</ele>
        <time>2015-07-06T10:36:10.99Z</time>
      </trkpt>
      <trkpt lat="45.92795" lon="4.74144">
        <ele>167.899993896</ele>
        <time>2015-07-06T10:36:12.012Z</time>
      </trkpt>
      <trkpt lat="45.928" lon="4.74138">
        <ele>168</ele>
        <time>2015-07-06T10:36:12.99Z</time>
      </trkpt>
      <trkpt lat="45.92805" lon="4.74133">
        <ele>168.100006104</ele>
        <time>2015-07-06T10:36:14.008Z</time>
      </trkpt>
      <trkpt lat="45.92809" lon="4.74128">
        <ele>168.100006104</ele>
        <time>2015-07-06T10:36:14.993Z</time>
      </trkpt>
      <trkpt lat="45.92814" lon="4.74122">
        <ele>168.100006104</ele>
        <time>2015-07-06T10:36:15.99Z</time>
      </trkpt>
      <trkpt lat="45.92818" lon="4.74117">
        <ele>168.600006104</ele>
        <time>2015-07-06T10:36:17.038Z</time>
      </trkpt>
      <trkpt lat="45.92823" lon="4.74112">
        <ele>169.100006104</ele>
        <time>2015-07-06T10:36:17.992Z</time>
      </trkpt>
      <trkpt lat="45.92827" lon="4.74106">
        <ele>169.199996948</ele>
        <time>2015-07-06T10:36:18.992Z</time>
      </trkpt>
      <trkpt lat="45.92832" lon="4.741">
        <ele>169.300003052</ele>
        <time>2015-07-06T10:36:19.993Z</time>
      </trkpt>
      <trkpt lat="45.92837" lon="4.74095">
        <ele>169.399993896</ele>
        <time>2015-07-06T10:36:20.992Z</time>
      </trkpt>
      <trkpt lat="45.92842" lon="4.7409">
        <ele>169.800003052</ele>
        <time>2015-07-06T10:36:21.995Z</time>
      </trkpt>
      <trkpt lat="45.92847" lon="4.74084">
        <ele>169.899993896</ele>
        <time>2015-07-06T10:36:22.99Z</time>
      </trkpt>
      <trkpt lat="45.92851" lon="4.74078">
        <ele>170</ele>
        <time>2015-07-06T10:36:23.992Z</time>
      </trkpt>
      <trkpt lat="45.92856" lon="4.74073">
        <ele>170.100006104</ele>
        <time>2015-07-06T10:36:24.991Z</time>
      </trkpt>
      <trkpt lat="45.9286" lon="4.74067">
        <ele>170.300003052</ele>
        <time>2015-07-06T10:36:25.99Z</time>
      </trkpt>
      <trkpt lat="45.92865" lon="4.74061">
        <ele>170.199996948</ele>
        <time>2015-07-06T10:36:26.99Z</time>
      </trkpt>
      <trkpt lat="45.9287" lon="4.74056">
        <ele>170.399993896</ele>
        <time>2015-07-06T10:36:27.99Z</time>
      </trkpt>
      <trkpt lat="45.92876" lon="4.74052">
        <ele>170.5</ele>
        <time>2015-07-06T10:36:28.99Z</time>
      </trkpt>
      <trkpt lat="45.92881" lon="4.74049">
        <ele>170.300003052</ele>
        <time>2015-07-06T10:36:29.992Z</time>
      </trkpt>
      <trkpt lat="45.92887" lon="4.74049">
        <ele>170.399993896</ele>
        <time>2015-07-06T10:36:30.99Z</time>
      </trkpt>
      <trkpt lat="45.92893" lon="4.74049">
        <ele>170.199996948</ele>
        <time>2015-07-06T10:36:31.991Z</time>
      </trkpt>
      <trkpt lat="45.92898" lon="4.74048">
        <ele>170.300003052</ele>
        <time>2015-07-06T10:36:32.992Z</time>
      </trkpt>
      <trkpt lat="45.92903" lon="4.74047">
        <ele>170.5</ele>
        <time>2015-07-06T10:36:33.993Z</time>
      </trkpt>
      <trkpt lat="45.92907" lon="4.74044">
        <ele>170.699996948</ele>
        <time>2015-07-06T10:36:35.009Z</time>
      </trkpt>
      <trkpt lat="45.92912" lon="4.7404">
        <ele>170.699996948</ele>
        <time>2015-07-06T10:36:35.992Z</time>
      </trkpt>
      <trkpt lat="45.92916" lon="4.74035">
        <ele>170.899993896</ele>
        <time>2015-07-06T10:36:36.992Z</time>
      </trkpt>
      <trkpt lat="45.92919" lon="4.74027">
        <ele>170.300003052</ele>
        <time>2015-07-06T10:36:37.993Z</time>
      </trkpt>
      <trkpt lat="45.9292" lon="4.74018">
        <ele>170.199996948</ele>
        <time>2015-07-06T10:36:38.992Z</time>
      </trkpt>
      <trkpt lat="45.92919" lon="4.74008">
        <ele>169.100006104</ele>
        <time>2015-07-06T10:36:39.992Z</time>
      </trkpt>
      <trkpt lat="45.92917" lon="4.73999">
        <ele>168.899993896</ele>
        <time>2015-07-06T10:36:40.99Z</time>
      </trkpt>
      <trkpt lat="45.92913" lon="4.73993">
        <ele>168.699996948</ele>
        <time>2015-07-06T10:36:41.996Z</time>
      </trkpt>
      <trkpt lat="45.92908" lon="4.73987">
        <ele>168.600006104</ele>
        <time>2015-07-06T10:36:43.042Z</time>
      </trkpt>
      <trkpt lat="45.92902" lon="4.73983">
        <ele>168.600006104</ele>
        <time>2015-07-06T10:36:43.993Z</time>
      </trkpt>
      <trkpt lat="45.92897" lon="4.73978">
        <ele>168.699996948</ele>
        <time>2015-07-06T10:36:44.992Z</time>
      </trkpt>
      <trkpt lat="45.92893" lon="4.7397">
        <ele>169</ele>
        <time>2015-07-06T10:36:45.99Z</time>
      </trkpt>
      <trkpt lat="45.9289" lon="4.73961">
        <ele>169.100006104</ele>
        <time>2015-07-06T10:36:46.992Z</time>
      </trkpt>
      <trkpt lat="45.92888" lon="4.73952">
        <ele>169.199996948</ele>
        <time>2015-07-06T10:36:47.997Z</time>
      </trkpt>
      <trkpt lat="45.92888" lon="4.73943">
        <ele>169.100006104</ele>
        <time>2015-07-06T10:36:48.992Z</time>
      </trkpt>
      <trkpt lat="45.92888" lon="4.73934">
        <ele>169</ele>
        <time>2015-07-06T10:36:49.993Z</time>
      </trkpt>
      <trkpt lat="45.92886" lon="4.73924">
        <ele>169.100006104</ele>
        <time>2015-07-06T10:36:51.005Z</time>
      </trkpt>
      <trkpt lat="45.92886" lon="4.73914">
        <ele>169.100006104</ele>
        <time>2015-07-06T10:36:51.992Z</time>
      </trkpt>
      <trkpt lat="45.92885" lon="4.73905">
        <ele>169</ele>
        <time>2015-07-06T10:36:52.99Z</time>
      </trkpt>
      <trkpt lat="45.92883" lon="4.73895">
        <ele>168.899993896</ele>
        <time>2015-07-06T10:36:53.992Z</time>
      </trkpt>
      <trkpt lat="45.9288" lon="4.73885">
        <ele>168.800003052</ele>
        <time>2015-07-06T10:36:54.99Z</time>
      </trkpt>
      <trkpt lat="45.92878" lon="4.73875">
        <ele>168.800003052</ele>
        <time>2015-07-06T10:36:55.993Z</time>
      </trkpt>
      <trkpt lat="45.92875" lon="4.73865">
        <ele>168.699996948</ele>
        <time>2015-07-06T10:36:56.992Z</time>
      </trkpt>
      <trkpt lat="45.92873" lon="4.73855">
        <ele>168.699996948</ele>
        <time>2015-07-06T10:36:57.992Z</time>
      </trkpt>
      <trkpt lat="45.92871" lon="4.73846">
        <ele>168.699996948</ele>
        <time>2015-07-06T10:36:59.012Z</time>
      </trkpt>
      <trkpt lat="45.92869" lon="4.73837">
        <ele>169.100006104</ele>
        <time>2015-07-06T10:36:59.995Z</time>
      </trkpt>
      <trkpt lat="45.92867" lon="4.73828">
        <ele>169.199996948</ele>
        <time>2015-07-06T10:37:00.996Z</time>
      </trkpt>
      <trkpt lat="45.92864" lon="4.7382">
        <ele>169.300003052</ele>
        <time>2015-07-06T10:37:01.99Z</time>
      </trkpt>
      <trkpt lat="45.92861" lon="4.73812">
        <ele>169.300003052</ele>
        <time>2015-07-06T10:37:02.992Z</time>
      </trkpt>
      <trkpt lat="45.92859" lon="4.73805">
        <ele>169.100006104</ele>
        <time>2015-07-06T10:37:03.992Z</time>
      </trkpt>
      <trkpt lat="45.92855" lon="4.73798">
        <ele>168.800003052</ele>
        <time>2015-07-06T10:37:04.989Z</time>
      </trkpt>
      <trkpt lat="45.92854" lon="4.73792">
        <ele>168.600006104</ele>
        <time>2015-07-06T10:37:06.147Z</time>
      </trkpt>
      <trkpt lat="45.9285" lon="4.73787">
        <ele>168.600006104</ele>
        <time>2015-07-06T10:37:07.012Z</time>
      </trkpt>
      <trkpt lat="45.92846" lon="4.73783">
        <ele>168.800003052</ele>
        <time>2015-07-06T10:37:07.993Z</time>
      </trkpt>
      <trkpt lat="45.92841" lon="4.73779">
        <ele>168.899993896</ele>
        <time>2015-07-06T10:37:09.022Z</time>
      </trkpt>
      <trkpt lat="45.92837" lon="4.73777">
        <ele>168.800003052</ele>
        <time>2015-07-06T10:37:10.012Z</time>
      </trkpt>
      <trkpt lat="45.92832" lon="4.73774">
        <ele>168.800003052</ele>
        <time>2015-07-06T10:37:10.993Z</time>
      </trkpt>
      <trkpt lat="45.92827" lon="4.73772">
        <ele>168.800003052</ele>
        <time>2015-07-06T10:37:11.995Z</time>
      </trkpt>
      <trkpt lat="45.92824" lon="4.73763">
        <ele>168.399993896</ele>
        <time>2015-07-06T10:37:12.992Z</time>
      </trkpt>
      <trkpt lat="45.92822" lon="4.73764">
        <ele>168</ele>
        <time>2015-07-06T10:37:13.994Z</time>
      </trkpt>
      <trkpt lat="45.92821" lon="4.73765">
        <ele>168</ele>
        <time>2015-07-06T10:37:15.216Z</time>
      </trkpt>
      <trkpt lat="45.92815" lon="4.73759">
        <ele>167.699996948</ele>
        <time>2015-07-06T10:37:16.003Z</time>
      </trkpt>
      <trkpt lat="45.92811" lon="4.73756">
        <ele>167.600006104</ele>
        <time>2015-07-06T10:37:17.002Z</time>
      </trkpt>
      <trkpt lat="45.92806" lon="4.73751">
        <ele>167.399993896</ele>
        <time>2015-07-06T10:37:18.001Z</time>
      </trkpt>
      <trkpt lat="45.928" lon="4.73742">
        <ele>167.199996948</ele>
        <time>2015-07-06T10:37:19.107Z</time>
      </trkpt>
      <trkpt lat="45.92795" lon="4.73736">
        <ele>166.699996948</ele>
        <time>2015-07-06T10:37:20.001Z</time>
      </trkpt>
      <trkpt lat="45.92789" lon="4.73732">
        <ele>166.5</ele>
        <time>2015-07-06T10:37:20.999Z</time>
      </trkpt>
      <trkpt lat="45.92783" lon="4.7373">
        <ele>166</ele>
        <time>2015-07-06T10:37:22.377Z</time>
      </trkpt>
      <trkpt lat="45.92777" lon="4.73734">
        <ele>166</ele>
        <time>2015-07-06T10:37:23.002Z</time>
      </trkpt>
      <trkpt lat="45.92771" lon="4.73739">
        <ele>165.800003052</ele>
        <time>2015-07-06T10:37:24Z</time>
      </trkpt>
      <trkpt lat="45.92766" lon="4.73743">
        <ele>165.600006104</ele>
        <time>2015-07-06T10:37:25.04Z</time>
      </trkpt>
      <trkpt lat="45.92758" lon="4.73741">
        <ele>165.300003052</ele>
        <time>2015-07-06T10:37:26.002Z</time>
      </trkpt>
      <trkpt lat="45.9275" lon="4.73739">
        <ele>165.199996948</ele>
        <time>2015-07-06T10:37:26.999Z</time>
      </trkpt>
      <trkpt lat="45.92743" lon="4.73733">
        <ele>165</ele>
        <time>2015-07-06T10:37:27.995Z</time>
      </trkpt>
      <trkpt lat="45.92735" lon="4.7373">
        <ele>164.800003052</ele>
        <time>2015-07-06T10:37:28.995Z</time>
      </trkpt>
      <trkpt lat="45.92728" lon="4.73726">
        <ele>164.5</ele>
        <time>2015-07-06T10:37:29.999Z</time>
      </trkpt>
      <trkpt lat="45.92719" lon="4.7372">
        <ele>164.399993896</ele>
        <time>2015-07-06T10:37:30.993Z</time>
      </trkpt>
      <trkpt lat="45.9271" lon="4.73715">
        <ele>164.399993896</ele>
        <time>2015-07-06T10:37:32Z</time>
      </trkpt>
      <trkpt lat="45.92702" lon="4.73708">
        <ele>164.399993896</ele>
        <time>2015-07-06T10:37:33.011Z</time>
      </trkpt>
      <trkpt lat="45.92694" lon="4.73702">
        <ele>164.399993896</ele>
        <time>2015-07-06T10:37:33.997Z</time>
      </trkpt>
      <trkpt lat="45.92687" lon="4.73697">
        <ele>164.300003052</ele>
        <time>2015-07-06T10:37:34.997Z</time>
      </trkpt>
      <trkpt lat="45.9268" lon="4.73693">
        <ele>164.300003052</ele>
        <time>2015-07-06T10:37:35.995Z</time>
      </trkpt>
      <trkpt lat="45.92676" lon="4.73699">
        <ele>164.199996948</ele>
        <time>2015-07-06T10:37:36.998Z</time>
      </trkpt>
      <trkpt lat="45.92669" lon="4.73695">
        <ele>164.300003052</ele>
        <time>2015-07-06T10:37:38.007Z</time>
      </trkpt>
      <trkpt lat="45.92662" lon="4.73691">
        <ele>164.399993896</ele>
        <time>2015-07-06T10:37:38.997Z</time>
      </trkpt>
      <trkpt lat="45.92656" lon="4.73687">
        <ele>164.600006104</ele>
        <time>2015-07-06T10:37:40.04Z</time>
      </trkpt>
      <trkpt lat="45.9265" lon="4.73683">
        <ele>164.699996948</ele>
        <time>2015-07-06T10:37:40.991Z</time>
      </trkpt>
      <trkpt lat="45.92645" lon="4.73678">
        <ele>165</ele>
        <time>2015-07-06T10:37:41.998Z</time>
      </trkpt>
      <trkpt lat="45.9264" lon="4.73674">
        <ele>165.199996948</ele>
        <time>2015-07-06T10:37:42.992Z</time>
      </trkpt>
      <trkpt lat="45.92636" lon="4.73667">
        <ele>165.5</ele>
        <time>2015-07-06T10:37:43.998Z</time>
      </trkpt>
      <trkpt lat="45.92632" lon="4.73662">
        <ele>165.699996948</ele>
        <time>2015-07-06T10:37:44.992Z</time>
      </trkpt>
      <trkpt lat="45.92628" lon="4.73652">
        <ele>166.199996948</ele>
        <time>2015-07-06T10:37:45.992Z</time>
      </trkpt>
      <trkpt lat="45.92625" lon="4.73644">
        <ele>166.600006104</ele>
        <time>2015-07-06T10:37:46.995Z</time>
      </trkpt>
      <trkpt lat="45.92622" lon="4.73636">
        <ele>166.800003052</ele>
        <time>2015-07-06T10:37:47.998Z</time>
      </trkpt>
      <trkpt lat="45.92617" lon="4.73629">
        <ele>166.899993896</ele>
        <time>2015-07-06T10:37:48.992Z</time>
      </trkpt>
      <trkpt lat="45.92612" lon="4.73622">
        <ele>167.100006104</ele>
        <time>2015-07-06T10:37:49.993Z</time>
      </trkpt>
      <trkpt lat="45.92606" lon="4.73618">
        <ele>167.800003052</ele>
        <time>2015-07-06T10:37:50.994Z</time>
      </trkpt>
      <trkpt lat="45.92599" lon="4.73615">
        <ele>167.899993896</ele>
        <time>2015-07-06T10:37:51.996Z</time>
      </trkpt>
      <trkpt lat="45.92593" lon="4.73613">
        <ele>168.199996948</ele>
        <time>2015-07-06T10:37:53.239Z</time>
      </trkpt>
      <trkpt lat="45.92585" lon="4.73612">
        <ele>168.5</ele>
        <time>2015-07-06T10:37:54.048Z</time>
      </trkpt>
      <trkpt lat="45.92579" lon="4.73614">
        <ele>169</ele>
        <time>2015-07-06T10:37:54.994Z</time>
      </trkpt>
      <trkpt lat="45.92572" lon="4.73615">
        <ele>169.300003052</ele>
        <time>2015-07-06T10:37:55.995Z</time>
      </trkpt>
      <trkpt lat="45.92565" lon="4.73616">
        <ele>169.600006104</ele>
        <time>2015-07-06T10:37:57.025Z</time>
      </trkpt>
      <trkpt lat="45.92557" lon="4.73618">
        <ele>169.800003052</ele>
        <time>2015-07-06T10:37:57.995Z</time>
      </trkpt>
      <trkpt lat="45.92551" lon="4.73622">
        <ele>170</ele>
        <time>2015-07-06T10:37:59.018Z</time>
      </trkpt>
      <trkpt lat="45.92545" lon="4.73624">
        <ele>170.300003052</ele>
        <time>2015-07-06T10:37:59.993Z</time>
      </trkpt>
      <trkpt lat="45.92538" lon="4.73626">
        <ele>170.5</ele>
        <time>2015-07-06T10:38:00.992Z</time>
      </trkpt>
      <trkpt lat="45.92532" lon="4.73628">
        <ele>170.800003052</ele>
        <time>2015-07-06T10:38:02.005Z</time>
      </trkpt>
      <trkpt lat="45.92527" lon="4.7363">
        <ele>171</ele>
        <time>2015-07-06T10:38:02.994Z</time>
      </trkpt>
      <trkpt lat="45.92521" lon="4.73631">
        <ele>171</ele>
        <time>2015-07-06T10:38:03.994Z</time>
      </trkpt>
      <trkpt lat="45.92515" lon="4.73632">
        <ele>171</ele>
        <time>2015-07-06T10:38:04.994Z</time>
      </trkpt>
      <trkpt lat="45.92509" lon="4.73633">
        <ele>171.199996948</ele>
        <time>2015-07-06T10:38:05.999Z</time>
      </trkpt>
      <trkpt lat="45.92504" lon="4.73633">
        <ele>171.399993896</ele>
        <time>2015-07-06T10:38:06.993Z</time>
      </trkpt>
      <trkpt lat="45.92499" lon="4.73633">
        <ele>171.600006104</ele>
        <time>2015-07-06T10:38:07.995Z</time>
      </trkpt>
      <trkpt lat="45.92494" lon="4.73633">
        <ele>171.699996948</ele>
        <time>2015-07-06T10:38:08.991Z</time>
      </trkpt>
      <trkpt lat="45.92487" lon="4.73633">
        <ele>171.399993896</ele>
        <time>2015-07-06T10:38:10.011Z</time>
      </trkpt>
      <trkpt lat="45.92482" lon="4.73633">
        <ele>171.399993896</ele>
        <time>2015-07-06T10:38:10.991Z</time>
      </trkpt>
      <trkpt lat="45.92477" lon="4.73632">
        <ele>171.5</ele>
        <time>2015-07-06T10:38:11.997Z</time>
      </trkpt>
      <trkpt lat="45.92472" lon="4.73632">
        <ele>171.600006104</ele>
        <time>2015-07-06T10:38:13.078Z</time>
      </trkpt>
      <trkpt lat="45.92468" lon="4.73636">
        <ele>171.699996948</ele>
        <time>2015-07-06T10:38:13.996Z</time>
      </trkpt>
      <trkpt lat="45.92465" lon="4.73641">
        <ele>171.800003052</ele>
        <time>2015-07-06T10:38:14.993Z</time>
      </trkpt>
      <trkpt lat="45.92464" lon="4.73654">
        <ele>172.199996948</ele>
        <time>2015-07-06T10:38:16.991Z</time>
      </trkpt>
      <trkpt lat="45.92464" lon="4.73661">
        <ele>172.300003052</ele>
        <time>2015-07-06T10:38:17.996Z</time>
      </trkpt>
      <trkpt lat="45.92464" lon="4.73673">
        <ele>172.5</ele>
        <time>2015-07-06T10:38:19.992Z</time>
      </trkpt>
      <trkpt lat="45.92463" lon="4.73679">
        <ele>172.600006104</ele>
        <time>2015-07-06T10:38:20.991Z</time>
      </trkpt>
      <trkpt lat="45.9246" lon="4.73691">
        <ele>173.199996948</ele>
        <time>2015-07-06T10:38:23.994Z</time>
      </trkpt>
      <trkpt lat="45.92459" lon="4.73694">
        <ele>173.300003052</ele>
        <time>2015-07-06T10:38:25.013Z</time>
      </trkpt>
      <trkpt lat="45.92459" lon="4.73696">
        <ele>173.899993896</ele>
        <time>2015-07-06T10:38:26.176Z</time>
      </trkpt>
      <trkpt lat="45.92459" lon="4.73698">
        <ele>174.699996948</ele>
        <time>2015-07-06T10:38:28.049Z</time>
      </trkpt>
      <trkpt lat="45.92461" lon="4.737">
        <ele>175.100006104</ele>
        <time>2015-07-06T10:38:29.038Z</time>
      </trkpt>
      <trkpt lat="45.92461" lon="4.73709">
        <ele>174.800003052</ele>
        <time>2015-07-06T10:38:30.997Z</time>
      </trkpt>
      <trkpt lat="45.9246" lon="4.73714">
        <ele>174.600006104</ele>
        <time>2015-07-06T10:38:31.998Z</time>
      </trkpt>
      <trkpt lat="45.92457" lon="4.73708">
        <ele>173.399993896</ele>
        <time>2015-07-06T10:38:37.994Z</time>
      </trkpt>
      <trkpt lat="45.92458" lon="4.73698">
        <ele>173</ele>
        <time>2015-07-06T10:38:38.992Z</time>
      </trkpt>
      <trkpt lat="45.92454" lon="4.73688">
        <ele>172.399993896</ele>
        <time>2015-07-06T10:38:39.994Z</time>
      </trkpt>
      <trkpt lat="45.92449" lon="4.7368">
        <ele>171.899993896</ele>
        <time>2015-07-06T10:38:40.992Z</time>
      </trkpt>
      <trkpt lat="45.92457" lon="4.73684">
        <ele>169.699996948</ele>
        <time>2015-07-06T10:38:44.011Z</time>
      </trkpt>
      <trkpt lat="45.92458" lon="4.73687">
        <ele>169.199996948</ele>
        <time>2015-07-06T10:38:45.002Z</time>
      </trkpt>
      <trkpt lat="45.92462" lon="4.73684">
        <ele>166.199996948</ele>
        <time>2015-07-06T10:38:53.252Z</time>
      </trkpt>
      <trkpt lat="45.9246" lon="4.73685">
        <ele>165.5</ele>
        <time>2015-07-06T10:38:53.985Z</time>
      </trkpt>
      <trkpt lat="45.9246" lon="4.73684">
        <ele>165.300003052</ele>
        <time>2015-07-06T10:38:57.009Z</time>
      </trkpt>
      <trkpt lat="45.9246" lon="4.73685">
        <ele>167.199996948</ele>
        <time>2015-07-06T10:38:58.005Z</time>
      </trkpt>
      <trkpt lat="45.92466" lon="4.73688">
        <ele>169.300003052</ele>
        <time>2015-07-06T10:39:01.975Z</time>
      </trkpt>
      <trkpt lat="45.92469" lon="4.73688">
        <ele>167.399993896</ele>
        <time>2015-07-06T10:39:03.002Z</time>
      </trkpt>
      <trkpt lat="45.92472" lon="4.73686">
        <ele>165.699996948</ele>
        <time>2015-07-06T10:39:04.578Z</time>
      </trkpt>
    </trkseg>
  </trk>
</gpx>